<?xml version="1.0" encoding="UTF-8" standalone="no" ?>
<gpx xmlns="http://www.topografix.com/GPX/1/1" xmlns:xsi="http://www.w3.org/2001/XMLSchema-instance" xsi:schemaLocation="http://www.topografix.com/GPX/1/1 http://www.topografix.com/GPX/1/1/gpx.xsd" version="1.1" creator="VisuGPX - https://www.visugpx.com">
  <metadata>
    <name>Sospel OLIVETTA PIENE HAUTE</name>
    <desc><![CDATA[Belle sortie d'hiver, il faisait assez froid ce qui explique le choix des expositions au soleil.
Après s'être réchauffé sur la première spéciale, on a suivi la Bevera jusqu'à Olivetta puis les traces de la course de Breil "le loup du bois noir" avec quelques variantes, comme la montée à la tête de Paula, qui permet une jolie descente pour retomber sur la piste de montée à piene haute, puis descente classique sur Olivetta et retour par la Bevera.
Plein de variantes sont possibles notamment en remontant sur le col de Braus.]]></desc>
  </metadata>
  <trk>
    <name><![CDATA[Sospel ]]></name>
    <extensions>
      <line xmlns="http://www.topografix.com/GPX/gpx_style/0/2">
        <color>0000FF</color>
        <width>4</width>
      </line>
    </extensions>
    <trkseg>
      <trkpt lat="43.87999" lon="7.44409">
        <ele>361.60000610352</ele>
        <time>2022-01-15T08:20:48.000Z</time>
      </trkpt>
      <trkpt lat="43.87999" lon="7.44409">
        <ele>362</ele>
        <time>2022-01-15T08:20:55.000Z</time>
      </trkpt>
      <trkpt lat="43.87999" lon="7.44408">
        <ele>361.60000610352</ele>
        <time>2022-01-15T08:21:06.000Z</time>
      </trkpt>
      <trkpt lat="43.87999" lon="7.4441">
        <ele>361.39999389648</ele>
        <time>2022-01-15T08:21:14.000Z</time>
      </trkpt>
      <trkpt lat="43.87998" lon="7.44411">
        <ele>361.20001220703</ele>
        <time>2022-01-15T08:21:25.000Z</time>
      </trkpt>
      <trkpt lat="43.87997" lon="7.44411">
        <ele>361.39999389648</ele>
        <time>2022-01-15T08:21:34.000Z</time>
      </trkpt>
      <trkpt lat="43.87996" lon="7.44411">
        <ele>361.20001220703</ele>
        <time>2022-01-15T08:21:40.000Z</time>
      </trkpt>
      <trkpt lat="43.87996" lon="7.4441">
        <ele>361.79998779297</ele>
        <time>2022-01-15T08:21:46.000Z</time>
      </trkpt>
      <trkpt lat="43.87996" lon="7.44411">
        <ele>361.20001220703</ele>
        <time>2022-01-15T08:21:53.000Z</time>
      </trkpt>
      <trkpt lat="43.87995" lon="7.44411">
        <ele>361.39999389648</ele>
        <time>2022-01-15T08:22:01.000Z</time>
      </trkpt>
      <trkpt lat="43.87996" lon="7.44411">
        <ele>361.39999389648</ele>
        <time>2022-01-15T08:22:08.000Z</time>
      </trkpt>
      <trkpt lat="43.87996" lon="7.4441">
        <ele>361</ele>
        <time>2022-01-15T08:22:10.000Z</time>
      </trkpt>
      <trkpt lat="43.87996" lon="7.4441">
        <ele>361.20001220703</ele>
        <time>2022-01-15T08:22:13.000Z</time>
      </trkpt>
      <trkpt lat="43.87995" lon="7.44411">
        <ele>361.79998779297</ele>
        <time>2022-01-15T08:22:23.000Z</time>
      </trkpt>
      <trkpt lat="43.87994" lon="7.4441">
        <ele>361.39999389648</ele>
        <time>2022-01-15T08:22:25.000Z</time>
      </trkpt>
      <trkpt lat="43.87994" lon="7.4441">
        <ele>361.20001220703</ele>
        <time>2022-01-15T08:22:27.000Z</time>
      </trkpt>
      <trkpt lat="43.87995" lon="7.4441">
        <ele>360.60000610352</ele>
        <time>2022-01-15T08:22:32.000Z</time>
      </trkpt>
      <trkpt lat="43.87997" lon="7.44411">
        <ele>360.60000610352</ele>
        <time>2022-01-15T08:22:43.000Z</time>
      </trkpt>
      <trkpt lat="43.87999" lon="7.44412">
        <ele>360.60000610352</ele>
        <time>2022-01-15T08:22:50.000Z</time>
      </trkpt>
      <trkpt lat="43.88" lon="7.4441">
        <ele>361</ele>
        <time>2022-01-15T08:22:59.000Z</time>
      </trkpt>
      <trkpt lat="43.88001" lon="7.44409">
        <ele>360.39999389648</ele>
        <time>2022-01-15T08:23:08.000Z</time>
      </trkpt>
      <trkpt lat="43.88001" lon="7.4441">
        <ele>360.39999389648</ele>
        <time>2022-01-15T08:23:14.000Z</time>
      </trkpt>
      <trkpt lat="43.88" lon="7.44412">
        <ele>360.60000610352</ele>
        <time>2022-01-15T08:23:22.000Z</time>
      </trkpt>
      <trkpt lat="43.88001" lon="7.4441">
        <ele>360.60000610352</ele>
        <time>2022-01-15T08:23:29.000Z</time>
      </trkpt>
      <trkpt lat="43.88002" lon="7.4441">
        <ele>360.60000610352</ele>
        <time>2022-01-15T08:23:39.000Z</time>
      </trkpt>
      <trkpt lat="43.88003" lon="7.4441">
        <ele>360.60000610352</ele>
        <time>2022-01-15T08:23:50.000Z</time>
      </trkpt>
      <trkpt lat="43.88003" lon="7.4441">
        <ele>360.20001220703</ele>
        <time>2022-01-15T08:23:55.000Z</time>
      </trkpt>
      <trkpt lat="43.88002" lon="7.44409">
        <ele>361</ele>
        <time>2022-01-15T08:24:07.000Z</time>
      </trkpt>
      <trkpt lat="43.88" lon="7.44407">
        <ele>360.79998779297</ele>
        <time>2022-01-15T08:24:15.000Z</time>
      </trkpt>
      <trkpt lat="43.88001" lon="7.44407">
        <ele>360.60000610352</ele>
        <time>2022-01-15T08:24:22.000Z</time>
      </trkpt>
      <trkpt lat="43.88002" lon="7.44412">
        <ele>360</ele>
        <time>2022-01-15T08:24:31.000Z</time>
      </trkpt>
      <trkpt lat="43.88003" lon="7.44414">
        <ele>360.20001220703</ele>
        <time>2022-01-15T08:24:38.000Z</time>
      </trkpt>
      <trkpt lat="43.88003" lon="7.44415">
        <ele>360.39999389648</ele>
        <time>2022-01-15T08:24:46.000Z</time>
      </trkpt>
      <trkpt lat="43.88002" lon="7.44417">
        <ele>360.60000610352</ele>
        <time>2022-01-15T08:24:52.000Z</time>
      </trkpt>
      <trkpt lat="43.87999" lon="7.44416">
        <ele>360</ele>
        <time>2022-01-15T08:25:00.000Z</time>
      </trkpt>
      <trkpt lat="43.87998" lon="7.44416">
        <ele>360.60000610352</ele>
        <time>2022-01-15T08:25:05.000Z</time>
      </trkpt>
      <trkpt lat="43.87998" lon="7.44416">
        <ele>361</ele>
        <time>2022-01-15T08:25:18.000Z</time>
      </trkpt>
      <trkpt lat="43.87998" lon="7.44415">
        <ele>360.60000610352</ele>
        <time>2022-01-15T08:25:27.000Z</time>
      </trkpt>
      <trkpt lat="43.87998" lon="7.44414">
        <ele>360.60000610352</ele>
        <time>2022-01-15T08:25:36.000Z</time>
      </trkpt>
      <trkpt lat="43.87999" lon="7.44412">
        <ele>360.60000610352</ele>
        <time>2022-01-15T08:25:38.000Z</time>
      </trkpt>
      <trkpt lat="43.88" lon="7.44412">
        <ele>361</ele>
        <time>2022-01-15T08:25:41.000Z</time>
      </trkpt>
      <trkpt lat="43.88" lon="7.44413">
        <ele>361.39999389648</ele>
        <time>2022-01-15T08:25:48.000Z</time>
      </trkpt>
      <trkpt lat="43.88" lon="7.44412">
        <ele>361</ele>
        <time>2022-01-15T08:25:59.000Z</time>
      </trkpt>
      <trkpt lat="43.88001" lon="7.44411">
        <ele>360.79998779297</ele>
        <time>2022-01-15T08:26:02.000Z</time>
      </trkpt>
      <trkpt lat="43.88002" lon="7.44414">
        <ele>361.20001220703</ele>
        <time>2022-01-15T08:26:06.000Z</time>
      </trkpt>
      <trkpt lat="43.88002" lon="7.44416">
        <ele>361.20001220703</ele>
        <time>2022-01-15T08:26:08.000Z</time>
      </trkpt>
      <trkpt lat="43.87999" lon="7.44427">
        <ele>361.39999389648</ele>
        <time>2022-01-15T08:26:15.000Z</time>
      </trkpt>
      <trkpt lat="43.87997" lon="7.44429">
        <ele>361.39999389648</ele>
        <time>2022-01-15T08:26:17.000Z</time>
      </trkpt>
      <trkpt lat="43.87994" lon="7.44429">
        <ele>361.20001220703</ele>
        <time>2022-01-15T08:26:20.000Z</time>
      </trkpt>
      <trkpt lat="43.8799" lon="7.44429">
        <ele>361.20001220703</ele>
        <time>2022-01-15T08:26:24.000Z</time>
      </trkpt>
      <trkpt lat="43.87987" lon="7.44428">
        <ele>360.79998779297</ele>
        <time>2022-01-15T08:26:26.000Z</time>
      </trkpt>
      <trkpt lat="43.87984" lon="7.4442">
        <ele>361</ele>
        <time>2022-01-15T08:26:31.000Z</time>
      </trkpt>
      <trkpt lat="43.87983" lon="7.44419">
        <ele>361</ele>
        <time>2022-01-15T08:26:36.000Z</time>
      </trkpt>
      <trkpt lat="43.87984" lon="7.44419">
        <ele>360.79998779297</ele>
        <time>2022-01-15T08:26:42.000Z</time>
      </trkpt>
      <trkpt lat="43.87986" lon="7.44417">
        <ele>361.20001220703</ele>
        <time>2022-01-15T08:27:00.000Z</time>
      </trkpt>
      <trkpt lat="43.87991" lon="7.44417">
        <ele>361.20001220703</ele>
        <time>2022-01-15T08:27:08.000Z</time>
      </trkpt>
      <trkpt lat="43.87993" lon="7.44417">
        <ele>361.20001220703</ele>
        <time>2022-01-15T08:27:10.000Z</time>
      </trkpt>
      <trkpt lat="43.87996" lon="7.44419">
        <ele>361.39999389648</ele>
        <time>2022-01-15T08:27:13.000Z</time>
      </trkpt>
      <trkpt lat="43.87998" lon="7.44419">
        <ele>361.39999389648</ele>
        <time>2022-01-15T08:27:14.000Z</time>
      </trkpt>
      <trkpt lat="43.88006" lon="7.44422">
        <ele>361.20001220703</ele>
        <time>2022-01-15T08:27:20.000Z</time>
      </trkpt>
      <trkpt lat="43.88014" lon="7.44424">
        <ele>361.20001220703</ele>
        <time>2022-01-15T08:27:24.000Z</time>
      </trkpt>
      <trkpt lat="43.88024" lon="7.44429">
        <ele>361.39999389648</ele>
        <time>2022-01-15T08:27:29.000Z</time>
      </trkpt>
      <trkpt lat="43.8803" lon="7.44433">
        <ele>361.60000610352</ele>
        <time>2022-01-15T08:27:32.000Z</time>
      </trkpt>
      <trkpt lat="43.88037" lon="7.44441">
        <ele>362</ele>
        <time>2022-01-15T08:27:37.000Z</time>
      </trkpt>
      <trkpt lat="43.88038" lon="7.4445">
        <ele>362.60000610352</ele>
        <time>2022-01-15T08:27:40.000Z</time>
      </trkpt>
      <trkpt lat="43.88036" lon="7.44457">
        <ele>362.79998779297</ele>
        <time>2022-01-15T08:27:42.000Z</time>
      </trkpt>
      <trkpt lat="43.8803" lon="7.4448">
        <ele>361.79998779297</ele>
        <time>2022-01-15T08:27:48.000Z</time>
      </trkpt>
      <trkpt lat="43.88017" lon="7.44512">
        <ele>361.60000610352</ele>
        <time>2022-01-15T08:27:56.000Z</time>
      </trkpt>
      <trkpt lat="43.8801" lon="7.44528">
        <ele>361.20001220703</ele>
        <time>2022-01-15T08:28:00.000Z</time>
      </trkpt>
      <trkpt lat="43.87997" lon="7.4455">
        <ele>361</ele>
        <time>2022-01-15T08:28:06.000Z</time>
      </trkpt>
      <trkpt lat="43.87986" lon="7.44564">
        <ele>360.60000610352</ele>
        <time>2022-01-15T08:28:10.000Z</time>
      </trkpt>
      <trkpt lat="43.87981" lon="7.4457">
        <ele>360.39999389648</ele>
        <time>2022-01-15T08:28:12.000Z</time>
      </trkpt>
      <trkpt lat="43.8796" lon="7.4459">
        <ele>360.39999389648</ele>
        <time>2022-01-15T08:28:19.000Z</time>
      </trkpt>
      <trkpt lat="43.87947" lon="7.44603">
        <ele>360.79998779297</ele>
        <time>2022-01-15T08:28:24.000Z</time>
      </trkpt>
      <trkpt lat="43.87932" lon="7.44621">
        <ele>360.60000610352</ele>
        <time>2022-01-15T08:28:31.000Z</time>
      </trkpt>
      <trkpt lat="43.87922" lon="7.44631">
        <ele>360.79998779297</ele>
        <time>2022-01-15T08:28:37.000Z</time>
      </trkpt>
      <trkpt lat="43.87926" lon="7.44632">
        <ele>360.79998779297</ele>
        <time>2022-01-15T08:28:40.000Z</time>
      </trkpt>
      <trkpt lat="43.8793" lon="7.44627">
        <ele>361</ele>
        <time>2022-01-15T08:28:42.000Z</time>
      </trkpt>
      <trkpt lat="43.87935" lon="7.44622">
        <ele>361.60000610352</ele>
        <time>2022-01-15T08:28:44.000Z</time>
      </trkpt>
      <trkpt lat="43.87938" lon="7.4462">
        <ele>361.79998779297</ele>
        <time>2022-01-15T08:28:45.000Z</time>
      </trkpt>
      <trkpt lat="43.87944" lon="7.44616">
        <ele>362.60000610352</ele>
        <time>2022-01-15T08:28:47.000Z</time>
      </trkpt>
      <trkpt lat="43.8795" lon="7.4461">
        <ele>363.79998779297</ele>
        <time>2022-01-15T08:28:50.000Z</time>
      </trkpt>
      <trkpt lat="43.87955" lon="7.44606">
        <ele>364.60000610352</ele>
        <time>2022-01-15T08:28:52.000Z</time>
      </trkpt>
      <trkpt lat="43.87958" lon="7.44606">
        <ele>365</ele>
        <time>2022-01-15T08:28:53.000Z</time>
      </trkpt>
      <trkpt lat="43.87964" lon="7.44611">
        <ele>366.39999389648</ele>
        <time>2022-01-15T08:28:56.000Z</time>
      </trkpt>
      <trkpt lat="43.87961" lon="7.44619">
        <ele>367.20001220703</ele>
        <time>2022-01-15T08:28:59.000Z</time>
      </trkpt>
      <trkpt lat="43.87956" lon="7.4462">
        <ele>367.39999389648</ele>
        <time>2022-01-15T08:29:01.000Z</time>
      </trkpt>
      <trkpt lat="43.87954" lon="7.4462">
        <ele>367.60000610352</ele>
        <time>2022-01-15T08:29:02.000Z</time>
      </trkpt>
      <trkpt lat="43.87952" lon="7.4462">
        <ele>367.79998779297</ele>
        <time>2022-01-15T08:29:03.000Z</time>
      </trkpt>
      <trkpt lat="43.87947" lon="7.44623">
        <ele>368.20001220703</ele>
        <time>2022-01-15T08:29:06.000Z</time>
      </trkpt>
      <trkpt lat="43.87946" lon="7.44627">
        <ele>368.60000610352</ele>
        <time>2022-01-15T08:29:08.000Z</time>
      </trkpt>
      <trkpt lat="43.87941" lon="7.44636">
        <ele>369.39999389648</ele>
        <time>2022-01-15T08:29:13.000Z</time>
      </trkpt>
      <trkpt lat="43.87939" lon="7.4464">
        <ele>369.79998779297</ele>
        <time>2022-01-15T08:29:15.000Z</time>
      </trkpt>
      <trkpt lat="43.87938" lon="7.44641">
        <ele>370</ele>
        <time>2022-01-15T08:29:16.000Z</time>
      </trkpt>
      <trkpt lat="43.87933" lon="7.44646">
        <ele>370.79998779297</ele>
        <time>2022-01-15T08:29:20.000Z</time>
      </trkpt>
      <trkpt lat="43.87932" lon="7.44647">
        <ele>371</ele>
        <time>2022-01-15T08:29:21.000Z</time>
      </trkpt>
      <trkpt lat="43.87928" lon="7.44655">
        <ele>372</ele>
        <time>2022-01-15T08:29:26.000Z</time>
      </trkpt>
      <trkpt lat="43.87927" lon="7.4466">
        <ele>372.39999389648</ele>
        <time>2022-01-15T08:29:28.000Z</time>
      </trkpt>
      <trkpt lat="43.87926" lon="7.44668">
        <ele>373</ele>
        <time>2022-01-15T08:29:32.000Z</time>
      </trkpt>
      <trkpt lat="43.87925" lon="7.44675">
        <ele>373.79998779297</ele>
        <time>2022-01-15T08:29:36.000Z</time>
      </trkpt>
      <trkpt lat="43.87925" lon="7.44679">
        <ele>374.20001220703</ele>
        <time>2022-01-15T08:29:38.000Z</time>
      </trkpt>
      <trkpt lat="43.87924" lon="7.44693">
        <ele>375</ele>
        <time>2022-01-15T08:29:45.000Z</time>
      </trkpt>
      <trkpt lat="43.87924" lon="7.44696">
        <ele>375.20001220703</ele>
        <time>2022-01-15T08:29:46.000Z</time>
      </trkpt>
      <trkpt lat="43.87923" lon="7.44712">
        <ele>376</ele>
        <time>2022-01-15T08:29:53.000Z</time>
      </trkpt>
      <trkpt lat="43.87923" lon="7.44717">
        <ele>376.20001220703</ele>
        <time>2022-01-15T08:29:55.000Z</time>
      </trkpt>
      <trkpt lat="43.87924" lon="7.44728">
        <ele>376.79998779297</ele>
        <time>2022-01-15T08:30:00.000Z</time>
      </trkpt>
      <trkpt lat="43.87924" lon="7.44736">
        <ele>377.39999389648</ele>
        <time>2022-01-15T08:30:04.000Z</time>
      </trkpt>
      <trkpt lat="43.87923" lon="7.44741">
        <ele>377.60000610352</ele>
        <time>2022-01-15T08:30:06.000Z</time>
      </trkpt>
      <trkpt lat="43.8792" lon="7.44758">
        <ele>378</ele>
        <time>2022-01-15T08:30:13.000Z</time>
      </trkpt>
      <trkpt lat="43.87921" lon="7.44762">
        <ele>378.20001220703</ele>
        <time>2022-01-15T08:30:15.000Z</time>
      </trkpt>
      <trkpt lat="43.87923" lon="7.44764">
        <ele>378.39999389648</ele>
        <time>2022-01-15T08:30:16.000Z</time>
      </trkpt>
      <trkpt lat="43.87926" lon="7.44766">
        <ele>378.79998779297</ele>
        <time>2022-01-15T08:30:18.000Z</time>
      </trkpt>
      <trkpt lat="43.87927" lon="7.44767">
        <ele>378.79998779297</ele>
        <time>2022-01-15T08:30:19.000Z</time>
      </trkpt>
      <trkpt lat="43.87931" lon="7.44767">
        <ele>379.39999389648</ele>
        <time>2022-01-15T08:30:22.000Z</time>
      </trkpt>
      <trkpt lat="43.87934" lon="7.44765">
        <ele>379.39999389648</ele>
        <time>2022-01-15T08:30:24.000Z</time>
      </trkpt>
      <trkpt lat="43.87944" lon="7.44759">
        <ele>380.60000610352</ele>
        <time>2022-01-15T08:30:30.000Z</time>
      </trkpt>
      <trkpt lat="43.87945" lon="7.44758">
        <ele>380.79998779297</ele>
        <time>2022-01-15T08:30:31.000Z</time>
      </trkpt>
      <trkpt lat="43.87948" lon="7.44754">
        <ele>381.60000610352</ele>
        <time>2022-01-15T08:30:34.000Z</time>
      </trkpt>
      <trkpt lat="43.87953" lon="7.44749">
        <ele>382.79998779297</ele>
        <time>2022-01-15T08:30:38.000Z</time>
      </trkpt>
      <trkpt lat="43.87954" lon="7.44748">
        <ele>383</ele>
        <time>2022-01-15T08:30:39.000Z</time>
      </trkpt>
      <trkpt lat="43.87959" lon="7.44743">
        <ele>384</ele>
        <time>2022-01-15T08:30:43.000Z</time>
      </trkpt>
      <trkpt lat="43.87962" lon="7.44744">
        <ele>384.60000610352</ele>
        <time>2022-01-15T08:30:45.000Z</time>
      </trkpt>
      <trkpt lat="43.87964" lon="7.44742">
        <ele>385</ele>
        <time>2022-01-15T08:30:47.000Z</time>
      </trkpt>
      <trkpt lat="43.87966" lon="7.44737">
        <ele>385.20001220703</ele>
        <time>2022-01-15T08:30:49.000Z</time>
      </trkpt>
      <trkpt lat="43.8797" lon="7.44734">
        <ele>386.20001220703</ele>
        <time>2022-01-15T08:30:52.000Z</time>
      </trkpt>
      <trkpt lat="43.87972" lon="7.44732">
        <ele>387</ele>
        <time>2022-01-15T08:30:54.000Z</time>
      </trkpt>
      <trkpt lat="43.87973" lon="7.44731">
        <ele>387.39999389648</ele>
        <time>2022-01-15T08:30:55.000Z</time>
      </trkpt>
      <trkpt lat="43.87979" lon="7.44727">
        <ele>388.39999389648</ele>
        <time>2022-01-15T08:31:00.000Z</time>
      </trkpt>
      <trkpt lat="43.87982" lon="7.44724">
        <ele>389</ele>
        <time>2022-01-15T08:31:02.000Z</time>
      </trkpt>
      <trkpt lat="43.87986" lon="7.44722">
        <ele>389.60000610352</ele>
        <time>2022-01-15T08:31:05.000Z</time>
      </trkpt>
      <trkpt lat="43.87989" lon="7.44719">
        <ele>390.39999389648</ele>
        <time>2022-01-15T08:31:08.000Z</time>
      </trkpt>
      <trkpt lat="43.87991" lon="7.44718">
        <ele>390.79998779297</ele>
        <time>2022-01-15T08:31:09.000Z</time>
      </trkpt>
      <trkpt lat="43.87996" lon="7.44714">
        <ele>391.79998779297</ele>
        <time>2022-01-15T08:31:13.000Z</time>
      </trkpt>
      <trkpt lat="43.88" lon="7.4471">
        <ele>392.39999389648</ele>
        <time>2022-01-15T08:31:16.000Z</time>
      </trkpt>
      <trkpt lat="43.88002" lon="7.44708">
        <ele>392.79998779297</ele>
        <time>2022-01-15T08:31:18.000Z</time>
      </trkpt>
      <trkpt lat="43.88008" lon="7.44702">
        <ele>393.79998779297</ele>
        <time>2022-01-15T08:31:23.000Z</time>
      </trkpt>
      <trkpt lat="43.88014" lon="7.44696">
        <ele>395</ele>
        <time>2022-01-15T08:31:28.000Z</time>
      </trkpt>
      <trkpt lat="43.88019" lon="7.44691">
        <ele>396</ele>
        <time>2022-01-15T08:31:32.000Z</time>
      </trkpt>
      <trkpt lat="43.88021" lon="7.44689">
        <ele>396.20001220703</ele>
        <time>2022-01-15T08:31:33.000Z</time>
      </trkpt>
      <trkpt lat="43.88028" lon="7.44681">
        <ele>397.39999389648</ele>
        <time>2022-01-15T08:31:39.000Z</time>
      </trkpt>
      <trkpt lat="43.88033" lon="7.44677">
        <ele>398</ele>
        <time>2022-01-15T08:31:42.000Z</time>
      </trkpt>
      <trkpt lat="43.88037" lon="7.44674">
        <ele>398.60000610352</ele>
        <time>2022-01-15T08:31:45.000Z</time>
      </trkpt>
      <trkpt lat="43.88043" lon="7.44669">
        <ele>399.20001220703</ele>
        <time>2022-01-15T08:31:49.000Z</time>
      </trkpt>
      <trkpt lat="43.88046" lon="7.44668">
        <ele>399.79998779297</ele>
        <time>2022-01-15T08:31:51.000Z</time>
      </trkpt>
      <trkpt lat="43.88051" lon="7.44662">
        <ele>400.39999389648</ele>
        <time>2022-01-15T08:31:55.000Z</time>
      </trkpt>
      <trkpt lat="43.88053" lon="7.44659">
        <ele>401</ele>
        <time>2022-01-15T08:31:57.000Z</time>
      </trkpt>
      <trkpt lat="43.8806" lon="7.44652">
        <ele>402</ele>
        <time>2022-01-15T08:32:03.000Z</time>
      </trkpt>
      <trkpt lat="43.88061" lon="7.4465">
        <ele>402.20001220703</ele>
        <time>2022-01-15T08:32:04.000Z</time>
      </trkpt>
      <trkpt lat="43.88066" lon="7.44645">
        <ele>403</ele>
        <time>2022-01-15T08:32:08.000Z</time>
      </trkpt>
      <trkpt lat="43.88069" lon="7.44641">
        <ele>403.60000610352</ele>
        <time>2022-01-15T08:32:11.000Z</time>
      </trkpt>
      <trkpt lat="43.88072" lon="7.44637">
        <ele>404</ele>
        <time>2022-01-15T08:32:14.000Z</time>
      </trkpt>
      <trkpt lat="43.88076" lon="7.44632">
        <ele>404.79998779297</ele>
        <time>2022-01-15T08:32:18.000Z</time>
      </trkpt>
      <trkpt lat="43.88078" lon="7.44628">
        <ele>405.20001220703</ele>
        <time>2022-01-15T08:32:20.000Z</time>
      </trkpt>
      <trkpt lat="43.88082" lon="7.4462">
        <ele>406.39999389648</ele>
        <time>2022-01-15T08:32:25.000Z</time>
      </trkpt>
      <trkpt lat="43.88086" lon="7.44611">
        <ele>407.60000610352</ele>
        <time>2022-01-15T08:32:30.000Z</time>
      </trkpt>
      <trkpt lat="43.88088" lon="7.44605">
        <ele>408.20001220703</ele>
        <time>2022-01-15T08:32:33.000Z</time>
      </trkpt>
      <trkpt lat="43.8809" lon="7.44601">
        <ele>408.79998779297</ele>
        <time>2022-01-15T08:32:35.000Z</time>
      </trkpt>
      <trkpt lat="43.88094" lon="7.44595">
        <ele>409.79998779297</ele>
        <time>2022-01-15T08:32:39.000Z</time>
      </trkpt>
      <trkpt lat="43.88097" lon="7.4459">
        <ele>410.39999389648</ele>
        <time>2022-01-15T08:32:42.000Z</time>
      </trkpt>
      <trkpt lat="43.881" lon="7.44586">
        <ele>410.79998779297</ele>
        <time>2022-01-15T08:32:44.000Z</time>
      </trkpt>
      <trkpt lat="43.88108" lon="7.44579">
        <ele>411.79998779297</ele>
        <time>2022-01-15T08:32:50.000Z</time>
      </trkpt>
      <trkpt lat="43.88117" lon="7.44568">
        <ele>413</ele>
        <time>2022-01-15T08:32:57.000Z</time>
      </trkpt>
      <trkpt lat="43.88122" lon="7.44562">
        <ele>413.39999389648</ele>
        <time>2022-01-15T08:33:01.000Z</time>
      </trkpt>
      <trkpt lat="43.88127" lon="7.44555">
        <ele>414</ele>
        <time>2022-01-15T08:33:05.000Z</time>
      </trkpt>
      <trkpt lat="43.88131" lon="7.44548">
        <ele>414.60000610352</ele>
        <time>2022-01-15T08:33:09.000Z</time>
      </trkpt>
      <trkpt lat="43.88138" lon="7.4454">
        <ele>415.20001220703</ele>
        <time>2022-01-15T08:33:14.000Z</time>
      </trkpt>
      <trkpt lat="43.88142" lon="7.44536">
        <ele>415.79998779297</ele>
        <time>2022-01-15T08:33:17.000Z</time>
      </trkpt>
      <trkpt lat="43.88147" lon="7.44533">
        <ele>416.39999389648</ele>
        <time>2022-01-15T08:33:20.000Z</time>
      </trkpt>
      <trkpt lat="43.88153" lon="7.44529">
        <ele>417.39999389648</ele>
        <time>2022-01-15T08:33:24.000Z</time>
      </trkpt>
      <trkpt lat="43.88157" lon="7.44528">
        <ele>417.79998779297</ele>
        <time>2022-01-15T08:33:26.000Z</time>
      </trkpt>
      <trkpt lat="43.88165" lon="7.44527">
        <ele>418.20001220703</ele>
        <time>2022-01-15T08:33:31.000Z</time>
      </trkpt>
      <trkpt lat="43.88173" lon="7.44526">
        <ele>418.60000610352</ele>
        <time>2022-01-15T08:33:36.000Z</time>
      </trkpt>
      <trkpt lat="43.88174" lon="7.44526">
        <ele>418.60000610352</ele>
        <time>2022-01-15T08:33:37.000Z</time>
      </trkpt>
      <trkpt lat="43.88185" lon="7.44524">
        <ele>419.60000610352</ele>
        <time>2022-01-15T08:33:44.000Z</time>
      </trkpt>
      <trkpt lat="43.88193" lon="7.44522">
        <ele>420.60000610352</ele>
        <time>2022-01-15T08:33:50.000Z</time>
      </trkpt>
      <trkpt lat="43.882" lon="7.44519">
        <ele>421.79998779297</ele>
        <time>2022-01-15T08:33:55.000Z</time>
      </trkpt>
      <trkpt lat="43.88202" lon="7.44518">
        <ele>421.79998779297</ele>
        <time>2022-01-15T08:33:56.000Z</time>
      </trkpt>
      <trkpt lat="43.88209" lon="7.44514">
        <ele>422.79998779297</ele>
        <time>2022-01-15T08:34:01.000Z</time>
      </trkpt>
      <trkpt lat="43.88213" lon="7.44513">
        <ele>423.20001220703</ele>
        <time>2022-01-15T08:34:03.000Z</time>
      </trkpt>
      <trkpt lat="43.88218" lon="7.4451">
        <ele>423.79998779297</ele>
        <time>2022-01-15T08:34:06.000Z</time>
      </trkpt>
      <trkpt lat="43.88222" lon="7.44507">
        <ele>424.20001220703</ele>
        <time>2022-01-15T08:34:09.000Z</time>
      </trkpt>
      <trkpt lat="43.88227" lon="7.44503">
        <ele>425</ele>
        <time>2022-01-15T08:34:13.000Z</time>
      </trkpt>
      <trkpt lat="43.88231" lon="7.44501">
        <ele>425.39999389648</ele>
        <time>2022-01-15T08:34:16.000Z</time>
      </trkpt>
      <trkpt lat="43.88236" lon="7.44499">
        <ele>426</ele>
        <time>2022-01-15T08:34:20.000Z</time>
      </trkpt>
      <trkpt lat="43.8824" lon="7.445">
        <ele>426.60000610352</ele>
        <time>2022-01-15T08:34:23.000Z</time>
      </trkpt>
      <trkpt lat="43.88245" lon="7.44504">
        <ele>427.20001220703</ele>
        <time>2022-01-15T08:34:27.000Z</time>
      </trkpt>
      <trkpt lat="43.88249" lon="7.44505">
        <ele>427.39999389648</ele>
        <time>2022-01-15T08:34:30.000Z</time>
      </trkpt>
      <trkpt lat="43.88256" lon="7.44507">
        <ele>428.39999389648</ele>
        <time>2022-01-15T08:34:35.000Z</time>
      </trkpt>
      <trkpt lat="43.88259" lon="7.44508">
        <ele>428.79998779297</ele>
        <time>2022-01-15T08:34:37.000Z</time>
      </trkpt>
      <trkpt lat="43.88264" lon="7.44509">
        <ele>429.39999389648</ele>
        <time>2022-01-15T08:34:40.000Z</time>
      </trkpt>
      <trkpt lat="43.88268" lon="7.4451">
        <ele>430</ele>
        <time>2022-01-15T08:34:43.000Z</time>
      </trkpt>
      <trkpt lat="43.88271" lon="7.44511">
        <ele>430.39999389648</ele>
        <time>2022-01-15T08:34:45.000Z</time>
      </trkpt>
      <trkpt lat="43.88277" lon="7.44512">
        <ele>431.20001220703</ele>
        <time>2022-01-15T08:34:49.000Z</time>
      </trkpt>
      <trkpt lat="43.8828" lon="7.44513">
        <ele>431.39999389648</ele>
        <time>2022-01-15T08:34:51.000Z</time>
      </trkpt>
      <trkpt lat="43.88286" lon="7.44516">
        <ele>432.20001220703</ele>
        <time>2022-01-15T08:34:55.000Z</time>
      </trkpt>
      <trkpt lat="43.8829" lon="7.44518">
        <ele>432.39999389648</ele>
        <time>2022-01-15T08:34:58.000Z</time>
      </trkpt>
      <trkpt lat="43.88295" lon="7.44521">
        <ele>432.60000610352</ele>
        <time>2022-01-15T08:35:01.000Z</time>
      </trkpt>
      <trkpt lat="43.88307" lon="7.44526">
        <ele>433.20001220703</ele>
        <time>2022-01-15T08:35:08.000Z</time>
      </trkpt>
      <trkpt lat="43.88316" lon="7.44529">
        <ele>433.60000610352</ele>
        <time>2022-01-15T08:35:13.000Z</time>
      </trkpt>
      <trkpt lat="43.88322" lon="7.44531">
        <ele>433.79998779297</ele>
        <time>2022-01-15T08:35:16.000Z</time>
      </trkpt>
      <trkpt lat="43.88331" lon="7.44534">
        <ele>434.60000610352</ele>
        <time>2022-01-15T08:35:21.000Z</time>
      </trkpt>
      <trkpt lat="43.88335" lon="7.44535">
        <ele>434.79998779297</ele>
        <time>2022-01-15T08:35:23.000Z</time>
      </trkpt>
      <trkpt lat="43.88349" lon="7.44538">
        <ele>435.60000610352</ele>
        <time>2022-01-15T08:35:30.000Z</time>
      </trkpt>
      <trkpt lat="43.88353" lon="7.4454">
        <ele>435.79998779297</ele>
        <time>2022-01-15T08:35:32.000Z</time>
      </trkpt>
      <trkpt lat="43.8836" lon="7.44544">
        <ele>436.79998779297</ele>
        <time>2022-01-15T08:35:36.000Z</time>
      </trkpt>
      <trkpt lat="43.88363" lon="7.44546">
        <ele>437.20001220703</ele>
        <time>2022-01-15T08:35:38.000Z</time>
      </trkpt>
      <trkpt lat="43.88366" lon="7.44548">
        <ele>437.60000610352</ele>
        <time>2022-01-15T08:35:40.000Z</time>
      </trkpt>
      <trkpt lat="43.88368" lon="7.44549">
        <ele>437.79998779297</ele>
        <time>2022-01-15T08:35:41.000Z</time>
      </trkpt>
      <trkpt lat="43.88372" lon="7.4455">
        <ele>438.39999389648</ele>
        <time>2022-01-15T08:35:43.000Z</time>
      </trkpt>
      <trkpt lat="43.88377" lon="7.44552">
        <ele>439</ele>
        <time>2022-01-15T08:35:46.000Z</time>
      </trkpt>
      <trkpt lat="43.88379" lon="7.44552">
        <ele>439.20001220703</ele>
        <time>2022-01-15T08:35:47.000Z</time>
      </trkpt>
      <trkpt lat="43.88384" lon="7.44554">
        <ele>440</ele>
        <time>2022-01-15T08:35:50.000Z</time>
      </trkpt>
      <trkpt lat="43.88391" lon="7.44554">
        <ele>441</ele>
        <time>2022-01-15T08:35:54.000Z</time>
      </trkpt>
      <trkpt lat="43.88394" lon="7.44552">
        <ele>441.60000610352</ele>
        <time>2022-01-15T08:35:56.000Z</time>
      </trkpt>
      <trkpt lat="43.88395" lon="7.44549">
        <ele>442.39999389648</ele>
        <time>2022-01-15T08:35:58.000Z</time>
      </trkpt>
      <trkpt lat="43.88397" lon="7.44541">
        <ele>443.60000610352</ele>
        <time>2022-01-15T08:36:02.000Z</time>
      </trkpt>
      <trkpt lat="43.88399" lon="7.44528">
        <ele>444.60000610352</ele>
        <time>2022-01-15T08:36:08.000Z</time>
      </trkpt>
      <trkpt lat="43.884" lon="7.44521">
        <ele>445.20001220703</ele>
        <time>2022-01-15T08:36:11.000Z</time>
      </trkpt>
      <trkpt lat="43.88401" lon="7.44516">
        <ele>445.79998779297</ele>
        <time>2022-01-15T08:36:14.000Z</time>
      </trkpt>
      <trkpt lat="43.88402" lon="7.44506">
        <ele>446.79998779297</ele>
        <time>2022-01-15T08:36:19.000Z</time>
      </trkpt>
      <trkpt lat="43.88403" lon="7.44497">
        <ele>448</ele>
        <time>2022-01-15T08:36:23.000Z</time>
      </trkpt>
      <trkpt lat="43.88403" lon="7.44493">
        <ele>448.39999389648</ele>
        <time>2022-01-15T08:36:25.000Z</time>
      </trkpt>
      <trkpt lat="43.88403" lon="7.44489">
        <ele>449</ele>
        <time>2022-01-15T08:36:27.000Z</time>
      </trkpt>
      <trkpt lat="43.88403" lon="7.44476">
        <ele>450.20001220703</ele>
        <time>2022-01-15T08:36:33.000Z</time>
      </trkpt>
      <trkpt lat="43.88403" lon="7.44466">
        <ele>451.39999389648</ele>
        <time>2022-01-15T08:36:38.000Z</time>
      </trkpt>
      <trkpt lat="43.88401" lon="7.44458">
        <ele>452.20001220703</ele>
        <time>2022-01-15T08:36:42.000Z</time>
      </trkpt>
      <trkpt lat="43.88401" lon="7.44456">
        <ele>452.39999389648</ele>
        <time>2022-01-15T08:36:43.000Z</time>
      </trkpt>
      <trkpt lat="43.88398" lon="7.44444">
        <ele>453.39999389648</ele>
        <time>2022-01-15T08:36:49.000Z</time>
      </trkpt>
      <trkpt lat="43.88396" lon="7.44439">
        <ele>454.39999389648</ele>
        <time>2022-01-15T08:36:52.000Z</time>
      </trkpt>
      <trkpt lat="43.88395" lon="7.44437">
        <ele>454.60000610352</ele>
        <time>2022-01-15T08:36:53.000Z</time>
      </trkpt>
      <trkpt lat="43.88391" lon="7.44429">
        <ele>456</ele>
        <time>2022-01-15T08:36:58.000Z</time>
      </trkpt>
      <trkpt lat="43.8839" lon="7.44427">
        <ele>456.20001220703</ele>
        <time>2022-01-15T08:36:59.000Z</time>
      </trkpt>
      <trkpt lat="43.88391" lon="7.44414">
        <ele>457</ele>
        <time>2022-01-15T08:37:05.000Z</time>
      </trkpt>
      <trkpt lat="43.88398" lon="7.44404">
        <ele>458.20001220703</ele>
        <time>2022-01-15T08:37:12.000Z</time>
      </trkpt>
      <trkpt lat="43.88404" lon="7.44399">
        <ele>459.20001220703</ele>
        <time>2022-01-15T08:37:17.000Z</time>
      </trkpt>
      <trkpt lat="43.8841" lon="7.44396">
        <ele>460.20001220703</ele>
        <time>2022-01-15T08:37:21.000Z</time>
      </trkpt>
      <trkpt lat="43.88411" lon="7.44396">
        <ele>460.20001220703</ele>
        <time>2022-01-15T08:37:22.000Z</time>
      </trkpt>
      <trkpt lat="43.88419" lon="7.44395">
        <ele>461.39999389648</ele>
        <time>2022-01-15T08:37:27.000Z</time>
      </trkpt>
      <trkpt lat="43.88422" lon="7.44395">
        <ele>461.79998779297</ele>
        <time>2022-01-15T08:37:29.000Z</time>
      </trkpt>
      <trkpt lat="43.88427" lon="7.44395">
        <ele>462.39999389648</ele>
        <time>2022-01-15T08:37:32.000Z</time>
      </trkpt>
      <trkpt lat="43.88435" lon="7.44396">
        <ele>463.20001220703</ele>
        <time>2022-01-15T08:37:36.000Z</time>
      </trkpt>
      <trkpt lat="43.88439" lon="7.44396">
        <ele>463.39999389648</ele>
        <time>2022-01-15T08:37:38.000Z</time>
      </trkpt>
      <trkpt lat="43.88448" lon="7.44395">
        <ele>464.39999389648</ele>
        <time>2022-01-15T08:37:43.000Z</time>
      </trkpt>
      <trkpt lat="43.8845" lon="7.44395">
        <ele>464.60000610352</ele>
        <time>2022-01-15T08:37:44.000Z</time>
      </trkpt>
      <trkpt lat="43.88457" lon="7.44396">
        <ele>465.79998779297</ele>
        <time>2022-01-15T08:37:49.000Z</time>
      </trkpt>
      <trkpt lat="43.88459" lon="7.44395">
        <ele>466</ele>
        <time>2022-01-15T08:37:50.000Z</time>
      </trkpt>
      <trkpt lat="43.88468" lon="7.44392">
        <ele>466.79998779297</ele>
        <time>2022-01-15T08:37:55.000Z</time>
      </trkpt>
      <trkpt lat="43.88475" lon="7.44388">
        <ele>467.39999389648</ele>
        <time>2022-01-15T08:37:59.000Z</time>
      </trkpt>
      <trkpt lat="43.88479" lon="7.44387">
        <ele>467.79998779297</ele>
        <time>2022-01-15T08:38:02.000Z</time>
      </trkpt>
      <trkpt lat="43.88485" lon="7.44387">
        <ele>468.60000610352</ele>
        <time>2022-01-15T08:38:05.000Z</time>
      </trkpt>
      <trkpt lat="43.8849" lon="7.44386">
        <ele>469</ele>
        <time>2022-01-15T08:38:08.000Z</time>
      </trkpt>
      <trkpt lat="43.88495" lon="7.44385">
        <ele>469.60000610352</ele>
        <time>2022-01-15T08:38:11.000Z</time>
      </trkpt>
      <trkpt lat="43.88497" lon="7.44385">
        <ele>470</ele>
        <time>2022-01-15T08:38:12.000Z</time>
      </trkpt>
      <trkpt lat="43.88505" lon="7.44383">
        <ele>471</ele>
        <time>2022-01-15T08:38:17.000Z</time>
      </trkpt>
      <trkpt lat="43.88506" lon="7.44382">
        <ele>471.39999389648</ele>
        <time>2022-01-15T08:38:18.000Z</time>
      </trkpt>
      <trkpt lat="43.88512" lon="7.4438">
        <ele>472.20001220703</ele>
        <time>2022-01-15T08:38:22.000Z</time>
      </trkpt>
      <trkpt lat="43.88519" lon="7.44379">
        <ele>473.20001220703</ele>
        <time>2022-01-15T08:38:27.000Z</time>
      </trkpt>
      <trkpt lat="43.88521" lon="7.4438">
        <ele>473.39999389648</ele>
        <time>2022-01-15T08:38:28.000Z</time>
      </trkpt>
      <trkpt lat="43.8853" lon="7.44381">
        <ele>474.39999389648</ele>
        <time>2022-01-15T08:38:34.000Z</time>
      </trkpt>
      <trkpt lat="43.88532" lon="7.44381">
        <ele>474.60000610352</ele>
        <time>2022-01-15T08:38:35.000Z</time>
      </trkpt>
      <trkpt lat="43.88541" lon="7.44381">
        <ele>475.60000610352</ele>
        <time>2022-01-15T08:38:41.000Z</time>
      </trkpt>
      <trkpt lat="43.88543" lon="7.44381">
        <ele>476</ele>
        <time>2022-01-15T08:38:43.000Z</time>
      </trkpt>
      <trkpt lat="43.88548" lon="7.44382">
        <ele>476.60000610352</ele>
        <time>2022-01-15T08:38:46.000Z</time>
      </trkpt>
      <trkpt lat="43.88554" lon="7.44382">
        <ele>477.39999389648</ele>
        <time>2022-01-15T08:38:50.000Z</time>
      </trkpt>
      <trkpt lat="43.88558" lon="7.44382">
        <ele>477.79998779297</ele>
        <time>2022-01-15T08:38:52.000Z</time>
      </trkpt>
      <trkpt lat="43.88565" lon="7.44386">
        <ele>478.60000610352</ele>
        <time>2022-01-15T08:38:57.000Z</time>
      </trkpt>
      <trkpt lat="43.88567" lon="7.44387">
        <ele>478.79998779297</ele>
        <time>2022-01-15T08:38:58.000Z</time>
      </trkpt>
      <trkpt lat="43.88575" lon="7.44393">
        <ele>479.39999389648</ele>
        <time>2022-01-15T08:39:04.000Z</time>
      </trkpt>
      <trkpt lat="43.88578" lon="7.44394">
        <ele>480</ele>
        <time>2022-01-15T08:39:06.000Z</time>
      </trkpt>
      <trkpt lat="43.88585" lon="7.44396">
        <ele>480.60000610352</ele>
        <time>2022-01-15T08:39:11.000Z</time>
      </trkpt>
      <trkpt lat="43.88589" lon="7.44397">
        <ele>481.20001220703</ele>
        <time>2022-01-15T08:39:13.000Z</time>
      </trkpt>
      <trkpt lat="43.88597" lon="7.44399">
        <ele>482</ele>
        <time>2022-01-15T08:39:18.000Z</time>
      </trkpt>
      <trkpt lat="43.88599" lon="7.44399">
        <ele>482.20001220703</ele>
        <time>2022-01-15T08:39:19.000Z</time>
      </trkpt>
      <trkpt lat="43.88605" lon="7.444">
        <ele>483</ele>
        <time>2022-01-15T08:39:23.000Z</time>
      </trkpt>
      <trkpt lat="43.88608" lon="7.44401">
        <ele>483.20001220703</ele>
        <time>2022-01-15T08:39:25.000Z</time>
      </trkpt>
      <trkpt lat="43.88613" lon="7.44403">
        <ele>483.60000610352</ele>
        <time>2022-01-15T08:39:28.000Z</time>
      </trkpt>
      <trkpt lat="43.88615" lon="7.44404">
        <ele>484.20001220703</ele>
        <time>2022-01-15T08:39:29.000Z</time>
      </trkpt>
      <trkpt lat="43.88616" lon="7.44406">
        <ele>484.39999389648</ele>
        <time>2022-01-15T08:39:30.000Z</time>
      </trkpt>
      <trkpt lat="43.8862" lon="7.44408">
        <ele>485.20001220703</ele>
        <time>2022-01-15T08:39:33.000Z</time>
      </trkpt>
      <trkpt lat="43.88622" lon="7.44409">
        <ele>485.60000610352</ele>
        <time>2022-01-15T08:39:35.000Z</time>
      </trkpt>
      <trkpt lat="43.88624" lon="7.44409">
        <ele>486</ele>
        <time>2022-01-15T08:39:37.000Z</time>
      </trkpt>
      <trkpt lat="43.88632" lon="7.44411">
        <ele>486.60000610352</ele>
        <time>2022-01-15T08:39:42.000Z</time>
      </trkpt>
      <trkpt lat="43.88634" lon="7.44412">
        <ele>486.79998779297</ele>
        <time>2022-01-15T08:39:43.000Z</time>
      </trkpt>
      <trkpt lat="43.88645" lon="7.44416">
        <ele>487.60000610352</ele>
        <time>2022-01-15T08:39:49.000Z</time>
      </trkpt>
      <trkpt lat="43.88651" lon="7.44419">
        <ele>488.79998779297</ele>
        <time>2022-01-15T08:39:53.000Z</time>
      </trkpt>
      <trkpt lat="43.88656" lon="7.4442">
        <ele>489.60000610352</ele>
        <time>2022-01-15T08:39:56.000Z</time>
      </trkpt>
      <trkpt lat="43.8866" lon="7.44419">
        <ele>490</ele>
        <time>2022-01-15T08:39:58.000Z</time>
      </trkpt>
      <trkpt lat="43.88666" lon="7.44417">
        <ele>490.79998779297</ele>
        <time>2022-01-15T08:40:02.000Z</time>
      </trkpt>
      <trkpt lat="43.8867" lon="7.44417">
        <ele>491.39999389648</ele>
        <time>2022-01-15T08:40:04.000Z</time>
      </trkpt>
      <trkpt lat="43.88676" lon="7.44416">
        <ele>492.60000610352</ele>
        <time>2022-01-15T08:40:08.000Z</time>
      </trkpt>
      <trkpt lat="43.88678" lon="7.44415">
        <ele>492.79998779297</ele>
        <time>2022-01-15T08:40:09.000Z</time>
      </trkpt>
      <trkpt lat="43.88681" lon="7.44414">
        <ele>493.20001220703</ele>
        <time>2022-01-15T08:40:11.000Z</time>
      </trkpt>
      <trkpt lat="43.88684" lon="7.44411">
        <ele>493.60000610352</ele>
        <time>2022-01-15T08:40:13.000Z</time>
      </trkpt>
      <trkpt lat="43.88686" lon="7.4441">
        <ele>493.79998779297</ele>
        <time>2022-01-15T08:40:14.000Z</time>
      </trkpt>
      <trkpt lat="43.88688" lon="7.44409">
        <ele>494</ele>
        <time>2022-01-15T08:40:15.000Z</time>
      </trkpt>
      <trkpt lat="43.88693" lon="7.44406">
        <ele>494.79998779297</ele>
        <time>2022-01-15T08:40:18.000Z</time>
      </trkpt>
      <trkpt lat="43.88694" lon="7.44405">
        <ele>495</ele>
        <time>2022-01-15T08:40:19.000Z</time>
      </trkpt>
      <trkpt lat="43.88697" lon="7.44403">
        <ele>495.79998779297</ele>
        <time>2022-01-15T08:40:22.000Z</time>
      </trkpt>
      <trkpt lat="43.88697" lon="7.44402">
        <ele>495.79998779297</ele>
        <time>2022-01-15T08:40:23.000Z</time>
      </trkpt>
      <trkpt lat="43.88698" lon="7.44402">
        <ele>496.79998779297</ele>
        <time>2022-01-15T08:40:29.000Z</time>
      </trkpt>
      <trkpt lat="43.88699" lon="7.44401">
        <ele>496.79998779297</ele>
        <time>2022-01-15T08:40:30.000Z</time>
      </trkpt>
      <trkpt lat="43.88701" lon="7.44401">
        <ele>497</ele>
        <time>2022-01-15T08:40:31.000Z</time>
      </trkpt>
      <trkpt lat="43.8871" lon="7.44403">
        <ele>497.20001220703</ele>
        <time>2022-01-15T08:40:36.000Z</time>
      </trkpt>
      <trkpt lat="43.88714" lon="7.44405">
        <ele>498</ele>
        <time>2022-01-15T08:40:39.000Z</time>
      </trkpt>
      <trkpt lat="43.88717" lon="7.44405">
        <ele>498.79998779297</ele>
        <time>2022-01-15T08:40:42.000Z</time>
      </trkpt>
      <trkpt lat="43.88719" lon="7.44405">
        <ele>499</ele>
        <time>2022-01-15T08:40:43.000Z</time>
      </trkpt>
      <trkpt lat="43.88728" lon="7.44408">
        <ele>500</ele>
        <time>2022-01-15T08:40:48.000Z</time>
      </trkpt>
      <trkpt lat="43.88728" lon="7.44409">
        <ele>500.20001220703</ele>
        <time>2022-01-15T08:40:49.000Z</time>
      </trkpt>
      <trkpt lat="43.88729" lon="7.44411">
        <ele>501.39999389648</ele>
        <time>2022-01-15T08:40:51.000Z</time>
      </trkpt>
      <trkpt lat="43.88728" lon="7.44411">
        <ele>502</ele>
        <time>2022-01-15T08:40:58.000Z</time>
      </trkpt>
      <trkpt lat="43.88726" lon="7.44412">
        <ele>502</ele>
        <time>2022-01-15T08:40:59.000Z</time>
      </trkpt>
      <trkpt lat="43.88722" lon="7.44412">
        <ele>502.39999389648</ele>
        <time>2022-01-15T08:41:01.000Z</time>
      </trkpt>
      <trkpt lat="43.88711" lon="7.44414">
        <ele>502.60000610352</ele>
        <time>2022-01-15T08:41:06.000Z</time>
      </trkpt>
      <trkpt lat="43.8871" lon="7.44415">
        <ele>504</ele>
        <time>2022-01-15T08:41:09.000Z</time>
      </trkpt>
      <trkpt lat="43.8871" lon="7.44415">
        <ele>504.20001220703</ele>
        <time>2022-01-15T08:41:10.000Z</time>
      </trkpt>
      <trkpt lat="43.88707" lon="7.44417">
        <ele>504.39999389648</ele>
        <time>2022-01-15T08:41:14.000Z</time>
      </trkpt>
      <trkpt lat="43.88705" lon="7.44416">
        <ele>504.60000610352</ele>
        <time>2022-01-15T08:41:15.000Z</time>
      </trkpt>
      <trkpt lat="43.88703" lon="7.44416">
        <ele>505</ele>
        <time>2022-01-15T08:41:16.000Z</time>
      </trkpt>
      <trkpt lat="43.88696" lon="7.44419">
        <ele>506</ele>
        <time>2022-01-15T08:41:21.000Z</time>
      </trkpt>
      <trkpt lat="43.887" lon="7.44423">
        <ele>506.60000610352</ele>
        <time>2022-01-15T08:41:25.000Z</time>
      </trkpt>
      <trkpt lat="43.88708" lon="7.44421">
        <ele>506.79998779297</ele>
        <time>2022-01-15T08:41:29.000Z</time>
      </trkpt>
      <trkpt lat="43.88709" lon="7.44422">
        <ele>507</ele>
        <time>2022-01-15T08:41:30.000Z</time>
      </trkpt>
      <trkpt lat="43.88716" lon="7.44423">
        <ele>508.20001220703</ele>
        <time>2022-01-15T08:41:33.000Z</time>
      </trkpt>
      <trkpt lat="43.88721" lon="7.44425">
        <ele>509.20001220703</ele>
        <time>2022-01-15T08:41:36.000Z</time>
      </trkpt>
      <trkpt lat="43.88723" lon="7.44426">
        <ele>509.39999389648</ele>
        <time>2022-01-15T08:41:37.000Z</time>
      </trkpt>
      <trkpt lat="43.88731" lon="7.44429">
        <ele>510.39999389648</ele>
        <time>2022-01-15T08:41:41.000Z</time>
      </trkpt>
      <trkpt lat="43.88739" lon="7.44437">
        <ele>511.60000610352</ele>
        <time>2022-01-15T08:41:46.000Z</time>
      </trkpt>
      <trkpt lat="43.88744" lon="7.44442">
        <ele>512.79998779297</ele>
        <time>2022-01-15T08:41:49.000Z</time>
      </trkpt>
      <trkpt lat="43.88747" lon="7.44446">
        <ele>513.20001220703</ele>
        <time>2022-01-15T08:41:51.000Z</time>
      </trkpt>
      <trkpt lat="43.88754" lon="7.44452">
        <ele>514</ele>
        <time>2022-01-15T08:41:56.000Z</time>
      </trkpt>
      <trkpt lat="43.88755" lon="7.44453">
        <ele>514.40002441406</ele>
        <time>2022-01-15T08:41:57.000Z</time>
      </trkpt>
      <trkpt lat="43.88758" lon="7.44455">
        <ele>515</ele>
        <time>2022-01-15T08:41:59.000Z</time>
      </trkpt>
      <trkpt lat="43.88765" lon="7.44461">
        <ele>515.79998779297</ele>
        <time>2022-01-15T08:42:04.000Z</time>
      </trkpt>
      <trkpt lat="43.88768" lon="7.44463">
        <ele>516.20001220703</ele>
        <time>2022-01-15T08:42:06.000Z</time>
      </trkpt>
      <trkpt lat="43.88775" lon="7.44464">
        <ele>516.59997558594</ele>
        <time>2022-01-15T08:42:10.000Z</time>
      </trkpt>
      <trkpt lat="43.88786" lon="7.44463">
        <ele>517.20001220703</ele>
        <time>2022-01-15T08:42:16.000Z</time>
      </trkpt>
      <trkpt lat="43.88792" lon="7.44463">
        <ele>517.40002441406</ele>
        <time>2022-01-15T08:42:20.000Z</time>
      </trkpt>
      <trkpt lat="43.88801" lon="7.44466">
        <ele>517.59997558594</ele>
        <time>2022-01-15T08:42:26.000Z</time>
      </trkpt>
      <trkpt lat="43.88805" lon="7.44467">
        <ele>517.79998779297</ele>
        <time>2022-01-15T08:42:30.000Z</time>
      </trkpt>
      <trkpt lat="43.88806" lon="7.44468">
        <ele>517.79998779297</ele>
        <time>2022-01-15T08:42:32.000Z</time>
      </trkpt>
      <trkpt lat="43.88806" lon="7.44467">
        <ele>517.59997558594</ele>
        <time>2022-01-15T08:42:38.000Z</time>
      </trkpt>
      <trkpt lat="43.88807" lon="7.44468">
        <ele>518.20001220703</ele>
        <time>2022-01-15T08:42:44.000Z</time>
      </trkpt>
      <trkpt lat="43.88808" lon="7.44468">
        <ele>518.20001220703</ele>
        <time>2022-01-15T08:42:45.000Z</time>
      </trkpt>
      <trkpt lat="43.88809" lon="7.44468">
        <ele>518</ele>
        <time>2022-01-15T08:42:46.000Z</time>
      </trkpt>
      <trkpt lat="43.8881" lon="7.44469">
        <ele>517.59997558594</ele>
        <time>2022-01-15T08:42:50.000Z</time>
      </trkpt>
      <trkpt lat="43.8881" lon="7.4447">
        <ele>517.79998779297</ele>
        <time>2022-01-15T08:42:57.000Z</time>
      </trkpt>
      <trkpt lat="43.8881" lon="7.4447">
        <ele>517.59997558594</ele>
        <time>2022-01-15T08:43:04.000Z</time>
      </trkpt>
      <trkpt lat="43.88809" lon="7.44471">
        <ele>517.59997558594</ele>
        <time>2022-01-15T08:43:19.000Z</time>
      </trkpt>
      <trkpt lat="43.88809" lon="7.44471">
        <ele>518</ele>
        <time>2022-01-15T08:43:31.000Z</time>
      </trkpt>
      <trkpt lat="43.88809" lon="7.44471">
        <ele>518</ele>
        <time>2022-01-15T08:43:34.000Z</time>
      </trkpt>
      <trkpt lat="43.88808" lon="7.4447">
        <ele>518</ele>
        <time>2022-01-15T08:43:36.000Z</time>
      </trkpt>
      <trkpt lat="43.88805" lon="7.44469">
        <ele>518</ele>
        <time>2022-01-15T08:43:42.000Z</time>
      </trkpt>
      <trkpt lat="43.88801" lon="7.44468">
        <ele>517.40002441406</ele>
        <time>2022-01-15T08:43:52.000Z</time>
      </trkpt>
      <trkpt lat="43.88798" lon="7.44467">
        <ele>517.20001220703</ele>
        <time>2022-01-15T08:44:01.000Z</time>
      </trkpt>
      <trkpt lat="43.88798" lon="7.44468">
        <ele>517.59997558594</ele>
        <time>2022-01-15T08:44:07.000Z</time>
      </trkpt>
      <trkpt lat="43.88797" lon="7.44467">
        <ele>517.79998779297</ele>
        <time>2022-01-15T08:44:23.000Z</time>
      </trkpt>
      <trkpt lat="43.88797" lon="7.44467">
        <ele>517.59997558594</ele>
        <time>2022-01-15T08:44:31.000Z</time>
      </trkpt>
      <trkpt lat="43.88797" lon="7.44467">
        <ele>517.79998779297</ele>
        <time>2022-01-15T08:44:38.000Z</time>
      </trkpt>
      <trkpt lat="43.88797" lon="7.44468">
        <ele>517.59997558594</ele>
        <time>2022-01-15T08:44:39.000Z</time>
      </trkpt>
      <trkpt lat="43.88797" lon="7.44468">
        <ele>517.40002441406</ele>
        <time>2022-01-15T08:44:42.000Z</time>
      </trkpt>
      <trkpt lat="43.88797" lon="7.44468">
        <ele>517.20001220703</ele>
        <time>2022-01-15T08:44:53.000Z</time>
      </trkpt>
      <trkpt lat="43.88796" lon="7.44468">
        <ele>517.20001220703</ele>
        <time>2022-01-15T08:45:01.000Z</time>
      </trkpt>
      <trkpt lat="43.88796" lon="7.44467">
        <ele>517.20001220703</ele>
        <time>2022-01-15T08:45:12.000Z</time>
      </trkpt>
      <trkpt lat="43.88796" lon="7.44466">
        <ele>517.20001220703</ele>
        <time>2022-01-15T08:45:18.000Z</time>
      </trkpt>
      <trkpt lat="43.88796" lon="7.44465">
        <ele>517.20001220703</ele>
        <time>2022-01-15T08:45:27.000Z</time>
      </trkpt>
      <trkpt lat="43.88795" lon="7.44464">
        <ele>517.79998779297</ele>
        <time>2022-01-15T08:45:36.000Z</time>
      </trkpt>
      <trkpt lat="43.88795" lon="7.44464">
        <ele>518</ele>
        <time>2022-01-15T08:45:46.000Z</time>
      </trkpt>
      <trkpt lat="43.88797" lon="7.44465">
        <ele>517.59997558594</ele>
        <time>2022-01-15T08:45:56.000Z</time>
      </trkpt>
      <trkpt lat="43.88796" lon="7.44465">
        <ele>517</ele>
        <time>2022-01-15T08:46:09.000Z</time>
      </trkpt>
      <trkpt lat="43.88795" lon="7.44465">
        <ele>517</ele>
        <time>2022-01-15T08:46:18.000Z</time>
      </trkpt>
      <trkpt lat="43.88794" lon="7.44463">
        <ele>517</ele>
        <time>2022-01-15T08:46:28.000Z</time>
      </trkpt>
      <trkpt lat="43.88794" lon="7.44463">
        <ele>517</ele>
        <time>2022-01-15T08:46:34.000Z</time>
      </trkpt>
      <trkpt lat="43.88794" lon="7.4446">
        <ele>517</ele>
        <time>2022-01-15T08:46:47.000Z</time>
      </trkpt>
      <trkpt lat="43.88793" lon="7.44457">
        <ele>517.59997558594</ele>
        <time>2022-01-15T08:46:56.000Z</time>
      </trkpt>
      <trkpt lat="43.88792" lon="7.44457">
        <ele>517</ele>
        <time>2022-01-15T08:47:10.000Z</time>
      </trkpt>
      <trkpt lat="43.88791" lon="7.44458">
        <ele>517.20001220703</ele>
        <time>2022-01-15T08:47:24.000Z</time>
      </trkpt>
      <trkpt lat="43.88791" lon="7.44458">
        <ele>517</ele>
        <time>2022-01-15T08:47:32.000Z</time>
      </trkpt>
      <trkpt lat="43.88791" lon="7.44456">
        <ele>517</ele>
        <time>2022-01-15T08:47:45.000Z</time>
      </trkpt>
      <trkpt lat="43.88795" lon="7.44451">
        <ele>517.20001220703</ele>
        <time>2022-01-15T08:48:03.000Z</time>
      </trkpt>
      <trkpt lat="43.88796" lon="7.44451">
        <ele>517.79998779297</ele>
        <time>2022-01-15T08:48:18.000Z</time>
      </trkpt>
      <trkpt lat="43.88795" lon="7.44452">
        <ele>517.40002441406</ele>
        <time>2022-01-15T08:48:28.000Z</time>
      </trkpt>
      <trkpt lat="43.88795" lon="7.44452">
        <ele>517</ele>
        <time>2022-01-15T08:48:37.000Z</time>
      </trkpt>
      <trkpt lat="43.88794" lon="7.44454">
        <ele>517.40002441406</ele>
        <time>2022-01-15T08:48:52.000Z</time>
      </trkpt>
      <trkpt lat="43.88794" lon="7.44455">
        <ele>517.20001220703</ele>
        <time>2022-01-15T08:48:58.000Z</time>
      </trkpt>
      <trkpt lat="43.88794" lon="7.44456">
        <ele>516.79998779297</ele>
        <time>2022-01-15T08:49:08.000Z</time>
      </trkpt>
      <trkpt lat="43.88795" lon="7.44456">
        <ele>517</ele>
        <time>2022-01-15T08:49:15.000Z</time>
      </trkpt>
      <trkpt lat="43.88799" lon="7.44457">
        <ele>516.79998779297</ele>
        <time>2022-01-15T08:49:22.000Z</time>
      </trkpt>
      <trkpt lat="43.88806" lon="7.44459">
        <ele>516.79998779297</ele>
        <time>2022-01-15T08:49:29.000Z</time>
      </trkpt>
      <trkpt lat="43.88808" lon="7.4446">
        <ele>517.40002441406</ele>
        <time>2022-01-15T08:49:34.000Z</time>
      </trkpt>
      <trkpt lat="43.88817" lon="7.44466">
        <ele>517.20001220703</ele>
        <time>2022-01-15T08:49:39.000Z</time>
      </trkpt>
      <trkpt lat="43.8883" lon="7.44473">
        <ele>517.59997558594</ele>
        <time>2022-01-15T08:49:45.000Z</time>
      </trkpt>
      <trkpt lat="43.88841" lon="7.44477">
        <ele>518.40002441406</ele>
        <time>2022-01-15T08:49:50.000Z</time>
      </trkpt>
      <trkpt lat="43.88851" lon="7.44478">
        <ele>519.40002441406</ele>
        <time>2022-01-15T08:49:55.000Z</time>
      </trkpt>
      <trkpt lat="43.88853" lon="7.44478">
        <ele>519.40002441406</ele>
        <time>2022-01-15T08:49:56.000Z</time>
      </trkpt>
      <trkpt lat="43.88869" lon="7.4448">
        <ele>520.40002441406</ele>
        <time>2022-01-15T08:50:03.000Z</time>
      </trkpt>
      <trkpt lat="43.8887" lon="7.44481">
        <ele>520.40002441406</ele>
        <time>2022-01-15T08:50:04.000Z</time>
      </trkpt>
      <trkpt lat="43.88884" lon="7.44487">
        <ele>521.40002441406</ele>
        <time>2022-01-15T08:50:11.000Z</time>
      </trkpt>
      <trkpt lat="43.88892" lon="7.44492">
        <ele>522.59997558594</ele>
        <time>2022-01-15T08:50:15.000Z</time>
      </trkpt>
      <trkpt lat="43.88895" lon="7.44496">
        <ele>523</ele>
        <time>2022-01-15T08:50:18.000Z</time>
      </trkpt>
      <trkpt lat="43.88899" lon="7.44501">
        <ele>523.59997558594</ele>
        <time>2022-01-15T08:50:21.000Z</time>
      </trkpt>
      <trkpt lat="43.889" lon="7.44503">
        <ele>524</ele>
        <time>2022-01-15T08:50:22.000Z</time>
      </trkpt>
      <trkpt lat="43.88903" lon="7.44508">
        <ele>524.59997558594</ele>
        <time>2022-01-15T08:50:25.000Z</time>
      </trkpt>
      <trkpt lat="43.88905" lon="7.44511">
        <ele>525</ele>
        <time>2022-01-15T08:50:27.000Z</time>
      </trkpt>
      <trkpt lat="43.88911" lon="7.44517">
        <ele>525.59997558594</ele>
        <time>2022-01-15T08:50:32.000Z</time>
      </trkpt>
      <trkpt lat="43.88915" lon="7.44518">
        <ele>526.20001220703</ele>
        <time>2022-01-15T08:50:35.000Z</time>
      </trkpt>
      <trkpt lat="43.88919" lon="7.44514">
        <ele>526.40002441406</ele>
        <time>2022-01-15T08:50:38.000Z</time>
      </trkpt>
      <trkpt lat="43.88923" lon="7.44509">
        <ele>526.79998779297</ele>
        <time>2022-01-15T08:50:41.000Z</time>
      </trkpt>
      <trkpt lat="43.88925" lon="7.44502">
        <ele>527.20001220703</ele>
        <time>2022-01-15T08:50:44.000Z</time>
      </trkpt>
      <trkpt lat="43.88926" lon="7.44492">
        <ele>528</ele>
        <time>2022-01-15T08:50:48.000Z</time>
      </trkpt>
      <trkpt lat="43.8893" lon="7.44487">
        <ele>528.40002441406</ele>
        <time>2022-01-15T08:50:51.000Z</time>
      </trkpt>
      <trkpt lat="43.88933" lon="7.44493">
        <ele>529</ele>
        <time>2022-01-15T08:50:54.000Z</time>
      </trkpt>
      <trkpt lat="43.8893" lon="7.44499">
        <ele>530.20001220703</ele>
        <time>2022-01-15T08:50:58.000Z</time>
      </trkpt>
      <trkpt lat="43.8893" lon="7.44501">
        <ele>530.40002441406</ele>
        <time>2022-01-15T08:50:59.000Z</time>
      </trkpt>
      <trkpt lat="43.8893" lon="7.44503">
        <ele>530.40002441406</ele>
        <time>2022-01-15T08:51:00.000Z</time>
      </trkpt>
      <trkpt lat="43.88933" lon="7.44509">
        <ele>531</ele>
        <time>2022-01-15T08:51:04.000Z</time>
      </trkpt>
      <trkpt lat="43.88934" lon="7.44511">
        <ele>531.20001220703</ele>
        <time>2022-01-15T08:51:05.000Z</time>
      </trkpt>
      <trkpt lat="43.88935" lon="7.44514">
        <ele>531.59997558594</ele>
        <time>2022-01-15T08:51:07.000Z</time>
      </trkpt>
      <trkpt lat="43.88937" lon="7.4452">
        <ele>532.20001220703</ele>
        <time>2022-01-15T08:51:10.000Z</time>
      </trkpt>
      <trkpt lat="43.88938" lon="7.44524">
        <ele>532.59997558594</ele>
        <time>2022-01-15T08:51:12.000Z</time>
      </trkpt>
      <trkpt lat="43.88939" lon="7.44532">
        <ele>533.40002441406</ele>
        <time>2022-01-15T08:51:17.000Z</time>
      </trkpt>
      <trkpt lat="43.88939" lon="7.44534">
        <ele>533.59997558594</ele>
        <time>2022-01-15T08:51:18.000Z</time>
      </trkpt>
      <trkpt lat="43.88939" lon="7.44547">
        <ele>534.59997558594</ele>
        <time>2022-01-15T08:51:25.000Z</time>
      </trkpt>
      <trkpt lat="43.8894" lon="7.44552">
        <ele>535.40002441406</ele>
        <time>2022-01-15T08:51:28.000Z</time>
      </trkpt>
      <trkpt lat="43.8894" lon="7.44555">
        <ele>535.79998779297</ele>
        <time>2022-01-15T08:51:30.000Z</time>
      </trkpt>
      <trkpt lat="43.8894" lon="7.44564">
        <ele>536.79998779297</ele>
        <time>2022-01-15T08:51:35.000Z</time>
      </trkpt>
      <trkpt lat="43.8894" lon="7.44566">
        <ele>537</ele>
        <time>2022-01-15T08:51:36.000Z</time>
      </trkpt>
      <trkpt lat="43.88941" lon="7.44574">
        <ele>538.20001220703</ele>
        <time>2022-01-15T08:51:41.000Z</time>
      </trkpt>
      <trkpt lat="43.88944" lon="7.44572">
        <ele>538.79998779297</ele>
        <time>2022-01-15T08:51:46.000Z</time>
      </trkpt>
      <trkpt lat="43.88945" lon="7.44567">
        <ele>539.20001220703</ele>
        <time>2022-01-15T08:51:49.000Z</time>
      </trkpt>
      <trkpt lat="43.88945" lon="7.44561">
        <ele>539.59997558594</ele>
        <time>2022-01-15T08:51:52.000Z</time>
      </trkpt>
      <trkpt lat="43.88946" lon="7.44554">
        <ele>540.20001220703</ele>
        <time>2022-01-15T08:51:56.000Z</time>
      </trkpt>
      <trkpt lat="43.88948" lon="7.44545">
        <ele>541.20001220703</ele>
        <time>2022-01-15T08:52:01.000Z</time>
      </trkpt>
      <trkpt lat="43.88949" lon="7.44543">
        <ele>541.40002441406</ele>
        <time>2022-01-15T08:52:02.000Z</time>
      </trkpt>
      <trkpt lat="43.88952" lon="7.44532">
        <ele>542.40002441406</ele>
        <time>2022-01-15T08:52:09.000Z</time>
      </trkpt>
      <trkpt lat="43.88954" lon="7.44521">
        <ele>543.59997558594</ele>
        <time>2022-01-15T08:52:15.000Z</time>
      </trkpt>
      <trkpt lat="43.88956" lon="7.44517">
        <ele>544</ele>
        <time>2022-01-15T08:52:18.000Z</time>
      </trkpt>
      <trkpt lat="43.88958" lon="7.44518">
        <ele>544.40002441406</ele>
        <time>2022-01-15T08:52:20.000Z</time>
      </trkpt>
      <trkpt lat="43.8896" lon="7.44522">
        <ele>544.79998779297</ele>
        <time>2022-01-15T08:52:22.000Z</time>
      </trkpt>
      <trkpt lat="43.88958" lon="7.44528">
        <ele>545.40002441406</ele>
        <time>2022-01-15T08:52:25.000Z</time>
      </trkpt>
      <trkpt lat="43.88957" lon="7.44533">
        <ele>545.79998779297</ele>
        <time>2022-01-15T08:52:28.000Z</time>
      </trkpt>
      <trkpt lat="43.88957" lon="7.44535">
        <ele>546</ele>
        <time>2022-01-15T08:52:29.000Z</time>
      </trkpt>
      <trkpt lat="43.88958" lon="7.44546">
        <ele>547</ele>
        <time>2022-01-15T08:52:35.000Z</time>
      </trkpt>
      <trkpt lat="43.88958" lon="7.44557">
        <ele>548</ele>
        <time>2022-01-15T08:52:41.000Z</time>
      </trkpt>
      <trkpt lat="43.88958" lon="7.44559">
        <ele>548.20001220703</ele>
        <time>2022-01-15T08:52:42.000Z</time>
      </trkpt>
      <trkpt lat="43.88959" lon="7.44568">
        <ele>549.20001220703</ele>
        <time>2022-01-15T08:52:47.000Z</time>
      </trkpt>
      <trkpt lat="43.8896" lon="7.4457">
        <ele>549.40002441406</ele>
        <time>2022-01-15T08:52:48.000Z</time>
      </trkpt>
      <trkpt lat="43.88961" lon="7.44577">
        <ele>550.20001220703</ele>
        <time>2022-01-15T08:52:53.000Z</time>
      </trkpt>
      <trkpt lat="43.88963" lon="7.44578">
        <ele>550.59997558594</ele>
        <time>2022-01-15T08:52:55.000Z</time>
      </trkpt>
      <trkpt lat="43.88965" lon="7.44571">
        <ele>551</ele>
        <time>2022-01-15T08:52:59.000Z</time>
      </trkpt>
      <trkpt lat="43.88964" lon="7.44568">
        <ele>551.40002441406</ele>
        <time>2022-01-15T08:53:01.000Z</time>
      </trkpt>
      <trkpt lat="43.88965" lon="7.4456">
        <ele>552.20001220703</ele>
        <time>2022-01-15T08:53:05.000Z</time>
      </trkpt>
      <trkpt lat="43.88966" lon="7.44557">
        <ele>552.40002441406</ele>
        <time>2022-01-15T08:53:07.000Z</time>
      </trkpt>
      <trkpt lat="43.88968" lon="7.4455">
        <ele>553.20001220703</ele>
        <time>2022-01-15T08:53:11.000Z</time>
      </trkpt>
      <trkpt lat="43.88968" lon="7.44549">
        <ele>553.20001220703</ele>
        <time>2022-01-15T08:53:12.000Z</time>
      </trkpt>
      <trkpt lat="43.88969" lon="7.44547">
        <ele>553.40002441406</ele>
        <time>2022-01-15T08:53:13.000Z</time>
      </trkpt>
      <trkpt lat="43.88973" lon="7.44538">
        <ele>554.59997558594</ele>
        <time>2022-01-15T08:53:20.000Z</time>
      </trkpt>
      <trkpt lat="43.88974" lon="7.44537">
        <ele>554.79998779297</ele>
        <time>2022-01-15T08:53:21.000Z</time>
      </trkpt>
      <trkpt lat="43.88978" lon="7.4454">
        <ele>555.40002441406</ele>
        <time>2022-01-15T08:53:25.000Z</time>
      </trkpt>
      <trkpt lat="43.88978" lon="7.44544">
        <ele>555.79998779297</ele>
        <time>2022-01-15T08:53:27.000Z</time>
      </trkpt>
      <trkpt lat="43.88976" lon="7.44547">
        <ele>556</ele>
        <time>2022-01-15T08:53:29.000Z</time>
      </trkpt>
      <trkpt lat="43.88975" lon="7.44552">
        <ele>556.59997558594</ele>
        <time>2022-01-15T08:53:32.000Z</time>
      </trkpt>
      <trkpt lat="43.88975" lon="7.44554">
        <ele>556.79998779297</ele>
        <time>2022-01-15T08:53:33.000Z</time>
      </trkpt>
      <trkpt lat="43.88974" lon="7.44562">
        <ele>557.79998779297</ele>
        <time>2022-01-15T08:53:38.000Z</time>
      </trkpt>
      <trkpt lat="43.88974" lon="7.44564">
        <ele>558</ele>
        <time>2022-01-15T08:53:39.000Z</time>
      </trkpt>
      <trkpt lat="43.88976" lon="7.44571">
        <ele>559</ele>
        <time>2022-01-15T08:53:44.000Z</time>
      </trkpt>
      <trkpt lat="43.88978" lon="7.44575">
        <ele>559.59997558594</ele>
        <time>2022-01-15T08:53:47.000Z</time>
      </trkpt>
      <trkpt lat="43.88981" lon="7.44581">
        <ele>560.20001220703</ele>
        <time>2022-01-15T08:53:51.000Z</time>
      </trkpt>
      <trkpt lat="43.88985" lon="7.44588">
        <ele>560.79998779297</ele>
        <time>2022-01-15T08:53:55.000Z</time>
      </trkpt>
      <trkpt lat="43.88986" lon="7.44589">
        <ele>561</ele>
        <time>2022-01-15T08:53:56.000Z</time>
      </trkpt>
      <trkpt lat="43.88987" lon="7.44591">
        <ele>561.20001220703</ele>
        <time>2022-01-15T08:53:57.000Z</time>
      </trkpt>
      <trkpt lat="43.8899" lon="7.44597">
        <ele>562</ele>
        <time>2022-01-15T08:54:01.000Z</time>
      </trkpt>
      <trkpt lat="43.88992" lon="7.44599">
        <ele>562.40002441406</ele>
        <time>2022-01-15T08:54:03.000Z</time>
      </trkpt>
      <trkpt lat="43.88994" lon="7.44597">
        <ele>562.79998779297</ele>
        <time>2022-01-15T08:54:05.000Z</time>
      </trkpt>
      <trkpt lat="43.88991" lon="7.44591">
        <ele>563.40002441406</ele>
        <time>2022-01-15T08:54:09.000Z</time>
      </trkpt>
      <trkpt lat="43.88987" lon="7.44581">
        <ele>564.59997558594</ele>
        <time>2022-01-15T08:54:15.000Z</time>
      </trkpt>
      <trkpt lat="43.88987" lon="7.44579">
        <ele>564.79998779297</ele>
        <time>2022-01-15T08:54:16.000Z</time>
      </trkpt>
      <trkpt lat="43.88988" lon="7.44569">
        <ele>565.59997558594</ele>
        <time>2022-01-15T08:54:22.000Z</time>
      </trkpt>
      <trkpt lat="43.88988" lon="7.44566">
        <ele>566.20001220703</ele>
        <time>2022-01-15T08:54:24.000Z</time>
      </trkpt>
      <trkpt lat="43.88992" lon="7.44562">
        <ele>566.79998779297</ele>
        <time>2022-01-15T08:54:28.000Z</time>
      </trkpt>
      <trkpt lat="43.88993" lon="7.44562">
        <ele>567</ele>
        <time>2022-01-15T08:54:29.000Z</time>
      </trkpt>
      <trkpt lat="43.88994" lon="7.44568">
        <ele>567.59997558594</ele>
        <time>2022-01-15T08:54:33.000Z</time>
      </trkpt>
      <trkpt lat="43.88994" lon="7.44569">
        <ele>567.59997558594</ele>
        <time>2022-01-15T08:54:34.000Z</time>
      </trkpt>
      <trkpt lat="43.88993" lon="7.44571">
        <ele>567.79998779297</ele>
        <time>2022-01-15T08:54:35.000Z</time>
      </trkpt>
      <trkpt lat="43.88992" lon="7.44575">
        <ele>568.20001220703</ele>
        <time>2022-01-15T08:54:38.000Z</time>
      </trkpt>
      <trkpt lat="43.88993" lon="7.44577">
        <ele>568.40002441406</ele>
        <time>2022-01-15T08:54:39.000Z</time>
      </trkpt>
      <trkpt lat="43.88994" lon="7.44579">
        <ele>568.59997558594</ele>
        <time>2022-01-15T08:54:40.000Z</time>
      </trkpt>
      <trkpt lat="43.88996" lon="7.44582">
        <ele>569</ele>
        <time>2022-01-15T08:54:43.000Z</time>
      </trkpt>
      <trkpt lat="43.88998" lon="7.44585">
        <ele>569.40002441406</ele>
        <time>2022-01-15T08:54:45.000Z</time>
      </trkpt>
      <trkpt lat="43.89001" lon="7.4459">
        <ele>570</ele>
        <time>2022-01-15T08:54:49.000Z</time>
      </trkpt>
      <trkpt lat="43.89004" lon="7.44595">
        <ele>570.79998779297</ele>
        <time>2022-01-15T08:54:53.000Z</time>
      </trkpt>
      <trkpt lat="43.89006" lon="7.44596">
        <ele>571.20001220703</ele>
        <time>2022-01-15T08:54:55.000Z</time>
      </trkpt>
      <trkpt lat="43.89007" lon="7.44592">
        <ele>571.40002441406</ele>
        <time>2022-01-15T08:54:57.000Z</time>
      </trkpt>
      <trkpt lat="43.89005" lon="7.4459">
        <ele>571.79998779297</ele>
        <time>2022-01-15T08:54:59.000Z</time>
      </trkpt>
      <trkpt lat="43.89004" lon="7.44588">
        <ele>572.20001220703</ele>
        <time>2022-01-15T08:55:01.000Z</time>
      </trkpt>
      <trkpt lat="43.89003" lon="7.44584">
        <ele>572.40002441406</ele>
        <time>2022-01-15T08:55:03.000Z</time>
      </trkpt>
      <trkpt lat="43.89002" lon="7.44578">
        <ele>573.20001220703</ele>
        <time>2022-01-15T08:55:07.000Z</time>
      </trkpt>
      <trkpt lat="43.89005" lon="7.44574">
        <ele>574</ele>
        <time>2022-01-15T08:55:10.000Z</time>
      </trkpt>
      <trkpt lat="43.89008" lon="7.44571">
        <ele>574.40002441406</ele>
        <time>2022-01-15T08:55:13.000Z</time>
      </trkpt>
      <trkpt lat="43.89012" lon="7.4457">
        <ele>574.59997558594</ele>
        <time>2022-01-15T08:55:16.000Z</time>
      </trkpt>
      <trkpt lat="43.89013" lon="7.4457">
        <ele>574.79998779297</ele>
        <time>2022-01-15T08:55:17.000Z</time>
      </trkpt>
      <trkpt lat="43.89013" lon="7.44576">
        <ele>575.59997558594</ele>
        <time>2022-01-15T08:55:20.000Z</time>
      </trkpt>
      <trkpt lat="43.89012" lon="7.44577">
        <ele>576</ele>
        <time>2022-01-15T08:55:21.000Z</time>
      </trkpt>
      <trkpt lat="43.8901" lon="7.44581">
        <ele>576.79998779297</ele>
        <time>2022-01-15T08:55:24.000Z</time>
      </trkpt>
      <trkpt lat="43.8901" lon="7.44585">
        <ele>577</ele>
        <time>2022-01-15T08:55:26.000Z</time>
      </trkpt>
      <trkpt lat="43.8901" lon="7.44587">
        <ele>577.20001220703</ele>
        <time>2022-01-15T08:55:27.000Z</time>
      </trkpt>
      <trkpt lat="43.89015" lon="7.44593">
        <ele>577.79998779297</ele>
        <time>2022-01-15T08:55:31.000Z</time>
      </trkpt>
      <trkpt lat="43.89022" lon="7.44605">
        <ele>579</ele>
        <time>2022-01-15T08:55:38.000Z</time>
      </trkpt>
      <trkpt lat="43.89024" lon="7.44616">
        <ele>580</ele>
        <time>2022-01-15T08:55:43.000Z</time>
      </trkpt>
      <trkpt lat="43.89023" lon="7.44618">
        <ele>580.20001220703</ele>
        <time>2022-01-15T08:55:44.000Z</time>
      </trkpt>
      <trkpt lat="43.8902" lon="7.44626">
        <ele>581.20001220703</ele>
        <time>2022-01-15T08:55:48.000Z</time>
      </trkpt>
      <trkpt lat="43.89019" lon="7.44629">
        <ele>581.40002441406</ele>
        <time>2022-01-15T08:55:50.000Z</time>
      </trkpt>
      <trkpt lat="43.89022" lon="7.4463">
        <ele>582.20001220703</ele>
        <time>2022-01-15T08:55:53.000Z</time>
      </trkpt>
      <trkpt lat="43.89024" lon="7.44628">
        <ele>582.40002441406</ele>
        <time>2022-01-15T08:55:54.000Z</time>
      </trkpt>
      <trkpt lat="43.89031" lon="7.44618">
        <ele>583.40002441406</ele>
        <time>2022-01-15T08:56:00.000Z</time>
      </trkpt>
      <trkpt lat="43.89033" lon="7.44606">
        <ele>584.59997558594</ele>
        <time>2022-01-15T08:56:05.000Z</time>
      </trkpt>
      <trkpt lat="43.89032" lon="7.44604">
        <ele>584.59997558594</ele>
        <time>2022-01-15T08:56:06.000Z</time>
      </trkpt>
      <trkpt lat="43.89028" lon="7.44593">
        <ele>585.59997558594</ele>
        <time>2022-01-15T08:56:11.000Z</time>
      </trkpt>
      <trkpt lat="43.89028" lon="7.4459">
        <ele>585.79998779297</ele>
        <time>2022-01-15T08:56:12.000Z</time>
      </trkpt>
      <trkpt lat="43.89029" lon="7.44585">
        <ele>586.20001220703</ele>
        <time>2022-01-15T08:56:14.000Z</time>
      </trkpt>
      <trkpt lat="43.89031" lon="7.44582">
        <ele>586.59997558594</ele>
        <time>2022-01-15T08:56:16.000Z</time>
      </trkpt>
      <trkpt lat="43.89033" lon="7.44581">
        <ele>586.79998779297</ele>
        <time>2022-01-15T08:56:17.000Z</time>
      </trkpt>
      <trkpt lat="43.89037" lon="7.44587">
        <ele>587.59997558594</ele>
        <time>2022-01-15T08:56:20.000Z</time>
      </trkpt>
      <trkpt lat="43.89036" lon="7.44589">
        <ele>588</ele>
        <time>2022-01-15T08:56:21.000Z</time>
      </trkpt>
      <trkpt lat="43.89036" lon="7.44597">
        <ele>588.59997558594</ele>
        <time>2022-01-15T08:56:24.000Z</time>
      </trkpt>
      <trkpt lat="43.89037" lon="7.44599">
        <ele>589</ele>
        <time>2022-01-15T08:56:25.000Z</time>
      </trkpt>
      <trkpt lat="43.89039" lon="7.44604">
        <ele>589.40002441406</ele>
        <time>2022-01-15T08:56:27.000Z</time>
      </trkpt>
      <trkpt lat="43.89042" lon="7.4461">
        <ele>590</ele>
        <time>2022-01-15T08:56:30.000Z</time>
      </trkpt>
      <trkpt lat="43.89044" lon="7.4462">
        <ele>591</ele>
        <time>2022-01-15T08:56:34.000Z</time>
      </trkpt>
      <trkpt lat="43.89044" lon="7.44633">
        <ele>592</ele>
        <time>2022-01-15T08:56:39.000Z</time>
      </trkpt>
      <trkpt lat="43.89045" lon="7.44638">
        <ele>592.40002441406</ele>
        <time>2022-01-15T08:56:41.000Z</time>
      </trkpt>
      <trkpt lat="43.89048" lon="7.44646">
        <ele>593.40002441406</ele>
        <time>2022-01-15T08:56:45.000Z</time>
      </trkpt>
      <trkpt lat="43.89049" lon="7.44645">
        <ele>593.79998779297</ele>
        <time>2022-01-15T08:56:46.000Z</time>
      </trkpt>
      <trkpt lat="43.89049" lon="7.44637">
        <ele>594.40002441406</ele>
        <time>2022-01-15T08:56:50.000Z</time>
      </trkpt>
      <trkpt lat="43.89049" lon="7.44624">
        <ele>595.40002441406</ele>
        <time>2022-01-15T08:56:55.000Z</time>
      </trkpt>
      <trkpt lat="43.8905" lon="7.44618">
        <ele>595.79998779297</ele>
        <time>2022-01-15T08:56:57.000Z</time>
      </trkpt>
      <trkpt lat="43.89051" lon="7.44607">
        <ele>596.59997558594</ele>
        <time>2022-01-15T08:57:01.000Z</time>
      </trkpt>
      <trkpt lat="43.89052" lon="7.44605">
        <ele>596.59997558594</ele>
        <time>2022-01-15T08:57:02.000Z</time>
      </trkpt>
      <trkpt lat="43.89059" lon="7.44596">
        <ele>597.79998779297</ele>
        <time>2022-01-15T08:57:07.000Z</time>
      </trkpt>
      <trkpt lat="43.89061" lon="7.44595">
        <ele>598</ele>
        <time>2022-01-15T08:57:08.000Z</time>
      </trkpt>
      <trkpt lat="43.89067" lon="7.44593">
        <ele>599</ele>
        <time>2022-01-15T08:57:12.000Z</time>
      </trkpt>
      <trkpt lat="43.89071" lon="7.44593">
        <ele>599.40002441406</ele>
        <time>2022-01-15T08:57:14.000Z</time>
      </trkpt>
      <trkpt lat="43.89075" lon="7.44594">
        <ele>600.20001220703</ele>
        <time>2022-01-15T08:57:17.000Z</time>
      </trkpt>
      <trkpt lat="43.89079" lon="7.44594">
        <ele>600.59997558594</ele>
        <time>2022-01-15T08:57:20.000Z</time>
      </trkpt>
      <trkpt lat="43.89082" lon="7.44594">
        <ele>601</ele>
        <time>2022-01-15T08:57:22.000Z</time>
      </trkpt>
      <trkpt lat="43.89085" lon="7.44598">
        <ele>601.20001220703</ele>
        <time>2022-01-15T08:57:24.000Z</time>
      </trkpt>
      <trkpt lat="43.89083" lon="7.446">
        <ele>601.59997558594</ele>
        <time>2022-01-15T08:57:25.000Z</time>
      </trkpt>
      <trkpt lat="43.89079" lon="7.44602">
        <ele>602.59997558594</ele>
        <time>2022-01-15T08:57:28.000Z</time>
      </trkpt>
      <trkpt lat="43.89077" lon="7.44603">
        <ele>602.59997558594</ele>
        <time>2022-01-15T08:57:29.000Z</time>
      </trkpt>
      <trkpt lat="43.89074" lon="7.44604">
        <ele>603</ele>
        <time>2022-01-15T08:57:31.000Z</time>
      </trkpt>
      <trkpt lat="43.89068" lon="7.44608">
        <ele>603.79998779297</ele>
        <time>2022-01-15T08:57:35.000Z</time>
      </trkpt>
      <trkpt lat="43.89064" lon="7.44614">
        <ele>604.59997558594</ele>
        <time>2022-01-15T08:57:39.000Z</time>
      </trkpt>
      <trkpt lat="43.89063" lon="7.44616">
        <ele>604.79998779297</ele>
        <time>2022-01-15T08:57:40.000Z</time>
      </trkpt>
      <trkpt lat="43.89063" lon="7.44618">
        <ele>605</ele>
        <time>2022-01-15T08:57:41.000Z</time>
      </trkpt>
      <trkpt lat="43.89064" lon="7.44624">
        <ele>605.59997558594</ele>
        <time>2022-01-15T08:57:44.000Z</time>
      </trkpt>
      <trkpt lat="43.89065" lon="7.44625">
        <ele>605.79998779297</ele>
        <time>2022-01-15T08:57:45.000Z</time>
      </trkpt>
      <trkpt lat="43.89066" lon="7.44626">
        <ele>606</ele>
        <time>2022-01-15T08:57:46.000Z</time>
      </trkpt>
      <trkpt lat="43.89069" lon="7.44629">
        <ele>606.40002441406</ele>
        <time>2022-01-15T08:57:48.000Z</time>
      </trkpt>
      <trkpt lat="43.89073" lon="7.44632">
        <ele>607.20001220703</ele>
        <time>2022-01-15T08:57:51.000Z</time>
      </trkpt>
      <trkpt lat="43.89078" lon="7.44637">
        <ele>608.20001220703</ele>
        <time>2022-01-15T08:57:55.000Z</time>
      </trkpt>
      <trkpt lat="43.89081" lon="7.44639">
        <ele>608.59997558594</ele>
        <time>2022-01-15T08:57:57.000Z</time>
      </trkpt>
      <trkpt lat="43.89087" lon="7.44643">
        <ele>609.20001220703</ele>
        <time>2022-01-15T08:58:01.000Z</time>
      </trkpt>
      <trkpt lat="43.8909" lon="7.44644">
        <ele>609.79998779297</ele>
        <time>2022-01-15T08:58:03.000Z</time>
      </trkpt>
      <trkpt lat="43.89094" lon="7.44646">
        <ele>610.40002441406</ele>
        <time>2022-01-15T08:58:05.000Z</time>
      </trkpt>
      <trkpt lat="43.891" lon="7.4465">
        <ele>611.40002441406</ele>
        <time>2022-01-15T08:58:09.000Z</time>
      </trkpt>
      <trkpt lat="43.89101" lon="7.44651">
        <ele>611.59997558594</ele>
        <time>2022-01-15T08:58:10.000Z</time>
      </trkpt>
      <trkpt lat="43.89106" lon="7.44656">
        <ele>612.59997558594</ele>
        <time>2022-01-15T08:58:14.000Z</time>
      </trkpt>
      <trkpt lat="43.89107" lon="7.44657">
        <ele>613</ele>
        <time>2022-01-15T08:58:15.000Z</time>
      </trkpt>
      <trkpt lat="43.89109" lon="7.44658">
        <ele>613.20001220703</ele>
        <time>2022-01-15T08:58:16.000Z</time>
      </trkpt>
      <trkpt lat="43.89112" lon="7.44663">
        <ele>613.79998779297</ele>
        <time>2022-01-15T08:58:19.000Z</time>
      </trkpt>
      <trkpt lat="43.89118" lon="7.4467">
        <ele>614.79998779297</ele>
        <time>2022-01-15T08:58:24.000Z</time>
      </trkpt>
      <trkpt lat="43.89119" lon="7.44672">
        <ele>615</ele>
        <time>2022-01-15T08:58:25.000Z</time>
      </trkpt>
      <trkpt lat="43.89124" lon="7.44677">
        <ele>615.79998779297</ele>
        <time>2022-01-15T08:58:29.000Z</time>
      </trkpt>
      <trkpt lat="43.89127" lon="7.44682">
        <ele>616.40002441406</ele>
        <time>2022-01-15T08:58:32.000Z</time>
      </trkpt>
      <trkpt lat="43.8913" lon="7.44685">
        <ele>617</ele>
        <time>2022-01-15T08:58:34.000Z</time>
      </trkpt>
      <trkpt lat="43.89135" lon="7.44693">
        <ele>617.79998779297</ele>
        <time>2022-01-15T08:58:39.000Z</time>
      </trkpt>
      <trkpt lat="43.89136" lon="7.44693">
        <ele>618</ele>
        <time>2022-01-15T08:58:40.000Z</time>
      </trkpt>
      <trkpt lat="43.89137" lon="7.44689">
        <ele>618.59997558594</ele>
        <time>2022-01-15T08:58:43.000Z</time>
      </trkpt>
      <trkpt lat="43.89137" lon="7.44688">
        <ele>618.79998779297</ele>
        <time>2022-01-15T08:58:44.000Z</time>
      </trkpt>
      <trkpt lat="43.89136" lon="7.44687">
        <ele>619</ele>
        <time>2022-01-15T08:58:45.000Z</time>
      </trkpt>
      <trkpt lat="43.89132" lon="7.44679">
        <ele>620</ele>
        <time>2022-01-15T08:58:49.000Z</time>
      </trkpt>
      <trkpt lat="43.89132" lon="7.44677">
        <ele>620.20001220703</ele>
        <time>2022-01-15T08:58:50.000Z</time>
      </trkpt>
      <trkpt lat="43.8913" lon="7.4467">
        <ele>621.20001220703</ele>
        <time>2022-01-15T08:58:55.000Z</time>
      </trkpt>
      <trkpt lat="43.89129" lon="7.44668">
        <ele>621.40002441406</ele>
        <time>2022-01-15T08:58:56.000Z</time>
      </trkpt>
      <trkpt lat="43.89126" lon="7.44657">
        <ele>622.40002441406</ele>
        <time>2022-01-15T08:59:01.000Z</time>
      </trkpt>
      <trkpt lat="43.89122" lon="7.44648">
        <ele>623.40002441406</ele>
        <time>2022-01-15T08:59:06.000Z</time>
      </trkpt>
      <trkpt lat="43.8912" lon="7.44638">
        <ele>624.40002441406</ele>
        <time>2022-01-15T08:59:11.000Z</time>
      </trkpt>
      <trkpt lat="43.89122" lon="7.44631">
        <ele>625.59997558594</ele>
        <time>2022-01-15T08:59:15.000Z</time>
      </trkpt>
      <trkpt lat="43.89124" lon="7.4463">
        <ele>625.79998779297</ele>
        <time>2022-01-15T08:59:16.000Z</time>
      </trkpt>
      <trkpt lat="43.8913" lon="7.44625">
        <ele>626.79998779297</ele>
        <time>2022-01-15T08:59:20.000Z</time>
      </trkpt>
      <trkpt lat="43.89135" lon="7.44621">
        <ele>627.40002441406</ele>
        <time>2022-01-15T08:59:24.000Z</time>
      </trkpt>
      <trkpt lat="43.89138" lon="7.4462">
        <ele>627.79998779297</ele>
        <time>2022-01-15T08:59:26.000Z</time>
      </trkpt>
      <trkpt lat="43.89144" lon="7.44616">
        <ele>628.79998779297</ele>
        <time>2022-01-15T08:59:30.000Z</time>
      </trkpt>
      <trkpt lat="43.89151" lon="7.44612">
        <ele>630</ele>
        <time>2022-01-15T08:59:35.000Z</time>
      </trkpt>
      <trkpt lat="43.89154" lon="7.44609">
        <ele>630.40002441406</ele>
        <time>2022-01-15T08:59:37.000Z</time>
      </trkpt>
      <trkpt lat="43.89158" lon="7.44605">
        <ele>631</ele>
        <time>2022-01-15T08:59:40.000Z</time>
      </trkpt>
      <trkpt lat="43.89162" lon="7.44599">
        <ele>632</ele>
        <time>2022-01-15T08:59:44.000Z</time>
      </trkpt>
      <trkpt lat="43.89163" lon="7.44597">
        <ele>632.20001220703</ele>
        <time>2022-01-15T08:59:45.000Z</time>
      </trkpt>
      <trkpt lat="43.89167" lon="7.44587">
        <ele>633.20001220703</ele>
        <time>2022-01-15T08:59:50.000Z</time>
      </trkpt>
      <trkpt lat="43.89168" lon="7.44583">
        <ele>633.59997558594</ele>
        <time>2022-01-15T08:59:52.000Z</time>
      </trkpt>
      <trkpt lat="43.8917" lon="7.44574">
        <ele>634.20001220703</ele>
        <time>2022-01-15T08:59:56.000Z</time>
      </trkpt>
      <trkpt lat="43.89172" lon="7.44565">
        <ele>635.20001220703</ele>
        <time>2022-01-15T09:00:00.000Z</time>
      </trkpt>
      <trkpt lat="43.89172" lon="7.44563">
        <ele>635.40002441406</ele>
        <time>2022-01-15T09:00:01.000Z</time>
      </trkpt>
      <trkpt lat="43.89174" lon="7.44554">
        <ele>636.59997558594</ele>
        <time>2022-01-15T09:00:05.000Z</time>
      </trkpt>
      <trkpt lat="43.89174" lon="7.44548">
        <ele>637.40002441406</ele>
        <time>2022-01-15T09:00:08.000Z</time>
      </trkpt>
      <trkpt lat="43.89174" lon="7.44546">
        <ele>637.59997558594</ele>
        <time>2022-01-15T09:00:09.000Z</time>
      </trkpt>
      <trkpt lat="43.89176" lon="7.44543">
        <ele>638</ele>
        <time>2022-01-15T09:00:11.000Z</time>
      </trkpt>
      <trkpt lat="43.89179" lon="7.44543">
        <ele>638.20001220703</ele>
        <time>2022-01-15T09:00:13.000Z</time>
      </trkpt>
      <trkpt lat="43.8918" lon="7.44546">
        <ele>638.79998779297</ele>
        <time>2022-01-15T09:00:15.000Z</time>
      </trkpt>
      <trkpt lat="43.8918" lon="7.4455">
        <ele>639.40002441406</ele>
        <time>2022-01-15T09:00:17.000Z</time>
      </trkpt>
      <trkpt lat="43.89179" lon="7.44557">
        <ele>640</ele>
        <time>2022-01-15T09:00:21.000Z</time>
      </trkpt>
      <trkpt lat="43.89179" lon="7.44563">
        <ele>640.40002441406</ele>
        <time>2022-01-15T09:00:24.000Z</time>
      </trkpt>
      <trkpt lat="43.89179" lon="7.44567">
        <ele>641</ele>
        <time>2022-01-15T09:00:27.000Z</time>
      </trkpt>
      <trkpt lat="43.89179" lon="7.44569">
        <ele>641.20001220703</ele>
        <time>2022-01-15T09:00:28.000Z</time>
      </trkpt>
      <trkpt lat="43.89179" lon="7.44573">
        <ele>641.40002441406</ele>
        <time>2022-01-15T09:00:30.000Z</time>
      </trkpt>
      <trkpt lat="43.89178" lon="7.44582">
        <ele>642.40002441406</ele>
        <time>2022-01-15T09:00:35.000Z</time>
      </trkpt>
      <trkpt lat="43.89178" lon="7.44587">
        <ele>642.79998779297</ele>
        <time>2022-01-15T09:00:38.000Z</time>
      </trkpt>
      <trkpt lat="43.89177" lon="7.44593">
        <ele>643.40002441406</ele>
        <time>2022-01-15T09:00:41.000Z</time>
      </trkpt>
      <trkpt lat="43.89177" lon="7.44599">
        <ele>644</ele>
        <time>2022-01-15T09:00:45.000Z</time>
      </trkpt>
      <trkpt lat="43.89179" lon="7.44596">
        <ele>644.59997558594</ele>
        <time>2022-01-15T09:00:48.000Z</time>
      </trkpt>
      <trkpt lat="43.8918" lon="7.44594">
        <ele>644.79998779297</ele>
        <time>2022-01-15T09:00:49.000Z</time>
      </trkpt>
      <trkpt lat="43.89182" lon="7.44585">
        <ele>645.59997558594</ele>
        <time>2022-01-15T09:00:53.000Z</time>
      </trkpt>
      <trkpt lat="43.89184" lon="7.44579">
        <ele>646</ele>
        <time>2022-01-15T09:00:56.000Z</time>
      </trkpt>
      <trkpt lat="43.89187" lon="7.44571">
        <ele>646.59997558594</ele>
        <time>2022-01-15T09:01:00.000Z</time>
      </trkpt>
      <trkpt lat="43.89189" lon="7.44565">
        <ele>647.40002441406</ele>
        <time>2022-01-15T09:01:03.000Z</time>
      </trkpt>
      <trkpt lat="43.8919" lon="7.44561">
        <ele>647.79998779297</ele>
        <time>2022-01-15T09:01:05.000Z</time>
      </trkpt>
      <trkpt lat="43.89192" lon="7.44549">
        <ele>649</ele>
        <time>2022-01-15T09:01:11.000Z</time>
      </trkpt>
      <trkpt lat="43.89195" lon="7.44535">
        <ele>650</ele>
        <time>2022-01-15T09:01:17.000Z</time>
      </trkpt>
      <trkpt lat="43.89197" lon="7.44529">
        <ele>650.79998779297</ele>
        <time>2022-01-15T09:01:21.000Z</time>
      </trkpt>
      <trkpt lat="43.89199" lon="7.44526">
        <ele>651.20001220703</ele>
        <time>2022-01-15T09:01:23.000Z</time>
      </trkpt>
      <trkpt lat="43.89204" lon="7.44521">
        <ele>652.20001220703</ele>
        <time>2022-01-15T09:01:28.000Z</time>
      </trkpt>
      <trkpt lat="43.89205" lon="7.4452">
        <ele>652.20001220703</ele>
        <time>2022-01-15T09:01:29.000Z</time>
      </trkpt>
      <trkpt lat="43.89213" lon="7.44521">
        <ele>653.40002441406</ele>
        <time>2022-01-15T09:01:35.000Z</time>
      </trkpt>
      <trkpt lat="43.89214" lon="7.44521">
        <ele>653.40002441406</ele>
        <time>2022-01-15T09:01:36.000Z</time>
      </trkpt>
      <trkpt lat="43.89219" lon="7.44524">
        <ele>654.40002441406</ele>
        <time>2022-01-15T09:01:41.000Z</time>
      </trkpt>
      <trkpt lat="43.89221" lon="7.44525">
        <ele>654.59997558594</ele>
        <time>2022-01-15T09:01:42.000Z</time>
      </trkpt>
      <trkpt lat="43.89228" lon="7.44538">
        <ele>655.20001220703</ele>
        <time>2022-01-15T09:01:49.000Z</time>
      </trkpt>
      <trkpt lat="43.89233" lon="7.44548">
        <ele>655.20001220703</ele>
        <time>2022-01-15T09:01:55.000Z</time>
      </trkpt>
      <trkpt lat="43.89234" lon="7.44549">
        <ele>655.20001220703</ele>
        <time>2022-01-15T09:01:56.000Z</time>
      </trkpt>
      <trkpt lat="43.89237" lon="7.44555">
        <ele>655.40002441406</ele>
        <time>2022-01-15T09:02:00.000Z</time>
      </trkpt>
      <trkpt lat="43.89239" lon="7.44557">
        <ele>655.40002441406</ele>
        <time>2022-01-15T09:02:01.000Z</time>
      </trkpt>
      <trkpt lat="43.89243" lon="7.44566">
        <ele>655.20001220703</ele>
        <time>2022-01-15T09:02:04.000Z</time>
      </trkpt>
      <trkpt lat="43.89244" lon="7.4457">
        <ele>655</ele>
        <time>2022-01-15T09:02:05.000Z</time>
      </trkpt>
      <trkpt lat="43.89248" lon="7.44576">
        <ele>655.40002441406</ele>
        <time>2022-01-15T09:02:09.000Z</time>
      </trkpt>
      <trkpt lat="43.89257" lon="7.44583">
        <ele>656.40002441406</ele>
        <time>2022-01-15T09:02:14.000Z</time>
      </trkpt>
      <trkpt lat="43.89259" lon="7.44585">
        <ele>656.40002441406</ele>
        <time>2022-01-15T09:02:15.000Z</time>
      </trkpt>
      <trkpt lat="43.8927" lon="7.44599">
        <ele>657.20001220703</ele>
        <time>2022-01-15T09:02:22.000Z</time>
      </trkpt>
      <trkpt lat="43.89271" lon="7.44601">
        <ele>657.59997558594</ele>
        <time>2022-01-15T09:02:23.000Z</time>
      </trkpt>
      <trkpt lat="43.89274" lon="7.44604">
        <ele>658.20001220703</ele>
        <time>2022-01-15T09:02:25.000Z</time>
      </trkpt>
      <trkpt lat="43.89277" lon="7.44606">
        <ele>659</ele>
        <time>2022-01-15T09:02:27.000Z</time>
      </trkpt>
      <trkpt lat="43.89284" lon="7.44606">
        <ele>660.20001220703</ele>
        <time>2022-01-15T09:02:31.000Z</time>
      </trkpt>
      <trkpt lat="43.89288" lon="7.44604">
        <ele>660.59997558594</ele>
        <time>2022-01-15T09:02:33.000Z</time>
      </trkpt>
      <trkpt lat="43.89292" lon="7.44602">
        <ele>661.20001220703</ele>
        <time>2022-01-15T09:02:36.000Z</time>
      </trkpt>
      <trkpt lat="43.89295" lon="7.446">
        <ele>661.59997558594</ele>
        <time>2022-01-15T09:02:38.000Z</time>
      </trkpt>
      <trkpt lat="43.89295" lon="7.446">
        <ele>662.59997558594</ele>
        <time>2022-01-15T09:02:41.000Z</time>
      </trkpt>
      <trkpt lat="43.89296" lon="7.44599">
        <ele>663</ele>
        <time>2022-01-15T09:02:43.000Z</time>
      </trkpt>
      <trkpt lat="43.89298" lon="7.44598">
        <ele>663.59997558594</ele>
        <time>2022-01-15T09:02:50.000Z</time>
      </trkpt>
      <trkpt lat="43.89298" lon="7.44598">
        <ele>663.79998779297</ele>
        <time>2022-01-15T09:02:51.000Z</time>
      </trkpt>
      <trkpt lat="43.893" lon="7.44595">
        <ele>665</ele>
        <time>2022-01-15T09:02:56.000Z</time>
      </trkpt>
      <trkpt lat="43.89302" lon="7.44593">
        <ele>665.59997558594</ele>
        <time>2022-01-15T09:02:59.000Z</time>
      </trkpt>
      <trkpt lat="43.89303" lon="7.44593">
        <ele>666</ele>
        <time>2022-01-15T09:03:00.000Z</time>
      </trkpt>
      <trkpt lat="43.89306" lon="7.44596">
        <ele>666.59997558594</ele>
        <time>2022-01-15T09:03:04.000Z</time>
      </trkpt>
      <trkpt lat="43.89306" lon="7.44599">
        <ele>666.79998779297</ele>
        <time>2022-01-15T09:03:10.000Z</time>
      </trkpt>
      <trkpt lat="43.89307" lon="7.44599">
        <ele>666.59997558594</ele>
        <time>2022-01-15T09:03:24.000Z</time>
      </trkpt>
      <trkpt lat="43.89307" lon="7.446">
        <ele>666.40002441406</ele>
        <time>2022-01-15T09:03:51.000Z</time>
      </trkpt>
      <trkpt lat="43.89307" lon="7.446">
        <ele>666.59997558594</ele>
        <time>2022-01-15T09:04:05.000Z</time>
      </trkpt>
      <trkpt lat="43.89307" lon="7.44601">
        <ele>666.40002441406</ele>
        <time>2022-01-15T09:04:16.000Z</time>
      </trkpt>
      <trkpt lat="43.89308" lon="7.44601">
        <ele>666</ele>
        <time>2022-01-15T09:04:23.000Z</time>
      </trkpt>
      <trkpt lat="43.89307" lon="7.44602">
        <ele>665.79998779297</ele>
        <time>2022-01-15T09:04:34.000Z</time>
      </trkpt>
      <trkpt lat="43.89307" lon="7.44603">
        <ele>665.79998779297</ele>
        <time>2022-01-15T09:04:46.000Z</time>
      </trkpt>
      <trkpt lat="43.89307" lon="7.44603">
        <ele>665</ele>
        <time>2022-01-15T09:04:56.000Z</time>
      </trkpt>
      <trkpt lat="43.89307" lon="7.44603">
        <ele>665.20001220703</ele>
        <time>2022-01-15T09:05:09.000Z</time>
      </trkpt>
      <trkpt lat="43.89307" lon="7.44602">
        <ele>665.20001220703</ele>
        <time>2022-01-15T09:05:21.000Z</time>
      </trkpt>
      <trkpt lat="43.89307" lon="7.44603">
        <ele>665.20001220703</ele>
        <time>2022-01-15T09:05:29.000Z</time>
      </trkpt>
      <trkpt lat="43.89307" lon="7.44602">
        <ele>665.59997558594</ele>
        <time>2022-01-15T09:05:35.000Z</time>
      </trkpt>
      <trkpt lat="43.89307" lon="7.44602">
        <ele>666</ele>
        <time>2022-01-15T09:05:45.000Z</time>
      </trkpt>
      <trkpt lat="43.89308" lon="7.44602">
        <ele>666.40002441406</ele>
        <time>2022-01-15T09:05:51.000Z</time>
      </trkpt>
      <trkpt lat="43.89309" lon="7.44602">
        <ele>665.79998779297</ele>
        <time>2022-01-15T09:05:58.000Z</time>
      </trkpt>
      <trkpt lat="43.89309" lon="7.44602">
        <ele>665.59997558594</ele>
        <time>2022-01-15T09:06:04.000Z</time>
      </trkpt>
      <trkpt lat="43.89311" lon="7.44602">
        <ele>666</ele>
        <time>2022-01-15T09:06:11.000Z</time>
      </trkpt>
      <trkpt lat="43.89312" lon="7.44603">
        <ele>666</ele>
        <time>2022-01-15T09:06:18.000Z</time>
      </trkpt>
      <trkpt lat="43.89312" lon="7.44602">
        <ele>665.79998779297</ele>
        <time>2022-01-15T09:06:25.000Z</time>
      </trkpt>
      <trkpt lat="43.89313" lon="7.44602">
        <ele>665.79998779297</ele>
        <time>2022-01-15T09:06:33.000Z</time>
      </trkpt>
      <trkpt lat="43.89313" lon="7.44601">
        <ele>666</ele>
        <time>2022-01-15T09:06:41.000Z</time>
      </trkpt>
      <trkpt lat="43.89313" lon="7.44601">
        <ele>666</ele>
        <time>2022-01-15T09:06:52.000Z</time>
      </trkpt>
      <trkpt lat="43.89313" lon="7.44601">
        <ele>665.79998779297</ele>
        <time>2022-01-15T09:07:03.000Z</time>
      </trkpt>
      <trkpt lat="43.89313" lon="7.44602">
        <ele>665.40002441406</ele>
        <time>2022-01-15T09:07:14.000Z</time>
      </trkpt>
      <trkpt lat="43.89313" lon="7.44602">
        <ele>665.59997558594</ele>
        <time>2022-01-15T09:07:23.000Z</time>
      </trkpt>
      <trkpt lat="43.89314" lon="7.44602">
        <ele>665.20001220703</ele>
        <time>2022-01-15T09:07:33.000Z</time>
      </trkpt>
      <trkpt lat="43.89313" lon="7.44602">
        <ele>665.20001220703</ele>
        <time>2022-01-15T09:07:44.000Z</time>
      </trkpt>
      <trkpt lat="43.89313" lon="7.44605">
        <ele>665.79998779297</ele>
        <time>2022-01-15T09:07:51.000Z</time>
      </trkpt>
      <trkpt lat="43.89313" lon="7.44607">
        <ele>665.59997558594</ele>
        <time>2022-01-15T09:07:53.000Z</time>
      </trkpt>
      <trkpt lat="43.89314" lon="7.4461">
        <ele>665.59997558594</ele>
        <time>2022-01-15T09:07:57.000Z</time>
      </trkpt>
      <trkpt lat="43.89312" lon="7.44614">
        <ele>665.79998779297</ele>
        <time>2022-01-15T09:08:04.000Z</time>
      </trkpt>
      <trkpt lat="43.89311" lon="7.44615">
        <ele>665.40002441406</ele>
        <time>2022-01-15T09:08:11.000Z</time>
      </trkpt>
      <trkpt lat="43.89311" lon="7.44615">
        <ele>666</ele>
        <time>2022-01-15T09:08:19.000Z</time>
      </trkpt>
      <trkpt lat="43.89311" lon="7.44611">
        <ele>665.79998779297</ele>
        <time>2022-01-15T09:08:25.000Z</time>
      </trkpt>
      <trkpt lat="43.89311" lon="7.4461">
        <ele>665.40002441406</ele>
        <time>2022-01-15T09:08:30.000Z</time>
      </trkpt>
      <trkpt lat="43.89311" lon="7.4461">
        <ele>665.40002441406</ele>
        <time>2022-01-15T09:08:43.000Z</time>
      </trkpt>
      <trkpt lat="43.8931" lon="7.44608">
        <ele>665.40002441406</ele>
        <time>2022-01-15T09:08:45.000Z</time>
      </trkpt>
      <trkpt lat="43.8931" lon="7.44604">
        <ele>665.40002441406</ele>
        <time>2022-01-15T09:08:47.000Z</time>
      </trkpt>
      <trkpt lat="43.8931" lon="7.44602">
        <ele>665.40002441406</ele>
        <time>2022-01-15T09:08:49.000Z</time>
      </trkpt>
      <trkpt lat="43.8931" lon="7.446">
        <ele>665.20001220703</ele>
        <time>2022-01-15T09:08:53.000Z</time>
      </trkpt>
      <trkpt lat="43.89312" lon="7.44602">
        <ele>666</ele>
        <time>2022-01-15T09:09:00.000Z</time>
      </trkpt>
      <trkpt lat="43.89314" lon="7.44603">
        <ele>666</ele>
        <time>2022-01-15T09:09:02.000Z</time>
      </trkpt>
      <trkpt lat="43.89318" lon="7.44601">
        <ele>665.79998779297</ele>
        <time>2022-01-15T09:09:05.000Z</time>
      </trkpt>
      <trkpt lat="43.89327" lon="7.44603">
        <ele>665.59997558594</ele>
        <time>2022-01-15T09:09:12.000Z</time>
      </trkpt>
      <trkpt lat="43.8934" lon="7.44614">
        <ele>666.20001220703</ele>
        <time>2022-01-15T09:09:22.000Z</time>
      </trkpt>
      <trkpt lat="43.89344" lon="7.44618">
        <ele>666.40002441406</ele>
        <time>2022-01-15T09:09:25.000Z</time>
      </trkpt>
      <trkpt lat="43.89345" lon="7.44622">
        <ele>666.40002441406</ele>
        <time>2022-01-15T09:09:27.000Z</time>
      </trkpt>
      <trkpt lat="43.89347" lon="7.44626">
        <ele>666.59997558594</ele>
        <time>2022-01-15T09:09:29.000Z</time>
      </trkpt>
      <trkpt lat="43.8935" lon="7.44634">
        <ele>667</ele>
        <time>2022-01-15T09:09:33.000Z</time>
      </trkpt>
      <trkpt lat="43.8935" lon="7.44638">
        <ele>667.20001220703</ele>
        <time>2022-01-15T09:09:35.000Z</time>
      </trkpt>
      <trkpt lat="43.8935" lon="7.44652">
        <ele>667.79998779297</ele>
        <time>2022-01-15T09:09:41.000Z</time>
      </trkpt>
      <trkpt lat="43.8935" lon="7.44654">
        <ele>668</ele>
        <time>2022-01-15T09:09:42.000Z</time>
      </trkpt>
      <trkpt lat="43.89351" lon="7.44664">
        <ele>668.79998779297</ele>
        <time>2022-01-15T09:09:47.000Z</time>
      </trkpt>
      <trkpt lat="43.89351" lon="7.44669">
        <ele>669.20001220703</ele>
        <time>2022-01-15T09:09:49.000Z</time>
      </trkpt>
      <trkpt lat="43.89354" lon="7.44676">
        <ele>670</ele>
        <time>2022-01-15T09:09:53.000Z</time>
      </trkpt>
      <trkpt lat="43.89354" lon="7.44678">
        <ele>670.20001220703</ele>
        <time>2022-01-15T09:09:54.000Z</time>
      </trkpt>
      <trkpt lat="43.89356" lon="7.44679">
        <ele>670.40002441406</ele>
        <time>2022-01-15T09:09:55.000Z</time>
      </trkpt>
      <trkpt lat="43.89362" lon="7.44685">
        <ele>671.20001220703</ele>
        <time>2022-01-15T09:10:00.000Z</time>
      </trkpt>
      <trkpt lat="43.89375" lon="7.44684">
        <ele>672.40002441406</ele>
        <time>2022-01-15T09:10:08.000Z</time>
      </trkpt>
      <trkpt lat="43.89386" lon="7.44682">
        <ele>673.20001220703</ele>
        <time>2022-01-15T09:10:15.000Z</time>
      </trkpt>
      <trkpt lat="43.89388" lon="7.44683">
        <ele>673.40002441406</ele>
        <time>2022-01-15T09:10:16.000Z</time>
      </trkpt>
      <trkpt lat="43.89392" lon="7.44685">
        <ele>673.79998779297</ele>
        <time>2022-01-15T09:10:19.000Z</time>
      </trkpt>
      <trkpt lat="43.89398" lon="7.4469">
        <ele>674.59997558594</ele>
        <time>2022-01-15T09:10:23.000Z</time>
      </trkpt>
      <trkpt lat="43.89409" lon="7.4469">
        <ele>675.40002441406</ele>
        <time>2022-01-15T09:10:30.000Z</time>
      </trkpt>
      <trkpt lat="43.89412" lon="7.44689">
        <ele>675.59997558594</ele>
        <time>2022-01-15T09:10:32.000Z</time>
      </trkpt>
      <trkpt lat="43.89422" lon="7.44678">
        <ele>676.79998779297</ele>
        <time>2022-01-15T09:10:40.000Z</time>
      </trkpt>
      <trkpt lat="43.89431" lon="7.44668">
        <ele>677.79998779297</ele>
        <time>2022-01-15T09:10:47.000Z</time>
      </trkpt>
      <trkpt lat="43.89432" lon="7.44665">
        <ele>677.79998779297</ele>
        <time>2022-01-15T09:10:48.000Z</time>
      </trkpt>
      <trkpt lat="43.89441" lon="7.44655">
        <ele>678.59997558594</ele>
        <time>2022-01-15T09:10:55.000Z</time>
      </trkpt>
      <trkpt lat="43.89442" lon="7.44657">
        <ele>678.79998779297</ele>
        <time>2022-01-15T09:10:56.000Z</time>
      </trkpt>
      <trkpt lat="43.89441" lon="7.44661">
        <ele>679</ele>
        <time>2022-01-15T09:10:57.000Z</time>
      </trkpt>
      <trkpt lat="43.8944" lon="7.44666">
        <ele>679</ele>
        <time>2022-01-15T09:10:59.000Z</time>
      </trkpt>
      <trkpt lat="43.89437" lon="7.44673">
        <ele>679.79998779297</ele>
        <time>2022-01-15T09:11:03.000Z</time>
      </trkpt>
      <trkpt lat="43.89433" lon="7.44677">
        <ele>681</ele>
        <time>2022-01-15T09:11:06.000Z</time>
      </trkpt>
      <trkpt lat="43.8943" lon="7.44679">
        <ele>681.79998779297</ele>
        <time>2022-01-15T09:11:09.000Z</time>
      </trkpt>
      <trkpt lat="43.8943" lon="7.44679">
        <ele>682.20001220703</ele>
        <time>2022-01-15T09:11:10.000Z</time>
      </trkpt>
      <trkpt lat="43.8943" lon="7.44679">
        <ele>682.40002441406</ele>
        <time>2022-01-15T09:11:11.000Z</time>
      </trkpt>
      <trkpt lat="43.89429" lon="7.44683">
        <ele>683.20001220703</ele>
        <time>2022-01-15T09:11:16.000Z</time>
      </trkpt>
      <trkpt lat="43.89429" lon="7.44684">
        <ele>683.59997558594</ele>
        <time>2022-01-15T09:11:18.000Z</time>
      </trkpt>
      <trkpt lat="43.89427" lon="7.44689">
        <ele>683.79998779297</ele>
        <time>2022-01-15T09:11:24.000Z</time>
      </trkpt>
      <trkpt lat="43.89421" lon="7.44696">
        <ele>684.40002441406</ele>
        <time>2022-01-15T09:11:29.000Z</time>
      </trkpt>
      <trkpt lat="43.89419" lon="7.44698">
        <ele>684.59997558594</ele>
        <time>2022-01-15T09:11:30.000Z</time>
      </trkpt>
      <trkpt lat="43.89418" lon="7.44701">
        <ele>685</ele>
        <time>2022-01-15T09:11:32.000Z</time>
      </trkpt>
      <trkpt lat="43.8942" lon="7.44703">
        <ele>685.59997558594</ele>
        <time>2022-01-15T09:11:35.000Z</time>
      </trkpt>
      <trkpt lat="43.89427" lon="7.44696">
        <ele>686.79998779297</ele>
        <time>2022-01-15T09:11:40.000Z</time>
      </trkpt>
      <trkpt lat="43.89428" lon="7.44694">
        <ele>687</ele>
        <time>2022-01-15T09:11:41.000Z</time>
      </trkpt>
      <trkpt lat="43.89434" lon="7.44688">
        <ele>688</ele>
        <time>2022-01-15T09:11:45.000Z</time>
      </trkpt>
      <trkpt lat="43.89437" lon="7.44686">
        <ele>688.40002441406</ele>
        <time>2022-01-15T09:11:47.000Z</time>
      </trkpt>
      <trkpt lat="43.8944" lon="7.44685">
        <ele>689</ele>
        <time>2022-01-15T09:11:49.000Z</time>
      </trkpt>
      <trkpt lat="43.89443" lon="7.44684">
        <ele>689.40002441406</ele>
        <time>2022-01-15T09:11:51.000Z</time>
      </trkpt>
      <trkpt lat="43.89444" lon="7.44683">
        <ele>689.79998779297</ele>
        <time>2022-01-15T09:11:52.000Z</time>
      </trkpt>
      <trkpt lat="43.89446" lon="7.44679">
        <ele>690</ele>
        <time>2022-01-15T09:11:54.000Z</time>
      </trkpt>
      <trkpt lat="43.89449" lon="7.44671">
        <ele>690.59997558594</ele>
        <time>2022-01-15T09:11:58.000Z</time>
      </trkpt>
      <trkpt lat="43.8945" lon="7.44667">
        <ele>691.40002441406</ele>
        <time>2022-01-15T09:12:00.000Z</time>
      </trkpt>
      <trkpt lat="43.89454" lon="7.44658">
        <ele>692.40002441406</ele>
        <time>2022-01-15T09:12:05.000Z</time>
      </trkpt>
      <trkpt lat="43.89459" lon="7.44648">
        <ele>693.40002441406</ele>
        <time>2022-01-15T09:12:10.000Z</time>
      </trkpt>
      <trkpt lat="43.8946" lon="7.44644">
        <ele>694</ele>
        <time>2022-01-15T09:12:12.000Z</time>
      </trkpt>
      <trkpt lat="43.89462" lon="7.44639">
        <ele>694.40002441406</ele>
        <time>2022-01-15T09:12:15.000Z</time>
      </trkpt>
      <trkpt lat="43.89464" lon="7.44634">
        <ele>695.20001220703</ele>
        <time>2022-01-15T09:12:18.000Z</time>
      </trkpt>
      <trkpt lat="43.89466" lon="7.44631">
        <ele>695.59997558594</ele>
        <time>2022-01-15T09:12:20.000Z</time>
      </trkpt>
      <trkpt lat="43.89468" lon="7.44624">
        <ele>696.59997558594</ele>
        <time>2022-01-15T09:12:24.000Z</time>
      </trkpt>
      <trkpt lat="43.89475" lon="7.44614">
        <ele>697.79998779297</ele>
        <time>2022-01-15T09:12:30.000Z</time>
      </trkpt>
      <trkpt lat="43.89482" lon="7.44607">
        <ele>698.40002441406</ele>
        <time>2022-01-15T09:12:35.000Z</time>
      </trkpt>
      <trkpt lat="43.89485" lon="7.44607">
        <ele>698.79998779297</ele>
        <time>2022-01-15T09:12:37.000Z</time>
      </trkpt>
      <trkpt lat="43.89489" lon="7.44607">
        <ele>700</ele>
        <time>2022-01-15T09:12:40.000Z</time>
      </trkpt>
      <trkpt lat="43.89496" lon="7.44608">
        <ele>701</ele>
        <time>2022-01-15T09:12:45.000Z</time>
      </trkpt>
      <trkpt lat="43.89499" lon="7.44608">
        <ele>701.20001220703</ele>
        <time>2022-01-15T09:12:47.000Z</time>
      </trkpt>
      <trkpt lat="43.89503" lon="7.44606">
        <ele>702</ele>
        <time>2022-01-15T09:12:50.000Z</time>
      </trkpt>
      <trkpt lat="43.89506" lon="7.44604">
        <ele>702.40002441406</ele>
        <time>2022-01-15T09:12:52.000Z</time>
      </trkpt>
      <trkpt lat="43.89511" lon="7.44601">
        <ele>703.20001220703</ele>
        <time>2022-01-15T09:12:56.000Z</time>
      </trkpt>
      <trkpt lat="43.89516" lon="7.44599">
        <ele>704</ele>
        <time>2022-01-15T09:12:59.000Z</time>
      </trkpt>
      <trkpt lat="43.89519" lon="7.44597">
        <ele>704.40002441406</ele>
        <time>2022-01-15T09:13:01.000Z</time>
      </trkpt>
      <trkpt lat="43.89525" lon="7.44596">
        <ele>705.20001220703</ele>
        <time>2022-01-15T09:13:05.000Z</time>
      </trkpt>
      <trkpt lat="43.89527" lon="7.44597">
        <ele>705.40002441406</ele>
        <time>2022-01-15T09:13:06.000Z</time>
      </trkpt>
      <trkpt lat="43.89528" lon="7.44597">
        <ele>705.59997558594</ele>
        <time>2022-01-15T09:13:07.000Z</time>
      </trkpt>
      <trkpt lat="43.89533" lon="7.44602">
        <ele>706.79998779297</ele>
        <time>2022-01-15T09:13:11.000Z</time>
      </trkpt>
      <trkpt lat="43.89534" lon="7.44603">
        <ele>707</ele>
        <time>2022-01-15T09:13:12.000Z</time>
      </trkpt>
      <trkpt lat="43.89543" lon="7.44606">
        <ele>707.79998779297</ele>
        <time>2022-01-15T09:13:18.000Z</time>
      </trkpt>
      <trkpt lat="43.89549" lon="7.44603">
        <ele>709</ele>
        <time>2022-01-15T09:13:22.000Z</time>
      </trkpt>
      <trkpt lat="43.89552" lon="7.44602">
        <ele>709.59997558594</ele>
        <time>2022-01-15T09:13:24.000Z</time>
      </trkpt>
      <trkpt lat="43.89557" lon="7.446">
        <ele>710.20001220703</ele>
        <time>2022-01-15T09:13:27.000Z</time>
      </trkpt>
      <trkpt lat="43.89561" lon="7.44597">
        <ele>710.79998779297</ele>
        <time>2022-01-15T09:13:29.000Z</time>
      </trkpt>
      <trkpt lat="43.89563" lon="7.44596">
        <ele>711.20001220703</ele>
        <time>2022-01-15T09:13:30.000Z</time>
      </trkpt>
      <trkpt lat="43.89563" lon="7.44596">
        <ele>712.59997558594</ele>
        <time>2022-01-15T09:13:33.000Z</time>
      </trkpt>
      <trkpt lat="43.89565" lon="7.44594">
        <ele>713.40002441406</ele>
        <time>2022-01-15T09:13:37.000Z</time>
      </trkpt>
      <trkpt lat="43.89572" lon="7.44586">
        <ele>713.79998779297</ele>
        <time>2022-01-15T09:13:43.000Z</time>
      </trkpt>
      <trkpt lat="43.89581" lon="7.4457">
        <ele>714.79998779297</ele>
        <time>2022-01-15T09:13:51.000Z</time>
      </trkpt>
      <trkpt lat="43.89582" lon="7.44568">
        <ele>714.79998779297</ele>
        <time>2022-01-15T09:13:52.000Z</time>
      </trkpt>
      <trkpt lat="43.89585" lon="7.4456">
        <ele>715.59997558594</ele>
        <time>2022-01-15T09:13:56.000Z</time>
      </trkpt>
      <trkpt lat="43.89586" lon="7.44558">
        <ele>716</ele>
        <time>2022-01-15T09:13:57.000Z</time>
      </trkpt>
      <trkpt lat="43.8959" lon="7.44547">
        <ele>717</ele>
        <time>2022-01-15T09:14:02.000Z</time>
      </trkpt>
      <trkpt lat="43.89592" lon="7.44543">
        <ele>717.40002441406</ele>
        <time>2022-01-15T09:14:04.000Z</time>
      </trkpt>
      <trkpt lat="43.89597" lon="7.44537">
        <ele>718.20001220703</ele>
        <time>2022-01-15T09:14:08.000Z</time>
      </trkpt>
      <trkpt lat="43.896" lon="7.44531">
        <ele>718.59997558594</ele>
        <time>2022-01-15T09:14:11.000Z</time>
      </trkpt>
      <trkpt lat="43.89603" lon="7.44527">
        <ele>719.20001220703</ele>
        <time>2022-01-15T09:14:14.000Z</time>
      </trkpt>
      <trkpt lat="43.89607" lon="7.44521">
        <ele>720</ele>
        <time>2022-01-15T09:14:17.000Z</time>
      </trkpt>
      <trkpt lat="43.89607" lon="7.44519">
        <ele>720.20001220703</ele>
        <time>2022-01-15T09:14:18.000Z</time>
      </trkpt>
      <trkpt lat="43.89612" lon="7.44509">
        <ele>721.59997558594</ele>
        <time>2022-01-15T09:14:23.000Z</time>
      </trkpt>
      <trkpt lat="43.89613" lon="7.44508">
        <ele>721.59997558594</ele>
        <time>2022-01-15T09:14:24.000Z</time>
      </trkpt>
      <trkpt lat="43.89614" lon="7.44506">
        <ele>721.79998779297</ele>
        <time>2022-01-15T09:14:25.000Z</time>
      </trkpt>
      <trkpt lat="43.89617" lon="7.44511">
        <ele>722.59997558594</ele>
        <time>2022-01-15T09:14:28.000Z</time>
      </trkpt>
      <trkpt lat="43.89613" lon="7.44518">
        <ele>723.59997558594</ele>
        <time>2022-01-15T09:14:32.000Z</time>
      </trkpt>
      <trkpt lat="43.89612" lon="7.4452">
        <ele>723.79998779297</ele>
        <time>2022-01-15T09:14:33.000Z</time>
      </trkpt>
      <trkpt lat="43.8961" lon="7.44529">
        <ele>724.79998779297</ele>
        <time>2022-01-15T09:14:38.000Z</time>
      </trkpt>
      <trkpt lat="43.8961" lon="7.44531">
        <ele>725</ele>
        <time>2022-01-15T09:14:39.000Z</time>
      </trkpt>
      <trkpt lat="43.89609" lon="7.4454">
        <ele>725.79998779297</ele>
        <time>2022-01-15T09:14:44.000Z</time>
      </trkpt>
      <trkpt lat="43.89608" lon="7.44542">
        <ele>726</ele>
        <time>2022-01-15T09:14:45.000Z</time>
      </trkpt>
      <trkpt lat="43.89607" lon="7.4455">
        <ele>726.79998779297</ele>
        <time>2022-01-15T09:14:49.000Z</time>
      </trkpt>
      <trkpt lat="43.89605" lon="7.44555">
        <ele>727.59997558594</ele>
        <time>2022-01-15T09:14:52.000Z</time>
      </trkpt>
      <trkpt lat="43.89604" lon="7.44558">
        <ele>728</ele>
        <time>2022-01-15T09:14:54.000Z</time>
      </trkpt>
      <trkpt lat="43.89603" lon="7.44568">
        <ele>729</ele>
        <time>2022-01-15T09:14:59.000Z</time>
      </trkpt>
      <trkpt lat="43.896" lon="7.44578">
        <ele>730</ele>
        <time>2022-01-15T09:15:04.000Z</time>
      </trkpt>
      <trkpt lat="43.89599" lon="7.4458">
        <ele>730.40002441406</ele>
        <time>2022-01-15T09:15:05.000Z</time>
      </trkpt>
      <trkpt lat="43.89597" lon="7.44586">
        <ele>731.20001220703</ele>
        <time>2022-01-15T09:15:08.000Z</time>
      </trkpt>
      <trkpt lat="43.89594" lon="7.44591">
        <ele>731.40002441406</ele>
        <time>2022-01-15T09:15:11.000Z</time>
      </trkpt>
      <trkpt lat="43.89593" lon="7.44593">
        <ele>731.59997558594</ele>
        <time>2022-01-15T09:15:12.000Z</time>
      </trkpt>
      <trkpt lat="43.89588" lon="7.446">
        <ele>732.20001220703</ele>
        <time>2022-01-15T09:15:16.000Z</time>
      </trkpt>
      <trkpt lat="43.89587" lon="7.44603">
        <ele>733</ele>
        <time>2022-01-15T09:15:18.000Z</time>
      </trkpt>
      <trkpt lat="43.89587" lon="7.44604">
        <ele>733.40002441406</ele>
        <time>2022-01-15T09:15:19.000Z</time>
      </trkpt>
      <trkpt lat="43.89589" lon="7.44606">
        <ele>733.40002441406</ele>
        <time>2022-01-15T09:15:21.000Z</time>
      </trkpt>
      <trkpt lat="43.89594" lon="7.44599">
        <ele>733.79998779297</ele>
        <time>2022-01-15T09:15:25.000Z</time>
      </trkpt>
      <trkpt lat="43.896" lon="7.44594">
        <ele>734.59997558594</ele>
        <time>2022-01-15T09:15:29.000Z</time>
      </trkpt>
      <trkpt lat="43.89603" lon="7.4459">
        <ele>735.40002441406</ele>
        <time>2022-01-15T09:15:32.000Z</time>
      </trkpt>
      <trkpt lat="43.89604" lon="7.44588">
        <ele>735.59997558594</ele>
        <time>2022-01-15T09:15:33.000Z</time>
      </trkpt>
      <trkpt lat="43.89607" lon="7.44581">
        <ele>736.59997558594</ele>
        <time>2022-01-15T09:15:37.000Z</time>
      </trkpt>
      <trkpt lat="43.89609" lon="7.44577">
        <ele>737</ele>
        <time>2022-01-15T09:15:39.000Z</time>
      </trkpt>
      <trkpt lat="43.89612" lon="7.4457">
        <ele>737.79998779297</ele>
        <time>2022-01-15T09:15:43.000Z</time>
      </trkpt>
      <trkpt lat="43.89615" lon="7.44564">
        <ele>738.40002441406</ele>
        <time>2022-01-15T09:15:46.000Z</time>
      </trkpt>
      <trkpt lat="43.89616" lon="7.44561">
        <ele>738.79998779297</ele>
        <time>2022-01-15T09:15:48.000Z</time>
      </trkpt>
      <trkpt lat="43.8962" lon="7.44553">
        <ele>739.79998779297</ele>
        <time>2022-01-15T09:15:53.000Z</time>
      </trkpt>
      <trkpt lat="43.89621" lon="7.44551">
        <ele>740</ele>
        <time>2022-01-15T09:15:54.000Z</time>
      </trkpt>
      <trkpt lat="43.89627" lon="7.44544">
        <ele>741</ele>
        <time>2022-01-15T09:15:59.000Z</time>
      </trkpt>
      <trkpt lat="43.89628" lon="7.44543">
        <ele>741.20001220703</ele>
        <time>2022-01-15T09:16:00.000Z</time>
      </trkpt>
      <trkpt lat="43.89632" lon="7.44537">
        <ele>742.20001220703</ele>
        <time>2022-01-15T09:16:04.000Z</time>
      </trkpt>
      <trkpt lat="43.89637" lon="7.4453">
        <ele>743.20001220703</ele>
        <time>2022-01-15T09:16:09.000Z</time>
      </trkpt>
      <trkpt lat="43.89644" lon="7.44521">
        <ele>744.40002441406</ele>
        <time>2022-01-15T09:16:15.000Z</time>
      </trkpt>
      <trkpt lat="43.89647" lon="7.44517">
        <ele>745</ele>
        <time>2022-01-15T09:16:18.000Z</time>
      </trkpt>
      <trkpt lat="43.89649" lon="7.44515">
        <ele>745.59997558594</ele>
        <time>2022-01-15T09:16:20.000Z</time>
      </trkpt>
      <trkpt lat="43.89653" lon="7.44509">
        <ele>746.20001220703</ele>
        <time>2022-01-15T09:16:24.000Z</time>
      </trkpt>
      <trkpt lat="43.89655" lon="7.44506">
        <ele>746.59997558594</ele>
        <time>2022-01-15T09:16:26.000Z</time>
      </trkpt>
      <trkpt lat="43.89661" lon="7.44498">
        <ele>747.79998779297</ele>
        <time>2022-01-15T09:16:32.000Z</time>
      </trkpt>
      <trkpt lat="43.89667" lon="7.44491">
        <ele>748.79998779297</ele>
        <time>2022-01-15T09:16:37.000Z</time>
      </trkpt>
      <trkpt lat="43.89669" lon="7.44489">
        <ele>749.20001220703</ele>
        <time>2022-01-15T09:16:39.000Z</time>
      </trkpt>
      <trkpt lat="43.89673" lon="7.44485">
        <ele>749.79998779297</ele>
        <time>2022-01-15T09:16:42.000Z</time>
      </trkpt>
      <trkpt lat="43.89678" lon="7.4448">
        <ele>750.40002441406</ele>
        <time>2022-01-15T09:16:46.000Z</time>
      </trkpt>
      <trkpt lat="43.89682" lon="7.44476">
        <ele>750.79998779297</ele>
        <time>2022-01-15T09:16:49.000Z</time>
      </trkpt>
      <trkpt lat="43.89689" lon="7.4447">
        <ele>752.20001220703</ele>
        <time>2022-01-15T09:16:54.000Z</time>
      </trkpt>
      <trkpt lat="43.89696" lon="7.44466">
        <ele>753.20001220703</ele>
        <time>2022-01-15T09:16:59.000Z</time>
      </trkpt>
      <trkpt lat="43.89697" lon="7.44466">
        <ele>753.40002441406</ele>
        <time>2022-01-15T09:17:00.000Z</time>
      </trkpt>
      <trkpt lat="43.89704" lon="7.44464">
        <ele>754.20001220703</ele>
        <time>2022-01-15T09:17:05.000Z</time>
      </trkpt>
      <trkpt lat="43.89707" lon="7.44462">
        <ele>754.79998779297</ele>
        <time>2022-01-15T09:17:07.000Z</time>
      </trkpt>
      <trkpt lat="43.89711" lon="7.4446">
        <ele>755.40002441406</ele>
        <time>2022-01-15T09:17:10.000Z</time>
      </trkpt>
      <trkpt lat="43.89715" lon="7.44458">
        <ele>756</ele>
        <time>2022-01-15T09:17:13.000Z</time>
      </trkpt>
      <trkpt lat="43.89717" lon="7.44456">
        <ele>756.40002441406</ele>
        <time>2022-01-15T09:17:15.000Z</time>
      </trkpt>
      <trkpt lat="43.89725" lon="7.44452">
        <ele>757.40002441406</ele>
        <time>2022-01-15T09:17:21.000Z</time>
      </trkpt>
      <trkpt lat="43.89727" lon="7.44451">
        <ele>757.59997558594</ele>
        <time>2022-01-15T09:17:22.000Z</time>
      </trkpt>
      <trkpt lat="43.89734" lon="7.44448">
        <ele>758.59997558594</ele>
        <time>2022-01-15T09:17:27.000Z</time>
      </trkpt>
      <trkpt lat="43.89735" lon="7.44448">
        <ele>758.79998779297</ele>
        <time>2022-01-15T09:17:28.000Z</time>
      </trkpt>
      <trkpt lat="43.89742" lon="7.44446">
        <ele>759.79998779297</ele>
        <time>2022-01-15T09:17:33.000Z</time>
      </trkpt>
      <trkpt lat="43.89744" lon="7.44446">
        <ele>760</ele>
        <time>2022-01-15T09:17:34.000Z</time>
      </trkpt>
      <trkpt lat="43.8975" lon="7.44443">
        <ele>761.20001220703</ele>
        <time>2022-01-15T09:17:39.000Z</time>
      </trkpt>
      <trkpt lat="43.89751" lon="7.44442">
        <ele>761.40002441406</ele>
        <time>2022-01-15T09:17:40.000Z</time>
      </trkpt>
      <trkpt lat="43.89759" lon="7.44442">
        <ele>762.20001220703</ele>
        <time>2022-01-15T09:17:45.000Z</time>
      </trkpt>
      <trkpt lat="43.89761" lon="7.44441">
        <ele>762.40002441406</ele>
        <time>2022-01-15T09:17:47.000Z</time>
      </trkpt>
      <trkpt lat="43.89762" lon="7.4444">
        <ele>762.59997558594</ele>
        <time>2022-01-15T09:17:48.000Z</time>
      </trkpt>
      <trkpt lat="43.89766" lon="7.44436">
        <ele>763.40002441406</ele>
        <time>2022-01-15T09:17:51.000Z</time>
      </trkpt>
      <trkpt lat="43.89766" lon="7.44435">
        <ele>763.79998779297</ele>
        <time>2022-01-15T09:17:52.000Z</time>
      </trkpt>
      <trkpt lat="43.89768" lon="7.44433">
        <ele>764.40002441406</ele>
        <time>2022-01-15T09:17:54.000Z</time>
      </trkpt>
      <trkpt lat="43.89769" lon="7.44432">
        <ele>764.59997558594</ele>
        <time>2022-01-15T09:17:55.000Z</time>
      </trkpt>
      <trkpt lat="43.89769" lon="7.44431">
        <ele>764.79998779297</ele>
        <time>2022-01-15T09:17:59.000Z</time>
      </trkpt>
      <trkpt lat="43.89771" lon="7.44429">
        <ele>764.59997558594</ele>
        <time>2022-01-15T09:18:26.000Z</time>
      </trkpt>
      <trkpt lat="43.89772" lon="7.44428">
        <ele>764.40002441406</ele>
        <time>2022-01-15T09:18:46.000Z</time>
      </trkpt>
      <trkpt lat="43.89773" lon="7.44427">
        <ele>764.40002441406</ele>
        <time>2022-01-15T09:18:56.000Z</time>
      </trkpt>
      <trkpt lat="43.89773" lon="7.44427">
        <ele>764.40002441406</ele>
        <time>2022-01-15T09:19:03.000Z</time>
      </trkpt>
      <trkpt lat="43.89773" lon="7.44428">
        <ele>764.40002441406</ele>
        <time>2022-01-15T09:19:11.000Z</time>
      </trkpt>
      <trkpt lat="43.89773" lon="7.44425">
        <ele>764.40002441406</ele>
        <time>2022-01-15T09:19:18.000Z</time>
      </trkpt>
      <trkpt lat="43.89774" lon="7.44425">
        <ele>764.20001220703</ele>
        <time>2022-01-15T09:19:27.000Z</time>
      </trkpt>
      <trkpt lat="43.89774" lon="7.44425">
        <ele>764.20001220703</ele>
        <time>2022-01-15T09:19:35.000Z</time>
      </trkpt>
      <trkpt lat="43.89774" lon="7.44425">
        <ele>764</ele>
        <time>2022-01-15T09:19:53.000Z</time>
      </trkpt>
      <trkpt lat="43.89774" lon="7.44425">
        <ele>764</ele>
        <time>2022-01-15T09:20:13.000Z</time>
      </trkpt>
      <trkpt lat="43.89773" lon="7.44425">
        <ele>764</ele>
        <time>2022-01-15T09:20:34.000Z</time>
      </trkpt>
      <trkpt lat="43.89773" lon="7.44425">
        <ele>764.20001220703</ele>
        <time>2022-01-15T09:20:48.000Z</time>
      </trkpt>
      <trkpt lat="43.89771" lon="7.44423">
        <ele>764.20001220703</ele>
        <time>2022-01-15T09:21:08.000Z</time>
      </trkpt>
      <trkpt lat="43.89771" lon="7.44423">
        <ele>764.40002441406</ele>
        <time>2022-01-15T09:21:21.000Z</time>
      </trkpt>
      <trkpt lat="43.89772" lon="7.44424">
        <ele>764.59997558594</ele>
        <time>2022-01-15T09:21:38.000Z</time>
      </trkpt>
      <trkpt lat="43.89773" lon="7.44424">
        <ele>764.40002441406</ele>
        <time>2022-01-15T09:21:51.000Z</time>
      </trkpt>
      <trkpt lat="43.89773" lon="7.44423">
        <ele>764.40002441406</ele>
        <time>2022-01-15T09:22:14.000Z</time>
      </trkpt>
      <trkpt lat="43.89774" lon="7.44425">
        <ele>764.59997558594</ele>
        <time>2022-01-15T09:22:19.000Z</time>
      </trkpt>
      <trkpt lat="43.89771" lon="7.44427">
        <ele>764.40002441406</ele>
        <time>2022-01-15T09:22:25.000Z</time>
      </trkpt>
      <trkpt lat="43.89763" lon="7.44435">
        <ele>764.40002441406</ele>
        <time>2022-01-15T09:22:29.000Z</time>
      </trkpt>
      <trkpt lat="43.89759" lon="7.44444">
        <ele>763.40002441406</ele>
        <time>2022-01-15T09:22:31.000Z</time>
      </trkpt>
      <trkpt lat="43.89755" lon="7.44451">
        <ele>761.79998779297</ele>
        <time>2022-01-15T09:22:34.000Z</time>
      </trkpt>
      <trkpt lat="43.89749" lon="7.44458">
        <ele>762.40002441406</ele>
        <time>2022-01-15T09:22:39.000Z</time>
      </trkpt>
      <trkpt lat="43.89747" lon="7.44461">
        <ele>763.20001220703</ele>
        <time>2022-01-15T09:22:41.000Z</time>
      </trkpt>
      <trkpt lat="43.89745" lon="7.44467">
        <ele>764.20001220703</ele>
        <time>2022-01-15T09:22:44.000Z</time>
      </trkpt>
      <trkpt lat="43.89744" lon="7.44471">
        <ele>765</ele>
        <time>2022-01-15T09:22:46.000Z</time>
      </trkpt>
      <trkpt lat="43.89743" lon="7.44473">
        <ele>765.40002441406</ele>
        <time>2022-01-15T09:22:47.000Z</time>
      </trkpt>
      <trkpt lat="43.89741" lon="7.44477">
        <ele>765.79998779297</ele>
        <time>2022-01-15T09:22:50.000Z</time>
      </trkpt>
      <trkpt lat="43.8974" lon="7.44487">
        <ele>766.20001220703</ele>
        <time>2022-01-15T09:22:54.000Z</time>
      </trkpt>
      <trkpt lat="43.89737" lon="7.445">
        <ele>766.20001220703</ele>
        <time>2022-01-15T09:22:58.000Z</time>
      </trkpt>
      <trkpt lat="43.89734" lon="7.44508">
        <ele>766.79998779297</ele>
        <time>2022-01-15T09:23:01.000Z</time>
      </trkpt>
      <trkpt lat="43.89732" lon="7.44513">
        <ele>767.59997558594</ele>
        <time>2022-01-15T09:23:03.000Z</time>
      </trkpt>
      <trkpt lat="43.89732" lon="7.44516">
        <ele>768.20001220703</ele>
        <time>2022-01-15T09:23:04.000Z</time>
      </trkpt>
      <trkpt lat="43.89727" lon="7.44522">
        <ele>769.20001220703</ele>
        <time>2022-01-15T09:23:07.000Z</time>
      </trkpt>
      <trkpt lat="43.89726" lon="7.44525">
        <ele>769.59997558594</ele>
        <time>2022-01-15T09:23:08.000Z</time>
      </trkpt>
      <trkpt lat="43.89725" lon="7.44529">
        <ele>770.59997558594</ele>
        <time>2022-01-15T09:23:10.000Z</time>
      </trkpt>
      <trkpt lat="43.89721" lon="7.44538">
        <ele>771.59997558594</ele>
        <time>2022-01-15T09:23:14.000Z</time>
      </trkpt>
      <trkpt lat="43.8972" lon="7.44541">
        <ele>772</ele>
        <time>2022-01-15T09:23:15.000Z</time>
      </trkpt>
      <trkpt lat="43.89717" lon="7.44552">
        <ele>772.59997558594</ele>
        <time>2022-01-15T09:23:20.000Z</time>
      </trkpt>
      <trkpt lat="43.89717" lon="7.44555">
        <ele>772.79998779297</ele>
        <time>2022-01-15T09:23:21.000Z</time>
      </trkpt>
      <trkpt lat="43.89712" lon="7.44565">
        <ele>773.59997558594</ele>
        <time>2022-01-15T09:23:26.000Z</time>
      </trkpt>
      <trkpt lat="43.8971" lon="7.4457">
        <ele>774</ele>
        <time>2022-01-15T09:23:28.000Z</time>
      </trkpt>
      <trkpt lat="43.89708" lon="7.44578">
        <ele>775.20001220703</ele>
        <time>2022-01-15T09:23:32.000Z</time>
      </trkpt>
      <trkpt lat="43.89704" lon="7.44592">
        <ele>775.59997558594</ele>
        <time>2022-01-15T09:23:37.000Z</time>
      </trkpt>
      <trkpt lat="43.897" lon="7.44607">
        <ele>776.40002441406</ele>
        <time>2022-01-15T09:23:42.000Z</time>
      </trkpt>
      <trkpt lat="43.897" lon="7.44609">
        <ele>776.79998779297</ele>
        <time>2022-01-15T09:23:43.000Z</time>
      </trkpt>
      <trkpt lat="43.89693" lon="7.44625">
        <ele>777.20001220703</ele>
        <time>2022-01-15T09:23:49.000Z</time>
      </trkpt>
      <trkpt lat="43.89689" lon="7.44632">
        <ele>777.40002441406</ele>
        <time>2022-01-15T09:23:52.000Z</time>
      </trkpt>
      <trkpt lat="43.89684" lon="7.44638">
        <ele>777.79998779297</ele>
        <time>2022-01-15T09:23:55.000Z</time>
      </trkpt>
      <trkpt lat="43.89677" lon="7.44644">
        <ele>778.59997558594</ele>
        <time>2022-01-15T09:23:59.000Z</time>
      </trkpt>
      <trkpt lat="43.89674" lon="7.44647">
        <ele>779.59997558594</ele>
        <time>2022-01-15T09:24:01.000Z</time>
      </trkpt>
      <trkpt lat="43.89671" lon="7.44654">
        <ele>780.79998779297</ele>
        <time>2022-01-15T09:24:04.000Z</time>
      </trkpt>
      <trkpt lat="43.89667" lon="7.44666">
        <ele>781.40002441406</ele>
        <time>2022-01-15T09:24:09.000Z</time>
      </trkpt>
      <trkpt lat="43.89662" lon="7.44671">
        <ele>781.59997558594</ele>
        <time>2022-01-15T09:24:12.000Z</time>
      </trkpt>
      <trkpt lat="43.8966" lon="7.4467">
        <ele>781.79998779297</ele>
        <time>2022-01-15T09:24:14.000Z</time>
      </trkpt>
      <trkpt lat="43.8966" lon="7.4467">
        <ele>782</ele>
        <time>2022-01-15T09:24:15.000Z</time>
      </trkpt>
      <trkpt lat="43.89658" lon="7.4467">
        <ele>783</ele>
        <time>2022-01-15T09:24:19.000Z</time>
      </trkpt>
      <trkpt lat="43.89657" lon="7.44671">
        <ele>782.79998779297</ele>
        <time>2022-01-15T09:24:20.000Z</time>
      </trkpt>
      <trkpt lat="43.89655" lon="7.44672">
        <ele>783</ele>
        <time>2022-01-15T09:24:21.000Z</time>
      </trkpt>
      <trkpt lat="43.89646" lon="7.44674">
        <ele>782.59997558594</ele>
        <time>2022-01-15T09:24:26.000Z</time>
      </trkpt>
      <trkpt lat="43.89632" lon="7.44682">
        <ele>782.20001220703</ele>
        <time>2022-01-15T09:24:30.000Z</time>
      </trkpt>
      <trkpt lat="43.89629" lon="7.44686">
        <ele>782</ele>
        <time>2022-01-15T09:24:31.000Z</time>
      </trkpt>
      <trkpt lat="43.8962" lon="7.44695">
        <ele>780.79998779297</ele>
        <time>2022-01-15T09:24:34.000Z</time>
      </trkpt>
      <trkpt lat="43.89617" lon="7.44697">
        <ele>780.59997558594</ele>
        <time>2022-01-15T09:24:35.000Z</time>
      </trkpt>
      <trkpt lat="43.89606" lon="7.44707">
        <ele>780.79998779297</ele>
        <time>2022-01-15T09:24:40.000Z</time>
      </trkpt>
      <trkpt lat="43.89593" lon="7.44718">
        <ele>782</ele>
        <time>2022-01-15T09:24:45.000Z</time>
      </trkpt>
      <trkpt lat="43.89585" lon="7.44726">
        <ele>783.20001220703</ele>
        <time>2022-01-15T09:24:49.000Z</time>
      </trkpt>
      <trkpt lat="43.89575" lon="7.44731">
        <ele>784.20001220703</ele>
        <time>2022-01-15T09:24:53.000Z</time>
      </trkpt>
      <trkpt lat="43.8957" lon="7.44734">
        <ele>785</ele>
        <time>2022-01-15T09:24:56.000Z</time>
      </trkpt>
      <trkpt lat="43.89568" lon="7.44734">
        <ele>785.40002441406</ele>
        <time>2022-01-15T09:24:57.000Z</time>
      </trkpt>
      <trkpt lat="43.89568" lon="7.44735">
        <ele>786</ele>
        <time>2022-01-15T09:25:00.000Z</time>
      </trkpt>
      <trkpt lat="43.89567" lon="7.44736">
        <ele>786</ele>
        <time>2022-01-15T09:25:12.000Z</time>
      </trkpt>
      <trkpt lat="43.89567" lon="7.44737">
        <ele>786</ele>
        <time>2022-01-15T09:25:35.000Z</time>
      </trkpt>
      <trkpt lat="43.89566" lon="7.44738">
        <ele>786</ele>
        <time>2022-01-15T09:25:53.000Z</time>
      </trkpt>
      <trkpt lat="43.89566" lon="7.44739">
        <ele>786.20001220703</ele>
        <time>2022-01-15T09:26:13.000Z</time>
      </trkpt>
      <trkpt lat="43.89565" lon="7.44739">
        <ele>786.40002441406</ele>
        <time>2022-01-15T09:26:34.000Z</time>
      </trkpt>
      <trkpt lat="43.89565" lon="7.44739">
        <ele>786.20001220703</ele>
        <time>2022-01-15T09:26:48.000Z</time>
      </trkpt>
      <trkpt lat="43.89566" lon="7.44739">
        <ele>786.40002441406</ele>
        <time>2022-01-15T09:27:10.000Z</time>
      </trkpt>
      <trkpt lat="43.89566" lon="7.44739">
        <ele>786.40002441406</ele>
        <time>2022-01-15T09:27:11.000Z</time>
      </trkpt>
      <trkpt lat="43.89566" lon="7.44738">
        <ele>786.59997558594</ele>
        <time>2022-01-15T09:27:29.000Z</time>
      </trkpt>
      <trkpt lat="43.89567" lon="7.44738">
        <ele>786.79998779297</ele>
        <time>2022-01-15T09:27:47.000Z</time>
      </trkpt>
      <trkpt lat="43.89567" lon="7.44739">
        <ele>786.59997558594</ele>
        <time>2022-01-15T09:28:02.000Z</time>
      </trkpt>
      <trkpt lat="43.89566" lon="7.44739">
        <ele>786.59997558594</ele>
        <time>2022-01-15T09:28:14.000Z</time>
      </trkpt>
      <trkpt lat="43.89567" lon="7.44739">
        <ele>786.79998779297</ele>
        <time>2022-01-15T09:28:35.000Z</time>
      </trkpt>
      <trkpt lat="43.89568" lon="7.44741">
        <ele>787</ele>
        <time>2022-01-15T09:29:00.000Z</time>
      </trkpt>
      <trkpt lat="43.89566" lon="7.44742">
        <ele>786.79998779297</ele>
        <time>2022-01-15T09:29:08.000Z</time>
      </trkpt>
      <trkpt lat="43.89566" lon="7.44741">
        <ele>786.79998779297</ele>
        <time>2022-01-15T09:29:10.000Z</time>
      </trkpt>
      <trkpt lat="43.89563" lon="7.44738">
        <ele>786.59997558594</ele>
        <time>2022-01-15T09:29:19.000Z</time>
      </trkpt>
      <trkpt lat="43.89554" lon="7.44739">
        <ele>785.40002441406</ele>
        <time>2022-01-15T09:29:23.000Z</time>
      </trkpt>
      <trkpt lat="43.89551" lon="7.4474">
        <ele>785</ele>
        <time>2022-01-15T09:29:24.000Z</time>
      </trkpt>
      <trkpt lat="43.8954" lon="7.44746">
        <ele>783.79998779297</ele>
        <time>2022-01-15T09:29:27.000Z</time>
      </trkpt>
      <trkpt lat="43.89537" lon="7.44748">
        <ele>783.59997558594</ele>
        <time>2022-01-15T09:29:28.000Z</time>
      </trkpt>
      <trkpt lat="43.89524" lon="7.4476">
        <ele>783.20001220703</ele>
        <time>2022-01-15T09:29:32.000Z</time>
      </trkpt>
      <trkpt lat="43.89511" lon="7.44773">
        <ele>782.59997558594</ele>
        <time>2022-01-15T09:29:36.000Z</time>
      </trkpt>
      <trkpt lat="43.89509" lon="7.44774">
        <ele>781.79998779297</ele>
        <time>2022-01-15T09:29:37.000Z</time>
      </trkpt>
      <trkpt lat="43.89508" lon="7.44775">
        <ele>781</ele>
        <time>2022-01-15T09:29:38.000Z</time>
      </trkpt>
      <trkpt lat="43.89506" lon="7.44778">
        <ele>779.79998779297</ele>
        <time>2022-01-15T09:29:39.000Z</time>
      </trkpt>
      <trkpt lat="43.89504" lon="7.44787">
        <ele>778</ele>
        <time>2022-01-15T09:29:41.000Z</time>
      </trkpt>
      <trkpt lat="43.89501" lon="7.44791">
        <ele>777.40002441406</ele>
        <time>2022-01-15T09:29:42.000Z</time>
      </trkpt>
      <trkpt lat="43.89491" lon="7.44804">
        <ele>777.40002441406</ele>
        <time>2022-01-15T09:29:45.000Z</time>
      </trkpt>
      <trkpt lat="43.89483" lon="7.4481">
        <ele>777</ele>
        <time>2022-01-15T09:29:47.000Z</time>
      </trkpt>
      <trkpt lat="43.89475" lon="7.44814">
        <ele>776.20001220703</ele>
        <time>2022-01-15T09:29:49.000Z</time>
      </trkpt>
      <trkpt lat="43.89471" lon="7.44816">
        <ele>775.40002441406</ele>
        <time>2022-01-15T09:29:50.000Z</time>
      </trkpt>
      <trkpt lat="43.89463" lon="7.44824">
        <ele>774.20001220703</ele>
        <time>2022-01-15T09:29:52.000Z</time>
      </trkpt>
      <trkpt lat="43.89458" lon="7.44826">
        <ele>773.79998779297</ele>
        <time>2022-01-15T09:29:53.000Z</time>
      </trkpt>
      <trkpt lat="43.89454" lon="7.44827">
        <ele>773</ele>
        <time>2022-01-15T09:29:54.000Z</time>
      </trkpt>
      <trkpt lat="43.89451" lon="7.4483">
        <ele>771.59997558594</ele>
        <time>2022-01-15T09:29:55.000Z</time>
      </trkpt>
      <trkpt lat="43.89447" lon="7.44832">
        <ele>770.20001220703</ele>
        <time>2022-01-15T09:29:56.000Z</time>
      </trkpt>
      <trkpt lat="43.89443" lon="7.44832">
        <ele>768.59997558594</ele>
        <time>2022-01-15T09:29:57.000Z</time>
      </trkpt>
      <trkpt lat="43.8944" lon="7.44832">
        <ele>767.40002441406</ele>
        <time>2022-01-15T09:29:58.000Z</time>
      </trkpt>
      <trkpt lat="43.89436" lon="7.44836">
        <ele>766</ele>
        <time>2022-01-15T09:29:59.000Z</time>
      </trkpt>
      <trkpt lat="43.8943" lon="7.44836">
        <ele>764.20001220703</ele>
        <time>2022-01-15T09:30:01.000Z</time>
      </trkpt>
      <trkpt lat="43.89426" lon="7.44836">
        <ele>762.20001220703</ele>
        <time>2022-01-15T09:30:03.000Z</time>
      </trkpt>
      <trkpt lat="43.8942" lon="7.44841">
        <ele>759.79998779297</ele>
        <time>2022-01-15T09:30:05.000Z</time>
      </trkpt>
      <trkpt lat="43.89413" lon="7.4484">
        <ele>758.20001220703</ele>
        <time>2022-01-15T09:30:07.000Z</time>
      </trkpt>
      <trkpt lat="43.89411" lon="7.44835">
        <ele>757.40002441406</ele>
        <time>2022-01-15T09:30:08.000Z</time>
      </trkpt>
      <trkpt lat="43.8941" lon="7.44832">
        <ele>756.79998779297</ele>
        <time>2022-01-15T09:30:09.000Z</time>
      </trkpt>
      <trkpt lat="43.89406" lon="7.44827">
        <ele>755.40002441406</ele>
        <time>2022-01-15T09:30:11.000Z</time>
      </trkpt>
      <trkpt lat="43.89403" lon="7.44825">
        <ele>754.59997558594</ele>
        <time>2022-01-15T09:30:12.000Z</time>
      </trkpt>
      <trkpt lat="43.89399" lon="7.44824">
        <ele>753.59997558594</ele>
        <time>2022-01-15T09:30:13.000Z</time>
      </trkpt>
      <trkpt lat="43.89396" lon="7.44823">
        <ele>752.59997558594</ele>
        <time>2022-01-15T09:30:14.000Z</time>
      </trkpt>
      <trkpt lat="43.89392" lon="7.44821">
        <ele>751.20001220703</ele>
        <time>2022-01-15T09:30:15.000Z</time>
      </trkpt>
      <trkpt lat="43.89391" lon="7.44817">
        <ele>749.59997558594</ele>
        <time>2022-01-15T09:30:16.000Z</time>
      </trkpt>
      <trkpt lat="43.89391" lon="7.44813">
        <ele>747.59997558594</ele>
        <time>2022-01-15T09:30:17.000Z</time>
      </trkpt>
      <trkpt lat="43.8939" lon="7.4481">
        <ele>746.40002441406</ele>
        <time>2022-01-15T09:30:18.000Z</time>
      </trkpt>
      <trkpt lat="43.89389" lon="7.44805">
        <ele>745</ele>
        <time>2022-01-15T09:30:19.000Z</time>
      </trkpt>
      <trkpt lat="43.89386" lon="7.44798">
        <ele>742.20001220703</ele>
        <time>2022-01-15T09:30:21.000Z</time>
      </trkpt>
      <trkpt lat="43.89384" lon="7.44796">
        <ele>741</ele>
        <time>2022-01-15T09:30:22.000Z</time>
      </trkpt>
      <trkpt lat="43.89382" lon="7.44797">
        <ele>739.40002441406</ele>
        <time>2022-01-15T09:30:23.000Z</time>
      </trkpt>
      <trkpt lat="43.8938" lon="7.44799">
        <ele>738</ele>
        <time>2022-01-15T09:30:24.000Z</time>
      </trkpt>
      <trkpt lat="43.89378" lon="7.44799">
        <ele>736.79998779297</ele>
        <time>2022-01-15T09:30:25.000Z</time>
      </trkpt>
      <trkpt lat="43.89378" lon="7.44799">
        <ele>736</ele>
        <time>2022-01-15T09:30:27.000Z</time>
      </trkpt>
      <trkpt lat="43.89378" lon="7.44799">
        <ele>735.59997558594</ele>
        <time>2022-01-15T09:30:28.000Z</time>
      </trkpt>
      <trkpt lat="43.89377" lon="7.44799">
        <ele>734.79998779297</ele>
        <time>2022-01-15T09:30:38.000Z</time>
      </trkpt>
      <trkpt lat="43.89377" lon="7.44799">
        <ele>734.79998779297</ele>
        <time>2022-01-15T09:30:51.000Z</time>
      </trkpt>
      <trkpt lat="43.89371" lon="7.44801">
        <ele>734.59997558594</ele>
        <time>2022-01-15T09:30:56.000Z</time>
      </trkpt>
      <trkpt lat="43.8937" lon="7.44801">
        <ele>734.59997558594</ele>
        <time>2022-01-15T09:30:57.000Z</time>
      </trkpt>
      <trkpt lat="43.89364" lon="7.44803">
        <ele>733.40002441406</ele>
        <time>2022-01-15T09:31:00.000Z</time>
      </trkpt>
      <trkpt lat="43.89361" lon="7.44803">
        <ele>732.79998779297</ele>
        <time>2022-01-15T09:31:01.000Z</time>
      </trkpt>
      <trkpt lat="43.89358" lon="7.44801">
        <ele>732</ele>
        <time>2022-01-15T09:31:02.000Z</time>
      </trkpt>
      <trkpt lat="43.89355" lon="7.44796">
        <ele>730.59997558594</ele>
        <time>2022-01-15T09:31:03.000Z</time>
      </trkpt>
      <trkpt lat="43.89353" lon="7.4479">
        <ele>730</ele>
        <time>2022-01-15T09:31:04.000Z</time>
      </trkpt>
      <trkpt lat="43.89348" lon="7.44788">
        <ele>729.20001220703</ele>
        <time>2022-01-15T09:31:05.000Z</time>
      </trkpt>
      <trkpt lat="43.89343" lon="7.44786">
        <ele>728</ele>
        <time>2022-01-15T09:31:06.000Z</time>
      </trkpt>
      <trkpt lat="43.8934" lon="7.44783">
        <ele>726.59997558594</ele>
        <time>2022-01-15T09:31:07.000Z</time>
      </trkpt>
      <trkpt lat="43.89335" lon="7.44783">
        <ele>725</ele>
        <time>2022-01-15T09:31:09.000Z</time>
      </trkpt>
      <trkpt lat="43.89335" lon="7.44786">
        <ele>724.20001220703</ele>
        <time>2022-01-15T09:31:10.000Z</time>
      </trkpt>
      <trkpt lat="43.89335" lon="7.44789">
        <ele>723.40002441406</ele>
        <time>2022-01-15T09:31:11.000Z</time>
      </trkpt>
      <trkpt lat="43.8933" lon="7.44792">
        <ele>722</ele>
        <time>2022-01-15T09:31:13.000Z</time>
      </trkpt>
      <trkpt lat="43.89328" lon="7.44791">
        <ele>721.20001220703</ele>
        <time>2022-01-15T09:31:14.000Z</time>
      </trkpt>
      <trkpt lat="43.89327" lon="7.4479">
        <ele>720.20001220703</ele>
        <time>2022-01-15T09:31:15.000Z</time>
      </trkpt>
      <trkpt lat="43.89325" lon="7.44786">
        <ele>718.59997558594</ele>
        <time>2022-01-15T09:31:17.000Z</time>
      </trkpt>
      <trkpt lat="43.89323" lon="7.44783">
        <ele>718</ele>
        <time>2022-01-15T09:31:18.000Z</time>
      </trkpt>
      <trkpt lat="43.89321" lon="7.44781">
        <ele>717.20001220703</ele>
        <time>2022-01-15T09:31:19.000Z</time>
      </trkpt>
      <trkpt lat="43.89318" lon="7.44777">
        <ele>715.79998779297</ele>
        <time>2022-01-15T09:31:21.000Z</time>
      </trkpt>
      <trkpt lat="43.89317" lon="7.44774">
        <ele>714.59997558594</ele>
        <time>2022-01-15T09:31:22.000Z</time>
      </trkpt>
      <trkpt lat="43.89314" lon="7.44764">
        <ele>713.20001220703</ele>
        <time>2022-01-15T09:31:24.000Z</time>
      </trkpt>
      <trkpt lat="43.89315" lon="7.44761">
        <ele>711.59997558594</ele>
        <time>2022-01-15T09:31:25.000Z</time>
      </trkpt>
      <trkpt lat="43.89314" lon="7.44754">
        <ele>710.59997558594</ele>
        <time>2022-01-15T09:31:28.000Z</time>
      </trkpt>
      <trkpt lat="43.89312" lon="7.44747">
        <ele>712.40002441406</ele>
        <time>2022-01-15T09:31:31.000Z</time>
      </trkpt>
      <trkpt lat="43.89311" lon="7.44745">
        <ele>713</ele>
        <time>2022-01-15T09:31:32.000Z</time>
      </trkpt>
      <trkpt lat="43.89308" lon="7.44743">
        <ele>714</ele>
        <time>2022-01-15T09:31:34.000Z</time>
      </trkpt>
      <trkpt lat="43.89307" lon="7.44742">
        <ele>714.40002441406</ele>
        <time>2022-01-15T09:31:35.000Z</time>
      </trkpt>
      <trkpt lat="43.89307" lon="7.44742">
        <ele>715.40002441406</ele>
        <time>2022-01-15T09:31:39.000Z</time>
      </trkpt>
      <trkpt lat="43.89307" lon="7.44741">
        <ele>715.59997558594</ele>
        <time>2022-01-15T09:31:41.000Z</time>
      </trkpt>
      <trkpt lat="43.89306" lon="7.44741">
        <ele>715.79998779297</ele>
        <time>2022-01-15T09:31:51.000Z</time>
      </trkpt>
      <trkpt lat="43.89302" lon="7.44735">
        <ele>715.59997558594</ele>
        <time>2022-01-15T09:32:04.000Z</time>
      </trkpt>
      <trkpt lat="43.89293" lon="7.44729">
        <ele>714</ele>
        <time>2022-01-15T09:32:08.000Z</time>
      </trkpt>
      <trkpt lat="43.89289" lon="7.44722">
        <ele>712.20001220703</ele>
        <time>2022-01-15T09:32:10.000Z</time>
      </trkpt>
      <trkpt lat="43.89289" lon="7.44717">
        <ele>711.40002441406</ele>
        <time>2022-01-15T09:32:11.000Z</time>
      </trkpt>
      <trkpt lat="43.89288" lon="7.44711">
        <ele>710.59997558594</ele>
        <time>2022-01-15T09:32:12.000Z</time>
      </trkpt>
      <trkpt lat="43.8928" lon="7.44697">
        <ele>709.79998779297</ele>
        <time>2022-01-15T09:32:15.000Z</time>
      </trkpt>
      <trkpt lat="43.89276" lon="7.44694">
        <ele>709.59997558594</ele>
        <time>2022-01-15T09:32:16.000Z</time>
      </trkpt>
      <trkpt lat="43.89271" lon="7.44685">
        <ele>707.59997558594</ele>
        <time>2022-01-15T09:32:18.000Z</time>
      </trkpt>
      <trkpt lat="43.89268" lon="7.44681">
        <ele>706.40002441406</ele>
        <time>2022-01-15T09:32:19.000Z</time>
      </trkpt>
      <trkpt lat="43.89263" lon="7.44676">
        <ele>704.40002441406</ele>
        <time>2022-01-15T09:32:20.000Z</time>
      </trkpt>
      <trkpt lat="43.8926" lon="7.44672">
        <ele>703</ele>
        <time>2022-01-15T09:32:21.000Z</time>
      </trkpt>
      <trkpt lat="43.89258" lon="7.4467">
        <ele>701.79998779297</ele>
        <time>2022-01-15T09:32:22.000Z</time>
      </trkpt>
      <trkpt lat="43.89255" lon="7.44668">
        <ele>700.59997558594</ele>
        <time>2022-01-15T09:32:23.000Z</time>
      </trkpt>
      <trkpt lat="43.89252" lon="7.44666">
        <ele>699.40002441406</ele>
        <time>2022-01-15T09:32:24.000Z</time>
      </trkpt>
      <trkpt lat="43.89247" lon="7.4466">
        <ele>697.59997558594</ele>
        <time>2022-01-15T09:32:26.000Z</time>
      </trkpt>
      <trkpt lat="43.89245" lon="7.44656">
        <ele>696.59997558594</ele>
        <time>2022-01-15T09:32:27.000Z</time>
      </trkpt>
      <trkpt lat="43.89244" lon="7.44653">
        <ele>695.79998779297</ele>
        <time>2022-01-15T09:32:28.000Z</time>
      </trkpt>
      <trkpt lat="43.89243" lon="7.44647">
        <ele>694.40002441406</ele>
        <time>2022-01-15T09:32:30.000Z</time>
      </trkpt>
      <trkpt lat="43.89243" lon="7.44643">
        <ele>693.79998779297</ele>
        <time>2022-01-15T09:32:31.000Z</time>
      </trkpt>
      <trkpt lat="43.89244" lon="7.44639">
        <ele>693.20001220703</ele>
        <time>2022-01-15T09:32:32.000Z</time>
      </trkpt>
      <trkpt lat="43.89244" lon="7.4463">
        <ele>691.79998779297</ele>
        <time>2022-01-15T09:32:34.000Z</time>
      </trkpt>
      <trkpt lat="43.89244" lon="7.44626">
        <ele>690.79998779297</ele>
        <time>2022-01-15T09:32:35.000Z</time>
      </trkpt>
      <trkpt lat="43.89243" lon="7.44622">
        <ele>689</ele>
        <time>2022-01-15T09:32:36.000Z</time>
      </trkpt>
      <trkpt lat="43.89242" lon="7.44622">
        <ele>687</ele>
        <time>2022-01-15T09:32:37.000Z</time>
      </trkpt>
      <trkpt lat="43.8924" lon="7.44621">
        <ele>685.40002441406</ele>
        <time>2022-01-15T09:32:38.000Z</time>
      </trkpt>
      <trkpt lat="43.89237" lon="7.44619">
        <ele>683.79998779297</ele>
        <time>2022-01-15T09:32:39.000Z</time>
      </trkpt>
      <trkpt lat="43.89235" lon="7.44616">
        <ele>682.59997558594</ele>
        <time>2022-01-15T09:32:40.000Z</time>
      </trkpt>
      <trkpt lat="43.89234" lon="7.44612">
        <ele>681.20001220703</ele>
        <time>2022-01-15T09:32:41.000Z</time>
      </trkpt>
      <trkpt lat="43.89233" lon="7.44604">
        <ele>679.79998779297</ele>
        <time>2022-01-15T09:32:43.000Z</time>
      </trkpt>
      <trkpt lat="43.89231" lon="7.44599">
        <ele>678.79998779297</ele>
        <time>2022-01-15T09:32:44.000Z</time>
      </trkpt>
      <trkpt lat="43.89231" lon="7.44594">
        <ele>677.40002441406</ele>
        <time>2022-01-15T09:32:45.000Z</time>
      </trkpt>
      <trkpt lat="43.89228" lon="7.44591">
        <ele>675.40002441406</ele>
        <time>2022-01-15T09:32:47.000Z</time>
      </trkpt>
      <trkpt lat="43.89226" lon="7.44592">
        <ele>674.40002441406</ele>
        <time>2022-01-15T09:32:48.000Z</time>
      </trkpt>
      <trkpt lat="43.89222" lon="7.44593">
        <ele>672.79998779297</ele>
        <time>2022-01-15T09:32:50.000Z</time>
      </trkpt>
      <trkpt lat="43.89218" lon="7.44594">
        <ele>672.59997558594</ele>
        <time>2022-01-15T09:32:51.000Z</time>
      </trkpt>
      <trkpt lat="43.89214" lon="7.44589">
        <ele>671.79998779297</ele>
        <time>2022-01-15T09:32:53.000Z</time>
      </trkpt>
      <trkpt lat="43.89215" lon="7.44585">
        <ele>670.79998779297</ele>
        <time>2022-01-15T09:32:54.000Z</time>
      </trkpt>
      <trkpt lat="43.89216" lon="7.4458">
        <ele>669.79998779297</ele>
        <time>2022-01-15T09:32:55.000Z</time>
      </trkpt>
      <trkpt lat="43.89218" lon="7.44572">
        <ele>668.20001220703</ele>
        <time>2022-01-15T09:32:57.000Z</time>
      </trkpt>
      <trkpt lat="43.89219" lon="7.44569">
        <ele>667.59997558594</ele>
        <time>2022-01-15T09:32:58.000Z</time>
      </trkpt>
      <trkpt lat="43.8922" lon="7.44568">
        <ele>667.59997558594</ele>
        <time>2022-01-15T09:33:01.000Z</time>
      </trkpt>
      <trkpt lat="43.89219" lon="7.44567">
        <ele>667.79998779297</ele>
        <time>2022-01-15T09:33:20.000Z</time>
      </trkpt>
      <trkpt lat="43.89219" lon="7.44558">
        <ele>667.79998779297</ele>
        <time>2022-01-15T09:33:33.000Z</time>
      </trkpt>
      <trkpt lat="43.89215" lon="7.44549">
        <ele>667</ele>
        <time>2022-01-15T09:33:37.000Z</time>
      </trkpt>
      <trkpt lat="43.89213" lon="7.44547">
        <ele>666.40002441406</ele>
        <time>2022-01-15T09:33:38.000Z</time>
      </trkpt>
      <trkpt lat="43.89213" lon="7.44543">
        <ele>665.59997558594</ele>
        <time>2022-01-15T09:33:39.000Z</time>
      </trkpt>
      <trkpt lat="43.89215" lon="7.44537">
        <ele>663.79998779297</ele>
        <time>2022-01-15T09:33:41.000Z</time>
      </trkpt>
      <trkpt lat="43.89217" lon="7.44536">
        <ele>662.79998779297</ele>
        <time>2022-01-15T09:33:42.000Z</time>
      </trkpt>
      <trkpt lat="43.89218" lon="7.44531">
        <ele>661.20001220703</ele>
        <time>2022-01-15T09:33:44.000Z</time>
      </trkpt>
      <trkpt lat="43.8922" lon="7.44529">
        <ele>659.40002441406</ele>
        <time>2022-01-15T09:33:46.000Z</time>
      </trkpt>
      <trkpt lat="43.89222" lon="7.44527">
        <ele>658.40002441406</ele>
        <time>2022-01-15T09:33:47.000Z</time>
      </trkpt>
      <trkpt lat="43.89223" lon="7.44525">
        <ele>657.59997558594</ele>
        <time>2022-01-15T09:33:48.000Z</time>
      </trkpt>
      <trkpt lat="43.89224" lon="7.44523">
        <ele>657.79998779297</ele>
        <time>2022-01-15T09:33:50.000Z</time>
      </trkpt>
      <trkpt lat="43.89224" lon="7.44522">
        <ele>656.20001220703</ele>
        <time>2022-01-15T09:33:51.000Z</time>
      </trkpt>
      <trkpt lat="43.89224" lon="7.44523">
        <ele>655.59997558594</ele>
        <time>2022-01-15T09:33:52.000Z</time>
      </trkpt>
      <trkpt lat="43.89223" lon="7.44522">
        <ele>655.20001220703</ele>
        <time>2022-01-15T09:33:54.000Z</time>
      </trkpt>
      <trkpt lat="43.89223" lon="7.44521">
        <ele>654.59997558594</ele>
        <time>2022-01-15T09:34:06.000Z</time>
      </trkpt>
      <trkpt lat="43.89223" lon="7.4452">
        <ele>654</ele>
        <time>2022-01-15T09:34:11.000Z</time>
      </trkpt>
      <trkpt lat="43.89221" lon="7.44516">
        <ele>652.59997558594</ele>
        <time>2022-01-15T09:34:16.000Z</time>
      </trkpt>
      <trkpt lat="43.89219" lon="7.44511">
        <ele>651.40002441406</ele>
        <time>2022-01-15T09:34:18.000Z</time>
      </trkpt>
      <trkpt lat="43.89216" lon="7.44499">
        <ele>650.59997558594</ele>
        <time>2022-01-15T09:34:20.000Z</time>
      </trkpt>
      <trkpt lat="43.89215" lon="7.44492">
        <ele>650</ele>
        <time>2022-01-15T09:34:21.000Z</time>
      </trkpt>
      <trkpt lat="43.89214" lon="7.44479">
        <ele>648</ele>
        <time>2022-01-15T09:34:23.000Z</time>
      </trkpt>
      <trkpt lat="43.89212" lon="7.44469">
        <ele>647.40002441406</ele>
        <time>2022-01-15T09:34:25.000Z</time>
      </trkpt>
      <trkpt lat="43.89211" lon="7.44464">
        <ele>647</ele>
        <time>2022-01-15T09:34:26.000Z</time>
      </trkpt>
      <trkpt lat="43.89208" lon="7.44458">
        <ele>646.79998779297</ele>
        <time>2022-01-15T09:34:27.000Z</time>
      </trkpt>
      <trkpt lat="43.89201" lon="7.4445">
        <ele>645.40002441406</ele>
        <time>2022-01-15T09:34:29.000Z</time>
      </trkpt>
      <trkpt lat="43.8919" lon="7.44446">
        <ele>644</ele>
        <time>2022-01-15T09:34:31.000Z</time>
      </trkpt>
      <trkpt lat="43.89185" lon="7.44442">
        <ele>643.40002441406</ele>
        <time>2022-01-15T09:34:32.000Z</time>
      </trkpt>
      <trkpt lat="43.89179" lon="7.44439">
        <ele>642.79998779297</ele>
        <time>2022-01-15T09:34:33.000Z</time>
      </trkpt>
      <trkpt lat="43.89174" lon="7.44437">
        <ele>641.79998779297</ele>
        <time>2022-01-15T09:34:34.000Z</time>
      </trkpt>
      <trkpt lat="43.89168" lon="7.44432">
        <ele>640.79998779297</ele>
        <time>2022-01-15T09:34:35.000Z</time>
      </trkpt>
      <trkpt lat="43.89164" lon="7.44427">
        <ele>639.59997558594</ele>
        <time>2022-01-15T09:34:36.000Z</time>
      </trkpt>
      <trkpt lat="43.89159" lon="7.44425">
        <ele>638.59997558594</ele>
        <time>2022-01-15T09:34:37.000Z</time>
      </trkpt>
      <trkpt lat="43.89153" lon="7.44423">
        <ele>637.40002441406</ele>
        <time>2022-01-15T09:34:38.000Z</time>
      </trkpt>
      <trkpt lat="43.89147" lon="7.44421">
        <ele>636.79998779297</ele>
        <time>2022-01-15T09:34:39.000Z</time>
      </trkpt>
      <trkpt lat="43.89141" lon="7.44417">
        <ele>636</ele>
        <time>2022-01-15T09:34:40.000Z</time>
      </trkpt>
      <trkpt lat="43.89132" lon="7.44409">
        <ele>634.79998779297</ele>
        <time>2022-01-15T09:34:42.000Z</time>
      </trkpt>
      <trkpt lat="43.89126" lon="7.44407">
        <ele>634.40002441406</ele>
        <time>2022-01-15T09:34:43.000Z</time>
      </trkpt>
      <trkpt lat="43.89108" lon="7.44397">
        <ele>634</ele>
        <time>2022-01-15T09:34:46.000Z</time>
      </trkpt>
      <trkpt lat="43.89102" lon="7.44392">
        <ele>633.40002441406</ele>
        <time>2022-01-15T09:34:47.000Z</time>
      </trkpt>
      <trkpt lat="43.89091" lon="7.44382">
        <ele>631.20001220703</ele>
        <time>2022-01-15T09:34:49.000Z</time>
      </trkpt>
      <trkpt lat="43.89088" lon="7.44375">
        <ele>630</ele>
        <time>2022-01-15T09:34:50.000Z</time>
      </trkpt>
      <trkpt lat="43.89087" lon="7.44369">
        <ele>629.20001220703</ele>
        <time>2022-01-15T09:34:51.000Z</time>
      </trkpt>
      <trkpt lat="43.89084" lon="7.44367">
        <ele>628.79998779297</ele>
        <time>2022-01-15T09:34:52.000Z</time>
      </trkpt>
      <trkpt lat="43.89075" lon="7.44363">
        <ele>628</ele>
        <time>2022-01-15T09:34:54.000Z</time>
      </trkpt>
      <trkpt lat="43.89071" lon="7.44359">
        <ele>627.59997558594</ele>
        <time>2022-01-15T09:34:55.000Z</time>
      </trkpt>
      <trkpt lat="43.89061" lon="7.44356">
        <ele>627</ele>
        <time>2022-01-15T09:34:57.000Z</time>
      </trkpt>
      <trkpt lat="43.89052" lon="7.44354">
        <ele>626.59997558594</ele>
        <time>2022-01-15T09:34:59.000Z</time>
      </trkpt>
      <trkpt lat="43.89041" lon="7.44354">
        <ele>624.79998779297</ele>
        <time>2022-01-15T09:35:01.000Z</time>
      </trkpt>
      <trkpt lat="43.89035" lon="7.44355">
        <ele>623.20001220703</ele>
        <time>2022-01-15T09:35:02.000Z</time>
      </trkpt>
      <trkpt lat="43.89028" lon="7.44354">
        <ele>621.59997558594</ele>
        <time>2022-01-15T09:35:03.000Z</time>
      </trkpt>
      <trkpt lat="43.89023" lon="7.44351">
        <ele>620</ele>
        <time>2022-01-15T09:35:04.000Z</time>
      </trkpt>
      <trkpt lat="43.89019" lon="7.44346">
        <ele>617.40002441406</ele>
        <time>2022-01-15T09:35:05.000Z</time>
      </trkpt>
      <trkpt lat="43.89015" lon="7.44342">
        <ele>615.79998779297</ele>
        <time>2022-01-15T09:35:06.000Z</time>
      </trkpt>
      <trkpt lat="43.89007" lon="7.44337">
        <ele>613.40002441406</ele>
        <time>2022-01-15T09:35:08.000Z</time>
      </trkpt>
      <trkpt lat="43.89004" lon="7.44336">
        <ele>612.79998779297</ele>
        <time>2022-01-15T09:35:09.000Z</time>
      </trkpt>
      <trkpt lat="43.88999" lon="7.44337">
        <ele>612.20001220703</ele>
        <time>2022-01-15T09:35:10.000Z</time>
      </trkpt>
      <trkpt lat="43.88994" lon="7.44339">
        <ele>611</ele>
        <time>2022-01-15T09:35:11.000Z</time>
      </trkpt>
      <trkpt lat="43.88989" lon="7.44339">
        <ele>609.59997558594</ele>
        <time>2022-01-15T09:35:12.000Z</time>
      </trkpt>
      <trkpt lat="43.88982" lon="7.44337">
        <ele>608.59997558594</ele>
        <time>2022-01-15T09:35:13.000Z</time>
      </trkpt>
      <trkpt lat="43.88972" lon="7.4433">
        <ele>606.20001220703</ele>
        <time>2022-01-15T09:35:15.000Z</time>
      </trkpt>
      <trkpt lat="43.88966" lon="7.4433">
        <ele>605.40002441406</ele>
        <time>2022-01-15T09:35:16.000Z</time>
      </trkpt>
      <trkpt lat="43.8896" lon="7.44329">
        <ele>604.40002441406</ele>
        <time>2022-01-15T09:35:17.000Z</time>
      </trkpt>
      <trkpt lat="43.88956" lon="7.44328">
        <ele>603.20001220703</ele>
        <time>2022-01-15T09:35:18.000Z</time>
      </trkpt>
      <trkpt lat="43.88954" lon="7.44327">
        <ele>601.79998779297</ele>
        <time>2022-01-15T09:35:19.000Z</time>
      </trkpt>
      <trkpt lat="43.88956" lon="7.44327">
        <ele>600.59997558594</ele>
        <time>2022-01-15T09:35:20.000Z</time>
      </trkpt>
      <trkpt lat="43.88954" lon="7.44327">
        <ele>599.79998779297</ele>
        <time>2022-01-15T09:35:21.000Z</time>
      </trkpt>
      <trkpt lat="43.88954" lon="7.44327">
        <ele>598.59997558594</ele>
        <time>2022-01-15T09:35:22.000Z</time>
      </trkpt>
      <trkpt lat="43.88954" lon="7.44327">
        <ele>597.40002441406</ele>
        <time>2022-01-15T09:35:24.000Z</time>
      </trkpt>
      <trkpt lat="43.88953" lon="7.44327">
        <ele>597</ele>
        <time>2022-01-15T09:35:35.000Z</time>
      </trkpt>
      <trkpt lat="43.8895" lon="7.44329">
        <ele>597</ele>
        <time>2022-01-15T09:35:53.000Z</time>
      </trkpt>
      <trkpt lat="43.88947" lon="7.4433">
        <ele>597</ele>
        <time>2022-01-15T09:35:55.000Z</time>
      </trkpt>
      <trkpt lat="43.88936" lon="7.44329">
        <ele>595.79998779297</ele>
        <time>2022-01-15T09:35:59.000Z</time>
      </trkpt>
      <trkpt lat="43.88928" lon="7.44318">
        <ele>594.40002441406</ele>
        <time>2022-01-15T09:36:02.000Z</time>
      </trkpt>
      <trkpt lat="43.88926" lon="7.44312">
        <ele>593.59997558594</ele>
        <time>2022-01-15T09:36:03.000Z</time>
      </trkpt>
      <trkpt lat="43.88922" lon="7.44304">
        <ele>592.79998779297</ele>
        <time>2022-01-15T09:36:05.000Z</time>
      </trkpt>
      <trkpt lat="43.88919" lon="7.44299">
        <ele>592.20001220703</ele>
        <time>2022-01-15T09:36:06.000Z</time>
      </trkpt>
      <trkpt lat="43.88917" lon="7.44295">
        <ele>591.59997558594</ele>
        <time>2022-01-15T09:36:07.000Z</time>
      </trkpt>
      <trkpt lat="43.88911" lon="7.44292">
        <ele>589.59997558594</ele>
        <time>2022-01-15T09:36:09.000Z</time>
      </trkpt>
      <trkpt lat="43.88909" lon="7.44288">
        <ele>588.59997558594</ele>
        <time>2022-01-15T09:36:10.000Z</time>
      </trkpt>
      <trkpt lat="43.88912" lon="7.44282">
        <ele>586.79998779297</ele>
        <time>2022-01-15T09:36:12.000Z</time>
      </trkpt>
      <trkpt lat="43.88913" lon="7.44281">
        <ele>585.59997558594</ele>
        <time>2022-01-15T09:36:13.000Z</time>
      </trkpt>
      <trkpt lat="43.88917" lon="7.4428">
        <ele>584</ele>
        <time>2022-01-15T09:36:15.000Z</time>
      </trkpt>
      <trkpt lat="43.8892" lon="7.44279">
        <ele>582.40002441406</ele>
        <time>2022-01-15T09:36:17.000Z</time>
      </trkpt>
      <trkpt lat="43.8892" lon="7.44276">
        <ele>581.20001220703</ele>
        <time>2022-01-15T09:36:19.000Z</time>
      </trkpt>
      <trkpt lat="43.88918" lon="7.44274">
        <ele>579.79998779297</ele>
        <time>2022-01-15T09:36:21.000Z</time>
      </trkpt>
      <trkpt lat="43.88917" lon="7.44273">
        <ele>579.20001220703</ele>
        <time>2022-01-15T09:36:22.000Z</time>
      </trkpt>
      <trkpt lat="43.88916" lon="7.44271">
        <ele>578.79998779297</ele>
        <time>2022-01-15T09:36:23.000Z</time>
      </trkpt>
      <trkpt lat="43.88916" lon="7.44267">
        <ele>578.20001220703</ele>
        <time>2022-01-15T09:36:24.000Z</time>
      </trkpt>
      <trkpt lat="43.88917" lon="7.44265">
        <ele>578</ele>
        <time>2022-01-15T09:36:25.000Z</time>
      </trkpt>
      <trkpt lat="43.88916" lon="7.44263">
        <ele>577.59997558594</ele>
        <time>2022-01-15T09:36:26.000Z</time>
      </trkpt>
      <trkpt lat="43.88911" lon="7.44261">
        <ele>576.20001220703</ele>
        <time>2022-01-15T09:36:28.000Z</time>
      </trkpt>
      <trkpt lat="43.88911" lon="7.44258">
        <ele>575.40002441406</ele>
        <time>2022-01-15T09:36:29.000Z</time>
      </trkpt>
      <trkpt lat="43.88911" lon="7.44255">
        <ele>574.59997558594</ele>
        <time>2022-01-15T09:36:30.000Z</time>
      </trkpt>
      <trkpt lat="43.88912" lon="7.44254">
        <ele>573.40002441406</ele>
        <time>2022-01-15T09:36:31.000Z</time>
      </trkpt>
      <trkpt lat="43.88917" lon="7.4425">
        <ele>572</ele>
        <time>2022-01-15T09:36:33.000Z</time>
      </trkpt>
      <trkpt lat="43.88919" lon="7.4425">
        <ele>571.20001220703</ele>
        <time>2022-01-15T09:36:34.000Z</time>
      </trkpt>
      <trkpt lat="43.88921" lon="7.4425">
        <ele>570.20001220703</ele>
        <time>2022-01-15T09:36:35.000Z</time>
      </trkpt>
      <trkpt lat="43.88922" lon="7.44249">
        <ele>569.40002441406</ele>
        <time>2022-01-15T09:36:36.000Z</time>
      </trkpt>
      <trkpt lat="43.88922" lon="7.44248">
        <ele>568.59997558594</ele>
        <time>2022-01-15T09:36:37.000Z</time>
      </trkpt>
      <trkpt lat="43.88922" lon="7.44246">
        <ele>568</ele>
        <time>2022-01-15T09:36:38.000Z</time>
      </trkpt>
      <trkpt lat="43.88923" lon="7.44245">
        <ele>567.20001220703</ele>
        <time>2022-01-15T09:36:39.000Z</time>
      </trkpt>
      <trkpt lat="43.88921" lon="7.44243">
        <ele>565.59997558594</ele>
        <time>2022-01-15T09:36:41.000Z</time>
      </trkpt>
      <trkpt lat="43.8892" lon="7.44242">
        <ele>564.59997558594</ele>
        <time>2022-01-15T09:36:42.000Z</time>
      </trkpt>
      <trkpt lat="43.8892" lon="7.44241">
        <ele>563.59997558594</ele>
        <time>2022-01-15T09:36:43.000Z</time>
      </trkpt>
      <trkpt lat="43.8892" lon="7.4424">
        <ele>562</ele>
        <time>2022-01-15T09:36:45.000Z</time>
      </trkpt>
      <trkpt lat="43.88919" lon="7.44238">
        <ele>561</ele>
        <time>2022-01-15T09:36:48.000Z</time>
      </trkpt>
      <trkpt lat="43.88921" lon="7.44231">
        <ele>559.79998779297</ele>
        <time>2022-01-15T09:36:57.000Z</time>
      </trkpt>
      <trkpt lat="43.8892" lon="7.44226">
        <ele>558.59997558594</ele>
        <time>2022-01-15T09:37:00.000Z</time>
      </trkpt>
      <trkpt lat="43.88923" lon="7.44226">
        <ele>557.79998779297</ele>
        <time>2022-01-15T09:37:01.000Z</time>
      </trkpt>
      <trkpt lat="43.88923" lon="7.44225">
        <ele>557</ele>
        <time>2022-01-15T09:37:02.000Z</time>
      </trkpt>
      <trkpt lat="43.88924" lon="7.44222">
        <ele>555.40002441406</ele>
        <time>2022-01-15T09:37:04.000Z</time>
      </trkpt>
      <trkpt lat="43.88924" lon="7.44223">
        <ele>554.79998779297</ele>
        <time>2022-01-15T09:37:05.000Z</time>
      </trkpt>
      <trkpt lat="43.88924" lon="7.44221">
        <ele>554.20001220703</ele>
        <time>2022-01-15T09:37:06.000Z</time>
      </trkpt>
      <trkpt lat="43.88924" lon="7.4422">
        <ele>553.20001220703</ele>
        <time>2022-01-15T09:37:08.000Z</time>
      </trkpt>
      <trkpt lat="43.88923" lon="7.44219">
        <ele>552.20001220703</ele>
        <time>2022-01-15T09:37:12.000Z</time>
      </trkpt>
      <trkpt lat="43.88922" lon="7.44216">
        <ele>552.59997558594</ele>
        <time>2022-01-15T09:37:19.000Z</time>
      </trkpt>
      <trkpt lat="43.88919" lon="7.4421">
        <ele>552</ele>
        <time>2022-01-15T09:37:29.000Z</time>
      </trkpt>
      <trkpt lat="43.88915" lon="7.44205">
        <ele>551.79998779297</ele>
        <time>2022-01-15T09:37:43.000Z</time>
      </trkpt>
      <trkpt lat="43.88918" lon="7.442">
        <ele>552</ele>
        <time>2022-01-15T09:37:50.000Z</time>
      </trkpt>
      <trkpt lat="43.88917" lon="7.44198">
        <ele>550.59997558594</ele>
        <time>2022-01-15T09:37:53.000Z</time>
      </trkpt>
      <trkpt lat="43.88919" lon="7.44196">
        <ele>549.59997558594</ele>
        <time>2022-01-15T09:37:55.000Z</time>
      </trkpt>
      <trkpt lat="43.88919" lon="7.44193">
        <ele>549</ele>
        <time>2022-01-15T09:37:56.000Z</time>
      </trkpt>
      <trkpt lat="43.88918" lon="7.44193">
        <ele>548.40002441406</ele>
        <time>2022-01-15T09:37:58.000Z</time>
      </trkpt>
      <trkpt lat="43.88917" lon="7.4419">
        <ele>547.79998779297</ele>
        <time>2022-01-15T09:37:59.000Z</time>
      </trkpt>
      <trkpt lat="43.88917" lon="7.44187">
        <ele>547.40002441406</ele>
        <time>2022-01-15T09:38:00.000Z</time>
      </trkpt>
      <trkpt lat="43.88916" lon="7.44186">
        <ele>546.79998779297</ele>
        <time>2022-01-15T09:38:01.000Z</time>
      </trkpt>
      <trkpt lat="43.88915" lon="7.44185">
        <ele>546.20001220703</ele>
        <time>2022-01-15T09:38:02.000Z</time>
      </trkpt>
      <trkpt lat="43.88913" lon="7.4418">
        <ele>544.40002441406</ele>
        <time>2022-01-15T09:38:04.000Z</time>
      </trkpt>
      <trkpt lat="43.88913" lon="7.4418">
        <ele>543.59997558594</ele>
        <time>2022-01-15T09:38:05.000Z</time>
      </trkpt>
      <trkpt lat="43.88911" lon="7.44179">
        <ele>542.79998779297</ele>
        <time>2022-01-15T09:38:06.000Z</time>
      </trkpt>
      <trkpt lat="43.88911" lon="7.44176">
        <ele>541.40002441406</ele>
        <time>2022-01-15T09:38:07.000Z</time>
      </trkpt>
      <trkpt lat="43.88911" lon="7.44171">
        <ele>540.40002441406</ele>
        <time>2022-01-15T09:38:09.000Z</time>
      </trkpt>
      <trkpt lat="43.88909" lon="7.44169">
        <ele>539</ele>
        <time>2022-01-15T09:38:10.000Z</time>
      </trkpt>
      <trkpt lat="43.88907" lon="7.44167">
        <ele>537</ele>
        <time>2022-01-15T09:38:12.000Z</time>
      </trkpt>
      <trkpt lat="43.88907" lon="7.44168">
        <ele>536</ele>
        <time>2022-01-15T09:38:13.000Z</time>
      </trkpt>
      <trkpt lat="43.88906" lon="7.44166">
        <ele>534.40002441406</ele>
        <time>2022-01-15T09:38:15.000Z</time>
      </trkpt>
      <trkpt lat="43.88904" lon="7.44159">
        <ele>533.79998779297</ele>
        <time>2022-01-15T09:38:30.000Z</time>
      </trkpt>
      <trkpt lat="43.88896" lon="7.44157">
        <ele>533.59997558594</ele>
        <time>2022-01-15T09:38:37.000Z</time>
      </trkpt>
      <trkpt lat="43.88889" lon="7.44159">
        <ele>533.20001220703</ele>
        <time>2022-01-15T09:38:39.000Z</time>
      </trkpt>
      <trkpt lat="43.88885" lon="7.44159">
        <ele>532.79998779297</ele>
        <time>2022-01-15T09:38:40.000Z</time>
      </trkpt>
      <trkpt lat="43.88881" lon="7.44161">
        <ele>532.40002441406</ele>
        <time>2022-01-15T09:38:41.000Z</time>
      </trkpt>
      <trkpt lat="43.88877" lon="7.44164">
        <ele>532</ele>
        <time>2022-01-15T09:38:42.000Z</time>
      </trkpt>
      <trkpt lat="43.88869" lon="7.44164">
        <ele>531</ele>
        <time>2022-01-15T09:38:44.000Z</time>
      </trkpt>
      <trkpt lat="43.88865" lon="7.44161">
        <ele>530.59997558594</ele>
        <time>2022-01-15T09:38:45.000Z</time>
      </trkpt>
      <trkpt lat="43.88856" lon="7.44155">
        <ele>529.79998779297</ele>
        <time>2022-01-15T09:38:47.000Z</time>
      </trkpt>
      <trkpt lat="43.88852" lon="7.44156">
        <ele>529</ele>
        <time>2022-01-15T09:38:48.000Z</time>
      </trkpt>
      <trkpt lat="43.88848" lon="7.44154">
        <ele>528.20001220703</ele>
        <time>2022-01-15T09:38:49.000Z</time>
      </trkpt>
      <trkpt lat="43.88838" lon="7.44146">
        <ele>525.79998779297</ele>
        <time>2022-01-15T09:38:51.000Z</time>
      </trkpt>
      <trkpt lat="43.88828" lon="7.44141">
        <ele>524.59997558594</ele>
        <time>2022-01-15T09:38:53.000Z</time>
      </trkpt>
      <trkpt lat="43.88818" lon="7.4414">
        <ele>522.59997558594</ele>
        <time>2022-01-15T09:38:55.000Z</time>
      </trkpt>
      <trkpt lat="43.88809" lon="7.44143">
        <ele>521.40002441406</ele>
        <time>2022-01-15T09:38:57.000Z</time>
      </trkpt>
      <trkpt lat="43.88804" lon="7.44144">
        <ele>520.79998779297</ele>
        <time>2022-01-15T09:38:58.000Z</time>
      </trkpt>
      <trkpt lat="43.88794" lon="7.44148">
        <ele>520</ele>
        <time>2022-01-15T09:39:01.000Z</time>
      </trkpt>
      <trkpt lat="43.88791" lon="7.44148">
        <ele>519.59997558594</ele>
        <time>2022-01-15T09:39:02.000Z</time>
      </trkpt>
      <trkpt lat="43.88787" lon="7.4415">
        <ele>519</ele>
        <time>2022-01-15T09:39:03.000Z</time>
      </trkpt>
      <trkpt lat="43.88785" lon="7.44153">
        <ele>518.79998779297</ele>
        <time>2022-01-15T09:39:04.000Z</time>
      </trkpt>
      <trkpt lat="43.88776" lon="7.4416">
        <ele>518.20001220703</ele>
        <time>2022-01-15T09:39:06.000Z</time>
      </trkpt>
      <trkpt lat="43.88769" lon="7.44156">
        <ele>517.79998779297</ele>
        <time>2022-01-15T09:39:08.000Z</time>
      </trkpt>
      <trkpt lat="43.88766" lon="7.44157">
        <ele>517.20001220703</ele>
        <time>2022-01-15T09:39:09.000Z</time>
      </trkpt>
      <trkpt lat="43.8876" lon="7.44158">
        <ele>516.59997558594</ele>
        <time>2022-01-15T09:39:10.000Z</time>
      </trkpt>
      <trkpt lat="43.88754" lon="7.4416">
        <ele>515.59997558594</ele>
        <time>2022-01-15T09:39:11.000Z</time>
      </trkpt>
      <trkpt lat="43.88747" lon="7.44165">
        <ele>513.79998779297</ele>
        <time>2022-01-15T09:39:13.000Z</time>
      </trkpt>
      <trkpt lat="43.88745" lon="7.44169">
        <ele>512.79998779297</ele>
        <time>2022-01-15T09:39:14.000Z</time>
      </trkpt>
      <trkpt lat="43.8874" lon="7.44172">
        <ele>512.20001220703</ele>
        <time>2022-01-15T09:39:15.000Z</time>
      </trkpt>
      <trkpt lat="43.88734" lon="7.44182">
        <ele>510.79998779297</ele>
        <time>2022-01-15T09:39:17.000Z</time>
      </trkpt>
      <trkpt lat="43.88729" lon="7.44187">
        <ele>510.20001220703</ele>
        <time>2022-01-15T09:39:18.000Z</time>
      </trkpt>
      <trkpt lat="43.88723" lon="7.44192">
        <ele>509.39999389648</ele>
        <time>2022-01-15T09:39:19.000Z</time>
      </trkpt>
      <trkpt lat="43.88717" lon="7.44196">
        <ele>508.60000610352</ele>
        <time>2022-01-15T09:39:20.000Z</time>
      </trkpt>
      <trkpt lat="43.88712" lon="7.442">
        <ele>507.79998779297</ele>
        <time>2022-01-15T09:39:21.000Z</time>
      </trkpt>
      <trkpt lat="43.8871" lon="7.44204">
        <ele>506.79998779297</ele>
        <time>2022-01-15T09:39:22.000Z</time>
      </trkpt>
      <trkpt lat="43.8871" lon="7.44209">
        <ele>506.20001220703</ele>
        <time>2022-01-15T09:39:23.000Z</time>
      </trkpt>
      <trkpt lat="43.8871" lon="7.44221">
        <ele>504.39999389648</ele>
        <time>2022-01-15T09:39:25.000Z</time>
      </trkpt>
      <trkpt lat="43.88711" lon="7.44228">
        <ele>504.20001220703</ele>
        <time>2022-01-15T09:39:26.000Z</time>
      </trkpt>
      <trkpt lat="43.88711" lon="7.44238">
        <ele>503.60000610352</ele>
        <time>2022-01-15T09:39:27.000Z</time>
      </trkpt>
      <trkpt lat="43.8871" lon="7.44247">
        <ele>502.39999389648</ele>
        <time>2022-01-15T09:39:28.000Z</time>
      </trkpt>
      <trkpt lat="43.88711" lon="7.44263">
        <ele>500.20001220703</ele>
        <time>2022-01-15T09:39:30.000Z</time>
      </trkpt>
      <trkpt lat="43.88713" lon="7.4427">
        <ele>498.79998779297</ele>
        <time>2022-01-15T09:39:31.000Z</time>
      </trkpt>
      <trkpt lat="43.88714" lon="7.44277">
        <ele>497.39999389648</ele>
        <time>2022-01-15T09:39:32.000Z</time>
      </trkpt>
      <trkpt lat="43.88716" lon="7.44282">
        <ele>496.20001220703</ele>
        <time>2022-01-15T09:39:33.000Z</time>
      </trkpt>
      <trkpt lat="43.88718" lon="7.44286">
        <ele>495.60000610352</ele>
        <time>2022-01-15T09:39:34.000Z</time>
      </trkpt>
      <trkpt lat="43.88719" lon="7.44294">
        <ele>494.79998779297</ele>
        <time>2022-01-15T09:39:35.000Z</time>
      </trkpt>
      <trkpt lat="43.88717" lon="7.44307">
        <ele>494.60000610352</ele>
        <time>2022-01-15T09:39:37.000Z</time>
      </trkpt>
      <trkpt lat="43.88716" lon="7.44325">
        <ele>493.60000610352</ele>
        <time>2022-01-15T09:39:40.000Z</time>
      </trkpt>
      <trkpt lat="43.88716" lon="7.44332">
        <ele>492.20001220703</ele>
        <time>2022-01-15T09:39:41.000Z</time>
      </trkpt>
      <trkpt lat="43.88715" lon="7.44345">
        <ele>490.39999389648</ele>
        <time>2022-01-15T09:39:43.000Z</time>
      </trkpt>
      <trkpt lat="43.88717" lon="7.4435">
        <ele>489.20001220703</ele>
        <time>2022-01-15T09:39:44.000Z</time>
      </trkpt>
      <trkpt lat="43.88721" lon="7.44356">
        <ele>487.79998779297</ele>
        <time>2022-01-15T09:39:45.000Z</time>
      </trkpt>
      <trkpt lat="43.88725" lon="7.44363">
        <ele>486.39999389648</ele>
        <time>2022-01-15T09:39:46.000Z</time>
      </trkpt>
      <trkpt lat="43.88728" lon="7.44371">
        <ele>485.20001220703</ele>
        <time>2022-01-15T09:39:47.000Z</time>
      </trkpt>
      <trkpt lat="43.88726" lon="7.44376">
        <ele>483.79998779297</ele>
        <time>2022-01-15T09:39:48.000Z</time>
      </trkpt>
      <trkpt lat="43.88719" lon="7.44379">
        <ele>482.20001220703</ele>
        <time>2022-01-15T09:39:50.000Z</time>
      </trkpt>
      <trkpt lat="43.88716" lon="7.44381">
        <ele>481.79998779297</ele>
        <time>2022-01-15T09:39:51.000Z</time>
      </trkpt>
      <trkpt lat="43.88709" lon="7.44381">
        <ele>482.39999389648</ele>
        <time>2022-01-15T09:39:54.000Z</time>
      </trkpt>
      <trkpt lat="43.88702" lon="7.44384">
        <ele>483.39999389648</ele>
        <time>2022-01-15T09:39:57.000Z</time>
      </trkpt>
      <trkpt lat="43.88699" lon="7.44387">
        <ele>484.20001220703</ele>
        <time>2022-01-15T09:39:59.000Z</time>
      </trkpt>
      <trkpt lat="43.88698" lon="7.44389">
        <ele>484.60000610352</ele>
        <time>2022-01-15T09:40:00.000Z</time>
      </trkpt>
      <trkpt lat="43.88696" lon="7.4439">
        <ele>485</ele>
        <time>2022-01-15T09:40:01.000Z</time>
      </trkpt>
      <trkpt lat="43.88695" lon="7.44391">
        <ele>485.79998779297</ele>
        <time>2022-01-15T09:40:02.000Z</time>
      </trkpt>
      <trkpt lat="43.88691" lon="7.44394">
        <ele>486.39999389648</ele>
        <time>2022-01-15T09:40:04.000Z</time>
      </trkpt>
      <trkpt lat="43.88689" lon="7.44394">
        <ele>486.79998779297</ele>
        <time>2022-01-15T09:40:05.000Z</time>
      </trkpt>
      <trkpt lat="43.88683" lon="7.44398">
        <ele>487.79998779297</ele>
        <time>2022-01-15T09:40:09.000Z</time>
      </trkpt>
      <trkpt lat="43.88674" lon="7.44404">
        <ele>488.79998779297</ele>
        <time>2022-01-15T09:40:16.000Z</time>
      </trkpt>
      <trkpt lat="43.88668" lon="7.44409">
        <ele>489.39999389648</ele>
        <time>2022-01-15T09:40:20.000Z</time>
      </trkpt>
      <trkpt lat="43.88664" lon="7.4441">
        <ele>489.60000610352</ele>
        <time>2022-01-15T09:40:22.000Z</time>
      </trkpt>
      <trkpt lat="43.88661" lon="7.44411">
        <ele>489</ele>
        <time>2022-01-15T09:40:26.000Z</time>
      </trkpt>
      <trkpt lat="43.88661" lon="7.44412">
        <ele>488.39999389648</ele>
        <time>2022-01-15T09:40:41.000Z</time>
      </trkpt>
      <trkpt lat="43.8866" lon="7.44413">
        <ele>488.20001220703</ele>
        <time>2022-01-15T09:41:01.000Z</time>
      </trkpt>
      <trkpt lat="43.88658" lon="7.44414">
        <ele>488.20001220703</ele>
        <time>2022-01-15T09:41:07.000Z</time>
      </trkpt>
      <trkpt lat="43.88656" lon="7.44414">
        <ele>488.20001220703</ele>
        <time>2022-01-15T09:41:08.000Z</time>
      </trkpt>
      <trkpt lat="43.88645" lon="7.44411">
        <ele>487.60000610352</ele>
        <time>2022-01-15T09:41:11.000Z</time>
      </trkpt>
      <trkpt lat="43.88642" lon="7.44409">
        <ele>487</ele>
        <time>2022-01-15T09:41:12.000Z</time>
      </trkpt>
      <trkpt lat="43.88634" lon="7.44407">
        <ele>486.20001220703</ele>
        <time>2022-01-15T09:41:14.000Z</time>
      </trkpt>
      <trkpt lat="43.88622" lon="7.44404">
        <ele>485</ele>
        <time>2022-01-15T09:41:17.000Z</time>
      </trkpt>
      <trkpt lat="43.88619" lon="7.44403">
        <ele>484</ele>
        <time>2022-01-15T09:41:18.000Z</time>
      </trkpt>
      <trkpt lat="43.88613" lon="7.44398">
        <ele>483.79998779297</ele>
        <time>2022-01-15T09:41:20.000Z</time>
      </trkpt>
      <trkpt lat="43.88606" lon="7.44394">
        <ele>483.20001220703</ele>
        <time>2022-01-15T09:41:22.000Z</time>
      </trkpt>
      <trkpt lat="43.88593" lon="7.44392">
        <ele>482.60000610352</ele>
        <time>2022-01-15T09:41:25.000Z</time>
      </trkpt>
      <trkpt lat="43.88585" lon="7.44388">
        <ele>481.39999389648</ele>
        <time>2022-01-15T09:41:27.000Z</time>
      </trkpt>
      <trkpt lat="43.8858" lon="7.44388">
        <ele>480.60000610352</ele>
        <time>2022-01-15T09:41:28.000Z</time>
      </trkpt>
      <trkpt lat="43.88576" lon="7.44387">
        <ele>479.79998779297</ele>
        <time>2022-01-15T09:41:29.000Z</time>
      </trkpt>
      <trkpt lat="43.8857" lon="7.44385">
        <ele>479.20001220703</ele>
        <time>2022-01-15T09:41:30.000Z</time>
      </trkpt>
      <trkpt lat="43.88566" lon="7.44381">
        <ele>478.39999389648</ele>
        <time>2022-01-15T09:41:31.000Z</time>
      </trkpt>
      <trkpt lat="43.88549" lon="7.44374">
        <ele>477</ele>
        <time>2022-01-15T09:41:34.000Z</time>
      </trkpt>
      <trkpt lat="43.88536" lon="7.44373">
        <ele>475.79998779297</ele>
        <time>2022-01-15T09:41:36.000Z</time>
      </trkpt>
      <trkpt lat="43.88521" lon="7.44371">
        <ele>474.39999389648</ele>
        <time>2022-01-15T09:41:38.000Z</time>
      </trkpt>
      <trkpt lat="43.88513" lon="7.44371">
        <ele>473.60000610352</ele>
        <time>2022-01-15T09:41:39.000Z</time>
      </trkpt>
      <trkpt lat="43.88505" lon="7.44374">
        <ele>472.79998779297</ele>
        <time>2022-01-15T09:41:40.000Z</time>
      </trkpt>
      <trkpt lat="43.88491" lon="7.44377">
        <ele>470.60000610352</ele>
        <time>2022-01-15T09:41:42.000Z</time>
      </trkpt>
      <trkpt lat="43.88483" lon="7.44378">
        <ele>469.60000610352</ele>
        <time>2022-01-15T09:41:43.000Z</time>
      </trkpt>
      <trkpt lat="43.88476" lon="7.44379">
        <ele>468.39999389648</ele>
        <time>2022-01-15T09:41:44.000Z</time>
      </trkpt>
      <trkpt lat="43.88467" lon="7.44382">
        <ele>467.79998779297</ele>
        <time>2022-01-15T09:41:45.000Z</time>
      </trkpt>
      <trkpt lat="43.88459" lon="7.44387">
        <ele>466.60000610352</ele>
        <time>2022-01-15T09:41:46.000Z</time>
      </trkpt>
      <trkpt lat="43.88451" lon="7.44388">
        <ele>465.79998779297</ele>
        <time>2022-01-15T09:41:47.000Z</time>
      </trkpt>
      <trkpt lat="43.88445" lon="7.44388">
        <ele>465.20001220703</ele>
        <time>2022-01-15T09:41:48.000Z</time>
      </trkpt>
      <trkpt lat="43.88437" lon="7.44388">
        <ele>464.39999389648</ele>
        <time>2022-01-15T09:41:49.000Z</time>
      </trkpt>
      <trkpt lat="43.8843" lon="7.44388">
        <ele>463.60000610352</ele>
        <time>2022-01-15T09:41:50.000Z</time>
      </trkpt>
      <trkpt lat="43.8841" lon="7.44389">
        <ele>462</ele>
        <time>2022-01-15T09:41:53.000Z</time>
      </trkpt>
      <trkpt lat="43.88406" lon="7.44389">
        <ele>461.39999389648</ele>
        <time>2022-01-15T09:41:54.000Z</time>
      </trkpt>
      <trkpt lat="43.88403" lon="7.44391">
        <ele>460.60000610352</ele>
        <time>2022-01-15T09:41:55.000Z</time>
      </trkpt>
      <trkpt lat="43.88401" lon="7.44391">
        <ele>459.39999389648</ele>
        <time>2022-01-15T09:41:57.000Z</time>
      </trkpt>
      <trkpt lat="43.88398" lon="7.44392">
        <ele>458.20001220703</ele>
        <time>2022-01-15T09:42:00.000Z</time>
      </trkpt>
      <trkpt lat="43.88395" lon="7.44393">
        <ele>458</ele>
        <time>2022-01-15T09:42:02.000Z</time>
      </trkpt>
      <trkpt lat="43.88388" lon="7.44396">
        <ele>457.39999389648</ele>
        <time>2022-01-15T09:42:04.000Z</time>
      </trkpt>
      <trkpt lat="43.88385" lon="7.44393">
        <ele>456.79998779297</ele>
        <time>2022-01-15T09:42:05.000Z</time>
      </trkpt>
      <trkpt lat="43.88386" lon="7.44381">
        <ele>455.39999389648</ele>
        <time>2022-01-15T09:42:07.000Z</time>
      </trkpt>
      <trkpt lat="43.8838" lon="7.44377">
        <ele>453.60000610352</ele>
        <time>2022-01-15T09:42:09.000Z</time>
      </trkpt>
      <trkpt lat="43.88373" lon="7.44376">
        <ele>451.79998779297</ele>
        <time>2022-01-15T09:42:11.000Z</time>
      </trkpt>
      <trkpt lat="43.88371" lon="7.44363">
        <ele>449.79998779297</ele>
        <time>2022-01-15T09:42:13.000Z</time>
      </trkpt>
      <trkpt lat="43.88368" lon="7.44363">
        <ele>448.79998779297</ele>
        <time>2022-01-15T09:42:14.000Z</time>
      </trkpt>
      <trkpt lat="43.88364" lon="7.44366">
        <ele>447.39999389648</ele>
        <time>2022-01-15T09:42:15.000Z</time>
      </trkpt>
      <trkpt lat="43.88359" lon="7.44369">
        <ele>446.39999389648</ele>
        <time>2022-01-15T09:42:16.000Z</time>
      </trkpt>
      <trkpt lat="43.88356" lon="7.44372">
        <ele>445.39999389648</ele>
        <time>2022-01-15T09:42:17.000Z</time>
      </trkpt>
      <trkpt lat="43.88353" lon="7.44377">
        <ele>444</ele>
        <time>2022-01-15T09:42:18.000Z</time>
      </trkpt>
      <trkpt lat="43.8835" lon="7.44381">
        <ele>443</ele>
        <time>2022-01-15T09:42:19.000Z</time>
      </trkpt>
      <trkpt lat="43.88348" lon="7.44386">
        <ele>442</ele>
        <time>2022-01-15T09:42:20.000Z</time>
      </trkpt>
      <trkpt lat="43.88344" lon="7.44389">
        <ele>440.79998779297</ele>
        <time>2022-01-15T09:42:21.000Z</time>
      </trkpt>
      <trkpt lat="43.88341" lon="7.44385">
        <ele>439</ele>
        <time>2022-01-15T09:42:22.000Z</time>
      </trkpt>
      <trkpt lat="43.88337" lon="7.44381">
        <ele>437.79998779297</ele>
        <time>2022-01-15T09:42:23.000Z</time>
      </trkpt>
      <trkpt lat="43.88333" lon="7.44378">
        <ele>436</ele>
        <time>2022-01-15T09:42:24.000Z</time>
      </trkpt>
      <trkpt lat="43.88328" lon="7.44376">
        <ele>434.20001220703</ele>
        <time>2022-01-15T09:42:25.000Z</time>
      </trkpt>
      <trkpt lat="43.88325" lon="7.44378">
        <ele>432.20001220703</ele>
        <time>2022-01-15T09:42:26.000Z</time>
      </trkpt>
      <trkpt lat="43.88325" lon="7.44384">
        <ele>430.60000610352</ele>
        <time>2022-01-15T09:42:27.000Z</time>
      </trkpt>
      <trkpt lat="43.88325" lon="7.44391">
        <ele>429</ele>
        <time>2022-01-15T09:42:28.000Z</time>
      </trkpt>
      <trkpt lat="43.88321" lon="7.44395">
        <ele>427.60000610352</ele>
        <time>2022-01-15T09:42:29.000Z</time>
      </trkpt>
      <trkpt lat="43.88315" lon="7.44397">
        <ele>426.79998779297</ele>
        <time>2022-01-15T09:42:30.000Z</time>
      </trkpt>
      <trkpt lat="43.88309" lon="7.44396">
        <ele>426.20001220703</ele>
        <time>2022-01-15T09:42:31.000Z</time>
      </trkpt>
      <trkpt lat="43.88303" lon="7.44393">
        <ele>425</ele>
        <time>2022-01-15T09:42:32.000Z</time>
      </trkpt>
      <trkpt lat="43.88298" lon="7.44387">
        <ele>424</ele>
        <time>2022-01-15T09:42:33.000Z</time>
      </trkpt>
      <trkpt lat="43.88295" lon="7.44381">
        <ele>423.20001220703</ele>
        <time>2022-01-15T09:42:34.000Z</time>
      </trkpt>
      <trkpt lat="43.88292" lon="7.44375">
        <ele>421.79998779297</ele>
        <time>2022-01-15T09:42:35.000Z</time>
      </trkpt>
      <trkpt lat="43.88289" lon="7.44369">
        <ele>420.39999389648</ele>
        <time>2022-01-15T09:42:36.000Z</time>
      </trkpt>
      <trkpt lat="43.88285" lon="7.44368">
        <ele>419.39999389648</ele>
        <time>2022-01-15T09:42:37.000Z</time>
      </trkpt>
      <trkpt lat="43.88279" lon="7.44369">
        <ele>418.60000610352</ele>
        <time>2022-01-15T09:42:38.000Z</time>
      </trkpt>
      <trkpt lat="43.8827" lon="7.44371">
        <ele>416.39999389648</ele>
        <time>2022-01-15T09:42:40.000Z</time>
      </trkpt>
      <trkpt lat="43.88268" lon="7.44373">
        <ele>416.79998779297</ele>
        <time>2022-01-15T09:42:41.000Z</time>
      </trkpt>
      <trkpt lat="43.88266" lon="7.44375">
        <ele>416.79998779297</ele>
        <time>2022-01-15T09:42:42.000Z</time>
      </trkpt>
      <trkpt lat="43.88266" lon="7.44378">
        <ele>415.20001220703</ele>
        <time>2022-01-15T09:42:44.000Z</time>
      </trkpt>
      <trkpt lat="43.88265" lon="7.44382">
        <ele>414</ele>
        <time>2022-01-15T09:42:46.000Z</time>
      </trkpt>
      <trkpt lat="43.8826" lon="7.44385">
        <ele>412.79998779297</ele>
        <time>2022-01-15T09:42:48.000Z</time>
      </trkpt>
      <trkpt lat="43.88258" lon="7.44382">
        <ele>412</ele>
        <time>2022-01-15T09:42:49.000Z</time>
      </trkpt>
      <trkpt lat="43.88258" lon="7.4438">
        <ele>411.20001220703</ele>
        <time>2022-01-15T09:42:50.000Z</time>
      </trkpt>
      <trkpt lat="43.88258" lon="7.4438">
        <ele>409.39999389648</ele>
        <time>2022-01-15T09:42:52.000Z</time>
      </trkpt>
      <trkpt lat="43.88257" lon="7.44378">
        <ele>408.60000610352</ele>
        <time>2022-01-15T09:43:05.000Z</time>
      </trkpt>
      <trkpt lat="43.88255" lon="7.44376">
        <ele>408.39999389648</ele>
        <time>2022-01-15T09:43:08.000Z</time>
      </trkpt>
      <trkpt lat="43.88253" lon="7.4437">
        <ele>407.39999389648</ele>
        <time>2022-01-15T09:43:11.000Z</time>
      </trkpt>
      <trkpt lat="43.88253" lon="7.44369">
        <ele>406.79998779297</ele>
        <time>2022-01-15T09:43:12.000Z</time>
      </trkpt>
      <trkpt lat="43.88253" lon="7.44368">
        <ele>405.79998779297</ele>
        <time>2022-01-15T09:43:15.000Z</time>
      </trkpt>
      <trkpt lat="43.88252" lon="7.44366">
        <ele>404.60000610352</ele>
        <time>2022-01-15T09:43:20.000Z</time>
      </trkpt>
      <trkpt lat="43.88252" lon="7.44363">
        <ele>403.39999389648</ele>
        <time>2022-01-15T09:43:23.000Z</time>
      </trkpt>
      <trkpt lat="43.88251" lon="7.44362">
        <ele>403</ele>
        <time>2022-01-15T09:43:24.000Z</time>
      </trkpt>
      <trkpt lat="43.88249" lon="7.44363">
        <ele>402.20001220703</ele>
        <time>2022-01-15T09:43:26.000Z</time>
      </trkpt>
      <trkpt lat="43.88248" lon="7.4436">
        <ele>401</ele>
        <time>2022-01-15T09:43:28.000Z</time>
      </trkpt>
      <trkpt lat="43.88243" lon="7.44354">
        <ele>399</ele>
        <time>2022-01-15T09:43:30.000Z</time>
      </trkpt>
      <trkpt lat="43.88238" lon="7.44353">
        <ele>397.60000610352</ele>
        <time>2022-01-15T09:43:31.000Z</time>
      </trkpt>
      <trkpt lat="43.88233" lon="7.44352">
        <ele>396</ele>
        <time>2022-01-15T09:43:32.000Z</time>
      </trkpt>
      <trkpt lat="43.88227" lon="7.44352">
        <ele>393.79998779297</ele>
        <time>2022-01-15T09:43:33.000Z</time>
      </trkpt>
      <trkpt lat="43.8822" lon="7.4435">
        <ele>391.60000610352</ele>
        <time>2022-01-15T09:43:35.000Z</time>
      </trkpt>
      <trkpt lat="43.88218" lon="7.44349">
        <ele>390.60000610352</ele>
        <time>2022-01-15T09:43:36.000Z</time>
      </trkpt>
      <trkpt lat="43.88214" lon="7.44345">
        <ele>390.60000610352</ele>
        <time>2022-01-15T09:43:39.000Z</time>
      </trkpt>
      <trkpt lat="43.88215" lon="7.44345">
        <ele>391.60000610352</ele>
        <time>2022-01-15T09:43:42.000Z</time>
      </trkpt>
      <trkpt lat="43.88215" lon="7.44345">
        <ele>392</ele>
        <time>2022-01-15T09:43:44.000Z</time>
      </trkpt>
      <trkpt lat="43.88214" lon="7.44347">
        <ele>392</ele>
        <time>2022-01-15T09:44:07.000Z</time>
      </trkpt>
      <trkpt lat="43.88215" lon="7.44347">
        <ele>392.20001220703</ele>
        <time>2022-01-15T09:44:20.000Z</time>
      </trkpt>
      <trkpt lat="43.88215" lon="7.44348">
        <ele>392</ele>
        <time>2022-01-15T09:44:34.000Z</time>
      </trkpt>
      <trkpt lat="43.88215" lon="7.44347">
        <ele>391.79998779297</ele>
        <time>2022-01-15T09:44:49.000Z</time>
      </trkpt>
      <trkpt lat="43.88214" lon="7.44346">
        <ele>392</ele>
        <time>2022-01-15T09:44:58.000Z</time>
      </trkpt>
      <trkpt lat="43.8821" lon="7.4434">
        <ele>392.60000610352</ele>
        <time>2022-01-15T09:45:04.000Z</time>
      </trkpt>
      <trkpt lat="43.8821" lon="7.44339">
        <ele>392.79998779297</ele>
        <time>2022-01-15T09:45:05.000Z</time>
      </trkpt>
      <trkpt lat="43.8821" lon="7.44338">
        <ele>393</ele>
        <time>2022-01-15T09:45:10.000Z</time>
      </trkpt>
      <trkpt lat="43.88206" lon="7.44334">
        <ele>393</ele>
        <time>2022-01-15T09:45:16.000Z</time>
      </trkpt>
      <trkpt lat="43.882" lon="7.44324">
        <ele>393</ele>
        <time>2022-01-15T09:45:23.000Z</time>
      </trkpt>
      <trkpt lat="43.88192" lon="7.44317">
        <ele>392.60000610352</ele>
        <time>2022-01-15T09:45:29.000Z</time>
      </trkpt>
      <trkpt lat="43.88183" lon="7.44312">
        <ele>392.39999389648</ele>
        <time>2022-01-15T09:45:34.000Z</time>
      </trkpt>
      <trkpt lat="43.88181" lon="7.44313">
        <ele>392.20001220703</ele>
        <time>2022-01-15T09:45:36.000Z</time>
      </trkpt>
      <trkpt lat="43.88178" lon="7.44316">
        <ele>392.39999389648</ele>
        <time>2022-01-15T09:45:39.000Z</time>
      </trkpt>
      <trkpt lat="43.88174" lon="7.44314">
        <ele>392.60000610352</ele>
        <time>2022-01-15T09:45:43.000Z</time>
      </trkpt>
      <trkpt lat="43.88171" lon="7.44311">
        <ele>392.60000610352</ele>
        <time>2022-01-15T09:45:45.000Z</time>
      </trkpt>
      <trkpt lat="43.88166" lon="7.44311">
        <ele>392.60000610352</ele>
        <time>2022-01-15T09:45:48.000Z</time>
      </trkpt>
      <trkpt lat="43.88165" lon="7.44313">
        <ele>392.60000610352</ele>
        <time>2022-01-15T09:45:49.000Z</time>
      </trkpt>
      <trkpt lat="43.88163" lon="7.44323">
        <ele>391.60000610352</ele>
        <time>2022-01-15T09:45:52.000Z</time>
      </trkpt>
      <trkpt lat="43.8816" lon="7.44328">
        <ele>390.79998779297</ele>
        <time>2022-01-15T09:45:53.000Z</time>
      </trkpt>
      <trkpt lat="43.88157" lon="7.44329">
        <ele>390.20001220703</ele>
        <time>2022-01-15T09:45:54.000Z</time>
      </trkpt>
      <trkpt lat="43.88154" lon="7.44327">
        <ele>389.39999389648</ele>
        <time>2022-01-15T09:45:55.000Z</time>
      </trkpt>
      <trkpt lat="43.8815" lon="7.44323">
        <ele>388.79998779297</ele>
        <time>2022-01-15T09:45:56.000Z</time>
      </trkpt>
      <trkpt lat="43.88141" lon="7.44323">
        <ele>387.60000610352</ele>
        <time>2022-01-15T09:45:58.000Z</time>
      </trkpt>
      <trkpt lat="43.88136" lon="7.44325">
        <ele>387.39999389648</ele>
        <time>2022-01-15T09:45:59.000Z</time>
      </trkpt>
      <trkpt lat="43.8813" lon="7.44324">
        <ele>387</ele>
        <time>2022-01-15T09:46:00.000Z</time>
      </trkpt>
      <trkpt lat="43.88126" lon="7.44322">
        <ele>386</ele>
        <time>2022-01-15T09:46:01.000Z</time>
      </trkpt>
      <trkpt lat="43.8812" lon="7.44323">
        <ele>384.79998779297</ele>
        <time>2022-01-15T09:46:03.000Z</time>
      </trkpt>
      <trkpt lat="43.88119" lon="7.44326">
        <ele>384.39999389648</ele>
        <time>2022-01-15T09:46:04.000Z</time>
      </trkpt>
      <trkpt lat="43.88123" lon="7.44334">
        <ele>384.39999389648</ele>
        <time>2022-01-15T09:46:08.000Z</time>
      </trkpt>
      <trkpt lat="43.88124" lon="7.44335">
        <ele>384.20001220703</ele>
        <time>2022-01-15T09:46:09.000Z</time>
      </trkpt>
      <trkpt lat="43.88128" lon="7.44338">
        <ele>384.39999389648</ele>
        <time>2022-01-15T09:46:13.000Z</time>
      </trkpt>
      <trkpt lat="43.8813" lon="7.44343">
        <ele>384.39999389648</ele>
        <time>2022-01-15T09:46:18.000Z</time>
      </trkpt>
      <trkpt lat="43.88131" lon="7.44349">
        <ele>384.39999389648</ele>
        <time>2022-01-15T09:46:28.000Z</time>
      </trkpt>
      <trkpt lat="43.88131" lon="7.44361">
        <ele>384</ele>
        <time>2022-01-15T09:46:33.000Z</time>
      </trkpt>
      <trkpt lat="43.88127" lon="7.44363">
        <ele>383.60000610352</ele>
        <time>2022-01-15T09:46:34.000Z</time>
      </trkpt>
      <trkpt lat="43.88123" lon="7.44363">
        <ele>382.79998779297</ele>
        <time>2022-01-15T09:46:35.000Z</time>
      </trkpt>
      <trkpt lat="43.88118" lon="7.44362">
        <ele>382</ele>
        <time>2022-01-15T09:46:36.000Z</time>
      </trkpt>
      <trkpt lat="43.88113" lon="7.44362">
        <ele>380.79998779297</ele>
        <time>2022-01-15T09:46:37.000Z</time>
      </trkpt>
      <trkpt lat="43.88107" lon="7.44364">
        <ele>379.79998779297</ele>
        <time>2022-01-15T09:46:38.000Z</time>
      </trkpt>
      <trkpt lat="43.88102" lon="7.44366">
        <ele>379</ele>
        <time>2022-01-15T09:46:39.000Z</time>
      </trkpt>
      <trkpt lat="43.88091" lon="7.44366">
        <ele>377.79998779297</ele>
        <time>2022-01-15T09:46:41.000Z</time>
      </trkpt>
      <trkpt lat="43.88089" lon="7.44367">
        <ele>377.60000610352</ele>
        <time>2022-01-15T09:46:42.000Z</time>
      </trkpt>
      <trkpt lat="43.88087" lon="7.44369">
        <ele>377</ele>
        <time>2022-01-15T09:46:43.000Z</time>
      </trkpt>
      <trkpt lat="43.88085" lon="7.44372">
        <ele>376.60000610352</ele>
        <time>2022-01-15T09:46:44.000Z</time>
      </trkpt>
      <trkpt lat="43.88077" lon="7.44379">
        <ele>375.60000610352</ele>
        <time>2022-01-15T09:46:46.000Z</time>
      </trkpt>
      <trkpt lat="43.88077" lon="7.44383">
        <ele>375.20001220703</ele>
        <time>2022-01-15T09:46:47.000Z</time>
      </trkpt>
      <trkpt lat="43.88079" lon="7.44387">
        <ele>374.39999389648</ele>
        <time>2022-01-15T09:46:48.000Z</time>
      </trkpt>
      <trkpt lat="43.88082" lon="7.4439">
        <ele>373.60000610352</ele>
        <time>2022-01-15T09:46:49.000Z</time>
      </trkpt>
      <trkpt lat="43.88085" lon="7.44394">
        <ele>372.60000610352</ele>
        <time>2022-01-15T09:46:50.000Z</time>
      </trkpt>
      <trkpt lat="43.88084" lon="7.44398">
        <ele>371</ele>
        <time>2022-01-15T09:46:51.000Z</time>
      </trkpt>
      <trkpt lat="43.88081" lon="7.44401">
        <ele>369.79998779297</ele>
        <time>2022-01-15T09:46:52.000Z</time>
      </trkpt>
      <trkpt lat="43.88072" lon="7.44409">
        <ele>368.20001220703</ele>
        <time>2022-01-15T09:46:54.000Z</time>
      </trkpt>
      <trkpt lat="43.88056" lon="7.44412">
        <ele>367.39999389648</ele>
        <time>2022-01-15T09:46:58.000Z</time>
      </trkpt>
      <trkpt lat="43.88052" lon="7.44413">
        <ele>367</ele>
        <time>2022-01-15T09:46:59.000Z</time>
      </trkpt>
      <trkpt lat="43.88046" lon="7.44415">
        <ele>365.79998779297</ele>
        <time>2022-01-15T09:47:01.000Z</time>
      </trkpt>
      <trkpt lat="43.88045" lon="7.44418">
        <ele>365.20001220703</ele>
        <time>2022-01-15T09:47:02.000Z</time>
      </trkpt>
      <trkpt lat="43.88044" lon="7.44422">
        <ele>364</ele>
        <time>2022-01-15T09:47:03.000Z</time>
      </trkpt>
      <trkpt lat="43.88041" lon="7.44427">
        <ele>362.79998779297</ele>
        <time>2022-01-15T09:47:05.000Z</time>
      </trkpt>
      <trkpt lat="43.88041" lon="7.4443">
        <ele>362.39999389648</ele>
        <time>2022-01-15T09:47:06.000Z</time>
      </trkpt>
      <trkpt lat="43.88041" lon="7.44431">
        <ele>362.20001220703</ele>
        <time>2022-01-15T09:47:10.000Z</time>
      </trkpt>
      <trkpt lat="43.88039" lon="7.44435">
        <ele>362.20001220703</ele>
        <time>2022-01-15T09:47:29.000Z</time>
      </trkpt>
      <trkpt lat="43.88039" lon="7.44441">
        <ele>362.20001220703</ele>
        <time>2022-01-15T09:47:32.000Z</time>
      </trkpt>
      <trkpt lat="43.88038" lon="7.44446">
        <ele>362</ele>
        <time>2022-01-15T09:47:34.000Z</time>
      </trkpt>
      <trkpt lat="43.88036" lon="7.44455">
        <ele>361.79998779297</ele>
        <time>2022-01-15T09:47:37.000Z</time>
      </trkpt>
      <trkpt lat="43.88032" lon="7.44465">
        <ele>361.60000610352</ele>
        <time>2022-01-15T09:47:40.000Z</time>
      </trkpt>
      <trkpt lat="43.88024" lon="7.44492">
        <ele>361.20001220703</ele>
        <time>2022-01-15T09:47:46.000Z</time>
      </trkpt>
      <trkpt lat="43.88019" lon="7.44504">
        <ele>360.79998779297</ele>
        <time>2022-01-15T09:47:49.000Z</time>
      </trkpt>
      <trkpt lat="43.88013" lon="7.44516">
        <ele>360.39999389648</ele>
        <time>2022-01-15T09:47:52.000Z</time>
      </trkpt>
      <trkpt lat="43.88003" lon="7.44538">
        <ele>360</ele>
        <time>2022-01-15T09:47:58.000Z</time>
      </trkpt>
      <trkpt lat="43.87993" lon="7.44552">
        <ele>360</ele>
        <time>2022-01-15T09:48:03.000Z</time>
      </trkpt>
      <trkpt lat="43.87981" lon="7.44566">
        <ele>359.60000610352</ele>
        <time>2022-01-15T09:48:08.000Z</time>
      </trkpt>
      <trkpt lat="43.87975" lon="7.44571">
        <ele>359.60000610352</ele>
        <time>2022-01-15T09:48:10.000Z</time>
      </trkpt>
      <trkpt lat="43.87951" lon="7.44594">
        <ele>359.20001220703</ele>
        <time>2022-01-15T09:48:19.000Z</time>
      </trkpt>
      <trkpt lat="43.87938" lon="7.44609">
        <ele>359.39999389648</ele>
        <time>2022-01-15T09:48:25.000Z</time>
      </trkpt>
      <trkpt lat="43.87922" lon="7.44626">
        <ele>359.39999389648</ele>
        <time>2022-01-15T09:48:32.000Z</time>
      </trkpt>
      <trkpt lat="43.87906" lon="7.44642">
        <ele>359.39999389648</ele>
        <time>2022-01-15T09:48:38.000Z</time>
      </trkpt>
      <trkpt lat="43.87889" lon="7.44659">
        <ele>358.20001220703</ele>
        <time>2022-01-15T09:48:42.000Z</time>
      </trkpt>
      <trkpt lat="43.87884" lon="7.44663">
        <ele>357.60000610352</ele>
        <time>2022-01-15T09:48:43.000Z</time>
      </trkpt>
      <trkpt lat="43.87875" lon="7.44671">
        <ele>357</ele>
        <time>2022-01-15T09:48:45.000Z</time>
      </trkpt>
      <trkpt lat="43.87867" lon="7.44682">
        <ele>356.39999389648</ele>
        <time>2022-01-15T09:48:47.000Z</time>
      </trkpt>
      <trkpt lat="43.87862" lon="7.44693">
        <ele>356</ele>
        <time>2022-01-15T09:48:49.000Z</time>
      </trkpt>
      <trkpt lat="43.87857" lon="7.44705">
        <ele>355.79998779297</ele>
        <time>2022-01-15T09:48:51.000Z</time>
      </trkpt>
      <trkpt lat="43.87852" lon="7.44721">
        <ele>355.60000610352</ele>
        <time>2022-01-15T09:48:54.000Z</time>
      </trkpt>
      <trkpt lat="43.87851" lon="7.44727">
        <ele>355.60000610352</ele>
        <time>2022-01-15T09:48:55.000Z</time>
      </trkpt>
      <trkpt lat="43.87846" lon="7.44737">
        <ele>355.60000610352</ele>
        <time>2022-01-15T09:48:57.000Z</time>
      </trkpt>
      <trkpt lat="43.87839" lon="7.4474">
        <ele>355.79998779297</ele>
        <time>2022-01-15T09:48:59.000Z</time>
      </trkpt>
      <trkpt lat="43.87832" lon="7.44738">
        <ele>356</ele>
        <time>2022-01-15T09:49:01.000Z</time>
      </trkpt>
      <trkpt lat="43.87823" lon="7.44736">
        <ele>356.39999389648</ele>
        <time>2022-01-15T09:49:04.000Z</time>
      </trkpt>
      <trkpt lat="43.87805" lon="7.44733">
        <ele>357</ele>
        <time>2022-01-15T09:49:10.000Z</time>
      </trkpt>
      <trkpt lat="43.87797" lon="7.44734">
        <ele>357.20001220703</ele>
        <time>2022-01-15T09:49:13.000Z</time>
      </trkpt>
      <trkpt lat="43.87787" lon="7.44743">
        <ele>357.39999389648</ele>
        <time>2022-01-15T09:49:18.000Z</time>
      </trkpt>
      <trkpt lat="43.8779" lon="7.4476">
        <ele>357.39999389648</ele>
        <time>2022-01-15T09:49:23.000Z</time>
      </trkpt>
      <trkpt lat="43.8779" lon="7.44769">
        <ele>357.39999389648</ele>
        <time>2022-01-15T09:49:27.000Z</time>
      </trkpt>
      <trkpt lat="43.87789" lon="7.44776">
        <ele>357.39999389648</ele>
        <time>2022-01-15T09:49:31.000Z</time>
      </trkpt>
      <trkpt lat="43.87789" lon="7.44778">
        <ele>357.60000610352</ele>
        <time>2022-01-15T09:49:32.000Z</time>
      </trkpt>
      <trkpt lat="43.87791" lon="7.44793">
        <ele>357.39999389648</ele>
        <time>2022-01-15T09:49:36.000Z</time>
      </trkpt>
      <trkpt lat="43.8779" lon="7.448">
        <ele>357.20001220703</ele>
        <time>2022-01-15T09:49:38.000Z</time>
      </trkpt>
      <trkpt lat="43.87788" lon="7.44818">
        <ele>357.20001220703</ele>
        <time>2022-01-15T09:49:43.000Z</time>
      </trkpt>
      <trkpt lat="43.87785" lon="7.44843">
        <ele>357.39999389648</ele>
        <time>2022-01-15T09:49:51.000Z</time>
      </trkpt>
      <trkpt lat="43.87784" lon="7.44858">
        <ele>357.79998779297</ele>
        <time>2022-01-15T09:49:58.000Z</time>
      </trkpt>
      <trkpt lat="43.87782" lon="7.44864">
        <ele>358</ele>
        <time>2022-01-15T09:50:03.000Z</time>
      </trkpt>
      <trkpt lat="43.87782" lon="7.44863">
        <ele>358</ele>
        <time>2022-01-15T09:50:04.000Z</time>
      </trkpt>
      <trkpt lat="43.87781" lon="7.44865">
        <ele>358.20001220703</ele>
        <time>2022-01-15T09:50:09.000Z</time>
      </trkpt>
      <trkpt lat="43.87781" lon="7.44867">
        <ele>358</ele>
        <time>2022-01-15T09:50:15.000Z</time>
      </trkpt>
      <trkpt lat="43.87781" lon="7.44869">
        <ele>357.79998779297</ele>
        <time>2022-01-15T09:50:21.000Z</time>
      </trkpt>
      <trkpt lat="43.87781" lon="7.44869">
        <ele>357.79998779297</ele>
        <time>2022-01-15T09:50:26.000Z</time>
      </trkpt>
      <trkpt lat="43.87782" lon="7.44875">
        <ele>357.60000610352</ele>
        <time>2022-01-15T09:50:30.000Z</time>
      </trkpt>
      <trkpt lat="43.87781" lon="7.44877">
        <ele>357.79998779297</ele>
        <time>2022-01-15T09:50:31.000Z</time>
      </trkpt>
      <trkpt lat="43.8778" lon="7.44896">
        <ele>358.20001220703</ele>
        <time>2022-01-15T09:50:38.000Z</time>
      </trkpt>
      <trkpt lat="43.87773" lon="7.44914">
        <ele>358.60000610352</ele>
        <time>2022-01-15T09:50:44.000Z</time>
      </trkpt>
      <trkpt lat="43.87763" lon="7.44948">
        <ele>358.60000610352</ele>
        <time>2022-01-15T09:50:53.000Z</time>
      </trkpt>
      <trkpt lat="43.87757" lon="7.4497">
        <ele>359</ele>
        <time>2022-01-15T09:51:00.000Z</time>
      </trkpt>
      <trkpt lat="43.87756" lon="7.44972">
        <ele>359</ele>
        <time>2022-01-15T09:51:01.000Z</time>
      </trkpt>
      <trkpt lat="43.87757" lon="7.44974">
        <ele>359</ele>
        <time>2022-01-15T09:51:02.000Z</time>
      </trkpt>
      <trkpt lat="43.8776" lon="7.44973">
        <ele>359</ele>
        <time>2022-01-15T09:51:05.000Z</time>
      </trkpt>
      <trkpt lat="43.87764" lon="7.4496">
        <ele>359</ele>
        <time>2022-01-15T09:51:10.000Z</time>
      </trkpt>
      <trkpt lat="43.8777" lon="7.44941">
        <ele>359</ele>
        <time>2022-01-15T09:51:18.000Z</time>
      </trkpt>
      <trkpt lat="43.87776" lon="7.44922">
        <ele>359</ele>
        <time>2022-01-15T09:51:25.000Z</time>
      </trkpt>
      <trkpt lat="43.87781" lon="7.44908">
        <ele>358.79998779297</ele>
        <time>2022-01-15T09:51:31.000Z</time>
      </trkpt>
      <trkpt lat="43.87784" lon="7.44895">
        <ele>358.79998779297</ele>
        <time>2022-01-15T09:51:36.000Z</time>
      </trkpt>
      <trkpt lat="43.87784" lon="7.44878">
        <ele>358.60000610352</ele>
        <time>2022-01-15T09:51:41.000Z</time>
      </trkpt>
      <trkpt lat="43.87783" lon="7.44874">
        <ele>358.39999389648</ele>
        <time>2022-01-15T09:51:45.000Z</time>
      </trkpt>
      <trkpt lat="43.87783" lon="7.44873">
        <ele>358.39999389648</ele>
        <time>2022-01-15T09:51:50.000Z</time>
      </trkpt>
      <trkpt lat="43.87783" lon="7.44873">
        <ele>358.20001220703</ele>
        <time>2022-01-15T09:51:55.000Z</time>
      </trkpt>
      <trkpt lat="43.87782" lon="7.44874">
        <ele>358.60000610352</ele>
        <time>2022-01-15T09:52:03.000Z</time>
      </trkpt>
      <trkpt lat="43.87782" lon="7.44873">
        <ele>358.39999389648</ele>
        <time>2022-01-15T09:52:12.000Z</time>
      </trkpt>
      <trkpt lat="43.87782" lon="7.44872">
        <ele>358.39999389648</ele>
        <time>2022-01-15T09:52:19.000Z</time>
      </trkpt>
      <trkpt lat="43.8778" lon="7.44871">
        <ele>358</ele>
        <time>2022-01-15T09:52:28.000Z</time>
      </trkpt>
      <trkpt lat="43.87779" lon="7.44871">
        <ele>358</ele>
        <time>2022-01-15T09:52:29.000Z</time>
      </trkpt>
      <trkpt lat="43.87779" lon="7.44872">
        <ele>358.20001220703</ele>
        <time>2022-01-15T09:52:34.000Z</time>
      </trkpt>
      <trkpt lat="43.87777" lon="7.44873">
        <ele>358</ele>
        <time>2022-01-15T09:52:41.000Z</time>
      </trkpt>
      <trkpt lat="43.87779" lon="7.44873">
        <ele>357.79998779297</ele>
        <time>2022-01-15T09:52:49.000Z</time>
      </trkpt>
      <trkpt lat="43.8778" lon="7.44872">
        <ele>358.20001220703</ele>
        <time>2022-01-15T09:52:58.000Z</time>
      </trkpt>
      <trkpt lat="43.87781" lon="7.44872">
        <ele>358.20001220703</ele>
        <time>2022-01-15T09:53:08.000Z</time>
      </trkpt>
      <trkpt lat="43.87782" lon="7.44871">
        <ele>358</ele>
        <time>2022-01-15T09:53:15.000Z</time>
      </trkpt>
      <trkpt lat="43.87784" lon="7.44869">
        <ele>358.39999389648</ele>
        <time>2022-01-15T09:53:22.000Z</time>
      </trkpt>
      <trkpt lat="43.87785" lon="7.44863">
        <ele>357.60000610352</ele>
        <time>2022-01-15T09:53:28.000Z</time>
      </trkpt>
      <trkpt lat="43.87783" lon="7.44859">
        <ele>358.20001220703</ele>
        <time>2022-01-15T09:53:37.000Z</time>
      </trkpt>
      <trkpt lat="43.87783" lon="7.44856">
        <ele>357.60000610352</ele>
        <time>2022-01-15T09:53:44.000Z</time>
      </trkpt>
      <trkpt lat="43.87782" lon="7.44855">
        <ele>357.60000610352</ele>
        <time>2022-01-15T09:53:45.000Z</time>
      </trkpt>
      <trkpt lat="43.87781" lon="7.44851">
        <ele>357.79998779297</ele>
        <time>2022-01-15T09:53:49.000Z</time>
      </trkpt>
      <trkpt lat="43.87782" lon="7.44847">
        <ele>358.20001220703</ele>
        <time>2022-01-15T09:53:53.000Z</time>
      </trkpt>
      <trkpt lat="43.87782" lon="7.44846">
        <ele>358.20001220703</ele>
        <time>2022-01-15T09:53:54.000Z</time>
      </trkpt>
      <trkpt lat="43.87783" lon="7.44842">
        <ele>357.20001220703</ele>
        <time>2022-01-15T09:54:01.000Z</time>
      </trkpt>
      <trkpt lat="43.87783" lon="7.44839">
        <ele>357.20001220703</ele>
        <time>2022-01-15T09:54:14.000Z</time>
      </trkpt>
      <trkpt lat="43.87784" lon="7.44838">
        <ele>357.20001220703</ele>
        <time>2022-01-15T09:54:25.000Z</time>
      </trkpt>
      <trkpt lat="43.87784" lon="7.44838">
        <ele>357.20001220703</ele>
        <time>2022-01-15T09:54:33.000Z</time>
      </trkpt>
      <trkpt lat="43.87783" lon="7.44837">
        <ele>357.20001220703</ele>
        <time>2022-01-15T09:54:44.000Z</time>
      </trkpt>
      <trkpt lat="43.87784" lon="7.44837">
        <ele>357.60000610352</ele>
        <time>2022-01-15T09:54:57.000Z</time>
      </trkpt>
      <trkpt lat="43.87785" lon="7.44836">
        <ele>357.60000610352</ele>
        <time>2022-01-15T09:55:07.000Z</time>
      </trkpt>
      <trkpt lat="43.87786" lon="7.44839">
        <ele>357.60000610352</ele>
        <time>2022-01-15T09:55:14.000Z</time>
      </trkpt>
      <trkpt lat="43.87785" lon="7.44846">
        <ele>357.20001220703</ele>
        <time>2022-01-15T09:55:19.000Z</time>
      </trkpt>
      <trkpt lat="43.87785" lon="7.44849">
        <ele>357.39999389648</ele>
        <time>2022-01-15T09:55:21.000Z</time>
      </trkpt>
      <trkpt lat="43.87787" lon="7.44854">
        <ele>357.39999389648</ele>
        <time>2022-01-15T09:55:25.000Z</time>
      </trkpt>
      <trkpt lat="43.87786" lon="7.4486">
        <ele>357.60000610352</ele>
        <time>2022-01-15T09:55:31.000Z</time>
      </trkpt>
      <trkpt lat="43.87786" lon="7.44861">
        <ele>357.60000610352</ele>
        <time>2022-01-15T09:55:32.000Z</time>
      </trkpt>
      <trkpt lat="43.87785" lon="7.44867">
        <ele>357.60000610352</ele>
        <time>2022-01-15T09:55:36.000Z</time>
      </trkpt>
      <trkpt lat="43.87784" lon="7.44868">
        <ele>357.60000610352</ele>
        <time>2022-01-15T09:55:37.000Z</time>
      </trkpt>
      <trkpt lat="43.87783" lon="7.44869">
        <ele>358.39999389648</ele>
        <time>2022-01-15T09:55:43.000Z</time>
      </trkpt>
      <trkpt lat="43.87783" lon="7.44869">
        <ele>359</ele>
        <time>2022-01-15T09:55:49.000Z</time>
      </trkpt>
      <trkpt lat="43.87782" lon="7.4487">
        <ele>359.20001220703</ele>
        <time>2022-01-15T09:55:53.000Z</time>
      </trkpt>
      <trkpt lat="43.87782" lon="7.4487">
        <ele>358</ele>
        <time>2022-01-15T09:55:59.000Z</time>
      </trkpt>
      <trkpt lat="43.87781" lon="7.44871">
        <ele>358.20001220703</ele>
        <time>2022-01-15T09:56:09.000Z</time>
      </trkpt>
      <trkpt lat="43.87782" lon="7.44872">
        <ele>358.20001220703</ele>
        <time>2022-01-15T09:56:16.000Z</time>
      </trkpt>
      <trkpt lat="43.87781" lon="7.44871">
        <ele>358.39999389648</ele>
        <time>2022-01-15T09:56:25.000Z</time>
      </trkpt>
      <trkpt lat="43.87784" lon="7.44871">
        <ele>358</ele>
        <time>2022-01-15T09:56:35.000Z</time>
      </trkpt>
      <trkpt lat="43.87783" lon="7.4487">
        <ele>357.79998779297</ele>
        <time>2022-01-15T09:56:47.000Z</time>
      </trkpt>
      <trkpt lat="43.87783" lon="7.44871">
        <ele>357.79998779297</ele>
        <time>2022-01-15T09:57:00.000Z</time>
      </trkpt>
      <trkpt lat="43.87782" lon="7.44871">
        <ele>358</ele>
        <time>2022-01-15T09:57:08.000Z</time>
      </trkpt>
      <trkpt lat="43.87781" lon="7.44871">
        <ele>358.20001220703</ele>
        <time>2022-01-15T09:57:15.000Z</time>
      </trkpt>
      <trkpt lat="43.87785" lon="7.44871">
        <ele>358</ele>
        <time>2022-01-15T09:57:28.000Z</time>
      </trkpt>
      <trkpt lat="43.87787" lon="7.44868">
        <ele>358.39999389648</ele>
        <time>2022-01-15T09:57:36.000Z</time>
      </trkpt>
      <trkpt lat="43.87786" lon="7.44867">
        <ele>358.60000610352</ele>
        <time>2022-01-15T09:57:45.000Z</time>
      </trkpt>
      <trkpt lat="43.87788" lon="7.44866">
        <ele>358.79998779297</ele>
        <time>2022-01-15T09:57:50.000Z</time>
      </trkpt>
      <trkpt lat="43.87787" lon="7.44868">
        <ele>358.60000610352</ele>
        <time>2022-01-15T09:57:54.000Z</time>
      </trkpt>
      <trkpt lat="43.87785" lon="7.44877">
        <ele>358.39999389648</ele>
        <time>2022-01-15T09:58:01.000Z</time>
      </trkpt>
      <trkpt lat="43.87783" lon="7.449">
        <ele>358.60000610352</ele>
        <time>2022-01-15T09:58:09.000Z</time>
      </trkpt>
      <trkpt lat="43.87779" lon="7.44916">
        <ele>359</ele>
        <time>2022-01-15T09:58:15.000Z</time>
      </trkpt>
      <trkpt lat="43.87778" lon="7.4492">
        <ele>359</ele>
        <time>2022-01-15T09:58:16.000Z</time>
      </trkpt>
      <trkpt lat="43.87771" lon="7.44946">
        <ele>359.20001220703</ele>
        <time>2022-01-15T09:58:23.000Z</time>
      </trkpt>
      <trkpt lat="43.87766" lon="7.44974">
        <ele>359.39999389648</ele>
        <time>2022-01-15T09:58:31.000Z</time>
      </trkpt>
      <trkpt lat="43.87765" lon="7.44987">
        <ele>359.79998779297</ele>
        <time>2022-01-15T09:58:39.000Z</time>
      </trkpt>
      <trkpt lat="43.87763" lon="7.45005">
        <ele>359.60000610352</ele>
        <time>2022-01-15T09:58:47.000Z</time>
      </trkpt>
      <trkpt lat="43.87762" lon="7.45013">
        <ele>359.39999389648</ele>
        <time>2022-01-15T09:58:50.000Z</time>
      </trkpt>
      <trkpt lat="43.87761" lon="7.45023">
        <ele>359.39999389648</ele>
        <time>2022-01-15T09:58:53.000Z</time>
      </trkpt>
      <trkpt lat="43.87758" lon="7.45066">
        <ele>359.20001220703</ele>
        <time>2022-01-15T09:59:04.000Z</time>
      </trkpt>
      <trkpt lat="43.87759" lon="7.45094">
        <ele>359.20001220703</ele>
        <time>2022-01-15T09:59:11.000Z</time>
      </trkpt>
      <trkpt lat="43.87771" lon="7.4511">
        <ele>358.79998779297</ele>
        <time>2022-01-15T09:59:16.000Z</time>
      </trkpt>
      <trkpt lat="43.87795" lon="7.45136">
        <ele>358</ele>
        <time>2022-01-15T09:59:25.000Z</time>
      </trkpt>
      <trkpt lat="43.87798" lon="7.45139">
        <ele>358</ele>
        <time>2022-01-15T09:59:26.000Z</time>
      </trkpt>
      <trkpt lat="43.87799" lon="7.45145">
        <ele>358.20001220703</ele>
        <time>2022-01-15T09:59:27.000Z</time>
      </trkpt>
      <trkpt lat="43.87802" lon="7.45156">
        <ele>358</ele>
        <time>2022-01-15T09:59:29.000Z</time>
      </trkpt>
      <trkpt lat="43.87808" lon="7.4518">
        <ele>356.60000610352</ele>
        <time>2022-01-15T09:59:33.000Z</time>
      </trkpt>
      <trkpt lat="43.87812" lon="7.45199">
        <ele>355.60000610352</ele>
        <time>2022-01-15T09:59:36.000Z</time>
      </trkpt>
      <trkpt lat="43.87813" lon="7.45205">
        <ele>355.39999389648</ele>
        <time>2022-01-15T09:59:37.000Z</time>
      </trkpt>
      <trkpt lat="43.87822" lon="7.45242">
        <ele>354.39999389648</ele>
        <time>2022-01-15T09:59:42.000Z</time>
      </trkpt>
      <trkpt lat="43.87828" lon="7.45273">
        <ele>353.20001220703</ele>
        <time>2022-01-15T09:59:46.000Z</time>
      </trkpt>
      <trkpt lat="43.87836" lon="7.4531">
        <ele>351.79998779297</ele>
        <time>2022-01-15T09:59:51.000Z</time>
      </trkpt>
      <trkpt lat="43.8784" lon="7.45331">
        <ele>351.60000610352</ele>
        <time>2022-01-15T09:59:54.000Z</time>
      </trkpt>
      <trkpt lat="43.87856" lon="7.45402">
        <ele>351.39999389648</ele>
        <time>2022-01-15T10:00:05.000Z</time>
      </trkpt>
      <trkpt lat="43.87869" lon="7.45457">
        <ele>351</ele>
        <time>2022-01-15T10:00:14.000Z</time>
      </trkpt>
      <trkpt lat="43.87881" lon="7.45511">
        <ele>350.79998779297</ele>
        <time>2022-01-15T10:00:23.000Z</time>
      </trkpt>
      <trkpt lat="43.87884" lon="7.45522">
        <ele>351</ele>
        <time>2022-01-15T10:00:25.000Z</time>
      </trkpt>
      <trkpt lat="43.87897" lon="7.45567">
        <ele>351</ele>
        <time>2022-01-15T10:00:34.000Z</time>
      </trkpt>
      <trkpt lat="43.87901" lon="7.45577">
        <ele>351.20001220703</ele>
        <time>2022-01-15T10:00:35.000Z</time>
      </trkpt>
      <trkpt lat="43.87916" lon="7.45634">
        <ele>351.60000610352</ele>
        <time>2022-01-15T10:00:46.000Z</time>
      </trkpt>
      <trkpt lat="43.87917" lon="7.4564">
        <ele>351.60000610352</ele>
        <time>2022-01-15T10:00:47.000Z</time>
      </trkpt>
      <trkpt lat="43.87921" lon="7.45661">
        <ele>351.60000610352</ele>
        <time>2022-01-15T10:00:51.000Z</time>
      </trkpt>
      <trkpt lat="43.87922" lon="7.45666">
        <ele>351.60000610352</ele>
        <time>2022-01-15T10:00:52.000Z</time>
      </trkpt>
      <trkpt lat="43.87926" lon="7.45683">
        <ele>352.39999389648</ele>
        <time>2022-01-15T10:00:55.000Z</time>
      </trkpt>
      <trkpt lat="43.87928" lon="7.45694">
        <ele>352.60000610352</ele>
        <time>2022-01-15T10:00:57.000Z</time>
      </trkpt>
      <trkpt lat="43.87939" lon="7.45762">
        <ele>351.39999389648</ele>
        <time>2022-01-15T10:01:09.000Z</time>
      </trkpt>
      <trkpt lat="43.8794" lon="7.45768">
        <ele>351.20001220703</ele>
        <time>2022-01-15T10:01:10.000Z</time>
      </trkpt>
      <trkpt lat="43.87946" lon="7.45804">
        <ele>351.20001220703</ele>
        <time>2022-01-15T10:01:16.000Z</time>
      </trkpt>
      <trkpt lat="43.87946" lon="7.4581">
        <ele>351.20001220703</ele>
        <time>2022-01-15T10:01:17.000Z</time>
      </trkpt>
      <trkpt lat="43.87951" lon="7.45858">
        <ele>351.39999389648</ele>
        <time>2022-01-15T10:01:25.000Z</time>
      </trkpt>
      <trkpt lat="43.87952" lon="7.4587">
        <ele>351.60000610352</ele>
        <time>2022-01-15T10:01:27.000Z</time>
      </trkpt>
      <trkpt lat="43.87957" lon="7.45903">
        <ele>352.39999389648</ele>
        <time>2022-01-15T10:01:33.000Z</time>
      </trkpt>
      <trkpt lat="43.8796" lon="7.45924">
        <ele>353</ele>
        <time>2022-01-15T10:01:37.000Z</time>
      </trkpt>
      <trkpt lat="43.87965" lon="7.45946">
        <ele>353.39999389648</ele>
        <time>2022-01-15T10:01:41.000Z</time>
      </trkpt>
      <trkpt lat="43.87973" lon="7.4598">
        <ele>354.20001220703</ele>
        <time>2022-01-15T10:01:48.000Z</time>
      </trkpt>
      <trkpt lat="43.87977" lon="7.45999">
        <ele>354.39999389648</ele>
        <time>2022-01-15T10:01:51.000Z</time>
      </trkpt>
      <trkpt lat="43.87981" lon="7.46023">
        <ele>355.20001220703</ele>
        <time>2022-01-15T10:01:56.000Z</time>
      </trkpt>
      <trkpt lat="43.87983" lon="7.46045">
        <ele>355.60000610352</ele>
        <time>2022-01-15T10:02:01.000Z</time>
      </trkpt>
      <trkpt lat="43.87982" lon="7.46058">
        <ele>355.79998779297</ele>
        <time>2022-01-15T10:02:04.000Z</time>
      </trkpt>
      <trkpt lat="43.87981" lon="7.46072">
        <ele>356.39999389648</ele>
        <time>2022-01-15T10:02:09.000Z</time>
      </trkpt>
      <trkpt lat="43.87979" lon="7.46075">
        <ele>356.60000610352</ele>
        <time>2022-01-15T10:02:11.000Z</time>
      </trkpt>
      <trkpt lat="43.87978" lon="7.46082">
        <ele>356.60000610352</ele>
        <time>2022-01-15T10:02:14.000Z</time>
      </trkpt>
      <trkpt lat="43.87978" lon="7.46096">
        <ele>356</ele>
        <time>2022-01-15T10:02:18.000Z</time>
      </trkpt>
      <trkpt lat="43.87978" lon="7.461">
        <ele>355.39999389648</ele>
        <time>2022-01-15T10:02:20.000Z</time>
      </trkpt>
      <trkpt lat="43.87978" lon="7.46102">
        <ele>354.20001220703</ele>
        <time>2022-01-15T10:02:23.000Z</time>
      </trkpt>
      <trkpt lat="43.87978" lon="7.46103">
        <ele>353.79998779297</ele>
        <time>2022-01-15T10:02:30.000Z</time>
      </trkpt>
      <trkpt lat="43.87978" lon="7.46109">
        <ele>353.79998779297</ele>
        <time>2022-01-15T10:02:32.000Z</time>
      </trkpt>
      <trkpt lat="43.87979" lon="7.46126">
        <ele>353</ele>
        <time>2022-01-15T10:02:35.000Z</time>
      </trkpt>
      <trkpt lat="43.87979" lon="7.46132">
        <ele>352.60000610352</ele>
        <time>2022-01-15T10:02:36.000Z</time>
      </trkpt>
      <trkpt lat="43.87979" lon="7.4614">
        <ele>352.20001220703</ele>
        <time>2022-01-15T10:02:37.000Z</time>
      </trkpt>
      <trkpt lat="43.87979" lon="7.46147">
        <ele>351.60000610352</ele>
        <time>2022-01-15T10:02:38.000Z</time>
      </trkpt>
      <trkpt lat="43.87977" lon="7.46166">
        <ele>350.20001220703</ele>
        <time>2022-01-15T10:02:40.000Z</time>
      </trkpt>
      <trkpt lat="43.87976" lon="7.46175">
        <ele>349.39999389648</ele>
        <time>2022-01-15T10:02:41.000Z</time>
      </trkpt>
      <trkpt lat="43.87976" lon="7.46185">
        <ele>348.79998779297</ele>
        <time>2022-01-15T10:02:42.000Z</time>
      </trkpt>
      <trkpt lat="43.87975" lon="7.46205">
        <ele>347.39999389648</ele>
        <time>2022-01-15T10:02:44.000Z</time>
      </trkpt>
      <trkpt lat="43.87975" lon="7.46216">
        <ele>346.20001220703</ele>
        <time>2022-01-15T10:02:45.000Z</time>
      </trkpt>
      <trkpt lat="43.87978" lon="7.46238">
        <ele>345.39999389648</ele>
        <time>2022-01-15T10:02:47.000Z</time>
      </trkpt>
      <trkpt lat="43.87981" lon="7.46249">
        <ele>345.20001220703</ele>
        <time>2022-01-15T10:02:48.000Z</time>
      </trkpt>
      <trkpt lat="43.87989" lon="7.46279">
        <ele>343.79998779297</ele>
        <time>2022-01-15T10:02:51.000Z</time>
      </trkpt>
      <trkpt lat="43.87991" lon="7.46287">
        <ele>343.60000610352</ele>
        <time>2022-01-15T10:02:52.000Z</time>
      </trkpt>
      <trkpt lat="43.87996" lon="7.46301">
        <ele>342.60000610352</ele>
        <time>2022-01-15T10:02:54.000Z</time>
      </trkpt>
      <trkpt lat="43.88002" lon="7.46319">
        <ele>343.39999389648</ele>
        <time>2022-01-15T10:02:57.000Z</time>
      </trkpt>
      <trkpt lat="43.88004" lon="7.46325">
        <ele>343.60000610352</ele>
        <time>2022-01-15T10:02:58.000Z</time>
      </trkpt>
      <trkpt lat="43.88006" lon="7.46335">
        <ele>344.39999389648</ele>
        <time>2022-01-15T10:03:00.000Z</time>
      </trkpt>
      <trkpt lat="43.88007" lon="7.46341">
        <ele>344.60000610352</ele>
        <time>2022-01-15T10:03:01.000Z</time>
      </trkpt>
      <trkpt lat="43.88009" lon="7.46352">
        <ele>344.79998779297</ele>
        <time>2022-01-15T10:03:03.000Z</time>
      </trkpt>
      <trkpt lat="43.88017" lon="7.46377">
        <ele>343.79998779297</ele>
        <time>2022-01-15T10:03:07.000Z</time>
      </trkpt>
      <trkpt lat="43.88021" lon="7.46384">
        <ele>343.39999389648</ele>
        <time>2022-01-15T10:03:08.000Z</time>
      </trkpt>
      <trkpt lat="43.88026" lon="7.46397">
        <ele>342.20001220703</ele>
        <time>2022-01-15T10:03:10.000Z</time>
      </trkpt>
      <trkpt lat="43.88028" lon="7.46402">
        <ele>342.20001220703</ele>
        <time>2022-01-15T10:03:11.000Z</time>
      </trkpt>
      <trkpt lat="43.88035" lon="7.46426">
        <ele>343.60000610352</ele>
        <time>2022-01-15T10:03:16.000Z</time>
      </trkpt>
      <trkpt lat="43.88036" lon="7.4643">
        <ele>343.79998779297</ele>
        <time>2022-01-15T10:03:17.000Z</time>
      </trkpt>
      <trkpt lat="43.8804" lon="7.46447">
        <ele>344.20001220703</ele>
        <time>2022-01-15T10:03:22.000Z</time>
      </trkpt>
      <trkpt lat="43.8804" lon="7.46452">
        <ele>344.20001220703</ele>
        <time>2022-01-15T10:03:23.000Z</time>
      </trkpt>
      <trkpt lat="43.88042" lon="7.46463">
        <ele>343.60000610352</ele>
        <time>2022-01-15T10:03:25.000Z</time>
      </trkpt>
      <trkpt lat="43.88043" lon="7.46476">
        <ele>342.39999389648</ele>
        <time>2022-01-15T10:03:27.000Z</time>
      </trkpt>
      <trkpt lat="43.88043" lon="7.46487">
        <ele>340.60000610352</ele>
        <time>2022-01-15T10:03:29.000Z</time>
      </trkpt>
      <trkpt lat="43.88043" lon="7.46503">
        <ele>339.20001220703</ele>
        <time>2022-01-15T10:03:32.000Z</time>
      </trkpt>
      <trkpt lat="43.88043" lon="7.46509">
        <ele>338.79998779297</ele>
        <time>2022-01-15T10:03:33.000Z</time>
      </trkpt>
      <trkpt lat="43.88045" lon="7.46519">
        <ele>338.20001220703</ele>
        <time>2022-01-15T10:03:35.000Z</time>
      </trkpt>
      <trkpt lat="43.88047" lon="7.46524">
        <ele>337.60000610352</ele>
        <time>2022-01-15T10:03:36.000Z</time>
      </trkpt>
      <trkpt lat="43.88048" lon="7.46539">
        <ele>337.79998779297</ele>
        <time>2022-01-15T10:03:39.000Z</time>
      </trkpt>
      <trkpt lat="43.88047" lon="7.46545">
        <ele>337.79998779297</ele>
        <time>2022-01-15T10:03:40.000Z</time>
      </trkpt>
      <trkpt lat="43.88047" lon="7.46553">
        <ele>337.20001220703</ele>
        <time>2022-01-15T10:03:42.000Z</time>
      </trkpt>
      <trkpt lat="43.88047" lon="7.46564">
        <ele>337</ele>
        <time>2022-01-15T10:03:44.000Z</time>
      </trkpt>
      <trkpt lat="43.88046" lon="7.46581">
        <ele>337.20001220703</ele>
        <time>2022-01-15T10:03:47.000Z</time>
      </trkpt>
      <trkpt lat="43.88045" lon="7.46587">
        <ele>337</ele>
        <time>2022-01-15T10:03:48.000Z</time>
      </trkpt>
      <trkpt lat="43.88041" lon="7.4661">
        <ele>336.20001220703</ele>
        <time>2022-01-15T10:03:52.000Z</time>
      </trkpt>
      <trkpt lat="43.8804" lon="7.46623">
        <ele>336.60000610352</ele>
        <time>2022-01-15T10:03:55.000Z</time>
      </trkpt>
      <trkpt lat="43.88037" lon="7.46633">
        <ele>337.39999389648</ele>
        <time>2022-01-15T10:03:57.000Z</time>
      </trkpt>
      <trkpt lat="43.88024" lon="7.46672">
        <ele>336.39999389648</ele>
        <time>2022-01-15T10:04:03.000Z</time>
      </trkpt>
      <trkpt lat="43.88024" lon="7.46678">
        <ele>336.20001220703</ele>
        <time>2022-01-15T10:04:04.000Z</time>
      </trkpt>
      <trkpt lat="43.88025" lon="7.46691">
        <ele>336.20001220703</ele>
        <time>2022-01-15T10:04:06.000Z</time>
      </trkpt>
      <trkpt lat="43.88032" lon="7.46734">
        <ele>336.79998779297</ele>
        <time>2022-01-15T10:04:13.000Z</time>
      </trkpt>
      <trkpt lat="43.88035" lon="7.46767">
        <ele>338</ele>
        <time>2022-01-15T10:04:19.000Z</time>
      </trkpt>
      <trkpt lat="43.88035" lon="7.46779">
        <ele>338.20001220703</ele>
        <time>2022-01-15T10:04:21.000Z</time>
      </trkpt>
      <trkpt lat="43.88035" lon="7.46807">
        <ele>338.79998779297</ele>
        <time>2022-01-15T10:04:26.000Z</time>
      </trkpt>
      <trkpt lat="43.88029" lon="7.46836">
        <ele>338.79998779297</ele>
        <time>2022-01-15T10:04:32.000Z</time>
      </trkpt>
      <trkpt lat="43.88018" lon="7.46876">
        <ele>338.20001220703</ele>
        <time>2022-01-15T10:04:40.000Z</time>
      </trkpt>
      <trkpt lat="43.88024" lon="7.46896">
        <ele>338.39999389648</ele>
        <time>2022-01-15T10:04:44.000Z</time>
      </trkpt>
      <trkpt lat="43.88047" lon="7.46943">
        <ele>339</ele>
        <time>2022-01-15T10:04:53.000Z</time>
      </trkpt>
      <trkpt lat="43.88071" lon="7.46986">
        <ele>338.79998779297</ele>
        <time>2022-01-15T10:05:02.000Z</time>
      </trkpt>
      <trkpt lat="43.88073" lon="7.46991">
        <ele>338.79998779297</ele>
        <time>2022-01-15T10:05:03.000Z</time>
      </trkpt>
      <trkpt lat="43.88076" lon="7.47004">
        <ele>339.39999389648</ele>
        <time>2022-01-15T10:05:06.000Z</time>
      </trkpt>
      <trkpt lat="43.88079" lon="7.47017">
        <ele>340</ele>
        <time>2022-01-15T10:05:09.000Z</time>
      </trkpt>
      <trkpt lat="43.8808" lon="7.47036">
        <ele>340.39999389648</ele>
        <time>2022-01-15T10:05:13.000Z</time>
      </trkpt>
      <trkpt lat="43.88082" lon="7.47059">
        <ele>340.20001220703</ele>
        <time>2022-01-15T10:05:17.000Z</time>
      </trkpt>
      <trkpt lat="43.88088" lon="7.4708">
        <ele>340.20001220703</ele>
        <time>2022-01-15T10:05:22.000Z</time>
      </trkpt>
      <trkpt lat="43.88097" lon="7.47103">
        <ele>340</ele>
        <time>2022-01-15T10:05:27.000Z</time>
      </trkpt>
      <trkpt lat="43.88113" lon="7.47125">
        <ele>339.20001220703</ele>
        <time>2022-01-15T10:05:31.000Z</time>
      </trkpt>
      <trkpt lat="43.88123" lon="7.47136">
        <ele>338</ele>
        <time>2022-01-15T10:05:33.000Z</time>
      </trkpt>
      <trkpt lat="43.88132" lon="7.47147">
        <ele>336.79998779297</ele>
        <time>2022-01-15T10:05:35.000Z</time>
      </trkpt>
      <trkpt lat="43.88144" lon="7.47164">
        <ele>335.60000610352</ele>
        <time>2022-01-15T10:05:38.000Z</time>
      </trkpt>
      <trkpt lat="43.88146" lon="7.47184">
        <ele>335.60000610352</ele>
        <time>2022-01-15T10:05:41.000Z</time>
      </trkpt>
      <trkpt lat="43.88146" lon="7.4721">
        <ele>334.20001220703</ele>
        <time>2022-01-15T10:05:45.000Z</time>
      </trkpt>
      <trkpt lat="43.88147" lon="7.47216">
        <ele>334</ele>
        <time>2022-01-15T10:05:46.000Z</time>
      </trkpt>
      <trkpt lat="43.88149" lon="7.47236">
        <ele>334</ele>
        <time>2022-01-15T10:05:49.000Z</time>
      </trkpt>
      <trkpt lat="43.88153" lon="7.47248">
        <ele>333.20001220703</ele>
        <time>2022-01-15T10:05:51.000Z</time>
      </trkpt>
      <trkpt lat="43.88158" lon="7.47265">
        <ele>331.79998779297</ele>
        <time>2022-01-15T10:05:54.000Z</time>
      </trkpt>
      <trkpt lat="43.8816" lon="7.47273">
        <ele>332.20001220703</ele>
        <time>2022-01-15T10:05:56.000Z</time>
      </trkpt>
      <trkpt lat="43.8816" lon="7.47289">
        <ele>332.79998779297</ele>
        <time>2022-01-15T10:06:00.000Z</time>
      </trkpt>
      <trkpt lat="43.88159" lon="7.47292">
        <ele>332.79998779297</ele>
        <time>2022-01-15T10:06:01.000Z</time>
      </trkpt>
      <trkpt lat="43.88155" lon="7.47304">
        <ele>333.79998779297</ele>
        <time>2022-01-15T10:06:05.000Z</time>
      </trkpt>
      <trkpt lat="43.88156" lon="7.47314">
        <ele>333.60000610352</ele>
        <time>2022-01-15T10:06:07.000Z</time>
      </trkpt>
      <trkpt lat="43.88157" lon="7.4732">
        <ele>333.20001220703</ele>
        <time>2022-01-15T10:06:08.000Z</time>
      </trkpt>
      <trkpt lat="43.88159" lon="7.47327">
        <ele>332.79998779297</ele>
        <time>2022-01-15T10:06:09.000Z</time>
      </trkpt>
      <trkpt lat="43.88162" lon="7.47343">
        <ele>332.20001220703</ele>
        <time>2022-01-15T10:06:11.000Z</time>
      </trkpt>
      <trkpt lat="43.88164" lon="7.47351">
        <ele>331.20001220703</ele>
        <time>2022-01-15T10:06:12.000Z</time>
      </trkpt>
      <trkpt lat="43.88167" lon="7.47357">
        <ele>330.39999389648</ele>
        <time>2022-01-15T10:06:13.000Z</time>
      </trkpt>
      <trkpt lat="43.88168" lon="7.47363">
        <ele>329.79998779297</ele>
        <time>2022-01-15T10:06:14.000Z</time>
      </trkpt>
      <trkpt lat="43.88171" lon="7.47373">
        <ele>328.60000610352</ele>
        <time>2022-01-15T10:06:16.000Z</time>
      </trkpt>
      <trkpt lat="43.88175" lon="7.47381">
        <ele>330</ele>
        <time>2022-01-15T10:06:20.000Z</time>
      </trkpt>
      <trkpt lat="43.88177" lon="7.47385">
        <ele>331.39999389648</ele>
        <time>2022-01-15T10:06:22.000Z</time>
      </trkpt>
      <trkpt lat="43.88184" lon="7.47395">
        <ele>332.39999389648</ele>
        <time>2022-01-15T10:06:26.000Z</time>
      </trkpt>
      <trkpt lat="43.88194" lon="7.47417">
        <ele>333.20001220703</ele>
        <time>2022-01-15T10:06:33.000Z</time>
      </trkpt>
      <trkpt lat="43.88195" lon="7.47419">
        <ele>333.39999389648</ele>
        <time>2022-01-15T10:06:34.000Z</time>
      </trkpt>
      <trkpt lat="43.88199" lon="7.47429">
        <ele>334.20001220703</ele>
        <time>2022-01-15T10:06:38.000Z</time>
      </trkpt>
      <trkpt lat="43.882" lon="7.47431">
        <ele>334.39999389648</ele>
        <time>2022-01-15T10:06:39.000Z</time>
      </trkpt>
      <trkpt lat="43.88201" lon="7.47433">
        <ele>334.79998779297</ele>
        <time>2022-01-15T10:06:40.000Z</time>
      </trkpt>
      <trkpt lat="43.88203" lon="7.4744">
        <ele>335.20001220703</ele>
        <time>2022-01-15T10:06:43.000Z</time>
      </trkpt>
      <trkpt lat="43.88205" lon="7.47444">
        <ele>335.39999389648</ele>
        <time>2022-01-15T10:06:45.000Z</time>
      </trkpt>
      <trkpt lat="43.88206" lon="7.47446">
        <ele>335.60000610352</ele>
        <time>2022-01-15T10:06:46.000Z</time>
      </trkpt>
      <trkpt lat="43.88206" lon="7.47447">
        <ele>336</ele>
        <time>2022-01-15T10:06:48.000Z</time>
      </trkpt>
      <trkpt lat="43.88206" lon="7.47448">
        <ele>336.60000610352</ele>
        <time>2022-01-15T10:06:53.000Z</time>
      </trkpt>
      <trkpt lat="43.88206" lon="7.47452">
        <ele>336.60000610352</ele>
        <time>2022-01-15T10:07:03.000Z</time>
      </trkpt>
      <trkpt lat="43.88207" lon="7.47455">
        <ele>336.79998779297</ele>
        <time>2022-01-15T10:07:09.000Z</time>
      </trkpt>
      <trkpt lat="43.88211" lon="7.47464">
        <ele>337.39999389648</ele>
        <time>2022-01-15T10:07:14.000Z</time>
      </trkpt>
      <trkpt lat="43.88212" lon="7.47466">
        <ele>337.60000610352</ele>
        <time>2022-01-15T10:07:15.000Z</time>
      </trkpt>
      <trkpt lat="43.88214" lon="7.4747">
        <ele>338.79998779297</ele>
        <time>2022-01-15T10:07:18.000Z</time>
      </trkpt>
      <trkpt lat="43.88215" lon="7.47471">
        <ele>339.20001220703</ele>
        <time>2022-01-15T10:07:19.000Z</time>
      </trkpt>
      <trkpt lat="43.88216" lon="7.47473">
        <ele>339.79998779297</ele>
        <time>2022-01-15T10:07:21.000Z</time>
      </trkpt>
      <trkpt lat="43.8822" lon="7.47478">
        <ele>340.39999389648</ele>
        <time>2022-01-15T10:07:25.000Z</time>
      </trkpt>
      <trkpt lat="43.88221" lon="7.47478">
        <ele>340.60000610352</ele>
        <time>2022-01-15T10:07:26.000Z</time>
      </trkpt>
      <trkpt lat="43.88223" lon="7.4748">
        <ele>341</ele>
        <time>2022-01-15T10:07:28.000Z</time>
      </trkpt>
      <trkpt lat="43.88228" lon="7.47487">
        <ele>342</ele>
        <time>2022-01-15T10:07:32.000Z</time>
      </trkpt>
      <trkpt lat="43.88228" lon="7.4749">
        <ele>342.20001220703</ele>
        <time>2022-01-15T10:07:33.000Z</time>
      </trkpt>
      <trkpt lat="43.88229" lon="7.47491">
        <ele>343</ele>
        <time>2022-01-15T10:07:36.000Z</time>
      </trkpt>
      <trkpt lat="43.88229" lon="7.47491">
        <ele>343.39999389648</ele>
        <time>2022-01-15T10:07:37.000Z</time>
      </trkpt>
      <trkpt lat="43.88231" lon="7.47494">
        <ele>344.20001220703</ele>
        <time>2022-01-15T10:07:42.000Z</time>
      </trkpt>
      <trkpt lat="43.88232" lon="7.475">
        <ele>344.39999389648</ele>
        <time>2022-01-15T10:07:45.000Z</time>
      </trkpt>
      <trkpt lat="43.88233" lon="7.47505">
        <ele>344.79998779297</ele>
        <time>2022-01-15T10:07:47.000Z</time>
      </trkpt>
      <trkpt lat="43.88235" lon="7.47509">
        <ele>345.39999389648</ele>
        <time>2022-01-15T10:07:49.000Z</time>
      </trkpt>
      <trkpt lat="43.8824" lon="7.47516">
        <ele>346.60000610352</ele>
        <time>2022-01-15T10:07:53.000Z</time>
      </trkpt>
      <trkpt lat="43.88241" lon="7.47518">
        <ele>347.79998779297</ele>
        <time>2022-01-15T10:07:55.000Z</time>
      </trkpt>
      <trkpt lat="43.88242" lon="7.47519">
        <ele>349.20001220703</ele>
        <time>2022-01-15T10:07:58.000Z</time>
      </trkpt>
      <trkpt lat="43.88242" lon="7.47519">
        <ele>349.60000610352</ele>
        <time>2022-01-15T10:07:59.000Z</time>
      </trkpt>
      <trkpt lat="43.88245" lon="7.47525">
        <ele>350.20001220703</ele>
        <time>2022-01-15T10:08:13.000Z</time>
      </trkpt>
      <trkpt lat="43.88246" lon="7.47528">
        <ele>350.39999389648</ele>
        <time>2022-01-15T10:08:14.000Z</time>
      </trkpt>
      <trkpt lat="43.88246" lon="7.47538">
        <ele>351.60000610352</ele>
        <time>2022-01-15T10:08:18.000Z</time>
      </trkpt>
      <trkpt lat="43.8824" lon="7.4755">
        <ele>352.60000610352</ele>
        <time>2022-01-15T10:08:23.000Z</time>
      </trkpt>
      <trkpt lat="43.88234" lon="7.47568">
        <ele>353.20001220703</ele>
        <time>2022-01-15T10:08:29.000Z</time>
      </trkpt>
      <trkpt lat="43.88232" lon="7.4758">
        <ele>353.60000610352</ele>
        <time>2022-01-15T10:08:32.000Z</time>
      </trkpt>
      <trkpt lat="43.88231" lon="7.47591">
        <ele>353.79998779297</ele>
        <time>2022-01-15T10:08:34.000Z</time>
      </trkpt>
      <trkpt lat="43.88231" lon="7.47618">
        <ele>353.20001220703</ele>
        <time>2022-01-15T10:08:39.000Z</time>
      </trkpt>
      <trkpt lat="43.88235" lon="7.47649">
        <ele>353.79998779297</ele>
        <time>2022-01-15T10:08:45.000Z</time>
      </trkpt>
      <trkpt lat="43.88237" lon="7.47674">
        <ele>353.79998779297</ele>
        <time>2022-01-15T10:08:51.000Z</time>
      </trkpt>
      <trkpt lat="43.88239" lon="7.47679">
        <ele>353.60000610352</ele>
        <time>2022-01-15T10:08:53.000Z</time>
      </trkpt>
      <trkpt lat="43.88243" lon="7.47683">
        <ele>353</ele>
        <time>2022-01-15T10:08:55.000Z</time>
      </trkpt>
      <trkpt lat="43.88248" lon="7.47689">
        <ele>352.60000610352</ele>
        <time>2022-01-15T10:08:58.000Z</time>
      </trkpt>
      <trkpt lat="43.88248" lon="7.4769">
        <ele>352.39999389648</ele>
        <time>2022-01-15T10:08:59.000Z</time>
      </trkpt>
      <trkpt lat="43.88249" lon="7.47691">
        <ele>352.60000610352</ele>
        <time>2022-01-15T10:09:00.000Z</time>
      </trkpt>
      <trkpt lat="43.8825" lon="7.47692">
        <ele>352.79998779297</ele>
        <time>2022-01-15T10:09:08.000Z</time>
      </trkpt>
      <trkpt lat="43.88253" lon="7.47699">
        <ele>353</ele>
        <time>2022-01-15T10:09:19.000Z</time>
      </trkpt>
      <trkpt lat="43.88266" lon="7.47717">
        <ele>352.60000610352</ele>
        <time>2022-01-15T10:09:24.000Z</time>
      </trkpt>
      <trkpt lat="43.88276" lon="7.47731">
        <ele>351.60000610352</ele>
        <time>2022-01-15T10:09:27.000Z</time>
      </trkpt>
      <trkpt lat="43.88283" lon="7.47748">
        <ele>350.39999389648</ele>
        <time>2022-01-15T10:09:30.000Z</time>
      </trkpt>
      <trkpt lat="43.88285" lon="7.47753">
        <ele>350.20001220703</ele>
        <time>2022-01-15T10:09:31.000Z</time>
      </trkpt>
      <trkpt lat="43.88291" lon="7.47764">
        <ele>349.79998779297</ele>
        <time>2022-01-15T10:09:34.000Z</time>
      </trkpt>
      <trkpt lat="43.88296" lon="7.47774">
        <ele>349.39999389648</ele>
        <time>2022-01-15T10:09:36.000Z</time>
      </trkpt>
      <trkpt lat="43.88301" lon="7.47787">
        <ele>348</ele>
        <time>2022-01-15T10:09:39.000Z</time>
      </trkpt>
      <trkpt lat="43.88303" lon="7.47794">
        <ele>346.60000610352</ele>
        <time>2022-01-15T10:09:41.000Z</time>
      </trkpt>
      <trkpt lat="43.88304" lon="7.47796">
        <ele>345.39999389648</ele>
        <time>2022-01-15T10:09:42.000Z</time>
      </trkpt>
      <trkpt lat="43.88304" lon="7.47797">
        <ele>343.79998779297</ele>
        <time>2022-01-15T10:09:44.000Z</time>
      </trkpt>
      <trkpt lat="43.88304" lon="7.47797">
        <ele>342.60000610352</ele>
        <time>2022-01-15T10:09:46.000Z</time>
      </trkpt>
      <trkpt lat="43.88305" lon="7.47799">
        <ele>342.39999389648</ele>
        <time>2022-01-15T10:10:03.000Z</time>
      </trkpt>
      <trkpt lat="43.88306" lon="7.47801">
        <ele>342.39999389648</ele>
        <time>2022-01-15T10:10:12.000Z</time>
      </trkpt>
      <trkpt lat="43.88306" lon="7.47806">
        <ele>342.39999389648</ele>
        <time>2022-01-15T10:10:14.000Z</time>
      </trkpt>
      <trkpt lat="43.88307" lon="7.47808">
        <ele>341.39999389648</ele>
        <time>2022-01-15T10:10:18.000Z</time>
      </trkpt>
      <trkpt lat="43.8831" lon="7.47806">
        <ele>340.39999389648</ele>
        <time>2022-01-15T10:10:22.000Z</time>
      </trkpt>
      <trkpt lat="43.88311" lon="7.47805">
        <ele>340.39999389648</ele>
        <time>2022-01-15T10:10:23.000Z</time>
      </trkpt>
      <trkpt lat="43.88314" lon="7.47804">
        <ele>340.20001220703</ele>
        <time>2022-01-15T10:10:24.000Z</time>
      </trkpt>
      <trkpt lat="43.8832" lon="7.47806">
        <ele>339.60000610352</ele>
        <time>2022-01-15T10:10:26.000Z</time>
      </trkpt>
      <trkpt lat="43.88325" lon="7.47807">
        <ele>338.60000610352</ele>
        <time>2022-01-15T10:10:27.000Z</time>
      </trkpt>
      <trkpt lat="43.88332" lon="7.47809">
        <ele>337.20001220703</ele>
        <time>2022-01-15T10:10:29.000Z</time>
      </trkpt>
      <trkpt lat="43.88335" lon="7.47811">
        <ele>336.60000610352</ele>
        <time>2022-01-15T10:10:30.000Z</time>
      </trkpt>
      <trkpt lat="43.88338" lon="7.47812">
        <ele>336.20001220703</ele>
        <time>2022-01-15T10:10:31.000Z</time>
      </trkpt>
      <trkpt lat="43.88348" lon="7.47816">
        <ele>336.20001220703</ele>
        <time>2022-01-15T10:10:36.000Z</time>
      </trkpt>
      <trkpt lat="43.88354" lon="7.4782">
        <ele>336.60000610352</ele>
        <time>2022-01-15T10:10:42.000Z</time>
      </trkpt>
      <trkpt lat="43.88354" lon="7.4782">
        <ele>336.60000610352</ele>
        <time>2022-01-15T10:10:47.000Z</time>
      </trkpt>
      <trkpt lat="43.88354" lon="7.4782">
        <ele>336.79998779297</ele>
        <time>2022-01-15T10:10:54.000Z</time>
      </trkpt>
      <trkpt lat="43.88354" lon="7.4782">
        <ele>337.20001220703</ele>
        <time>2022-01-15T10:10:56.000Z</time>
      </trkpt>
      <trkpt lat="43.88357" lon="7.47823">
        <ele>337.20001220703</ele>
        <time>2022-01-15T10:11:00.000Z</time>
      </trkpt>
      <trkpt lat="43.88362" lon="7.47836">
        <ele>337</ele>
        <time>2022-01-15T10:11:06.000Z</time>
      </trkpt>
      <trkpt lat="43.88371" lon="7.47856">
        <ele>337.20001220703</ele>
        <time>2022-01-15T10:11:13.000Z</time>
      </trkpt>
      <trkpt lat="43.88382" lon="7.4788">
        <ele>337.39999389648</ele>
        <time>2022-01-15T10:11:20.000Z</time>
      </trkpt>
      <trkpt lat="43.88387" lon="7.47898">
        <ele>338.20001220703</ele>
        <time>2022-01-15T10:11:25.000Z</time>
      </trkpt>
      <trkpt lat="43.8839" lon="7.47908">
        <ele>338.79998779297</ele>
        <time>2022-01-15T10:11:28.000Z</time>
      </trkpt>
      <trkpt lat="43.88393" lon="7.47918">
        <ele>339.20001220703</ele>
        <time>2022-01-15T10:11:31.000Z</time>
      </trkpt>
      <trkpt lat="43.88398" lon="7.47936">
        <ele>340.20001220703</ele>
        <time>2022-01-15T10:11:37.000Z</time>
      </trkpt>
      <trkpt lat="43.884" lon="7.47942">
        <ele>340.39999389648</ele>
        <time>2022-01-15T10:11:39.000Z</time>
      </trkpt>
      <trkpt lat="43.88405" lon="7.4796">
        <ele>341.39999389648</ele>
        <time>2022-01-15T10:11:45.000Z</time>
      </trkpt>
      <trkpt lat="43.88406" lon="7.47963">
        <ele>341.60000610352</ele>
        <time>2022-01-15T10:11:46.000Z</time>
      </trkpt>
      <trkpt lat="43.88416" lon="7.47989">
        <ele>342.39999389648</ele>
        <time>2022-01-15T10:11:55.000Z</time>
      </trkpt>
      <trkpt lat="43.88419" lon="7.47994">
        <ele>342.60000610352</ele>
        <time>2022-01-15T10:11:57.000Z</time>
      </trkpt>
      <trkpt lat="43.88426" lon="7.48013">
        <ele>343</ele>
        <time>2022-01-15T10:12:03.000Z</time>
      </trkpt>
      <trkpt lat="43.88435" lon="7.48034">
        <ele>343.60000610352</ele>
        <time>2022-01-15T10:12:10.000Z</time>
      </trkpt>
      <trkpt lat="43.88437" lon="7.4804">
        <ele>343.79998779297</ele>
        <time>2022-01-15T10:12:12.000Z</time>
      </trkpt>
      <trkpt lat="43.88449" lon="7.48065">
        <ele>344.39999389648</ele>
        <time>2022-01-15T10:12:21.000Z</time>
      </trkpt>
      <trkpt lat="43.88454" lon="7.48073">
        <ele>344.60000610352</ele>
        <time>2022-01-15T10:12:24.000Z</time>
      </trkpt>
      <trkpt lat="43.88459" lon="7.48081">
        <ele>344.79998779297</ele>
        <time>2022-01-15T10:12:27.000Z</time>
      </trkpt>
      <trkpt lat="43.88471" lon="7.48101">
        <ele>345.20001220703</ele>
        <time>2022-01-15T10:12:34.000Z</time>
      </trkpt>
      <trkpt lat="43.88484" lon="7.48128">
        <ele>345.39999389648</ele>
        <time>2022-01-15T10:12:42.000Z</time>
      </trkpt>
      <trkpt lat="43.88496" lon="7.48158">
        <ele>345</ele>
        <time>2022-01-15T10:12:49.000Z</time>
      </trkpt>
      <trkpt lat="43.88505" lon="7.48181">
        <ele>345</ele>
        <time>2022-01-15T10:12:55.000Z</time>
      </trkpt>
      <trkpt lat="43.88518" lon="7.48195">
        <ele>345.60000610352</ele>
        <time>2022-01-15T10:13:00.000Z</time>
      </trkpt>
      <trkpt lat="43.88521" lon="7.48197">
        <ele>345.60000610352</ele>
        <time>2022-01-15T10:13:01.000Z</time>
      </trkpt>
      <trkpt lat="43.88544" lon="7.48219">
        <ele>346</ele>
        <time>2022-01-15T10:13:09.000Z</time>
      </trkpt>
      <trkpt lat="43.88559" lon="7.48238">
        <ele>346.60000610352</ele>
        <time>2022-01-15T10:13:15.000Z</time>
      </trkpt>
      <trkpt lat="43.88566" lon="7.48248">
        <ele>347.20001220703</ele>
        <time>2022-01-15T10:13:18.000Z</time>
      </trkpt>
      <trkpt lat="43.88576" lon="7.4826">
        <ele>347.79998779297</ele>
        <time>2022-01-15T10:13:22.000Z</time>
      </trkpt>
      <trkpt lat="43.88588" lon="7.48276">
        <ele>348.39999389648</ele>
        <time>2022-01-15T10:13:27.000Z</time>
      </trkpt>
      <trkpt lat="43.88594" lon="7.48285">
        <ele>349</ele>
        <time>2022-01-15T10:13:30.000Z</time>
      </trkpt>
      <trkpt lat="43.88603" lon="7.48294">
        <ele>349.60000610352</ele>
        <time>2022-01-15T10:13:34.000Z</time>
      </trkpt>
      <trkpt lat="43.88607" lon="7.483">
        <ele>350</ele>
        <time>2022-01-15T10:13:36.000Z</time>
      </trkpt>
      <trkpt lat="43.88616" lon="7.48309">
        <ele>350.79998779297</ele>
        <time>2022-01-15T10:13:40.000Z</time>
      </trkpt>
      <trkpt lat="43.8862" lon="7.48314">
        <ele>351.20001220703</ele>
        <time>2022-01-15T10:13:42.000Z</time>
      </trkpt>
      <trkpt lat="43.88629" lon="7.48329">
        <ele>352</ele>
        <time>2022-01-15T10:13:47.000Z</time>
      </trkpt>
      <trkpt lat="43.8863" lon="7.48331">
        <ele>352.20001220703</ele>
        <time>2022-01-15T10:13:48.000Z</time>
      </trkpt>
      <trkpt lat="43.88639" lon="7.48352">
        <ele>353.20001220703</ele>
        <time>2022-01-15T10:13:54.000Z</time>
      </trkpt>
      <trkpt lat="43.8865" lon="7.48374">
        <ele>354.39999389648</ele>
        <time>2022-01-15T10:14:01.000Z</time>
      </trkpt>
      <trkpt lat="43.88661" lon="7.48399">
        <ele>355.39999389648</ele>
        <time>2022-01-15T10:14:09.000Z</time>
      </trkpt>
      <trkpt lat="43.88663" lon="7.48406">
        <ele>355.60000610352</ele>
        <time>2022-01-15T10:14:11.000Z</time>
      </trkpt>
      <trkpt lat="43.88662" lon="7.48421">
        <ele>356.20001220703</ele>
        <time>2022-01-15T10:14:15.000Z</time>
      </trkpt>
      <trkpt lat="43.88662" lon="7.48424">
        <ele>356.60000610352</ele>
        <time>2022-01-15T10:14:16.000Z</time>
      </trkpt>
      <trkpt lat="43.88661" lon="7.48428">
        <ele>356.60000610352</ele>
        <time>2022-01-15T10:14:17.000Z</time>
      </trkpt>
      <trkpt lat="43.88662" lon="7.4845">
        <ele>357.60000610352</ele>
        <time>2022-01-15T10:14:24.000Z</time>
      </trkpt>
      <trkpt lat="43.88671" lon="7.48471">
        <ele>358.39999389648</ele>
        <time>2022-01-15T10:14:31.000Z</time>
      </trkpt>
      <trkpt lat="43.88671" lon="7.48478">
        <ele>358.79998779297</ele>
        <time>2022-01-15T10:14:33.000Z</time>
      </trkpt>
      <trkpt lat="43.88669" lon="7.48492">
        <ele>359.60000610352</ele>
        <time>2022-01-15T10:14:37.000Z</time>
      </trkpt>
      <trkpt lat="43.88668" lon="7.48495">
        <ele>359.79998779297</ele>
        <time>2022-01-15T10:14:38.000Z</time>
      </trkpt>
      <trkpt lat="43.88666" lon="7.48512">
        <ele>360.79998779297</ele>
        <time>2022-01-15T10:14:44.000Z</time>
      </trkpt>
      <trkpt lat="43.88666" lon="7.48519">
        <ele>361.20001220703</ele>
        <time>2022-01-15T10:14:46.000Z</time>
      </trkpt>
      <trkpt lat="43.88666" lon="7.48539">
        <ele>362</ele>
        <time>2022-01-15T10:14:52.000Z</time>
      </trkpt>
      <trkpt lat="43.88667" lon="7.48545">
        <ele>362.20001220703</ele>
        <time>2022-01-15T10:14:54.000Z</time>
      </trkpt>
      <trkpt lat="43.88671" lon="7.48564">
        <ele>362.60000610352</ele>
        <time>2022-01-15T10:15:00.000Z</time>
      </trkpt>
      <trkpt lat="43.88671" lon="7.48576">
        <ele>362.79998779297</ele>
        <time>2022-01-15T10:15:05.000Z</time>
      </trkpt>
      <trkpt lat="43.88671" lon="7.48581">
        <ele>362.79998779297</ele>
        <time>2022-01-15T10:15:08.000Z</time>
      </trkpt>
      <trkpt lat="43.88672" lon="7.48583">
        <ele>362.39999389648</ele>
        <time>2022-01-15T10:15:10.000Z</time>
      </trkpt>
      <trkpt lat="43.88672" lon="7.48582">
        <ele>361.20001220703</ele>
        <time>2022-01-15T10:15:14.000Z</time>
      </trkpt>
      <trkpt lat="43.88673" lon="7.48582">
        <ele>361</ele>
        <time>2022-01-15T10:15:23.000Z</time>
      </trkpt>
      <trkpt lat="43.88674" lon="7.48582">
        <ele>361.60000610352</ele>
        <time>2022-01-15T10:15:35.000Z</time>
      </trkpt>
      <trkpt lat="43.88674" lon="7.48582">
        <ele>361</ele>
        <time>2022-01-15T10:15:43.000Z</time>
      </trkpt>
      <trkpt lat="43.88675" lon="7.48581">
        <ele>361</ele>
        <time>2022-01-15T10:15:49.000Z</time>
      </trkpt>
      <trkpt lat="43.88676" lon="7.48583">
        <ele>361</ele>
        <time>2022-01-15T10:16:07.000Z</time>
      </trkpt>
      <trkpt lat="43.88676" lon="7.48583">
        <ele>361</ele>
        <time>2022-01-15T10:16:20.000Z</time>
      </trkpt>
      <trkpt lat="43.88677" lon="7.48582">
        <ele>361</ele>
        <time>2022-01-15T10:16:40.000Z</time>
      </trkpt>
      <trkpt lat="43.88676" lon="7.48583">
        <ele>361</ele>
        <time>2022-01-15T10:16:49.000Z</time>
      </trkpt>
      <trkpt lat="43.88675" lon="7.48583">
        <ele>361.20001220703</ele>
        <time>2022-01-15T10:16:58.000Z</time>
      </trkpt>
      <trkpt lat="43.88675" lon="7.48584">
        <ele>361.20001220703</ele>
        <time>2022-01-15T10:16:59.000Z</time>
      </trkpt>
      <trkpt lat="43.88679" lon="7.48594">
        <ele>361</ele>
        <time>2022-01-15T10:17:02.000Z</time>
      </trkpt>
      <trkpt lat="43.88683" lon="7.48604">
        <ele>360.60000610352</ele>
        <time>2022-01-15T10:17:04.000Z</time>
      </trkpt>
      <trkpt lat="43.88687" lon="7.48619">
        <ele>359.20001220703</ele>
        <time>2022-01-15T10:17:06.000Z</time>
      </trkpt>
      <trkpt lat="43.88687" lon="7.48636">
        <ele>357</ele>
        <time>2022-01-15T10:17:08.000Z</time>
      </trkpt>
      <trkpt lat="43.88685" lon="7.48644">
        <ele>355.60000610352</ele>
        <time>2022-01-15T10:17:09.000Z</time>
      </trkpt>
      <trkpt lat="43.88684" lon="7.48655">
        <ele>354.20001220703</ele>
        <time>2022-01-15T10:17:10.000Z</time>
      </trkpt>
      <trkpt lat="43.88684" lon="7.48665">
        <ele>353</ele>
        <time>2022-01-15T10:17:11.000Z</time>
      </trkpt>
      <trkpt lat="43.88685" lon="7.48674">
        <ele>351.60000610352</ele>
        <time>2022-01-15T10:17:12.000Z</time>
      </trkpt>
      <trkpt lat="43.88687" lon="7.48682">
        <ele>350.39999389648</ele>
        <time>2022-01-15T10:17:13.000Z</time>
      </trkpt>
      <trkpt lat="43.88689" lon="7.48689">
        <ele>349.39999389648</ele>
        <time>2022-01-15T10:17:14.000Z</time>
      </trkpt>
      <trkpt lat="43.88693" lon="7.48699">
        <ele>348.79998779297</ele>
        <time>2022-01-15T10:17:15.000Z</time>
      </trkpt>
      <trkpt lat="43.88696" lon="7.48708">
        <ele>347.79998779297</ele>
        <time>2022-01-15T10:17:16.000Z</time>
      </trkpt>
      <trkpt lat="43.88701" lon="7.48722">
        <ele>346.20001220703</ele>
        <time>2022-01-15T10:17:18.000Z</time>
      </trkpt>
      <trkpt lat="43.88703" lon="7.48725">
        <ele>345.20001220703</ele>
        <time>2022-01-15T10:17:19.000Z</time>
      </trkpt>
      <trkpt lat="43.88704" lon="7.48727">
        <ele>344.39999389648</ele>
        <time>2022-01-15T10:17:20.000Z</time>
      </trkpt>
      <trkpt lat="43.88706" lon="7.48728">
        <ele>343.60000610352</ele>
        <time>2022-01-15T10:17:21.000Z</time>
      </trkpt>
      <trkpt lat="43.88709" lon="7.48728">
        <ele>343.20001220703</ele>
        <time>2022-01-15T10:17:22.000Z</time>
      </trkpt>
      <trkpt lat="43.8871" lon="7.48728">
        <ele>343</ele>
        <time>2022-01-15T10:17:23.000Z</time>
      </trkpt>
      <trkpt lat="43.88723" lon="7.48733">
        <ele>343.79998779297</ele>
        <time>2022-01-15T10:17:30.000Z</time>
      </trkpt>
      <trkpt lat="43.88724" lon="7.48733">
        <ele>342.79998779297</ele>
        <time>2022-01-15T10:17:35.000Z</time>
      </trkpt>
      <trkpt lat="43.88725" lon="7.48733">
        <ele>342.60000610352</ele>
        <time>2022-01-15T10:17:48.000Z</time>
      </trkpt>
      <trkpt lat="43.88732" lon="7.48736">
        <ele>342.60000610352</ele>
        <time>2022-01-15T10:17:53.000Z</time>
      </trkpt>
      <trkpt lat="43.88742" lon="7.48743">
        <ele>341.79998779297</ele>
        <time>2022-01-15T10:17:56.000Z</time>
      </trkpt>
      <trkpt lat="43.88752" lon="7.48751">
        <ele>340.39999389648</ele>
        <time>2022-01-15T10:17:58.000Z</time>
      </trkpt>
      <trkpt lat="43.88757" lon="7.48756">
        <ele>339.60000610352</ele>
        <time>2022-01-15T10:17:59.000Z</time>
      </trkpt>
      <trkpt lat="43.88762" lon="7.48763">
        <ele>338.60000610352</ele>
        <time>2022-01-15T10:18:00.000Z</time>
      </trkpt>
      <trkpt lat="43.88766" lon="7.48769">
        <ele>337.20001220703</ele>
        <time>2022-01-15T10:18:01.000Z</time>
      </trkpt>
      <trkpt lat="43.88769" lon="7.48775">
        <ele>336</ele>
        <time>2022-01-15T10:18:02.000Z</time>
      </trkpt>
      <trkpt lat="43.88773" lon="7.48779">
        <ele>334.79998779297</ele>
        <time>2022-01-15T10:18:03.000Z</time>
      </trkpt>
      <trkpt lat="43.88778" lon="7.48782">
        <ele>333.39999389648</ele>
        <time>2022-01-15T10:18:04.000Z</time>
      </trkpt>
      <trkpt lat="43.88783" lon="7.48785">
        <ele>332</ele>
        <time>2022-01-15T10:18:05.000Z</time>
      </trkpt>
      <trkpt lat="43.88788" lon="7.48786">
        <ele>331.20001220703</ele>
        <time>2022-01-15T10:18:06.000Z</time>
      </trkpt>
      <trkpt lat="43.88794" lon="7.48788">
        <ele>330</ele>
        <time>2022-01-15T10:18:07.000Z</time>
      </trkpt>
      <trkpt lat="43.88799" lon="7.48791">
        <ele>328.20001220703</ele>
        <time>2022-01-15T10:18:08.000Z</time>
      </trkpt>
      <trkpt lat="43.88802" lon="7.48793">
        <ele>326.79998779297</ele>
        <time>2022-01-15T10:18:09.000Z</time>
      </trkpt>
      <trkpt lat="43.88806" lon="7.48797">
        <ele>325.79998779297</ele>
        <time>2022-01-15T10:18:10.000Z</time>
      </trkpt>
      <trkpt lat="43.88807" lon="7.488">
        <ele>323.39999389648</ele>
        <time>2022-01-15T10:18:11.000Z</time>
      </trkpt>
      <trkpt lat="43.88807" lon="7.48804">
        <ele>322.39999389648</ele>
        <time>2022-01-15T10:18:13.000Z</time>
      </trkpt>
      <trkpt lat="43.88806" lon="7.48805">
        <ele>321.60000610352</ele>
        <time>2022-01-15T10:18:14.000Z</time>
      </trkpt>
      <trkpt lat="43.88805" lon="7.48806">
        <ele>321</ele>
        <time>2022-01-15T10:18:17.000Z</time>
      </trkpt>
      <trkpt lat="43.88803" lon="7.48809">
        <ele>320.79998779297</ele>
        <time>2022-01-15T10:18:27.000Z</time>
      </trkpt>
      <trkpt lat="43.88799" lon="7.48813">
        <ele>321.39999389648</ele>
        <time>2022-01-15T10:18:35.000Z</time>
      </trkpt>
      <trkpt lat="43.88797" lon="7.48816">
        <ele>322.60000610352</ele>
        <time>2022-01-15T10:18:41.000Z</time>
      </trkpt>
      <trkpt lat="43.88796" lon="7.48816">
        <ele>323.20001220703</ele>
        <time>2022-01-15T10:18:44.000Z</time>
      </trkpt>
      <trkpt lat="43.88796" lon="7.48816">
        <ele>323.20001220703</ele>
        <time>2022-01-15T10:18:52.000Z</time>
      </trkpt>
      <trkpt lat="43.88791" lon="7.48821">
        <ele>323.20001220703</ele>
        <time>2022-01-15T10:18:56.000Z</time>
      </trkpt>
      <trkpt lat="43.88787" lon="7.48825">
        <ele>323.79998779297</ele>
        <time>2022-01-15T10:18:59.000Z</time>
      </trkpt>
      <trkpt lat="43.88787" lon="7.48825">
        <ele>324.60000610352</ele>
        <time>2022-01-15T10:19:01.000Z</time>
      </trkpt>
      <trkpt lat="43.88786" lon="7.48825">
        <ele>325.20001220703</ele>
        <time>2022-01-15T10:19:03.000Z</time>
      </trkpt>
      <trkpt lat="43.88785" lon="7.48825">
        <ele>325.60000610352</ele>
        <time>2022-01-15T10:19:07.000Z</time>
      </trkpt>
      <trkpt lat="43.8878" lon="7.48826">
        <ele>325.79998779297</ele>
        <time>2022-01-15T10:19:12.000Z</time>
      </trkpt>
      <trkpt lat="43.88775" lon="7.48828">
        <ele>326.39999389648</ele>
        <time>2022-01-15T10:19:15.000Z</time>
      </trkpt>
      <trkpt lat="43.88769" lon="7.4883">
        <ele>327.39999389648</ele>
        <time>2022-01-15T10:19:18.000Z</time>
      </trkpt>
      <trkpt lat="43.88767" lon="7.4883">
        <ele>327.60000610352</ele>
        <time>2022-01-15T10:19:19.000Z</time>
      </trkpt>
      <trkpt lat="43.88765" lon="7.48831">
        <ele>328.20001220703</ele>
        <time>2022-01-15T10:19:21.000Z</time>
      </trkpt>
      <trkpt lat="43.88764" lon="7.48832">
        <ele>328.60000610352</ele>
        <time>2022-01-15T10:19:22.000Z</time>
      </trkpt>
      <trkpt lat="43.88762" lon="7.48832">
        <ele>329.39999389648</ele>
        <time>2022-01-15T10:19:24.000Z</time>
      </trkpt>
      <trkpt lat="43.88761" lon="7.48832">
        <ele>329.79998779297</ele>
        <time>2022-01-15T10:19:25.000Z</time>
      </trkpt>
      <trkpt lat="43.88761" lon="7.48832">
        <ele>330.79998779297</ele>
        <time>2022-01-15T10:19:28.000Z</time>
      </trkpt>
      <trkpt lat="43.88761" lon="7.48832">
        <ele>331</ele>
        <time>2022-01-15T10:19:29.000Z</time>
      </trkpt>
      <trkpt lat="43.88757" lon="7.48833">
        <ele>331.60000610352</ele>
        <time>2022-01-15T10:19:36.000Z</time>
      </trkpt>
      <trkpt lat="43.88755" lon="7.48835">
        <ele>332</ele>
        <time>2022-01-15T10:19:39.000Z</time>
      </trkpt>
      <trkpt lat="43.88753" lon="7.48839">
        <ele>332.60000610352</ele>
        <time>2022-01-15T10:19:43.000Z</time>
      </trkpt>
      <trkpt lat="43.8875" lon="7.48843">
        <ele>333</ele>
        <time>2022-01-15T10:19:48.000Z</time>
      </trkpt>
      <trkpt lat="43.88749" lon="7.48843">
        <ele>333.39999389648</ele>
        <time>2022-01-15T10:19:51.000Z</time>
      </trkpt>
      <trkpt lat="43.88742" lon="7.48848">
        <ele>333.60000610352</ele>
        <time>2022-01-15T10:19:57.000Z</time>
      </trkpt>
      <trkpt lat="43.88732" lon="7.4886">
        <ele>333.20001220703</ele>
        <time>2022-01-15T10:20:03.000Z</time>
      </trkpt>
      <trkpt lat="43.88729" lon="7.48887">
        <ele>333</ele>
        <time>2022-01-15T10:20:09.000Z</time>
      </trkpt>
      <trkpt lat="43.88726" lon="7.48901">
        <ele>331.39999389648</ele>
        <time>2022-01-15T10:20:12.000Z</time>
      </trkpt>
      <trkpt lat="43.88726" lon="7.48901">
        <ele>331</ele>
        <time>2022-01-15T10:20:13.000Z</time>
      </trkpt>
      <trkpt lat="43.88726" lon="7.48902">
        <ele>330.39999389648</ele>
        <time>2022-01-15T10:20:15.000Z</time>
      </trkpt>
      <trkpt lat="43.88725" lon="7.48901">
        <ele>330</ele>
        <time>2022-01-15T10:20:19.000Z</time>
      </trkpt>
      <trkpt lat="43.88725" lon="7.48902">
        <ele>330</ele>
        <time>2022-01-15T10:20:27.000Z</time>
      </trkpt>
      <trkpt lat="43.88725" lon="7.48903">
        <ele>330</ele>
        <time>2022-01-15T10:20:33.000Z</time>
      </trkpt>
      <trkpt lat="43.88724" lon="7.48904">
        <ele>330</ele>
        <time>2022-01-15T10:20:44.000Z</time>
      </trkpt>
      <trkpt lat="43.88724" lon="7.48904">
        <ele>329.39999389648</ele>
        <time>2022-01-15T10:20:51.000Z</time>
      </trkpt>
      <trkpt lat="43.88725" lon="7.48904">
        <ele>329.39999389648</ele>
        <time>2022-01-15T10:20:53.000Z</time>
      </trkpt>
      <trkpt lat="43.88725" lon="7.4891">
        <ele>329.79998779297</ele>
        <time>2022-01-15T10:20:56.000Z</time>
      </trkpt>
      <trkpt lat="43.88725" lon="7.48925">
        <ele>329.79998779297</ele>
        <time>2022-01-15T10:20:59.000Z</time>
      </trkpt>
      <trkpt lat="43.88724" lon="7.48932">
        <ele>329.60000610352</ele>
        <time>2022-01-15T10:21:00.000Z</time>
      </trkpt>
      <trkpt lat="43.88723" lon="7.48957">
        <ele>327.60000610352</ele>
        <time>2022-01-15T10:21:03.000Z</time>
      </trkpt>
      <trkpt lat="43.88723" lon="7.48962">
        <ele>327</ele>
        <time>2022-01-15T10:21:04.000Z</time>
      </trkpt>
      <trkpt lat="43.88725" lon="7.48968">
        <ele>325.60000610352</ele>
        <time>2022-01-15T10:21:05.000Z</time>
      </trkpt>
      <trkpt lat="43.88725" lon="7.48973">
        <ele>324.39999389648</ele>
        <time>2022-01-15T10:21:06.000Z</time>
      </trkpt>
      <trkpt lat="43.88724" lon="7.48983">
        <ele>323</ele>
        <time>2022-01-15T10:21:08.000Z</time>
      </trkpt>
      <trkpt lat="43.88723" lon="7.48988">
        <ele>322.39999389648</ele>
        <time>2022-01-15T10:21:09.000Z</time>
      </trkpt>
      <trkpt lat="43.88724" lon="7.48995">
        <ele>321.60000610352</ele>
        <time>2022-01-15T10:21:10.000Z</time>
      </trkpt>
      <trkpt lat="43.88728" lon="7.49005">
        <ele>320</ele>
        <time>2022-01-15T10:21:12.000Z</time>
      </trkpt>
      <trkpt lat="43.8873" lon="7.49014">
        <ele>318.79998779297</ele>
        <time>2022-01-15T10:21:14.000Z</time>
      </trkpt>
      <trkpt lat="43.8873" lon="7.4902">
        <ele>318.79998779297</ele>
        <time>2022-01-15T10:21:15.000Z</time>
      </trkpt>
      <trkpt lat="43.88731" lon="7.49026">
        <ele>318.60000610352</ele>
        <time>2022-01-15T10:21:16.000Z</time>
      </trkpt>
      <trkpt lat="43.8874" lon="7.49054">
        <ele>318</ele>
        <time>2022-01-15T10:21:22.000Z</time>
      </trkpt>
      <trkpt lat="43.88749" lon="7.4907">
        <ele>318.20001220703</ele>
        <time>2022-01-15T10:21:27.000Z</time>
      </trkpt>
      <trkpt lat="43.88756" lon="7.49086">
        <ele>320</ele>
        <time>2022-01-15T10:21:32.000Z</time>
      </trkpt>
      <trkpt lat="43.88757" lon="7.4909">
        <ele>320.20001220703</ele>
        <time>2022-01-15T10:21:33.000Z</time>
      </trkpt>
      <trkpt lat="43.88758" lon="7.49104">
        <ele>321</ele>
        <time>2022-01-15T10:21:36.000Z</time>
      </trkpt>
      <trkpt lat="43.88759" lon="7.49113">
        <ele>321.20001220703</ele>
        <time>2022-01-15T10:21:38.000Z</time>
      </trkpt>
      <trkpt lat="43.88765" lon="7.49145">
        <ele>320.20001220703</ele>
        <time>2022-01-15T10:21:44.000Z</time>
      </trkpt>
      <trkpt lat="43.88767" lon="7.49152">
        <ele>319.60000610352</ele>
        <time>2022-01-15T10:21:45.000Z</time>
      </trkpt>
      <trkpt lat="43.88767" lon="7.49167">
        <ele>318.39999389648</ele>
        <time>2022-01-15T10:21:47.000Z</time>
      </trkpt>
      <trkpt lat="43.88766" lon="7.49174">
        <ele>317.79998779297</ele>
        <time>2022-01-15T10:21:48.000Z</time>
      </trkpt>
      <trkpt lat="43.88766" lon="7.4918">
        <ele>317</ele>
        <time>2022-01-15T10:21:49.000Z</time>
      </trkpt>
      <trkpt lat="43.88763" lon="7.4919">
        <ele>315.60000610352</ele>
        <time>2022-01-15T10:21:51.000Z</time>
      </trkpt>
      <trkpt lat="43.88761" lon="7.49202">
        <ele>314.20001220703</ele>
        <time>2022-01-15T10:21:53.000Z</time>
      </trkpt>
      <trkpt lat="43.8876" lon="7.4921">
        <ele>313</ele>
        <time>2022-01-15T10:21:55.000Z</time>
      </trkpt>
      <trkpt lat="43.88758" lon="7.49221">
        <ele>312</ele>
        <time>2022-01-15T10:21:57.000Z</time>
      </trkpt>
      <trkpt lat="43.88754" lon="7.49232">
        <ele>311.20001220703</ele>
        <time>2022-01-15T10:21:59.000Z</time>
      </trkpt>
      <trkpt lat="43.88748" lon="7.49242">
        <ele>310.79998779297</ele>
        <time>2022-01-15T10:22:01.000Z</time>
      </trkpt>
      <trkpt lat="43.88745" lon="7.49252">
        <ele>310.20001220703</ele>
        <time>2022-01-15T10:22:03.000Z</time>
      </trkpt>
      <trkpt lat="43.88744" lon="7.49256">
        <ele>309.79998779297</ele>
        <time>2022-01-15T10:22:04.000Z</time>
      </trkpt>
      <trkpt lat="43.88739" lon="7.49269">
        <ele>309</ele>
        <time>2022-01-15T10:22:07.000Z</time>
      </trkpt>
      <trkpt lat="43.88736" lon="7.49274">
        <ele>308.60000610352</ele>
        <time>2022-01-15T10:22:08.000Z</time>
      </trkpt>
      <trkpt lat="43.88734" lon="7.49278">
        <ele>308.60000610352</ele>
        <time>2022-01-15T10:22:09.000Z</time>
      </trkpt>
      <trkpt lat="43.88723" lon="7.49291">
        <ele>307.20001220703</ele>
        <time>2022-01-15T10:22:12.000Z</time>
      </trkpt>
      <trkpt lat="43.8872" lon="7.49297">
        <ele>306.79998779297</ele>
        <time>2022-01-15T10:22:13.000Z</time>
      </trkpt>
      <trkpt lat="43.88718" lon="7.49301">
        <ele>306.20001220703</ele>
        <time>2022-01-15T10:22:14.000Z</time>
      </trkpt>
      <trkpt lat="43.88714" lon="7.49308">
        <ele>304</ele>
        <time>2022-01-15T10:22:16.000Z</time>
      </trkpt>
      <trkpt lat="43.88711" lon="7.49318">
        <ele>302.20001220703</ele>
        <time>2022-01-15T10:22:19.000Z</time>
      </trkpt>
      <trkpt lat="43.88708" lon="7.49324">
        <ele>301.60000610352</ele>
        <time>2022-01-15T10:22:20.000Z</time>
      </trkpt>
      <trkpt lat="43.88701" lon="7.49337">
        <ele>300.60000610352</ele>
        <time>2022-01-15T10:22:22.000Z</time>
      </trkpt>
      <trkpt lat="43.88695" lon="7.49348">
        <ele>298.79998779297</ele>
        <time>2022-01-15T10:22:24.000Z</time>
      </trkpt>
      <trkpt lat="43.88687" lon="7.49355">
        <ele>297.60000610352</ele>
        <time>2022-01-15T10:22:26.000Z</time>
      </trkpt>
      <trkpt lat="43.88684" lon="7.49356">
        <ele>297.39999389648</ele>
        <time>2022-01-15T10:22:27.000Z</time>
      </trkpt>
      <trkpt lat="43.8868" lon="7.49359">
        <ele>297.60000610352</ele>
        <time>2022-01-15T10:22:29.000Z</time>
      </trkpt>
      <trkpt lat="43.88675" lon="7.4936">
        <ele>297.79998779297</ele>
        <time>2022-01-15T10:22:31.000Z</time>
      </trkpt>
      <trkpt lat="43.88666" lon="7.4937">
        <ele>297.20001220703</ele>
        <time>2022-01-15T10:22:35.000Z</time>
      </trkpt>
      <trkpt lat="43.88653" lon="7.49388">
        <ele>297.60000610352</ele>
        <time>2022-01-15T10:22:40.000Z</time>
      </trkpt>
      <trkpt lat="43.88642" lon="7.49408">
        <ele>297.79998779297</ele>
        <time>2022-01-15T10:22:45.000Z</time>
      </trkpt>
      <trkpt lat="43.88626" lon="7.49428">
        <ele>297.79998779297</ele>
        <time>2022-01-15T10:22:51.000Z</time>
      </trkpt>
      <trkpt lat="43.88619" lon="7.49445">
        <ele>297.39999389648</ele>
        <time>2022-01-15T10:22:55.000Z</time>
      </trkpt>
      <trkpt lat="43.88615" lon="7.49465">
        <ele>297.20001220703</ele>
        <time>2022-01-15T10:23:00.000Z</time>
      </trkpt>
      <trkpt lat="43.88613" lon="7.49476">
        <ele>297.20001220703</ele>
        <time>2022-01-15T10:23:02.000Z</time>
      </trkpt>
      <trkpt lat="43.88612" lon="7.49485">
        <ele>296.60000610352</ele>
        <time>2022-01-15T10:23:04.000Z</time>
      </trkpt>
      <trkpt lat="43.88608" lon="7.49502">
        <ele>295.39999389648</ele>
        <time>2022-01-15T10:23:08.000Z</time>
      </trkpt>
      <trkpt lat="43.88603" lon="7.49514">
        <ele>294.39999389648</ele>
        <time>2022-01-15T10:23:12.000Z</time>
      </trkpt>
      <trkpt lat="43.88601" lon="7.49517">
        <ele>294.20001220703</ele>
        <time>2022-01-15T10:23:14.000Z</time>
      </trkpt>
      <trkpt lat="43.88596" lon="7.49524">
        <ele>294</ele>
        <time>2022-01-15T10:23:18.000Z</time>
      </trkpt>
      <trkpt lat="43.88589" lon="7.49532">
        <ele>294.60000610352</ele>
        <time>2022-01-15T10:23:23.000Z</time>
      </trkpt>
      <trkpt lat="43.88582" lon="7.49538">
        <ele>295.39999389648</ele>
        <time>2022-01-15T10:23:27.000Z</time>
      </trkpt>
      <trkpt lat="43.88576" lon="7.4954">
        <ele>296.60000610352</ele>
        <time>2022-01-15T10:23:30.000Z</time>
      </trkpt>
      <trkpt lat="43.88572" lon="7.4954">
        <ele>298</ele>
        <time>2022-01-15T10:23:33.000Z</time>
      </trkpt>
      <trkpt lat="43.88571" lon="7.4954">
        <ele>298.39999389648</ele>
        <time>2022-01-15T10:23:34.000Z</time>
      </trkpt>
      <trkpt lat="43.88567" lon="7.49541">
        <ele>299.20001220703</ele>
        <time>2022-01-15T10:23:36.000Z</time>
      </trkpt>
      <trkpt lat="43.88563" lon="7.49544">
        <ele>300</ele>
        <time>2022-01-15T10:23:39.000Z</time>
      </trkpt>
      <trkpt lat="43.88562" lon="7.49545">
        <ele>300.60000610352</ele>
        <time>2022-01-15T10:23:40.000Z</time>
      </trkpt>
      <trkpt lat="43.88557" lon="7.4955">
        <ele>301.79998779297</ele>
        <time>2022-01-15T10:23:44.000Z</time>
      </trkpt>
      <trkpt lat="43.88556" lon="7.49552">
        <ele>301.79998779297</ele>
        <time>2022-01-15T10:23:45.000Z</time>
      </trkpt>
      <trkpt lat="43.8855" lon="7.49564">
        <ele>302.39999389648</ele>
        <time>2022-01-15T10:23:49.000Z</time>
      </trkpt>
      <trkpt lat="43.8855" lon="7.49567">
        <ele>302.79998779297</ele>
        <time>2022-01-15T10:23:50.000Z</time>
      </trkpt>
      <trkpt lat="43.88547" lon="7.49577">
        <ele>303.79998779297</ele>
        <time>2022-01-15T10:23:53.000Z</time>
      </trkpt>
      <trkpt lat="43.88542" lon="7.49585">
        <ele>305</ele>
        <time>2022-01-15T10:23:56.000Z</time>
      </trkpt>
      <trkpt lat="43.88539" lon="7.49594">
        <ele>306.39999389648</ele>
        <time>2022-01-15T10:23:59.000Z</time>
      </trkpt>
      <trkpt lat="43.88537" lon="7.49598">
        <ele>307.60000610352</ele>
        <time>2022-01-15T10:24:01.000Z</time>
      </trkpt>
      <trkpt lat="43.88533" lon="7.49607">
        <ele>308.60000610352</ele>
        <time>2022-01-15T10:24:04.000Z</time>
      </trkpt>
      <trkpt lat="43.88532" lon="7.49611">
        <ele>308.79998779297</ele>
        <time>2022-01-15T10:24:05.000Z</time>
      </trkpt>
      <trkpt lat="43.88529" lon="7.49623">
        <ele>309.79998779297</ele>
        <time>2022-01-15T10:24:09.000Z</time>
      </trkpt>
      <trkpt lat="43.88523" lon="7.49634">
        <ele>311</ele>
        <time>2022-01-15T10:24:13.000Z</time>
      </trkpt>
      <trkpt lat="43.88519" lon="7.49645">
        <ele>311.20001220703</ele>
        <time>2022-01-15T10:24:16.000Z</time>
      </trkpt>
      <trkpt lat="43.88514" lon="7.49655">
        <ele>312.20001220703</ele>
        <time>2022-01-15T10:24:20.000Z</time>
      </trkpt>
      <trkpt lat="43.88513" lon="7.49658">
        <ele>312.39999389648</ele>
        <time>2022-01-15T10:24:21.000Z</time>
      </trkpt>
      <trkpt lat="43.88507" lon="7.49671">
        <ele>313.20001220703</ele>
        <time>2022-01-15T10:24:26.000Z</time>
      </trkpt>
      <trkpt lat="43.88506" lon="7.49674">
        <ele>313.39999389648</ele>
        <time>2022-01-15T10:24:27.000Z</time>
      </trkpt>
      <trkpt lat="43.88496" lon="7.497">
        <ele>314.20001220703</ele>
        <time>2022-01-15T10:24:35.000Z</time>
      </trkpt>
      <trkpt lat="43.88494" lon="7.49703">
        <ele>314.20001220703</ele>
        <time>2022-01-15T10:24:36.000Z</time>
      </trkpt>
      <trkpt lat="43.88487" lon="7.49719">
        <ele>315</ele>
        <time>2022-01-15T10:24:41.000Z</time>
      </trkpt>
      <trkpt lat="43.8848" lon="7.49725">
        <ele>315.39999389648</ele>
        <time>2022-01-15T10:24:45.000Z</time>
      </trkpt>
      <trkpt lat="43.8847" lon="7.49731">
        <ele>315.39999389648</ele>
        <time>2022-01-15T10:24:50.000Z</time>
      </trkpt>
      <trkpt lat="43.88462" lon="7.49739">
        <ele>314.20001220703</ele>
        <time>2022-01-15T10:24:53.000Z</time>
      </trkpt>
      <trkpt lat="43.8846" lon="7.49741">
        <ele>313.79998779297</ele>
        <time>2022-01-15T10:24:54.000Z</time>
      </trkpt>
      <trkpt lat="43.88451" lon="7.49755">
        <ele>315</ele>
        <time>2022-01-15T10:25:00.000Z</time>
      </trkpt>
      <trkpt lat="43.8845" lon="7.49757">
        <ele>315.60000610352</ele>
        <time>2022-01-15T10:25:01.000Z</time>
      </trkpt>
      <trkpt lat="43.88446" lon="7.49759">
        <ele>317.20001220703</ele>
        <time>2022-01-15T10:25:03.000Z</time>
      </trkpt>
      <trkpt lat="43.88443" lon="7.49761">
        <ele>318.20001220703</ele>
        <time>2022-01-15T10:25:05.000Z</time>
      </trkpt>
      <trkpt lat="43.88442" lon="7.49762">
        <ele>318.39999389648</ele>
        <time>2022-01-15T10:25:06.000Z</time>
      </trkpt>
      <trkpt lat="43.88439" lon="7.49763">
        <ele>319</ele>
        <time>2022-01-15T10:25:09.000Z</time>
      </trkpt>
      <trkpt lat="43.88438" lon="7.49765">
        <ele>319.39999389648</ele>
        <time>2022-01-15T10:25:12.000Z</time>
      </trkpt>
      <trkpt lat="43.88437" lon="7.49767">
        <ele>319.60000610352</ele>
        <time>2022-01-15T10:25:17.000Z</time>
      </trkpt>
      <trkpt lat="43.88435" lon="7.49769">
        <ele>320</ele>
        <time>2022-01-15T10:25:20.000Z</time>
      </trkpt>
      <trkpt lat="43.88434" lon="7.4977">
        <ele>320.79998779297</ele>
        <time>2022-01-15T10:25:23.000Z</time>
      </trkpt>
      <trkpt lat="43.88433" lon="7.49771">
        <ele>320.60000610352</ele>
        <time>2022-01-15T10:25:25.000Z</time>
      </trkpt>
      <trkpt lat="43.88432" lon="7.49772">
        <ele>321</ele>
        <time>2022-01-15T10:25:31.000Z</time>
      </trkpt>
      <trkpt lat="43.88431" lon="7.49773">
        <ele>321</ele>
        <time>2022-01-15T10:25:32.000Z</time>
      </trkpt>
      <trkpt lat="43.88427" lon="7.49777">
        <ele>321</ele>
        <time>2022-01-15T10:25:35.000Z</time>
      </trkpt>
      <trkpt lat="43.88421" lon="7.49785">
        <ele>321.20001220703</ele>
        <time>2022-01-15T10:25:40.000Z</time>
      </trkpt>
      <trkpt lat="43.88421" lon="7.49788">
        <ele>321.20001220703</ele>
        <time>2022-01-15T10:25:41.000Z</time>
      </trkpt>
      <trkpt lat="43.8842" lon="7.4979">
        <ele>322</ele>
        <time>2022-01-15T10:25:44.000Z</time>
      </trkpt>
      <trkpt lat="43.8842" lon="7.49791">
        <ele>322.20001220703</ele>
        <time>2022-01-15T10:25:45.000Z</time>
      </trkpt>
      <trkpt lat="43.8842" lon="7.49791">
        <ele>323</ele>
        <time>2022-01-15T10:25:48.000Z</time>
      </trkpt>
      <trkpt lat="43.88419" lon="7.49793">
        <ele>323.20001220703</ele>
        <time>2022-01-15T10:25:52.000Z</time>
      </trkpt>
      <trkpt lat="43.88418" lon="7.49796">
        <ele>323.79998779297</ele>
        <time>2022-01-15T10:25:59.000Z</time>
      </trkpt>
      <trkpt lat="43.88418" lon="7.49796">
        <ele>324</ele>
        <time>2022-01-15T10:26:01.000Z</time>
      </trkpt>
      <trkpt lat="43.88417" lon="7.49797">
        <ele>324.39999389648</ele>
        <time>2022-01-15T10:26:05.000Z</time>
      </trkpt>
      <trkpt lat="43.88414" lon="7.49803">
        <ele>324.39999389648</ele>
        <time>2022-01-15T10:26:14.000Z</time>
      </trkpt>
      <trkpt lat="43.88405" lon="7.49813">
        <ele>325</ele>
        <time>2022-01-15T10:26:20.000Z</time>
      </trkpt>
      <trkpt lat="43.88403" lon="7.49815">
        <ele>325.60000610352</ele>
        <time>2022-01-15T10:26:21.000Z</time>
      </trkpt>
      <trkpt lat="43.88398" lon="7.49819">
        <ele>326.60000610352</ele>
        <time>2022-01-15T10:26:24.000Z</time>
      </trkpt>
      <trkpt lat="43.88395" lon="7.49822">
        <ele>328</ele>
        <time>2022-01-15T10:26:26.000Z</time>
      </trkpt>
      <trkpt lat="43.88392" lon="7.49825">
        <ele>329.20001220703</ele>
        <time>2022-01-15T10:26:28.000Z</time>
      </trkpt>
      <trkpt lat="43.88389" lon="7.49829">
        <ele>330.60000610352</ele>
        <time>2022-01-15T10:26:30.000Z</time>
      </trkpt>
      <trkpt lat="43.88386" lon="7.49834">
        <ele>332</ele>
        <time>2022-01-15T10:26:33.000Z</time>
      </trkpt>
      <trkpt lat="43.88381" lon="7.4984">
        <ele>333</ele>
        <time>2022-01-15T10:26:37.000Z</time>
      </trkpt>
      <trkpt lat="43.8838" lon="7.49841">
        <ele>333.39999389648</ele>
        <time>2022-01-15T10:26:38.000Z</time>
      </trkpt>
      <trkpt lat="43.88377" lon="7.49843">
        <ele>334.39999389648</ele>
        <time>2022-01-15T10:26:40.000Z</time>
      </trkpt>
      <trkpt lat="43.88371" lon="7.49851">
        <ele>335.20001220703</ele>
        <time>2022-01-15T10:26:44.000Z</time>
      </trkpt>
      <trkpt lat="43.8837" lon="7.49853">
        <ele>335.39999389648</ele>
        <time>2022-01-15T10:26:45.000Z</time>
      </trkpt>
      <trkpt lat="43.88366" lon="7.49862">
        <ele>336.79998779297</ele>
        <time>2022-01-15T10:26:49.000Z</time>
      </trkpt>
      <trkpt lat="43.88363" lon="7.4987">
        <ele>338.39999389648</ele>
        <time>2022-01-15T10:26:52.000Z</time>
      </trkpt>
      <trkpt lat="43.8836" lon="7.49876">
        <ele>339.39999389648</ele>
        <time>2022-01-15T10:26:55.000Z</time>
      </trkpt>
      <trkpt lat="43.88354" lon="7.49887">
        <ele>340.39999389648</ele>
        <time>2022-01-15T10:27:00.000Z</time>
      </trkpt>
      <trkpt lat="43.8835" lon="7.49896">
        <ele>341.60000610352</ele>
        <time>2022-01-15T10:27:04.000Z</time>
      </trkpt>
      <trkpt lat="43.88349" lon="7.49901">
        <ele>343</ele>
        <time>2022-01-15T10:27:08.000Z</time>
      </trkpt>
      <trkpt lat="43.88348" lon="7.49902">
        <ele>344</ele>
        <time>2022-01-15T10:27:12.000Z</time>
      </trkpt>
      <trkpt lat="43.88348" lon="7.49903">
        <ele>344</ele>
        <time>2022-01-15T10:27:14.000Z</time>
      </trkpt>
      <trkpt lat="43.88348" lon="7.49904">
        <ele>344.39999389648</ele>
        <time>2022-01-15T10:27:21.000Z</time>
      </trkpt>
      <trkpt lat="43.88348" lon="7.49904">
        <ele>344.60000610352</ele>
        <time>2022-01-15T10:27:27.000Z</time>
      </trkpt>
      <trkpt lat="43.88348" lon="7.49905">
        <ele>344.60000610352</ele>
        <time>2022-01-15T10:27:29.000Z</time>
      </trkpt>
      <trkpt lat="43.88347" lon="7.49907">
        <ele>344.79998779297</ele>
        <time>2022-01-15T10:27:32.000Z</time>
      </trkpt>
      <trkpt lat="43.88347" lon="7.49911">
        <ele>345</ele>
        <time>2022-01-15T10:27:38.000Z</time>
      </trkpt>
      <trkpt lat="43.88346" lon="7.49913">
        <ele>346</ele>
        <time>2022-01-15T10:27:44.000Z</time>
      </trkpt>
      <trkpt lat="43.88339" lon="7.49926">
        <ele>346.60000610352</ele>
        <time>2022-01-15T10:27:50.000Z</time>
      </trkpt>
      <trkpt lat="43.88337" lon="7.49934">
        <ele>347.20001220703</ele>
        <time>2022-01-15T10:27:53.000Z</time>
      </trkpt>
      <trkpt lat="43.88334" lon="7.49944">
        <ele>347.60000610352</ele>
        <time>2022-01-15T10:27:57.000Z</time>
      </trkpt>
      <trkpt lat="43.88332" lon="7.49952">
        <ele>348.20001220703</ele>
        <time>2022-01-15T10:28:01.000Z</time>
      </trkpt>
      <trkpt lat="43.88331" lon="7.49956">
        <ele>349</ele>
        <time>2022-01-15T10:28:03.000Z</time>
      </trkpt>
      <trkpt lat="43.88331" lon="7.49957">
        <ele>349.39999389648</ele>
        <time>2022-01-15T10:28:04.000Z</time>
      </trkpt>
      <trkpt lat="43.88331" lon="7.49959">
        <ele>350.60000610352</ele>
        <time>2022-01-15T10:28:07.000Z</time>
      </trkpt>
      <trkpt lat="43.8833" lon="7.49958">
        <ele>351</ele>
        <time>2022-01-15T10:28:14.000Z</time>
      </trkpt>
      <trkpt lat="43.88328" lon="7.49963">
        <ele>351.20001220703</ele>
        <time>2022-01-15T10:28:18.000Z</time>
      </trkpt>
      <trkpt lat="43.88323" lon="7.49975">
        <ele>351.60000610352</ele>
        <time>2022-01-15T10:28:23.000Z</time>
      </trkpt>
      <trkpt lat="43.88322" lon="7.49977">
        <ele>351.60000610352</ele>
        <time>2022-01-15T10:28:24.000Z</time>
      </trkpt>
      <trkpt lat="43.88318" lon="7.4999">
        <ele>352</ele>
        <time>2022-01-15T10:28:29.000Z</time>
      </trkpt>
      <trkpt lat="43.88315" lon="7.49999">
        <ele>352.79998779297</ele>
        <time>2022-01-15T10:28:33.000Z</time>
      </trkpt>
      <trkpt lat="43.88312" lon="7.50004">
        <ele>353</ele>
        <time>2022-01-15T10:28:35.000Z</time>
      </trkpt>
      <trkpt lat="43.88303" lon="7.50025">
        <ele>351.79998779297</ele>
        <time>2022-01-15T10:28:41.000Z</time>
      </trkpt>
      <trkpt lat="43.88303" lon="7.50027">
        <ele>351.39999389648</ele>
        <time>2022-01-15T10:28:42.000Z</time>
      </trkpt>
      <trkpt lat="43.88302" lon="7.5004">
        <ele>352</ele>
        <time>2022-01-15T10:28:47.000Z</time>
      </trkpt>
      <trkpt lat="43.883" lon="7.50047">
        <ele>352.60000610352</ele>
        <time>2022-01-15T10:28:50.000Z</time>
      </trkpt>
      <trkpt lat="43.883" lon="7.50049">
        <ele>352.60000610352</ele>
        <time>2022-01-15T10:28:51.000Z</time>
      </trkpt>
      <trkpt lat="43.883" lon="7.50052">
        <ele>352.39999389648</ele>
        <time>2022-01-15T10:28:53.000Z</time>
      </trkpt>
      <trkpt lat="43.88298" lon="7.50051">
        <ele>351.20001220703</ele>
        <time>2022-01-15T10:28:57.000Z</time>
      </trkpt>
      <trkpt lat="43.88297" lon="7.50049">
        <ele>350.60000610352</ele>
        <time>2022-01-15T10:29:03.000Z</time>
      </trkpt>
      <trkpt lat="43.88296" lon="7.50048">
        <ele>350.20001220703</ele>
        <time>2022-01-15T10:29:06.000Z</time>
      </trkpt>
      <trkpt lat="43.88295" lon="7.50051">
        <ele>349.79998779297</ele>
        <time>2022-01-15T10:29:09.000Z</time>
      </trkpt>
      <trkpt lat="43.8829" lon="7.50065">
        <ele>349</ele>
        <time>2022-01-15T10:29:13.000Z</time>
      </trkpt>
      <trkpt lat="43.88286" lon="7.50079">
        <ele>348.20001220703</ele>
        <time>2022-01-15T10:29:17.000Z</time>
      </trkpt>
      <trkpt lat="43.88285" lon="7.50082">
        <ele>347.79998779297</ele>
        <time>2022-01-15T10:29:18.000Z</time>
      </trkpt>
      <trkpt lat="43.88281" lon="7.50092">
        <ele>348</ele>
        <time>2022-01-15T10:29:22.000Z</time>
      </trkpt>
      <trkpt lat="43.8827" lon="7.50099">
        <ele>348</ele>
        <time>2022-01-15T10:29:27.000Z</time>
      </trkpt>
      <trkpt lat="43.88256" lon="7.50101">
        <ele>348</ele>
        <time>2022-01-15T10:29:33.000Z</time>
      </trkpt>
      <trkpt lat="43.8825" lon="7.5011">
        <ele>349</ele>
        <time>2022-01-15T10:29:38.000Z</time>
      </trkpt>
      <trkpt lat="43.88248" lon="7.50113">
        <ele>349.39999389648</ele>
        <time>2022-01-15T10:29:39.000Z</time>
      </trkpt>
      <trkpt lat="43.88245" lon="7.50117">
        <ele>350.20001220703</ele>
        <time>2022-01-15T10:29:41.000Z</time>
      </trkpt>
      <trkpt lat="43.88238" lon="7.50125">
        <ele>351.39999389648</ele>
        <time>2022-01-15T10:29:45.000Z</time>
      </trkpt>
      <trkpt lat="43.88235" lon="7.50134">
        <ele>352.39999389648</ele>
        <time>2022-01-15T10:29:49.000Z</time>
      </trkpt>
      <trkpt lat="43.88232" lon="7.50139">
        <ele>353.60000610352</ele>
        <time>2022-01-15T10:29:52.000Z</time>
      </trkpt>
      <trkpt lat="43.88227" lon="7.50156">
        <ele>354.39999389648</ele>
        <time>2022-01-15T10:29:59.000Z</time>
      </trkpt>
      <trkpt lat="43.88224" lon="7.50175">
        <ele>354.60000610352</ele>
        <time>2022-01-15T10:30:06.000Z</time>
      </trkpt>
      <trkpt lat="43.88223" lon="7.50178">
        <ele>354.79998779297</ele>
        <time>2022-01-15T10:30:07.000Z</time>
      </trkpt>
      <trkpt lat="43.88223" lon="7.50182">
        <ele>355.79998779297</ele>
        <time>2022-01-15T10:30:10.000Z</time>
      </trkpt>
      <trkpt lat="43.88223" lon="7.50184">
        <ele>356</ele>
        <time>2022-01-15T10:30:11.000Z</time>
      </trkpt>
      <trkpt lat="43.88225" lon="7.50196">
        <ele>356.79998779297</ele>
        <time>2022-01-15T10:30:15.000Z</time>
      </trkpt>
      <trkpt lat="43.88224" lon="7.50198">
        <ele>357</ele>
        <time>2022-01-15T10:30:16.000Z</time>
      </trkpt>
      <trkpt lat="43.88226" lon="7.50208">
        <ele>358.20001220703</ele>
        <time>2022-01-15T10:30:20.000Z</time>
      </trkpt>
      <trkpt lat="43.88227" lon="7.50227">
        <ele>359</ele>
        <time>2022-01-15T10:30:27.000Z</time>
      </trkpt>
      <trkpt lat="43.88228" lon="7.50229">
        <ele>359.20001220703</ele>
        <time>2022-01-15T10:30:28.000Z</time>
      </trkpt>
      <trkpt lat="43.88229" lon="7.50238">
        <ele>360</ele>
        <time>2022-01-15T10:30:32.000Z</time>
      </trkpt>
      <trkpt lat="43.88229" lon="7.50244">
        <ele>360.60000610352</ele>
        <time>2022-01-15T10:30:34.000Z</time>
      </trkpt>
      <trkpt lat="43.88225" lon="7.5025">
        <ele>361.60000610352</ele>
        <time>2022-01-15T10:30:37.000Z</time>
      </trkpt>
      <trkpt lat="43.88219" lon="7.50257">
        <ele>362.60000610352</ele>
        <time>2022-01-15T10:30:42.000Z</time>
      </trkpt>
      <trkpt lat="43.88219" lon="7.50259">
        <ele>362.79998779297</ele>
        <time>2022-01-15T10:30:43.000Z</time>
      </trkpt>
      <trkpt lat="43.88219" lon="7.50267">
        <ele>363.60000610352</ele>
        <time>2022-01-15T10:30:47.000Z</time>
      </trkpt>
      <trkpt lat="43.88219" lon="7.50271">
        <ele>364</ele>
        <time>2022-01-15T10:30:49.000Z</time>
      </trkpt>
      <trkpt lat="43.88218" lon="7.50278">
        <ele>364.79998779297</ele>
        <time>2022-01-15T10:30:52.000Z</time>
      </trkpt>
      <trkpt lat="43.88218" lon="7.50287">
        <ele>365</ele>
        <time>2022-01-15T10:30:55.000Z</time>
      </trkpt>
      <trkpt lat="43.88217" lon="7.50298">
        <ele>365</ele>
        <time>2022-01-15T10:30:59.000Z</time>
      </trkpt>
      <trkpt lat="43.88216" lon="7.50303">
        <ele>365.39999389648</ele>
        <time>2022-01-15T10:31:01.000Z</time>
      </trkpt>
      <trkpt lat="43.88217" lon="7.50309">
        <ele>366</ele>
        <time>2022-01-15T10:31:03.000Z</time>
      </trkpt>
      <trkpt lat="43.88215" lon="7.50319">
        <ele>366.79998779297</ele>
        <time>2022-01-15T10:31:07.000Z</time>
      </trkpt>
      <trkpt lat="43.88215" lon="7.50321">
        <ele>367.20001220703</ele>
        <time>2022-01-15T10:31:08.000Z</time>
      </trkpt>
      <trkpt lat="43.88211" lon="7.50332">
        <ele>367.79998779297</ele>
        <time>2022-01-15T10:31:13.000Z</time>
      </trkpt>
      <trkpt lat="43.88211" lon="7.50334">
        <ele>368.39999389648</ele>
        <time>2022-01-15T10:31:14.000Z</time>
      </trkpt>
      <trkpt lat="43.88211" lon="7.50334">
        <ele>369</ele>
        <time>2022-01-15T10:31:16.000Z</time>
      </trkpt>
      <trkpt lat="43.88212" lon="7.50335">
        <ele>369.39999389648</ele>
        <time>2022-01-15T10:31:17.000Z</time>
      </trkpt>
      <trkpt lat="43.88215" lon="7.50339">
        <ele>370.39999389648</ele>
        <time>2022-01-15T10:31:25.000Z</time>
      </trkpt>
      <trkpt lat="43.88216" lon="7.50343">
        <ele>370.60000610352</ele>
        <time>2022-01-15T10:31:27.000Z</time>
      </trkpt>
      <trkpt lat="43.88216" lon="7.50346">
        <ele>371.60000610352</ele>
        <time>2022-01-15T10:31:30.000Z</time>
      </trkpt>
      <trkpt lat="43.88216" lon="7.50347">
        <ele>372.60000610352</ele>
        <time>2022-01-15T10:31:35.000Z</time>
      </trkpt>
      <trkpt lat="43.88216" lon="7.50348">
        <ele>372.79998779297</ele>
        <time>2022-01-15T10:31:38.000Z</time>
      </trkpt>
      <trkpt lat="43.88216" lon="7.50349">
        <ele>373</ele>
        <time>2022-01-15T10:31:49.000Z</time>
      </trkpt>
      <trkpt lat="43.88214" lon="7.50353">
        <ele>373.39999389648</ele>
        <time>2022-01-15T10:31:56.000Z</time>
      </trkpt>
      <trkpt lat="43.88213" lon="7.50354">
        <ele>373.79998779297</ele>
        <time>2022-01-15T10:31:58.000Z</time>
      </trkpt>
      <trkpt lat="43.88215" lon="7.50357">
        <ele>374.39999389648</ele>
        <time>2022-01-15T10:32:03.000Z</time>
      </trkpt>
      <trkpt lat="43.88215" lon="7.50359">
        <ele>374.79998779297</ele>
        <time>2022-01-15T10:32:05.000Z</time>
      </trkpt>
      <trkpt lat="43.88217" lon="7.50361">
        <ele>375.39999389648</ele>
        <time>2022-01-15T10:32:09.000Z</time>
      </trkpt>
      <trkpt lat="43.88218" lon="7.50363">
        <ele>375.60000610352</ele>
        <time>2022-01-15T10:32:16.000Z</time>
      </trkpt>
      <trkpt lat="43.88217" lon="7.50363">
        <ele>375.79998779297</ele>
        <time>2022-01-15T10:32:22.000Z</time>
      </trkpt>
      <trkpt lat="43.88217" lon="7.50364">
        <ele>376.20001220703</ele>
        <time>2022-01-15T10:32:26.000Z</time>
      </trkpt>
      <trkpt lat="43.88221" lon="7.5037">
        <ele>376</ele>
        <time>2022-01-15T10:32:31.000Z</time>
      </trkpt>
      <trkpt lat="43.88232" lon="7.50384">
        <ele>374.79998779297</ele>
        <time>2022-01-15T10:32:36.000Z</time>
      </trkpt>
      <trkpt lat="43.88242" lon="7.50389">
        <ele>373.60000610352</ele>
        <time>2022-01-15T10:32:41.000Z</time>
      </trkpt>
      <trkpt lat="43.88242" lon="7.50388">
        <ele>373.39999389648</ele>
        <time>2022-01-15T10:32:42.000Z</time>
      </trkpt>
      <trkpt lat="43.88248" lon="7.50386">
        <ele>372.60000610352</ele>
        <time>2022-01-15T10:32:45.000Z</time>
      </trkpt>
      <trkpt lat="43.88249" lon="7.50388">
        <ele>372.20001220703</ele>
        <time>2022-01-15T10:32:46.000Z</time>
      </trkpt>
      <trkpt lat="43.88248" lon="7.50388">
        <ele>371.60000610352</ele>
        <time>2022-01-15T10:32:48.000Z</time>
      </trkpt>
      <trkpt lat="43.88249" lon="7.50391">
        <ele>371</ele>
        <time>2022-01-15T10:32:52.000Z</time>
      </trkpt>
      <trkpt lat="43.88248" lon="7.50391">
        <ele>370.79998779297</ele>
        <time>2022-01-15T10:32:53.000Z</time>
      </trkpt>
      <trkpt lat="43.8825" lon="7.50389">
        <ele>370</ele>
        <time>2022-01-15T10:32:56.000Z</time>
      </trkpt>
      <trkpt lat="43.88251" lon="7.50388">
        <ele>369.39999389648</ele>
        <time>2022-01-15T10:33:02.000Z</time>
      </trkpt>
      <trkpt lat="43.88257" lon="7.50387">
        <ele>369</ele>
        <time>2022-01-15T10:33:06.000Z</time>
      </trkpt>
      <trkpt lat="43.88253" lon="7.50392">
        <ele>367.79998779297</ele>
        <time>2022-01-15T10:33:09.000Z</time>
      </trkpt>
      <trkpt lat="43.88251" lon="7.50399">
        <ele>366.79998779297</ele>
        <time>2022-01-15T10:33:12.000Z</time>
      </trkpt>
      <trkpt lat="43.88251" lon="7.50398">
        <ele>366.39999389648</ele>
        <time>2022-01-15T10:33:13.000Z</time>
      </trkpt>
      <trkpt lat="43.88253" lon="7.50397">
        <ele>365.60000610352</ele>
        <time>2022-01-15T10:33:15.000Z</time>
      </trkpt>
      <trkpt lat="43.88255" lon="7.50395">
        <ele>365</ele>
        <time>2022-01-15T10:33:17.000Z</time>
      </trkpt>
      <trkpt lat="43.88259" lon="7.50393">
        <ele>364.60000610352</ele>
        <time>2022-01-15T10:33:19.000Z</time>
      </trkpt>
      <trkpt lat="43.88262" lon="7.50394">
        <ele>364.20001220703</ele>
        <time>2022-01-15T10:33:20.000Z</time>
      </trkpt>
      <trkpt lat="43.88264" lon="7.50396">
        <ele>363.60000610352</ele>
        <time>2022-01-15T10:33:21.000Z</time>
      </trkpt>
      <trkpt lat="43.88263" lon="7.50401">
        <ele>362</ele>
        <time>2022-01-15T10:33:24.000Z</time>
      </trkpt>
      <trkpt lat="43.88259" lon="7.50403">
        <ele>361.20001220703</ele>
        <time>2022-01-15T10:33:26.000Z</time>
      </trkpt>
      <trkpt lat="43.88257" lon="7.50405">
        <ele>360.79998779297</ele>
        <time>2022-01-15T10:33:27.000Z</time>
      </trkpt>
      <trkpt lat="43.88254" lon="7.50409">
        <ele>359.79998779297</ele>
        <time>2022-01-15T10:33:29.000Z</time>
      </trkpt>
      <trkpt lat="43.88252" lon="7.50412">
        <ele>359.39999389648</ele>
        <time>2022-01-15T10:33:30.000Z</time>
      </trkpt>
      <trkpt lat="43.88252" lon="7.50413">
        <ele>358.79998779297</ele>
        <time>2022-01-15T10:33:31.000Z</time>
      </trkpt>
      <trkpt lat="43.88253" lon="7.50412">
        <ele>358.20001220703</ele>
        <time>2022-01-15T10:33:32.000Z</time>
      </trkpt>
      <trkpt lat="43.88254" lon="7.50414">
        <ele>357.60000610352</ele>
        <time>2022-01-15T10:33:33.000Z</time>
      </trkpt>
      <trkpt lat="43.88258" lon="7.50413">
        <ele>356.79998779297</ele>
        <time>2022-01-15T10:33:35.000Z</time>
      </trkpt>
      <trkpt lat="43.88263" lon="7.50415">
        <ele>356</ele>
        <time>2022-01-15T10:33:37.000Z</time>
      </trkpt>
      <trkpt lat="43.88269" lon="7.5042">
        <ele>355.20001220703</ele>
        <time>2022-01-15T10:33:39.000Z</time>
      </trkpt>
      <trkpt lat="43.88277" lon="7.50423">
        <ele>353.60000610352</ele>
        <time>2022-01-15T10:33:41.000Z</time>
      </trkpt>
      <trkpt lat="43.8828" lon="7.50427">
        <ele>352.60000610352</ele>
        <time>2022-01-15T10:33:42.000Z</time>
      </trkpt>
      <trkpt lat="43.88284" lon="7.50431">
        <ele>351.20001220703</ele>
        <time>2022-01-15T10:33:43.000Z</time>
      </trkpt>
      <trkpt lat="43.8829" lon="7.50439">
        <ele>349.79998779297</ele>
        <time>2022-01-15T10:33:45.000Z</time>
      </trkpt>
      <trkpt lat="43.88294" lon="7.50443">
        <ele>348.20001220703</ele>
        <time>2022-01-15T10:33:47.000Z</time>
      </trkpt>
      <trkpt lat="43.88298" lon="7.50447">
        <ele>347.60000610352</ele>
        <time>2022-01-15T10:33:49.000Z</time>
      </trkpt>
      <trkpt lat="43.88307" lon="7.50452">
        <ele>348</ele>
        <time>2022-01-15T10:33:54.000Z</time>
      </trkpt>
      <trkpt lat="43.88317" lon="7.50458">
        <ele>348.79998779297</ele>
        <time>2022-01-15T10:33:59.000Z</time>
      </trkpt>
      <trkpt lat="43.88327" lon="7.50462">
        <ele>349.20001220703</ele>
        <time>2022-01-15T10:34:03.000Z</time>
      </trkpt>
      <trkpt lat="43.88329" lon="7.50463">
        <ele>349.20001220703</ele>
        <time>2022-01-15T10:34:04.000Z</time>
      </trkpt>
      <trkpt lat="43.88336" lon="7.50468">
        <ele>349.60000610352</ele>
        <time>2022-01-15T10:34:08.000Z</time>
      </trkpt>
      <trkpt lat="43.88345" lon="7.50475">
        <ele>350.20001220703</ele>
        <time>2022-01-15T10:34:12.000Z</time>
      </trkpt>
      <trkpt lat="43.88347" lon="7.50477">
        <ele>350.20001220703</ele>
        <time>2022-01-15T10:34:13.000Z</time>
      </trkpt>
      <trkpt lat="43.88356" lon="7.50484">
        <ele>350.20001220703</ele>
        <time>2022-01-15T10:34:18.000Z</time>
      </trkpt>
      <trkpt lat="43.88357" lon="7.50483">
        <ele>350.79998779297</ele>
        <time>2022-01-15T10:34:22.000Z</time>
      </trkpt>
      <trkpt lat="43.88361" lon="7.50483">
        <ele>351</ele>
        <time>2022-01-15T10:34:28.000Z</time>
      </trkpt>
      <trkpt lat="43.88362" lon="7.50484">
        <ele>351</ele>
        <time>2022-01-15T10:34:29.000Z</time>
      </trkpt>
      <trkpt lat="43.88363" lon="7.50491">
        <ele>351</ele>
        <time>2022-01-15T10:34:32.000Z</time>
      </trkpt>
      <trkpt lat="43.88359" lon="7.50499">
        <ele>350.60000610352</ele>
        <time>2022-01-15T10:34:35.000Z</time>
      </trkpt>
      <trkpt lat="43.88353" lon="7.50503">
        <ele>350</ele>
        <time>2022-01-15T10:34:39.000Z</time>
      </trkpt>
      <trkpt lat="43.88344" lon="7.50505">
        <ele>350.79998779297</ele>
        <time>2022-01-15T10:34:44.000Z</time>
      </trkpt>
      <trkpt lat="43.88338" lon="7.50507">
        <ele>351.20001220703</ele>
        <time>2022-01-15T10:34:47.000Z</time>
      </trkpt>
      <trkpt lat="43.88337" lon="7.50509">
        <ele>351.39999389648</ele>
        <time>2022-01-15T10:34:50.000Z</time>
      </trkpt>
      <trkpt lat="43.88326" lon="7.50519">
        <ele>351.39999389648</ele>
        <time>2022-01-15T10:34:55.000Z</time>
      </trkpt>
      <trkpt lat="43.88317" lon="7.50527">
        <ele>351.79998779297</ele>
        <time>2022-01-15T10:35:00.000Z</time>
      </trkpt>
      <trkpt lat="43.88315" lon="7.50529">
        <ele>351.79998779297</ele>
        <time>2022-01-15T10:35:02.000Z</time>
      </trkpt>
      <trkpt lat="43.88312" lon="7.50529">
        <ele>351.79998779297</ele>
        <time>2022-01-15T10:35:04.000Z</time>
      </trkpt>
      <trkpt lat="43.8831" lon="7.5053">
        <ele>351.79998779297</ele>
        <time>2022-01-15T10:35:05.000Z</time>
      </trkpt>
      <trkpt lat="43.88305" lon="7.50537">
        <ele>352</ele>
        <time>2022-01-15T10:35:08.000Z</time>
      </trkpt>
      <trkpt lat="43.883" lon="7.50542">
        <ele>352.39999389648</ele>
        <time>2022-01-15T10:35:11.000Z</time>
      </trkpt>
      <trkpt lat="43.88299" lon="7.50543">
        <ele>352.39999389648</ele>
        <time>2022-01-15T10:35:12.000Z</time>
      </trkpt>
      <trkpt lat="43.88288" lon="7.5055">
        <ele>353.20001220703</ele>
        <time>2022-01-15T10:35:17.000Z</time>
      </trkpt>
      <trkpt lat="43.88285" lon="7.5055">
        <ele>353.60000610352</ele>
        <time>2022-01-15T10:35:18.000Z</time>
      </trkpt>
      <trkpt lat="43.8828" lon="7.50548">
        <ele>354.20001220703</ele>
        <time>2022-01-15T10:35:21.000Z</time>
      </trkpt>
      <trkpt lat="43.88276" lon="7.50548">
        <ele>354.60000610352</ele>
        <time>2022-01-15T10:35:23.000Z</time>
      </trkpt>
      <trkpt lat="43.88274" lon="7.50549">
        <ele>354.79998779297</ele>
        <time>2022-01-15T10:35:24.000Z</time>
      </trkpt>
      <trkpt lat="43.88271" lon="7.50549">
        <ele>355.39999389648</ele>
        <time>2022-01-15T10:35:26.000Z</time>
      </trkpt>
      <trkpt lat="43.88269" lon="7.50551">
        <ele>355.60000610352</ele>
        <time>2022-01-15T10:35:27.000Z</time>
      </trkpt>
      <trkpt lat="43.88268" lon="7.50552">
        <ele>355.79998779297</ele>
        <time>2022-01-15T10:35:28.000Z</time>
      </trkpt>
      <trkpt lat="43.88265" lon="7.50555">
        <ele>356.20001220703</ele>
        <time>2022-01-15T10:35:30.000Z</time>
      </trkpt>
      <trkpt lat="43.88264" lon="7.50557">
        <ele>356</ele>
        <time>2022-01-15T10:35:31.000Z</time>
      </trkpt>
      <trkpt lat="43.88262" lon="7.50577">
        <ele>356.79998779297</ele>
        <time>2022-01-15T10:35:38.000Z</time>
      </trkpt>
      <trkpt lat="43.88262" lon="7.50589">
        <ele>358</ele>
        <time>2022-01-15T10:35:43.000Z</time>
      </trkpt>
      <trkpt lat="43.88262" lon="7.50596">
        <ele>359.20001220703</ele>
        <time>2022-01-15T10:35:46.000Z</time>
      </trkpt>
      <trkpt lat="43.88262" lon="7.50604">
        <ele>360.39999389648</ele>
        <time>2022-01-15T10:35:49.000Z</time>
      </trkpt>
      <trkpt lat="43.88263" lon="7.50607">
        <ele>360.79998779297</ele>
        <time>2022-01-15T10:35:50.000Z</time>
      </trkpt>
      <trkpt lat="43.88263" lon="7.50612">
        <ele>361.60000610352</ele>
        <time>2022-01-15T10:35:52.000Z</time>
      </trkpt>
      <trkpt lat="43.88267" lon="7.5062">
        <ele>362.60000610352</ele>
        <time>2022-01-15T10:35:56.000Z</time>
      </trkpt>
      <trkpt lat="43.88268" lon="7.50622">
        <ele>362.79998779297</ele>
        <time>2022-01-15T10:35:57.000Z</time>
      </trkpt>
      <trkpt lat="43.88274" lon="7.50628">
        <ele>363.79998779297</ele>
        <time>2022-01-15T10:36:01.000Z</time>
      </trkpt>
      <trkpt lat="43.88276" lon="7.50631">
        <ele>364.20001220703</ele>
        <time>2022-01-15T10:36:03.000Z</time>
      </trkpt>
      <trkpt lat="43.88284" lon="7.50641">
        <ele>365</ele>
        <time>2022-01-15T10:36:08.000Z</time>
      </trkpt>
      <trkpt lat="43.88284" lon="7.50646">
        <ele>364.79998779297</ele>
        <time>2022-01-15T10:36:09.000Z</time>
      </trkpt>
      <trkpt lat="43.88283" lon="7.50669">
        <ele>363.79998779297</ele>
        <time>2022-01-15T10:36:13.000Z</time>
      </trkpt>
      <trkpt lat="43.88281" lon="7.50676">
        <ele>363</ele>
        <time>2022-01-15T10:36:15.000Z</time>
      </trkpt>
      <trkpt lat="43.88277" lon="7.50679">
        <ele>362.79998779297</ele>
        <time>2022-01-15T10:36:17.000Z</time>
      </trkpt>
      <trkpt lat="43.88267" lon="7.50691">
        <ele>363.60000610352</ele>
        <time>2022-01-15T10:36:23.000Z</time>
      </trkpt>
      <trkpt lat="43.88264" lon="7.50695">
        <ele>364</ele>
        <time>2022-01-15T10:36:25.000Z</time>
      </trkpt>
      <trkpt lat="43.88256" lon="7.5071">
        <ele>364.79998779297</ele>
        <time>2022-01-15T10:36:32.000Z</time>
      </trkpt>
      <trkpt lat="43.88255" lon="7.50713">
        <ele>365</ele>
        <time>2022-01-15T10:36:33.000Z</time>
      </trkpt>
      <trkpt lat="43.88249" lon="7.50725">
        <ele>365.79998779297</ele>
        <time>2022-01-15T10:36:38.000Z</time>
      </trkpt>
      <trkpt lat="43.88245" lon="7.50736">
        <ele>366</ele>
        <time>2022-01-15T10:36:42.000Z</time>
      </trkpt>
      <trkpt lat="43.88244" lon="7.50738">
        <ele>366.20001220703</ele>
        <time>2022-01-15T10:36:43.000Z</time>
      </trkpt>
      <trkpt lat="43.88243" lon="7.50739">
        <ele>366.39999389648</ele>
        <time>2022-01-15T10:36:44.000Z</time>
      </trkpt>
      <trkpt lat="43.88241" lon="7.50746">
        <ele>367.60000610352</ele>
        <time>2022-01-15T10:36:47.000Z</time>
      </trkpt>
      <trkpt lat="43.88239" lon="7.50755">
        <ele>368.20001220703</ele>
        <time>2022-01-15T10:36:50.000Z</time>
      </trkpt>
      <trkpt lat="43.88239" lon="7.50763">
        <ele>369</ele>
        <time>2022-01-15T10:36:53.000Z</time>
      </trkpt>
      <trkpt lat="43.88238" lon="7.50766">
        <ele>369.20001220703</ele>
        <time>2022-01-15T10:36:54.000Z</time>
      </trkpt>
      <trkpt lat="43.88237" lon="7.50771">
        <ele>370</ele>
        <time>2022-01-15T10:36:56.000Z</time>
      </trkpt>
      <trkpt lat="43.88234" lon="7.50779">
        <ele>371.20001220703</ele>
        <time>2022-01-15T10:36:59.000Z</time>
      </trkpt>
      <trkpt lat="43.88234" lon="7.50784">
        <ele>371.79998779297</ele>
        <time>2022-01-15T10:37:01.000Z</time>
      </trkpt>
      <trkpt lat="43.88233" lon="7.50787">
        <ele>372.39999389648</ele>
        <time>2022-01-15T10:37:02.000Z</time>
      </trkpt>
      <trkpt lat="43.8823" lon="7.50801">
        <ele>373.39999389648</ele>
        <time>2022-01-15T10:37:09.000Z</time>
      </trkpt>
      <trkpt lat="43.88231" lon="7.50803">
        <ele>373.60000610352</ele>
        <time>2022-01-15T10:37:10.000Z</time>
      </trkpt>
      <trkpt lat="43.88228" lon="7.50808">
        <ele>374</ele>
        <time>2022-01-15T10:37:13.000Z</time>
      </trkpt>
      <trkpt lat="43.88228" lon="7.50808">
        <ele>373.79998779297</ele>
        <time>2022-01-15T10:37:17.000Z</time>
      </trkpt>
      <trkpt lat="43.88228" lon="7.50808">
        <ele>373.60000610352</ele>
        <time>2022-01-15T10:37:23.000Z</time>
      </trkpt>
      <trkpt lat="43.8823" lon="7.50807">
        <ele>373.60000610352</ele>
        <time>2022-01-15T10:37:30.000Z</time>
      </trkpt>
      <trkpt lat="43.8823" lon="7.50807">
        <ele>373.79998779297</ele>
        <time>2022-01-15T10:37:35.000Z</time>
      </trkpt>
      <trkpt lat="43.88227" lon="7.50811">
        <ele>373.79998779297</ele>
        <time>2022-01-15T10:37:42.000Z</time>
      </trkpt>
      <trkpt lat="43.88226" lon="7.50812">
        <ele>373.39999389648</ele>
        <time>2022-01-15T10:37:45.000Z</time>
      </trkpt>
      <trkpt lat="43.88225" lon="7.50814">
        <ele>373.39999389648</ele>
        <time>2022-01-15T10:37:47.000Z</time>
      </trkpt>
      <trkpt lat="43.88224" lon="7.50816">
        <ele>373</ele>
        <time>2022-01-15T10:37:54.000Z</time>
      </trkpt>
      <trkpt lat="43.88222" lon="7.50819">
        <ele>373.20001220703</ele>
        <time>2022-01-15T10:38:18.000Z</time>
      </trkpt>
      <trkpt lat="43.88224" lon="7.50817">
        <ele>373.39999389648</ele>
        <time>2022-01-15T10:38:26.000Z</time>
      </trkpt>
      <trkpt lat="43.88225" lon="7.50816">
        <ele>373.60000610352</ele>
        <time>2022-01-15T10:38:42.000Z</time>
      </trkpt>
      <trkpt lat="43.88226" lon="7.50816">
        <ele>373.60000610352</ele>
        <time>2022-01-15T10:38:49.000Z</time>
      </trkpt>
      <trkpt lat="43.88229" lon="7.50811">
        <ele>374</ele>
        <time>2022-01-15T10:38:57.000Z</time>
      </trkpt>
      <trkpt lat="43.88229" lon="7.50811">
        <ele>374.39999389648</ele>
        <time>2022-01-15T10:39:01.000Z</time>
      </trkpt>
      <trkpt lat="43.88228" lon="7.50811">
        <ele>375</ele>
        <time>2022-01-15T10:39:05.000Z</time>
      </trkpt>
      <trkpt lat="43.88228" lon="7.50813">
        <ele>374.60000610352</ele>
        <time>2022-01-15T10:39:09.000Z</time>
      </trkpt>
      <trkpt lat="43.88227" lon="7.50815">
        <ele>374.39999389648</ele>
        <time>2022-01-15T10:39:18.000Z</time>
      </trkpt>
      <trkpt lat="43.88227" lon="7.50816">
        <ele>374.60000610352</ele>
        <time>2022-01-15T10:39:25.000Z</time>
      </trkpt>
      <trkpt lat="43.88228" lon="7.50816">
        <ele>374.20001220703</ele>
        <time>2022-01-15T10:39:30.000Z</time>
      </trkpt>
      <trkpt lat="43.88228" lon="7.50816">
        <ele>374.20001220703</ele>
        <time>2022-01-15T10:39:35.000Z</time>
      </trkpt>
      <trkpt lat="43.88228" lon="7.50817">
        <ele>374.20001220703</ele>
        <time>2022-01-15T10:39:41.000Z</time>
      </trkpt>
      <trkpt lat="43.88228" lon="7.50818">
        <ele>374.79998779297</ele>
        <time>2022-01-15T10:39:50.000Z</time>
      </trkpt>
      <trkpt lat="43.88228" lon="7.50818">
        <ele>374.79998779297</ele>
        <time>2022-01-15T10:40:01.000Z</time>
      </trkpt>
      <trkpt lat="43.88228" lon="7.50817">
        <ele>374.60000610352</ele>
        <time>2022-01-15T10:40:09.000Z</time>
      </trkpt>
      <trkpt lat="43.88228" lon="7.50817">
        <ele>374.20001220703</ele>
        <time>2022-01-15T10:40:17.000Z</time>
      </trkpt>
      <trkpt lat="43.88228" lon="7.50817">
        <ele>374.20001220703</ele>
        <time>2022-01-15T10:40:27.000Z</time>
      </trkpt>
      <trkpt lat="43.88227" lon="7.50817">
        <ele>375</ele>
        <time>2022-01-15T10:40:36.000Z</time>
      </trkpt>
      <trkpt lat="43.88227" lon="7.50818">
        <ele>374.79998779297</ele>
        <time>2022-01-15T10:40:46.000Z</time>
      </trkpt>
      <trkpt lat="43.88226" lon="7.50818">
        <ele>375</ele>
        <time>2022-01-15T10:40:58.000Z</time>
      </trkpt>
      <trkpt lat="43.88227" lon="7.50819">
        <ele>375</ele>
        <time>2022-01-15T10:41:06.000Z</time>
      </trkpt>
      <trkpt lat="43.88228" lon="7.5082">
        <ele>375</ele>
        <time>2022-01-15T10:41:21.000Z</time>
      </trkpt>
      <trkpt lat="43.88229" lon="7.5082">
        <ele>374.79998779297</ele>
        <time>2022-01-15T10:41:30.000Z</time>
      </trkpt>
      <trkpt lat="43.88229" lon="7.5082">
        <ele>375.39999389648</ele>
        <time>2022-01-15T10:41:37.000Z</time>
      </trkpt>
      <trkpt lat="43.88229" lon="7.5082">
        <ele>375.60000610352</ele>
        <time>2022-01-15T10:41:38.000Z</time>
      </trkpt>
      <trkpt lat="43.88229" lon="7.5082">
        <ele>375.39999389648</ele>
        <time>2022-01-15T10:41:44.000Z</time>
      </trkpt>
      <trkpt lat="43.88229" lon="7.50819">
        <ele>375.39999389648</ele>
        <time>2022-01-15T10:41:51.000Z</time>
      </trkpt>
      <trkpt lat="43.88229" lon="7.50819">
        <ele>374.39999389648</ele>
        <time>2022-01-15T10:41:56.000Z</time>
      </trkpt>
      <trkpt lat="43.88229" lon="7.50819">
        <ele>374.60000610352</ele>
        <time>2022-01-15T10:41:57.000Z</time>
      </trkpt>
      <trkpt lat="43.88229" lon="7.5082">
        <ele>374.79998779297</ele>
        <time>2022-01-15T10:42:06.000Z</time>
      </trkpt>
      <trkpt lat="43.88229" lon="7.50821">
        <ele>374.60000610352</ele>
        <time>2022-01-15T10:42:20.000Z</time>
      </trkpt>
      <trkpt lat="43.88229" lon="7.50821">
        <ele>375.20001220703</ele>
        <time>2022-01-15T10:42:29.000Z</time>
      </trkpt>
      <trkpt lat="43.88229" lon="7.5082">
        <ele>374.60000610352</ele>
        <time>2022-01-15T10:42:37.000Z</time>
      </trkpt>
      <trkpt lat="43.88229" lon="7.50821">
        <ele>374.60000610352</ele>
        <time>2022-01-15T10:42:44.000Z</time>
      </trkpt>
      <trkpt lat="43.8823" lon="7.5082">
        <ele>374.79998779297</ele>
        <time>2022-01-15T10:42:52.000Z</time>
      </trkpt>
      <trkpt lat="43.8823" lon="7.50819">
        <ele>375.20001220703</ele>
        <time>2022-01-15T10:42:58.000Z</time>
      </trkpt>
      <trkpt lat="43.88229" lon="7.50818">
        <ele>374.60000610352</ele>
        <time>2022-01-15T10:43:05.000Z</time>
      </trkpt>
      <trkpt lat="43.88229" lon="7.50816">
        <ele>375</ele>
        <time>2022-01-15T10:43:12.000Z</time>
      </trkpt>
      <trkpt lat="43.88228" lon="7.50816">
        <ele>375</ele>
        <time>2022-01-15T10:43:23.000Z</time>
      </trkpt>
      <trkpt lat="43.88228" lon="7.50816">
        <ele>374.79998779297</ele>
        <time>2022-01-15T10:43:32.000Z</time>
      </trkpt>
      <trkpt lat="43.88228" lon="7.50815">
        <ele>374.79998779297</ele>
        <time>2022-01-15T10:43:45.000Z</time>
      </trkpt>
      <trkpt lat="43.88227" lon="7.50814">
        <ele>374.60000610352</ele>
        <time>2022-01-15T10:43:59.000Z</time>
      </trkpt>
      <trkpt lat="43.88228" lon="7.50814">
        <ele>374.60000610352</ele>
        <time>2022-01-15T10:44:05.000Z</time>
      </trkpt>
      <trkpt lat="43.88227" lon="7.50815">
        <ele>374.79998779297</ele>
        <time>2022-01-15T10:44:11.000Z</time>
      </trkpt>
      <trkpt lat="43.88227" lon="7.50815">
        <ele>374.60000610352</ele>
        <time>2022-01-15T10:44:18.000Z</time>
      </trkpt>
      <trkpt lat="43.88227" lon="7.50817">
        <ele>374.39999389648</ele>
        <time>2022-01-15T10:44:31.000Z</time>
      </trkpt>
      <trkpt lat="43.88227" lon="7.5082">
        <ele>374.79998779297</ele>
        <time>2022-01-15T10:44:40.000Z</time>
      </trkpt>
      <trkpt lat="43.88226" lon="7.50821">
        <ele>374.60000610352</ele>
        <time>2022-01-15T10:44:46.000Z</time>
      </trkpt>
      <trkpt lat="43.88227" lon="7.5082">
        <ele>373.79998779297</ele>
        <time>2022-01-15T10:44:53.000Z</time>
      </trkpt>
      <trkpt lat="43.88228" lon="7.50818">
        <ele>373.79998779297</ele>
        <time>2022-01-15T10:45:01.000Z</time>
      </trkpt>
      <trkpt lat="43.88228" lon="7.50817">
        <ele>373.60000610352</ele>
        <time>2022-01-15T10:45:12.000Z</time>
      </trkpt>
      <trkpt lat="43.88228" lon="7.50817">
        <ele>374</ele>
        <time>2022-01-15T10:45:19.000Z</time>
      </trkpt>
      <trkpt lat="43.88228" lon="7.50817">
        <ele>374</ele>
        <time>2022-01-15T10:45:30.000Z</time>
      </trkpt>
      <trkpt lat="43.88229" lon="7.50817">
        <ele>373.79998779297</ele>
        <time>2022-01-15T10:45:42.000Z</time>
      </trkpt>
      <trkpt lat="43.8823" lon="7.50817">
        <ele>373.79998779297</ele>
        <time>2022-01-15T10:46:01.000Z</time>
      </trkpt>
      <trkpt lat="43.8823" lon="7.50818">
        <ele>373.60000610352</ele>
        <time>2022-01-15T10:46:23.000Z</time>
      </trkpt>
      <trkpt lat="43.88231" lon="7.50818">
        <ele>373.60000610352</ele>
        <time>2022-01-15T10:46:41.000Z</time>
      </trkpt>
      <trkpt lat="43.88231" lon="7.50818">
        <ele>373.79998779297</ele>
        <time>2022-01-15T10:46:45.000Z</time>
      </trkpt>
      <trkpt lat="43.88231" lon="7.50819">
        <ele>373.39999389648</ele>
        <time>2022-01-15T10:46:50.000Z</time>
      </trkpt>
      <trkpt lat="43.88231" lon="7.5082">
        <ele>373.39999389648</ele>
        <time>2022-01-15T10:46:53.000Z</time>
      </trkpt>
      <trkpt lat="43.88231" lon="7.5082">
        <ele>373.39999389648</ele>
        <time>2022-01-15T10:47:03.000Z</time>
      </trkpt>
      <trkpt lat="43.88232" lon="7.5082">
        <ele>373.39999389648</ele>
        <time>2022-01-15T10:47:13.000Z</time>
      </trkpt>
      <trkpt lat="43.88233" lon="7.50816">
        <ele>373.60000610352</ele>
        <time>2022-01-15T10:47:20.000Z</time>
      </trkpt>
      <trkpt lat="43.88233" lon="7.50817">
        <ele>373.60000610352</ele>
        <time>2022-01-15T10:47:26.000Z</time>
      </trkpt>
      <trkpt lat="43.88233" lon="7.50819">
        <ele>373.60000610352</ele>
        <time>2022-01-15T10:47:33.000Z</time>
      </trkpt>
      <trkpt lat="43.88231" lon="7.50823">
        <ele>373.79998779297</ele>
        <time>2022-01-15T10:47:37.000Z</time>
      </trkpt>
      <trkpt lat="43.8823" lon="7.50826">
        <ele>373.60000610352</ele>
        <time>2022-01-15T10:47:39.000Z</time>
      </trkpt>
      <trkpt lat="43.88233" lon="7.50831">
        <ele>372.79998779297</ele>
        <time>2022-01-15T10:47:44.000Z</time>
      </trkpt>
      <trkpt lat="43.88233" lon="7.50834">
        <ele>372.79998779297</ele>
        <time>2022-01-15T10:47:45.000Z</time>
      </trkpt>
      <trkpt lat="43.88235" lon="7.50843">
        <ele>372.39999389648</ele>
        <time>2022-01-15T10:47:48.000Z</time>
      </trkpt>
      <trkpt lat="43.88245" lon="7.50855">
        <ele>371.60000610352</ele>
        <time>2022-01-15T10:47:51.000Z</time>
      </trkpt>
      <trkpt lat="43.88249" lon="7.50862">
        <ele>371.20001220703</ele>
        <time>2022-01-15T10:47:52.000Z</time>
      </trkpt>
      <trkpt lat="43.88248" lon="7.50881">
        <ele>370.39999389648</ele>
        <time>2022-01-15T10:47:54.000Z</time>
      </trkpt>
      <trkpt lat="43.88244" lon="7.50888">
        <ele>369.60000610352</ele>
        <time>2022-01-15T10:47:55.000Z</time>
      </trkpt>
      <trkpt lat="43.88236" lon="7.50899">
        <ele>368.39999389648</ele>
        <time>2022-01-15T10:47:57.000Z</time>
      </trkpt>
      <trkpt lat="43.88222" lon="7.5091">
        <ele>368</ele>
        <time>2022-01-15T10:48:01.000Z</time>
      </trkpt>
      <trkpt lat="43.88212" lon="7.50903">
        <ele>369</ele>
        <time>2022-01-15T10:48:05.000Z</time>
      </trkpt>
      <trkpt lat="43.88209" lon="7.50898">
        <ele>369.60000610352</ele>
        <time>2022-01-15T10:48:07.000Z</time>
      </trkpt>
      <trkpt lat="43.88203" lon="7.50891">
        <ele>370.39999389648</ele>
        <time>2022-01-15T10:48:11.000Z</time>
      </trkpt>
      <trkpt lat="43.88201" lon="7.5089">
        <ele>370.60000610352</ele>
        <time>2022-01-15T10:48:12.000Z</time>
      </trkpt>
      <trkpt lat="43.88199" lon="7.50887">
        <ele>370.79998779297</ele>
        <time>2022-01-15T10:48:13.000Z</time>
      </trkpt>
      <trkpt lat="43.88194" lon="7.50877">
        <ele>371.79998779297</ele>
        <time>2022-01-15T10:48:17.000Z</time>
      </trkpt>
      <trkpt lat="43.88192" lon="7.50875">
        <ele>372</ele>
        <time>2022-01-15T10:48:18.000Z</time>
      </trkpt>
      <trkpt lat="43.8818" lon="7.50861">
        <ele>373.20001220703</ele>
        <time>2022-01-15T10:48:25.000Z</time>
      </trkpt>
      <trkpt lat="43.88177" lon="7.50858">
        <ele>373.60000610352</ele>
        <time>2022-01-15T10:48:27.000Z</time>
      </trkpt>
      <trkpt lat="43.88172" lon="7.50852">
        <ele>374.20001220703</ele>
        <time>2022-01-15T10:48:30.000Z</time>
      </trkpt>
      <trkpt lat="43.88166" lon="7.5084">
        <ele>375.39999389648</ele>
        <time>2022-01-15T10:48:35.000Z</time>
      </trkpt>
      <trkpt lat="43.88159" lon="7.5084">
        <ele>376.39999389648</ele>
        <time>2022-01-15T10:48:39.000Z</time>
      </trkpt>
      <trkpt lat="43.88158" lon="7.50842">
        <ele>376.60000610352</ele>
        <time>2022-01-15T10:48:40.000Z</time>
      </trkpt>
      <trkpt lat="43.88157" lon="7.5085">
        <ele>377</ele>
        <time>2022-01-15T10:48:43.000Z</time>
      </trkpt>
      <trkpt lat="43.88161" lon="7.50858">
        <ele>377.60000610352</ele>
        <time>2022-01-15T10:48:46.000Z</time>
      </trkpt>
      <trkpt lat="43.88162" lon="7.5086">
        <ele>377.79998779297</ele>
        <time>2022-01-15T10:48:47.000Z</time>
      </trkpt>
      <trkpt lat="43.88164" lon="7.50862">
        <ele>377.79998779297</ele>
        <time>2022-01-15T10:48:48.000Z</time>
      </trkpt>
      <trkpt lat="43.88174" lon="7.50878">
        <ele>378.60000610352</ele>
        <time>2022-01-15T10:48:55.000Z</time>
      </trkpt>
      <trkpt lat="43.88177" lon="7.50883">
        <ele>378.79998779297</ele>
        <time>2022-01-15T10:48:57.000Z</time>
      </trkpt>
      <trkpt lat="43.88187" lon="7.50902">
        <ele>379.79998779297</ele>
        <time>2022-01-15T10:49:04.000Z</time>
      </trkpt>
      <trkpt lat="43.88188" lon="7.50907">
        <ele>380</ele>
        <time>2022-01-15T10:49:06.000Z</time>
      </trkpt>
      <trkpt lat="43.88191" lon="7.50921">
        <ele>380.79998779297</ele>
        <time>2022-01-15T10:49:11.000Z</time>
      </trkpt>
      <trkpt lat="43.88192" lon="7.50923">
        <ele>381</ele>
        <time>2022-01-15T10:49:12.000Z</time>
      </trkpt>
      <trkpt lat="43.88195" lon="7.50939">
        <ele>382</ele>
        <time>2022-01-15T10:49:18.000Z</time>
      </trkpt>
      <trkpt lat="43.88199" lon="7.50955">
        <ele>383</ele>
        <time>2022-01-15T10:49:24.000Z</time>
      </trkpt>
      <trkpt lat="43.88201" lon="7.50968">
        <ele>384</ele>
        <time>2022-01-15T10:49:29.000Z</time>
      </trkpt>
      <trkpt lat="43.88202" lon="7.50975">
        <ele>384.60000610352</ele>
        <time>2022-01-15T10:49:32.000Z</time>
      </trkpt>
      <trkpt lat="43.88203" lon="7.50979">
        <ele>385.20001220703</ele>
        <time>2022-01-15T10:49:34.000Z</time>
      </trkpt>
      <trkpt lat="43.88205" lon="7.50989">
        <ele>385.79998779297</ele>
        <time>2022-01-15T10:49:38.000Z</time>
      </trkpt>
      <trkpt lat="43.88207" lon="7.50993">
        <ele>386.20001220703</ele>
        <time>2022-01-15T10:49:40.000Z</time>
      </trkpt>
      <trkpt lat="43.88212" lon="7.51003">
        <ele>386.79998779297</ele>
        <time>2022-01-15T10:49:45.000Z</time>
      </trkpt>
      <trkpt lat="43.88218" lon="7.51011">
        <ele>387.20001220703</ele>
        <time>2022-01-15T10:49:49.000Z</time>
      </trkpt>
      <trkpt lat="43.88223" lon="7.5102">
        <ele>387.79998779297</ele>
        <time>2022-01-15T10:49:53.000Z</time>
      </trkpt>
      <trkpt lat="43.88226" lon="7.51027">
        <ele>388.20001220703</ele>
        <time>2022-01-15T10:49:57.000Z</time>
      </trkpt>
      <trkpt lat="43.88228" lon="7.51029">
        <ele>388.39999389648</ele>
        <time>2022-01-15T10:49:58.000Z</time>
      </trkpt>
      <trkpt lat="43.88228" lon="7.51032">
        <ele>388.60000610352</ele>
        <time>2022-01-15T10:49:59.000Z</time>
      </trkpt>
      <trkpt lat="43.88229" lon="7.51031">
        <ele>389</ele>
        <time>2022-01-15T10:50:03.000Z</time>
      </trkpt>
      <trkpt lat="43.88229" lon="7.51032">
        <ele>388.60000610352</ele>
        <time>2022-01-15T10:50:09.000Z</time>
      </trkpt>
      <trkpt lat="43.88228" lon="7.51034">
        <ele>388.39999389648</ele>
        <time>2022-01-15T10:50:12.000Z</time>
      </trkpt>
      <trkpt lat="43.88226" lon="7.51038">
        <ele>388.79998779297</ele>
        <time>2022-01-15T10:50:14.000Z</time>
      </trkpt>
      <trkpt lat="43.88225" lon="7.51048">
        <ele>389.39999389648</ele>
        <time>2022-01-15T10:50:17.000Z</time>
      </trkpt>
      <trkpt lat="43.88223" lon="7.51058">
        <ele>389.60000610352</ele>
        <time>2022-01-15T10:50:20.000Z</time>
      </trkpt>
      <trkpt lat="43.88227" lon="7.51077">
        <ele>390.39999389648</ele>
        <time>2022-01-15T10:50:26.000Z</time>
      </trkpt>
      <trkpt lat="43.8824" lon="7.51084">
        <ele>391.39999389648</ele>
        <time>2022-01-15T10:50:32.000Z</time>
      </trkpt>
      <trkpt lat="43.88242" lon="7.51084">
        <ele>391.60000610352</ele>
        <time>2022-01-15T10:50:33.000Z</time>
      </trkpt>
      <trkpt lat="43.8826" lon="7.51084">
        <ele>392</ele>
        <time>2022-01-15T10:50:40.000Z</time>
      </trkpt>
      <trkpt lat="43.88273" lon="7.51083">
        <ele>392.60000610352</ele>
        <time>2022-01-15T10:50:45.000Z</time>
      </trkpt>
      <trkpt lat="43.88281" lon="7.51081">
        <ele>393</ele>
        <time>2022-01-15T10:50:48.000Z</time>
      </trkpt>
      <trkpt lat="43.88297" lon="7.5108">
        <ele>393.60000610352</ele>
        <time>2022-01-15T10:50:54.000Z</time>
      </trkpt>
      <trkpt lat="43.88308" lon="7.51088">
        <ele>393.60000610352</ele>
        <time>2022-01-15T10:50:58.000Z</time>
      </trkpt>
      <trkpt lat="43.88317" lon="7.51107">
        <ele>393.79998779297</ele>
        <time>2022-01-15T10:51:03.000Z</time>
      </trkpt>
      <trkpt lat="43.88331" lon="7.51139">
        <ele>393.20001220703</ele>
        <time>2022-01-15T10:51:11.000Z</time>
      </trkpt>
      <trkpt lat="43.88342" lon="7.5115">
        <ele>392.79998779297</ele>
        <time>2022-01-15T10:51:15.000Z</time>
      </trkpt>
      <trkpt lat="43.8835" lon="7.51155">
        <ele>394.60000610352</ele>
        <time>2022-01-15T10:51:20.000Z</time>
      </trkpt>
      <trkpt lat="43.88352" lon="7.51154">
        <ele>394.79998779297</ele>
        <time>2022-01-15T10:51:21.000Z</time>
      </trkpt>
      <trkpt lat="43.88358" lon="7.51154">
        <ele>395.79998779297</ele>
        <time>2022-01-15T10:51:25.000Z</time>
      </trkpt>
      <trkpt lat="43.8836" lon="7.51153">
        <ele>396</ele>
        <time>2022-01-15T10:51:26.000Z</time>
      </trkpt>
      <trkpt lat="43.88365" lon="7.51151">
        <ele>397.20001220703</ele>
        <time>2022-01-15T10:51:30.000Z</time>
      </trkpt>
      <trkpt lat="43.8837" lon="7.51149">
        <ele>398</ele>
        <time>2022-01-15T10:51:33.000Z</time>
      </trkpt>
      <trkpt lat="43.88373" lon="7.51148">
        <ele>398.39999389648</ele>
        <time>2022-01-15T10:51:35.000Z</time>
      </trkpt>
      <trkpt lat="43.8838" lon="7.51148">
        <ele>399.60000610352</ele>
        <time>2022-01-15T10:51:40.000Z</time>
      </trkpt>
      <trkpt lat="43.88381" lon="7.51148">
        <ele>400</ele>
        <time>2022-01-15T10:51:41.000Z</time>
      </trkpt>
      <trkpt lat="43.88386" lon="7.51147">
        <ele>400.79998779297</ele>
        <time>2022-01-15T10:51:45.000Z</time>
      </trkpt>
      <trkpt lat="43.88391" lon="7.51146">
        <ele>401.79998779297</ele>
        <time>2022-01-15T10:51:49.000Z</time>
      </trkpt>
      <trkpt lat="43.88393" lon="7.51145">
        <ele>402.20001220703</ele>
        <time>2022-01-15T10:51:50.000Z</time>
      </trkpt>
      <trkpt lat="43.88397" lon="7.51141">
        <ele>403</ele>
        <time>2022-01-15T10:51:53.000Z</time>
      </trkpt>
      <trkpt lat="43.88401" lon="7.51138">
        <ele>404</ele>
        <time>2022-01-15T10:51:56.000Z</time>
      </trkpt>
      <trkpt lat="43.88402" lon="7.51137">
        <ele>404.39999389648</ele>
        <time>2022-01-15T10:51:57.000Z</time>
      </trkpt>
      <trkpt lat="43.88406" lon="7.51132">
        <ele>405.20001220703</ele>
        <time>2022-01-15T10:52:00.000Z</time>
      </trkpt>
      <trkpt lat="43.8841" lon="7.51127">
        <ele>406</ele>
        <time>2022-01-15T10:52:04.000Z</time>
      </trkpt>
      <trkpt lat="43.8841" lon="7.51124">
        <ele>406.20001220703</ele>
        <time>2022-01-15T10:52:05.000Z</time>
      </trkpt>
      <trkpt lat="43.88414" lon="7.51115">
        <ele>407.39999389648</ele>
        <time>2022-01-15T10:52:10.000Z</time>
      </trkpt>
      <trkpt lat="43.88418" lon="7.51109">
        <ele>408.60000610352</ele>
        <time>2022-01-15T10:52:14.000Z</time>
      </trkpt>
      <trkpt lat="43.88421" lon="7.51106">
        <ele>409.20001220703</ele>
        <time>2022-01-15T10:52:16.000Z</time>
      </trkpt>
      <trkpt lat="43.88422" lon="7.51104">
        <ele>409.60000610352</ele>
        <time>2022-01-15T10:52:18.000Z</time>
      </trkpt>
      <trkpt lat="43.88426" lon="7.51101">
        <ele>410.39999389648</ele>
        <time>2022-01-15T10:52:21.000Z</time>
      </trkpt>
      <trkpt lat="43.88427" lon="7.51099">
        <ele>410.79998779297</ele>
        <time>2022-01-15T10:52:22.000Z</time>
      </trkpt>
      <trkpt lat="43.88428" lon="7.51097">
        <ele>411</ele>
        <time>2022-01-15T10:52:23.000Z</time>
      </trkpt>
      <trkpt lat="43.88432" lon="7.51093">
        <ele>411.79998779297</ele>
        <time>2022-01-15T10:52:26.000Z</time>
      </trkpt>
      <trkpt lat="43.88435" lon="7.51089">
        <ele>412.79998779297</ele>
        <time>2022-01-15T10:52:29.000Z</time>
      </trkpt>
      <trkpt lat="43.88437" lon="7.51087">
        <ele>413.60000610352</ele>
        <time>2022-01-15T10:52:31.000Z</time>
      </trkpt>
      <trkpt lat="43.88439" lon="7.51083">
        <ele>414.20001220703</ele>
        <time>2022-01-15T10:52:33.000Z</time>
      </trkpt>
      <trkpt lat="43.88441" lon="7.51082">
        <ele>414.39999389648</ele>
        <time>2022-01-15T10:52:34.000Z</time>
      </trkpt>
      <trkpt lat="43.88443" lon="7.51079">
        <ele>415</ele>
        <time>2022-01-15T10:52:36.000Z</time>
      </trkpt>
      <trkpt lat="43.88443" lon="7.51079">
        <ele>415.20001220703</ele>
        <time>2022-01-15T10:52:37.000Z</time>
      </trkpt>
      <trkpt lat="43.88445" lon="7.51077">
        <ele>416</ele>
        <time>2022-01-15T10:52:39.000Z</time>
      </trkpt>
      <trkpt lat="43.88447" lon="7.51074">
        <ele>416.60000610352</ele>
        <time>2022-01-15T10:52:41.000Z</time>
      </trkpt>
      <trkpt lat="43.8845" lon="7.5107">
        <ele>417.60000610352</ele>
        <time>2022-01-15T10:52:45.000Z</time>
      </trkpt>
      <trkpt lat="43.88451" lon="7.51069">
        <ele>417.79998779297</ele>
        <time>2022-01-15T10:52:46.000Z</time>
      </trkpt>
      <trkpt lat="43.88456" lon="7.51065">
        <ele>418.60000610352</ele>
        <time>2022-01-15T10:52:50.000Z</time>
      </trkpt>
      <trkpt lat="43.8846" lon="7.5106">
        <ele>419.39999389648</ele>
        <time>2022-01-15T10:52:54.000Z</time>
      </trkpt>
      <trkpt lat="43.88461" lon="7.51059">
        <ele>419.60000610352</ele>
        <time>2022-01-15T10:52:55.000Z</time>
      </trkpt>
      <trkpt lat="43.88464" lon="7.51055">
        <ele>420.39999389648</ele>
        <time>2022-01-15T10:53:01.000Z</time>
      </trkpt>
      <trkpt lat="43.88465" lon="7.51055">
        <ele>420.60000610352</ele>
        <time>2022-01-15T10:53:06.000Z</time>
      </trkpt>
      <trkpt lat="43.88466" lon="7.51053">
        <ele>420.60000610352</ele>
        <time>2022-01-15T10:53:18.000Z</time>
      </trkpt>
      <trkpt lat="43.88472" lon="7.51045">
        <ele>420.60000610352</ele>
        <time>2022-01-15T10:53:23.000Z</time>
      </trkpt>
      <trkpt lat="43.88479" lon="7.51038">
        <ele>420.79998779297</ele>
        <time>2022-01-15T10:53:27.000Z</time>
      </trkpt>
      <trkpt lat="43.88489" lon="7.51026">
        <ele>421.39999389648</ele>
        <time>2022-01-15T10:53:33.000Z</time>
      </trkpt>
      <trkpt lat="43.88492" lon="7.51023">
        <ele>421.79998779297</ele>
        <time>2022-01-15T10:53:35.000Z</time>
      </trkpt>
      <trkpt lat="43.885" lon="7.51017">
        <ele>423</ele>
        <time>2022-01-15T10:53:39.000Z</time>
      </trkpt>
      <trkpt lat="43.88501" lon="7.51016">
        <ele>423.20001220703</ele>
        <time>2022-01-15T10:53:40.000Z</time>
      </trkpt>
      <trkpt lat="43.88504" lon="7.51015">
        <ele>424</ele>
        <time>2022-01-15T10:53:42.000Z</time>
      </trkpt>
      <trkpt lat="43.88506" lon="7.51013">
        <ele>424.60000610352</ele>
        <time>2022-01-15T10:53:43.000Z</time>
      </trkpt>
      <trkpt lat="43.88508" lon="7.51011">
        <ele>425.39999389648</ele>
        <time>2022-01-15T10:53:45.000Z</time>
      </trkpt>
      <trkpt lat="43.88513" lon="7.51008">
        <ele>426.39999389648</ele>
        <time>2022-01-15T10:53:48.000Z</time>
      </trkpt>
      <trkpt lat="43.88517" lon="7.51005">
        <ele>427.60000610352</ele>
        <time>2022-01-15T10:53:51.000Z</time>
      </trkpt>
      <trkpt lat="43.88519" lon="7.51004">
        <ele>427.79998779297</ele>
        <time>2022-01-15T10:53:52.000Z</time>
      </trkpt>
      <trkpt lat="43.88524" lon="7.51">
        <ele>428.60000610352</ele>
        <time>2022-01-15T10:53:55.000Z</time>
      </trkpt>
      <trkpt lat="43.88536" lon="7.50993">
        <ele>429.60000610352</ele>
        <time>2022-01-15T10:54:01.000Z</time>
      </trkpt>
      <trkpt lat="43.88543" lon="7.50988">
        <ele>430.79998779297</ele>
        <time>2022-01-15T10:54:05.000Z</time>
      </trkpt>
      <trkpt lat="43.8855" lon="7.50983">
        <ele>431.79998779297</ele>
        <time>2022-01-15T10:54:09.000Z</time>
      </trkpt>
      <trkpt lat="43.88552" lon="7.50982">
        <ele>432.20001220703</ele>
        <time>2022-01-15T10:54:10.000Z</time>
      </trkpt>
      <trkpt lat="43.88555" lon="7.5098">
        <ele>432.79998779297</ele>
        <time>2022-01-15T10:54:12.000Z</time>
      </trkpt>
      <trkpt lat="43.88563" lon="7.50976">
        <ele>434</ele>
        <time>2022-01-15T10:54:17.000Z</time>
      </trkpt>
      <trkpt lat="43.88568" lon="7.50973">
        <ele>435.39999389648</ele>
        <time>2022-01-15T10:54:21.000Z</time>
      </trkpt>
      <trkpt lat="43.88573" lon="7.5097">
        <ele>436.39999389648</ele>
        <time>2022-01-15T10:54:24.000Z</time>
      </trkpt>
      <trkpt lat="43.88579" lon="7.50965">
        <ele>437.60000610352</ele>
        <time>2022-01-15T10:54:28.000Z</time>
      </trkpt>
      <trkpt lat="43.88583" lon="7.50961">
        <ele>438.60000610352</ele>
        <time>2022-01-15T10:54:31.000Z</time>
      </trkpt>
      <trkpt lat="43.88585" lon="7.5096">
        <ele>439</ele>
        <time>2022-01-15T10:54:32.000Z</time>
      </trkpt>
      <trkpt lat="43.88589" lon="7.50956">
        <ele>439.79998779297</ele>
        <time>2022-01-15T10:54:35.000Z</time>
      </trkpt>
      <trkpt lat="43.88595" lon="7.50954">
        <ele>440.79998779297</ele>
        <time>2022-01-15T10:54:38.000Z</time>
      </trkpt>
      <trkpt lat="43.88598" lon="7.50954">
        <ele>441.60000610352</ele>
        <time>2022-01-15T10:54:40.000Z</time>
      </trkpt>
      <trkpt lat="43.88602" lon="7.50954">
        <ele>442</ele>
        <time>2022-01-15T10:54:42.000Z</time>
      </trkpt>
      <trkpt lat="43.8861" lon="7.5095">
        <ele>443.20001220703</ele>
        <time>2022-01-15T10:54:47.000Z</time>
      </trkpt>
      <trkpt lat="43.8861" lon="7.5095">
        <ele>443.39999389648</ele>
        <time>2022-01-15T10:54:48.000Z</time>
      </trkpt>
      <trkpt lat="43.88611" lon="7.5095">
        <ele>444.20001220703</ele>
        <time>2022-01-15T10:54:52.000Z</time>
      </trkpt>
      <trkpt lat="43.88611" lon="7.5095">
        <ele>444.39999389648</ele>
        <time>2022-01-15T10:54:53.000Z</time>
      </trkpt>
      <trkpt lat="43.88612" lon="7.50949">
        <ele>444.20001220703</ele>
        <time>2022-01-15T10:55:09.000Z</time>
      </trkpt>
      <trkpt lat="43.88614" lon="7.50948">
        <ele>444.39999389648</ele>
        <time>2022-01-15T10:55:28.000Z</time>
      </trkpt>
      <trkpt lat="43.88616" lon="7.50946">
        <ele>444.39999389648</ele>
        <time>2022-01-15T10:55:30.000Z</time>
      </trkpt>
      <trkpt lat="43.88623" lon="7.50938">
        <ele>445.39999389648</ele>
        <time>2022-01-15T10:55:36.000Z</time>
      </trkpt>
      <trkpt lat="43.88624" lon="7.50936">
        <ele>445.60000610352</ele>
        <time>2022-01-15T10:55:37.000Z</time>
      </trkpt>
      <trkpt lat="43.88627" lon="7.50933">
        <ele>446.60000610352</ele>
        <time>2022-01-15T10:55:40.000Z</time>
      </trkpt>
      <trkpt lat="43.88631" lon="7.50929">
        <ele>447.20001220703</ele>
        <time>2022-01-15T10:55:43.000Z</time>
      </trkpt>
      <trkpt lat="43.88633" lon="7.50927">
        <ele>447.60000610352</ele>
        <time>2022-01-15T10:55:45.000Z</time>
      </trkpt>
      <trkpt lat="43.88638" lon="7.50921">
        <ele>448.79998779297</ele>
        <time>2022-01-15T10:55:49.000Z</time>
      </trkpt>
      <trkpt lat="43.88639" lon="7.50921">
        <ele>449</ele>
        <time>2022-01-15T10:55:50.000Z</time>
      </trkpt>
      <trkpt lat="43.88642" lon="7.50918">
        <ele>449.79998779297</ele>
        <time>2022-01-15T10:55:52.000Z</time>
      </trkpt>
      <trkpt lat="43.88646" lon="7.50914">
        <ele>451</ele>
        <time>2022-01-15T10:55:55.000Z</time>
      </trkpt>
      <trkpt lat="43.8865" lon="7.5091">
        <ele>451.79998779297</ele>
        <time>2022-01-15T10:55:58.000Z</time>
      </trkpt>
      <trkpt lat="43.88651" lon="7.5091">
        <ele>452</ele>
        <time>2022-01-15T10:55:59.000Z</time>
      </trkpt>
      <trkpt lat="43.88656" lon="7.50906">
        <ele>453</ele>
        <time>2022-01-15T10:56:03.000Z</time>
      </trkpt>
      <trkpt lat="43.88658" lon="7.50905">
        <ele>453.20001220703</ele>
        <time>2022-01-15T10:56:04.000Z</time>
      </trkpt>
      <trkpt lat="43.88664" lon="7.509">
        <ele>454.39999389648</ele>
        <time>2022-01-15T10:56:08.000Z</time>
      </trkpt>
      <trkpt lat="43.88666" lon="7.50899">
        <ele>455.20001220703</ele>
        <time>2022-01-15T10:56:10.000Z</time>
      </trkpt>
      <trkpt lat="43.88667" lon="7.50898">
        <ele>455.60000610352</ele>
        <time>2022-01-15T10:56:11.000Z</time>
      </trkpt>
      <trkpt lat="43.88671" lon="7.50894">
        <ele>456.60000610352</ele>
        <time>2022-01-15T10:56:14.000Z</time>
      </trkpt>
      <trkpt lat="43.88673" lon="7.50891">
        <ele>457.39999389648</ele>
        <time>2022-01-15T10:56:17.000Z</time>
      </trkpt>
      <trkpt lat="43.88675" lon="7.5089">
        <ele>457.60000610352</ele>
        <time>2022-01-15T10:56:18.000Z</time>
      </trkpt>
      <trkpt lat="43.88681" lon="7.50884">
        <ele>458.79998779297</ele>
        <time>2022-01-15T10:56:23.000Z</time>
      </trkpt>
      <trkpt lat="43.88686" lon="7.50881">
        <ele>460</ele>
        <time>2022-01-15T10:56:27.000Z</time>
      </trkpt>
      <trkpt lat="43.88692" lon="7.50877">
        <ele>461.20001220703</ele>
        <time>2022-01-15T10:56:32.000Z</time>
      </trkpt>
      <trkpt lat="43.88693" lon="7.50877">
        <ele>461.39999389648</ele>
        <time>2022-01-15T10:56:33.000Z</time>
      </trkpt>
      <trkpt lat="43.88699" lon="7.50876">
        <ele>462.39999389648</ele>
        <time>2022-01-15T10:56:37.000Z</time>
      </trkpt>
      <trkpt lat="43.88703" lon="7.50876">
        <ele>462.79998779297</ele>
        <time>2022-01-15T10:56:40.000Z</time>
      </trkpt>
      <trkpt lat="43.88708" lon="7.50876">
        <ele>463.39999389648</ele>
        <time>2022-01-15T10:56:43.000Z</time>
      </trkpt>
      <trkpt lat="43.88712" lon="7.50875">
        <ele>464.39999389648</ele>
        <time>2022-01-15T10:56:46.000Z</time>
      </trkpt>
      <trkpt lat="43.88719" lon="7.50874">
        <ele>465.60000610352</ele>
        <time>2022-01-15T10:56:52.000Z</time>
      </trkpt>
      <trkpt lat="43.88721" lon="7.50873">
        <ele>465.79998779297</ele>
        <time>2022-01-15T10:56:53.000Z</time>
      </trkpt>
      <trkpt lat="43.88727" lon="7.50869">
        <ele>466.60000610352</ele>
        <time>2022-01-15T10:56:58.000Z</time>
      </trkpt>
      <trkpt lat="43.88731" lon="7.50865">
        <ele>467.39999389648</ele>
        <time>2022-01-15T10:57:01.000Z</time>
      </trkpt>
      <trkpt lat="43.88733" lon="7.50862">
        <ele>468</ele>
        <time>2022-01-15T10:57:03.000Z</time>
      </trkpt>
      <trkpt lat="43.88739" lon="7.50858">
        <ele>469</ele>
        <time>2022-01-15T10:57:08.000Z</time>
      </trkpt>
      <trkpt lat="43.88749" lon="7.50854">
        <ele>470</ele>
        <time>2022-01-15T10:57:16.000Z</time>
      </trkpt>
      <trkpt lat="43.88751" lon="7.50853">
        <ele>470</ele>
        <time>2022-01-15T10:57:17.000Z</time>
      </trkpt>
      <trkpt lat="43.88754" lon="7.50852">
        <ele>470.79998779297</ele>
        <time>2022-01-15T10:57:20.000Z</time>
      </trkpt>
      <trkpt lat="43.88755" lon="7.50851">
        <ele>471</ele>
        <time>2022-01-15T10:57:21.000Z</time>
      </trkpt>
      <trkpt lat="43.88757" lon="7.50851">
        <ele>471.20001220703</ele>
        <time>2022-01-15T10:57:22.000Z</time>
      </trkpt>
      <trkpt lat="43.88763" lon="7.50849">
        <ele>472</ele>
        <time>2022-01-15T10:57:27.000Z</time>
      </trkpt>
      <trkpt lat="43.88762" lon="7.50849">
        <ele>472.39999389648</ele>
        <time>2022-01-15T10:57:28.000Z</time>
      </trkpt>
      <trkpt lat="43.88764" lon="7.50848">
        <ele>472.79998779297</ele>
        <time>2022-01-15T10:57:31.000Z</time>
      </trkpt>
      <trkpt lat="43.88769" lon="7.50841">
        <ele>473</ele>
        <time>2022-01-15T10:57:35.000Z</time>
      </trkpt>
      <trkpt lat="43.88771" lon="7.50839">
        <ele>473.39999389648</ele>
        <time>2022-01-15T10:57:37.000Z</time>
      </trkpt>
      <trkpt lat="43.88777" lon="7.50835">
        <ele>474.39999389648</ele>
        <time>2022-01-15T10:57:41.000Z</time>
      </trkpt>
      <trkpt lat="43.8878" lon="7.50833">
        <ele>475.20001220703</ele>
        <time>2022-01-15T10:57:43.000Z</time>
      </trkpt>
      <trkpt lat="43.88783" lon="7.50831">
        <ele>475.79998779297</ele>
        <time>2022-01-15T10:57:45.000Z</time>
      </trkpt>
      <trkpt lat="43.88791" lon="7.50831">
        <ele>476.79998779297</ele>
        <time>2022-01-15T10:57:50.000Z</time>
      </trkpt>
      <trkpt lat="43.88797" lon="7.5083">
        <ele>478.20001220703</ele>
        <time>2022-01-15T10:57:54.000Z</time>
      </trkpt>
      <trkpt lat="43.888" lon="7.50828">
        <ele>479</ele>
        <time>2022-01-15T10:57:57.000Z</time>
      </trkpt>
      <trkpt lat="43.88801" lon="7.50828">
        <ele>479.39999389648</ele>
        <time>2022-01-15T10:57:58.000Z</time>
      </trkpt>
      <trkpt lat="43.88808" lon="7.50825">
        <ele>480.60000610352</ele>
        <time>2022-01-15T10:58:02.000Z</time>
      </trkpt>
      <trkpt lat="43.88809" lon="7.50825">
        <ele>480.79998779297</ele>
        <time>2022-01-15T10:58:03.000Z</time>
      </trkpt>
      <trkpt lat="43.88814" lon="7.50823">
        <ele>481.60000610352</ele>
        <time>2022-01-15T10:58:06.000Z</time>
      </trkpt>
      <trkpt lat="43.88818" lon="7.50822">
        <ele>482.39999389648</ele>
        <time>2022-01-15T10:58:09.000Z</time>
      </trkpt>
      <trkpt lat="43.88822" lon="7.50821">
        <ele>482.79998779297</ele>
        <time>2022-01-15T10:58:11.000Z</time>
      </trkpt>
      <trkpt lat="43.88831" lon="7.50819">
        <ele>483.60000610352</ele>
        <time>2022-01-15T10:58:17.000Z</time>
      </trkpt>
      <trkpt lat="43.88833" lon="7.50818">
        <ele>483.79998779297</ele>
        <time>2022-01-15T10:58:18.000Z</time>
      </trkpt>
      <trkpt lat="43.88845" lon="7.50812">
        <ele>484.39999389648</ele>
        <time>2022-01-15T10:58:24.000Z</time>
      </trkpt>
      <trkpt lat="43.88852" lon="7.50806">
        <ele>484.79998779297</ele>
        <time>2022-01-15T10:58:28.000Z</time>
      </trkpt>
      <trkpt lat="43.88859" lon="7.50801">
        <ele>485.20001220703</ele>
        <time>2022-01-15T10:58:32.000Z</time>
      </trkpt>
      <trkpt lat="43.88872" lon="7.5079">
        <ele>485.79998779297</ele>
        <time>2022-01-15T10:58:40.000Z</time>
      </trkpt>
      <trkpt lat="43.88875" lon="7.50788">
        <ele>486</ele>
        <time>2022-01-15T10:58:42.000Z</time>
      </trkpt>
      <trkpt lat="43.88887" lon="7.50782">
        <ele>487</ele>
        <time>2022-01-15T10:58:48.000Z</time>
      </trkpt>
      <trkpt lat="43.88893" lon="7.50776">
        <ele>488</ele>
        <time>2022-01-15T10:58:53.000Z</time>
      </trkpt>
      <trkpt lat="43.88895" lon="7.50774">
        <ele>488.20001220703</ele>
        <time>2022-01-15T10:58:54.000Z</time>
      </trkpt>
      <trkpt lat="43.889" lon="7.50772">
        <ele>488.60000610352</ele>
        <time>2022-01-15T10:58:57.000Z</time>
      </trkpt>
      <trkpt lat="43.88904" lon="7.5077">
        <ele>489</ele>
        <time>2022-01-15T10:58:59.000Z</time>
      </trkpt>
      <trkpt lat="43.88905" lon="7.50769">
        <ele>489.20001220703</ele>
        <time>2022-01-15T10:59:00.000Z</time>
      </trkpt>
      <trkpt lat="43.88912" lon="7.50764">
        <ele>490</ele>
        <time>2022-01-15T10:59:04.000Z</time>
      </trkpt>
      <trkpt lat="43.88917" lon="7.50761">
        <ele>490.39999389648</ele>
        <time>2022-01-15T10:59:06.000Z</time>
      </trkpt>
      <trkpt lat="43.88925" lon="7.50753">
        <ele>491.39999389648</ele>
        <time>2022-01-15T10:59:11.000Z</time>
      </trkpt>
      <trkpt lat="43.88932" lon="7.50748">
        <ele>492.39999389648</ele>
        <time>2022-01-15T10:59:15.000Z</time>
      </trkpt>
      <trkpt lat="43.88938" lon="7.50743">
        <ele>493.20001220703</ele>
        <time>2022-01-15T10:59:18.000Z</time>
      </trkpt>
      <trkpt lat="43.8894" lon="7.50742">
        <ele>493.60000610352</ele>
        <time>2022-01-15T10:59:19.000Z</time>
      </trkpt>
      <trkpt lat="43.88949" lon="7.50733">
        <ele>494.60000610352</ele>
        <time>2022-01-15T10:59:24.000Z</time>
      </trkpt>
      <trkpt lat="43.88952" lon="7.5073">
        <ele>495.20001220703</ele>
        <time>2022-01-15T10:59:26.000Z</time>
      </trkpt>
      <trkpt lat="43.88954" lon="7.50729">
        <ele>495.60000610352</ele>
        <time>2022-01-15T10:59:27.000Z</time>
      </trkpt>
      <trkpt lat="43.88971" lon="7.50716">
        <ele>496.60000610352</ele>
        <time>2022-01-15T10:59:36.000Z</time>
      </trkpt>
      <trkpt lat="43.88982" lon="7.50707">
        <ele>497.60000610352</ele>
        <time>2022-01-15T10:59:43.000Z</time>
      </trkpt>
      <trkpt lat="43.88984" lon="7.50707">
        <ele>497.60000610352</ele>
        <time>2022-01-15T10:59:44.000Z</time>
      </trkpt>
      <trkpt lat="43.88991" lon="7.50703">
        <ele>498.39999389648</ele>
        <time>2022-01-15T10:59:49.000Z</time>
      </trkpt>
      <trkpt lat="43.88997" lon="7.507">
        <ele>498.79998779297</ele>
        <time>2022-01-15T10:59:52.000Z</time>
      </trkpt>
      <trkpt lat="43.89003" lon="7.50697">
        <ele>499.60000610352</ele>
        <time>2022-01-15T10:59:56.000Z</time>
      </trkpt>
      <trkpt lat="43.89006" lon="7.50695">
        <ele>500</ele>
        <time>2022-01-15T10:59:58.000Z</time>
      </trkpt>
      <trkpt lat="43.89012" lon="7.50692">
        <ele>500.60000610352</ele>
        <time>2022-01-15T11:00:02.000Z</time>
      </trkpt>
      <trkpt lat="43.89015" lon="7.5069">
        <ele>501</ele>
        <time>2022-01-15T11:00:04.000Z</time>
      </trkpt>
      <trkpt lat="43.89027" lon="7.50686">
        <ele>502.20001220703</ele>
        <time>2022-01-15T11:00:11.000Z</time>
      </trkpt>
      <trkpt lat="43.89028" lon="7.50685">
        <ele>502.20001220703</ele>
        <time>2022-01-15T11:00:12.000Z</time>
      </trkpt>
      <trkpt lat="43.8904" lon="7.5068">
        <ele>503.20001220703</ele>
        <time>2022-01-15T11:00:19.000Z</time>
      </trkpt>
      <trkpt lat="43.89044" lon="7.50678">
        <ele>503.39999389648</ele>
        <time>2022-01-15T11:00:21.000Z</time>
      </trkpt>
      <trkpt lat="43.89056" lon="7.50669">
        <ele>504</ele>
        <time>2022-01-15T11:00:28.000Z</time>
      </trkpt>
      <trkpt lat="43.8906" lon="7.50668">
        <ele>504.20001220703</ele>
        <time>2022-01-15T11:00:30.000Z</time>
      </trkpt>
      <trkpt lat="43.89066" lon="7.50663">
        <ele>504.79998779297</ele>
        <time>2022-01-15T11:00:34.000Z</time>
      </trkpt>
      <trkpt lat="43.89072" lon="7.5066">
        <ele>505.39999389648</ele>
        <time>2022-01-15T11:00:37.000Z</time>
      </trkpt>
      <trkpt lat="43.89075" lon="7.50659">
        <ele>506</ele>
        <time>2022-01-15T11:00:39.000Z</time>
      </trkpt>
      <trkpt lat="43.89079" lon="7.50658">
        <ele>506.60000610352</ele>
        <time>2022-01-15T11:00:41.000Z</time>
      </trkpt>
      <trkpt lat="43.89085" lon="7.50653">
        <ele>507.60000610352</ele>
        <time>2022-01-15T11:00:45.000Z</time>
      </trkpt>
      <trkpt lat="43.89086" lon="7.50651">
        <ele>508</ele>
        <time>2022-01-15T11:00:46.000Z</time>
      </trkpt>
      <trkpt lat="43.8909" lon="7.50646">
        <ele>509</ele>
        <time>2022-01-15T11:00:49.000Z</time>
      </trkpt>
      <trkpt lat="43.8909" lon="7.50645">
        <ele>509.20001220703</ele>
        <time>2022-01-15T11:00:50.000Z</time>
      </trkpt>
      <trkpt lat="43.89094" lon="7.50637">
        <ele>510</ele>
        <time>2022-01-15T11:00:54.000Z</time>
      </trkpt>
      <trkpt lat="43.89097" lon="7.50636">
        <ele>510.20001220703</ele>
        <time>2022-01-15T11:00:55.000Z</time>
      </trkpt>
      <trkpt lat="43.89099" lon="7.50635">
        <ele>510.60000610352</ele>
        <time>2022-01-15T11:00:56.000Z</time>
      </trkpt>
      <trkpt lat="43.89102" lon="7.50634">
        <ele>511</ele>
        <time>2022-01-15T11:00:58.000Z</time>
      </trkpt>
      <trkpt lat="43.89104" lon="7.50634">
        <ele>511.39999389648</ele>
        <time>2022-01-15T11:00:59.000Z</time>
      </trkpt>
      <trkpt lat="43.89112" lon="7.50633">
        <ele>512.20001220703</ele>
        <time>2022-01-15T11:01:03.000Z</time>
      </trkpt>
      <trkpt lat="43.89118" lon="7.50635">
        <ele>513.20001220703</ele>
        <time>2022-01-15T11:01:07.000Z</time>
      </trkpt>
      <trkpt lat="43.89122" lon="7.50636">
        <ele>513.79998779297</ele>
        <time>2022-01-15T11:01:09.000Z</time>
      </trkpt>
      <trkpt lat="43.89125" lon="7.50637">
        <ele>514.20001220703</ele>
        <time>2022-01-15T11:01:11.000Z</time>
      </trkpt>
      <trkpt lat="43.89136" lon="7.50644">
        <ele>515.20001220703</ele>
        <time>2022-01-15T11:01:18.000Z</time>
      </trkpt>
      <trkpt lat="43.89139" lon="7.50646">
        <ele>515.40002441406</ele>
        <time>2022-01-15T11:01:20.000Z</time>
      </trkpt>
      <trkpt lat="43.8915" lon="7.50648">
        <ele>516.40002441406</ele>
        <time>2022-01-15T11:01:25.000Z</time>
      </trkpt>
      <trkpt lat="43.89152" lon="7.50648">
        <ele>516.40002441406</ele>
        <time>2022-01-15T11:01:26.000Z</time>
      </trkpt>
      <trkpt lat="43.89158" lon="7.50649">
        <ele>517.59997558594</ele>
        <time>2022-01-15T11:01:29.000Z</time>
      </trkpt>
      <trkpt lat="43.89162" lon="7.50648">
        <ele>518</ele>
        <time>2022-01-15T11:01:31.000Z</time>
      </trkpt>
      <trkpt lat="43.89168" lon="7.50648">
        <ele>518.59997558594</ele>
        <time>2022-01-15T11:01:34.000Z</time>
      </trkpt>
      <trkpt lat="43.89175" lon="7.50648">
        <ele>519.20001220703</ele>
        <time>2022-01-15T11:01:37.000Z</time>
      </trkpt>
      <trkpt lat="43.89182" lon="7.50647">
        <ele>519.59997558594</ele>
        <time>2022-01-15T11:01:40.000Z</time>
      </trkpt>
      <trkpt lat="43.89188" lon="7.5065">
        <ele>519.79998779297</ele>
        <time>2022-01-15T11:01:43.000Z</time>
      </trkpt>
      <trkpt lat="43.892" lon="7.50657">
        <ele>520.40002441406</ele>
        <time>2022-01-15T11:01:49.000Z</time>
      </trkpt>
      <trkpt lat="43.89202" lon="7.50657">
        <ele>520.59997558594</ele>
        <time>2022-01-15T11:01:50.000Z</time>
      </trkpt>
      <trkpt lat="43.89211" lon="7.50656">
        <ele>521.40002441406</ele>
        <time>2022-01-15T11:01:54.000Z</time>
      </trkpt>
      <trkpt lat="43.89213" lon="7.50656">
        <ele>521.79998779297</ele>
        <time>2022-01-15T11:01:55.000Z</time>
      </trkpt>
      <trkpt lat="43.89221" lon="7.50655">
        <ele>523</ele>
        <time>2022-01-15T11:02:00.000Z</time>
      </trkpt>
      <trkpt lat="43.89227" lon="7.50649">
        <ele>524.20001220703</ele>
        <time>2022-01-15T11:02:05.000Z</time>
      </trkpt>
      <trkpt lat="43.89232" lon="7.50646">
        <ele>525.20001220703</ele>
        <time>2022-01-15T11:02:09.000Z</time>
      </trkpt>
      <trkpt lat="43.89233" lon="7.50645">
        <ele>525.40002441406</ele>
        <time>2022-01-15T11:02:10.000Z</time>
      </trkpt>
      <trkpt lat="43.89238" lon="7.50646">
        <ele>526.40002441406</ele>
        <time>2022-01-15T11:02:13.000Z</time>
      </trkpt>
      <trkpt lat="43.89242" lon="7.50645">
        <ele>527</ele>
        <time>2022-01-15T11:02:16.000Z</time>
      </trkpt>
      <trkpt lat="43.89246" lon="7.50643">
        <ele>527.59997558594</ele>
        <time>2022-01-15T11:02:20.000Z</time>
      </trkpt>
      <trkpt lat="43.89247" lon="7.50643">
        <ele>527.79998779297</ele>
        <time>2022-01-15T11:02:21.000Z</time>
      </trkpt>
      <trkpt lat="43.89253" lon="7.50641">
        <ele>528.59997558594</ele>
        <time>2022-01-15T11:02:25.000Z</time>
      </trkpt>
      <trkpt lat="43.89255" lon="7.50641">
        <ele>529.20001220703</ele>
        <time>2022-01-15T11:02:27.000Z</time>
      </trkpt>
      <trkpt lat="43.89261" lon="7.50643">
        <ele>529.79998779297</ele>
        <time>2022-01-15T11:02:30.000Z</time>
      </trkpt>
      <trkpt lat="43.89265" lon="7.50644">
        <ele>529.79998779297</ele>
        <time>2022-01-15T11:02:32.000Z</time>
      </trkpt>
      <trkpt lat="43.89276" lon="7.50644">
        <ele>530.59997558594</ele>
        <time>2022-01-15T11:02:37.000Z</time>
      </trkpt>
      <trkpt lat="43.8928" lon="7.50643">
        <ele>531</ele>
        <time>2022-01-15T11:02:39.000Z</time>
      </trkpt>
      <trkpt lat="43.89284" lon="7.50641">
        <ele>531.40002441406</ele>
        <time>2022-01-15T11:02:42.000Z</time>
      </trkpt>
      <trkpt lat="43.89287" lon="7.50641">
        <ele>531.79998779297</ele>
        <time>2022-01-15T11:02:44.000Z</time>
      </trkpt>
      <trkpt lat="43.89289" lon="7.50642">
        <ele>532</ele>
        <time>2022-01-15T11:02:45.000Z</time>
      </trkpt>
      <trkpt lat="43.8929" lon="7.50644">
        <ele>532.40002441406</ele>
        <time>2022-01-15T11:02:46.000Z</time>
      </trkpt>
      <trkpt lat="43.8929" lon="7.50654">
        <ele>533.20001220703</ele>
        <time>2022-01-15T11:02:51.000Z</time>
      </trkpt>
      <trkpt lat="43.89291" lon="7.50658">
        <ele>533.40002441406</ele>
        <time>2022-01-15T11:02:53.000Z</time>
      </trkpt>
      <trkpt lat="43.89291" lon="7.50663">
        <ele>533.79998779297</ele>
        <time>2022-01-15T11:02:56.000Z</time>
      </trkpt>
      <trkpt lat="43.89291" lon="7.50665">
        <ele>534</ele>
        <time>2022-01-15T11:02:57.000Z</time>
      </trkpt>
      <trkpt lat="43.89291" lon="7.50666">
        <ele>534.40002441406</ele>
        <time>2022-01-15T11:02:58.000Z</time>
      </trkpt>
      <trkpt lat="43.89293" lon="7.50671">
        <ele>535.59997558594</ele>
        <time>2022-01-15T11:03:01.000Z</time>
      </trkpt>
      <trkpt lat="43.89294" lon="7.50673">
        <ele>536.20001220703</ele>
        <time>2022-01-15T11:03:02.000Z</time>
      </trkpt>
      <trkpt lat="43.89295" lon="7.50676">
        <ele>536.59997558594</ele>
        <time>2022-01-15T11:03:03.000Z</time>
      </trkpt>
      <trkpt lat="43.89296" lon="7.50679">
        <ele>537.20001220703</ele>
        <time>2022-01-15T11:03:04.000Z</time>
      </trkpt>
      <trkpt lat="43.89297" lon="7.50683">
        <ele>537.79998779297</ele>
        <time>2022-01-15T11:03:06.000Z</time>
      </trkpt>
      <trkpt lat="43.89298" lon="7.50687">
        <ele>538.40002441406</ele>
        <time>2022-01-15T11:03:08.000Z</time>
      </trkpt>
      <trkpt lat="43.89299" lon="7.50692">
        <ele>539</ele>
        <time>2022-01-15T11:03:11.000Z</time>
      </trkpt>
      <trkpt lat="43.893" lon="7.50693">
        <ele>539.20001220703</ele>
        <time>2022-01-15T11:03:12.000Z</time>
      </trkpt>
      <trkpt lat="43.89304" lon="7.50694">
        <ele>539.59997558594</ele>
        <time>2022-01-15T11:03:14.000Z</time>
      </trkpt>
      <trkpt lat="43.89305" lon="7.50693">
        <ele>540.40002441406</ele>
        <time>2022-01-15T11:03:16.000Z</time>
      </trkpt>
      <trkpt lat="43.89306" lon="7.50692">
        <ele>540.79998779297</ele>
        <time>2022-01-15T11:03:17.000Z</time>
      </trkpt>
      <trkpt lat="43.89308" lon="7.50694">
        <ele>541.59997558594</ele>
        <time>2022-01-15T11:03:23.000Z</time>
      </trkpt>
      <trkpt lat="43.89309" lon="7.50695">
        <ele>542</ele>
        <time>2022-01-15T11:03:25.000Z</time>
      </trkpt>
      <trkpt lat="43.8931" lon="7.50696">
        <ele>542.20001220703</ele>
        <time>2022-01-15T11:03:28.000Z</time>
      </trkpt>
      <trkpt lat="43.89311" lon="7.50696">
        <ele>542.20001220703</ele>
        <time>2022-01-15T11:03:29.000Z</time>
      </trkpt>
      <trkpt lat="43.89315" lon="7.507">
        <ele>542.20001220703</ele>
        <time>2022-01-15T11:03:32.000Z</time>
      </trkpt>
      <trkpt lat="43.89324" lon="7.50705">
        <ele>542.40002441406</ele>
        <time>2022-01-15T11:03:38.000Z</time>
      </trkpt>
      <trkpt lat="43.89326" lon="7.50705">
        <ele>542.59997558594</ele>
        <time>2022-01-15T11:03:39.000Z</time>
      </trkpt>
      <trkpt lat="43.89333" lon="7.50709">
        <ele>542.79998779297</ele>
        <time>2022-01-15T11:03:44.000Z</time>
      </trkpt>
      <trkpt lat="43.89334" lon="7.50709">
        <ele>543</ele>
        <time>2022-01-15T11:03:45.000Z</time>
      </trkpt>
      <trkpt lat="43.89336" lon="7.50708">
        <ele>543</ele>
        <time>2022-01-15T11:03:46.000Z</time>
      </trkpt>
      <trkpt lat="43.8934" lon="7.50706">
        <ele>543.59997558594</ele>
        <time>2022-01-15T11:03:49.000Z</time>
      </trkpt>
      <trkpt lat="43.89348" lon="7.50705">
        <ele>544</ele>
        <time>2022-01-15T11:03:53.000Z</time>
      </trkpt>
      <trkpt lat="43.89349" lon="7.50705">
        <ele>544.20001220703</ele>
        <time>2022-01-15T11:03:54.000Z</time>
      </trkpt>
      <trkpt lat="43.89356" lon="7.50706">
        <ele>545.20001220703</ele>
        <time>2022-01-15T11:03:57.000Z</time>
      </trkpt>
      <trkpt lat="43.89362" lon="7.50708">
        <ele>546.59997558594</ele>
        <time>2022-01-15T11:04:00.000Z</time>
      </trkpt>
      <trkpt lat="43.89368" lon="7.50709">
        <ele>547.79998779297</ele>
        <time>2022-01-15T11:04:03.000Z</time>
      </trkpt>
      <trkpt lat="43.89375" lon="7.5071">
        <ele>549</ele>
        <time>2022-01-15T11:04:06.000Z</time>
      </trkpt>
      <trkpt lat="43.8938" lon="7.50712">
        <ele>550.20001220703</ele>
        <time>2022-01-15T11:04:08.000Z</time>
      </trkpt>
      <trkpt lat="43.89384" lon="7.50713">
        <ele>551.79998779297</ele>
        <time>2022-01-15T11:04:10.000Z</time>
      </trkpt>
      <trkpt lat="43.89387" lon="7.50714">
        <ele>553</ele>
        <time>2022-01-15T11:04:12.000Z</time>
      </trkpt>
      <trkpt lat="43.89391" lon="7.50715">
        <ele>554</ele>
        <time>2022-01-15T11:04:14.000Z</time>
      </trkpt>
      <trkpt lat="43.89394" lon="7.50714">
        <ele>555.20001220703</ele>
        <time>2022-01-15T11:04:16.000Z</time>
      </trkpt>
      <trkpt lat="43.89399" lon="7.50714">
        <ele>556.20001220703</ele>
        <time>2022-01-15T11:04:19.000Z</time>
      </trkpt>
      <trkpt lat="43.89404" lon="7.50715">
        <ele>557.40002441406</ele>
        <time>2022-01-15T11:04:23.000Z</time>
      </trkpt>
      <trkpt lat="43.89406" lon="7.50716">
        <ele>557.40002441406</ele>
        <time>2022-01-15T11:04:24.000Z</time>
      </trkpt>
      <trkpt lat="43.89408" lon="7.50716">
        <ele>558.40002441406</ele>
        <time>2022-01-15T11:04:26.000Z</time>
      </trkpt>
      <trkpt lat="43.89411" lon="7.50717">
        <ele>559.40002441406</ele>
        <time>2022-01-15T11:04:29.000Z</time>
      </trkpt>
      <trkpt lat="43.89413" lon="7.50718">
        <ele>559.59997558594</ele>
        <time>2022-01-15T11:04:31.000Z</time>
      </trkpt>
      <trkpt lat="43.89414" lon="7.50719">
        <ele>559.79998779297</ele>
        <time>2022-01-15T11:04:33.000Z</time>
      </trkpt>
      <trkpt lat="43.89417" lon="7.50719">
        <ele>559.79998779297</ele>
        <time>2022-01-15T11:04:36.000Z</time>
      </trkpt>
      <trkpt lat="43.89416" lon="7.5072">
        <ele>560</ele>
        <time>2022-01-15T11:04:40.000Z</time>
      </trkpt>
      <trkpt lat="43.89416" lon="7.50721">
        <ele>559.59997558594</ele>
        <time>2022-01-15T11:04:45.000Z</time>
      </trkpt>
      <trkpt lat="43.89414" lon="7.5072">
        <ele>559.59997558594</ele>
        <time>2022-01-15T11:04:51.000Z</time>
      </trkpt>
      <trkpt lat="43.89412" lon="7.50721">
        <ele>559.59997558594</ele>
        <time>2022-01-15T11:04:58.000Z</time>
      </trkpt>
      <trkpt lat="43.89413" lon="7.5072">
        <ele>559.79998779297</ele>
        <time>2022-01-15T11:05:01.000Z</time>
      </trkpt>
      <trkpt lat="43.89413" lon="7.50721">
        <ele>560</ele>
        <time>2022-01-15T11:05:03.000Z</time>
      </trkpt>
      <trkpt lat="43.89413" lon="7.50721">
        <ele>559.59997558594</ele>
        <time>2022-01-15T11:05:10.000Z</time>
      </trkpt>
      <trkpt lat="43.89412" lon="7.50719">
        <ele>559.79998779297</ele>
        <time>2022-01-15T11:05:25.000Z</time>
      </trkpt>
      <trkpt lat="43.89412" lon="7.50718">
        <ele>559.59997558594</ele>
        <time>2022-01-15T11:05:35.000Z</time>
      </trkpt>
      <trkpt lat="43.89413" lon="7.50718">
        <ele>559.40002441406</ele>
        <time>2022-01-15T11:05:41.000Z</time>
      </trkpt>
      <trkpt lat="43.89413" lon="7.50718">
        <ele>559.40002441406</ele>
        <time>2022-01-15T11:05:48.000Z</time>
      </trkpt>
      <trkpt lat="43.89413" lon="7.50717">
        <ele>559.40002441406</ele>
        <time>2022-01-15T11:05:55.000Z</time>
      </trkpt>
      <trkpt lat="43.89413" lon="7.50718">
        <ele>559.59997558594</ele>
        <time>2022-01-15T11:06:05.000Z</time>
      </trkpt>
      <trkpt lat="43.89413" lon="7.50719">
        <ele>559.40002441406</ele>
        <time>2022-01-15T11:06:13.000Z</time>
      </trkpt>
      <trkpt lat="43.89411" lon="7.50719">
        <ele>559.40002441406</ele>
        <time>2022-01-15T11:06:37.000Z</time>
      </trkpt>
      <trkpt lat="43.89411" lon="7.50719">
        <ele>559.40002441406</ele>
        <time>2022-01-15T11:06:48.000Z</time>
      </trkpt>
      <trkpt lat="43.89411" lon="7.50718">
        <ele>559.79998779297</ele>
        <time>2022-01-15T11:07:02.000Z</time>
      </trkpt>
      <trkpt lat="43.89411" lon="7.50717">
        <ele>559.59997558594</ele>
        <time>2022-01-15T11:07:12.000Z</time>
      </trkpt>
      <trkpt lat="43.89412" lon="7.50717">
        <ele>559.79998779297</ele>
        <time>2022-01-15T11:07:20.000Z</time>
      </trkpt>
      <trkpt lat="43.89414" lon="7.50716">
        <ele>559.20001220703</ele>
        <time>2022-01-15T11:07:29.000Z</time>
      </trkpt>
      <trkpt lat="43.89416" lon="7.50716">
        <ele>559.40002441406</ele>
        <time>2022-01-15T11:07:37.000Z</time>
      </trkpt>
      <trkpt lat="43.89419" lon="7.5072">
        <ele>559.59997558594</ele>
        <time>2022-01-15T11:07:49.000Z</time>
      </trkpt>
      <trkpt lat="43.8942" lon="7.50721">
        <ele>559.59997558594</ele>
        <time>2022-01-15T11:07:50.000Z</time>
      </trkpt>
      <trkpt lat="43.89428" lon="7.50722">
        <ele>559.79998779297</ele>
        <time>2022-01-15T11:07:54.000Z</time>
      </trkpt>
      <trkpt lat="43.89446" lon="7.50722">
        <ele>560</ele>
        <time>2022-01-15T11:08:02.000Z</time>
      </trkpt>
      <trkpt lat="43.89463" lon="7.5072">
        <ele>559.40002441406</ele>
        <time>2022-01-15T11:08:07.000Z</time>
      </trkpt>
      <trkpt lat="43.89483" lon="7.50724">
        <ele>559.40002441406</ele>
        <time>2022-01-15T11:08:13.000Z</time>
      </trkpt>
      <trkpt lat="43.89495" lon="7.50725">
        <ele>560.79998779297</ele>
        <time>2022-01-15T11:08:18.000Z</time>
      </trkpt>
      <trkpt lat="43.89497" lon="7.50724">
        <ele>561</ele>
        <time>2022-01-15T11:08:19.000Z</time>
      </trkpt>
      <trkpt lat="43.89503" lon="7.5072">
        <ele>562</ele>
        <time>2022-01-15T11:08:22.000Z</time>
      </trkpt>
      <trkpt lat="43.89507" lon="7.50715">
        <ele>563</ele>
        <time>2022-01-15T11:08:25.000Z</time>
      </trkpt>
      <trkpt lat="43.89508" lon="7.50714">
        <ele>563.40002441406</ele>
        <time>2022-01-15T11:08:26.000Z</time>
      </trkpt>
      <trkpt lat="43.89512" lon="7.50711">
        <ele>564.20001220703</ele>
        <time>2022-01-15T11:08:29.000Z</time>
      </trkpt>
      <trkpt lat="43.89517" lon="7.50706">
        <ele>565.20001220703</ele>
        <time>2022-01-15T11:08:33.000Z</time>
      </trkpt>
      <trkpt lat="43.8952" lon="7.50704">
        <ele>566.40002441406</ele>
        <time>2022-01-15T11:08:36.000Z</time>
      </trkpt>
      <trkpt lat="43.89523" lon="7.50702">
        <ele>567.40002441406</ele>
        <time>2022-01-15T11:08:39.000Z</time>
      </trkpt>
      <trkpt lat="43.89528" lon="7.50699">
        <ele>568.59997558594</ele>
        <time>2022-01-15T11:08:43.000Z</time>
      </trkpt>
      <trkpt lat="43.89528" lon="7.50698">
        <ele>569.40002441406</ele>
        <time>2022-01-15T11:08:46.000Z</time>
      </trkpt>
      <trkpt lat="43.89528" lon="7.50698">
        <ele>569.59997558594</ele>
        <time>2022-01-15T11:08:49.000Z</time>
      </trkpt>
      <trkpt lat="43.8953" lon="7.50697">
        <ele>570.20001220703</ele>
        <time>2022-01-15T11:08:55.000Z</time>
      </trkpt>
      <trkpt lat="43.89534" lon="7.50691">
        <ele>570.79998779297</ele>
        <time>2022-01-15T11:09:00.000Z</time>
      </trkpt>
      <trkpt lat="43.89538" lon="7.50683">
        <ele>571.79998779297</ele>
        <time>2022-01-15T11:09:05.000Z</time>
      </trkpt>
      <trkpt lat="43.89542" lon="7.50676">
        <ele>572.79998779297</ele>
        <time>2022-01-15T11:09:09.000Z</time>
      </trkpt>
      <trkpt lat="43.89543" lon="7.50674">
        <ele>573.20001220703</ele>
        <time>2022-01-15T11:09:10.000Z</time>
      </trkpt>
      <trkpt lat="43.89547" lon="7.50669">
        <ele>574.20001220703</ele>
        <time>2022-01-15T11:09:14.000Z</time>
      </trkpt>
      <trkpt lat="43.8955" lon="7.50668">
        <ele>575</ele>
        <time>2022-01-15T11:09:17.000Z</time>
      </trkpt>
      <trkpt lat="43.89551" lon="7.50667">
        <ele>575.20001220703</ele>
        <time>2022-01-15T11:09:18.000Z</time>
      </trkpt>
      <trkpt lat="43.89556" lon="7.50666">
        <ele>576.40002441406</ele>
        <time>2022-01-15T11:09:22.000Z</time>
      </trkpt>
      <trkpt lat="43.89559" lon="7.50664">
        <ele>577.20001220703</ele>
        <time>2022-01-15T11:09:25.000Z</time>
      </trkpt>
      <trkpt lat="43.8956" lon="7.50664">
        <ele>577.59997558594</ele>
        <time>2022-01-15T11:09:26.000Z</time>
      </trkpt>
      <trkpt lat="43.89565" lon="7.50662">
        <ele>578.79998779297</ele>
        <time>2022-01-15T11:09:30.000Z</time>
      </trkpt>
      <trkpt lat="43.89568" lon="7.5066">
        <ele>579.79998779297</ele>
        <time>2022-01-15T11:09:33.000Z</time>
      </trkpt>
      <trkpt lat="43.89569" lon="7.50659">
        <ele>580</ele>
        <time>2022-01-15T11:09:34.000Z</time>
      </trkpt>
      <trkpt lat="43.89574" lon="7.50656">
        <ele>581.40002441406</ele>
        <time>2022-01-15T11:09:38.000Z</time>
      </trkpt>
      <trkpt lat="43.89575" lon="7.50656">
        <ele>581.59997558594</ele>
        <time>2022-01-15T11:09:39.000Z</time>
      </trkpt>
      <trkpt lat="43.8958" lon="7.50654">
        <ele>582.59997558594</ele>
        <time>2022-01-15T11:09:42.000Z</time>
      </trkpt>
      <trkpt lat="43.89586" lon="7.50653">
        <ele>583.40002441406</ele>
        <time>2022-01-15T11:09:45.000Z</time>
      </trkpt>
      <trkpt lat="43.89589" lon="7.50651">
        <ele>583.79998779297</ele>
        <time>2022-01-15T11:09:47.000Z</time>
      </trkpt>
      <trkpt lat="43.89597" lon="7.50646">
        <ele>584.20001220703</ele>
        <time>2022-01-15T11:09:52.000Z</time>
      </trkpt>
      <trkpt lat="43.8961" lon="7.5065">
        <ele>583.79998779297</ele>
        <time>2022-01-15T11:09:56.000Z</time>
      </trkpt>
      <trkpt lat="43.89619" lon="7.50663">
        <ele>583.59997558594</ele>
        <time>2022-01-15T11:10:01.000Z</time>
      </trkpt>
      <trkpt lat="43.89633" lon="7.50675">
        <ele>584.20001220703</ele>
        <time>2022-01-15T11:10:07.000Z</time>
      </trkpt>
      <trkpt lat="43.89647" lon="7.50686">
        <ele>584.79998779297</ele>
        <time>2022-01-15T11:10:13.000Z</time>
      </trkpt>
      <trkpt lat="43.8965" lon="7.50691">
        <ele>585</ele>
        <time>2022-01-15T11:10:15.000Z</time>
      </trkpt>
      <trkpt lat="43.89656" lon="7.50708">
        <ele>585.79998779297</ele>
        <time>2022-01-15T11:10:21.000Z</time>
      </trkpt>
      <trkpt lat="43.89657" lon="7.50712">
        <ele>586</ele>
        <time>2022-01-15T11:10:22.000Z</time>
      </trkpt>
      <trkpt lat="43.89659" lon="7.50725">
        <ele>587</ele>
        <time>2022-01-15T11:10:26.000Z</time>
      </trkpt>
      <trkpt lat="43.89662" lon="7.50731">
        <ele>587.40002441406</ele>
        <time>2022-01-15T11:10:28.000Z</time>
      </trkpt>
      <trkpt lat="43.89665" lon="7.50737">
        <ele>588</ele>
        <time>2022-01-15T11:10:30.000Z</time>
      </trkpt>
      <trkpt lat="43.89677" lon="7.50747">
        <ele>588.59997558594</ele>
        <time>2022-01-15T11:10:35.000Z</time>
      </trkpt>
      <trkpt lat="43.89679" lon="7.50746">
        <ele>588.59997558594</ele>
        <time>2022-01-15T11:10:36.000Z</time>
      </trkpt>
      <trkpt lat="43.89687" lon="7.50739">
        <ele>589</ele>
        <time>2022-01-15T11:10:40.000Z</time>
      </trkpt>
      <trkpt lat="43.89693" lon="7.50733">
        <ele>589.59997558594</ele>
        <time>2022-01-15T11:10:43.000Z</time>
      </trkpt>
      <trkpt lat="43.89697" lon="7.50726">
        <ele>590.20001220703</ele>
        <time>2022-01-15T11:10:46.000Z</time>
      </trkpt>
      <trkpt lat="43.89704" lon="7.5072">
        <ele>591</ele>
        <time>2022-01-15T11:10:50.000Z</time>
      </trkpt>
      <trkpt lat="43.8971" lon="7.50718">
        <ele>591.20001220703</ele>
        <time>2022-01-15T11:10:53.000Z</time>
      </trkpt>
      <trkpt lat="43.89714" lon="7.50717">
        <ele>591.59997558594</ele>
        <time>2022-01-15T11:10:55.000Z</time>
      </trkpt>
      <trkpt lat="43.89718" lon="7.50715">
        <ele>592.40002441406</ele>
        <time>2022-01-15T11:10:57.000Z</time>
      </trkpt>
      <trkpt lat="43.89724" lon="7.50711">
        <ele>593.40002441406</ele>
        <time>2022-01-15T11:11:00.000Z</time>
      </trkpt>
      <trkpt lat="43.89733" lon="7.50704">
        <ele>594.40002441406</ele>
        <time>2022-01-15T11:11:04.000Z</time>
      </trkpt>
      <trkpt lat="43.89736" lon="7.50703">
        <ele>594.79998779297</ele>
        <time>2022-01-15T11:11:05.000Z</time>
      </trkpt>
      <trkpt lat="43.8975" lon="7.50693">
        <ele>595.79998779297</ele>
        <time>2022-01-15T11:11:11.000Z</time>
      </trkpt>
      <trkpt lat="43.89754" lon="7.50689">
        <ele>596.20001220703</ele>
        <time>2022-01-15T11:11:13.000Z</time>
      </trkpt>
      <trkpt lat="43.89761" lon="7.50683">
        <ele>596.79998779297</ele>
        <time>2022-01-15T11:11:16.000Z</time>
      </trkpt>
      <trkpt lat="43.89774" lon="7.5067">
        <ele>597.59997558594</ele>
        <time>2022-01-15T11:11:22.000Z</time>
      </trkpt>
      <trkpt lat="43.8978" lon="7.50665">
        <ele>598</ele>
        <time>2022-01-15T11:11:25.000Z</time>
      </trkpt>
      <trkpt lat="43.8979" lon="7.50656">
        <ele>598.40002441406</ele>
        <time>2022-01-15T11:11:30.000Z</time>
      </trkpt>
      <trkpt lat="43.89795" lon="7.5065">
        <ele>599</ele>
        <time>2022-01-15T11:11:33.000Z</time>
      </trkpt>
      <trkpt lat="43.898" lon="7.50642">
        <ele>600</ele>
        <time>2022-01-15T11:11:37.000Z</time>
      </trkpt>
      <trkpt lat="43.89801" lon="7.5064">
        <ele>600.40002441406</ele>
        <time>2022-01-15T11:11:38.000Z</time>
      </trkpt>
      <trkpt lat="43.89808" lon="7.50634">
        <ele>601.59997558594</ele>
        <time>2022-01-15T11:11:42.000Z</time>
      </trkpt>
      <trkpt lat="43.89817" lon="7.50629">
        <ele>602.79998779297</ele>
        <time>2022-01-15T11:11:47.000Z</time>
      </trkpt>
      <trkpt lat="43.89823" lon="7.50623">
        <ele>604.20001220703</ele>
        <time>2022-01-15T11:11:51.000Z</time>
      </trkpt>
      <trkpt lat="43.89825" lon="7.50622">
        <ele>604.40002441406</ele>
        <time>2022-01-15T11:11:52.000Z</time>
      </trkpt>
      <trkpt lat="43.8983" lon="7.50618">
        <ele>605.40002441406</ele>
        <time>2022-01-15T11:11:55.000Z</time>
      </trkpt>
      <trkpt lat="43.89835" lon="7.50612">
        <ele>606.40002441406</ele>
        <time>2022-01-15T11:11:59.000Z</time>
      </trkpt>
      <trkpt lat="43.89836" lon="7.50609">
        <ele>607</ele>
        <time>2022-01-15T11:12:00.000Z</time>
      </trkpt>
      <trkpt lat="43.89838" lon="7.50605">
        <ele>607.59997558594</ele>
        <time>2022-01-15T11:12:02.000Z</time>
      </trkpt>
      <trkpt lat="43.89842" lon="7.50596">
        <ele>608.79998779297</ele>
        <time>2022-01-15T11:12:06.000Z</time>
      </trkpt>
      <trkpt lat="43.89843" lon="7.50592">
        <ele>609.79998779297</ele>
        <time>2022-01-15T11:12:08.000Z</time>
      </trkpt>
      <trkpt lat="43.89844" lon="7.5059">
        <ele>610.20001220703</ele>
        <time>2022-01-15T11:12:09.000Z</time>
      </trkpt>
      <trkpt lat="43.89845" lon="7.50586">
        <ele>611.40002441406</ele>
        <time>2022-01-15T11:12:11.000Z</time>
      </trkpt>
      <trkpt lat="43.89847" lon="7.50579">
        <ele>612.59997558594</ele>
        <time>2022-01-15T11:12:14.000Z</time>
      </trkpt>
      <trkpt lat="43.89848" lon="7.50575">
        <ele>613.59997558594</ele>
        <time>2022-01-15T11:12:16.000Z</time>
      </trkpt>
      <trkpt lat="43.89848" lon="7.50573">
        <ele>614</ele>
        <time>2022-01-15T11:12:17.000Z</time>
      </trkpt>
      <trkpt lat="43.8985" lon="7.50568">
        <ele>615</ele>
        <time>2022-01-15T11:12:19.000Z</time>
      </trkpt>
      <trkpt lat="43.89851" lon="7.50564">
        <ele>615.79998779297</ele>
        <time>2022-01-15T11:12:21.000Z</time>
      </trkpt>
      <trkpt lat="43.89852" lon="7.50562">
        <ele>616.40002441406</ele>
        <time>2022-01-15T11:12:22.000Z</time>
      </trkpt>
      <trkpt lat="43.89854" lon="7.50556">
        <ele>617.40002441406</ele>
        <time>2022-01-15T11:12:25.000Z</time>
      </trkpt>
      <trkpt lat="43.89856" lon="7.5055">
        <ele>618.40002441406</ele>
        <time>2022-01-15T11:12:28.000Z</time>
      </trkpt>
      <trkpt lat="43.89858" lon="7.50544">
        <ele>619.59997558594</ele>
        <time>2022-01-15T11:12:31.000Z</time>
      </trkpt>
      <trkpt lat="43.89861" lon="7.50539">
        <ele>621</ele>
        <time>2022-01-15T11:12:34.000Z</time>
      </trkpt>
      <trkpt lat="43.89861" lon="7.50536">
        <ele>621.20001220703</ele>
        <time>2022-01-15T11:12:35.000Z</time>
      </trkpt>
      <trkpt lat="43.89864" lon="7.50532">
        <ele>621.79998779297</ele>
        <time>2022-01-15T11:12:38.000Z</time>
      </trkpt>
      <trkpt lat="43.89865" lon="7.50531">
        <ele>622</ele>
        <time>2022-01-15T11:12:39.000Z</time>
      </trkpt>
      <trkpt lat="43.89867" lon="7.50532">
        <ele>622</ele>
        <time>2022-01-15T11:12:40.000Z</time>
      </trkpt>
      <trkpt lat="43.89874" lon="7.5054">
        <ele>622.59997558594</ele>
        <time>2022-01-15T11:12:46.000Z</time>
      </trkpt>
      <trkpt lat="43.89883" lon="7.50551">
        <ele>622.79998779297</ele>
        <time>2022-01-15T11:12:54.000Z</time>
      </trkpt>
      <trkpt lat="43.89887" lon="7.50556">
        <ele>623</ele>
        <time>2022-01-15T11:12:57.000Z</time>
      </trkpt>
      <trkpt lat="43.89893" lon="7.50559">
        <ele>623</ele>
        <time>2022-01-15T11:13:01.000Z</time>
      </trkpt>
      <trkpt lat="43.89905" lon="7.5056">
        <ele>622.79998779297</ele>
        <time>2022-01-15T11:13:10.000Z</time>
      </trkpt>
      <trkpt lat="43.89913" lon="7.50557">
        <ele>622.79998779297</ele>
        <time>2022-01-15T11:13:16.000Z</time>
      </trkpt>
      <trkpt lat="43.89929" lon="7.50543">
        <ele>622.59997558594</ele>
        <time>2022-01-15T11:13:23.000Z</time>
      </trkpt>
      <trkpt lat="43.89945" lon="7.50518">
        <ele>622.20001220703</ele>
        <time>2022-01-15T11:13:30.000Z</time>
      </trkpt>
      <trkpt lat="43.89956" lon="7.50517">
        <ele>622</ele>
        <time>2022-01-15T11:13:33.000Z</time>
      </trkpt>
      <trkpt lat="43.8996" lon="7.50519">
        <ele>621.79998779297</ele>
        <time>2022-01-15T11:13:34.000Z</time>
      </trkpt>
      <trkpt lat="43.89974" lon="7.50538">
        <ele>621.40002441406</ele>
        <time>2022-01-15T11:13:39.000Z</time>
      </trkpt>
      <trkpt lat="43.8998" lon="7.50546">
        <ele>621.40002441406</ele>
        <time>2022-01-15T11:13:41.000Z</time>
      </trkpt>
      <trkpt lat="43.89991" lon="7.50557">
        <ele>621.20001220703</ele>
        <time>2022-01-15T11:13:44.000Z</time>
      </trkpt>
      <trkpt lat="43.9" lon="7.50563">
        <ele>620.79998779297</ele>
        <time>2022-01-15T11:13:46.000Z</time>
      </trkpt>
      <trkpt lat="43.90011" lon="7.50571">
        <ele>620.20001220703</ele>
        <time>2022-01-15T11:13:49.000Z</time>
      </trkpt>
      <trkpt lat="43.90015" lon="7.50574">
        <ele>620</ele>
        <time>2022-01-15T11:13:50.000Z</time>
      </trkpt>
      <trkpt lat="43.90022" lon="7.50584">
        <ele>619.79998779297</ele>
        <time>2022-01-15T11:13:52.000Z</time>
      </trkpt>
      <trkpt lat="43.90031" lon="7.50603">
        <ele>619</ele>
        <time>2022-01-15T11:13:55.000Z</time>
      </trkpt>
      <trkpt lat="43.90036" lon="7.50617">
        <ele>618.40002441406</ele>
        <time>2022-01-15T11:13:57.000Z</time>
      </trkpt>
      <trkpt lat="43.90039" lon="7.50631">
        <ele>617.79998779297</ele>
        <time>2022-01-15T11:13:59.000Z</time>
      </trkpt>
      <trkpt lat="43.9004" lon="7.50639">
        <ele>617.79998779297</ele>
        <time>2022-01-15T11:14:00.000Z</time>
      </trkpt>
      <trkpt lat="43.90041" lon="7.50646">
        <ele>617.79998779297</ele>
        <time>2022-01-15T11:14:01.000Z</time>
      </trkpt>
      <trkpt lat="43.9004" lon="7.50667">
        <ele>618.20001220703</ele>
        <time>2022-01-15T11:14:04.000Z</time>
      </trkpt>
      <trkpt lat="43.90041" lon="7.50674">
        <ele>618.40002441406</ele>
        <time>2022-01-15T11:14:05.000Z</time>
      </trkpt>
      <trkpt lat="43.90047" lon="7.507">
        <ele>618.20001220703</ele>
        <time>2022-01-15T11:14:09.000Z</time>
      </trkpt>
      <trkpt lat="43.90051" lon="7.50712">
        <ele>617.40002441406</ele>
        <time>2022-01-15T11:14:11.000Z</time>
      </trkpt>
      <trkpt lat="43.9006" lon="7.50729">
        <ele>616</ele>
        <time>2022-01-15T11:14:14.000Z</time>
      </trkpt>
      <trkpt lat="43.90066" lon="7.50744">
        <ele>614.59997558594</ele>
        <time>2022-01-15T11:14:17.000Z</time>
      </trkpt>
      <trkpt lat="43.90068" lon="7.50747">
        <ele>614.20001220703</ele>
        <time>2022-01-15T11:14:18.000Z</time>
      </trkpt>
      <trkpt lat="43.90072" lon="7.50751">
        <ele>613.20001220703</ele>
        <time>2022-01-15T11:14:20.000Z</time>
      </trkpt>
      <trkpt lat="43.90075" lon="7.50753">
        <ele>612.40002441406</ele>
        <time>2022-01-15T11:14:22.000Z</time>
      </trkpt>
      <trkpt lat="43.90076" lon="7.50753">
        <ele>612.20001220703</ele>
        <time>2022-01-15T11:14:26.000Z</time>
      </trkpt>
      <trkpt lat="43.90075" lon="7.50753">
        <ele>612.59997558594</ele>
        <time>2022-01-15T11:14:40.000Z</time>
      </trkpt>
      <trkpt lat="43.90074" lon="7.50754">
        <ele>612.40002441406</ele>
        <time>2022-01-15T11:14:59.000Z</time>
      </trkpt>
      <trkpt lat="43.90074" lon="7.50753">
        <ele>612.59997558594</ele>
        <time>2022-01-15T11:15:21.000Z</time>
      </trkpt>
      <trkpt lat="43.90074" lon="7.50753">
        <ele>612.59997558594</ele>
        <time>2022-01-15T11:15:39.000Z</time>
      </trkpt>
      <trkpt lat="43.90075" lon="7.50753">
        <ele>612.59997558594</ele>
        <time>2022-01-15T11:16:01.000Z</time>
      </trkpt>
      <trkpt lat="43.90077" lon="7.50752">
        <ele>612.59997558594</ele>
        <time>2022-01-15T11:16:16.000Z</time>
      </trkpt>
      <trkpt lat="43.90078" lon="7.50751">
        <ele>612.79998779297</ele>
        <time>2022-01-15T11:16:17.000Z</time>
      </trkpt>
      <trkpt lat="43.9008" lon="7.50741">
        <ele>612.40002441406</ele>
        <time>2022-01-15T11:16:21.000Z</time>
      </trkpt>
      <trkpt lat="43.9008" lon="7.50737">
        <ele>612.40002441406</ele>
        <time>2022-01-15T11:16:22.000Z</time>
      </trkpt>
      <trkpt lat="43.90082" lon="7.50715">
        <ele>613.40002441406</ele>
        <time>2022-01-15T11:16:27.000Z</time>
      </trkpt>
      <trkpt lat="43.90086" lon="7.50695">
        <ele>614.20001220703</ele>
        <time>2022-01-15T11:16:32.000Z</time>
      </trkpt>
      <trkpt lat="43.90089" lon="7.50687">
        <ele>614.40002441406</ele>
        <time>2022-01-15T11:16:34.000Z</time>
      </trkpt>
      <trkpt lat="43.90093" lon="7.50667">
        <ele>615.20001220703</ele>
        <time>2022-01-15T11:16:39.000Z</time>
      </trkpt>
      <trkpt lat="43.90097" lon="7.5065">
        <ele>616.20001220703</ele>
        <time>2022-01-15T11:16:43.000Z</time>
      </trkpt>
      <trkpt lat="43.90103" lon="7.50633">
        <ele>617.59997558594</ele>
        <time>2022-01-15T11:16:48.000Z</time>
      </trkpt>
      <trkpt lat="43.90105" lon="7.50626">
        <ele>618.40002441406</ele>
        <time>2022-01-15T11:16:50.000Z</time>
      </trkpt>
      <trkpt lat="43.90106" lon="7.50622">
        <ele>618.59997558594</ele>
        <time>2022-01-15T11:16:51.000Z</time>
      </trkpt>
      <trkpt lat="43.9011" lon="7.50607">
        <ele>619.40002441406</ele>
        <time>2022-01-15T11:16:55.000Z</time>
      </trkpt>
      <trkpt lat="43.90111" lon="7.506">
        <ele>619.79998779297</ele>
        <time>2022-01-15T11:16:57.000Z</time>
      </trkpt>
      <trkpt lat="43.90111" lon="7.50593">
        <ele>620.40002441406</ele>
        <time>2022-01-15T11:16:59.000Z</time>
      </trkpt>
      <trkpt lat="43.90108" lon="7.50582">
        <ele>621</ele>
        <time>2022-01-15T11:17:02.000Z</time>
      </trkpt>
      <trkpt lat="43.90106" lon="7.50571">
        <ele>621.20001220703</ele>
        <time>2022-01-15T11:17:05.000Z</time>
      </trkpt>
      <trkpt lat="43.90103" lon="7.5055">
        <ele>622</ele>
        <time>2022-01-15T11:17:11.000Z</time>
      </trkpt>
      <trkpt lat="43.90102" lon="7.50547">
        <ele>622.20001220703</ele>
        <time>2022-01-15T11:17:12.000Z</time>
      </trkpt>
      <trkpt lat="43.90101" lon="7.50528">
        <ele>623.20001220703</ele>
        <time>2022-01-15T11:17:17.000Z</time>
      </trkpt>
      <trkpt lat="43.90101" lon="7.50526">
        <ele>623.40002441406</ele>
        <time>2022-01-15T11:17:18.000Z</time>
      </trkpt>
      <trkpt lat="43.90101" lon="7.50511">
        <ele>624.40002441406</ele>
        <time>2022-01-15T11:17:23.000Z</time>
      </trkpt>
      <trkpt lat="43.901" lon="7.50505">
        <ele>625</ele>
        <time>2022-01-15T11:17:25.000Z</time>
      </trkpt>
      <trkpt lat="43.901" lon="7.50499">
        <ele>625.40002441406</ele>
        <time>2022-01-15T11:17:27.000Z</time>
      </trkpt>
      <trkpt lat="43.90098" lon="7.50488">
        <ele>626.59997558594</ele>
        <time>2022-01-15T11:17:31.000Z</time>
      </trkpt>
      <trkpt lat="43.90098" lon="7.50485">
        <ele>626.79998779297</ele>
        <time>2022-01-15T11:17:32.000Z</time>
      </trkpt>
      <trkpt lat="43.90096" lon="7.50468">
        <ele>627.79998779297</ele>
        <time>2022-01-15T11:17:38.000Z</time>
      </trkpt>
      <trkpt lat="43.90092" lon="7.5045">
        <ele>629</ele>
        <time>2022-01-15T11:17:45.000Z</time>
      </trkpt>
      <trkpt lat="43.90091" lon="7.50444">
        <ele>629.40002441406</ele>
        <time>2022-01-15T11:17:47.000Z</time>
      </trkpt>
      <trkpt lat="43.9009" lon="7.50439">
        <ele>630</ele>
        <time>2022-01-15T11:17:49.000Z</time>
      </trkpt>
      <trkpt lat="43.9009" lon="7.50437">
        <ele>630.40002441406</ele>
        <time>2022-01-15T11:17:50.000Z</time>
      </trkpt>
      <trkpt lat="43.9009" lon="7.50427">
        <ele>631</ele>
        <time>2022-01-15T11:17:53.000Z</time>
      </trkpt>
      <trkpt lat="43.90093" lon="7.5042">
        <ele>631.59997558594</ele>
        <time>2022-01-15T11:17:56.000Z</time>
      </trkpt>
      <trkpt lat="43.90097" lon="7.50415">
        <ele>632.20001220703</ele>
        <time>2022-01-15T11:17:59.000Z</time>
      </trkpt>
      <trkpt lat="43.901" lon="7.50408">
        <ele>633</ele>
        <time>2022-01-15T11:18:02.000Z</time>
      </trkpt>
      <trkpt lat="43.90102" lon="7.50403">
        <ele>633.40002441406</ele>
        <time>2022-01-15T11:18:04.000Z</time>
      </trkpt>
      <trkpt lat="43.90106" lon="7.5039">
        <ele>634.20001220703</ele>
        <time>2022-01-15T11:18:09.000Z</time>
      </trkpt>
      <trkpt lat="43.90108" lon="7.50384">
        <ele>634.40002441406</ele>
        <time>2022-01-15T11:18:11.000Z</time>
      </trkpt>
      <trkpt lat="43.90118" lon="7.5037">
        <ele>635</ele>
        <time>2022-01-15T11:18:17.000Z</time>
      </trkpt>
      <trkpt lat="43.90125" lon="7.50367">
        <ele>635.40002441406</ele>
        <time>2022-01-15T11:18:20.000Z</time>
      </trkpt>
      <trkpt lat="43.90129" lon="7.50367">
        <ele>636</ele>
        <time>2022-01-15T11:18:22.000Z</time>
      </trkpt>
      <trkpt lat="43.90136" lon="7.50369">
        <ele>636.40002441406</ele>
        <time>2022-01-15T11:18:25.000Z</time>
      </trkpt>
      <trkpt lat="43.90144" lon="7.50369">
        <ele>637</ele>
        <time>2022-01-15T11:18:29.000Z</time>
      </trkpt>
      <trkpt lat="43.9015" lon="7.50365">
        <ele>637.59997558594</ele>
        <time>2022-01-15T11:18:32.000Z</time>
      </trkpt>
      <trkpt lat="43.90155" lon="7.5036">
        <ele>638.40002441406</ele>
        <time>2022-01-15T11:18:35.000Z</time>
      </trkpt>
      <trkpt lat="43.90159" lon="7.50357">
        <ele>638.79998779297</ele>
        <time>2022-01-15T11:18:37.000Z</time>
      </trkpt>
      <trkpt lat="43.90169" lon="7.50346">
        <ele>640</ele>
        <time>2022-01-15T11:18:43.000Z</time>
      </trkpt>
      <trkpt lat="43.90172" lon="7.50331">
        <ele>641.20001220703</ele>
        <time>2022-01-15T11:18:49.000Z</time>
      </trkpt>
      <trkpt lat="43.90172" lon="7.50317">
        <ele>642.20001220703</ele>
        <time>2022-01-15T11:18:54.000Z</time>
      </trkpt>
      <trkpt lat="43.90173" lon="7.50311">
        <ele>642.79998779297</ele>
        <time>2022-01-15T11:18:56.000Z</time>
      </trkpt>
      <trkpt lat="43.90173" lon="7.50309">
        <ele>643.40002441406</ele>
        <time>2022-01-15T11:18:59.000Z</time>
      </trkpt>
      <trkpt lat="43.90173" lon="7.50307">
        <ele>643.79998779297</ele>
        <time>2022-01-15T11:19:01.000Z</time>
      </trkpt>
      <trkpt lat="43.90173" lon="7.50305">
        <ele>643.79998779297</ele>
        <time>2022-01-15T11:19:15.000Z</time>
      </trkpt>
      <trkpt lat="43.90179" lon="7.50296">
        <ele>644.40002441406</ele>
        <time>2022-01-15T11:19:21.000Z</time>
      </trkpt>
      <trkpt lat="43.90188" lon="7.50285">
        <ele>645.40002441406</ele>
        <time>2022-01-15T11:19:27.000Z</time>
      </trkpt>
      <trkpt lat="43.90192" lon="7.50283">
        <ele>645.59997558594</ele>
        <time>2022-01-15T11:19:29.000Z</time>
      </trkpt>
      <trkpt lat="43.90201" lon="7.50278">
        <ele>646.79998779297</ele>
        <time>2022-01-15T11:19:34.000Z</time>
      </trkpt>
      <trkpt lat="43.90208" lon="7.50273">
        <ele>647.79998779297</ele>
        <time>2022-01-15T11:19:38.000Z</time>
      </trkpt>
      <trkpt lat="43.90217" lon="7.50267">
        <ele>649</ele>
        <time>2022-01-15T11:19:43.000Z</time>
      </trkpt>
      <trkpt lat="43.90228" lon="7.50265">
        <ele>650.20001220703</ele>
        <time>2022-01-15T11:19:48.000Z</time>
      </trkpt>
      <trkpt lat="43.90232" lon="7.50266">
        <ele>650.59997558594</ele>
        <time>2022-01-15T11:19:50.000Z</time>
      </trkpt>
      <trkpt lat="43.90239" lon="7.50271">
        <ele>651.40002441406</ele>
        <time>2022-01-15T11:19:53.000Z</time>
      </trkpt>
      <trkpt lat="43.90244" lon="7.50275">
        <ele>652</ele>
        <time>2022-01-15T11:19:56.000Z</time>
      </trkpt>
      <trkpt lat="43.90251" lon="7.50279">
        <ele>652.40002441406</ele>
        <time>2022-01-15T11:19:59.000Z</time>
      </trkpt>
      <trkpt lat="43.90263" lon="7.50285">
        <ele>653.59997558594</ele>
        <time>2022-01-15T11:20:05.000Z</time>
      </trkpt>
      <trkpt lat="43.90265" lon="7.50286">
        <ele>653.59997558594</ele>
        <time>2022-01-15T11:20:06.000Z</time>
      </trkpt>
      <trkpt lat="43.90275" lon="7.50291">
        <ele>654.79998779297</ele>
        <time>2022-01-15T11:20:11.000Z</time>
      </trkpt>
      <trkpt lat="43.90282" lon="7.50293">
        <ele>655.79998779297</ele>
        <time>2022-01-15T11:20:15.000Z</time>
      </trkpt>
      <trkpt lat="43.90294" lon="7.50296">
        <ele>656.79998779297</ele>
        <time>2022-01-15T11:20:21.000Z</time>
      </trkpt>
      <trkpt lat="43.90298" lon="7.50297">
        <ele>657.20001220703</ele>
        <time>2022-01-15T11:20:23.000Z</time>
      </trkpt>
      <trkpt lat="43.90302" lon="7.50297">
        <ele>657.79998779297</ele>
        <time>2022-01-15T11:20:26.000Z</time>
      </trkpt>
      <trkpt lat="43.90302" lon="7.50297">
        <ele>658.40002441406</ele>
        <time>2022-01-15T11:20:28.000Z</time>
      </trkpt>
      <trkpt lat="43.90302" lon="7.50296">
        <ele>658.59997558594</ele>
        <time>2022-01-15T11:20:41.000Z</time>
      </trkpt>
      <trkpt lat="43.90302" lon="7.50297">
        <ele>658.59997558594</ele>
        <time>2022-01-15T11:20:50.000Z</time>
      </trkpt>
      <trkpt lat="43.90303" lon="7.50298">
        <ele>658.59997558594</ele>
        <time>2022-01-15T11:20:59.000Z</time>
      </trkpt>
      <trkpt lat="43.90307" lon="7.50299">
        <ele>658.79998779297</ele>
        <time>2022-01-15T11:21:01.000Z</time>
      </trkpt>
      <trkpt lat="43.9031" lon="7.503">
        <ele>659</ele>
        <time>2022-01-15T11:21:03.000Z</time>
      </trkpt>
      <trkpt lat="43.90319" lon="7.50301">
        <ele>660.20001220703</ele>
        <time>2022-01-15T11:21:08.000Z</time>
      </trkpt>
      <trkpt lat="43.90323" lon="7.50302">
        <ele>660.59997558594</ele>
        <time>2022-01-15T11:21:10.000Z</time>
      </trkpt>
      <trkpt lat="43.90328" lon="7.50302">
        <ele>661.20001220703</ele>
        <time>2022-01-15T11:21:13.000Z</time>
      </trkpt>
      <trkpt lat="43.90335" lon="7.503">
        <ele>662</ele>
        <time>2022-01-15T11:21:17.000Z</time>
      </trkpt>
      <trkpt lat="43.90336" lon="7.503">
        <ele>662.20001220703</ele>
        <time>2022-01-15T11:21:18.000Z</time>
      </trkpt>
      <trkpt lat="43.90344" lon="7.50291">
        <ele>663.20001220703</ele>
        <time>2022-01-15T11:21:24.000Z</time>
      </trkpt>
      <trkpt lat="43.90345" lon="7.50289">
        <ele>663.40002441406</ele>
        <time>2022-01-15T11:21:25.000Z</time>
      </trkpt>
      <trkpt lat="43.90348" lon="7.50279">
        <ele>664.40002441406</ele>
        <time>2022-01-15T11:21:29.000Z</time>
      </trkpt>
      <trkpt lat="43.90349" lon="7.50277">
        <ele>664.59997558594</ele>
        <time>2022-01-15T11:21:30.000Z</time>
      </trkpt>
      <trkpt lat="43.90352" lon="7.50258">
        <ele>665.59997558594</ele>
        <time>2022-01-15T11:21:38.000Z</time>
      </trkpt>
      <trkpt lat="43.90352" lon="7.50256">
        <ele>665.59997558594</ele>
        <time>2022-01-15T11:21:39.000Z</time>
      </trkpt>
      <trkpt lat="43.90353" lon="7.50242">
        <ele>666.59997558594</ele>
        <time>2022-01-15T11:21:45.000Z</time>
      </trkpt>
      <trkpt lat="43.90352" lon="7.50237">
        <ele>667</ele>
        <time>2022-01-15T11:21:47.000Z</time>
      </trkpt>
      <trkpt lat="43.90351" lon="7.50228">
        <ele>667.59997558594</ele>
        <time>2022-01-15T11:21:51.000Z</time>
      </trkpt>
      <trkpt lat="43.9035" lon="7.50217">
        <ele>668.59997558594</ele>
        <time>2022-01-15T11:21:56.000Z</time>
      </trkpt>
      <trkpt lat="43.9035" lon="7.50214">
        <ele>668.79998779297</ele>
        <time>2022-01-15T11:21:57.000Z</time>
      </trkpt>
      <trkpt lat="43.90349" lon="7.50198">
        <ele>670</ele>
        <time>2022-01-15T11:22:04.000Z</time>
      </trkpt>
      <trkpt lat="43.90349" lon="7.50187">
        <ele>671</ele>
        <time>2022-01-15T11:22:09.000Z</time>
      </trkpt>
      <trkpt lat="43.90349" lon="7.50183">
        <ele>671.40002441406</ele>
        <time>2022-01-15T11:22:11.000Z</time>
      </trkpt>
      <trkpt lat="43.90348" lon="7.50174">
        <ele>672</ele>
        <time>2022-01-15T11:22:15.000Z</time>
      </trkpt>
      <trkpt lat="43.90347" lon="7.50168">
        <ele>672.79998779297</ele>
        <time>2022-01-15T11:22:19.000Z</time>
      </trkpt>
      <trkpt lat="43.90346" lon="7.50162">
        <ele>673.20001220703</ele>
        <time>2022-01-15T11:22:22.000Z</time>
      </trkpt>
      <trkpt lat="43.90345" lon="7.50155">
        <ele>673.79998779297</ele>
        <time>2022-01-15T11:22:26.000Z</time>
      </trkpt>
      <trkpt lat="43.90344" lon="7.5015">
        <ele>674.20001220703</ele>
        <time>2022-01-15T11:22:29.000Z</time>
      </trkpt>
      <trkpt lat="43.9034" lon="7.50139">
        <ele>675.20001220703</ele>
        <time>2022-01-15T11:22:35.000Z</time>
      </trkpt>
      <trkpt lat="43.90335" lon="7.50125">
        <ele>676.20001220703</ele>
        <time>2022-01-15T11:22:42.000Z</time>
      </trkpt>
      <trkpt lat="43.90334" lon="7.50123">
        <ele>676.40002441406</ele>
        <time>2022-01-15T11:22:43.000Z</time>
      </trkpt>
      <trkpt lat="43.90332" lon="7.50112">
        <ele>677</ele>
        <time>2022-01-15T11:22:49.000Z</time>
      </trkpt>
      <trkpt lat="43.90331" lon="7.50107">
        <ele>677.40002441406</ele>
        <time>2022-01-15T11:22:51.000Z</time>
      </trkpt>
      <trkpt lat="43.90331" lon="7.50094">
        <ele>678</ele>
        <time>2022-01-15T11:22:57.000Z</time>
      </trkpt>
      <trkpt lat="43.90332" lon="7.5009">
        <ele>678.40002441406</ele>
        <time>2022-01-15T11:22:59.000Z</time>
      </trkpt>
      <trkpt lat="43.90336" lon="7.50083">
        <ele>679</ele>
        <time>2022-01-15T11:23:03.000Z</time>
      </trkpt>
      <trkpt lat="43.9034" lon="7.50079">
        <ele>679.40002441406</ele>
        <time>2022-01-15T11:23:06.000Z</time>
      </trkpt>
      <trkpt lat="43.90345" lon="7.50074">
        <ele>680.20001220703</ele>
        <time>2022-01-15T11:23:10.000Z</time>
      </trkpt>
      <trkpt lat="43.90347" lon="7.50069">
        <ele>680.59997558594</ele>
        <time>2022-01-15T11:23:12.000Z</time>
      </trkpt>
      <trkpt lat="43.90348" lon="7.50064">
        <ele>681.59997558594</ele>
        <time>2022-01-15T11:23:15.000Z</time>
      </trkpt>
      <trkpt lat="43.90349" lon="7.50063">
        <ele>682.20001220703</ele>
        <time>2022-01-15T11:23:16.000Z</time>
      </trkpt>
      <trkpt lat="43.9035" lon="7.5006">
        <ele>682.79998779297</ele>
        <time>2022-01-15T11:23:18.000Z</time>
      </trkpt>
      <trkpt lat="43.90353" lon="7.50054">
        <ele>683.59997558594</ele>
        <time>2022-01-15T11:23:22.000Z</time>
      </trkpt>
      <trkpt lat="43.90355" lon="7.50048">
        <ele>684</ele>
        <time>2022-01-15T11:23:25.000Z</time>
      </trkpt>
      <trkpt lat="43.90358" lon="7.50043">
        <ele>684.79998779297</ele>
        <time>2022-01-15T11:23:28.000Z</time>
      </trkpt>
      <trkpt lat="43.9036" lon="7.5004">
        <ele>685.20001220703</ele>
        <time>2022-01-15T11:23:30.000Z</time>
      </trkpt>
      <trkpt lat="43.90364" lon="7.50032">
        <ele>686.20001220703</ele>
        <time>2022-01-15T11:23:35.000Z</time>
      </trkpt>
      <trkpt lat="43.9037" lon="7.5002">
        <ele>687.40002441406</ele>
        <time>2022-01-15T11:23:41.000Z</time>
      </trkpt>
      <trkpt lat="43.9037" lon="7.50017">
        <ele>687.59997558594</ele>
        <time>2022-01-15T11:23:42.000Z</time>
      </trkpt>
      <trkpt lat="43.90372" lon="7.50003">
        <ele>688.20001220703</ele>
        <time>2022-01-15T11:23:48.000Z</time>
      </trkpt>
      <trkpt lat="43.90373" lon="7.50001">
        <ele>688.40002441406</ele>
        <time>2022-01-15T11:23:49.000Z</time>
      </trkpt>
      <trkpt lat="43.90376" lon="7.49991">
        <ele>689.59997558594</ele>
        <time>2022-01-15T11:23:54.000Z</time>
      </trkpt>
      <trkpt lat="43.9038" lon="7.49984">
        <ele>690.20001220703</ele>
        <time>2022-01-15T11:23:57.000Z</time>
      </trkpt>
      <trkpt lat="43.90382" lon="7.4998">
        <ele>690.59997558594</ele>
        <time>2022-01-15T11:23:59.000Z</time>
      </trkpt>
      <trkpt lat="43.9039" lon="7.49966">
        <ele>691</ele>
        <time>2022-01-15T11:24:06.000Z</time>
      </trkpt>
      <trkpt lat="43.90394" lon="7.49956">
        <ele>691.59997558594</ele>
        <time>2022-01-15T11:24:10.000Z</time>
      </trkpt>
      <trkpt lat="43.90396" lon="7.49951">
        <ele>691.79998779297</ele>
        <time>2022-01-15T11:24:12.000Z</time>
      </trkpt>
      <trkpt lat="43.90402" lon="7.49941">
        <ele>692.59997558594</ele>
        <time>2022-01-15T11:24:17.000Z</time>
      </trkpt>
      <trkpt lat="43.90404" lon="7.49937">
        <ele>692.79998779297</ele>
        <time>2022-01-15T11:24:19.000Z</time>
      </trkpt>
      <trkpt lat="43.90408" lon="7.49924">
        <ele>693.59997558594</ele>
        <time>2022-01-15T11:24:25.000Z</time>
      </trkpt>
      <trkpt lat="43.90409" lon="7.49922">
        <ele>694</ele>
        <time>2022-01-15T11:24:26.000Z</time>
      </trkpt>
      <trkpt lat="43.90411" lon="7.49916">
        <ele>694.79998779297</ele>
        <time>2022-01-15T11:24:29.000Z</time>
      </trkpt>
      <trkpt lat="43.90415" lon="7.4991">
        <ele>695.79998779297</ele>
        <time>2022-01-15T11:24:33.000Z</time>
      </trkpt>
      <trkpt lat="43.9042" lon="7.49898">
        <ele>697</ele>
        <time>2022-01-15T11:24:41.000Z</time>
      </trkpt>
      <trkpt lat="43.90421" lon="7.49896">
        <ele>697.20001220703</ele>
        <time>2022-01-15T11:24:42.000Z</time>
      </trkpt>
      <trkpt lat="43.90424" lon="7.49892">
        <ele>698.20001220703</ele>
        <time>2022-01-15T11:24:45.000Z</time>
      </trkpt>
      <trkpt lat="43.90429" lon="7.49889">
        <ele>699.20001220703</ele>
        <time>2022-01-15T11:24:48.000Z</time>
      </trkpt>
      <trkpt lat="43.90432" lon="7.49887">
        <ele>700.40002441406</ele>
        <time>2022-01-15T11:24:51.000Z</time>
      </trkpt>
      <trkpt lat="43.90437" lon="7.49885">
        <ele>701.40002441406</ele>
        <time>2022-01-15T11:24:55.000Z</time>
      </trkpt>
      <trkpt lat="43.90438" lon="7.49884">
        <ele>701.59997558594</ele>
        <time>2022-01-15T11:24:56.000Z</time>
      </trkpt>
      <trkpt lat="43.90439" lon="7.49882">
        <ele>701.59997558594</ele>
        <time>2022-01-15T11:24:57.000Z</time>
      </trkpt>
      <trkpt lat="43.90441" lon="7.49875">
        <ele>702.40002441406</ele>
        <time>2022-01-15T11:25:01.000Z</time>
      </trkpt>
      <trkpt lat="43.90442" lon="7.49873">
        <ele>702.59997558594</ele>
        <time>2022-01-15T11:25:02.000Z</time>
      </trkpt>
      <trkpt lat="43.90445" lon="7.49862">
        <ele>703.59997558594</ele>
        <time>2022-01-15T11:25:08.000Z</time>
      </trkpt>
      <trkpt lat="43.90447" lon="7.49856">
        <ele>704.20001220703</ele>
        <time>2022-01-15T11:25:11.000Z</time>
      </trkpt>
      <trkpt lat="43.90449" lon="7.49852">
        <ele>704.59997558594</ele>
        <time>2022-01-15T11:25:13.000Z</time>
      </trkpt>
      <trkpt lat="43.90454" lon="7.4984">
        <ele>705.59997558594</ele>
        <time>2022-01-15T11:25:19.000Z</time>
      </trkpt>
      <trkpt lat="43.90454" lon="7.49838">
        <ele>705.79998779297</ele>
        <time>2022-01-15T11:25:20.000Z</time>
      </trkpt>
      <trkpt lat="43.90458" lon="7.49828">
        <ele>706.40002441406</ele>
        <time>2022-01-15T11:25:25.000Z</time>
      </trkpt>
      <trkpt lat="43.90459" lon="7.49824">
        <ele>706.79998779297</ele>
        <time>2022-01-15T11:25:27.000Z</time>
      </trkpt>
      <trkpt lat="43.90465" lon="7.49817">
        <ele>708</ele>
        <time>2022-01-15T11:25:32.000Z</time>
      </trkpt>
      <trkpt lat="43.9047" lon="7.49811">
        <ele>709.40002441406</ele>
        <time>2022-01-15T11:25:36.000Z</time>
      </trkpt>
      <trkpt lat="43.90472" lon="7.49807">
        <ele>710.40002441406</ele>
        <time>2022-01-15T11:25:39.000Z</time>
      </trkpt>
      <trkpt lat="43.90473" lon="7.49805">
        <ele>710.59997558594</ele>
        <time>2022-01-15T11:25:40.000Z</time>
      </trkpt>
      <trkpt lat="43.90474" lon="7.49796">
        <ele>711.79998779297</ele>
        <time>2022-01-15T11:25:45.000Z</time>
      </trkpt>
      <trkpt lat="43.90475" lon="7.49778">
        <ele>712.79998779297</ele>
        <time>2022-01-15T11:25:53.000Z</time>
      </trkpt>
      <trkpt lat="43.90475" lon="7.49766">
        <ele>713.79998779297</ele>
        <time>2022-01-15T11:25:59.000Z</time>
      </trkpt>
      <trkpt lat="43.90476" lon="7.4976">
        <ele>714.40002441406</ele>
        <time>2022-01-15T11:26:02.000Z</time>
      </trkpt>
      <trkpt lat="43.90476" lon="7.49754">
        <ele>715</ele>
        <time>2022-01-15T11:26:05.000Z</time>
      </trkpt>
      <trkpt lat="43.90476" lon="7.49742">
        <ele>716.20001220703</ele>
        <time>2022-01-15T11:26:11.000Z</time>
      </trkpt>
      <trkpt lat="43.90477" lon="7.4974">
        <ele>716.40002441406</ele>
        <time>2022-01-15T11:26:12.000Z</time>
      </trkpt>
      <trkpt lat="43.90479" lon="7.49726">
        <ele>717.20001220703</ele>
        <time>2022-01-15T11:26:19.000Z</time>
      </trkpt>
      <trkpt lat="43.90479" lon="7.49725">
        <ele>717.40002441406</ele>
        <time>2022-01-15T11:26:20.000Z</time>
      </trkpt>
      <trkpt lat="43.9048" lon="7.49719">
        <ele>718</ele>
        <time>2022-01-15T11:26:26.000Z</time>
      </trkpt>
      <trkpt lat="43.9048" lon="7.49719">
        <ele>718.20001220703</ele>
        <time>2022-01-15T11:26:29.000Z</time>
      </trkpt>
      <trkpt lat="43.9048" lon="7.49719">
        <ele>718.40002441406</ele>
        <time>2022-01-15T11:26:34.000Z</time>
      </trkpt>
      <trkpt lat="43.9048" lon="7.49719">
        <ele>718.59997558594</ele>
        <time>2022-01-15T11:26:42.000Z</time>
      </trkpt>
      <trkpt lat="43.9048" lon="7.49719">
        <ele>718.20001220703</ele>
        <time>2022-01-15T11:26:55.000Z</time>
      </trkpt>
      <trkpt lat="43.90482" lon="7.49718">
        <ele>718.40002441406</ele>
        <time>2022-01-15T11:26:59.000Z</time>
      </trkpt>
      <trkpt lat="43.90483" lon="7.49717">
        <ele>718.40002441406</ele>
        <time>2022-01-15T11:27:00.000Z</time>
      </trkpt>
      <trkpt lat="43.9049" lon="7.49709">
        <ele>718.40002441406</ele>
        <time>2022-01-15T11:27:06.000Z</time>
      </trkpt>
      <trkpt lat="43.90502" lon="7.49699">
        <ele>719.20001220703</ele>
        <time>2022-01-15T11:27:13.000Z</time>
      </trkpt>
      <trkpt lat="43.90503" lon="7.49698">
        <ele>719.40002441406</ele>
        <time>2022-01-15T11:27:14.000Z</time>
      </trkpt>
      <trkpt lat="43.9051" lon="7.49689">
        <ele>720.40002441406</ele>
        <time>2022-01-15T11:27:19.000Z</time>
      </trkpt>
      <trkpt lat="43.90513" lon="7.49686">
        <ele>720.79998779297</ele>
        <time>2022-01-15T11:27:21.000Z</time>
      </trkpt>
      <trkpt lat="43.90517" lon="7.49682">
        <ele>721.59997558594</ele>
        <time>2022-01-15T11:27:24.000Z</time>
      </trkpt>
      <trkpt lat="43.90526" lon="7.49672">
        <ele>722.59997558594</ele>
        <time>2022-01-15T11:27:30.000Z</time>
      </trkpt>
      <trkpt lat="43.90533" lon="7.49666">
        <ele>723.79998779297</ele>
        <time>2022-01-15T11:27:35.000Z</time>
      </trkpt>
      <trkpt lat="43.9054" lon="7.4966">
        <ele>724.79998779297</ele>
        <time>2022-01-15T11:27:40.000Z</time>
      </trkpt>
      <trkpt lat="43.90542" lon="7.49659">
        <ele>725</ele>
        <time>2022-01-15T11:27:41.000Z</time>
      </trkpt>
      <trkpt lat="43.90552" lon="7.49654">
        <ele>726</ele>
        <time>2022-01-15T11:27:47.000Z</time>
      </trkpt>
      <trkpt lat="43.90554" lon="7.49654">
        <ele>726.20001220703</ele>
        <time>2022-01-15T11:27:48.000Z</time>
      </trkpt>
      <trkpt lat="43.90562" lon="7.49653">
        <ele>727.20001220703</ele>
        <time>2022-01-15T11:27:53.000Z</time>
      </trkpt>
      <trkpt lat="43.90567" lon="7.49653">
        <ele>727.79998779297</ele>
        <time>2022-01-15T11:27:56.000Z</time>
      </trkpt>
      <trkpt lat="43.90571" lon="7.49652">
        <ele>728.40002441406</ele>
        <time>2022-01-15T11:27:58.000Z</time>
      </trkpt>
      <trkpt lat="43.9058" lon="7.49646">
        <ele>729.20001220703</ele>
        <time>2022-01-15T11:28:04.000Z</time>
      </trkpt>
      <trkpt lat="43.90581" lon="7.49645">
        <ele>729.40002441406</ele>
        <time>2022-01-15T11:28:05.000Z</time>
      </trkpt>
      <trkpt lat="43.90587" lon="7.49636">
        <ele>730.40002441406</ele>
        <time>2022-01-15T11:28:10.000Z</time>
      </trkpt>
      <trkpt lat="43.90589" lon="7.49633">
        <ele>730.79998779297</ele>
        <time>2022-01-15T11:28:12.000Z</time>
      </trkpt>
      <trkpt lat="43.90593" lon="7.49624">
        <ele>731.59997558594</ele>
        <time>2022-01-15T11:28:16.000Z</time>
      </trkpt>
      <trkpt lat="43.90598" lon="7.49613">
        <ele>732.59997558594</ele>
        <time>2022-01-15T11:28:21.000Z</time>
      </trkpt>
      <trkpt lat="43.90599" lon="7.49611">
        <ele>732.59997558594</ele>
        <time>2022-01-15T11:28:22.000Z</time>
      </trkpt>
      <trkpt lat="43.90605" lon="7.49597">
        <ele>733.79998779297</ele>
        <time>2022-01-15T11:28:28.000Z</time>
      </trkpt>
      <trkpt lat="43.90607" lon="7.49592">
        <ele>734.20001220703</ele>
        <time>2022-01-15T11:28:30.000Z</time>
      </trkpt>
      <trkpt lat="43.9061" lon="7.4958">
        <ele>734.79998779297</ele>
        <time>2022-01-15T11:28:35.000Z</time>
      </trkpt>
      <trkpt lat="43.90611" lon="7.49575">
        <ele>735</ele>
        <time>2022-01-15T11:28:37.000Z</time>
      </trkpt>
      <trkpt lat="43.90613" lon="7.49554">
        <ele>735.79998779297</ele>
        <time>2022-01-15T11:28:45.000Z</time>
      </trkpt>
      <trkpt lat="43.90613" lon="7.49551">
        <ele>736</ele>
        <time>2022-01-15T11:28:46.000Z</time>
      </trkpt>
      <trkpt lat="43.90617" lon="7.49523">
        <ele>736.40002441406</ele>
        <time>2022-01-15T11:28:56.000Z</time>
      </trkpt>
      <trkpt lat="43.90621" lon="7.49504">
        <ele>736.79998779297</ele>
        <time>2022-01-15T11:29:03.000Z</time>
      </trkpt>
      <trkpt lat="43.90621" lon="7.49501">
        <ele>736.79998779297</ele>
        <time>2022-01-15T11:29:04.000Z</time>
      </trkpt>
      <trkpt lat="43.90628" lon="7.49473">
        <ele>737.79998779297</ele>
        <time>2022-01-15T11:29:15.000Z</time>
      </trkpt>
      <trkpt lat="43.90628" lon="7.49471">
        <ele>738</ele>
        <time>2022-01-15T11:29:16.000Z</time>
      </trkpt>
      <trkpt lat="43.90634" lon="7.4945">
        <ele>738.40002441406</ele>
        <time>2022-01-15T11:29:24.000Z</time>
      </trkpt>
      <trkpt lat="43.90639" lon="7.49429">
        <ele>739</ele>
        <time>2022-01-15T11:29:32.000Z</time>
      </trkpt>
      <trkpt lat="43.90642" lon="7.49412">
        <ele>740</ele>
        <time>2022-01-15T11:29:39.000Z</time>
      </trkpt>
      <trkpt lat="43.90642" lon="7.49409">
        <ele>740.20001220703</ele>
        <time>2022-01-15T11:29:40.000Z</time>
      </trkpt>
      <trkpt lat="43.90647" lon="7.49394">
        <ele>741.20001220703</ele>
        <time>2022-01-15T11:29:46.000Z</time>
      </trkpt>
      <trkpt lat="43.90656" lon="7.49386">
        <ele>742</ele>
        <time>2022-01-15T11:29:52.000Z</time>
      </trkpt>
      <trkpt lat="43.90662" lon="7.49388">
        <ele>742.20001220703</ele>
        <time>2022-01-15T11:29:55.000Z</time>
      </trkpt>
      <trkpt lat="43.90667" lon="7.49391">
        <ele>742.59997558594</ele>
        <time>2022-01-15T11:29:58.000Z</time>
      </trkpt>
      <trkpt lat="43.90681" lon="7.49404">
        <ele>743</ele>
        <time>2022-01-15T11:30:06.000Z</time>
      </trkpt>
      <trkpt lat="43.90692" lon="7.49412">
        <ele>743.20001220703</ele>
        <time>2022-01-15T11:30:12.000Z</time>
      </trkpt>
      <trkpt lat="43.90695" lon="7.49413">
        <ele>743.40002441406</ele>
        <time>2022-01-15T11:30:14.000Z</time>
      </trkpt>
      <trkpt lat="43.90707" lon="7.49411">
        <ele>744.40002441406</ele>
        <time>2022-01-15T11:30:21.000Z</time>
      </trkpt>
      <trkpt lat="43.90718" lon="7.49406">
        <ele>745.40002441406</ele>
        <time>2022-01-15T11:30:28.000Z</time>
      </trkpt>
      <trkpt lat="43.90721" lon="7.49404">
        <ele>745.79998779297</ele>
        <time>2022-01-15T11:30:30.000Z</time>
      </trkpt>
      <trkpt lat="43.90727" lon="7.49404">
        <ele>746.40002441406</ele>
        <time>2022-01-15T11:30:33.000Z</time>
      </trkpt>
      <trkpt lat="43.90732" lon="7.49407">
        <ele>747.20001220703</ele>
        <time>2022-01-15T11:30:36.000Z</time>
      </trkpt>
      <trkpt lat="43.90736" lon="7.49411">
        <ele>747.59997558594</ele>
        <time>2022-01-15T11:30:39.000Z</time>
      </trkpt>
      <trkpt lat="43.90745" lon="7.4942">
        <ele>748.20001220703</ele>
        <time>2022-01-15T11:30:45.000Z</time>
      </trkpt>
      <trkpt lat="43.90753" lon="7.49422">
        <ele>748.79998779297</ele>
        <time>2022-01-15T11:30:50.000Z</time>
      </trkpt>
      <trkpt lat="43.90755" lon="7.49421">
        <ele>748.79998779297</ele>
        <time>2022-01-15T11:30:51.000Z</time>
      </trkpt>
      <trkpt lat="43.90764" lon="7.49414">
        <ele>749.40002441406</ele>
        <time>2022-01-15T11:30:57.000Z</time>
      </trkpt>
      <trkpt lat="43.90769" lon="7.49409">
        <ele>749.79998779297</ele>
        <time>2022-01-15T11:31:00.000Z</time>
      </trkpt>
      <trkpt lat="43.90778" lon="7.494">
        <ele>750.40002441406</ele>
        <time>2022-01-15T11:31:06.000Z</time>
      </trkpt>
      <trkpt lat="43.90782" lon="7.49398">
        <ele>750.79998779297</ele>
        <time>2022-01-15T11:31:09.000Z</time>
      </trkpt>
      <trkpt lat="43.90787" lon="7.49395">
        <ele>751.20001220703</ele>
        <time>2022-01-15T11:31:12.000Z</time>
      </trkpt>
      <trkpt lat="43.90799" lon="7.49392">
        <ele>751.79998779297</ele>
        <time>2022-01-15T11:31:19.000Z</time>
      </trkpt>
      <trkpt lat="43.90809" lon="7.49388">
        <ele>752.59997558594</ele>
        <time>2022-01-15T11:31:26.000Z</time>
      </trkpt>
      <trkpt lat="43.90814" lon="7.49386">
        <ele>753</ele>
        <time>2022-01-15T11:31:29.000Z</time>
      </trkpt>
      <trkpt lat="43.90822" lon="7.49385">
        <ele>754</ele>
        <time>2022-01-15T11:31:34.000Z</time>
      </trkpt>
      <trkpt lat="43.90824" lon="7.49385">
        <ele>754.20001220703</ele>
        <time>2022-01-15T11:31:35.000Z</time>
      </trkpt>
      <trkpt lat="43.90834" lon="7.49387">
        <ele>755.20001220703</ele>
        <time>2022-01-15T11:31:40.000Z</time>
      </trkpt>
      <trkpt lat="43.90837" lon="7.49388">
        <ele>755.59997558594</ele>
        <time>2022-01-15T11:31:42.000Z</time>
      </trkpt>
      <trkpt lat="43.90844" lon="7.49392">
        <ele>756.20001220703</ele>
        <time>2022-01-15T11:31:46.000Z</time>
      </trkpt>
      <trkpt lat="43.90849" lon="7.49396">
        <ele>756.59997558594</ele>
        <time>2022-01-15T11:31:49.000Z</time>
      </trkpt>
      <trkpt lat="43.9086" lon="7.49402">
        <ele>757.20001220703</ele>
        <time>2022-01-15T11:31:55.000Z</time>
      </trkpt>
      <trkpt lat="43.90862" lon="7.49402">
        <ele>757.40002441406</ele>
        <time>2022-01-15T11:31:56.000Z</time>
      </trkpt>
      <trkpt lat="43.90875" lon="7.49399">
        <ele>758.20001220703</ele>
        <time>2022-01-15T11:32:03.000Z</time>
      </trkpt>
      <trkpt lat="43.90877" lon="7.49398">
        <ele>758.40002441406</ele>
        <time>2022-01-15T11:32:04.000Z</time>
      </trkpt>
      <trkpt lat="43.90891" lon="7.49393">
        <ele>759.20001220703</ele>
        <time>2022-01-15T11:32:11.000Z</time>
      </trkpt>
      <trkpt lat="43.90899" lon="7.49389">
        <ele>759.40002441406</ele>
        <time>2022-01-15T11:32:15.000Z</time>
      </trkpt>
      <trkpt lat="43.90909" lon="7.49384">
        <ele>759.59997558594</ele>
        <time>2022-01-15T11:32:20.000Z</time>
      </trkpt>
      <trkpt lat="43.90925" lon="7.49376">
        <ele>759.40002441406</ele>
        <time>2022-01-15T11:32:28.000Z</time>
      </trkpt>
      <trkpt lat="43.90927" lon="7.49365">
        <ele>759.59997558594</ele>
        <time>2022-01-15T11:32:33.000Z</time>
      </trkpt>
      <trkpt lat="43.90924" lon="7.49356">
        <ele>760.40002441406</ele>
        <time>2022-01-15T11:32:37.000Z</time>
      </trkpt>
      <trkpt lat="43.90922" lon="7.4935">
        <ele>761</ele>
        <time>2022-01-15T11:32:40.000Z</time>
      </trkpt>
      <trkpt lat="43.90922" lon="7.49346">
        <ele>761.40002441406</ele>
        <time>2022-01-15T11:32:42.000Z</time>
      </trkpt>
      <trkpt lat="43.90922" lon="7.49345">
        <ele>761.59997558594</ele>
        <time>2022-01-15T11:32:43.000Z</time>
      </trkpt>
      <trkpt lat="43.90922" lon="7.49345">
        <ele>761.59997558594</ele>
        <time>2022-01-15T11:32:44.000Z</time>
      </trkpt>
      <trkpt lat="43.90921" lon="7.49344">
        <ele>761.59997558594</ele>
        <time>2022-01-15T11:32:51.000Z</time>
      </trkpt>
      <trkpt lat="43.90921" lon="7.49343">
        <ele>761.79998779297</ele>
        <time>2022-01-15T11:32:57.000Z</time>
      </trkpt>
      <trkpt lat="43.90919" lon="7.4934">
        <ele>761.79998779297</ele>
        <time>2022-01-15T11:33:03.000Z</time>
      </trkpt>
      <trkpt lat="43.90919" lon="7.4934">
        <ele>762.40002441406</ele>
        <time>2022-01-15T11:33:10.000Z</time>
      </trkpt>
      <trkpt lat="43.9092" lon="7.4934">
        <ele>762.20001220703</ele>
        <time>2022-01-15T11:33:20.000Z</time>
      </trkpt>
      <trkpt lat="43.90919" lon="7.49339">
        <ele>762.40002441406</ele>
        <time>2022-01-15T11:33:29.000Z</time>
      </trkpt>
      <trkpt lat="43.90919" lon="7.49337">
        <ele>762.59997558594</ele>
        <time>2022-01-15T11:33:35.000Z</time>
      </trkpt>
      <trkpt lat="43.90919" lon="7.49337">
        <ele>762.59997558594</ele>
        <time>2022-01-15T11:33:37.000Z</time>
      </trkpt>
      <trkpt lat="43.90918" lon="7.49337">
        <ele>763.20001220703</ele>
        <time>2022-01-15T11:33:43.000Z</time>
      </trkpt>
      <trkpt lat="43.90918" lon="7.49337">
        <ele>763.20001220703</ele>
        <time>2022-01-15T11:33:49.000Z</time>
      </trkpt>
      <trkpt lat="43.90915" lon="7.49341">
        <ele>763.40002441406</ele>
        <time>2022-01-15T11:33:56.000Z</time>
      </trkpt>
      <trkpt lat="43.90915" lon="7.49342">
        <ele>763.79998779297</ele>
        <time>2022-01-15T11:33:58.000Z</time>
      </trkpt>
      <trkpt lat="43.90914" lon="7.49343">
        <ele>764</ele>
        <time>2022-01-15T11:34:04.000Z</time>
      </trkpt>
      <trkpt lat="43.90914" lon="7.49343">
        <ele>764</ele>
        <time>2022-01-15T11:34:12.000Z</time>
      </trkpt>
      <trkpt lat="43.90915" lon="7.49346">
        <ele>764</ele>
        <time>2022-01-15T11:34:20.000Z</time>
      </trkpt>
      <trkpt lat="43.90915" lon="7.49346">
        <ele>764.40002441406</ele>
        <time>2022-01-15T11:34:29.000Z</time>
      </trkpt>
      <trkpt lat="43.90915" lon="7.49346">
        <ele>764.79998779297</ele>
        <time>2022-01-15T11:34:34.000Z</time>
      </trkpt>
      <trkpt lat="43.90915" lon="7.49347">
        <ele>765</ele>
        <time>2022-01-15T11:34:37.000Z</time>
      </trkpt>
      <trkpt lat="43.90914" lon="7.49347">
        <ele>764</ele>
        <time>2022-01-15T11:34:43.000Z</time>
      </trkpt>
      <trkpt lat="43.90915" lon="7.49347">
        <ele>764</ele>
        <time>2022-01-15T11:34:48.000Z</time>
      </trkpt>
      <trkpt lat="43.90915" lon="7.49347">
        <ele>764</ele>
        <time>2022-01-15T11:34:54.000Z</time>
      </trkpt>
      <trkpt lat="43.90915" lon="7.49347">
        <ele>764</ele>
        <time>2022-01-15T11:34:55.000Z</time>
      </trkpt>
      <trkpt lat="43.90914" lon="7.49346">
        <ele>764</ele>
        <time>2022-01-15T11:35:05.000Z</time>
      </trkpt>
      <trkpt lat="43.90915" lon="7.49347">
        <ele>764.40002441406</ele>
        <time>2022-01-15T11:35:12.000Z</time>
      </trkpt>
      <trkpt lat="43.90914" lon="7.49349">
        <ele>764.59997558594</ele>
        <time>2022-01-15T11:35:20.000Z</time>
      </trkpt>
      <trkpt lat="43.90913" lon="7.49348">
        <ele>764.40002441406</ele>
        <time>2022-01-15T11:35:27.000Z</time>
      </trkpt>
      <trkpt lat="43.90913" lon="7.49345">
        <ele>764.20001220703</ele>
        <time>2022-01-15T11:35:34.000Z</time>
      </trkpt>
      <trkpt lat="43.90913" lon="7.49345">
        <ele>763.79998779297</ele>
        <time>2022-01-15T11:35:41.000Z</time>
      </trkpt>
      <trkpt lat="43.90912" lon="7.49344">
        <ele>763.79998779297</ele>
        <time>2022-01-15T11:35:42.000Z</time>
      </trkpt>
      <trkpt lat="43.90912" lon="7.49344">
        <ele>763.59997558594</ele>
        <time>2022-01-15T11:35:51.000Z</time>
      </trkpt>
      <trkpt lat="43.90911" lon="7.49343">
        <ele>764</ele>
        <time>2022-01-15T11:35:59.000Z</time>
      </trkpt>
      <trkpt lat="43.90911" lon="7.49343">
        <ele>764.40002441406</ele>
        <time>2022-01-15T11:36:05.000Z</time>
      </trkpt>
      <trkpt lat="43.90911" lon="7.49344">
        <ele>764.20001220703</ele>
        <time>2022-01-15T11:36:16.000Z</time>
      </trkpt>
      <trkpt lat="43.90911" lon="7.49344">
        <ele>763.79998779297</ele>
        <time>2022-01-15T11:36:22.000Z</time>
      </trkpt>
      <trkpt lat="43.90911" lon="7.49344">
        <ele>763.79998779297</ele>
        <time>2022-01-15T11:36:31.000Z</time>
      </trkpt>
      <trkpt lat="43.90912" lon="7.49344">
        <ele>764.40002441406</ele>
        <time>2022-01-15T11:36:42.000Z</time>
      </trkpt>
      <trkpt lat="43.90912" lon="7.49344">
        <ele>764.59997558594</ele>
        <time>2022-01-15T11:36:53.000Z</time>
      </trkpt>
      <trkpt lat="43.90912" lon="7.49344">
        <ele>764.40002441406</ele>
        <time>2022-01-15T11:37:01.000Z</time>
      </trkpt>
      <trkpt lat="43.90911" lon="7.49344">
        <ele>764.79998779297</ele>
        <time>2022-01-15T11:37:13.000Z</time>
      </trkpt>
      <trkpt lat="43.90911" lon="7.49344">
        <ele>764.79998779297</ele>
        <time>2022-01-15T11:37:14.000Z</time>
      </trkpt>
      <trkpt lat="43.90911" lon="7.49344">
        <ele>764.59997558594</ele>
        <time>2022-01-15T11:37:20.000Z</time>
      </trkpt>
      <trkpt lat="43.90911" lon="7.49344">
        <ele>764.40002441406</ele>
        <time>2022-01-15T11:37:31.000Z</time>
      </trkpt>
      <trkpt lat="43.90911" lon="7.49343">
        <ele>764.40002441406</ele>
        <time>2022-01-15T11:37:40.000Z</time>
      </trkpt>
      <trkpt lat="43.90911" lon="7.49344">
        <ele>764</ele>
        <time>2022-01-15T11:37:49.000Z</time>
      </trkpt>
      <trkpt lat="43.9091" lon="7.49347">
        <ele>764</ele>
        <time>2022-01-15T11:37:55.000Z</time>
      </trkpt>
      <trkpt lat="43.9091" lon="7.49347">
        <ele>764.40002441406</ele>
        <time>2022-01-15T11:38:01.000Z</time>
      </trkpt>
      <trkpt lat="43.9091" lon="7.49347">
        <ele>764</ele>
        <time>2022-01-15T11:38:09.000Z</time>
      </trkpt>
      <trkpt lat="43.90911" lon="7.49347">
        <ele>764</ele>
        <time>2022-01-15T11:38:21.000Z</time>
      </trkpt>
      <trkpt lat="43.90911" lon="7.49347">
        <ele>764.40002441406</ele>
        <time>2022-01-15T11:38:31.000Z</time>
      </trkpt>
      <trkpt lat="43.9091" lon="7.49347">
        <ele>764.40002441406</ele>
        <time>2022-01-15T11:38:43.000Z</time>
      </trkpt>
      <trkpt lat="43.9091" lon="7.49346">
        <ele>764.40002441406</ele>
        <time>2022-01-15T11:38:52.000Z</time>
      </trkpt>
      <trkpt lat="43.9091" lon="7.49346">
        <ele>764.40002441406</ele>
        <time>2022-01-15T11:39:11.000Z</time>
      </trkpt>
      <trkpt lat="43.9091" lon="7.49346">
        <ele>764.59997558594</ele>
        <time>2022-01-15T11:39:32.000Z</time>
      </trkpt>
      <trkpt lat="43.9091" lon="7.49346">
        <ele>764.59997558594</ele>
        <time>2022-01-15T11:39:43.000Z</time>
      </trkpt>
      <trkpt lat="43.9091" lon="7.49346">
        <ele>764.79998779297</ele>
        <time>2022-01-15T11:39:52.000Z</time>
      </trkpt>
      <trkpt lat="43.90909" lon="7.49347">
        <ele>764.40002441406</ele>
        <time>2022-01-15T11:40:10.000Z</time>
      </trkpt>
      <trkpt lat="43.90909" lon="7.49347">
        <ele>764.59997558594</ele>
        <time>2022-01-15T11:40:24.000Z</time>
      </trkpt>
      <trkpt lat="43.90909" lon="7.49347">
        <ele>764.40002441406</ele>
        <time>2022-01-15T11:40:33.000Z</time>
      </trkpt>
      <trkpt lat="43.90909" lon="7.49347">
        <ele>764.40002441406</ele>
        <time>2022-01-15T11:40:47.000Z</time>
      </trkpt>
      <trkpt lat="43.90909" lon="7.49347">
        <ele>764.40002441406</ele>
        <time>2022-01-15T11:41:03.000Z</time>
      </trkpt>
      <trkpt lat="43.90909" lon="7.49348">
        <ele>764.59997558594</ele>
        <time>2022-01-15T11:41:19.000Z</time>
      </trkpt>
      <trkpt lat="43.90909" lon="7.49349">
        <ele>764.40002441406</ele>
        <time>2022-01-15T11:41:25.000Z</time>
      </trkpt>
      <trkpt lat="43.90909" lon="7.4935">
        <ele>764.40002441406</ele>
        <time>2022-01-15T11:41:34.000Z</time>
      </trkpt>
      <trkpt lat="43.90908" lon="7.4935">
        <ele>764.40002441406</ele>
        <time>2022-01-15T11:41:48.000Z</time>
      </trkpt>
      <trkpt lat="43.90909" lon="7.4935">
        <ele>764.40002441406</ele>
        <time>2022-01-15T11:42:09.000Z</time>
      </trkpt>
      <trkpt lat="43.90909" lon="7.4935">
        <ele>764.59997558594</ele>
        <time>2022-01-15T11:42:25.000Z</time>
      </trkpt>
      <trkpt lat="43.90908" lon="7.49349">
        <ele>764.40002441406</ele>
        <time>2022-01-15T11:42:32.000Z</time>
      </trkpt>
      <trkpt lat="43.90908" lon="7.49349">
        <ele>764.40002441406</ele>
        <time>2022-01-15T11:42:41.000Z</time>
      </trkpt>
      <trkpt lat="43.90908" lon="7.49349">
        <ele>764.59997558594</ele>
        <time>2022-01-15T11:42:50.000Z</time>
      </trkpt>
      <trkpt lat="43.90908" lon="7.4935">
        <ele>764.79998779297</ele>
        <time>2022-01-15T11:43:02.000Z</time>
      </trkpt>
      <trkpt lat="43.90908" lon="7.49348">
        <ele>764.40002441406</ele>
        <time>2022-01-15T11:43:16.000Z</time>
      </trkpt>
      <trkpt lat="43.90908" lon="7.49348">
        <ele>764.40002441406</ele>
        <time>2022-01-15T11:43:30.000Z</time>
      </trkpt>
      <trkpt lat="43.90908" lon="7.49349">
        <ele>764.59997558594</ele>
        <time>2022-01-15T11:43:38.000Z</time>
      </trkpt>
      <trkpt lat="43.90908" lon="7.49349">
        <ele>764.59997558594</ele>
        <time>2022-01-15T11:44:06.000Z</time>
      </trkpt>
      <trkpt lat="43.90909" lon="7.49349">
        <ele>764.40002441406</ele>
        <time>2022-01-15T11:44:20.000Z</time>
      </trkpt>
      <trkpt lat="43.90909" lon="7.49345">
        <ele>764.20001220703</ele>
        <time>2022-01-15T11:44:26.000Z</time>
      </trkpt>
      <trkpt lat="43.9091" lon="7.49345">
        <ele>764</ele>
        <time>2022-01-15T11:44:27.000Z</time>
      </trkpt>
      <trkpt lat="43.9091" lon="7.49344">
        <ele>764.20001220703</ele>
        <time>2022-01-15T11:44:30.000Z</time>
      </trkpt>
      <trkpt lat="43.90911" lon="7.49342">
        <ele>764</ele>
        <time>2022-01-15T11:44:36.000Z</time>
      </trkpt>
      <trkpt lat="43.90912" lon="7.49341">
        <ele>764.59997558594</ele>
        <time>2022-01-15T11:44:44.000Z</time>
      </trkpt>
      <trkpt lat="43.90913" lon="7.49341">
        <ele>764.40002441406</ele>
        <time>2022-01-15T11:45:05.000Z</time>
      </trkpt>
      <trkpt lat="43.90913" lon="7.49342">
        <ele>764.40002441406</ele>
        <time>2022-01-15T11:45:13.000Z</time>
      </trkpt>
      <trkpt lat="43.90913" lon="7.49342">
        <ele>764.59997558594</ele>
        <time>2022-01-15T11:45:30.000Z</time>
      </trkpt>
      <trkpt lat="43.90913" lon="7.4934">
        <ele>764.40002441406</ele>
        <time>2022-01-15T11:45:37.000Z</time>
      </trkpt>
      <trkpt lat="43.90914" lon="7.49341">
        <ele>764.40002441406</ele>
        <time>2022-01-15T11:45:47.000Z</time>
      </trkpt>
      <trkpt lat="43.90914" lon="7.49341">
        <ele>764.40002441406</ele>
        <time>2022-01-15T11:45:58.000Z</time>
      </trkpt>
      <trkpt lat="43.90915" lon="7.49341">
        <ele>764.20001220703</ele>
        <time>2022-01-15T11:46:14.000Z</time>
      </trkpt>
      <trkpt lat="43.90915" lon="7.49341">
        <ele>764.40002441406</ele>
        <time>2022-01-15T11:46:29.000Z</time>
      </trkpt>
      <trkpt lat="43.90915" lon="7.4934">
        <ele>764.40002441406</ele>
        <time>2022-01-15T11:46:43.000Z</time>
      </trkpt>
      <trkpt lat="43.90914" lon="7.4934">
        <ele>764.40002441406</ele>
        <time>2022-01-15T11:47:02.000Z</time>
      </trkpt>
      <trkpt lat="43.90914" lon="7.4934">
        <ele>764.40002441406</ele>
        <time>2022-01-15T11:47:17.000Z</time>
      </trkpt>
      <trkpt lat="43.90914" lon="7.49341">
        <ele>764.40002441406</ele>
        <time>2022-01-15T11:47:32.000Z</time>
      </trkpt>
      <trkpt lat="43.90914" lon="7.49341">
        <ele>764.40002441406</ele>
        <time>2022-01-15T11:47:47.000Z</time>
      </trkpt>
      <trkpt lat="43.90914" lon="7.49342">
        <ele>764.40002441406</ele>
        <time>2022-01-15T11:47:59.000Z</time>
      </trkpt>
      <trkpt lat="43.90914" lon="7.49342">
        <ele>764.20001220703</ele>
        <time>2022-01-15T11:48:15.000Z</time>
      </trkpt>
      <trkpt lat="43.90915" lon="7.49343">
        <ele>764.20001220703</ele>
        <time>2022-01-15T11:48:27.000Z</time>
      </trkpt>
      <trkpt lat="43.90915" lon="7.49343">
        <ele>763.79998779297</ele>
        <time>2022-01-15T11:48:32.000Z</time>
      </trkpt>
      <trkpt lat="43.90915" lon="7.49344">
        <ele>763.59997558594</ele>
        <time>2022-01-15T11:48:38.000Z</time>
      </trkpt>
      <trkpt lat="43.90915" lon="7.49344">
        <ele>763.59997558594</ele>
        <time>2022-01-15T11:48:46.000Z</time>
      </trkpt>
      <trkpt lat="43.90915" lon="7.49344">
        <ele>763.59997558594</ele>
        <time>2022-01-15T11:48:56.000Z</time>
      </trkpt>
      <trkpt lat="43.90915" lon="7.49344">
        <ele>763.59997558594</ele>
        <time>2022-01-15T11:49:14.000Z</time>
      </trkpt>
      <trkpt lat="43.90914" lon="7.49345">
        <ele>763.59997558594</ele>
        <time>2022-01-15T11:49:31.000Z</time>
      </trkpt>
      <trkpt lat="43.90914" lon="7.49345">
        <ele>763.40002441406</ele>
        <time>2022-01-15T11:49:45.000Z</time>
      </trkpt>
      <trkpt lat="43.90914" lon="7.49345">
        <ele>763.79998779297</ele>
        <time>2022-01-15T11:49:54.000Z</time>
      </trkpt>
      <trkpt lat="43.90914" lon="7.49345">
        <ele>763.79998779297</ele>
        <time>2022-01-15T11:50:06.000Z</time>
      </trkpt>
      <trkpt lat="43.90914" lon="7.49345">
        <ele>763.79998779297</ele>
        <time>2022-01-15T11:50:20.000Z</time>
      </trkpt>
      <trkpt lat="43.90914" lon="7.49345">
        <ele>763.59997558594</ele>
        <time>2022-01-15T11:50:28.000Z</time>
      </trkpt>
      <trkpt lat="43.90914" lon="7.49345">
        <ele>763.40002441406</ele>
        <time>2022-01-15T11:50:35.000Z</time>
      </trkpt>
      <trkpt lat="43.90914" lon="7.49345">
        <ele>763.59997558594</ele>
        <time>2022-01-15T11:50:45.000Z</time>
      </trkpt>
      <trkpt lat="43.90914" lon="7.49345">
        <ele>763.59997558594</ele>
        <time>2022-01-15T11:51:11.000Z</time>
      </trkpt>
      <trkpt lat="43.90914" lon="7.49345">
        <ele>763.59997558594</ele>
        <time>2022-01-15T11:51:22.000Z</time>
      </trkpt>
      <trkpt lat="43.90914" lon="7.49345">
        <ele>763.59997558594</ele>
        <time>2022-01-15T11:51:32.000Z</time>
      </trkpt>
      <trkpt lat="43.90914" lon="7.49345">
        <ele>763.59997558594</ele>
        <time>2022-01-15T11:51:54.000Z</time>
      </trkpt>
      <trkpt lat="43.90913" lon="7.49345">
        <ele>763.40002441406</ele>
        <time>2022-01-15T11:52:09.000Z</time>
      </trkpt>
      <trkpt lat="43.90914" lon="7.49346">
        <ele>763.40002441406</ele>
        <time>2022-01-15T11:52:21.000Z</time>
      </trkpt>
      <trkpt lat="43.90914" lon="7.49345">
        <ele>763.79998779297</ele>
        <time>2022-01-15T11:52:31.000Z</time>
      </trkpt>
      <trkpt lat="43.90913" lon="7.49344">
        <ele>763.79998779297</ele>
        <time>2022-01-15T11:52:38.000Z</time>
      </trkpt>
      <trkpt lat="43.90913" lon="7.49344">
        <ele>764</ele>
        <time>2022-01-15T11:52:45.000Z</time>
      </trkpt>
      <trkpt lat="43.90914" lon="7.49345">
        <ele>764.59997558594</ele>
        <time>2022-01-15T11:52:50.000Z</time>
      </trkpt>
      <trkpt lat="43.90914" lon="7.49345">
        <ele>763.59997558594</ele>
        <time>2022-01-15T11:53:00.000Z</time>
      </trkpt>
      <trkpt lat="43.90913" lon="7.49346">
        <ele>764</ele>
        <time>2022-01-15T11:53:13.000Z</time>
      </trkpt>
      <trkpt lat="43.90914" lon="7.49345">
        <ele>764</ele>
        <time>2022-01-15T11:53:31.000Z</time>
      </trkpt>
      <trkpt lat="43.90913" lon="7.49345">
        <ele>763.79998779297</ele>
        <time>2022-01-15T11:53:43.000Z</time>
      </trkpt>
      <trkpt lat="43.90913" lon="7.49345">
        <ele>764.20001220703</ele>
        <time>2022-01-15T11:53:55.000Z</time>
      </trkpt>
      <trkpt lat="43.90911" lon="7.49345">
        <ele>764</ele>
        <time>2022-01-15T11:54:05.000Z</time>
      </trkpt>
      <trkpt lat="43.90911" lon="7.49345">
        <ele>764</ele>
        <time>2022-01-15T11:54:06.000Z</time>
      </trkpt>
      <trkpt lat="43.90911" lon="7.49346">
        <ele>764.40002441406</ele>
        <time>2022-01-15T11:54:12.000Z</time>
      </trkpt>
      <trkpt lat="43.90911" lon="7.49346">
        <ele>764.20001220703</ele>
        <time>2022-01-15T11:54:22.000Z</time>
      </trkpt>
      <trkpt lat="43.90911" lon="7.49345">
        <ele>764.79998779297</ele>
        <time>2022-01-15T11:54:30.000Z</time>
      </trkpt>
      <trkpt lat="43.90911" lon="7.49344">
        <ele>764.59997558594</ele>
        <time>2022-01-15T11:54:36.000Z</time>
      </trkpt>
      <trkpt lat="43.90911" lon="7.49343">
        <ele>764.40002441406</ele>
        <time>2022-01-15T11:54:46.000Z</time>
      </trkpt>
      <trkpt lat="43.90911" lon="7.49342">
        <ele>764.40002441406</ele>
        <time>2022-01-15T11:54:58.000Z</time>
      </trkpt>
      <trkpt lat="43.90911" lon="7.49342">
        <ele>765</ele>
        <time>2022-01-15T11:55:06.000Z</time>
      </trkpt>
      <trkpt lat="43.90911" lon="7.49341">
        <ele>764.40002441406</ele>
        <time>2022-01-15T11:55:12.000Z</time>
      </trkpt>
      <trkpt lat="43.90912" lon="7.49341">
        <ele>765</ele>
        <time>2022-01-15T11:55:22.000Z</time>
      </trkpt>
      <trkpt lat="43.90911" lon="7.49339">
        <ele>765</ele>
        <time>2022-01-15T11:55:38.000Z</time>
      </trkpt>
      <trkpt lat="43.90911" lon="7.49339">
        <ele>764.79998779297</ele>
        <time>2022-01-15T11:55:53.000Z</time>
      </trkpt>
      <trkpt lat="43.90911" lon="7.49339">
        <ele>765</ele>
        <time>2022-01-15T11:56:03.000Z</time>
      </trkpt>
      <trkpt lat="43.90911" lon="7.4934">
        <ele>765.20001220703</ele>
        <time>2022-01-15T11:56:14.000Z</time>
      </trkpt>
      <trkpt lat="43.90911" lon="7.49341">
        <ele>765</ele>
        <time>2022-01-15T11:56:26.000Z</time>
      </trkpt>
      <trkpt lat="43.90911" lon="7.49341">
        <ele>765</ele>
        <time>2022-01-15T11:56:37.000Z</time>
      </trkpt>
      <trkpt lat="43.90911" lon="7.49341">
        <ele>764.79998779297</ele>
        <time>2022-01-15T11:56:47.000Z</time>
      </trkpt>
      <trkpt lat="43.90912" lon="7.49342">
        <ele>765.40002441406</ele>
        <time>2022-01-15T11:56:55.000Z</time>
      </trkpt>
      <trkpt lat="43.90911" lon="7.49342">
        <ele>765.59997558594</ele>
        <time>2022-01-15T11:57:01.000Z</time>
      </trkpt>
      <trkpt lat="43.90911" lon="7.49341">
        <ele>764.79998779297</ele>
        <time>2022-01-15T11:57:06.000Z</time>
      </trkpt>
      <trkpt lat="43.90911" lon="7.49342">
        <ele>765.59997558594</ele>
        <time>2022-01-15T11:57:14.000Z</time>
      </trkpt>
      <trkpt lat="43.90911" lon="7.49341">
        <ele>765</ele>
        <time>2022-01-15T11:57:22.000Z</time>
      </trkpt>
      <trkpt lat="43.90912" lon="7.49342">
        <ele>765</ele>
        <time>2022-01-15T11:57:28.000Z</time>
      </trkpt>
      <trkpt lat="43.90912" lon="7.49342">
        <ele>765.20001220703</ele>
        <time>2022-01-15T11:57:35.000Z</time>
      </trkpt>
      <trkpt lat="43.90913" lon="7.49342">
        <ele>765.20001220703</ele>
        <time>2022-01-15T11:57:43.000Z</time>
      </trkpt>
      <trkpt lat="43.90913" lon="7.49342">
        <ele>765.20001220703</ele>
        <time>2022-01-15T11:57:53.000Z</time>
      </trkpt>
      <trkpt lat="43.90913" lon="7.49342">
        <ele>765.20001220703</ele>
        <time>2022-01-15T11:58:02.000Z</time>
      </trkpt>
      <trkpt lat="43.90913" lon="7.49341">
        <ele>765</ele>
        <time>2022-01-15T11:58:08.000Z</time>
      </trkpt>
      <trkpt lat="43.90913" lon="7.49342">
        <ele>764.79998779297</ele>
        <time>2022-01-15T11:58:15.000Z</time>
      </trkpt>
      <trkpt lat="43.90914" lon="7.49342">
        <ele>765.20001220703</ele>
        <time>2022-01-15T11:58:27.000Z</time>
      </trkpt>
      <trkpt lat="43.90914" lon="7.49342">
        <ele>765.40002441406</ele>
        <time>2022-01-15T11:58:36.000Z</time>
      </trkpt>
      <trkpt lat="43.90915" lon="7.49342">
        <ele>765.20001220703</ele>
        <time>2022-01-15T11:58:39.000Z</time>
      </trkpt>
      <trkpt lat="43.90915" lon="7.49342">
        <ele>765.20001220703</ele>
        <time>2022-01-15T11:58:47.000Z</time>
      </trkpt>
      <trkpt lat="43.90914" lon="7.49343">
        <ele>765</ele>
        <time>2022-01-15T11:58:57.000Z</time>
      </trkpt>
      <trkpt lat="43.90914" lon="7.49343">
        <ele>765.40002441406</ele>
        <time>2022-01-15T11:59:10.000Z</time>
      </trkpt>
      <trkpt lat="43.90914" lon="7.49343">
        <ele>765</ele>
        <time>2022-01-15T11:59:17.000Z</time>
      </trkpt>
      <trkpt lat="43.90914" lon="7.49344">
        <ele>765.20001220703</ele>
        <time>2022-01-15T11:59:27.000Z</time>
      </trkpt>
      <trkpt lat="43.90913" lon="7.49345">
        <ele>765.40002441406</ele>
        <time>2022-01-15T11:59:34.000Z</time>
      </trkpt>
      <trkpt lat="43.90913" lon="7.49344">
        <ele>765.40002441406</ele>
        <time>2022-01-15T11:59:40.000Z</time>
      </trkpt>
      <trkpt lat="43.90913" lon="7.49344">
        <ele>765.40002441406</ele>
        <time>2022-01-15T11:59:48.000Z</time>
      </trkpt>
      <trkpt lat="43.90913" lon="7.49344">
        <ele>765.40002441406</ele>
        <time>2022-01-15T11:59:56.000Z</time>
      </trkpt>
      <trkpt lat="43.90913" lon="7.49344">
        <ele>765.79998779297</ele>
        <time>2022-01-15T12:00:06.000Z</time>
      </trkpt>
      <trkpt lat="43.90914" lon="7.49344">
        <ele>765.40002441406</ele>
        <time>2022-01-15T12:00:13.000Z</time>
      </trkpt>
      <trkpt lat="43.90913" lon="7.49344">
        <ele>765.79998779297</ele>
        <time>2022-01-15T12:00:21.000Z</time>
      </trkpt>
      <trkpt lat="43.90914" lon="7.49343">
        <ele>765.59997558594</ele>
        <time>2022-01-15T12:00:29.000Z</time>
      </trkpt>
      <trkpt lat="43.90913" lon="7.49344">
        <ele>765</ele>
        <time>2022-01-15T12:00:36.000Z</time>
      </trkpt>
      <trkpt lat="43.90913" lon="7.49344">
        <ele>765.59997558594</ele>
        <time>2022-01-15T12:00:49.000Z</time>
      </trkpt>
      <trkpt lat="43.90913" lon="7.49344">
        <ele>765.59997558594</ele>
        <time>2022-01-15T12:01:01.000Z</time>
      </trkpt>
      <trkpt lat="43.90913" lon="7.49343">
        <ele>765.20001220703</ele>
        <time>2022-01-15T12:01:09.000Z</time>
      </trkpt>
      <trkpt lat="43.90913" lon="7.49343">
        <ele>764.59997558594</ele>
        <time>2022-01-15T12:01:16.000Z</time>
      </trkpt>
      <trkpt lat="43.90913" lon="7.49342">
        <ele>764.59997558594</ele>
        <time>2022-01-15T12:01:22.000Z</time>
      </trkpt>
      <trkpt lat="43.90913" lon="7.49341">
        <ele>765.20001220703</ele>
        <time>2022-01-15T12:01:27.000Z</time>
      </trkpt>
      <trkpt lat="43.90913" lon="7.49338">
        <ele>765.20001220703</ele>
        <time>2022-01-15T12:01:33.000Z</time>
      </trkpt>
      <trkpt lat="43.90915" lon="7.49336">
        <ele>765</ele>
        <time>2022-01-15T12:01:39.000Z</time>
      </trkpt>
      <trkpt lat="43.90914" lon="7.49336">
        <ele>764.79998779297</ele>
        <time>2022-01-15T12:01:55.000Z</time>
      </trkpt>
      <trkpt lat="43.90914" lon="7.49335">
        <ele>764.79998779297</ele>
        <time>2022-01-15T12:02:10.000Z</time>
      </trkpt>
      <trkpt lat="43.90914" lon="7.49335">
        <ele>765</ele>
        <time>2022-01-15T12:02:30.000Z</time>
      </trkpt>
      <trkpt lat="43.90914" lon="7.49335">
        <ele>765</ele>
        <time>2022-01-15T12:02:41.000Z</time>
      </trkpt>
      <trkpt lat="43.90914" lon="7.49336">
        <ele>765</ele>
        <time>2022-01-15T12:02:49.000Z</time>
      </trkpt>
      <trkpt lat="43.90914" lon="7.49335">
        <ele>765</ele>
        <time>2022-01-15T12:02:57.000Z</time>
      </trkpt>
      <trkpt lat="43.90914" lon="7.49335">
        <ele>765</ele>
        <time>2022-01-15T12:03:06.000Z</time>
      </trkpt>
      <trkpt lat="43.90914" lon="7.49336">
        <ele>765</ele>
        <time>2022-01-15T12:03:26.000Z</time>
      </trkpt>
      <trkpt lat="43.90915" lon="7.49336">
        <ele>765.20001220703</ele>
        <time>2022-01-15T12:03:41.000Z</time>
      </trkpt>
      <trkpt lat="43.90915" lon="7.49337">
        <ele>765.20001220703</ele>
        <time>2022-01-15T12:03:55.000Z</time>
      </trkpt>
      <trkpt lat="43.90915" lon="7.49337">
        <ele>765.20001220703</ele>
        <time>2022-01-15T12:04:07.000Z</time>
      </trkpt>
      <trkpt lat="43.90915" lon="7.49337">
        <ele>765.20001220703</ele>
        <time>2022-01-15T12:04:16.000Z</time>
      </trkpt>
      <trkpt lat="43.90916" lon="7.49337">
        <ele>765.20001220703</ele>
        <time>2022-01-15T12:04:24.000Z</time>
      </trkpt>
      <trkpt lat="43.90916" lon="7.49338">
        <ele>765.40002441406</ele>
        <time>2022-01-15T12:04:35.000Z</time>
      </trkpt>
      <trkpt lat="43.90917" lon="7.49338">
        <ele>765.40002441406</ele>
        <time>2022-01-15T12:04:41.000Z</time>
      </trkpt>
      <trkpt lat="43.90916" lon="7.49338">
        <ele>765.20001220703</ele>
        <time>2022-01-15T12:05:04.000Z</time>
      </trkpt>
      <trkpt lat="43.90917" lon="7.49338">
        <ele>765.20001220703</ele>
        <time>2022-01-15T12:05:10.000Z</time>
      </trkpt>
      <trkpt lat="43.90918" lon="7.49335">
        <ele>765</ele>
        <time>2022-01-15T12:05:16.000Z</time>
      </trkpt>
      <trkpt lat="43.9092" lon="7.49334">
        <ele>764.79998779297</ele>
        <time>2022-01-15T12:05:19.000Z</time>
      </trkpt>
      <trkpt lat="43.90921" lon="7.49335">
        <ele>764.59997558594</ele>
        <time>2022-01-15T12:05:22.000Z</time>
      </trkpt>
      <trkpt lat="43.9092" lon="7.49336">
        <ele>764.20001220703</ele>
        <time>2022-01-15T12:05:26.000Z</time>
      </trkpt>
      <trkpt lat="43.90922" lon="7.49336">
        <ele>764</ele>
        <time>2022-01-15T12:05:32.000Z</time>
      </trkpt>
      <trkpt lat="43.90923" lon="7.4934">
        <ele>763.79998779297</ele>
        <time>2022-01-15T12:05:36.000Z</time>
      </trkpt>
      <trkpt lat="43.90923" lon="7.49342">
        <ele>763.59997558594</ele>
        <time>2022-01-15T12:05:38.000Z</time>
      </trkpt>
      <trkpt lat="43.90923" lon="7.49344">
        <ele>763</ele>
        <time>2022-01-15T12:05:44.000Z</time>
      </trkpt>
      <trkpt lat="43.90924" lon="7.49343">
        <ele>763</ele>
        <time>2022-01-15T12:05:52.000Z</time>
      </trkpt>
      <trkpt lat="43.90928" lon="7.49343">
        <ele>763.40002441406</ele>
        <time>2022-01-15T12:06:04.000Z</time>
      </trkpt>
      <trkpt lat="43.90937" lon="7.4935">
        <ele>763.20001220703</ele>
        <time>2022-01-15T12:06:07.000Z</time>
      </trkpt>
      <trkpt lat="43.9094" lon="7.49353">
        <ele>762.79998779297</ele>
        <time>2022-01-15T12:06:08.000Z</time>
      </trkpt>
      <trkpt lat="43.90944" lon="7.49357">
        <ele>762.40002441406</ele>
        <time>2022-01-15T12:06:09.000Z</time>
      </trkpt>
      <trkpt lat="43.90954" lon="7.49368">
        <ele>761</ele>
        <time>2022-01-15T12:06:12.000Z</time>
      </trkpt>
      <trkpt lat="43.90964" lon="7.49373">
        <ele>760.20001220703</ele>
        <time>2022-01-15T12:06:15.000Z</time>
      </trkpt>
      <trkpt lat="43.90979" lon="7.49373">
        <ele>760.59997558594</ele>
        <time>2022-01-15T12:06:21.000Z</time>
      </trkpt>
      <trkpt lat="43.90997" lon="7.49369">
        <ele>762</ele>
        <time>2022-01-15T12:06:28.000Z</time>
      </trkpt>
      <trkpt lat="43.91014" lon="7.49365">
        <ele>763.20001220703</ele>
        <time>2022-01-15T12:06:35.000Z</time>
      </trkpt>
      <trkpt lat="43.91021" lon="7.49364">
        <ele>763.79998779297</ele>
        <time>2022-01-15T12:06:38.000Z</time>
      </trkpt>
      <trkpt lat="43.91025" lon="7.49362">
        <ele>764.20001220703</ele>
        <time>2022-01-15T12:06:40.000Z</time>
      </trkpt>
      <trkpt lat="43.91033" lon="7.49359">
        <ele>764.59997558594</ele>
        <time>2022-01-15T12:06:44.000Z</time>
      </trkpt>
      <trkpt lat="43.91039" lon="7.49358">
        <ele>765.20001220703</ele>
        <time>2022-01-15T12:06:47.000Z</time>
      </trkpt>
      <trkpt lat="43.91045" lon="7.49357">
        <ele>765.40002441406</ele>
        <time>2022-01-15T12:06:50.000Z</time>
      </trkpt>
      <trkpt lat="43.91058" lon="7.49354">
        <ele>766.20001220703</ele>
        <time>2022-01-15T12:06:58.000Z</time>
      </trkpt>
      <trkpt lat="43.91063" lon="7.49356">
        <ele>766.79998779297</ele>
        <time>2022-01-15T12:07:03.000Z</time>
      </trkpt>
      <trkpt lat="43.91067" lon="7.49357">
        <ele>767</ele>
        <time>2022-01-15T12:07:05.000Z</time>
      </trkpt>
      <trkpt lat="43.9107" lon="7.49357">
        <ele>767.20001220703</ele>
        <time>2022-01-15T12:07:07.000Z</time>
      </trkpt>
      <trkpt lat="43.91073" lon="7.49357">
        <ele>767.59997558594</ele>
        <time>2022-01-15T12:07:09.000Z</time>
      </trkpt>
      <trkpt lat="43.91078" lon="7.49355">
        <ele>768.20001220703</ele>
        <time>2022-01-15T12:07:13.000Z</time>
      </trkpt>
      <trkpt lat="43.91084" lon="7.49354">
        <ele>769.20001220703</ele>
        <time>2022-01-15T12:07:17.000Z</time>
      </trkpt>
      <trkpt lat="43.91085" lon="7.49353">
        <ele>769.40002441406</ele>
        <time>2022-01-15T12:07:18.000Z</time>
      </trkpt>
      <trkpt lat="43.91094" lon="7.49345">
        <ele>770.40002441406</ele>
        <time>2022-01-15T12:07:23.000Z</time>
      </trkpt>
      <trkpt lat="43.91099" lon="7.49343">
        <ele>770.59997558594</ele>
        <time>2022-01-15T12:07:25.000Z</time>
      </trkpt>
      <trkpt lat="43.91105" lon="7.49339">
        <ele>771.79998779297</ele>
        <time>2022-01-15T12:07:29.000Z</time>
      </trkpt>
      <trkpt lat="43.91109" lon="7.49337">
        <ele>773.20001220703</ele>
        <time>2022-01-15T12:07:32.000Z</time>
      </trkpt>
      <trkpt lat="43.91115" lon="7.49336">
        <ele>774.40002441406</ele>
        <time>2022-01-15T12:07:36.000Z</time>
      </trkpt>
      <trkpt lat="43.91123" lon="7.49333">
        <ele>775.40002441406</ele>
        <time>2022-01-15T12:07:41.000Z</time>
      </trkpt>
      <trkpt lat="43.91127" lon="7.49332">
        <ele>776</ele>
        <time>2022-01-15T12:07:43.000Z</time>
      </trkpt>
      <trkpt lat="43.9113" lon="7.49333">
        <ele>776.79998779297</ele>
        <time>2022-01-15T12:07:45.000Z</time>
      </trkpt>
      <trkpt lat="43.91134" lon="7.49334">
        <ele>778.20001220703</ele>
        <time>2022-01-15T12:07:48.000Z</time>
      </trkpt>
      <trkpt lat="43.91139" lon="7.49335">
        <ele>779.40002441406</ele>
        <time>2022-01-15T12:07:52.000Z</time>
      </trkpt>
      <trkpt lat="43.91143" lon="7.49334">
        <ele>779.79998779297</ele>
        <time>2022-01-15T12:07:54.000Z</time>
      </trkpt>
      <trkpt lat="43.91147" lon="7.49333">
        <ele>780.59997558594</ele>
        <time>2022-01-15T12:07:57.000Z</time>
      </trkpt>
      <trkpt lat="43.91152" lon="7.49331">
        <ele>781.40002441406</ele>
        <time>2022-01-15T12:08:00.000Z</time>
      </trkpt>
      <trkpt lat="43.91153" lon="7.49331">
        <ele>781.79998779297</ele>
        <time>2022-01-15T12:08:01.000Z</time>
      </trkpt>
      <trkpt lat="43.91158" lon="7.49328">
        <ele>783</ele>
        <time>2022-01-15T12:08:05.000Z</time>
      </trkpt>
      <trkpt lat="43.9116" lon="7.49327">
        <ele>783.59997558594</ele>
        <time>2022-01-15T12:08:07.000Z</time>
      </trkpt>
      <trkpt lat="43.91162" lon="7.49326">
        <ele>784</ele>
        <time>2022-01-15T12:08:09.000Z</time>
      </trkpt>
      <trkpt lat="43.91169" lon="7.49323">
        <ele>784.79998779297</ele>
        <time>2022-01-15T12:08:13.000Z</time>
      </trkpt>
      <trkpt lat="43.91169" lon="7.49323">
        <ele>785.20001220703</ele>
        <time>2022-01-15T12:08:14.000Z</time>
      </trkpt>
      <trkpt lat="43.91173" lon="7.4932">
        <ele>785.79998779297</ele>
        <time>2022-01-15T12:08:17.000Z</time>
      </trkpt>
      <trkpt lat="43.91174" lon="7.4932">
        <ele>786.20001220703</ele>
        <time>2022-01-15T12:08:18.000Z</time>
      </trkpt>
      <trkpt lat="43.91175" lon="7.49319">
        <ele>787</ele>
        <time>2022-01-15T12:08:24.000Z</time>
      </trkpt>
      <trkpt lat="43.91176" lon="7.49319">
        <ele>787.20001220703</ele>
        <time>2022-01-15T12:08:31.000Z</time>
      </trkpt>
      <trkpt lat="43.91176" lon="7.49318">
        <ele>787.20001220703</ele>
        <time>2022-01-15T12:08:34.000Z</time>
      </trkpt>
      <trkpt lat="43.91175" lon="7.49319">
        <ele>786.79998779297</ele>
        <time>2022-01-15T12:08:54.000Z</time>
      </trkpt>
      <trkpt lat="43.91176" lon="7.49318">
        <ele>787</ele>
        <time>2022-01-15T12:09:15.000Z</time>
      </trkpt>
      <trkpt lat="43.91177" lon="7.49318">
        <ele>787.20001220703</ele>
        <time>2022-01-15T12:09:25.000Z</time>
      </trkpt>
      <trkpt lat="43.91177" lon="7.49317">
        <ele>787.59997558594</ele>
        <time>2022-01-15T12:09:31.000Z</time>
      </trkpt>
      <trkpt lat="43.91179" lon="7.49316">
        <ele>787.20001220703</ele>
        <time>2022-01-15T12:09:50.000Z</time>
      </trkpt>
      <trkpt lat="43.91178" lon="7.49316">
        <ele>787.59997558594</ele>
        <time>2022-01-15T12:10:10.000Z</time>
      </trkpt>
      <trkpt lat="43.91182" lon="7.49316">
        <ele>787.79998779297</ele>
        <time>2022-01-15T12:10:25.000Z</time>
      </trkpt>
      <trkpt lat="43.91183" lon="7.49315">
        <ele>787.79998779297</ele>
        <time>2022-01-15T12:10:26.000Z</time>
      </trkpt>
      <trkpt lat="43.91186" lon="7.49314">
        <ele>788.40002441406</ele>
        <time>2022-01-15T12:10:28.000Z</time>
      </trkpt>
      <trkpt lat="43.91191" lon="7.49311">
        <ele>788.79998779297</ele>
        <time>2022-01-15T12:10:32.000Z</time>
      </trkpt>
      <trkpt lat="43.91195" lon="7.49306">
        <ele>789.59997558594</ele>
        <time>2022-01-15T12:10:36.000Z</time>
      </trkpt>
      <trkpt lat="43.91198" lon="7.49303">
        <ele>790.40002441406</ele>
        <time>2022-01-15T12:10:39.000Z</time>
      </trkpt>
      <trkpt lat="43.91197" lon="7.49304">
        <ele>790.59997558594</ele>
        <time>2022-01-15T12:10:40.000Z</time>
      </trkpt>
      <trkpt lat="43.912" lon="7.493">
        <ele>791</ele>
        <time>2022-01-15T12:10:43.000Z</time>
      </trkpt>
      <trkpt lat="43.91201" lon="7.493">
        <ele>791.20001220703</ele>
        <time>2022-01-15T12:10:44.000Z</time>
      </trkpt>
      <trkpt lat="43.91204" lon="7.49298">
        <ele>791.79998779297</ele>
        <time>2022-01-15T12:10:47.000Z</time>
      </trkpt>
      <trkpt lat="43.91205" lon="7.49297">
        <ele>792</ele>
        <time>2022-01-15T12:10:48.000Z</time>
      </trkpt>
      <trkpt lat="43.91207" lon="7.49293">
        <ele>792.79998779297</ele>
        <time>2022-01-15T12:10:52.000Z</time>
      </trkpt>
      <trkpt lat="43.91208" lon="7.49292">
        <ele>793</ele>
        <time>2022-01-15T12:10:53.000Z</time>
      </trkpt>
      <trkpt lat="43.9121" lon="7.49291">
        <ele>793.20001220703</ele>
        <time>2022-01-15T12:10:54.000Z</time>
      </trkpt>
      <trkpt lat="43.91215" lon="7.4929">
        <ele>794</ele>
        <time>2022-01-15T12:10:58.000Z</time>
      </trkpt>
      <trkpt lat="43.91216" lon="7.4929">
        <ele>794.20001220703</ele>
        <time>2022-01-15T12:10:59.000Z</time>
      </trkpt>
      <trkpt lat="43.91219" lon="7.49287">
        <ele>795.40002441406</ele>
        <time>2022-01-15T12:11:03.000Z</time>
      </trkpt>
      <trkpt lat="43.91219" lon="7.49286">
        <ele>795.59997558594</ele>
        <time>2022-01-15T12:11:04.000Z</time>
      </trkpt>
      <trkpt lat="43.91223" lon="7.49283">
        <ele>796.59997558594</ele>
        <time>2022-01-15T12:11:07.000Z</time>
      </trkpt>
      <trkpt lat="43.91226" lon="7.49282">
        <ele>797</ele>
        <time>2022-01-15T12:11:10.000Z</time>
      </trkpt>
      <trkpt lat="43.91234" lon="7.49281">
        <ele>797.59997558594</ele>
        <time>2022-01-15T12:11:16.000Z</time>
      </trkpt>
      <trkpt lat="43.91236" lon="7.49279">
        <ele>797.79998779297</ele>
        <time>2022-01-15T12:11:19.000Z</time>
      </trkpt>
      <trkpt lat="43.91242" lon="7.49271">
        <ele>798.59997558594</ele>
        <time>2022-01-15T12:11:25.000Z</time>
      </trkpt>
      <trkpt lat="43.91243" lon="7.49271">
        <ele>798.79998779297</ele>
        <time>2022-01-15T12:11:26.000Z</time>
      </trkpt>
      <trkpt lat="43.91246" lon="7.4927">
        <ele>799.40002441406</ele>
        <time>2022-01-15T12:11:29.000Z</time>
      </trkpt>
      <trkpt lat="43.91249" lon="7.4927">
        <ele>799.59997558594</ele>
        <time>2022-01-15T12:11:31.000Z</time>
      </trkpt>
      <trkpt lat="43.9125" lon="7.4927">
        <ele>799.79998779297</ele>
        <time>2022-01-15T12:11:32.000Z</time>
      </trkpt>
      <trkpt lat="43.91259" lon="7.4927">
        <ele>800.59997558594</ele>
        <time>2022-01-15T12:11:39.000Z</time>
      </trkpt>
      <trkpt lat="43.91262" lon="7.49269">
        <ele>800.79998779297</ele>
        <time>2022-01-15T12:11:41.000Z</time>
      </trkpt>
      <trkpt lat="43.91269" lon="7.49267">
        <ele>801</ele>
        <time>2022-01-15T12:11:45.000Z</time>
      </trkpt>
      <trkpt lat="43.91277" lon="7.49266">
        <ele>802.20001220703</ele>
        <time>2022-01-15T12:11:51.000Z</time>
      </trkpt>
      <trkpt lat="43.91279" lon="7.49266">
        <ele>802.40002441406</ele>
        <time>2022-01-15T12:11:52.000Z</time>
      </trkpt>
      <trkpt lat="43.91289" lon="7.49265">
        <ele>803.20001220703</ele>
        <time>2022-01-15T12:11:59.000Z</time>
      </trkpt>
      <trkpt lat="43.9129" lon="7.49266">
        <ele>803.40002441406</ele>
        <time>2022-01-15T12:12:00.000Z</time>
      </trkpt>
      <trkpt lat="43.91296" lon="7.49267">
        <ele>803.59997558594</ele>
        <time>2022-01-15T12:12:04.000Z</time>
      </trkpt>
      <trkpt lat="43.913" lon="7.49266">
        <ele>803.79998779297</ele>
        <time>2022-01-15T12:12:07.000Z</time>
      </trkpt>
      <trkpt lat="43.91306" lon="7.49266">
        <ele>804.20001220703</ele>
        <time>2022-01-15T12:12:11.000Z</time>
      </trkpt>
      <trkpt lat="43.91312" lon="7.49269">
        <ele>805</ele>
        <time>2022-01-15T12:12:15.000Z</time>
      </trkpt>
      <trkpt lat="43.91312" lon="7.49269">
        <ele>805.40002441406</ele>
        <time>2022-01-15T12:12:17.000Z</time>
      </trkpt>
      <trkpt lat="43.91314" lon="7.49269">
        <ele>805.59997558594</ele>
        <time>2022-01-15T12:12:19.000Z</time>
      </trkpt>
      <trkpt lat="43.91323" lon="7.49273">
        <ele>806.20001220703</ele>
        <time>2022-01-15T12:12:24.000Z</time>
      </trkpt>
      <trkpt lat="43.91331" lon="7.49276">
        <ele>806.40002441406</ele>
        <time>2022-01-15T12:12:28.000Z</time>
      </trkpt>
      <trkpt lat="43.91336" lon="7.49279">
        <ele>806.59997558594</ele>
        <time>2022-01-15T12:12:31.000Z</time>
      </trkpt>
      <trkpt lat="43.91345" lon="7.49283">
        <ele>807.59997558594</ele>
        <time>2022-01-15T12:12:37.000Z</time>
      </trkpt>
      <trkpt lat="43.91348" lon="7.49284">
        <ele>807.79998779297</ele>
        <time>2022-01-15T12:12:39.000Z</time>
      </trkpt>
      <trkpt lat="43.91353" lon="7.49285">
        <ele>808.40002441406</ele>
        <time>2022-01-15T12:12:44.000Z</time>
      </trkpt>
      <trkpt lat="43.91354" lon="7.49285">
        <ele>808.59997558594</ele>
        <time>2022-01-15T12:12:45.000Z</time>
      </trkpt>
      <trkpt lat="43.91364" lon="7.49287">
        <ele>808.79998779297</ele>
        <time>2022-01-15T12:12:50.000Z</time>
      </trkpt>
      <trkpt lat="43.91374" lon="7.49284">
        <ele>809.59997558594</ele>
        <time>2022-01-15T12:12:55.000Z</time>
      </trkpt>
      <trkpt lat="43.91376" lon="7.49283">
        <ele>810</ele>
        <time>2022-01-15T12:12:57.000Z</time>
      </trkpt>
      <trkpt lat="43.91379" lon="7.49282">
        <ele>810.59997558594</ele>
        <time>2022-01-15T12:12:59.000Z</time>
      </trkpt>
      <trkpt lat="43.91387" lon="7.4928">
        <ele>811</ele>
        <time>2022-01-15T12:13:03.000Z</time>
      </trkpt>
      <trkpt lat="43.91399" lon="7.49276">
        <ele>811.59997558594</ele>
        <time>2022-01-15T12:13:10.000Z</time>
      </trkpt>
      <trkpt lat="43.91401" lon="7.49275">
        <ele>811.79998779297</ele>
        <time>2022-01-15T12:13:11.000Z</time>
      </trkpt>
      <trkpt lat="43.91413" lon="7.49269">
        <ele>812.59997558594</ele>
        <time>2022-01-15T12:13:17.000Z</time>
      </trkpt>
      <trkpt lat="43.91416" lon="7.49267">
        <ele>812.79998779297</ele>
        <time>2022-01-15T12:13:19.000Z</time>
      </trkpt>
      <trkpt lat="43.91426" lon="7.49262">
        <ele>813.79998779297</ele>
        <time>2022-01-15T12:13:25.000Z</time>
      </trkpt>
      <trkpt lat="43.91427" lon="7.49262">
        <ele>814</ele>
        <time>2022-01-15T12:13:26.000Z</time>
      </trkpt>
      <trkpt lat="43.91441" lon="7.49259">
        <ele>814.79998779297</ele>
        <time>2022-01-15T12:13:33.000Z</time>
      </trkpt>
      <trkpt lat="43.91456" lon="7.49256">
        <ele>814.59997558594</ele>
        <time>2022-01-15T12:13:39.000Z</time>
      </trkpt>
      <trkpt lat="43.91472" lon="7.49252">
        <ele>815.20001220703</ele>
        <time>2022-01-15T12:13:46.000Z</time>
      </trkpt>
      <trkpt lat="43.91494" lon="7.49254">
        <ele>816</ele>
        <time>2022-01-15T12:13:55.000Z</time>
      </trkpt>
      <trkpt lat="43.91504" lon="7.49256">
        <ele>816.20001220703</ele>
        <time>2022-01-15T12:13:59.000Z</time>
      </trkpt>
      <trkpt lat="43.91514" lon="7.49259">
        <ele>816.79998779297</ele>
        <time>2022-01-15T12:14:03.000Z</time>
      </trkpt>
      <trkpt lat="43.91536" lon="7.49263">
        <ele>816.79998779297</ele>
        <time>2022-01-15T12:14:11.000Z</time>
      </trkpt>
      <trkpt lat="43.91552" lon="7.49267">
        <ele>817.40002441406</ele>
        <time>2022-01-15T12:14:17.000Z</time>
      </trkpt>
      <trkpt lat="43.91564" lon="7.4927">
        <ele>818</ele>
        <time>2022-01-15T12:14:22.000Z</time>
      </trkpt>
      <trkpt lat="43.91569" lon="7.49272">
        <ele>818.40002441406</ele>
        <time>2022-01-15T12:14:24.000Z</time>
      </trkpt>
      <trkpt lat="43.91583" lon="7.49276">
        <ele>819.40002441406</ele>
        <time>2022-01-15T12:14:30.000Z</time>
      </trkpt>
      <trkpt lat="43.91586" lon="7.49277">
        <ele>819.59997558594</ele>
        <time>2022-01-15T12:14:31.000Z</time>
      </trkpt>
      <trkpt lat="43.91597" lon="7.49279">
        <ele>820.79998779297</ele>
        <time>2022-01-15T12:14:36.000Z</time>
      </trkpt>
      <trkpt lat="43.91605" lon="7.4928">
        <ele>821.79998779297</ele>
        <time>2022-01-15T12:14:39.000Z</time>
      </trkpt>
      <trkpt lat="43.91607" lon="7.4928">
        <ele>822.20001220703</ele>
        <time>2022-01-15T12:14:40.000Z</time>
      </trkpt>
      <trkpt lat="43.91616" lon="7.49278">
        <ele>823.40002441406</ele>
        <time>2022-01-15T12:14:44.000Z</time>
      </trkpt>
      <trkpt lat="43.91622" lon="7.49277">
        <ele>824.20001220703</ele>
        <time>2022-01-15T12:14:47.000Z</time>
      </trkpt>
      <trkpt lat="43.91624" lon="7.49276">
        <ele>824.59997558594</ele>
        <time>2022-01-15T12:14:48.000Z</time>
      </trkpt>
      <trkpt lat="43.91634" lon="7.49272">
        <ele>825.59997558594</ele>
        <time>2022-01-15T12:14:53.000Z</time>
      </trkpt>
      <trkpt lat="43.91636" lon="7.49271">
        <ele>826</ele>
        <time>2022-01-15T12:14:54.000Z</time>
      </trkpt>
      <trkpt lat="43.91645" lon="7.49269">
        <ele>827</ele>
        <time>2022-01-15T12:14:58.000Z</time>
      </trkpt>
      <trkpt lat="43.9165" lon="7.49267">
        <ele>828</ele>
        <time>2022-01-15T12:15:01.000Z</time>
      </trkpt>
      <trkpt lat="43.91652" lon="7.49267">
        <ele>828.20001220703</ele>
        <time>2022-01-15T12:15:02.000Z</time>
      </trkpt>
      <trkpt lat="43.91661" lon="7.49265">
        <ele>829.40002441406</ele>
        <time>2022-01-15T12:15:07.000Z</time>
      </trkpt>
      <trkpt lat="43.91663" lon="7.49265">
        <ele>829.59997558594</ele>
        <time>2022-01-15T12:15:08.000Z</time>
      </trkpt>
      <trkpt lat="43.91674" lon="7.49261">
        <ele>830.40002441406</ele>
        <time>2022-01-15T12:15:14.000Z</time>
      </trkpt>
      <trkpt lat="43.91676" lon="7.4926">
        <ele>830.59997558594</ele>
        <time>2022-01-15T12:15:15.000Z</time>
      </trkpt>
      <trkpt lat="43.91683" lon="7.49257">
        <ele>831.79998779297</ele>
        <time>2022-01-15T12:15:19.000Z</time>
      </trkpt>
      <trkpt lat="43.9169" lon="7.49254">
        <ele>832.20001220703</ele>
        <time>2022-01-15T12:15:22.000Z</time>
      </trkpt>
      <trkpt lat="43.91698" lon="7.49247">
        <ele>832.79998779297</ele>
        <time>2022-01-15T12:15:27.000Z</time>
      </trkpt>
      <trkpt lat="43.91701" lon="7.49244">
        <ele>833.40002441406</ele>
        <time>2022-01-15T12:15:29.000Z</time>
      </trkpt>
      <trkpt lat="43.91706" lon="7.49238">
        <ele>834.20001220703</ele>
        <time>2022-01-15T12:15:32.000Z</time>
      </trkpt>
      <trkpt lat="43.91713" lon="7.49231">
        <ele>835.20001220703</ele>
        <time>2022-01-15T12:15:36.000Z</time>
      </trkpt>
      <trkpt lat="43.91715" lon="7.49229">
        <ele>835.59997558594</ele>
        <time>2022-01-15T12:15:37.000Z</time>
      </trkpt>
      <trkpt lat="43.91719" lon="7.49224">
        <ele>836.40002441406</ele>
        <time>2022-01-15T12:15:40.000Z</time>
      </trkpt>
      <trkpt lat="43.91726" lon="7.49217">
        <ele>837.20001220703</ele>
        <time>2022-01-15T12:15:44.000Z</time>
      </trkpt>
      <trkpt lat="43.91728" lon="7.49215">
        <ele>837.40002441406</ele>
        <time>2022-01-15T12:15:45.000Z</time>
      </trkpt>
      <trkpt lat="43.91735" lon="7.49209">
        <ele>838.59997558594</ele>
        <time>2022-01-15T12:15:49.000Z</time>
      </trkpt>
      <trkpt lat="43.9174" lon="7.49206">
        <ele>839.20001220703</ele>
        <time>2022-01-15T12:15:52.000Z</time>
      </trkpt>
      <trkpt lat="43.91742" lon="7.49206">
        <ele>839.59997558594</ele>
        <time>2022-01-15T12:15:53.000Z</time>
      </trkpt>
      <trkpt lat="43.91752" lon="7.49201">
        <ele>840.79998779297</ele>
        <time>2022-01-15T12:15:58.000Z</time>
      </trkpt>
      <trkpt lat="43.91754" lon="7.49201">
        <ele>840.79998779297</ele>
        <time>2022-01-15T12:15:59.000Z</time>
      </trkpt>
      <trkpt lat="43.91762" lon="7.49201">
        <ele>841.79998779297</ele>
        <time>2022-01-15T12:16:03.000Z</time>
      </trkpt>
      <trkpt lat="43.91768" lon="7.49201">
        <ele>842.40002441406</ele>
        <time>2022-01-15T12:16:06.000Z</time>
      </trkpt>
      <trkpt lat="43.91771" lon="7.492">
        <ele>842.79998779297</ele>
        <time>2022-01-15T12:16:08.000Z</time>
      </trkpt>
      <trkpt lat="43.91778" lon="7.49199">
        <ele>843.59997558594</ele>
        <time>2022-01-15T12:16:12.000Z</time>
      </trkpt>
      <trkpt lat="43.9178" lon="7.49198">
        <ele>843.79998779297</ele>
        <time>2022-01-15T12:16:13.000Z</time>
      </trkpt>
      <trkpt lat="43.91788" lon="7.49196">
        <ele>845</ele>
        <time>2022-01-15T12:16:18.000Z</time>
      </trkpt>
      <trkpt lat="43.9179" lon="7.49196">
        <ele>845.20001220703</ele>
        <time>2022-01-15T12:16:19.000Z</time>
      </trkpt>
      <trkpt lat="43.91795" lon="7.49193">
        <ele>846</ele>
        <time>2022-01-15T12:16:23.000Z</time>
      </trkpt>
      <trkpt lat="43.91802" lon="7.4919">
        <ele>847</ele>
        <time>2022-01-15T12:16:27.000Z</time>
      </trkpt>
      <trkpt lat="43.91803" lon="7.4919">
        <ele>847.40002441406</ele>
        <time>2022-01-15T12:16:28.000Z</time>
      </trkpt>
      <trkpt lat="43.91809" lon="7.49187">
        <ele>848.20001220703</ele>
        <time>2022-01-15T12:16:32.000Z</time>
      </trkpt>
      <trkpt lat="43.91812" lon="7.49188">
        <ele>848.79998779297</ele>
        <time>2022-01-15T12:16:34.000Z</time>
      </trkpt>
      <trkpt lat="43.91817" lon="7.49187">
        <ele>849.20001220703</ele>
        <time>2022-01-15T12:16:37.000Z</time>
      </trkpt>
      <trkpt lat="43.91825" lon="7.49187">
        <ele>850.20001220703</ele>
        <time>2022-01-15T12:16:42.000Z</time>
      </trkpt>
      <trkpt lat="43.91827" lon="7.49188">
        <ele>850.40002441406</ele>
        <time>2022-01-15T12:16:43.000Z</time>
      </trkpt>
      <trkpt lat="43.91836" lon="7.49189">
        <ele>851.40002441406</ele>
        <time>2022-01-15T12:16:49.000Z</time>
      </trkpt>
      <trkpt lat="43.91837" lon="7.4919">
        <ele>851.59997558594</ele>
        <time>2022-01-15T12:16:50.000Z</time>
      </trkpt>
      <trkpt lat="43.91847" lon="7.49192">
        <ele>852.79998779297</ele>
        <time>2022-01-15T12:16:57.000Z</time>
      </trkpt>
      <trkpt lat="43.91854" lon="7.49194">
        <ele>853.79998779297</ele>
        <time>2022-01-15T12:17:03.000Z</time>
      </trkpt>
      <trkpt lat="43.91856" lon="7.49195">
        <ele>854</ele>
        <time>2022-01-15T12:17:05.000Z</time>
      </trkpt>
      <trkpt lat="43.91861" lon="7.49198">
        <ele>855</ele>
        <time>2022-01-15T12:17:09.000Z</time>
      </trkpt>
      <trkpt lat="43.91862" lon="7.492">
        <ele>855.20001220703</ele>
        <time>2022-01-15T12:17:10.000Z</time>
      </trkpt>
      <trkpt lat="43.91863" lon="7.49203">
        <ele>855.40002441406</ele>
        <time>2022-01-15T12:17:12.000Z</time>
      </trkpt>
      <trkpt lat="43.91867" lon="7.49207">
        <ele>855.79998779297</ele>
        <time>2022-01-15T12:17:16.000Z</time>
      </trkpt>
      <trkpt lat="43.91868" lon="7.49209">
        <ele>856</ele>
        <time>2022-01-15T12:17:18.000Z</time>
      </trkpt>
      <trkpt lat="43.91869" lon="7.4921">
        <ele>856.20001220703</ele>
        <time>2022-01-15T12:17:19.000Z</time>
      </trkpt>
      <trkpt lat="43.91868" lon="7.49211">
        <ele>856.40002441406</ele>
        <time>2022-01-15T12:17:23.000Z</time>
      </trkpt>
      <trkpt lat="43.91867" lon="7.49211">
        <ele>856.40002441406</ele>
        <time>2022-01-15T12:17:24.000Z</time>
      </trkpt>
      <trkpt lat="43.91868" lon="7.4921">
        <ele>856.40002441406</ele>
        <time>2022-01-15T12:17:28.000Z</time>
      </trkpt>
      <trkpt lat="43.91868" lon="7.4921">
        <ele>856.20001220703</ele>
        <time>2022-01-15T12:17:34.000Z</time>
      </trkpt>
      <trkpt lat="43.91868" lon="7.4921">
        <ele>855.40002441406</ele>
        <time>2022-01-15T12:17:42.000Z</time>
      </trkpt>
      <trkpt lat="43.91868" lon="7.49209">
        <ele>855.59997558594</ele>
        <time>2022-01-15T12:17:53.000Z</time>
      </trkpt>
      <trkpt lat="43.91867" lon="7.49209">
        <ele>856.40002441406</ele>
        <time>2022-01-15T12:17:59.000Z</time>
      </trkpt>
      <trkpt lat="43.91868" lon="7.49209">
        <ele>856.79998779297</ele>
        <time>2022-01-15T12:18:15.000Z</time>
      </trkpt>
      <trkpt lat="43.91868" lon="7.49209">
        <ele>856.79998779297</ele>
        <time>2022-01-15T12:18:34.000Z</time>
      </trkpt>
      <trkpt lat="43.91867" lon="7.49208">
        <ele>856.79998779297</ele>
        <time>2022-01-15T12:18:46.000Z</time>
      </trkpt>
      <trkpt lat="43.91866" lon="7.49209">
        <ele>856.79998779297</ele>
        <time>2022-01-15T12:18:54.000Z</time>
      </trkpt>
      <trkpt lat="43.91866" lon="7.49209">
        <ele>856.79998779297</ele>
        <time>2022-01-15T12:19:01.000Z</time>
      </trkpt>
      <trkpt lat="43.91867" lon="7.49209">
        <ele>856.79998779297</ele>
        <time>2022-01-15T12:19:15.000Z</time>
      </trkpt>
      <trkpt lat="43.91867" lon="7.49209">
        <ele>856.79998779297</ele>
        <time>2022-01-15T12:19:36.000Z</time>
      </trkpt>
      <trkpt lat="43.91867" lon="7.49209">
        <ele>857</ele>
        <time>2022-01-15T12:19:49.000Z</time>
      </trkpt>
      <trkpt lat="43.91867" lon="7.49209">
        <ele>857</ele>
        <time>2022-01-15T12:19:51.000Z</time>
      </trkpt>
      <trkpt lat="43.91868" lon="7.4921">
        <ele>856.59997558594</ele>
        <time>2022-01-15T12:20:18.000Z</time>
      </trkpt>
      <trkpt lat="43.91868" lon="7.4921">
        <ele>856.59997558594</ele>
        <time>2022-01-15T12:20:40.000Z</time>
      </trkpt>
      <trkpt lat="43.91868" lon="7.4921">
        <ele>856.79998779297</ele>
        <time>2022-01-15T12:21:01.000Z</time>
      </trkpt>
      <trkpt lat="43.91868" lon="7.4921">
        <ele>856.59997558594</ele>
        <time>2022-01-15T12:21:10.000Z</time>
      </trkpt>
      <trkpt lat="43.91867" lon="7.49211">
        <ele>856.79998779297</ele>
        <time>2022-01-15T12:21:17.000Z</time>
      </trkpt>
      <trkpt lat="43.91866" lon="7.49212">
        <ele>856.59997558594</ele>
        <time>2022-01-15T12:21:25.000Z</time>
      </trkpt>
      <trkpt lat="43.91863" lon="7.49219">
        <ele>856.59997558594</ele>
        <time>2022-01-15T12:21:30.000Z</time>
      </trkpt>
      <trkpt lat="43.91863" lon="7.4922">
        <ele>856.59997558594</ele>
        <time>2022-01-15T12:21:31.000Z</time>
      </trkpt>
      <trkpt lat="43.91863" lon="7.49221">
        <ele>856</ele>
        <time>2022-01-15T12:21:38.000Z</time>
      </trkpt>
      <trkpt lat="43.91863" lon="7.49221">
        <ele>856</ele>
        <time>2022-01-15T12:21:48.000Z</time>
      </trkpt>
      <trkpt lat="43.91863" lon="7.4922">
        <ele>856</ele>
        <time>2022-01-15T12:22:00.000Z</time>
      </trkpt>
      <trkpt lat="43.91862" lon="7.49229">
        <ele>855.79998779297</ele>
        <time>2022-01-15T12:22:14.000Z</time>
      </trkpt>
      <trkpt lat="43.91861" lon="7.49236">
        <ele>855.59997558594</ele>
        <time>2022-01-15T12:22:15.000Z</time>
      </trkpt>
      <trkpt lat="43.91858" lon="7.49245">
        <ele>854.20001220703</ele>
        <time>2022-01-15T12:22:17.000Z</time>
      </trkpt>
      <trkpt lat="43.91857" lon="7.49248">
        <ele>853</ele>
        <time>2022-01-15T12:22:18.000Z</time>
      </trkpt>
      <trkpt lat="43.91856" lon="7.49255">
        <ele>851.59997558594</ele>
        <time>2022-01-15T12:22:20.000Z</time>
      </trkpt>
      <trkpt lat="43.91855" lon="7.49259">
        <ele>850.59997558594</ele>
        <time>2022-01-15T12:22:21.000Z</time>
      </trkpt>
      <trkpt lat="43.91855" lon="7.49261">
        <ele>849.59997558594</ele>
        <time>2022-01-15T12:22:22.000Z</time>
      </trkpt>
      <trkpt lat="43.91855" lon="7.4926">
        <ele>848.40002441406</ele>
        <time>2022-01-15T12:22:24.000Z</time>
      </trkpt>
      <trkpt lat="43.91855" lon="7.49261">
        <ele>847.40002441406</ele>
        <time>2022-01-15T12:22:25.000Z</time>
      </trkpt>
      <trkpt lat="43.91855" lon="7.49261">
        <ele>846.79998779297</ele>
        <time>2022-01-15T12:22:26.000Z</time>
      </trkpt>
      <trkpt lat="43.91855" lon="7.49261">
        <ele>846</ele>
        <time>2022-01-15T12:22:36.000Z</time>
      </trkpt>
      <trkpt lat="43.91857" lon="7.49267">
        <ele>846</ele>
        <time>2022-01-15T12:22:43.000Z</time>
      </trkpt>
      <trkpt lat="43.91857" lon="7.4927">
        <ele>845.79998779297</ele>
        <time>2022-01-15T12:22:44.000Z</time>
      </trkpt>
      <trkpt lat="43.91861" lon="7.49281">
        <ele>845.59997558594</ele>
        <time>2022-01-15T12:22:46.000Z</time>
      </trkpt>
      <trkpt lat="43.91862" lon="7.49286">
        <ele>845</ele>
        <time>2022-01-15T12:22:47.000Z</time>
      </trkpt>
      <trkpt lat="43.91862" lon="7.49291">
        <ele>844.40002441406</ele>
        <time>2022-01-15T12:22:48.000Z</time>
      </trkpt>
      <trkpt lat="43.91861" lon="7.49296">
        <ele>843.40002441406</ele>
        <time>2022-01-15T12:22:49.000Z</time>
      </trkpt>
      <trkpt lat="43.91861" lon="7.49301">
        <ele>842.20001220703</ele>
        <time>2022-01-15T12:22:50.000Z</time>
      </trkpt>
      <trkpt lat="43.91859" lon="7.49314">
        <ele>840.40002441406</ele>
        <time>2022-01-15T12:22:52.000Z</time>
      </trkpt>
      <trkpt lat="43.9186" lon="7.49321">
        <ele>839.40002441406</ele>
        <time>2022-01-15T12:22:53.000Z</time>
      </trkpt>
      <trkpt lat="43.91861" lon="7.49328">
        <ele>838.20001220703</ele>
        <time>2022-01-15T12:22:54.000Z</time>
      </trkpt>
      <trkpt lat="43.91862" lon="7.49333">
        <ele>836.40002441406</ele>
        <time>2022-01-15T12:22:55.000Z</time>
      </trkpt>
      <trkpt lat="43.91864" lon="7.49339">
        <ele>835</ele>
        <time>2022-01-15T12:22:56.000Z</time>
      </trkpt>
      <trkpt lat="43.91866" lon="7.49346">
        <ele>833.79998779297</ele>
        <time>2022-01-15T12:22:58.000Z</time>
      </trkpt>
      <trkpt lat="43.91866" lon="7.4935">
        <ele>832.59997558594</ele>
        <time>2022-01-15T12:22:59.000Z</time>
      </trkpt>
      <trkpt lat="43.9187" lon="7.4937">
        <ele>831</ele>
        <time>2022-01-15T12:23:03.000Z</time>
      </trkpt>
      <trkpt lat="43.91872" lon="7.49381">
        <ele>829.79998779297</ele>
        <time>2022-01-15T12:23:05.000Z</time>
      </trkpt>
      <trkpt lat="43.91873" lon="7.49392">
        <ele>828.40002441406</ele>
        <time>2022-01-15T12:23:06.000Z</time>
      </trkpt>
      <trkpt lat="43.91874" lon="7.49401">
        <ele>827.59997558594</ele>
        <time>2022-01-15T12:23:07.000Z</time>
      </trkpt>
      <trkpt lat="43.91874" lon="7.4941">
        <ele>826.40002441406</ele>
        <time>2022-01-15T12:23:08.000Z</time>
      </trkpt>
      <trkpt lat="43.91873" lon="7.49425">
        <ele>825</ele>
        <time>2022-01-15T12:23:10.000Z</time>
      </trkpt>
      <trkpt lat="43.91873" lon="7.4943">
        <ele>824.20001220703</ele>
        <time>2022-01-15T12:23:11.000Z</time>
      </trkpt>
      <trkpt lat="43.91874" lon="7.49436">
        <ele>823</ele>
        <time>2022-01-15T12:23:12.000Z</time>
      </trkpt>
      <trkpt lat="43.91877" lon="7.49453">
        <ele>821.40002441406</ele>
        <time>2022-01-15T12:23:15.000Z</time>
      </trkpt>
      <trkpt lat="43.91877" lon="7.49459">
        <ele>820.20001220703</ele>
        <time>2022-01-15T12:23:16.000Z</time>
      </trkpt>
      <trkpt lat="43.91875" lon="7.49468">
        <ele>818</ele>
        <time>2022-01-15T12:23:18.000Z</time>
      </trkpt>
      <trkpt lat="43.91874" lon="7.49473">
        <ele>816.20001220703</ele>
        <time>2022-01-15T12:23:19.000Z</time>
      </trkpt>
      <trkpt lat="43.91874" lon="7.49478">
        <ele>814.59997558594</ele>
        <time>2022-01-15T12:23:20.000Z</time>
      </trkpt>
      <trkpt lat="43.91873" lon="7.49484">
        <ele>813</ele>
        <time>2022-01-15T12:23:21.000Z</time>
      </trkpt>
      <trkpt lat="43.9187" lon="7.49488">
        <ele>811.40002441406</ele>
        <time>2022-01-15T12:23:22.000Z</time>
      </trkpt>
      <trkpt lat="43.91867" lon="7.4949">
        <ele>809</ele>
        <time>2022-01-15T12:23:23.000Z</time>
      </trkpt>
      <trkpt lat="43.91863" lon="7.49492">
        <ele>807.59997558594</ele>
        <time>2022-01-15T12:23:24.000Z</time>
      </trkpt>
      <trkpt lat="43.91858" lon="7.49494">
        <ele>805.79998779297</ele>
        <time>2022-01-15T12:23:25.000Z</time>
      </trkpt>
      <trkpt lat="43.91854" lon="7.49495">
        <ele>803.79998779297</ele>
        <time>2022-01-15T12:23:26.000Z</time>
      </trkpt>
      <trkpt lat="43.91851" lon="7.49497">
        <ele>802.40002441406</ele>
        <time>2022-01-15T12:23:27.000Z</time>
      </trkpt>
      <trkpt lat="43.91847" lon="7.49499">
        <ele>801.20001220703</ele>
        <time>2022-01-15T12:23:28.000Z</time>
      </trkpt>
      <trkpt lat="43.91844" lon="7.495">
        <ele>799.59997558594</ele>
        <time>2022-01-15T12:23:29.000Z</time>
      </trkpt>
      <trkpt lat="43.91843" lon="7.495">
        <ele>798</ele>
        <time>2022-01-15T12:23:30.000Z</time>
      </trkpt>
      <trkpt lat="43.91841" lon="7.495">
        <ele>796.59997558594</ele>
        <time>2022-01-15T12:23:31.000Z</time>
      </trkpt>
      <trkpt lat="43.91837" lon="7.49499">
        <ele>794.40002441406</ele>
        <time>2022-01-15T12:23:33.000Z</time>
      </trkpt>
      <trkpt lat="43.91833" lon="7.49498">
        <ele>793</ele>
        <time>2022-01-15T12:23:35.000Z</time>
      </trkpt>
      <trkpt lat="43.91831" lon="7.49498">
        <ele>792.79998779297</ele>
        <time>2022-01-15T12:23:36.000Z</time>
      </trkpt>
      <trkpt lat="43.91829" lon="7.49499">
        <ele>792.40002441406</ele>
        <time>2022-01-15T12:23:37.000Z</time>
      </trkpt>
      <trkpt lat="43.91829" lon="7.49501">
        <ele>791.40002441406</ele>
        <time>2022-01-15T12:23:38.000Z</time>
      </trkpt>
      <trkpt lat="43.91829" lon="7.49504">
        <ele>790.40002441406</ele>
        <time>2022-01-15T12:23:39.000Z</time>
      </trkpt>
      <trkpt lat="43.91828" lon="7.49508">
        <ele>789.40002441406</ele>
        <time>2022-01-15T12:23:40.000Z</time>
      </trkpt>
      <trkpt lat="43.91827" lon="7.49512">
        <ele>787.79998779297</ele>
        <time>2022-01-15T12:23:41.000Z</time>
      </trkpt>
      <trkpt lat="43.91824" lon="7.49518">
        <ele>785.79998779297</ele>
        <time>2022-01-15T12:23:43.000Z</time>
      </trkpt>
      <trkpt lat="43.91823" lon="7.49528">
        <ele>784.40002441406</ele>
        <time>2022-01-15T12:23:45.000Z</time>
      </trkpt>
      <trkpt lat="43.91823" lon="7.49533">
        <ele>783.40002441406</ele>
        <time>2022-01-15T12:23:46.000Z</time>
      </trkpt>
      <trkpt lat="43.91822" lon="7.49539">
        <ele>781.59997558594</ele>
        <time>2022-01-15T12:23:47.000Z</time>
      </trkpt>
      <trkpt lat="43.91822" lon="7.49544">
        <ele>780.59997558594</ele>
        <time>2022-01-15T12:23:48.000Z</time>
      </trkpt>
      <trkpt lat="43.91822" lon="7.49548">
        <ele>779</ele>
        <time>2022-01-15T12:23:49.000Z</time>
      </trkpt>
      <trkpt lat="43.91821" lon="7.49552">
        <ele>777.59997558594</ele>
        <time>2022-01-15T12:23:50.000Z</time>
      </trkpt>
      <trkpt lat="43.91821" lon="7.49558">
        <ele>776.20001220703</ele>
        <time>2022-01-15T12:23:51.000Z</time>
      </trkpt>
      <trkpt lat="43.91822" lon="7.49569">
        <ele>774</ele>
        <time>2022-01-15T12:23:53.000Z</time>
      </trkpt>
      <trkpt lat="43.91824" lon="7.49574">
        <ele>773.79998779297</ele>
        <time>2022-01-15T12:23:54.000Z</time>
      </trkpt>
      <trkpt lat="43.91827" lon="7.49578">
        <ele>772.79998779297</ele>
        <time>2022-01-15T12:23:55.000Z</time>
      </trkpt>
      <trkpt lat="43.91833" lon="7.49588">
        <ele>771</ele>
        <time>2022-01-15T12:23:57.000Z</time>
      </trkpt>
      <trkpt lat="43.91835" lon="7.49592">
        <ele>770</ele>
        <time>2022-01-15T12:23:58.000Z</time>
      </trkpt>
      <trkpt lat="43.91836" lon="7.49597">
        <ele>768.59997558594</ele>
        <time>2022-01-15T12:23:59.000Z</time>
      </trkpt>
      <trkpt lat="43.91839" lon="7.49609">
        <ele>766.79998779297</ele>
        <time>2022-01-15T12:24:01.000Z</time>
      </trkpt>
      <trkpt lat="43.9184" lon="7.49616">
        <ele>765.79998779297</ele>
        <time>2022-01-15T12:24:02.000Z</time>
      </trkpt>
      <trkpt lat="43.91839" lon="7.49623">
        <ele>764.79998779297</ele>
        <time>2022-01-15T12:24:03.000Z</time>
      </trkpt>
      <trkpt lat="43.9184" lon="7.49628">
        <ele>763.40002441406</ele>
        <time>2022-01-15T12:24:04.000Z</time>
      </trkpt>
      <trkpt lat="43.91843" lon="7.49632">
        <ele>762</ele>
        <time>2022-01-15T12:24:05.000Z</time>
      </trkpt>
      <trkpt lat="43.91847" lon="7.49635">
        <ele>760.40002441406</ele>
        <time>2022-01-15T12:24:06.000Z</time>
      </trkpt>
      <trkpt lat="43.9185" lon="7.49639">
        <ele>759</ele>
        <time>2022-01-15T12:24:07.000Z</time>
      </trkpt>
      <trkpt lat="43.91853" lon="7.49644">
        <ele>757.79998779297</ele>
        <time>2022-01-15T12:24:08.000Z</time>
      </trkpt>
      <trkpt lat="43.91854" lon="7.49652">
        <ele>757</ele>
        <time>2022-01-15T12:24:09.000Z</time>
      </trkpt>
      <trkpt lat="43.91856" lon="7.4966">
        <ele>756</ele>
        <time>2022-01-15T12:24:10.000Z</time>
      </trkpt>
      <trkpt lat="43.91861" lon="7.49672">
        <ele>754.79998779297</ele>
        <time>2022-01-15T12:24:12.000Z</time>
      </trkpt>
      <trkpt lat="43.91861" lon="7.49678">
        <ele>754</ele>
        <time>2022-01-15T12:24:13.000Z</time>
      </trkpt>
      <trkpt lat="43.9186" lon="7.49683">
        <ele>753.20001220703</ele>
        <time>2022-01-15T12:24:14.000Z</time>
      </trkpt>
      <trkpt lat="43.9186" lon="7.49697">
        <ele>751.40002441406</ele>
        <time>2022-01-15T12:24:16.000Z</time>
      </trkpt>
      <trkpt lat="43.91863" lon="7.49709">
        <ele>750</ele>
        <time>2022-01-15T12:24:18.000Z</time>
      </trkpt>
      <trkpt lat="43.91865" lon="7.49712">
        <ele>749</ele>
        <time>2022-01-15T12:24:19.000Z</time>
      </trkpt>
      <trkpt lat="43.91867" lon="7.49717">
        <ele>748</ele>
        <time>2022-01-15T12:24:20.000Z</time>
      </trkpt>
      <trkpt lat="43.91867" lon="7.49721">
        <ele>747</ele>
        <time>2022-01-15T12:24:21.000Z</time>
      </trkpt>
      <trkpt lat="43.91868" lon="7.49724">
        <ele>746</ele>
        <time>2022-01-15T12:24:22.000Z</time>
      </trkpt>
      <trkpt lat="43.91869" lon="7.49727">
        <ele>745.20001220703</ele>
        <time>2022-01-15T12:24:23.000Z</time>
      </trkpt>
      <trkpt lat="43.91871" lon="7.49729">
        <ele>744.20001220703</ele>
        <time>2022-01-15T12:24:24.000Z</time>
      </trkpt>
      <trkpt lat="43.91871" lon="7.4973">
        <ele>743.59997558594</ele>
        <time>2022-01-15T12:24:25.000Z</time>
      </trkpt>
      <trkpt lat="43.91871" lon="7.49729">
        <ele>743.20001220703</ele>
        <time>2022-01-15T12:24:26.000Z</time>
      </trkpt>
      <trkpt lat="43.91871" lon="7.49729">
        <ele>742.79998779297</ele>
        <time>2022-01-15T12:24:27.000Z</time>
      </trkpt>
      <trkpt lat="43.9187" lon="7.49729">
        <ele>742.40002441406</ele>
        <time>2022-01-15T12:24:37.000Z</time>
      </trkpt>
      <trkpt lat="43.91869" lon="7.49728">
        <ele>742.40002441406</ele>
        <time>2022-01-15T12:24:57.000Z</time>
      </trkpt>
      <trkpt lat="43.91873" lon="7.49732">
        <ele>742.40002441406</ele>
        <time>2022-01-15T12:25:12.000Z</time>
      </trkpt>
      <trkpt lat="43.91876" lon="7.49737">
        <ele>742</ele>
        <time>2022-01-15T12:25:14.000Z</time>
      </trkpt>
      <trkpt lat="43.9188" lon="7.49744">
        <ele>740.79998779297</ele>
        <time>2022-01-15T12:25:16.000Z</time>
      </trkpt>
      <trkpt lat="43.91885" lon="7.49749">
        <ele>739.20001220703</ele>
        <time>2022-01-15T12:25:18.000Z</time>
      </trkpt>
      <trkpt lat="43.91889" lon="7.49751">
        <ele>738.20001220703</ele>
        <time>2022-01-15T12:25:19.000Z</time>
      </trkpt>
      <trkpt lat="43.91892" lon="7.49755">
        <ele>737.59997558594</ele>
        <time>2022-01-15T12:25:20.000Z</time>
      </trkpt>
      <trkpt lat="43.91897" lon="7.49762">
        <ele>735.79998779297</ele>
        <time>2022-01-15T12:25:22.000Z</time>
      </trkpt>
      <trkpt lat="43.91901" lon="7.49767">
        <ele>734.59997558594</ele>
        <time>2022-01-15T12:25:24.000Z</time>
      </trkpt>
      <trkpt lat="43.91905" lon="7.49769">
        <ele>733.59997558594</ele>
        <time>2022-01-15T12:25:25.000Z</time>
      </trkpt>
      <trkpt lat="43.91908" lon="7.49771">
        <ele>732.40002441406</ele>
        <time>2022-01-15T12:25:26.000Z</time>
      </trkpt>
      <trkpt lat="43.91909" lon="7.49774">
        <ele>731.20001220703</ele>
        <time>2022-01-15T12:25:27.000Z</time>
      </trkpt>
      <trkpt lat="43.91909" lon="7.49779">
        <ele>729.40002441406</ele>
        <time>2022-01-15T12:25:28.000Z</time>
      </trkpt>
      <trkpt lat="43.91907" lon="7.49782">
        <ele>728</ele>
        <time>2022-01-15T12:25:29.000Z</time>
      </trkpt>
      <trkpt lat="43.91905" lon="7.49786">
        <ele>726.59997558594</ele>
        <time>2022-01-15T12:25:30.000Z</time>
      </trkpt>
      <trkpt lat="43.91904" lon="7.49791">
        <ele>725.59997558594</ele>
        <time>2022-01-15T12:25:31.000Z</time>
      </trkpt>
      <trkpt lat="43.91902" lon="7.49794">
        <ele>724.59997558594</ele>
        <time>2022-01-15T12:25:32.000Z</time>
      </trkpt>
      <trkpt lat="43.919" lon="7.49797">
        <ele>723.20001220703</ele>
        <time>2022-01-15T12:25:33.000Z</time>
      </trkpt>
      <trkpt lat="43.91898" lon="7.49801">
        <ele>722</ele>
        <time>2022-01-15T12:25:34.000Z</time>
      </trkpt>
      <trkpt lat="43.91899" lon="7.49804">
        <ele>720.59997558594</ele>
        <time>2022-01-15T12:25:35.000Z</time>
      </trkpt>
      <trkpt lat="43.91901" lon="7.49805">
        <ele>719.40002441406</ele>
        <time>2022-01-15T12:25:36.000Z</time>
      </trkpt>
      <trkpt lat="43.91904" lon="7.49808">
        <ele>718.20001220703</ele>
        <time>2022-01-15T12:25:37.000Z</time>
      </trkpt>
      <trkpt lat="43.91906" lon="7.49817">
        <ele>717.40002441406</ele>
        <time>2022-01-15T12:25:39.000Z</time>
      </trkpt>
      <trkpt lat="43.91907" lon="7.49822">
        <ele>716.79998779297</ele>
        <time>2022-01-15T12:25:40.000Z</time>
      </trkpt>
      <trkpt lat="43.9191" lon="7.49829">
        <ele>715.40002441406</ele>
        <time>2022-01-15T12:25:42.000Z</time>
      </trkpt>
      <trkpt lat="43.91911" lon="7.49831">
        <ele>714.20001220703</ele>
        <time>2022-01-15T12:25:43.000Z</time>
      </trkpt>
      <trkpt lat="43.91913" lon="7.49832">
        <ele>713</ele>
        <time>2022-01-15T12:25:44.000Z</time>
      </trkpt>
      <trkpt lat="43.91915" lon="7.49834">
        <ele>711.59997558594</ele>
        <time>2022-01-15T12:25:45.000Z</time>
      </trkpt>
      <trkpt lat="43.91917" lon="7.49837">
        <ele>709.79998779297</ele>
        <time>2022-01-15T12:25:46.000Z</time>
      </trkpt>
      <trkpt lat="43.91919" lon="7.49841">
        <ele>708.40002441406</ele>
        <time>2022-01-15T12:25:47.000Z</time>
      </trkpt>
      <trkpt lat="43.91921" lon="7.49844">
        <ele>707.79998779297</ele>
        <time>2022-01-15T12:25:48.000Z</time>
      </trkpt>
      <trkpt lat="43.91923" lon="7.49847">
        <ele>706.20001220703</ele>
        <time>2022-01-15T12:25:49.000Z</time>
      </trkpt>
      <trkpt lat="43.91926" lon="7.49851">
        <ele>704.40002441406</ele>
        <time>2022-01-15T12:25:50.000Z</time>
      </trkpt>
      <trkpt lat="43.91927" lon="7.49856">
        <ele>703</ele>
        <time>2022-01-15T12:25:51.000Z</time>
      </trkpt>
      <trkpt lat="43.91928" lon="7.49859">
        <ele>701.79998779297</ele>
        <time>2022-01-15T12:25:52.000Z</time>
      </trkpt>
      <trkpt lat="43.91928" lon="7.49863">
        <ele>700.20001220703</ele>
        <time>2022-01-15T12:25:53.000Z</time>
      </trkpt>
      <trkpt lat="43.91923" lon="7.49867">
        <ele>698.59997558594</ele>
        <time>2022-01-15T12:25:55.000Z</time>
      </trkpt>
      <trkpt lat="43.9192" lon="7.49869">
        <ele>697.79998779297</ele>
        <time>2022-01-15T12:25:56.000Z</time>
      </trkpt>
      <trkpt lat="43.91917" lon="7.49872">
        <ele>696.79998779297</ele>
        <time>2022-01-15T12:25:57.000Z</time>
      </trkpt>
      <trkpt lat="43.91913" lon="7.49881">
        <ele>695.59997558594</ele>
        <time>2022-01-15T12:25:59.000Z</time>
      </trkpt>
      <trkpt lat="43.91908" lon="7.4989">
        <ele>694</ele>
        <time>2022-01-15T12:26:01.000Z</time>
      </trkpt>
      <trkpt lat="43.91905" lon="7.49893">
        <ele>692.79998779297</ele>
        <time>2022-01-15T12:26:02.000Z</time>
      </trkpt>
      <trkpt lat="43.91902" lon="7.49895">
        <ele>691.40002441406</ele>
        <time>2022-01-15T12:26:03.000Z</time>
      </trkpt>
      <trkpt lat="43.919" lon="7.49898">
        <ele>689.79998779297</ele>
        <time>2022-01-15T12:26:04.000Z</time>
      </trkpt>
      <trkpt lat="43.91898" lon="7.499">
        <ele>688.59997558594</ele>
        <time>2022-01-15T12:26:05.000Z</time>
      </trkpt>
      <trkpt lat="43.91897" lon="7.499">
        <ele>687.79998779297</ele>
        <time>2022-01-15T12:26:06.000Z</time>
      </trkpt>
      <trkpt lat="43.91898" lon="7.499">
        <ele>687</ele>
        <time>2022-01-15T12:26:07.000Z</time>
      </trkpt>
      <trkpt lat="43.91897" lon="7.499">
        <ele>685.79998779297</ele>
        <time>2022-01-15T12:26:10.000Z</time>
      </trkpt>
      <trkpt lat="43.91897" lon="7.49899">
        <ele>685.59997558594</ele>
        <time>2022-01-15T12:26:22.000Z</time>
      </trkpt>
      <trkpt lat="43.91897" lon="7.49898">
        <ele>685.59997558594</ele>
        <time>2022-01-15T12:26:45.000Z</time>
      </trkpt>
      <trkpt lat="43.91897" lon="7.49898">
        <ele>686</ele>
        <time>2022-01-15T12:26:55.000Z</time>
      </trkpt>
      <trkpt lat="43.91897" lon="7.49898">
        <ele>685.40002441406</ele>
        <time>2022-01-15T12:27:08.000Z</time>
      </trkpt>
      <trkpt lat="43.91897" lon="7.49898">
        <ele>685.40002441406</ele>
        <time>2022-01-15T12:27:17.000Z</time>
      </trkpt>
      <trkpt lat="43.91897" lon="7.49899">
        <ele>685.20001220703</ele>
        <time>2022-01-15T12:27:23.000Z</time>
      </trkpt>
      <trkpt lat="43.91897" lon="7.49899">
        <ele>684.59997558594</ele>
        <time>2022-01-15T12:27:28.000Z</time>
      </trkpt>
      <trkpt lat="43.91897" lon="7.49899">
        <ele>684.59997558594</ele>
        <time>2022-01-15T12:27:35.000Z</time>
      </trkpt>
      <trkpt lat="43.91897" lon="7.49899">
        <ele>685.40002441406</ele>
        <time>2022-01-15T12:27:46.000Z</time>
      </trkpt>
      <trkpt lat="43.91897" lon="7.49899">
        <ele>685.40002441406</ele>
        <time>2022-01-15T12:27:48.000Z</time>
      </trkpt>
      <trkpt lat="43.91897" lon="7.49899">
        <ele>685.40002441406</ele>
        <time>2022-01-15T12:27:50.000Z</time>
      </trkpt>
      <trkpt lat="43.91896" lon="7.499">
        <ele>685.59997558594</ele>
        <time>2022-01-15T12:27:57.000Z</time>
      </trkpt>
      <trkpt lat="43.91896" lon="7.499">
        <ele>685.40002441406</ele>
        <time>2022-01-15T12:28:05.000Z</time>
      </trkpt>
      <trkpt lat="43.91895" lon="7.499">
        <ele>685.40002441406</ele>
        <time>2022-01-15T12:28:15.000Z</time>
      </trkpt>
      <trkpt lat="43.91895" lon="7.499">
        <ele>685.59997558594</ele>
        <time>2022-01-15T12:28:23.000Z</time>
      </trkpt>
      <trkpt lat="43.91896" lon="7.499">
        <ele>685.20001220703</ele>
        <time>2022-01-15T12:28:31.000Z</time>
      </trkpt>
      <trkpt lat="43.91896" lon="7.499">
        <ele>685.59997558594</ele>
        <time>2022-01-15T12:28:38.000Z</time>
      </trkpt>
      <trkpt lat="43.91896" lon="7.49899">
        <ele>685.59997558594</ele>
        <time>2022-01-15T12:28:39.000Z</time>
      </trkpt>
      <trkpt lat="43.91896" lon="7.49899">
        <ele>685.79998779297</ele>
        <time>2022-01-15T12:28:51.000Z</time>
      </trkpt>
      <trkpt lat="43.91896" lon="7.49899">
        <ele>685.40002441406</ele>
        <time>2022-01-15T12:29:01.000Z</time>
      </trkpt>
      <trkpt lat="43.91897" lon="7.49899">
        <ele>685.40002441406</ele>
        <time>2022-01-15T12:29:12.000Z</time>
      </trkpt>
      <trkpt lat="43.91896" lon="7.49898">
        <ele>685.20001220703</ele>
        <time>2022-01-15T12:29:16.000Z</time>
      </trkpt>
      <trkpt lat="43.91895" lon="7.49899">
        <ele>685.40002441406</ele>
        <time>2022-01-15T12:29:25.000Z</time>
      </trkpt>
      <trkpt lat="43.91893" lon="7.499">
        <ele>685.40002441406</ele>
        <time>2022-01-15T12:29:26.000Z</time>
      </trkpt>
      <trkpt lat="43.91882" lon="7.49895">
        <ele>685.40002441406</ele>
        <time>2022-01-15T12:29:30.000Z</time>
      </trkpt>
      <trkpt lat="43.91875" lon="7.49895">
        <ele>684.59997558594</ele>
        <time>2022-01-15T12:29:32.000Z</time>
      </trkpt>
      <trkpt lat="43.91869" lon="7.49898">
        <ele>683.40002441406</ele>
        <time>2022-01-15T12:29:34.000Z</time>
      </trkpt>
      <trkpt lat="43.91863" lon="7.49901">
        <ele>682.20001220703</ele>
        <time>2022-01-15T12:29:36.000Z</time>
      </trkpt>
      <trkpt lat="43.91859" lon="7.49902">
        <ele>681.79998779297</ele>
        <time>2022-01-15T12:29:37.000Z</time>
      </trkpt>
      <trkpt lat="43.91855" lon="7.49903">
        <ele>681.40002441406</ele>
        <time>2022-01-15T12:29:38.000Z</time>
      </trkpt>
      <trkpt lat="43.91851" lon="7.49904">
        <ele>680.59997558594</ele>
        <time>2022-01-15T12:29:39.000Z</time>
      </trkpt>
      <trkpt lat="43.91844" lon="7.49905">
        <ele>679.20001220703</ele>
        <time>2022-01-15T12:29:41.000Z</time>
      </trkpt>
      <trkpt lat="43.9184" lon="7.49908">
        <ele>677.79998779297</ele>
        <time>2022-01-15T12:29:43.000Z</time>
      </trkpt>
      <trkpt lat="43.91837" lon="7.49913">
        <ele>676.79998779297</ele>
        <time>2022-01-15T12:29:45.000Z</time>
      </trkpt>
      <trkpt lat="43.91832" lon="7.49917">
        <ele>675.40002441406</ele>
        <time>2022-01-15T12:29:47.000Z</time>
      </trkpt>
      <trkpt lat="43.9183" lon="7.49919">
        <ele>674.59997558594</ele>
        <time>2022-01-15T12:29:48.000Z</time>
      </trkpt>
      <trkpt lat="43.91828" lon="7.49921">
        <ele>674</ele>
        <time>2022-01-15T12:29:49.000Z</time>
      </trkpt>
      <trkpt lat="43.91825" lon="7.49926">
        <ele>672.20001220703</ele>
        <time>2022-01-15T12:29:51.000Z</time>
      </trkpt>
      <trkpt lat="43.91825" lon="7.49929">
        <ele>671.40002441406</ele>
        <time>2022-01-15T12:29:52.000Z</time>
      </trkpt>
      <trkpt lat="43.91824" lon="7.49932">
        <ele>670.59997558594</ele>
        <time>2022-01-15T12:29:53.000Z</time>
      </trkpt>
      <trkpt lat="43.91823" lon="7.49937">
        <ele>669.20001220703</ele>
        <time>2022-01-15T12:29:55.000Z</time>
      </trkpt>
      <trkpt lat="43.91821" lon="7.49941">
        <ele>667.79998779297</ele>
        <time>2022-01-15T12:29:57.000Z</time>
      </trkpt>
      <trkpt lat="43.9182" lon="7.49942">
        <ele>666.79998779297</ele>
        <time>2022-01-15T12:29:58.000Z</time>
      </trkpt>
      <trkpt lat="43.91819" lon="7.49943">
        <ele>665.79998779297</ele>
        <time>2022-01-15T12:29:59.000Z</time>
      </trkpt>
      <trkpt lat="43.91817" lon="7.49945">
        <ele>664.79998779297</ele>
        <time>2022-01-15T12:30:00.000Z</time>
      </trkpt>
      <trkpt lat="43.91816" lon="7.49946">
        <ele>663.59997558594</ele>
        <time>2022-01-15T12:30:01.000Z</time>
      </trkpt>
      <trkpt lat="43.91815" lon="7.49948">
        <ele>662.79998779297</ele>
        <time>2022-01-15T12:30:02.000Z</time>
      </trkpt>
      <trkpt lat="43.91815" lon="7.49951">
        <ele>662</ele>
        <time>2022-01-15T12:30:03.000Z</time>
      </trkpt>
      <trkpt lat="43.91813" lon="7.49953">
        <ele>661.20001220703</ele>
        <time>2022-01-15T12:30:04.000Z</time>
      </trkpt>
      <trkpt lat="43.9181" lon="7.49955">
        <ele>660.40002441406</ele>
        <time>2022-01-15T12:30:05.000Z</time>
      </trkpt>
      <trkpt lat="43.91808" lon="7.49956">
        <ele>659.79998779297</ele>
        <time>2022-01-15T12:30:06.000Z</time>
      </trkpt>
      <trkpt lat="43.91806" lon="7.49958">
        <ele>659</ele>
        <time>2022-01-15T12:30:07.000Z</time>
      </trkpt>
      <trkpt lat="43.91803" lon="7.4996">
        <ele>657.79998779297</ele>
        <time>2022-01-15T12:30:08.000Z</time>
      </trkpt>
      <trkpt lat="43.91801" lon="7.49962">
        <ele>657.20001220703</ele>
        <time>2022-01-15T12:30:09.000Z</time>
      </trkpt>
      <trkpt lat="43.91798" lon="7.49965">
        <ele>656</ele>
        <time>2022-01-15T12:30:10.000Z</time>
      </trkpt>
      <trkpt lat="43.91794" lon="7.49968">
        <ele>654.40002441406</ele>
        <time>2022-01-15T12:30:12.000Z</time>
      </trkpt>
      <trkpt lat="43.91793" lon="7.49968">
        <ele>653.20001220703</ele>
        <time>2022-01-15T12:30:13.000Z</time>
      </trkpt>
      <trkpt lat="43.91792" lon="7.49969">
        <ele>652.79998779297</ele>
        <time>2022-01-15T12:30:14.000Z</time>
      </trkpt>
      <trkpt lat="43.91789" lon="7.4997">
        <ele>652.20001220703</ele>
        <time>2022-01-15T12:30:15.000Z</time>
      </trkpt>
      <trkpt lat="43.91787" lon="7.49972">
        <ele>651.59997558594</ele>
        <time>2022-01-15T12:30:16.000Z</time>
      </trkpt>
      <trkpt lat="43.91785" lon="7.49975">
        <ele>650.79998779297</ele>
        <time>2022-01-15T12:30:17.000Z</time>
      </trkpt>
      <trkpt lat="43.91783" lon="7.49979">
        <ele>650.79998779297</ele>
        <time>2022-01-15T12:30:18.000Z</time>
      </trkpt>
      <trkpt lat="43.91776" lon="7.49985">
        <ele>649.20001220703</ele>
        <time>2022-01-15T12:30:20.000Z</time>
      </trkpt>
      <trkpt lat="43.91769" lon="7.4999">
        <ele>647.59997558594</ele>
        <time>2022-01-15T12:30:22.000Z</time>
      </trkpt>
      <trkpt lat="43.91765" lon="7.49992">
        <ele>646.40002441406</ele>
        <time>2022-01-15T12:30:23.000Z</time>
      </trkpt>
      <trkpt lat="43.91759" lon="7.49994">
        <ele>644.20001220703</ele>
        <time>2022-01-15T12:30:25.000Z</time>
      </trkpt>
      <trkpt lat="43.91758" lon="7.49994">
        <ele>643.20001220703</ele>
        <time>2022-01-15T12:30:26.000Z</time>
      </trkpt>
      <trkpt lat="43.91753" lon="7.49998">
        <ele>641.79998779297</ele>
        <time>2022-01-15T12:30:28.000Z</time>
      </trkpt>
      <trkpt lat="43.91744" lon="7.50003">
        <ele>641</ele>
        <time>2022-01-15T12:30:32.000Z</time>
      </trkpt>
      <trkpt lat="43.91742" lon="7.50005">
        <ele>640.59997558594</ele>
        <time>2022-01-15T12:30:33.000Z</time>
      </trkpt>
      <trkpt lat="43.91739" lon="7.50006">
        <ele>640.59997558594</ele>
        <time>2022-01-15T12:30:34.000Z</time>
      </trkpt>
      <trkpt lat="43.91727" lon="7.5001">
        <ele>640</ele>
        <time>2022-01-15T12:30:37.000Z</time>
      </trkpt>
      <trkpt lat="43.91718" lon="7.50008">
        <ele>639.59997558594</ele>
        <time>2022-01-15T12:30:39.000Z</time>
      </trkpt>
      <trkpt lat="43.91711" lon="7.50007">
        <ele>638.20001220703</ele>
        <time>2022-01-15T12:30:41.000Z</time>
      </trkpt>
      <trkpt lat="43.91702" lon="7.5001">
        <ele>636.20001220703</ele>
        <time>2022-01-15T12:30:43.000Z</time>
      </trkpt>
      <trkpt lat="43.91698" lon="7.50012">
        <ele>635</ele>
        <time>2022-01-15T12:30:44.000Z</time>
      </trkpt>
      <trkpt lat="43.91693" lon="7.50015">
        <ele>633.79998779297</ele>
        <time>2022-01-15T12:30:45.000Z</time>
      </trkpt>
      <trkpt lat="43.91689" lon="7.50019">
        <ele>632.79998779297</ele>
        <time>2022-01-15T12:30:46.000Z</time>
      </trkpt>
      <trkpt lat="43.91685" lon="7.50025">
        <ele>631.20001220703</ele>
        <time>2022-01-15T12:30:47.000Z</time>
      </trkpt>
      <trkpt lat="43.91682" lon="7.5003">
        <ele>629.79998779297</ele>
        <time>2022-01-15T12:30:48.000Z</time>
      </trkpt>
      <trkpt lat="43.9168" lon="7.50033">
        <ele>628</ele>
        <time>2022-01-15T12:30:49.000Z</time>
      </trkpt>
      <trkpt lat="43.91677" lon="7.50036">
        <ele>626.59997558594</ele>
        <time>2022-01-15T12:30:50.000Z</time>
      </trkpt>
      <trkpt lat="43.91674" lon="7.50039">
        <ele>625</ele>
        <time>2022-01-15T12:30:51.000Z</time>
      </trkpt>
      <trkpt lat="43.91671" lon="7.50044">
        <ele>623.79998779297</ele>
        <time>2022-01-15T12:30:52.000Z</time>
      </trkpt>
      <trkpt lat="43.91667" lon="7.50048">
        <ele>622.59997558594</ele>
        <time>2022-01-15T12:30:53.000Z</time>
      </trkpt>
      <trkpt lat="43.91663" lon="7.50051">
        <ele>621.20001220703</ele>
        <time>2022-01-15T12:30:54.000Z</time>
      </trkpt>
      <trkpt lat="43.91658" lon="7.50053">
        <ele>620.20001220703</ele>
        <time>2022-01-15T12:30:55.000Z</time>
      </trkpt>
      <trkpt lat="43.91654" lon="7.50055">
        <ele>618.59997558594</ele>
        <time>2022-01-15T12:30:56.000Z</time>
      </trkpt>
      <trkpt lat="43.9165" lon="7.50058">
        <ele>617</ele>
        <time>2022-01-15T12:30:57.000Z</time>
      </trkpt>
      <trkpt lat="43.91646" lon="7.50062">
        <ele>615</ele>
        <time>2022-01-15T12:30:58.000Z</time>
      </trkpt>
      <trkpt lat="43.91637" lon="7.50064">
        <ele>612.59997558594</ele>
        <time>2022-01-15T12:31:00.000Z</time>
      </trkpt>
      <trkpt lat="43.91632" lon="7.50064">
        <ele>611</ele>
        <time>2022-01-15T12:31:01.000Z</time>
      </trkpt>
      <trkpt lat="43.91626" lon="7.50064">
        <ele>609.59997558594</ele>
        <time>2022-01-15T12:31:02.000Z</time>
      </trkpt>
      <trkpt lat="43.91621" lon="7.50064">
        <ele>608</ele>
        <time>2022-01-15T12:31:03.000Z</time>
      </trkpt>
      <trkpt lat="43.91617" lon="7.50065">
        <ele>606.40002441406</ele>
        <time>2022-01-15T12:31:04.000Z</time>
      </trkpt>
      <trkpt lat="43.91612" lon="7.50067">
        <ele>604.59997558594</ele>
        <time>2022-01-15T12:31:05.000Z</time>
      </trkpt>
      <trkpt lat="43.91607" lon="7.5007">
        <ele>602.79998779297</ele>
        <time>2022-01-15T12:31:06.000Z</time>
      </trkpt>
      <trkpt lat="43.91603" lon="7.50072">
        <ele>601.40002441406</ele>
        <time>2022-01-15T12:31:07.000Z</time>
      </trkpt>
      <trkpt lat="43.916" lon="7.50075">
        <ele>600.20001220703</ele>
        <time>2022-01-15T12:31:08.000Z</time>
      </trkpt>
      <trkpt lat="43.91597" lon="7.50079">
        <ele>599</ele>
        <time>2022-01-15T12:31:09.000Z</time>
      </trkpt>
      <trkpt lat="43.91594" lon="7.50083">
        <ele>597.79998779297</ele>
        <time>2022-01-15T12:31:10.000Z</time>
      </trkpt>
      <trkpt lat="43.91592" lon="7.50087">
        <ele>596.59997558594</ele>
        <time>2022-01-15T12:31:11.000Z</time>
      </trkpt>
      <trkpt lat="43.9159" lon="7.50089">
        <ele>594.79998779297</ele>
        <time>2022-01-15T12:31:12.000Z</time>
      </trkpt>
      <trkpt lat="43.91588" lon="7.50089">
        <ele>593</ele>
        <time>2022-01-15T12:31:13.000Z</time>
      </trkpt>
      <trkpt lat="43.91585" lon="7.50081">
        <ele>591</ele>
        <time>2022-01-15T12:31:15.000Z</time>
      </trkpt>
      <trkpt lat="43.91584" lon="7.50075">
        <ele>589.79998779297</ele>
        <time>2022-01-15T12:31:16.000Z</time>
      </trkpt>
      <trkpt lat="43.91584" lon="7.5007">
        <ele>588.79998779297</ele>
        <time>2022-01-15T12:31:17.000Z</time>
      </trkpt>
      <trkpt lat="43.91585" lon="7.50067">
        <ele>587.79998779297</ele>
        <time>2022-01-15T12:31:18.000Z</time>
      </trkpt>
      <trkpt lat="43.91586" lon="7.50065">
        <ele>586.59997558594</ele>
        <time>2022-01-15T12:31:19.000Z</time>
      </trkpt>
      <trkpt lat="43.91586" lon="7.50062">
        <ele>585.40002441406</ele>
        <time>2022-01-15T12:31:20.000Z</time>
      </trkpt>
      <trkpt lat="43.91582" lon="7.50058">
        <ele>584</ele>
        <time>2022-01-15T12:31:22.000Z</time>
      </trkpt>
      <trkpt lat="43.91579" lon="7.50057">
        <ele>583.79998779297</ele>
        <time>2022-01-15T12:31:23.000Z</time>
      </trkpt>
      <trkpt lat="43.91565" lon="7.50048">
        <ele>582.59997558594</ele>
        <time>2022-01-15T12:31:27.000Z</time>
      </trkpt>
      <trkpt lat="43.91559" lon="7.50043">
        <ele>581.59997558594</ele>
        <time>2022-01-15T12:31:29.000Z</time>
      </trkpt>
      <trkpt lat="43.91558" lon="7.50042">
        <ele>581</ele>
        <time>2022-01-15T12:31:30.000Z</time>
      </trkpt>
      <trkpt lat="43.91557" lon="7.5004">
        <ele>580.20001220703</ele>
        <time>2022-01-15T12:31:31.000Z</time>
      </trkpt>
      <trkpt lat="43.91556" lon="7.50039">
        <ele>579.59997558594</ele>
        <time>2022-01-15T12:31:32.000Z</time>
      </trkpt>
      <trkpt lat="43.91555" lon="7.50039">
        <ele>579.20001220703</ele>
        <time>2022-01-15T12:31:33.000Z</time>
      </trkpt>
      <trkpt lat="43.91555" lon="7.5004">
        <ele>578.79998779297</ele>
        <time>2022-01-15T12:31:34.000Z</time>
      </trkpt>
      <trkpt lat="43.91556" lon="7.50046">
        <ele>577.79998779297</ele>
        <time>2022-01-15T12:31:36.000Z</time>
      </trkpt>
      <trkpt lat="43.91558" lon="7.5005">
        <ele>577.40002441406</ele>
        <time>2022-01-15T12:31:37.000Z</time>
      </trkpt>
      <trkpt lat="43.91559" lon="7.50053">
        <ele>576.79998779297</ele>
        <time>2022-01-15T12:31:38.000Z</time>
      </trkpt>
      <trkpt lat="43.9156" lon="7.50058">
        <ele>575.40002441406</ele>
        <time>2022-01-15T12:31:40.000Z</time>
      </trkpt>
      <trkpt lat="43.91559" lon="7.5006">
        <ele>574.79998779297</ele>
        <time>2022-01-15T12:31:41.000Z</time>
      </trkpt>
      <trkpt lat="43.91557" lon="7.50059">
        <ele>574</ele>
        <time>2022-01-15T12:31:42.000Z</time>
      </trkpt>
      <trkpt lat="43.91552" lon="7.50054">
        <ele>573.20001220703</ele>
        <time>2022-01-15T12:31:44.000Z</time>
      </trkpt>
      <trkpt lat="43.91549" lon="7.5005">
        <ele>572.59997558594</ele>
        <time>2022-01-15T12:31:45.000Z</time>
      </trkpt>
      <trkpt lat="43.91541" lon="7.5004">
        <ele>571.40002441406</ele>
        <time>2022-01-15T12:31:47.000Z</time>
      </trkpt>
      <trkpt lat="43.91537" lon="7.50035">
        <ele>570.59997558594</ele>
        <time>2022-01-15T12:31:48.000Z</time>
      </trkpt>
      <trkpt lat="43.91534" lon="7.50031">
        <ele>569.79998779297</ele>
        <time>2022-01-15T12:31:49.000Z</time>
      </trkpt>
      <trkpt lat="43.91532" lon="7.50018">
        <ele>568.59997558594</ele>
        <time>2022-01-15T12:31:51.000Z</time>
      </trkpt>
      <trkpt lat="43.91533" lon="7.50013">
        <ele>567.40002441406</ele>
        <time>2022-01-15T12:31:52.000Z</time>
      </trkpt>
      <trkpt lat="43.91534" lon="7.50004">
        <ele>565.79998779297</ele>
        <time>2022-01-15T12:31:54.000Z</time>
      </trkpt>
      <trkpt lat="43.91533" lon="7.50001">
        <ele>565</ele>
        <time>2022-01-15T12:31:55.000Z</time>
      </trkpt>
      <trkpt lat="43.91531" lon="7.49998">
        <ele>564.20001220703</ele>
        <time>2022-01-15T12:31:56.000Z</time>
      </trkpt>
      <trkpt lat="43.91527" lon="7.4999">
        <ele>563.40002441406</ele>
        <time>2022-01-15T12:31:58.000Z</time>
      </trkpt>
      <trkpt lat="43.91527" lon="7.49985">
        <ele>562.79998779297</ele>
        <time>2022-01-15T12:31:59.000Z</time>
      </trkpt>
      <trkpt lat="43.91528" lon="7.49977">
        <ele>561</ele>
        <time>2022-01-15T12:32:01.000Z</time>
      </trkpt>
      <trkpt lat="43.91527" lon="7.49974">
        <ele>560</ele>
        <time>2022-01-15T12:32:02.000Z</time>
      </trkpt>
      <trkpt lat="43.91525" lon="7.49973">
        <ele>559</ele>
        <time>2022-01-15T12:32:03.000Z</time>
      </trkpt>
      <trkpt lat="43.91523" lon="7.49973">
        <ele>558</ele>
        <time>2022-01-15T12:32:04.000Z</time>
      </trkpt>
      <trkpt lat="43.91522" lon="7.49975">
        <ele>557.20001220703</ele>
        <time>2022-01-15T12:32:05.000Z</time>
      </trkpt>
      <trkpt lat="43.9152" lon="7.49982">
        <ele>556.79998779297</ele>
        <time>2022-01-15T12:32:07.000Z</time>
      </trkpt>
      <trkpt lat="43.91519" lon="7.49986">
        <ele>556.79998779297</ele>
        <time>2022-01-15T12:32:08.000Z</time>
      </trkpt>
      <trkpt lat="43.91518" lon="7.49998">
        <ele>557.79998779297</ele>
        <time>2022-01-15T12:32:11.000Z</time>
      </trkpt>
      <trkpt lat="43.91517" lon="7.50001">
        <ele>558.40002441406</ele>
        <time>2022-01-15T12:32:12.000Z</time>
      </trkpt>
      <trkpt lat="43.91514" lon="7.5001">
        <ele>559.59997558594</ele>
        <time>2022-01-15T12:32:15.000Z</time>
      </trkpt>
      <trkpt lat="43.91513" lon="7.50012">
        <ele>560.20001220703</ele>
        <time>2022-01-15T12:32:16.000Z</time>
      </trkpt>
      <trkpt lat="43.91508" lon="7.5002">
        <ele>560.79998779297</ele>
        <time>2022-01-15T12:32:20.000Z</time>
      </trkpt>
      <trkpt lat="43.91505" lon="7.50024">
        <ele>561.20001220703</ele>
        <time>2022-01-15T12:32:22.000Z</time>
      </trkpt>
      <trkpt lat="43.91504" lon="7.50027">
        <ele>562</ele>
        <time>2022-01-15T12:32:24.000Z</time>
      </trkpt>
      <trkpt lat="43.91502" lon="7.50034">
        <ele>563</ele>
        <time>2022-01-15T12:32:27.000Z</time>
      </trkpt>
      <trkpt lat="43.91502" lon="7.50038">
        <ele>563.59997558594</ele>
        <time>2022-01-15T12:32:29.000Z</time>
      </trkpt>
      <trkpt lat="43.915" lon="7.50044">
        <ele>564.20001220703</ele>
        <time>2022-01-15T12:32:32.000Z</time>
      </trkpt>
      <trkpt lat="43.91498" lon="7.5005">
        <ele>565</ele>
        <time>2022-01-15T12:32:35.000Z</time>
      </trkpt>
      <trkpt lat="43.91498" lon="7.50052">
        <ele>565.40002441406</ele>
        <time>2022-01-15T12:32:36.000Z</time>
      </trkpt>
      <trkpt lat="43.91493" lon="7.50058">
        <ele>566.59997558594</ele>
        <time>2022-01-15T12:32:40.000Z</time>
      </trkpt>
      <trkpt lat="43.91485" lon="7.50063">
        <ele>568</ele>
        <time>2022-01-15T12:32:46.000Z</time>
      </trkpt>
      <trkpt lat="43.91484" lon="7.50064">
        <ele>568.40002441406</ele>
        <time>2022-01-15T12:32:47.000Z</time>
      </trkpt>
      <trkpt lat="43.91481" lon="7.50067">
        <ele>568.79998779297</ele>
        <time>2022-01-15T12:32:49.000Z</time>
      </trkpt>
      <trkpt lat="43.9148" lon="7.50069">
        <ele>569</ele>
        <time>2022-01-15T12:32:50.000Z</time>
      </trkpt>
      <trkpt lat="43.91477" lon="7.50074">
        <ele>569.40002441406</ele>
        <time>2022-01-15T12:32:52.000Z</time>
      </trkpt>
      <trkpt lat="43.91469" lon="7.50079">
        <ele>570.20001220703</ele>
        <time>2022-01-15T12:32:57.000Z</time>
      </trkpt>
      <trkpt lat="43.91462" lon="7.50089">
        <ele>571</ele>
        <time>2022-01-15T12:33:02.000Z</time>
      </trkpt>
      <trkpt lat="43.91458" lon="7.50092">
        <ele>571.40002441406</ele>
        <time>2022-01-15T12:33:04.000Z</time>
      </trkpt>
      <trkpt lat="43.91452" lon="7.50095">
        <ele>572</ele>
        <time>2022-01-15T12:33:08.000Z</time>
      </trkpt>
      <trkpt lat="43.91447" lon="7.50097">
        <ele>572.40002441406</ele>
        <time>2022-01-15T12:33:11.000Z</time>
      </trkpt>
      <trkpt lat="43.91443" lon="7.501">
        <ele>573.40002441406</ele>
        <time>2022-01-15T12:33:14.000Z</time>
      </trkpt>
      <trkpt lat="43.91439" lon="7.50104">
        <ele>574.59997558594</ele>
        <time>2022-01-15T12:33:17.000Z</time>
      </trkpt>
      <trkpt lat="43.91433" lon="7.50113">
        <ele>575</ele>
        <time>2022-01-15T12:33:20.000Z</time>
      </trkpt>
      <trkpt lat="43.9142" lon="7.50125">
        <ele>574.59997558594</ele>
        <time>2022-01-15T12:33:24.000Z</time>
      </trkpt>
      <trkpt lat="43.91412" lon="7.50135">
        <ele>573.79998779297</ele>
        <time>2022-01-15T12:33:28.000Z</time>
      </trkpt>
      <trkpt lat="43.91411" lon="7.50137">
        <ele>574.59997558594</ele>
        <time>2022-01-15T12:33:35.000Z</time>
      </trkpt>
      <trkpt lat="43.9141" lon="7.50139">
        <ele>574.40002441406</ele>
        <time>2022-01-15T12:33:42.000Z</time>
      </trkpt>
      <trkpt lat="43.91409" lon="7.50141">
        <ele>574.40002441406</ele>
        <time>2022-01-15T12:34:01.000Z</time>
      </trkpt>
      <trkpt lat="43.91409" lon="7.50142">
        <ele>574.40002441406</ele>
        <time>2022-01-15T12:34:18.000Z</time>
      </trkpt>
      <trkpt lat="43.91411" lon="7.50145">
        <ele>574.20001220703</ele>
        <time>2022-01-15T12:34:35.000Z</time>
      </trkpt>
      <trkpt lat="43.91409" lon="7.5015">
        <ele>574.40002441406</ele>
        <time>2022-01-15T12:34:46.000Z</time>
      </trkpt>
      <trkpt lat="43.91402" lon="7.50163">
        <ele>574.40002441406</ele>
        <time>2022-01-15T12:34:50.000Z</time>
      </trkpt>
      <trkpt lat="43.91399" lon="7.50169">
        <ele>574.20001220703</ele>
        <time>2022-01-15T12:34:51.000Z</time>
      </trkpt>
      <trkpt lat="43.91391" lon="7.50182">
        <ele>573.40002441406</ele>
        <time>2022-01-15T12:34:53.000Z</time>
      </trkpt>
      <trkpt lat="43.91379" lon="7.50199">
        <ele>571.20001220703</ele>
        <time>2022-01-15T12:34:56.000Z</time>
      </trkpt>
      <trkpt lat="43.91375" lon="7.50203">
        <ele>570.59997558594</ele>
        <time>2022-01-15T12:34:57.000Z</time>
      </trkpt>
      <trkpt lat="43.91372" lon="7.50205">
        <ele>570</ele>
        <time>2022-01-15T12:34:58.000Z</time>
      </trkpt>
      <trkpt lat="43.91362" lon="7.50208">
        <ele>569</ele>
        <time>2022-01-15T12:35:01.000Z</time>
      </trkpt>
      <trkpt lat="43.9136" lon="7.50209">
        <ele>568.79998779297</ele>
        <time>2022-01-15T12:35:02.000Z</time>
      </trkpt>
      <trkpt lat="43.91349" lon="7.50209">
        <ele>568.40002441406</ele>
        <time>2022-01-15T12:35:06.000Z</time>
      </trkpt>
      <trkpt lat="43.91337" lon="7.50202">
        <ele>568</ele>
        <time>2022-01-15T12:35:11.000Z</time>
      </trkpt>
      <trkpt lat="43.91333" lon="7.50199">
        <ele>567.59997558594</ele>
        <time>2022-01-15T12:35:13.000Z</time>
      </trkpt>
      <trkpt lat="43.91326" lon="7.50193">
        <ele>567.20001220703</ele>
        <time>2022-01-15T12:35:16.000Z</time>
      </trkpt>
      <trkpt lat="43.91316" lon="7.50183">
        <ele>566.59997558594</ele>
        <time>2022-01-15T12:35:20.000Z</time>
      </trkpt>
      <trkpt lat="43.91314" lon="7.50182">
        <ele>566.59997558594</ele>
        <time>2022-01-15T12:35:21.000Z</time>
      </trkpt>
      <trkpt lat="43.91311" lon="7.50179">
        <ele>566.40002441406</ele>
        <time>2022-01-15T12:35:25.000Z</time>
      </trkpt>
      <trkpt lat="43.91305" lon="7.50173">
        <ele>566.20001220703</ele>
        <time>2022-01-15T12:35:34.000Z</time>
      </trkpt>
      <trkpt lat="43.91301" lon="7.50171">
        <ele>566</ele>
        <time>2022-01-15T12:35:36.000Z</time>
      </trkpt>
      <trkpt lat="43.91298" lon="7.50173">
        <ele>565.79998779297</ele>
        <time>2022-01-15T12:35:37.000Z</time>
      </trkpt>
      <trkpt lat="43.91291" lon="7.50176">
        <ele>565.40002441406</ele>
        <time>2022-01-15T12:35:39.000Z</time>
      </trkpt>
      <trkpt lat="43.91286" lon="7.50177">
        <ele>564.79998779297</ele>
        <time>2022-01-15T12:35:40.000Z</time>
      </trkpt>
      <trkpt lat="43.91282" lon="7.50178">
        <ele>564</ele>
        <time>2022-01-15T12:35:41.000Z</time>
      </trkpt>
      <trkpt lat="43.91279" lon="7.50176">
        <ele>563.59997558594</ele>
        <time>2022-01-15T12:35:42.000Z</time>
      </trkpt>
      <trkpt lat="43.91277" lon="7.50172">
        <ele>562.59997558594</ele>
        <time>2022-01-15T12:35:43.000Z</time>
      </trkpt>
      <trkpt lat="43.91277" lon="7.50169">
        <ele>562.20001220703</ele>
        <time>2022-01-15T12:35:44.000Z</time>
      </trkpt>
      <trkpt lat="43.91275" lon="7.50161">
        <ele>561.59997558594</ele>
        <time>2022-01-15T12:35:46.000Z</time>
      </trkpt>
      <trkpt lat="43.91275" lon="7.50157">
        <ele>561.40002441406</ele>
        <time>2022-01-15T12:35:47.000Z</time>
      </trkpt>
      <trkpt lat="43.91273" lon="7.5015">
        <ele>561</ele>
        <time>2022-01-15T12:35:49.000Z</time>
      </trkpt>
      <trkpt lat="43.91268" lon="7.50114">
        <ele>560.40002441406</ele>
        <time>2022-01-15T12:35:58.000Z</time>
      </trkpt>
      <trkpt lat="43.91268" lon="7.50106">
        <ele>560.40002441406</ele>
        <time>2022-01-15T12:36:00.000Z</time>
      </trkpt>
      <trkpt lat="43.91265" lon="7.50096">
        <ele>560.20001220703</ele>
        <time>2022-01-15T12:36:03.000Z</time>
      </trkpt>
      <trkpt lat="43.91258" lon="7.50079">
        <ele>560.20001220703</ele>
        <time>2022-01-15T12:36:10.000Z</time>
      </trkpt>
      <trkpt lat="43.91251" lon="7.50062">
        <ele>560.20001220703</ele>
        <time>2022-01-15T12:36:15.000Z</time>
      </trkpt>
      <trkpt lat="43.91243" lon="7.50035">
        <ele>559.20001220703</ele>
        <time>2022-01-15T12:36:21.000Z</time>
      </trkpt>
      <trkpt lat="43.9124" lon="7.50029">
        <ele>559</ele>
        <time>2022-01-15T12:36:22.000Z</time>
      </trkpt>
      <trkpt lat="43.91226" lon="7.50015">
        <ele>558.40002441406</ele>
        <time>2022-01-15T12:36:27.000Z</time>
      </trkpt>
      <trkpt lat="43.91218" lon="7.50022">
        <ele>558.79998779297</ele>
        <time>2022-01-15T12:36:30.000Z</time>
      </trkpt>
      <trkpt lat="43.91214" lon="7.5003">
        <ele>559.40002441406</ele>
        <time>2022-01-15T12:36:32.000Z</time>
      </trkpt>
      <trkpt lat="43.91202" lon="7.50046">
        <ele>560.40002441406</ele>
        <time>2022-01-15T12:36:37.000Z</time>
      </trkpt>
      <trkpt lat="43.91187" lon="7.50061">
        <ele>560.79998779297</ele>
        <time>2022-01-15T12:36:43.000Z</time>
      </trkpt>
      <trkpt lat="43.9117" lon="7.50076">
        <ele>561.20001220703</ele>
        <time>2022-01-15T12:36:50.000Z</time>
      </trkpt>
      <trkpt lat="43.91165" lon="7.5008">
        <ele>561.40002441406</ele>
        <time>2022-01-15T12:36:52.000Z</time>
      </trkpt>
      <trkpt lat="43.91163" lon="7.50082">
        <ele>561.59997558594</ele>
        <time>2022-01-15T12:36:54.000Z</time>
      </trkpt>
      <trkpt lat="43.91164" lon="7.50081">
        <ele>561.59997558594</ele>
        <time>2022-01-15T12:36:55.000Z</time>
      </trkpt>
      <trkpt lat="43.91161" lon="7.50082">
        <ele>561.79998779297</ele>
        <time>2022-01-15T12:37:02.000Z</time>
      </trkpt>
      <trkpt lat="43.91148" lon="7.50087">
        <ele>562.40002441406</ele>
        <time>2022-01-15T12:37:13.000Z</time>
      </trkpt>
      <trkpt lat="43.91145" lon="7.50088">
        <ele>562.79998779297</ele>
        <time>2022-01-15T12:37:18.000Z</time>
      </trkpt>
      <trkpt lat="43.91135" lon="7.50085">
        <ele>563</ele>
        <time>2022-01-15T12:37:23.000Z</time>
      </trkpt>
      <trkpt lat="43.91123" lon="7.50075">
        <ele>563.59997558594</ele>
        <time>2022-01-15T12:37:30.000Z</time>
      </trkpt>
      <trkpt lat="43.91119" lon="7.50069">
        <ele>563.59997558594</ele>
        <time>2022-01-15T12:37:34.000Z</time>
      </trkpt>
      <trkpt lat="43.91114" lon="7.50053">
        <ele>563.79998779297</ele>
        <time>2022-01-15T12:37:41.000Z</time>
      </trkpt>
      <trkpt lat="43.91114" lon="7.50034">
        <ele>563.79998779297</ele>
        <time>2022-01-15T12:37:47.000Z</time>
      </trkpt>
      <trkpt lat="43.91115" lon="7.50009">
        <ele>564.20001220703</ele>
        <time>2022-01-15T12:37:54.000Z</time>
      </trkpt>
      <trkpt lat="43.91107" lon="7.49981">
        <ele>563.79998779297</ele>
        <time>2022-01-15T12:38:01.000Z</time>
      </trkpt>
      <trkpt lat="43.91089" lon="7.49956">
        <ele>564.20001220703</ele>
        <time>2022-01-15T12:38:09.000Z</time>
      </trkpt>
      <trkpt lat="43.91082" lon="7.49945">
        <ele>564.59997558594</ele>
        <time>2022-01-15T12:38:12.000Z</time>
      </trkpt>
      <trkpt lat="43.91074" lon="7.49929">
        <ele>565.20001220703</ele>
        <time>2022-01-15T12:38:17.000Z</time>
      </trkpt>
      <trkpt lat="43.91066" lon="7.49924">
        <ele>565.59997558594</ele>
        <time>2022-01-15T12:38:20.000Z</time>
      </trkpt>
      <trkpt lat="43.91063" lon="7.49926">
        <ele>565.59997558594</ele>
        <time>2022-01-15T12:38:21.000Z</time>
      </trkpt>
      <trkpt lat="43.91057" lon="7.49936">
        <ele>565.59997558594</ele>
        <time>2022-01-15T12:38:24.000Z</time>
      </trkpt>
      <trkpt lat="43.91053" lon="7.49942">
        <ele>565.79998779297</ele>
        <time>2022-01-15T12:38:27.000Z</time>
      </trkpt>
      <trkpt lat="43.91046" lon="7.49948">
        <ele>566.59997558594</ele>
        <time>2022-01-15T12:38:30.000Z</time>
      </trkpt>
      <trkpt lat="43.91035" lon="7.49953">
        <ele>567</ele>
        <time>2022-01-15T12:38:34.000Z</time>
      </trkpt>
      <trkpt lat="43.9103" lon="7.49953">
        <ele>566.79998779297</ele>
        <time>2022-01-15T12:38:36.000Z</time>
      </trkpt>
      <trkpt lat="43.91015" lon="7.49955">
        <ele>566.40002441406</ele>
        <time>2022-01-15T12:38:42.000Z</time>
      </trkpt>
      <trkpt lat="43.91001" lon="7.49949">
        <ele>566.79998779297</ele>
        <time>2022-01-15T12:38:47.000Z</time>
      </trkpt>
      <trkpt lat="43.90983" lon="7.49934">
        <ele>566.79998779297</ele>
        <time>2022-01-15T12:38:53.000Z</time>
      </trkpt>
      <trkpt lat="43.90965" lon="7.49912">
        <ele>567</ele>
        <time>2022-01-15T12:39:00.000Z</time>
      </trkpt>
      <trkpt lat="43.90956" lon="7.49883">
        <ele>567.59997558594</ele>
        <time>2022-01-15T12:39:07.000Z</time>
      </trkpt>
      <trkpt lat="43.9095" lon="7.4986">
        <ele>568</ele>
        <time>2022-01-15T12:39:13.000Z</time>
      </trkpt>
      <trkpt lat="43.9095" lon="7.49857">
        <ele>568.20001220703</ele>
        <time>2022-01-15T12:39:14.000Z</time>
      </trkpt>
      <trkpt lat="43.90949" lon="7.49843">
        <ele>569</ele>
        <time>2022-01-15T12:39:19.000Z</time>
      </trkpt>
      <trkpt lat="43.90947" lon="7.49841">
        <ele>569.20001220703</ele>
        <time>2022-01-15T12:39:20.000Z</time>
      </trkpt>
      <trkpt lat="43.90935" lon="7.4984">
        <ele>569.59997558594</ele>
        <time>2022-01-15T12:39:24.000Z</time>
      </trkpt>
      <trkpt lat="43.90919" lon="7.49838">
        <ele>570.20001220703</ele>
        <time>2022-01-15T12:39:30.000Z</time>
      </trkpt>
      <trkpt lat="43.90915" lon="7.4984">
        <ele>570</ele>
        <time>2022-01-15T12:39:31.000Z</time>
      </trkpt>
      <trkpt lat="43.90913" lon="7.49843">
        <ele>570</ele>
        <time>2022-01-15T12:39:32.000Z</time>
      </trkpt>
      <trkpt lat="43.90913" lon="7.49851">
        <ele>569.79998779297</ele>
        <time>2022-01-15T12:39:34.000Z</time>
      </trkpt>
      <trkpt lat="43.90914" lon="7.49858">
        <ele>570.20001220703</ele>
        <time>2022-01-15T12:39:36.000Z</time>
      </trkpt>
      <trkpt lat="43.90916" lon="7.49875">
        <ele>570.79998779297</ele>
        <time>2022-01-15T12:39:41.000Z</time>
      </trkpt>
      <trkpt lat="43.90915" lon="7.49887">
        <ele>571.20001220703</ele>
        <time>2022-01-15T12:39:44.000Z</time>
      </trkpt>
      <trkpt lat="43.90913" lon="7.49899">
        <ele>571.59997558594</ele>
        <time>2022-01-15T12:39:47.000Z</time>
      </trkpt>
      <trkpt lat="43.90912" lon="7.4992">
        <ele>572.40002441406</ele>
        <time>2022-01-15T12:39:53.000Z</time>
      </trkpt>
      <trkpt lat="43.90914" lon="7.49941">
        <ele>573.40002441406</ele>
        <time>2022-01-15T12:39:59.000Z</time>
      </trkpt>
      <trkpt lat="43.90914" lon="7.49944">
        <ele>573.40002441406</ele>
        <time>2022-01-15T12:40:00.000Z</time>
      </trkpt>
      <trkpt lat="43.90913" lon="7.49961">
        <ele>574.59997558594</ele>
        <time>2022-01-15T12:40:06.000Z</time>
      </trkpt>
      <trkpt lat="43.90913" lon="7.49973">
        <ele>575.79998779297</ele>
        <time>2022-01-15T12:40:11.000Z</time>
      </trkpt>
      <trkpt lat="43.90914" lon="7.49976">
        <ele>576</ele>
        <time>2022-01-15T12:40:12.000Z</time>
      </trkpt>
      <trkpt lat="43.90912" lon="7.49988">
        <ele>577</ele>
        <time>2022-01-15T12:40:17.000Z</time>
      </trkpt>
      <trkpt lat="43.90911" lon="7.4999">
        <ele>577.20001220703</ele>
        <time>2022-01-15T12:40:18.000Z</time>
      </trkpt>
      <trkpt lat="43.90904" lon="7.49996">
        <ele>578</ele>
        <time>2022-01-15T12:40:23.000Z</time>
      </trkpt>
      <trkpt lat="43.90894" lon="7.49992">
        <ele>578.79998779297</ele>
        <time>2022-01-15T12:40:28.000Z</time>
      </trkpt>
      <trkpt lat="43.90893" lon="7.49991">
        <ele>579</ele>
        <time>2022-01-15T12:40:29.000Z</time>
      </trkpt>
      <trkpt lat="43.90881" lon="7.49985">
        <ele>579.79998779297</ele>
        <time>2022-01-15T12:40:36.000Z</time>
      </trkpt>
      <trkpt lat="43.90878" lon="7.49985">
        <ele>580</ele>
        <time>2022-01-15T12:40:38.000Z</time>
      </trkpt>
      <trkpt lat="43.90869" lon="7.49986">
        <ele>580.40002441406</ele>
        <time>2022-01-15T12:40:42.000Z</time>
      </trkpt>
      <trkpt lat="43.90857" lon="7.49992">
        <ele>581</ele>
        <time>2022-01-15T12:40:48.000Z</time>
      </trkpt>
      <trkpt lat="43.90853" lon="7.49995">
        <ele>581.20001220703</ele>
        <time>2022-01-15T12:40:50.000Z</time>
      </trkpt>
      <trkpt lat="43.90838" lon="7.50001">
        <ele>582</ele>
        <time>2022-01-15T12:40:57.000Z</time>
      </trkpt>
      <trkpt lat="43.90834" lon="7.5">
        <ele>582.20001220703</ele>
        <time>2022-01-15T12:40:59.000Z</time>
      </trkpt>
      <trkpt lat="43.9083" lon="7.49996">
        <ele>583.20001220703</ele>
        <time>2022-01-15T12:41:03.000Z</time>
      </trkpt>
      <trkpt lat="43.9083" lon="7.49997">
        <ele>583.40002441406</ele>
        <time>2022-01-15T12:41:04.000Z</time>
      </trkpt>
      <trkpt lat="43.90828" lon="7.49994">
        <ele>584</ele>
        <time>2022-01-15T12:41:07.000Z</time>
      </trkpt>
      <trkpt lat="43.90822" lon="7.49988">
        <ele>584</ele>
        <time>2022-01-15T12:41:10.000Z</time>
      </trkpt>
      <trkpt lat="43.90819" lon="7.49984">
        <ele>584.20001220703</ele>
        <time>2022-01-15T12:41:12.000Z</time>
      </trkpt>
      <trkpt lat="43.90818" lon="7.4998">
        <ele>584.40002441406</ele>
        <time>2022-01-15T12:41:14.000Z</time>
      </trkpt>
      <trkpt lat="43.90818" lon="7.49978">
        <ele>584.59997558594</ele>
        <time>2022-01-15T12:41:15.000Z</time>
      </trkpt>
      <trkpt lat="43.90815" lon="7.49969">
        <ele>585.40002441406</ele>
        <time>2022-01-15T12:41:18.000Z</time>
      </trkpt>
      <trkpt lat="43.90813" lon="7.49966">
        <ele>585.59997558594</ele>
        <time>2022-01-15T12:41:19.000Z</time>
      </trkpt>
      <trkpt lat="43.90806" lon="7.49955">
        <ele>585.79998779297</ele>
        <time>2022-01-15T12:41:24.000Z</time>
      </trkpt>
      <trkpt lat="43.90802" lon="7.49951">
        <ele>586.59997558594</ele>
        <time>2022-01-15T12:41:27.000Z</time>
      </trkpt>
      <trkpt lat="43.90799" lon="7.49948">
        <ele>587.20001220703</ele>
        <time>2022-01-15T12:41:30.000Z</time>
      </trkpt>
      <trkpt lat="43.90797" lon="7.49945">
        <ele>587.59997558594</ele>
        <time>2022-01-15T12:41:32.000Z</time>
      </trkpt>
      <trkpt lat="43.90794" lon="7.49939">
        <ele>588.20001220703</ele>
        <time>2022-01-15T12:41:36.000Z</time>
      </trkpt>
      <trkpt lat="43.9079" lon="7.4994">
        <ele>588.20001220703</ele>
        <time>2022-01-15T12:41:40.000Z</time>
      </trkpt>
      <trkpt lat="43.9079" lon="7.49955">
        <ele>588.59997558594</ele>
        <time>2022-01-15T12:41:44.000Z</time>
      </trkpt>
      <trkpt lat="43.90789" lon="7.49958">
        <ele>588.79998779297</ele>
        <time>2022-01-15T12:41:45.000Z</time>
      </trkpt>
      <trkpt lat="43.90786" lon="7.49967">
        <ele>589.59997558594</ele>
        <time>2022-01-15T12:41:48.000Z</time>
      </trkpt>
      <trkpt lat="43.90785" lon="7.49968">
        <ele>589.79998779297</ele>
        <time>2022-01-15T12:41:49.000Z</time>
      </trkpt>
      <trkpt lat="43.90783" lon="7.49964">
        <ele>590.40002441406</ele>
        <time>2022-01-15T12:41:51.000Z</time>
      </trkpt>
      <trkpt lat="43.90783" lon="7.49962">
        <ele>590.79998779297</ele>
        <time>2022-01-15T12:41:52.000Z</time>
      </trkpt>
      <trkpt lat="43.90784" lon="7.49957">
        <ele>592.20001220703</ele>
        <time>2022-01-15T12:41:55.000Z</time>
      </trkpt>
      <trkpt lat="43.90784" lon="7.49955">
        <ele>592.59997558594</ele>
        <time>2022-01-15T12:41:56.000Z</time>
      </trkpt>
      <trkpt lat="43.90783" lon="7.49951">
        <ele>593.59997558594</ele>
        <time>2022-01-15T12:41:59.000Z</time>
      </trkpt>
      <trkpt lat="43.90782" lon="7.4995">
        <ele>593.79998779297</ele>
        <time>2022-01-15T12:42:00.000Z</time>
      </trkpt>
      <trkpt lat="43.90781" lon="7.49951">
        <ele>594</ele>
        <time>2022-01-15T12:42:02.000Z</time>
      </trkpt>
      <trkpt lat="43.9078" lon="7.49959">
        <ele>594.79998779297</ele>
        <time>2022-01-15T12:42:06.000Z</time>
      </trkpt>
      <trkpt lat="43.90779" lon="7.49961">
        <ele>595.20001220703</ele>
        <time>2022-01-15T12:42:07.000Z</time>
      </trkpt>
      <trkpt lat="43.90777" lon="7.49966">
        <ele>596.20001220703</ele>
        <time>2022-01-15T12:42:10.000Z</time>
      </trkpt>
      <trkpt lat="43.90773" lon="7.4997">
        <ele>597.40002441406</ele>
        <time>2022-01-15T12:42:13.000Z</time>
      </trkpt>
      <trkpt lat="43.90766" lon="7.49975">
        <ele>598.59997558594</ele>
        <time>2022-01-15T12:42:18.000Z</time>
      </trkpt>
      <trkpt lat="43.90766" lon="7.49979">
        <ele>599</ele>
        <time>2022-01-15T12:42:20.000Z</time>
      </trkpt>
      <trkpt lat="43.90765" lon="7.49983">
        <ele>599.59997558594</ele>
        <time>2022-01-15T12:42:22.000Z</time>
      </trkpt>
      <trkpt lat="43.90763" lon="7.49988">
        <ele>600.79998779297</ele>
        <time>2022-01-15T12:42:25.000Z</time>
      </trkpt>
      <trkpt lat="43.90761" lon="7.49989">
        <ele>601.20001220703</ele>
        <time>2022-01-15T12:42:26.000Z</time>
      </trkpt>
      <trkpt lat="43.90759" lon="7.49992">
        <ele>602</ele>
        <time>2022-01-15T12:42:29.000Z</time>
      </trkpt>
      <trkpt lat="43.90755" lon="7.49998">
        <ele>602.59997558594</ele>
        <time>2022-01-15T12:42:31.000Z</time>
      </trkpt>
      <trkpt lat="43.90751" lon="7.50002">
        <ele>603.20001220703</ele>
        <time>2022-01-15T12:42:33.000Z</time>
      </trkpt>
      <trkpt lat="43.90742" lon="7.50004">
        <ele>604.40002441406</ele>
        <time>2022-01-15T12:42:36.000Z</time>
      </trkpt>
      <trkpt lat="43.90739" lon="7.50008">
        <ele>605.20001220703</ele>
        <time>2022-01-15T12:42:38.000Z</time>
      </trkpt>
      <trkpt lat="43.90738" lon="7.50011">
        <ele>605.59997558594</ele>
        <time>2022-01-15T12:42:39.000Z</time>
      </trkpt>
      <trkpt lat="43.90737" lon="7.5002">
        <ele>607</ele>
        <time>2022-01-15T12:42:42.000Z</time>
      </trkpt>
      <trkpt lat="43.90738" lon="7.50023">
        <ele>607.20001220703</ele>
        <time>2022-01-15T12:42:43.000Z</time>
      </trkpt>
      <trkpt lat="43.9074" lon="7.50029">
        <ele>608.20001220703</ele>
        <time>2022-01-15T12:42:45.000Z</time>
      </trkpt>
      <trkpt lat="43.90739" lon="7.50036">
        <ele>609.40002441406</ele>
        <time>2022-01-15T12:42:47.000Z</time>
      </trkpt>
      <trkpt lat="43.90739" lon="7.50038">
        <ele>610.20001220703</ele>
        <time>2022-01-15T12:42:48.000Z</time>
      </trkpt>
      <trkpt lat="43.90738" lon="7.50042">
        <ele>610.59997558594</ele>
        <time>2022-01-15T12:42:49.000Z</time>
      </trkpt>
      <trkpt lat="43.90734" lon="7.50056">
        <ele>611.79998779297</ele>
        <time>2022-01-15T12:42:53.000Z</time>
      </trkpt>
      <trkpt lat="43.90729" lon="7.5006">
        <ele>613</ele>
        <time>2022-01-15T12:42:56.000Z</time>
      </trkpt>
      <trkpt lat="43.90726" lon="7.50062">
        <ele>613.40002441406</ele>
        <time>2022-01-15T12:42:58.000Z</time>
      </trkpt>
      <trkpt lat="43.90722" lon="7.50068">
        <ele>614</ele>
        <time>2022-01-15T12:43:03.000Z</time>
      </trkpt>
      <trkpt lat="43.90721" lon="7.5007">
        <ele>614.20001220703</ele>
        <time>2022-01-15T12:43:05.000Z</time>
      </trkpt>
      <trkpt lat="43.90715" lon="7.50077">
        <ele>614.20001220703</ele>
        <time>2022-01-15T12:43:12.000Z</time>
      </trkpt>
      <trkpt lat="43.90707" lon="7.50085">
        <ele>614</ele>
        <time>2022-01-15T12:43:19.000Z</time>
      </trkpt>
      <trkpt lat="43.90702" lon="7.50087">
        <ele>613.79998779297</ele>
        <time>2022-01-15T12:43:25.000Z</time>
      </trkpt>
      <trkpt lat="43.90695" lon="7.50089">
        <ele>613.40002441406</ele>
        <time>2022-01-15T12:43:32.000Z</time>
      </trkpt>
      <trkpt lat="43.90688" lon="7.50094">
        <ele>613</ele>
        <time>2022-01-15T12:43:40.000Z</time>
      </trkpt>
      <trkpt lat="43.90688" lon="7.50095">
        <ele>613</ele>
        <time>2022-01-15T12:43:41.000Z</time>
      </trkpt>
      <trkpt lat="43.9068" lon="7.50102">
        <ele>612.40002441406</ele>
        <time>2022-01-15T12:43:49.000Z</time>
      </trkpt>
      <trkpt lat="43.90676" lon="7.50104">
        <ele>612</ele>
        <time>2022-01-15T12:43:53.000Z</time>
      </trkpt>
      <trkpt lat="43.90675" lon="7.50105">
        <ele>611.79998779297</ele>
        <time>2022-01-15T12:43:57.000Z</time>
      </trkpt>
      <trkpt lat="43.90671" lon="7.50109">
        <ele>611.59997558594</ele>
        <time>2022-01-15T12:44:12.000Z</time>
      </trkpt>
      <trkpt lat="43.9067" lon="7.5011">
        <ele>611.59997558594</ele>
        <time>2022-01-15T12:44:13.000Z</time>
      </trkpt>
      <trkpt lat="43.90664" lon="7.50112">
        <ele>611.20001220703</ele>
        <time>2022-01-15T12:44:16.000Z</time>
      </trkpt>
      <trkpt lat="43.90658" lon="7.50112">
        <ele>611</ele>
        <time>2022-01-15T12:44:18.000Z</time>
      </trkpt>
      <trkpt lat="43.90646" lon="7.50118">
        <ele>609.79998779297</ele>
        <time>2022-01-15T12:44:22.000Z</time>
      </trkpt>
      <trkpt lat="43.90642" lon="7.5013">
        <ele>608.79998779297</ele>
        <time>2022-01-15T12:44:26.000Z</time>
      </trkpt>
      <trkpt lat="43.90635" lon="7.50154">
        <ele>609</ele>
        <time>2022-01-15T12:44:32.000Z</time>
      </trkpt>
      <trkpt lat="43.90633" lon="7.50159">
        <ele>608.79998779297</ele>
        <time>2022-01-15T12:44:33.000Z</time>
      </trkpt>
      <trkpt lat="43.90625" lon="7.5018">
        <ele>607.79998779297</ele>
        <time>2022-01-15T12:44:38.000Z</time>
      </trkpt>
      <trkpt lat="43.90623" lon="7.50183">
        <ele>607.59997558594</ele>
        <time>2022-01-15T12:44:39.000Z</time>
      </trkpt>
      <trkpt lat="43.90612" lon="7.50189">
        <ele>608.40002441406</ele>
        <time>2022-01-15T12:44:43.000Z</time>
      </trkpt>
      <trkpt lat="43.90593" lon="7.50187">
        <ele>608.59997558594</ele>
        <time>2022-01-15T12:44:49.000Z</time>
      </trkpt>
      <trkpt lat="43.90591" lon="7.50189">
        <ele>608.40002441406</ele>
        <time>2022-01-15T12:44:50.000Z</time>
      </trkpt>
      <trkpt lat="43.90589" lon="7.50197">
        <ele>608.20001220703</ele>
        <time>2022-01-15T12:44:52.000Z</time>
      </trkpt>
      <trkpt lat="43.90586" lon="7.50211">
        <ele>609.40002441406</ele>
        <time>2022-01-15T12:44:57.000Z</time>
      </trkpt>
      <trkpt lat="43.90584" lon="7.50213">
        <ele>609.79998779297</ele>
        <time>2022-01-15T12:44:58.000Z</time>
      </trkpt>
      <trkpt lat="43.90583" lon="7.50216">
        <ele>610.20001220703</ele>
        <time>2022-01-15T12:44:59.000Z</time>
      </trkpt>
      <trkpt lat="43.90578" lon="7.50223">
        <ele>610.79998779297</ele>
        <time>2022-01-15T12:45:02.000Z</time>
      </trkpt>
      <trkpt lat="43.90573" lon="7.50229">
        <ele>611.40002441406</ele>
        <time>2022-01-15T12:45:05.000Z</time>
      </trkpt>
      <trkpt lat="43.9057" lon="7.50233">
        <ele>612</ele>
        <time>2022-01-15T12:45:07.000Z</time>
      </trkpt>
      <trkpt lat="43.90563" lon="7.50242">
        <ele>613</ele>
        <time>2022-01-15T12:45:11.000Z</time>
      </trkpt>
      <trkpt lat="43.90557" lon="7.50247">
        <ele>614.20001220703</ele>
        <time>2022-01-15T12:45:14.000Z</time>
      </trkpt>
      <trkpt lat="43.90555" lon="7.50249">
        <ele>614.59997558594</ele>
        <time>2022-01-15T12:45:15.000Z</time>
      </trkpt>
      <trkpt lat="43.90549" lon="7.50251">
        <ele>615.40002441406</ele>
        <time>2022-01-15T12:45:18.000Z</time>
      </trkpt>
      <trkpt lat="43.9054" lon="7.50251">
        <ele>616.20001220703</ele>
        <time>2022-01-15T12:45:22.000Z</time>
      </trkpt>
      <trkpt lat="43.90533" lon="7.50248">
        <ele>616.59997558594</ele>
        <time>2022-01-15T12:45:25.000Z</time>
      </trkpt>
      <trkpt lat="43.90524" lon="7.50241">
        <ele>617.20001220703</ele>
        <time>2022-01-15T12:45:29.000Z</time>
      </trkpt>
      <trkpt lat="43.90508" lon="7.50234">
        <ele>617.40002441406</ele>
        <time>2022-01-15T12:45:35.000Z</time>
      </trkpt>
      <trkpt lat="43.9049" lon="7.50233">
        <ele>617.59997558594</ele>
        <time>2022-01-15T12:45:41.000Z</time>
      </trkpt>
      <trkpt lat="43.90483" lon="7.50238">
        <ele>617.79998779297</ele>
        <time>2022-01-15T12:45:44.000Z</time>
      </trkpt>
      <trkpt lat="43.90479" lon="7.50251">
        <ele>618.20001220703</ele>
        <time>2022-01-15T12:45:48.000Z</time>
      </trkpt>
      <trkpt lat="43.9048" lon="7.50258">
        <ele>618.79998779297</ele>
        <time>2022-01-15T12:45:50.000Z</time>
      </trkpt>
      <trkpt lat="43.90482" lon="7.50267">
        <ele>619.79998779297</ele>
        <time>2022-01-15T12:45:53.000Z</time>
      </trkpt>
      <trkpt lat="43.90483" lon="7.5027">
        <ele>620.20001220703</ele>
        <time>2022-01-15T12:45:54.000Z</time>
      </trkpt>
      <trkpt lat="43.90485" lon="7.50279">
        <ele>620.79998779297</ele>
        <time>2022-01-15T12:45:57.000Z</time>
      </trkpt>
      <trkpt lat="43.90487" lon="7.50287">
        <ele>621.40002441406</ele>
        <time>2022-01-15T12:46:00.000Z</time>
      </trkpt>
      <trkpt lat="43.90488" lon="7.50295">
        <ele>622</ele>
        <time>2022-01-15T12:46:03.000Z</time>
      </trkpt>
      <trkpt lat="43.90489" lon="7.5031">
        <ele>623.20001220703</ele>
        <time>2022-01-15T12:46:08.000Z</time>
      </trkpt>
      <trkpt lat="43.90487" lon="7.50321">
        <ele>624.20001220703</ele>
        <time>2022-01-15T12:46:12.000Z</time>
      </trkpt>
      <trkpt lat="43.90482" lon="7.50331">
        <ele>625.40002441406</ele>
        <time>2022-01-15T12:46:16.000Z</time>
      </trkpt>
      <trkpt lat="43.90471" lon="7.50343">
        <ele>626.40002441406</ele>
        <time>2022-01-15T12:46:22.000Z</time>
      </trkpt>
      <trkpt lat="43.90468" lon="7.50344">
        <ele>626.59997558594</ele>
        <time>2022-01-15T12:46:23.000Z</time>
      </trkpt>
      <trkpt lat="43.90449" lon="7.50357">
        <ele>627</ele>
        <time>2022-01-15T12:46:31.000Z</time>
      </trkpt>
      <trkpt lat="43.90433" lon="7.50372">
        <ele>627.20001220703</ele>
        <time>2022-01-15T12:46:38.000Z</time>
      </trkpt>
      <trkpt lat="43.9042" lon="7.50385">
        <ele>627</ele>
        <time>2022-01-15T12:46:44.000Z</time>
      </trkpt>
      <trkpt lat="43.90401" lon="7.50399">
        <ele>626.79998779297</ele>
        <time>2022-01-15T12:46:50.000Z</time>
      </trkpt>
      <trkpt lat="43.90382" lon="7.50421">
        <ele>626.59997558594</ele>
        <time>2022-01-15T12:46:57.000Z</time>
      </trkpt>
      <trkpt lat="43.90365" lon="7.50425">
        <ele>626.59997558594</ele>
        <time>2022-01-15T12:47:02.000Z</time>
      </trkpt>
      <trkpt lat="43.90349" lon="7.50419">
        <ele>627.40002441406</ele>
        <time>2022-01-15T12:47:07.000Z</time>
      </trkpt>
      <trkpt lat="43.90346" lon="7.50417">
        <ele>627.79998779297</ele>
        <time>2022-01-15T12:47:08.000Z</time>
      </trkpt>
      <trkpt lat="43.90336" lon="7.5041">
        <ele>628.40002441406</ele>
        <time>2022-01-15T12:47:12.000Z</time>
      </trkpt>
      <trkpt lat="43.90324" lon="7.50401">
        <ele>629.20001220703</ele>
        <time>2022-01-15T12:47:16.000Z</time>
      </trkpt>
      <trkpt lat="43.90319" lon="7.50396">
        <ele>629.59997558594</ele>
        <time>2022-01-15T12:47:18.000Z</time>
      </trkpt>
      <trkpt lat="43.90299" lon="7.50371">
        <ele>629.40002441406</ele>
        <time>2022-01-15T12:47:26.000Z</time>
      </trkpt>
      <trkpt lat="43.9028" lon="7.50356">
        <ele>629.59997558594</ele>
        <time>2022-01-15T12:47:32.000Z</time>
      </trkpt>
      <trkpt lat="43.90256" lon="7.50347">
        <ele>630.20001220703</ele>
        <time>2022-01-15T12:47:39.000Z</time>
      </trkpt>
      <trkpt lat="43.9024" lon="7.50332">
        <ele>630.59997558594</ele>
        <time>2022-01-15T12:47:45.000Z</time>
      </trkpt>
      <trkpt lat="43.90235" lon="7.50331">
        <ele>630.59997558594</ele>
        <time>2022-01-15T12:47:46.000Z</time>
      </trkpt>
      <trkpt lat="43.90225" lon="7.50336">
        <ele>630.59997558594</ele>
        <time>2022-01-15T12:47:49.000Z</time>
      </trkpt>
      <trkpt lat="43.90206" lon="7.50345">
        <ele>631.79998779297</ele>
        <time>2022-01-15T12:47:55.000Z</time>
      </trkpt>
      <trkpt lat="43.90203" lon="7.50345">
        <ele>632.20001220703</ele>
        <time>2022-01-15T12:47:56.000Z</time>
      </trkpt>
      <trkpt lat="43.90191" lon="7.50353">
        <ele>632.40002441406</ele>
        <time>2022-01-15T12:48:00.000Z</time>
      </trkpt>
      <trkpt lat="43.90183" lon="7.5037">
        <ele>633</ele>
        <time>2022-01-15T12:48:05.000Z</time>
      </trkpt>
      <trkpt lat="43.90175" lon="7.50374">
        <ele>634</ele>
        <time>2022-01-15T12:48:08.000Z</time>
      </trkpt>
      <trkpt lat="43.90172" lon="7.50374">
        <ele>634.20001220703</ele>
        <time>2022-01-15T12:48:09.000Z</time>
      </trkpt>
      <trkpt lat="43.9015" lon="7.50379">
        <ele>634.79998779297</ele>
        <time>2022-01-15T12:48:16.000Z</time>
      </trkpt>
      <trkpt lat="43.90145" lon="7.50382">
        <ele>635</ele>
        <time>2022-01-15T12:48:18.000Z</time>
      </trkpt>
      <trkpt lat="43.9013" lon="7.50385">
        <ele>636.20001220703</ele>
        <time>2022-01-15T12:48:23.000Z</time>
      </trkpt>
      <trkpt lat="43.90108" lon="7.50395">
        <ele>637.20001220703</ele>
        <time>2022-01-15T12:48:30.000Z</time>
      </trkpt>
      <trkpt lat="43.90098" lon="7.50411">
        <ele>637.20001220703</ele>
        <time>2022-01-15T12:48:35.000Z</time>
      </trkpt>
      <trkpt lat="43.90089" lon="7.50421">
        <ele>638.40002441406</ele>
        <time>2022-01-15T12:48:41.000Z</time>
      </trkpt>
      <trkpt lat="43.90085" lon="7.50428">
        <ele>638.20001220703</ele>
        <time>2022-01-15T12:48:44.000Z</time>
      </trkpt>
      <trkpt lat="43.90085" lon="7.50435">
        <ele>637.79998779297</ele>
        <time>2022-01-15T12:48:46.000Z</time>
      </trkpt>
      <trkpt lat="43.90086" lon="7.5044">
        <ele>637.20001220703</ele>
        <time>2022-01-15T12:48:48.000Z</time>
      </trkpt>
      <trkpt lat="43.90088" lon="7.5045">
        <ele>636.59997558594</ele>
        <time>2022-01-15T12:48:52.000Z</time>
      </trkpt>
      <trkpt lat="43.90089" lon="7.50457">
        <ele>636.20001220703</ele>
        <time>2022-01-15T12:48:54.000Z</time>
      </trkpt>
      <trkpt lat="43.90089" lon="7.5046">
        <ele>635.40002441406</ele>
        <time>2022-01-15T12:48:57.000Z</time>
      </trkpt>
      <trkpt lat="43.90089" lon="7.5046">
        <ele>635.20001220703</ele>
        <time>2022-01-15T12:48:58.000Z</time>
      </trkpt>
      <trkpt lat="43.9009" lon="7.50462">
        <ele>634.79998779297</ele>
        <time>2022-01-15T12:49:02.000Z</time>
      </trkpt>
      <trkpt lat="43.90091" lon="7.50467">
        <ele>634.79998779297</ele>
        <time>2022-01-15T12:49:04.000Z</time>
      </trkpt>
      <trkpt lat="43.90093" lon="7.50482">
        <ele>634.59997558594</ele>
        <time>2022-01-15T12:49:07.000Z</time>
      </trkpt>
      <trkpt lat="43.90094" lon="7.50489">
        <ele>634.20001220703</ele>
        <time>2022-01-15T12:49:08.000Z</time>
      </trkpt>
      <trkpt lat="43.90095" lon="7.50495">
        <ele>633.79998779297</ele>
        <time>2022-01-15T12:49:09.000Z</time>
      </trkpt>
      <trkpt lat="43.90097" lon="7.50518">
        <ele>632.59997558594</ele>
        <time>2022-01-15T12:49:12.000Z</time>
      </trkpt>
      <trkpt lat="43.90097" lon="7.50535">
        <ele>631.59997558594</ele>
        <time>2022-01-15T12:49:14.000Z</time>
      </trkpt>
      <trkpt lat="43.90098" lon="7.50543">
        <ele>631.20001220703</ele>
        <time>2022-01-15T12:49:15.000Z</time>
      </trkpt>
      <trkpt lat="43.90102" lon="7.50574">
        <ele>629.79998779297</ele>
        <time>2022-01-15T12:49:18.000Z</time>
      </trkpt>
      <trkpt lat="43.90106" lon="7.50593">
        <ele>628.59997558594</ele>
        <time>2022-01-15T12:49:20.000Z</time>
      </trkpt>
      <trkpt lat="43.90107" lon="7.50602">
        <ele>627.79998779297</ele>
        <time>2022-01-15T12:49:21.000Z</time>
      </trkpt>
      <trkpt lat="43.90107" lon="7.5061">
        <ele>627.40002441406</ele>
        <time>2022-01-15T12:49:22.000Z</time>
      </trkpt>
      <trkpt lat="43.90101" lon="7.50634">
        <ele>626</ele>
        <time>2022-01-15T12:49:25.000Z</time>
      </trkpt>
      <trkpt lat="43.90098" lon="7.50642">
        <ele>626</ele>
        <time>2022-01-15T12:49:26.000Z</time>
      </trkpt>
      <trkpt lat="43.90091" lon="7.50669">
        <ele>624.40002441406</ele>
        <time>2022-01-15T12:49:29.000Z</time>
      </trkpt>
      <trkpt lat="43.90086" lon="7.50687">
        <ele>623.20001220703</ele>
        <time>2022-01-15T12:49:31.000Z</time>
      </trkpt>
      <trkpt lat="43.90081" lon="7.50707">
        <ele>622</ele>
        <time>2022-01-15T12:49:33.000Z</time>
      </trkpt>
      <trkpt lat="43.90079" lon="7.50726">
        <ele>621</ele>
        <time>2022-01-15T12:49:35.000Z</time>
      </trkpt>
      <trkpt lat="43.90078" lon="7.50735">
        <ele>620.59997558594</ele>
        <time>2022-01-15T12:49:36.000Z</time>
      </trkpt>
      <trkpt lat="43.90075" lon="7.50748">
        <ele>619.40002441406</ele>
        <time>2022-01-15T12:49:38.000Z</time>
      </trkpt>
      <trkpt lat="43.90075" lon="7.50754">
        <ele>619</ele>
        <time>2022-01-15T12:49:39.000Z</time>
      </trkpt>
      <trkpt lat="43.90076" lon="7.50772">
        <ele>618</ele>
        <time>2022-01-15T12:49:42.000Z</time>
      </trkpt>
      <trkpt lat="43.90077" lon="7.50783">
        <ele>617.59997558594</ele>
        <time>2022-01-15T12:49:44.000Z</time>
      </trkpt>
      <trkpt lat="43.9008" lon="7.50794">
        <ele>616.79998779297</ele>
        <time>2022-01-15T12:49:46.000Z</time>
      </trkpt>
      <trkpt lat="43.90085" lon="7.50806">
        <ele>616.40002441406</ele>
        <time>2022-01-15T12:49:48.000Z</time>
      </trkpt>
      <trkpt lat="43.90088" lon="7.50813">
        <ele>616.20001220703</ele>
        <time>2022-01-15T12:49:49.000Z</time>
      </trkpt>
      <trkpt lat="43.90093" lon="7.50828">
        <ele>615.59997558594</ele>
        <time>2022-01-15T12:49:51.000Z</time>
      </trkpt>
      <trkpt lat="43.90095" lon="7.50846">
        <ele>614.79998779297</ele>
        <time>2022-01-15T12:49:53.000Z</time>
      </trkpt>
      <trkpt lat="43.90096" lon="7.50853">
        <ele>614.40002441406</ele>
        <time>2022-01-15T12:49:54.000Z</time>
      </trkpt>
      <trkpt lat="43.90096" lon="7.50859">
        <ele>614</ele>
        <time>2022-01-15T12:49:55.000Z</time>
      </trkpt>
      <trkpt lat="43.90096" lon="7.50871">
        <ele>613</ele>
        <time>2022-01-15T12:49:57.000Z</time>
      </trkpt>
      <trkpt lat="43.90092" lon="7.50887">
        <ele>612.40002441406</ele>
        <time>2022-01-15T12:50:00.000Z</time>
      </trkpt>
      <trkpt lat="43.90089" lon="7.50894">
        <ele>612.40002441406</ele>
        <time>2022-01-15T12:50:01.000Z</time>
      </trkpt>
      <trkpt lat="43.90087" lon="7.50902">
        <ele>611.79998779297</ele>
        <time>2022-01-15T12:50:02.000Z</time>
      </trkpt>
      <trkpt lat="43.90082" lon="7.50919">
        <ele>610.20001220703</ele>
        <time>2022-01-15T12:50:04.000Z</time>
      </trkpt>
      <trkpt lat="43.90079" lon="7.50928">
        <ele>609.20001220703</ele>
        <time>2022-01-15T12:50:05.000Z</time>
      </trkpt>
      <trkpt lat="43.90077" lon="7.50939">
        <ele>608</ele>
        <time>2022-01-15T12:50:06.000Z</time>
      </trkpt>
      <trkpt lat="43.90075" lon="7.5095">
        <ele>607</ele>
        <time>2022-01-15T12:50:07.000Z</time>
      </trkpt>
      <trkpt lat="43.90075" lon="7.50962">
        <ele>606</ele>
        <time>2022-01-15T12:50:08.000Z</time>
      </trkpt>
      <trkpt lat="43.90076" lon="7.50973">
        <ele>605.40002441406</ele>
        <time>2022-01-15T12:50:09.000Z</time>
      </trkpt>
      <trkpt lat="43.90077" lon="7.50986">
        <ele>604.79998779297</ele>
        <time>2022-01-15T12:50:10.000Z</time>
      </trkpt>
      <trkpt lat="43.90078" lon="7.50999">
        <ele>603.79998779297</ele>
        <time>2022-01-15T12:50:11.000Z</time>
      </trkpt>
      <trkpt lat="43.90081" lon="7.5101">
        <ele>602.40002441406</ele>
        <time>2022-01-15T12:50:12.000Z</time>
      </trkpt>
      <trkpt lat="43.90084" lon="7.5102">
        <ele>601.79998779297</ele>
        <time>2022-01-15T12:50:13.000Z</time>
      </trkpt>
      <trkpt lat="43.90088" lon="7.51029">
        <ele>601.20001220703</ele>
        <time>2022-01-15T12:50:14.000Z</time>
      </trkpt>
      <trkpt lat="43.90091" lon="7.51035">
        <ele>600.40002441406</ele>
        <time>2022-01-15T12:50:15.000Z</time>
      </trkpt>
      <trkpt lat="43.90096" lon="7.51049">
        <ele>600.79998779297</ele>
        <time>2022-01-15T12:50:17.000Z</time>
      </trkpt>
      <trkpt lat="43.901" lon="7.51056">
        <ele>602.59997558594</ele>
        <time>2022-01-15T12:50:19.000Z</time>
      </trkpt>
      <trkpt lat="43.90102" lon="7.51058">
        <ele>604</ele>
        <time>2022-01-15T12:50:20.000Z</time>
      </trkpt>
      <trkpt lat="43.90104" lon="7.51061">
        <ele>604.79998779297</ele>
        <time>2022-01-15T12:50:21.000Z</time>
      </trkpt>
      <trkpt lat="43.90105" lon="7.51062">
        <ele>605.40002441406</ele>
        <time>2022-01-15T12:50:22.000Z</time>
      </trkpt>
      <trkpt lat="43.90108" lon="7.51067">
        <ele>606.40002441406</ele>
        <time>2022-01-15T12:50:25.000Z</time>
      </trkpt>
      <trkpt lat="43.90108" lon="7.51069">
        <ele>606.59997558594</ele>
        <time>2022-01-15T12:50:26.000Z</time>
      </trkpt>
      <trkpt lat="43.90107" lon="7.51076">
        <ele>606.79998779297</ele>
        <time>2022-01-15T12:50:30.000Z</time>
      </trkpt>
      <trkpt lat="43.9011" lon="7.5109">
        <ele>607.20001220703</ele>
        <time>2022-01-15T12:50:36.000Z</time>
      </trkpt>
      <trkpt lat="43.90112" lon="7.51101">
        <ele>607.59997558594</ele>
        <time>2022-01-15T12:50:40.000Z</time>
      </trkpt>
      <trkpt lat="43.90114" lon="7.51121">
        <ele>608.40002441406</ele>
        <time>2022-01-15T12:50:46.000Z</time>
      </trkpt>
      <trkpt lat="43.90114" lon="7.51124">
        <ele>608.59997558594</ele>
        <time>2022-01-15T12:50:47.000Z</time>
      </trkpt>
      <trkpt lat="43.90117" lon="7.51148">
        <ele>609.79998779297</ele>
        <time>2022-01-15T12:50:54.000Z</time>
      </trkpt>
      <trkpt lat="43.90117" lon="7.51154">
        <ele>610.20001220703</ele>
        <time>2022-01-15T12:50:56.000Z</time>
      </trkpt>
      <trkpt lat="43.90118" lon="7.51164">
        <ele>610.79998779297</ele>
        <time>2022-01-15T12:50:59.000Z</time>
      </trkpt>
      <trkpt lat="43.90119" lon="7.51182">
        <ele>611.79998779297</ele>
        <time>2022-01-15T12:51:05.000Z</time>
      </trkpt>
      <trkpt lat="43.90114" lon="7.51203">
        <ele>612.40002441406</ele>
        <time>2022-01-15T12:51:12.000Z</time>
      </trkpt>
      <trkpt lat="43.9011" lon="7.51214">
        <ele>613</ele>
        <time>2022-01-15T12:51:16.000Z</time>
      </trkpt>
      <trkpt lat="43.90107" lon="7.51217">
        <ele>613.20001220703</ele>
        <time>2022-01-15T12:51:18.000Z</time>
      </trkpt>
      <trkpt lat="43.90106" lon="7.51221">
        <ele>614</ele>
        <time>2022-01-15T12:51:21.000Z</time>
      </trkpt>
      <trkpt lat="43.90104" lon="7.51226">
        <ele>614.20001220703</ele>
        <time>2022-01-15T12:51:23.000Z</time>
      </trkpt>
      <trkpt lat="43.90097" lon="7.5123">
        <ele>615</ele>
        <time>2022-01-15T12:51:30.000Z</time>
      </trkpt>
      <trkpt lat="43.90097" lon="7.51231">
        <ele>615.20001220703</ele>
        <time>2022-01-15T12:51:31.000Z</time>
      </trkpt>
      <trkpt lat="43.90096" lon="7.51233">
        <ele>615.40002441406</ele>
        <time>2022-01-15T12:51:37.000Z</time>
      </trkpt>
      <trkpt lat="43.90097" lon="7.51234">
        <ele>615.20001220703</ele>
        <time>2022-01-15T12:51:52.000Z</time>
      </trkpt>
      <trkpt lat="43.90097" lon="7.51236">
        <ele>615.40002441406</ele>
        <time>2022-01-15T12:52:01.000Z</time>
      </trkpt>
      <trkpt lat="43.90098" lon="7.51237">
        <ele>615.59997558594</ele>
        <time>2022-01-15T12:52:06.000Z</time>
      </trkpt>
      <trkpt lat="43.90098" lon="7.51236">
        <ele>616</ele>
        <time>2022-01-15T12:52:11.000Z</time>
      </trkpt>
      <trkpt lat="43.90099" lon="7.51234">
        <ele>616</ele>
        <time>2022-01-15T12:52:17.000Z</time>
      </trkpt>
      <trkpt lat="43.90099" lon="7.51234">
        <ele>615.79998779297</ele>
        <time>2022-01-15T12:52:24.000Z</time>
      </trkpt>
      <trkpt lat="43.90099" lon="7.51234">
        <ele>616</ele>
        <time>2022-01-15T12:52:34.000Z</time>
      </trkpt>
      <trkpt lat="43.901" lon="7.51234">
        <ele>616</ele>
        <time>2022-01-15T12:52:42.000Z</time>
      </trkpt>
      <trkpt lat="43.90099" lon="7.51233">
        <ele>616</ele>
        <time>2022-01-15T12:52:57.000Z</time>
      </trkpt>
      <trkpt lat="43.901" lon="7.51233">
        <ele>616.20001220703</ele>
        <time>2022-01-15T12:53:12.000Z</time>
      </trkpt>
      <trkpt lat="43.901" lon="7.51233">
        <ele>616.20001220703</ele>
        <time>2022-01-15T12:53:19.000Z</time>
      </trkpt>
      <trkpt lat="43.90099" lon="7.51233">
        <ele>616.20001220703</ele>
        <time>2022-01-15T12:53:30.000Z</time>
      </trkpt>
      <trkpt lat="43.90099" lon="7.51233">
        <ele>617</ele>
        <time>2022-01-15T12:53:37.000Z</time>
      </trkpt>
      <trkpt lat="43.90099" lon="7.51233">
        <ele>616.40002441406</ele>
        <time>2022-01-15T12:53:44.000Z</time>
      </trkpt>
      <trkpt lat="43.90099" lon="7.51233">
        <ele>616.40002441406</ele>
        <time>2022-01-15T12:53:50.000Z</time>
      </trkpt>
      <trkpt lat="43.90099" lon="7.51233">
        <ele>617</ele>
        <time>2022-01-15T12:53:56.000Z</time>
      </trkpt>
      <trkpt lat="43.901" lon="7.51233">
        <ele>616.40002441406</ele>
        <time>2022-01-15T12:54:03.000Z</time>
      </trkpt>
      <trkpt lat="43.90098" lon="7.51234">
        <ele>616</ele>
        <time>2022-01-15T12:54:08.000Z</time>
      </trkpt>
      <trkpt lat="43.90099" lon="7.51233">
        <ele>615.79998779297</ele>
        <time>2022-01-15T12:54:13.000Z</time>
      </trkpt>
      <trkpt lat="43.901" lon="7.51237">
        <ele>616</ele>
        <time>2022-01-15T12:54:20.000Z</time>
      </trkpt>
      <trkpt lat="43.901" lon="7.51239">
        <ele>616.40002441406</ele>
        <time>2022-01-15T12:54:23.000Z</time>
      </trkpt>
      <trkpt lat="43.90101" lon="7.51244">
        <ele>616.20001220703</ele>
        <time>2022-01-15T12:54:26.000Z</time>
      </trkpt>
      <trkpt lat="43.90105" lon="7.51258">
        <ele>616.40002441406</ele>
        <time>2022-01-15T12:54:32.000Z</time>
      </trkpt>
      <trkpt lat="43.90109" lon="7.51274">
        <ele>616.59997558594</ele>
        <time>2022-01-15T12:54:38.000Z</time>
      </trkpt>
      <trkpt lat="43.90115" lon="7.51298">
        <ele>617</ele>
        <time>2022-01-15T12:54:46.000Z</time>
      </trkpt>
      <trkpt lat="43.9012" lon="7.51311">
        <ele>617.20001220703</ele>
        <time>2022-01-15T12:54:51.000Z</time>
      </trkpt>
      <trkpt lat="43.90124" lon="7.51321">
        <ele>617.20001220703</ele>
        <time>2022-01-15T12:54:55.000Z</time>
      </trkpt>
      <trkpt lat="43.90128" lon="7.51335">
        <ele>616.79998779297</ele>
        <time>2022-01-15T12:54:59.000Z</time>
      </trkpt>
      <trkpt lat="43.90127" lon="7.51338">
        <ele>616.59997558594</ele>
        <time>2022-01-15T12:55:00.000Z</time>
      </trkpt>
      <trkpt lat="43.90118" lon="7.51343">
        <ele>616.40002441406</ele>
        <time>2022-01-15T12:55:03.000Z</time>
      </trkpt>
      <trkpt lat="43.90114" lon="7.51341">
        <ele>616</ele>
        <time>2022-01-15T12:55:04.000Z</time>
      </trkpt>
      <trkpt lat="43.9011" lon="7.5134">
        <ele>615.79998779297</ele>
        <time>2022-01-15T12:55:05.000Z</time>
      </trkpt>
      <trkpt lat="43.901" lon="7.51337">
        <ele>615</ele>
        <time>2022-01-15T12:55:08.000Z</time>
      </trkpt>
      <trkpt lat="43.90094" lon="7.51333">
        <ele>615</ele>
        <time>2022-01-15T12:55:10.000Z</time>
      </trkpt>
      <trkpt lat="43.90089" lon="7.51326">
        <ele>615.40002441406</ele>
        <time>2022-01-15T12:55:13.000Z</time>
      </trkpt>
      <trkpt lat="43.90085" lon="7.51323">
        <ele>616</ele>
        <time>2022-01-15T12:55:15.000Z</time>
      </trkpt>
      <trkpt lat="43.9008" lon="7.51319">
        <ele>617.40002441406</ele>
        <time>2022-01-15T12:55:18.000Z</time>
      </trkpt>
      <trkpt lat="43.90076" lon="7.5131">
        <ele>618.59997558594</ele>
        <time>2022-01-15T12:55:21.000Z</time>
      </trkpt>
      <trkpt lat="43.90074" lon="7.51303">
        <ele>619</ele>
        <time>2022-01-15T12:55:23.000Z</time>
      </trkpt>
      <trkpt lat="43.90062" lon="7.51278">
        <ele>619</ele>
        <time>2022-01-15T12:55:30.000Z</time>
      </trkpt>
      <trkpt lat="43.90049" lon="7.51265">
        <ele>618.79998779297</ele>
        <time>2022-01-15T12:55:36.000Z</time>
      </trkpt>
      <trkpt lat="43.90042" lon="7.51262">
        <ele>619.79998779297</ele>
        <time>2022-01-15T12:55:41.000Z</time>
      </trkpt>
      <trkpt lat="43.9004" lon="7.51262">
        <ele>619.79998779297</ele>
        <time>2022-01-15T12:55:42.000Z</time>
      </trkpt>
      <trkpt lat="43.90032" lon="7.51264">
        <ele>620.79998779297</ele>
        <time>2022-01-15T12:55:47.000Z</time>
      </trkpt>
      <trkpt lat="43.90028" lon="7.51265">
        <ele>621.20001220703</ele>
        <time>2022-01-15T12:55:49.000Z</time>
      </trkpt>
      <trkpt lat="43.90019" lon="7.51268">
        <ele>622</ele>
        <time>2022-01-15T12:55:53.000Z</time>
      </trkpt>
      <trkpt lat="43.90013" lon="7.51271">
        <ele>623.20001220703</ele>
        <time>2022-01-15T12:55:56.000Z</time>
      </trkpt>
      <trkpt lat="43.90007" lon="7.51274">
        <ele>624.20001220703</ele>
        <time>2022-01-15T12:55:59.000Z</time>
      </trkpt>
      <trkpt lat="43.90002" lon="7.51276">
        <ele>625.59997558594</ele>
        <time>2022-01-15T12:56:02.000Z</time>
      </trkpt>
      <trkpt lat="43.90001" lon="7.51276">
        <ele>626</ele>
        <time>2022-01-15T12:56:03.000Z</time>
      </trkpt>
      <trkpt lat="43.89993" lon="7.51277">
        <ele>626.59997558594</ele>
        <time>2022-01-15T12:56:07.000Z</time>
      </trkpt>
      <trkpt lat="43.89987" lon="7.51277">
        <ele>627</ele>
        <time>2022-01-15T12:56:10.000Z</time>
      </trkpt>
      <trkpt lat="43.89981" lon="7.51273">
        <ele>627.59997558594</ele>
        <time>2022-01-15T12:56:15.000Z</time>
      </trkpt>
      <trkpt lat="43.89981" lon="7.5127">
        <ele>627.79998779297</ele>
        <time>2022-01-15T12:56:21.000Z</time>
      </trkpt>
      <trkpt lat="43.8998" lon="7.51269">
        <ele>627.79998779297</ele>
        <time>2022-01-15T12:56:33.000Z</time>
      </trkpt>
      <trkpt lat="43.8998" lon="7.51268">
        <ele>627.79998779297</ele>
        <time>2022-01-15T12:56:51.000Z</time>
      </trkpt>
      <trkpt lat="43.8998" lon="7.51269">
        <ele>628</ele>
        <time>2022-01-15T12:57:00.000Z</time>
      </trkpt>
      <trkpt lat="43.89979" lon="7.51272">
        <ele>627.59997558594</ele>
        <time>2022-01-15T12:57:10.000Z</time>
      </trkpt>
      <trkpt lat="43.89979" lon="7.51273">
        <ele>627.79998779297</ele>
        <time>2022-01-15T12:57:15.000Z</time>
      </trkpt>
      <trkpt lat="43.89978" lon="7.51274">
        <ele>628.20001220703</ele>
        <time>2022-01-15T12:57:24.000Z</time>
      </trkpt>
      <trkpt lat="43.89973" lon="7.51278">
        <ele>628</ele>
        <time>2022-01-15T12:57:31.000Z</time>
      </trkpt>
      <trkpt lat="43.8996" lon="7.51284">
        <ele>627.40002441406</ele>
        <time>2022-01-15T12:57:35.000Z</time>
      </trkpt>
      <trkpt lat="43.89951" lon="7.51289">
        <ele>626.40002441406</ele>
        <time>2022-01-15T12:57:37.000Z</time>
      </trkpt>
      <trkpt lat="43.89943" lon="7.51296">
        <ele>624.79998779297</ele>
        <time>2022-01-15T12:57:39.000Z</time>
      </trkpt>
      <trkpt lat="43.89941" lon="7.51297">
        <ele>623.40002441406</ele>
        <time>2022-01-15T12:57:40.000Z</time>
      </trkpt>
      <trkpt lat="43.89938" lon="7.513">
        <ele>622.40002441406</ele>
        <time>2022-01-15T12:57:41.000Z</time>
      </trkpt>
      <trkpt lat="43.89935" lon="7.51302">
        <ele>621.20001220703</ele>
        <time>2022-01-15T12:57:42.000Z</time>
      </trkpt>
      <trkpt lat="43.89931" lon="7.51303">
        <ele>619.79998779297</ele>
        <time>2022-01-15T12:57:43.000Z</time>
      </trkpt>
      <trkpt lat="43.89926" lon="7.51306">
        <ele>618.79998779297</ele>
        <time>2022-01-15T12:57:44.000Z</time>
      </trkpt>
      <trkpt lat="43.89922" lon="7.51308">
        <ele>617.59997558594</ele>
        <time>2022-01-15T12:57:45.000Z</time>
      </trkpt>
      <trkpt lat="43.89918" lon="7.51312">
        <ele>616.40002441406</ele>
        <time>2022-01-15T12:57:46.000Z</time>
      </trkpt>
      <trkpt lat="43.89914" lon="7.51316">
        <ele>617.40002441406</ele>
        <time>2022-01-15T12:57:47.000Z</time>
      </trkpt>
      <trkpt lat="43.89909" lon="7.51319">
        <ele>617</ele>
        <time>2022-01-15T12:57:48.000Z</time>
      </trkpt>
      <trkpt lat="43.899" lon="7.51326">
        <ele>617</ele>
        <time>2022-01-15T12:57:50.000Z</time>
      </trkpt>
      <trkpt lat="43.8989" lon="7.5133">
        <ele>616.59997558594</ele>
        <time>2022-01-15T12:57:52.000Z</time>
      </trkpt>
      <trkpt lat="43.89886" lon="7.51332">
        <ele>615.40002441406</ele>
        <time>2022-01-15T12:57:53.000Z</time>
      </trkpt>
      <trkpt lat="43.89882" lon="7.51334">
        <ele>614.79998779297</ele>
        <time>2022-01-15T12:57:54.000Z</time>
      </trkpt>
      <trkpt lat="43.89879" lon="7.51339">
        <ele>613.59997558594</ele>
        <time>2022-01-15T12:57:55.000Z</time>
      </trkpt>
      <trkpt lat="43.89869" lon="7.51349">
        <ele>612.79998779297</ele>
        <time>2022-01-15T12:57:57.000Z</time>
      </trkpt>
      <trkpt lat="43.89864" lon="7.51353">
        <ele>612.40002441406</ele>
        <time>2022-01-15T12:57:58.000Z</time>
      </trkpt>
      <trkpt lat="43.89858" lon="7.51359">
        <ele>611.20001220703</ele>
        <time>2022-01-15T12:58:00.000Z</time>
      </trkpt>
      <trkpt lat="43.8985" lon="7.51368">
        <ele>609.59997558594</ele>
        <time>2022-01-15T12:58:02.000Z</time>
      </trkpt>
      <trkpt lat="43.89834" lon="7.51372">
        <ele>608.59997558594</ele>
        <time>2022-01-15T12:58:05.000Z</time>
      </trkpt>
      <trkpt lat="43.89822" lon="7.51375">
        <ele>607.59997558594</ele>
        <time>2022-01-15T12:58:07.000Z</time>
      </trkpt>
      <trkpt lat="43.89816" lon="7.51375">
        <ele>607.20001220703</ele>
        <time>2022-01-15T12:58:08.000Z</time>
      </trkpt>
      <trkpt lat="43.89812" lon="7.51377">
        <ele>606.79998779297</ele>
        <time>2022-01-15T12:58:09.000Z</time>
      </trkpt>
      <trkpt lat="43.89807" lon="7.51378">
        <ele>606.59997558594</ele>
        <time>2022-01-15T12:58:10.000Z</time>
      </trkpt>
      <trkpt lat="43.89803" lon="7.51381">
        <ele>605.40002441406</ele>
        <time>2022-01-15T12:58:11.000Z</time>
      </trkpt>
      <trkpt lat="43.898" lon="7.51386">
        <ele>604.40002441406</ele>
        <time>2022-01-15T12:58:12.000Z</time>
      </trkpt>
      <trkpt lat="43.89793" lon="7.51395">
        <ele>603.59997558594</ele>
        <time>2022-01-15T12:58:14.000Z</time>
      </trkpt>
      <trkpt lat="43.89789" lon="7.51397">
        <ele>603.20001220703</ele>
        <time>2022-01-15T12:58:15.000Z</time>
      </trkpt>
      <trkpt lat="43.89785" lon="7.51401">
        <ele>602.79998779297</ele>
        <time>2022-01-15T12:58:16.000Z</time>
      </trkpt>
      <trkpt lat="43.89781" lon="7.51407">
        <ele>602.20001220703</ele>
        <time>2022-01-15T12:58:17.000Z</time>
      </trkpt>
      <trkpt lat="43.89778" lon="7.51412">
        <ele>601.59997558594</ele>
        <time>2022-01-15T12:58:18.000Z</time>
      </trkpt>
      <trkpt lat="43.89774" lon="7.51418">
        <ele>601</ele>
        <time>2022-01-15T12:58:19.000Z</time>
      </trkpt>
      <trkpt lat="43.89771" lon="7.51422">
        <ele>600.40002441406</ele>
        <time>2022-01-15T12:58:20.000Z</time>
      </trkpt>
      <trkpt lat="43.89763" lon="7.51435">
        <ele>599.59997558594</ele>
        <time>2022-01-15T12:58:22.000Z</time>
      </trkpt>
      <trkpt lat="43.89757" lon="7.5144">
        <ele>599.20001220703</ele>
        <time>2022-01-15T12:58:23.000Z</time>
      </trkpt>
      <trkpt lat="43.89751" lon="7.51442">
        <ele>598.59997558594</ele>
        <time>2022-01-15T12:58:24.000Z</time>
      </trkpt>
      <trkpt lat="43.89739" lon="7.51447">
        <ele>597.59997558594</ele>
        <time>2022-01-15T12:58:26.000Z</time>
      </trkpt>
      <trkpt lat="43.89733" lon="7.51449">
        <ele>597</ele>
        <time>2022-01-15T12:58:27.000Z</time>
      </trkpt>
      <trkpt lat="43.8973" lon="7.5145">
        <ele>597</ele>
        <time>2022-01-15T12:58:28.000Z</time>
      </trkpt>
      <trkpt lat="43.89719" lon="7.5145">
        <ele>595.79998779297</ele>
        <time>2022-01-15T12:58:30.000Z</time>
      </trkpt>
      <trkpt lat="43.89702" lon="7.51466">
        <ele>594.40002441406</ele>
        <time>2022-01-15T12:58:34.000Z</time>
      </trkpt>
      <trkpt lat="43.89691" lon="7.51476">
        <ele>593.79998779297</ele>
        <time>2022-01-15T12:58:36.000Z</time>
      </trkpt>
      <trkpt lat="43.89687" lon="7.51483">
        <ele>593.40002441406</ele>
        <time>2022-01-15T12:58:37.000Z</time>
      </trkpt>
      <trkpt lat="43.89684" lon="7.51491">
        <ele>593</ele>
        <time>2022-01-15T12:58:38.000Z</time>
      </trkpt>
      <trkpt lat="43.89679" lon="7.51505">
        <ele>592</ele>
        <time>2022-01-15T12:58:40.000Z</time>
      </trkpt>
      <trkpt lat="43.8967" lon="7.51526">
        <ele>590.79998779297</ele>
        <time>2022-01-15T12:58:42.000Z</time>
      </trkpt>
      <trkpt lat="43.89666" lon="7.51533">
        <ele>590.79998779297</ele>
        <time>2022-01-15T12:58:43.000Z</time>
      </trkpt>
      <trkpt lat="43.8966" lon="7.51536">
        <ele>590.40002441406</ele>
        <time>2022-01-15T12:58:44.000Z</time>
      </trkpt>
      <trkpt lat="43.89654" lon="7.5154">
        <ele>589</ele>
        <time>2022-01-15T12:58:45.000Z</time>
      </trkpt>
      <trkpt lat="43.89648" lon="7.51543">
        <ele>588.20001220703</ele>
        <time>2022-01-15T12:58:46.000Z</time>
      </trkpt>
      <trkpt lat="43.89642" lon="7.51545">
        <ele>587.40002441406</ele>
        <time>2022-01-15T12:58:47.000Z</time>
      </trkpt>
      <trkpt lat="43.89637" lon="7.51548">
        <ele>586.40002441406</ele>
        <time>2022-01-15T12:58:48.000Z</time>
      </trkpt>
      <trkpt lat="43.89632" lon="7.51552">
        <ele>586</ele>
        <time>2022-01-15T12:58:49.000Z</time>
      </trkpt>
      <trkpt lat="43.89627" lon="7.51557">
        <ele>585.20001220703</ele>
        <time>2022-01-15T12:58:50.000Z</time>
      </trkpt>
      <trkpt lat="43.89619" lon="7.5156">
        <ele>584.40002441406</ele>
        <time>2022-01-15T12:58:51.000Z</time>
      </trkpt>
      <trkpt lat="43.89612" lon="7.51561">
        <ele>583.79998779297</ele>
        <time>2022-01-15T12:58:52.000Z</time>
      </trkpt>
      <trkpt lat="43.89605" lon="7.51562">
        <ele>582.79998779297</ele>
        <time>2022-01-15T12:58:53.000Z</time>
      </trkpt>
      <trkpt lat="43.89598" lon="7.51563">
        <ele>581.79998779297</ele>
        <time>2022-01-15T12:58:54.000Z</time>
      </trkpt>
      <trkpt lat="43.89592" lon="7.51564">
        <ele>580.79998779297</ele>
        <time>2022-01-15T12:58:55.000Z</time>
      </trkpt>
      <trkpt lat="43.89586" lon="7.51567">
        <ele>579.79998779297</ele>
        <time>2022-01-15T12:58:56.000Z</time>
      </trkpt>
      <trkpt lat="43.8958" lon="7.51573">
        <ele>578.59997558594</ele>
        <time>2022-01-15T12:58:57.000Z</time>
      </trkpt>
      <trkpt lat="43.89575" lon="7.51578">
        <ele>577.40002441406</ele>
        <time>2022-01-15T12:58:58.000Z</time>
      </trkpt>
      <trkpt lat="43.89567" lon="7.51584">
        <ele>576</ele>
        <time>2022-01-15T12:59:00.000Z</time>
      </trkpt>
      <trkpt lat="43.89563" lon="7.51585">
        <ele>575.20001220703</ele>
        <time>2022-01-15T12:59:04.000Z</time>
      </trkpt>
      <trkpt lat="43.89562" lon="7.51585">
        <ele>575</ele>
        <time>2022-01-15T12:59:10.000Z</time>
      </trkpt>
      <trkpt lat="43.89561" lon="7.51585">
        <ele>573.79998779297</ele>
        <time>2022-01-15T12:59:15.000Z</time>
      </trkpt>
      <trkpt lat="43.89561" lon="7.51585">
        <ele>573.59997558594</ele>
        <time>2022-01-15T12:59:16.000Z</time>
      </trkpt>
      <trkpt lat="43.89561" lon="7.51586">
        <ele>572.79998779297</ele>
        <time>2022-01-15T12:59:20.000Z</time>
      </trkpt>
      <trkpt lat="43.8956" lon="7.51586">
        <ele>571.59997558594</ele>
        <time>2022-01-15T12:59:25.000Z</time>
      </trkpt>
      <trkpt lat="43.89555" lon="7.51588">
        <ele>570.79998779297</ele>
        <time>2022-01-15T12:59:28.000Z</time>
      </trkpt>
      <trkpt lat="43.89552" lon="7.51589">
        <ele>570.59997558594</ele>
        <time>2022-01-15T12:59:29.000Z</time>
      </trkpt>
      <trkpt lat="43.89548" lon="7.51592">
        <ele>570.20001220703</ele>
        <time>2022-01-15T12:59:30.000Z</time>
      </trkpt>
      <trkpt lat="43.89543" lon="7.51596">
        <ele>569.59997558594</ele>
        <time>2022-01-15T12:59:31.000Z</time>
      </trkpt>
      <trkpt lat="43.89539" lon="7.516">
        <ele>568.59997558594</ele>
        <time>2022-01-15T12:59:32.000Z</time>
      </trkpt>
      <trkpt lat="43.89533" lon="7.51603">
        <ele>567.59997558594</ele>
        <time>2022-01-15T12:59:33.000Z</time>
      </trkpt>
      <trkpt lat="43.89528" lon="7.51605">
        <ele>566.79998779297</ele>
        <time>2022-01-15T12:59:34.000Z</time>
      </trkpt>
      <trkpt lat="43.89523" lon="7.51606">
        <ele>565.59997558594</ele>
        <time>2022-01-15T12:59:35.000Z</time>
      </trkpt>
      <trkpt lat="43.89519" lon="7.51606">
        <ele>564.59997558594</ele>
        <time>2022-01-15T12:59:36.000Z</time>
      </trkpt>
      <trkpt lat="43.89515" lon="7.51606">
        <ele>564.20001220703</ele>
        <time>2022-01-15T12:59:37.000Z</time>
      </trkpt>
      <trkpt lat="43.89502" lon="7.51611">
        <ele>563.79998779297</ele>
        <time>2022-01-15T12:59:40.000Z</time>
      </trkpt>
      <trkpt lat="43.89497" lon="7.51615">
        <ele>563.79998779297</ele>
        <time>2022-01-15T12:59:41.000Z</time>
      </trkpt>
      <trkpt lat="43.89488" lon="7.5162">
        <ele>563.20001220703</ele>
        <time>2022-01-15T12:59:43.000Z</time>
      </trkpt>
      <trkpt lat="43.89482" lon="7.51624">
        <ele>562.79998779297</ele>
        <time>2022-01-15T12:59:45.000Z</time>
      </trkpt>
      <trkpt lat="43.89472" lon="7.51639">
        <ele>562</ele>
        <time>2022-01-15T12:59:50.000Z</time>
      </trkpt>
      <trkpt lat="43.89463" lon="7.51655">
        <ele>560.79998779297</ele>
        <time>2022-01-15T12:59:54.000Z</time>
      </trkpt>
      <trkpt lat="43.89458" lon="7.51655">
        <ele>559.79998779297</ele>
        <time>2022-01-15T12:59:56.000Z</time>
      </trkpt>
      <trkpt lat="43.89456" lon="7.51656">
        <ele>559.79998779297</ele>
        <time>2022-01-15T12:59:57.000Z</time>
      </trkpt>
      <trkpt lat="43.89454" lon="7.51659">
        <ele>559.20001220703</ele>
        <time>2022-01-15T13:00:02.000Z</time>
      </trkpt>
      <trkpt lat="43.89453" lon="7.51659">
        <ele>558.59997558594</ele>
        <time>2022-01-15T13:00:07.000Z</time>
      </trkpt>
      <trkpt lat="43.89452" lon="7.51659">
        <ele>558</ele>
        <time>2022-01-15T13:00:11.000Z</time>
      </trkpt>
      <trkpt lat="43.89452" lon="7.51659">
        <ele>557.40002441406</ele>
        <time>2022-01-15T13:00:13.000Z</time>
      </trkpt>
      <trkpt lat="43.8945" lon="7.5166">
        <ele>556.40002441406</ele>
        <time>2022-01-15T13:00:16.000Z</time>
      </trkpt>
      <trkpt lat="43.89449" lon="7.51661">
        <ele>556.40002441406</ele>
        <time>2022-01-15T13:00:19.000Z</time>
      </trkpt>
      <trkpt lat="43.89447" lon="7.51663">
        <ele>556.59997558594</ele>
        <time>2022-01-15T13:00:26.000Z</time>
      </trkpt>
      <trkpt lat="43.89444" lon="7.51665">
        <ele>556</ele>
        <time>2022-01-15T13:00:34.000Z</time>
      </trkpt>
      <trkpt lat="43.89444" lon="7.51664">
        <ele>555.20001220703</ele>
        <time>2022-01-15T13:00:40.000Z</time>
      </trkpt>
      <trkpt lat="43.89442" lon="7.51665">
        <ele>554</ele>
        <time>2022-01-15T13:00:45.000Z</time>
      </trkpt>
      <trkpt lat="43.8944" lon="7.51667">
        <ele>553.79998779297</ele>
        <time>2022-01-15T13:00:46.000Z</time>
      </trkpt>
      <trkpt lat="43.8943" lon="7.51668">
        <ele>553.40002441406</ele>
        <time>2022-01-15T13:00:50.000Z</time>
      </trkpt>
      <trkpt lat="43.89427" lon="7.51662">
        <ele>554</ele>
        <time>2022-01-15T13:00:52.000Z</time>
      </trkpt>
      <trkpt lat="43.89425" lon="7.51658">
        <ele>554.59997558594</ele>
        <time>2022-01-15T13:00:54.000Z</time>
      </trkpt>
      <trkpt lat="43.89421" lon="7.51658">
        <ele>555.20001220703</ele>
        <time>2022-01-15T13:00:56.000Z</time>
      </trkpt>
      <trkpt lat="43.89417" lon="7.51658">
        <ele>555.79998779297</ele>
        <time>2022-01-15T13:00:58.000Z</time>
      </trkpt>
      <trkpt lat="43.89413" lon="7.51659">
        <ele>556.40002441406</ele>
        <time>2022-01-15T13:01:00.000Z</time>
      </trkpt>
      <trkpt lat="43.8941" lon="7.51659">
        <ele>557.79998779297</ele>
        <time>2022-01-15T13:01:02.000Z</time>
      </trkpt>
      <trkpt lat="43.89408" lon="7.5166">
        <ele>558.40002441406</ele>
        <time>2022-01-15T13:01:03.000Z</time>
      </trkpt>
      <trkpt lat="43.89407" lon="7.51661">
        <ele>559</ele>
        <time>2022-01-15T13:01:04.000Z</time>
      </trkpt>
      <trkpt lat="43.894" lon="7.51662">
        <ele>560.40002441406</ele>
        <time>2022-01-15T13:01:07.000Z</time>
      </trkpt>
      <trkpt lat="43.89399" lon="7.5166">
        <ele>560.79998779297</ele>
        <time>2022-01-15T13:01:08.000Z</time>
      </trkpt>
      <trkpt lat="43.89397" lon="7.51658">
        <ele>561</ele>
        <time>2022-01-15T13:01:09.000Z</time>
      </trkpt>
      <trkpt lat="43.89392" lon="7.51653">
        <ele>561</ele>
        <time>2022-01-15T13:01:12.000Z</time>
      </trkpt>
      <trkpt lat="43.89386" lon="7.51643">
        <ele>560.79998779297</ele>
        <time>2022-01-15T13:01:16.000Z</time>
      </trkpt>
      <trkpt lat="43.89378" lon="7.51632">
        <ele>561.59997558594</ele>
        <time>2022-01-15T13:01:21.000Z</time>
      </trkpt>
      <trkpt lat="43.89368" lon="7.5162">
        <ele>562</ele>
        <time>2022-01-15T13:01:26.000Z</time>
      </trkpt>
      <trkpt lat="43.89365" lon="7.51616">
        <ele>562.20001220703</ele>
        <time>2022-01-15T13:01:28.000Z</time>
      </trkpt>
      <trkpt lat="43.89365" lon="7.51613">
        <ele>562.40002441406</ele>
        <time>2022-01-15T13:01:29.000Z</time>
      </trkpt>
      <trkpt lat="43.89365" lon="7.51611">
        <ele>562.59997558594</ele>
        <time>2022-01-15T13:01:30.000Z</time>
      </trkpt>
      <trkpt lat="43.89362" lon="7.51607">
        <ele>563.59997558594</ele>
        <time>2022-01-15T13:01:33.000Z</time>
      </trkpt>
      <trkpt lat="43.89361" lon="7.51608">
        <ele>564</ele>
        <time>2022-01-15T13:01:34.000Z</time>
      </trkpt>
      <trkpt lat="43.89357" lon="7.51609">
        <ele>565</ele>
        <time>2022-01-15T13:01:37.000Z</time>
      </trkpt>
      <trkpt lat="43.89355" lon="7.5161">
        <ele>565.40002441406</ele>
        <time>2022-01-15T13:01:38.000Z</time>
      </trkpt>
      <trkpt lat="43.89354" lon="7.5161">
        <ele>565.79998779297</ele>
        <time>2022-01-15T13:01:39.000Z</time>
      </trkpt>
      <trkpt lat="43.89351" lon="7.5161">
        <ele>566.79998779297</ele>
        <time>2022-01-15T13:01:41.000Z</time>
      </trkpt>
      <trkpt lat="43.8935" lon="7.51609">
        <ele>567</ele>
        <time>2022-01-15T13:01:42.000Z</time>
      </trkpt>
      <trkpt lat="43.89349" lon="7.51608">
        <ele>567.20001220703</ele>
        <time>2022-01-15T13:01:43.000Z</time>
      </trkpt>
      <trkpt lat="43.89346" lon="7.51604">
        <ele>568</ele>
        <time>2022-01-15T13:01:46.000Z</time>
      </trkpt>
      <trkpt lat="43.89345" lon="7.51602">
        <ele>568.20001220703</ele>
        <time>2022-01-15T13:01:47.000Z</time>
      </trkpt>
      <trkpt lat="43.89336" lon="7.51602">
        <ele>569</ele>
        <time>2022-01-15T13:01:52.000Z</time>
      </trkpt>
      <trkpt lat="43.89334" lon="7.51602">
        <ele>569.20001220703</ele>
        <time>2022-01-15T13:01:53.000Z</time>
      </trkpt>
      <trkpt lat="43.89327" lon="7.51605">
        <ele>569.40002441406</ele>
        <time>2022-01-15T13:01:56.000Z</time>
      </trkpt>
      <trkpt lat="43.89322" lon="7.51606">
        <ele>569.40002441406</ele>
        <time>2022-01-15T13:01:58.000Z</time>
      </trkpt>
      <trkpt lat="43.89306" lon="7.51612">
        <ele>569.20001220703</ele>
        <time>2022-01-15T13:02:03.000Z</time>
      </trkpt>
      <trkpt lat="43.89291" lon="7.51625">
        <ele>570</ele>
        <time>2022-01-15T13:02:09.000Z</time>
      </trkpt>
      <trkpt lat="43.89288" lon="7.51625">
        <ele>570.20001220703</ele>
        <time>2022-01-15T13:02:10.000Z</time>
      </trkpt>
      <trkpt lat="43.89283" lon="7.51627">
        <ele>570.59997558594</ele>
        <time>2022-01-15T13:02:12.000Z</time>
      </trkpt>
      <trkpt lat="43.89268" lon="7.51633">
        <ele>570.79998779297</ele>
        <time>2022-01-15T13:02:16.000Z</time>
      </trkpt>
      <trkpt lat="43.89265" lon="7.51635">
        <ele>570.79998779297</ele>
        <time>2022-01-15T13:02:17.000Z</time>
      </trkpt>
      <trkpt lat="43.89258" lon="7.51643">
        <ele>569.79998779297</ele>
        <time>2022-01-15T13:02:20.000Z</time>
      </trkpt>
      <trkpt lat="43.89246" lon="7.51647">
        <ele>570.20001220703</ele>
        <time>2022-01-15T13:02:24.000Z</time>
      </trkpt>
      <trkpt lat="43.89236" lon="7.51654">
        <ele>570.79998779297</ele>
        <time>2022-01-15T13:02:28.000Z</time>
      </trkpt>
      <trkpt lat="43.8923" lon="7.51658">
        <ele>571.20001220703</ele>
        <time>2022-01-15T13:02:30.000Z</time>
      </trkpt>
      <trkpt lat="43.89225" lon="7.51662">
        <ele>571.40002441406</ele>
        <time>2022-01-15T13:02:32.000Z</time>
      </trkpt>
      <trkpt lat="43.8922" lon="7.51665">
        <ele>571.59997558594</ele>
        <time>2022-01-15T13:02:34.000Z</time>
      </trkpt>
      <trkpt lat="43.89214" lon="7.51668">
        <ele>572.20001220703</ele>
        <time>2022-01-15T13:02:37.000Z</time>
      </trkpt>
      <trkpt lat="43.89212" lon="7.51668">
        <ele>572.20001220703</ele>
        <time>2022-01-15T13:02:38.000Z</time>
      </trkpt>
      <trkpt lat="43.89203" lon="7.51669">
        <ele>571.79998779297</ele>
        <time>2022-01-15T13:02:41.000Z</time>
      </trkpt>
      <trkpt lat="43.89196" lon="7.51673">
        <ele>570.59997558594</ele>
        <time>2022-01-15T13:02:43.000Z</time>
      </trkpt>
      <trkpt lat="43.89188" lon="7.51679">
        <ele>569.20001220703</ele>
        <time>2022-01-15T13:02:45.000Z</time>
      </trkpt>
      <trkpt lat="43.89184" lon="7.51683">
        <ele>568.40002441406</ele>
        <time>2022-01-15T13:02:46.000Z</time>
      </trkpt>
      <trkpt lat="43.89182" lon="7.51686">
        <ele>567.79998779297</ele>
        <time>2022-01-15T13:02:47.000Z</time>
      </trkpt>
      <trkpt lat="43.89175" lon="7.517">
        <ele>566.79998779297</ele>
        <time>2022-01-15T13:02:50.000Z</time>
      </trkpt>
      <trkpt lat="43.8917" lon="7.51709">
        <ele>565.59997558594</ele>
        <time>2022-01-15T13:02:52.000Z</time>
      </trkpt>
      <trkpt lat="43.89167" lon="7.51718">
        <ele>564.59997558594</ele>
        <time>2022-01-15T13:02:54.000Z</time>
      </trkpt>
      <trkpt lat="43.89166" lon="7.51722">
        <ele>563.40002441406</ele>
        <time>2022-01-15T13:02:55.000Z</time>
      </trkpt>
      <trkpt lat="43.89164" lon="7.51726">
        <ele>562.20001220703</ele>
        <time>2022-01-15T13:02:56.000Z</time>
      </trkpt>
      <trkpt lat="43.89163" lon="7.51732">
        <ele>561.79998779297</ele>
        <time>2022-01-15T13:02:57.000Z</time>
      </trkpt>
      <trkpt lat="43.89161" lon="7.51738">
        <ele>560.79998779297</ele>
        <time>2022-01-15T13:02:58.000Z</time>
      </trkpt>
      <trkpt lat="43.89154" lon="7.51747">
        <ele>559.59997558594</ele>
        <time>2022-01-15T13:03:00.000Z</time>
      </trkpt>
      <trkpt lat="43.89151" lon="7.51751">
        <ele>559</ele>
        <time>2022-01-15T13:03:01.000Z</time>
      </trkpt>
      <trkpt lat="43.89148" lon="7.51754">
        <ele>558.20001220703</ele>
        <time>2022-01-15T13:03:02.000Z</time>
      </trkpt>
      <trkpt lat="43.89141" lon="7.51759">
        <ele>557.20001220703</ele>
        <time>2022-01-15T13:03:04.000Z</time>
      </trkpt>
      <trkpt lat="43.89138" lon="7.51762">
        <ele>556.59997558594</ele>
        <time>2022-01-15T13:03:05.000Z</time>
      </trkpt>
      <trkpt lat="43.89136" lon="7.51763">
        <ele>556</ele>
        <time>2022-01-15T13:03:06.000Z</time>
      </trkpt>
      <trkpt lat="43.89131" lon="7.51768">
        <ele>554.40002441406</ele>
        <time>2022-01-15T13:03:08.000Z</time>
      </trkpt>
      <trkpt lat="43.89128" lon="7.51772">
        <ele>554</ele>
        <time>2022-01-15T13:03:09.000Z</time>
      </trkpt>
      <trkpt lat="43.89124" lon="7.51777">
        <ele>553.40002441406</ele>
        <time>2022-01-15T13:03:10.000Z</time>
      </trkpt>
      <trkpt lat="43.89115" lon="7.51785">
        <ele>552.79998779297</ele>
        <time>2022-01-15T13:03:12.000Z</time>
      </trkpt>
      <trkpt lat="43.8911" lon="7.51787">
        <ele>552.20001220703</ele>
        <time>2022-01-15T13:03:13.000Z</time>
      </trkpt>
      <trkpt lat="43.89101" lon="7.51792">
        <ele>550.40002441406</ele>
        <time>2022-01-15T13:03:15.000Z</time>
      </trkpt>
      <trkpt lat="43.89096" lon="7.51794">
        <ele>549</ele>
        <time>2022-01-15T13:03:16.000Z</time>
      </trkpt>
      <trkpt lat="43.89087" lon="7.51798">
        <ele>547.59997558594</ele>
        <time>2022-01-15T13:03:18.000Z</time>
      </trkpt>
      <trkpt lat="43.89082" lon="7.51799">
        <ele>547.20001220703</ele>
        <time>2022-01-15T13:03:19.000Z</time>
      </trkpt>
      <trkpt lat="43.89073" lon="7.51801">
        <ele>546.40002441406</ele>
        <time>2022-01-15T13:03:21.000Z</time>
      </trkpt>
      <trkpt lat="43.89066" lon="7.51801">
        <ele>545</ele>
        <time>2022-01-15T13:03:23.000Z</time>
      </trkpt>
      <trkpt lat="43.89062" lon="7.518">
        <ele>543</ele>
        <time>2022-01-15T13:03:25.000Z</time>
      </trkpt>
      <trkpt lat="43.89059" lon="7.51801">
        <ele>542.20001220703</ele>
        <time>2022-01-15T13:03:26.000Z</time>
      </trkpt>
      <trkpt lat="43.89055" lon="7.51802">
        <ele>541.59997558594</ele>
        <time>2022-01-15T13:03:27.000Z</time>
      </trkpt>
      <trkpt lat="43.89048" lon="7.51802">
        <ele>540.40002441406</ele>
        <time>2022-01-15T13:03:29.000Z</time>
      </trkpt>
      <trkpt lat="43.89045" lon="7.51803">
        <ele>540</ele>
        <time>2022-01-15T13:03:30.000Z</time>
      </trkpt>
      <trkpt lat="43.89039" lon="7.51807">
        <ele>539</ele>
        <time>2022-01-15T13:03:32.000Z</time>
      </trkpt>
      <trkpt lat="43.89032" lon="7.51811">
        <ele>537.59997558594</ele>
        <time>2022-01-15T13:03:34.000Z</time>
      </trkpt>
      <trkpt lat="43.89029" lon="7.51813">
        <ele>537</ele>
        <time>2022-01-15T13:03:35.000Z</time>
      </trkpt>
      <trkpt lat="43.89026" lon="7.51816">
        <ele>536</ele>
        <time>2022-01-15T13:03:36.000Z</time>
      </trkpt>
      <trkpt lat="43.89017" lon="7.51821">
        <ele>535</ele>
        <time>2022-01-15T13:03:38.000Z</time>
      </trkpt>
      <trkpt lat="43.89013" lon="7.51822">
        <ele>534.79998779297</ele>
        <time>2022-01-15T13:03:39.000Z</time>
      </trkpt>
      <trkpt lat="43.89005" lon="7.51827">
        <ele>533.40002441406</ele>
        <time>2022-01-15T13:03:41.000Z</time>
      </trkpt>
      <trkpt lat="43.89001" lon="7.5183">
        <ele>533</ele>
        <time>2022-01-15T13:03:42.000Z</time>
      </trkpt>
      <trkpt lat="43.88996" lon="7.51835">
        <ele>531.20001220703</ele>
        <time>2022-01-15T13:03:44.000Z</time>
      </trkpt>
      <trkpt lat="43.88994" lon="7.51845">
        <ele>530.40002441406</ele>
        <time>2022-01-15T13:03:46.000Z</time>
      </trkpt>
      <trkpt lat="43.88992" lon="7.51848">
        <ele>529.59997558594</ele>
        <time>2022-01-15T13:03:47.000Z</time>
      </trkpt>
      <trkpt lat="43.88985" lon="7.51851">
        <ele>528.79998779297</ele>
        <time>2022-01-15T13:03:49.000Z</time>
      </trkpt>
      <trkpt lat="43.88981" lon="7.51853">
        <ele>528.40002441406</ele>
        <time>2022-01-15T13:03:50.000Z</time>
      </trkpt>
      <trkpt lat="43.88975" lon="7.51855">
        <ele>528</ele>
        <time>2022-01-15T13:03:51.000Z</time>
      </trkpt>
      <trkpt lat="43.88971" lon="7.51858">
        <ele>527.79998779297</ele>
        <time>2022-01-15T13:03:52.000Z</time>
      </trkpt>
      <trkpt lat="43.88966" lon="7.51863">
        <ele>527.79998779297</ele>
        <time>2022-01-15T13:03:53.000Z</time>
      </trkpt>
      <trkpt lat="43.88953" lon="7.51878">
        <ele>527</ele>
        <time>2022-01-15T13:03:56.000Z</time>
      </trkpt>
      <trkpt lat="43.88949" lon="7.51883">
        <ele>526.59997558594</ele>
        <time>2022-01-15T13:03:57.000Z</time>
      </trkpt>
      <trkpt lat="43.88942" lon="7.51893">
        <ele>526</ele>
        <time>2022-01-15T13:03:59.000Z</time>
      </trkpt>
      <trkpt lat="43.88935" lon="7.51897">
        <ele>525</ele>
        <time>2022-01-15T13:04:01.000Z</time>
      </trkpt>
      <trkpt lat="43.88933" lon="7.51897">
        <ele>524.59997558594</ele>
        <time>2022-01-15T13:04:02.000Z</time>
      </trkpt>
      <trkpt lat="43.88927" lon="7.51901">
        <ele>523.59997558594</ele>
        <time>2022-01-15T13:04:04.000Z</time>
      </trkpt>
      <trkpt lat="43.88925" lon="7.51905">
        <ele>523.20001220703</ele>
        <time>2022-01-15T13:04:05.000Z</time>
      </trkpt>
      <trkpt lat="43.88919" lon="7.51913">
        <ele>522</ele>
        <time>2022-01-15T13:04:07.000Z</time>
      </trkpt>
      <trkpt lat="43.88912" lon="7.51919">
        <ele>520.59997558594</ele>
        <time>2022-01-15T13:04:09.000Z</time>
      </trkpt>
      <trkpt lat="43.8891" lon="7.51922">
        <ele>519.59997558594</ele>
        <time>2022-01-15T13:04:10.000Z</time>
      </trkpt>
      <trkpt lat="43.88908" lon="7.51928">
        <ele>517.79998779297</ele>
        <time>2022-01-15T13:04:11.000Z</time>
      </trkpt>
      <trkpt lat="43.88908" lon="7.51933">
        <ele>516.79998779297</ele>
        <time>2022-01-15T13:04:12.000Z</time>
      </trkpt>
      <trkpt lat="43.88907" lon="7.51939">
        <ele>515.40002441406</ele>
        <time>2022-01-15T13:04:13.000Z</time>
      </trkpt>
      <trkpt lat="43.88906" lon="7.51944">
        <ele>514.40002441406</ele>
        <time>2022-01-15T13:04:14.000Z</time>
      </trkpt>
      <trkpt lat="43.88904" lon="7.51952">
        <ele>513.59997558594</ele>
        <time>2022-01-15T13:04:15.000Z</time>
      </trkpt>
      <trkpt lat="43.88902" lon="7.51958">
        <ele>512.79998779297</ele>
        <time>2022-01-15T13:04:16.000Z</time>
      </trkpt>
      <trkpt lat="43.889" lon="7.51964">
        <ele>512</ele>
        <time>2022-01-15T13:04:17.000Z</time>
      </trkpt>
      <trkpt lat="43.88896" lon="7.51967">
        <ele>511.60000610352</ele>
        <time>2022-01-15T13:04:18.000Z</time>
      </trkpt>
      <trkpt lat="43.88894" lon="7.5197">
        <ele>511.39999389648</ele>
        <time>2022-01-15T13:04:19.000Z</time>
      </trkpt>
      <trkpt lat="43.88883" lon="7.51972">
        <ele>511.20001220703</ele>
        <time>2022-01-15T13:04:22.000Z</time>
      </trkpt>
      <trkpt lat="43.8888" lon="7.51972">
        <ele>511.60000610352</ele>
        <time>2022-01-15T13:04:23.000Z</time>
      </trkpt>
      <trkpt lat="43.88871" lon="7.51972">
        <ele>512.20001220703</ele>
        <time>2022-01-15T13:04:26.000Z</time>
      </trkpt>
      <trkpt lat="43.88869" lon="7.51967">
        <ele>512.40002441406</ele>
        <time>2022-01-15T13:04:27.000Z</time>
      </trkpt>
      <trkpt lat="43.88858" lon="7.51962">
        <ele>512</ele>
        <time>2022-01-15T13:04:30.000Z</time>
      </trkpt>
      <trkpt lat="43.88844" lon="7.51962">
        <ele>511.20001220703</ele>
        <time>2022-01-15T13:04:33.000Z</time>
      </trkpt>
      <trkpt lat="43.8884" lon="7.51962">
        <ele>511.20001220703</ele>
        <time>2022-01-15T13:04:34.000Z</time>
      </trkpt>
      <trkpt lat="43.88837" lon="7.51964">
        <ele>511.39999389648</ele>
        <time>2022-01-15T13:04:35.000Z</time>
      </trkpt>
      <trkpt lat="43.88832" lon="7.51974">
        <ele>511.39999389648</ele>
        <time>2022-01-15T13:04:37.000Z</time>
      </trkpt>
      <trkpt lat="43.88827" lon="7.51983">
        <ele>510</ele>
        <time>2022-01-15T13:04:39.000Z</time>
      </trkpt>
      <trkpt lat="43.88822" lon="7.51984">
        <ele>509.39999389648</ele>
        <time>2022-01-15T13:04:40.000Z</time>
      </trkpt>
      <trkpt lat="43.88819" lon="7.51982">
        <ele>509</ele>
        <time>2022-01-15T13:04:41.000Z</time>
      </trkpt>
      <trkpt lat="43.88806" lon="7.51983">
        <ele>508.79998779297</ele>
        <time>2022-01-15T13:04:44.000Z</time>
      </trkpt>
      <trkpt lat="43.88789" lon="7.51992">
        <ele>507.79998779297</ele>
        <time>2022-01-15T13:04:48.000Z</time>
      </trkpt>
      <trkpt lat="43.88785" lon="7.51995">
        <ele>507.20001220703</ele>
        <time>2022-01-15T13:04:49.000Z</time>
      </trkpt>
      <trkpt lat="43.88783" lon="7.51999">
        <ele>507</ele>
        <time>2022-01-15T13:04:50.000Z</time>
      </trkpt>
      <trkpt lat="43.88781" lon="7.52005">
        <ele>506.39999389648</ele>
        <time>2022-01-15T13:04:51.000Z</time>
      </trkpt>
      <trkpt lat="43.88777" lon="7.52009">
        <ele>506</ele>
        <time>2022-01-15T13:04:52.000Z</time>
      </trkpt>
      <trkpt lat="43.88772" lon="7.52012">
        <ele>505.20001220703</ele>
        <time>2022-01-15T13:04:53.000Z</time>
      </trkpt>
      <trkpt lat="43.88756" lon="7.52019">
        <ele>505</ele>
        <time>2022-01-15T13:04:56.000Z</time>
      </trkpt>
      <trkpt lat="43.88749" lon="7.52022">
        <ele>505</ele>
        <time>2022-01-15T13:04:57.000Z</time>
      </trkpt>
      <trkpt lat="43.8874" lon="7.52032">
        <ele>504.60000610352</ele>
        <time>2022-01-15T13:05:00.000Z</time>
      </trkpt>
      <trkpt lat="43.88737" lon="7.52035">
        <ele>504.20001220703</ele>
        <time>2022-01-15T13:05:01.000Z</time>
      </trkpt>
      <trkpt lat="43.88731" lon="7.52039">
        <ele>503.60000610352</ele>
        <time>2022-01-15T13:05:03.000Z</time>
      </trkpt>
      <trkpt lat="43.88722" lon="7.52048">
        <ele>503.39999389648</ele>
        <time>2022-01-15T13:05:06.000Z</time>
      </trkpt>
      <trkpt lat="43.88715" lon="7.52049">
        <ele>503</ele>
        <time>2022-01-15T13:05:08.000Z</time>
      </trkpt>
      <trkpt lat="43.88712" lon="7.52052">
        <ele>503</ele>
        <time>2022-01-15T13:05:09.000Z</time>
      </trkpt>
      <trkpt lat="43.887" lon="7.52067">
        <ele>502</ele>
        <time>2022-01-15T13:05:12.000Z</time>
      </trkpt>
      <trkpt lat="43.8869" lon="7.52073">
        <ele>501.39999389648</ele>
        <time>2022-01-15T13:05:15.000Z</time>
      </trkpt>
      <trkpt lat="43.88682" lon="7.52079">
        <ele>501.39999389648</ele>
        <time>2022-01-15T13:05:18.000Z</time>
      </trkpt>
      <trkpt lat="43.88674" lon="7.52083">
        <ele>501</ele>
        <time>2022-01-15T13:05:20.000Z</time>
      </trkpt>
      <trkpt lat="43.8867" lon="7.52081">
        <ele>500.60000610352</ele>
        <time>2022-01-15T13:05:21.000Z</time>
      </trkpt>
      <trkpt lat="43.88661" lon="7.52078">
        <ele>499.79998779297</ele>
        <time>2022-01-15T13:05:24.000Z</time>
      </trkpt>
      <trkpt lat="43.88653" lon="7.52079">
        <ele>498.39999389648</ele>
        <time>2022-01-15T13:05:26.000Z</time>
      </trkpt>
      <trkpt lat="43.88649" lon="7.52081">
        <ele>497</ele>
        <time>2022-01-15T13:05:27.000Z</time>
      </trkpt>
      <trkpt lat="43.88645" lon="7.52082">
        <ele>495.60000610352</ele>
        <time>2022-01-15T13:05:28.000Z</time>
      </trkpt>
      <trkpt lat="43.88641" lon="7.52081">
        <ele>494.39999389648</ele>
        <time>2022-01-15T13:05:29.000Z</time>
      </trkpt>
      <trkpt lat="43.88637" lon="7.52083">
        <ele>493.39999389648</ele>
        <time>2022-01-15T13:05:30.000Z</time>
      </trkpt>
      <trkpt lat="43.88633" lon="7.52085">
        <ele>492.39999389648</ele>
        <time>2022-01-15T13:05:31.000Z</time>
      </trkpt>
      <trkpt lat="43.88624" lon="7.52087">
        <ele>491</ele>
        <time>2022-01-15T13:05:33.000Z</time>
      </trkpt>
      <trkpt lat="43.88616" lon="7.52091">
        <ele>489.79998779297</ele>
        <time>2022-01-15T13:05:35.000Z</time>
      </trkpt>
      <trkpt lat="43.88607" lon="7.52097">
        <ele>489.39999389648</ele>
        <time>2022-01-15T13:05:37.000Z</time>
      </trkpt>
      <trkpt lat="43.88603" lon="7.521">
        <ele>488.79998779297</ele>
        <time>2022-01-15T13:05:38.000Z</time>
      </trkpt>
      <trkpt lat="43.88592" lon="7.52106">
        <ele>487.39999389648</ele>
        <time>2022-01-15T13:05:40.000Z</time>
      </trkpt>
      <trkpt lat="43.88587" lon="7.52109">
        <ele>486.39999389648</ele>
        <time>2022-01-15T13:05:41.000Z</time>
      </trkpt>
      <trkpt lat="43.88583" lon="7.5211">
        <ele>485.60000610352</ele>
        <time>2022-01-15T13:05:42.000Z</time>
      </trkpt>
      <trkpt lat="43.88581" lon="7.52107">
        <ele>484.60000610352</ele>
        <time>2022-01-15T13:05:43.000Z</time>
      </trkpt>
      <trkpt lat="43.88579" lon="7.52098">
        <ele>483.60000610352</ele>
        <time>2022-01-15T13:05:45.000Z</time>
      </trkpt>
      <trkpt lat="43.88581" lon="7.52093">
        <ele>482.79998779297</ele>
        <time>2022-01-15T13:05:46.000Z</time>
      </trkpt>
      <trkpt lat="43.88581" lon="7.52089">
        <ele>481.79998779297</ele>
        <time>2022-01-15T13:05:47.000Z</time>
      </trkpt>
      <trkpt lat="43.88578" lon="7.52087">
        <ele>480</ele>
        <time>2022-01-15T13:05:49.000Z</time>
      </trkpt>
      <trkpt lat="43.88572" lon="7.52088">
        <ele>477.60000610352</ele>
        <time>2022-01-15T13:05:51.000Z</time>
      </trkpt>
      <trkpt lat="43.88569" lon="7.52085">
        <ele>476</ele>
        <time>2022-01-15T13:05:53.000Z</time>
      </trkpt>
      <trkpt lat="43.88568" lon="7.52083">
        <ele>474.79998779297</ele>
        <time>2022-01-15T13:05:54.000Z</time>
      </trkpt>
      <trkpt lat="43.88563" lon="7.52082">
        <ele>473.39999389648</ele>
        <time>2022-01-15T13:05:56.000Z</time>
      </trkpt>
      <trkpt lat="43.8856" lon="7.52083">
        <ele>472.39999389648</ele>
        <time>2022-01-15T13:05:57.000Z</time>
      </trkpt>
      <trkpt lat="43.88556" lon="7.52082">
        <ele>471</ele>
        <time>2022-01-15T13:05:58.000Z</time>
      </trkpt>
      <trkpt lat="43.88554" lon="7.5208">
        <ele>470</ele>
        <time>2022-01-15T13:05:59.000Z</time>
      </trkpt>
      <trkpt lat="43.88552" lon="7.52076">
        <ele>468.60000610352</ele>
        <time>2022-01-15T13:06:00.000Z</time>
      </trkpt>
      <trkpt lat="43.88551" lon="7.52071">
        <ele>467.39999389648</ele>
        <time>2022-01-15T13:06:01.000Z</time>
      </trkpt>
      <trkpt lat="43.8855" lon="7.52067">
        <ele>466.20001220703</ele>
        <time>2022-01-15T13:06:02.000Z</time>
      </trkpt>
      <trkpt lat="43.88546" lon="7.5206">
        <ele>464.20001220703</ele>
        <time>2022-01-15T13:06:04.000Z</time>
      </trkpt>
      <trkpt lat="43.88542" lon="7.52057">
        <ele>463.39999389648</ele>
        <time>2022-01-15T13:06:05.000Z</time>
      </trkpt>
      <trkpt lat="43.88539" lon="7.52053">
        <ele>462.60000610352</ele>
        <time>2022-01-15T13:06:06.000Z</time>
      </trkpt>
      <trkpt lat="43.88537" lon="7.52047">
        <ele>461.20001220703</ele>
        <time>2022-01-15T13:06:07.000Z</time>
      </trkpt>
      <trkpt lat="43.88536" lon="7.52043">
        <ele>460</ele>
        <time>2022-01-15T13:06:08.000Z</time>
      </trkpt>
      <trkpt lat="43.88536" lon="7.52039">
        <ele>458.20001220703</ele>
        <time>2022-01-15T13:06:09.000Z</time>
      </trkpt>
      <trkpt lat="43.88535" lon="7.52035">
        <ele>457</ele>
        <time>2022-01-15T13:06:10.000Z</time>
      </trkpt>
      <trkpt lat="43.88534" lon="7.52034">
        <ele>455.39999389648</ele>
        <time>2022-01-15T13:06:11.000Z</time>
      </trkpt>
      <trkpt lat="43.88531" lon="7.52034">
        <ele>453.79998779297</ele>
        <time>2022-01-15T13:06:12.000Z</time>
      </trkpt>
      <trkpt lat="43.88529" lon="7.52036">
        <ele>452.39999389648</ele>
        <time>2022-01-15T13:06:13.000Z</time>
      </trkpt>
      <trkpt lat="43.88522" lon="7.52041">
        <ele>451.20001220703</ele>
        <time>2022-01-15T13:06:15.000Z</time>
      </trkpt>
      <trkpt lat="43.8852" lon="7.52044">
        <ele>451</ele>
        <time>2022-01-15T13:06:16.000Z</time>
      </trkpt>
      <trkpt lat="43.88518" lon="7.52046">
        <ele>451.39999389648</ele>
        <time>2022-01-15T13:06:19.000Z</time>
      </trkpt>
      <trkpt lat="43.88517" lon="7.52047">
        <ele>451.79998779297</ele>
        <time>2022-01-15T13:06:31.000Z</time>
      </trkpt>
      <trkpt lat="43.88516" lon="7.52049">
        <ele>451.60000610352</ele>
        <time>2022-01-15T13:06:50.000Z</time>
      </trkpt>
      <trkpt lat="43.88516" lon="7.52049">
        <ele>451.79998779297</ele>
        <time>2022-01-15T13:07:05.000Z</time>
      </trkpt>
      <trkpt lat="43.88515" lon="7.52049">
        <ele>452</ele>
        <time>2022-01-15T13:07:25.000Z</time>
      </trkpt>
      <trkpt lat="43.88515" lon="7.52049">
        <ele>452.20001220703</ele>
        <time>2022-01-15T13:07:39.000Z</time>
      </trkpt>
      <trkpt lat="43.88515" lon="7.52049">
        <ele>452.20001220703</ele>
        <time>2022-01-15T13:07:45.000Z</time>
      </trkpt>
      <trkpt lat="43.88514" lon="7.52049">
        <ele>452.20001220703</ele>
        <time>2022-01-15T13:07:55.000Z</time>
      </trkpt>
      <trkpt lat="43.88514" lon="7.52049">
        <ele>452.20001220703</ele>
        <time>2022-01-15T13:08:13.000Z</time>
      </trkpt>
      <trkpt lat="43.88511" lon="7.52055">
        <ele>452.20001220703</ele>
        <time>2022-01-15T13:08:19.000Z</time>
      </trkpt>
      <trkpt lat="43.88504" lon="7.52065">
        <ele>452</ele>
        <time>2022-01-15T13:08:22.000Z</time>
      </trkpt>
      <trkpt lat="43.88497" lon="7.52071">
        <ele>451</ele>
        <time>2022-01-15T13:08:25.000Z</time>
      </trkpt>
      <trkpt lat="43.88493" lon="7.5207">
        <ele>450.60000610352</ele>
        <time>2022-01-15T13:08:26.000Z</time>
      </trkpt>
      <trkpt lat="43.88489" lon="7.52064">
        <ele>449.39999389648</ele>
        <time>2022-01-15T13:08:28.000Z</time>
      </trkpt>
      <trkpt lat="43.88485" lon="7.52062">
        <ele>448.60000610352</ele>
        <time>2022-01-15T13:08:29.000Z</time>
      </trkpt>
      <trkpt lat="43.88481" lon="7.52061">
        <ele>448</ele>
        <time>2022-01-15T13:08:30.000Z</time>
      </trkpt>
      <trkpt lat="43.88476" lon="7.52059">
        <ele>446.79998779297</ele>
        <time>2022-01-15T13:08:31.000Z</time>
      </trkpt>
      <trkpt lat="43.88468" lon="7.52057">
        <ele>445.20001220703</ele>
        <time>2022-01-15T13:08:33.000Z</time>
      </trkpt>
      <trkpt lat="43.88465" lon="7.52058">
        <ele>444.20001220703</ele>
        <time>2022-01-15T13:08:34.000Z</time>
      </trkpt>
      <trkpt lat="43.88459" lon="7.52054">
        <ele>442.79998779297</ele>
        <time>2022-01-15T13:08:36.000Z</time>
      </trkpt>
      <trkpt lat="43.88457" lon="7.5205">
        <ele>442</ele>
        <time>2022-01-15T13:08:37.000Z</time>
      </trkpt>
      <trkpt lat="43.88453" lon="7.52047">
        <ele>441.20001220703</ele>
        <time>2022-01-15T13:08:38.000Z</time>
      </trkpt>
      <trkpt lat="43.88445" lon="7.52042">
        <ele>439</ele>
        <time>2022-01-15T13:08:40.000Z</time>
      </trkpt>
      <trkpt lat="43.88441" lon="7.52038">
        <ele>438.79998779297</ele>
        <time>2022-01-15T13:08:41.000Z</time>
      </trkpt>
      <trkpt lat="43.88439" lon="7.52033">
        <ele>437.60000610352</ele>
        <time>2022-01-15T13:08:42.000Z</time>
      </trkpt>
      <trkpt lat="43.88436" lon="7.52031">
        <ele>436.20001220703</ele>
        <time>2022-01-15T13:08:43.000Z</time>
      </trkpt>
      <trkpt lat="43.88433" lon="7.5203">
        <ele>435</ele>
        <time>2022-01-15T13:08:44.000Z</time>
      </trkpt>
      <trkpt lat="43.88429" lon="7.52029">
        <ele>434</ele>
        <time>2022-01-15T13:08:45.000Z</time>
      </trkpt>
      <trkpt lat="43.88426" lon="7.5203">
        <ele>432</ele>
        <time>2022-01-15T13:08:46.000Z</time>
      </trkpt>
      <trkpt lat="43.88421" lon="7.52031">
        <ele>430.39999389648</ele>
        <time>2022-01-15T13:08:47.000Z</time>
      </trkpt>
      <trkpt lat="43.88416" lon="7.52032">
        <ele>429</ele>
        <time>2022-01-15T13:08:48.000Z</time>
      </trkpt>
      <trkpt lat="43.88412" lon="7.52031">
        <ele>427.60000610352</ele>
        <time>2022-01-15T13:08:49.000Z</time>
      </trkpt>
      <trkpt lat="43.88408" lon="7.52029">
        <ele>426.20001220703</ele>
        <time>2022-01-15T13:08:50.000Z</time>
      </trkpt>
      <trkpt lat="43.88405" lon="7.52027">
        <ele>424.79998779297</ele>
        <time>2022-01-15T13:08:51.000Z</time>
      </trkpt>
      <trkpt lat="43.88399" lon="7.52025">
        <ele>422.60000610352</ele>
        <time>2022-01-15T13:08:53.000Z</time>
      </trkpt>
      <trkpt lat="43.88395" lon="7.52023">
        <ele>421.60000610352</ele>
        <time>2022-01-15T13:08:54.000Z</time>
      </trkpt>
      <trkpt lat="43.88391" lon="7.5202">
        <ele>420.39999389648</ele>
        <time>2022-01-15T13:08:55.000Z</time>
      </trkpt>
      <trkpt lat="43.88388" lon="7.52021">
        <ele>419</ele>
        <time>2022-01-15T13:08:56.000Z</time>
      </trkpt>
      <trkpt lat="43.88383" lon="7.52023">
        <ele>417.39999389648</ele>
        <time>2022-01-15T13:08:57.000Z</time>
      </trkpt>
      <trkpt lat="43.88379" lon="7.52023">
        <ele>415.60000610352</ele>
        <time>2022-01-15T13:08:58.000Z</time>
      </trkpt>
      <trkpt lat="43.88376" lon="7.52022">
        <ele>414.20001220703</ele>
        <time>2022-01-15T13:08:59.000Z</time>
      </trkpt>
      <trkpt lat="43.88372" lon="7.52022">
        <ele>412.79998779297</ele>
        <time>2022-01-15T13:09:00.000Z</time>
      </trkpt>
      <trkpt lat="43.88369" lon="7.52022">
        <ele>411.20001220703</ele>
        <time>2022-01-15T13:09:01.000Z</time>
      </trkpt>
      <trkpt lat="43.88367" lon="7.52023">
        <ele>409.79998779297</ele>
        <time>2022-01-15T13:09:02.000Z</time>
      </trkpt>
      <trkpt lat="43.88365" lon="7.52026">
        <ele>408.60000610352</ele>
        <time>2022-01-15T13:09:03.000Z</time>
      </trkpt>
      <trkpt lat="43.88364" lon="7.52031">
        <ele>407.39999389648</ele>
        <time>2022-01-15T13:09:04.000Z</time>
      </trkpt>
      <trkpt lat="43.88362" lon="7.52037">
        <ele>406.20001220703</ele>
        <time>2022-01-15T13:09:05.000Z</time>
      </trkpt>
      <trkpt lat="43.88358" lon="7.52041">
        <ele>404.79998779297</ele>
        <time>2022-01-15T13:09:06.000Z</time>
      </trkpt>
      <trkpt lat="43.88352" lon="7.52044">
        <ele>403</ele>
        <time>2022-01-15T13:09:08.000Z</time>
      </trkpt>
      <trkpt lat="43.8835" lon="7.52047">
        <ele>401.60000610352</ele>
        <time>2022-01-15T13:09:09.000Z</time>
      </trkpt>
      <trkpt lat="43.88347" lon="7.52047">
        <ele>400.39999389648</ele>
        <time>2022-01-15T13:09:10.000Z</time>
      </trkpt>
      <trkpt lat="43.88345" lon="7.52044">
        <ele>399.39999389648</ele>
        <time>2022-01-15T13:09:11.000Z</time>
      </trkpt>
      <trkpt lat="43.88344" lon="7.52038">
        <ele>398.20001220703</ele>
        <time>2022-01-15T13:09:12.000Z</time>
      </trkpt>
      <trkpt lat="43.88342" lon="7.52033">
        <ele>397.20001220703</ele>
        <time>2022-01-15T13:09:13.000Z</time>
      </trkpt>
      <trkpt lat="43.8834" lon="7.52032">
        <ele>396.20001220703</ele>
        <time>2022-01-15T13:09:14.000Z</time>
      </trkpt>
      <trkpt lat="43.88334" lon="7.52028">
        <ele>394.39999389648</ele>
        <time>2022-01-15T13:09:16.000Z</time>
      </trkpt>
      <trkpt lat="43.8833" lon="7.52026">
        <ele>393.20001220703</ele>
        <time>2022-01-15T13:09:17.000Z</time>
      </trkpt>
      <trkpt lat="43.88328" lon="7.52023">
        <ele>391.79998779297</ele>
        <time>2022-01-15T13:09:18.000Z</time>
      </trkpt>
      <trkpt lat="43.88325" lon="7.52022">
        <ele>390.79998779297</ele>
        <time>2022-01-15T13:09:19.000Z</time>
      </trkpt>
      <trkpt lat="43.88323" lon="7.52022">
        <ele>389.60000610352</ele>
        <time>2022-01-15T13:09:20.000Z</time>
      </trkpt>
      <trkpt lat="43.8832" lon="7.5202">
        <ele>388.20001220703</ele>
        <time>2022-01-15T13:09:21.000Z</time>
      </trkpt>
      <trkpt lat="43.88318" lon="7.52017">
        <ele>387.20001220703</ele>
        <time>2022-01-15T13:09:22.000Z</time>
      </trkpt>
      <trkpt lat="43.88316" lon="7.52015">
        <ele>386.60000610352</ele>
        <time>2022-01-15T13:09:23.000Z</time>
      </trkpt>
      <trkpt lat="43.88314" lon="7.52013">
        <ele>385.60000610352</ele>
        <time>2022-01-15T13:09:24.000Z</time>
      </trkpt>
      <trkpt lat="43.88312" lon="7.52012">
        <ele>384</ele>
        <time>2022-01-15T13:09:25.000Z</time>
      </trkpt>
      <trkpt lat="43.8831" lon="7.52012">
        <ele>382.79998779297</ele>
        <time>2022-01-15T13:09:26.000Z</time>
      </trkpt>
      <trkpt lat="43.88307" lon="7.5201">
        <ele>381.60000610352</ele>
        <time>2022-01-15T13:09:27.000Z</time>
      </trkpt>
      <trkpt lat="43.88306" lon="7.52008">
        <ele>380.79998779297</ele>
        <time>2022-01-15T13:09:28.000Z</time>
      </trkpt>
      <trkpt lat="43.88305" lon="7.52005">
        <ele>380</ele>
        <time>2022-01-15T13:09:29.000Z</time>
      </trkpt>
      <trkpt lat="43.88299" lon="7.52005">
        <ele>378</ele>
        <time>2022-01-15T13:09:32.000Z</time>
      </trkpt>
      <trkpt lat="43.88293" lon="7.52014">
        <ele>376.39999389648</ele>
        <time>2022-01-15T13:09:34.000Z</time>
      </trkpt>
      <trkpt lat="43.88289" lon="7.52015">
        <ele>375.60000610352</ele>
        <time>2022-01-15T13:09:35.000Z</time>
      </trkpt>
      <trkpt lat="43.88287" lon="7.52011">
        <ele>374.79998779297</ele>
        <time>2022-01-15T13:09:36.000Z</time>
      </trkpt>
      <trkpt lat="43.88287" lon="7.52006">
        <ele>373.79998779297</ele>
        <time>2022-01-15T13:09:37.000Z</time>
      </trkpt>
      <trkpt lat="43.88286" lon="7.52001">
        <ele>373</ele>
        <time>2022-01-15T13:09:38.000Z</time>
      </trkpt>
      <trkpt lat="43.88284" lon="7.51992">
        <ele>371.39999389648</ele>
        <time>2022-01-15T13:09:40.000Z</time>
      </trkpt>
      <trkpt lat="43.88282" lon="7.51992">
        <ele>370.79998779297</ele>
        <time>2022-01-15T13:09:41.000Z</time>
      </trkpt>
      <trkpt lat="43.88279" lon="7.51995">
        <ele>370.20001220703</ele>
        <time>2022-01-15T13:09:42.000Z</time>
      </trkpt>
      <trkpt lat="43.8827" lon="7.52001">
        <ele>368.60000610352</ele>
        <time>2022-01-15T13:09:44.000Z</time>
      </trkpt>
      <trkpt lat="43.88265" lon="7.52004">
        <ele>367.39999389648</ele>
        <time>2022-01-15T13:09:45.000Z</time>
      </trkpt>
      <trkpt lat="43.88256" lon="7.52007">
        <ele>364.79998779297</ele>
        <time>2022-01-15T13:09:47.000Z</time>
      </trkpt>
      <trkpt lat="43.88252" lon="7.52009">
        <ele>363.20001220703</ele>
        <time>2022-01-15T13:09:48.000Z</time>
      </trkpt>
      <trkpt lat="43.88248" lon="7.5201">
        <ele>361.60000610352</ele>
        <time>2022-01-15T13:09:49.000Z</time>
      </trkpt>
      <trkpt lat="43.88244" lon="7.5201">
        <ele>359.79998779297</ele>
        <time>2022-01-15T13:09:50.000Z</time>
      </trkpt>
      <trkpt lat="43.88238" lon="7.52009">
        <ele>358.60000610352</ele>
        <time>2022-01-15T13:09:51.000Z</time>
      </trkpt>
      <trkpt lat="43.88233" lon="7.52008">
        <ele>357.39999389648</ele>
        <time>2022-01-15T13:09:52.000Z</time>
      </trkpt>
      <trkpt lat="43.8823" lon="7.52005">
        <ele>356.20001220703</ele>
        <time>2022-01-15T13:09:53.000Z</time>
      </trkpt>
      <trkpt lat="43.8823" lon="7.52003">
        <ele>355</ele>
        <time>2022-01-15T13:09:54.000Z</time>
      </trkpt>
      <trkpt lat="43.8823" lon="7.52">
        <ele>353.79998779297</ele>
        <time>2022-01-15T13:09:55.000Z</time>
      </trkpt>
      <trkpt lat="43.88229" lon="7.51999">
        <ele>352.60000610352</ele>
        <time>2022-01-15T13:09:56.000Z</time>
      </trkpt>
      <trkpt lat="43.88226" lon="7.52">
        <ele>351.60000610352</ele>
        <time>2022-01-15T13:09:57.000Z</time>
      </trkpt>
      <trkpt lat="43.88218" lon="7.52001">
        <ele>350.39999389648</ele>
        <time>2022-01-15T13:09:59.000Z</time>
      </trkpt>
      <trkpt lat="43.88211" lon="7.52004">
        <ele>349</ele>
        <time>2022-01-15T13:10:01.000Z</time>
      </trkpt>
      <trkpt lat="43.88208" lon="7.5201">
        <ele>347.39999389648</ele>
        <time>2022-01-15T13:10:03.000Z</time>
      </trkpt>
      <trkpt lat="43.88208" lon="7.52013">
        <ele>346.79998779297</ele>
        <time>2022-01-15T13:10:04.000Z</time>
      </trkpt>
      <trkpt lat="43.88206" lon="7.52015">
        <ele>346</ele>
        <time>2022-01-15T13:10:05.000Z</time>
      </trkpt>
      <trkpt lat="43.88199" lon="7.52013">
        <ele>344</ele>
        <time>2022-01-15T13:10:07.000Z</time>
      </trkpt>
      <trkpt lat="43.88192" lon="7.52013">
        <ele>342</ele>
        <time>2022-01-15T13:10:09.000Z</time>
      </trkpt>
      <trkpt lat="43.8819" lon="7.52015">
        <ele>341</ele>
        <time>2022-01-15T13:10:10.000Z</time>
      </trkpt>
      <trkpt lat="43.88188" lon="7.52019">
        <ele>339.39999389648</ele>
        <time>2022-01-15T13:10:12.000Z</time>
      </trkpt>
      <trkpt lat="43.88181" lon="7.52022">
        <ele>338.20001220703</ele>
        <time>2022-01-15T13:10:14.000Z</time>
      </trkpt>
      <trkpt lat="43.88175" lon="7.52023">
        <ele>337</ele>
        <time>2022-01-15T13:10:15.000Z</time>
      </trkpt>
      <trkpt lat="43.8817" lon="7.52022">
        <ele>336</ele>
        <time>2022-01-15T13:10:16.000Z</time>
      </trkpt>
      <trkpt lat="43.88164" lon="7.5202">
        <ele>334.79998779297</ele>
        <time>2022-01-15T13:10:17.000Z</time>
      </trkpt>
      <trkpt lat="43.88158" lon="7.52018">
        <ele>333.39999389648</ele>
        <time>2022-01-15T13:10:18.000Z</time>
      </trkpt>
      <trkpt lat="43.88153" lon="7.52015">
        <ele>332.39999389648</ele>
        <time>2022-01-15T13:10:19.000Z</time>
      </trkpt>
      <trkpt lat="43.88149" lon="7.52011">
        <ele>331.20001220703</ele>
        <time>2022-01-15T13:10:20.000Z</time>
      </trkpt>
      <trkpt lat="43.88147" lon="7.52005">
        <ele>330.20001220703</ele>
        <time>2022-01-15T13:10:21.000Z</time>
      </trkpt>
      <trkpt lat="43.88146" lon="7.51991">
        <ele>328.79998779297</ele>
        <time>2022-01-15T13:10:23.000Z</time>
      </trkpt>
      <trkpt lat="43.88147" lon="7.51984">
        <ele>328</ele>
        <time>2022-01-15T13:10:24.000Z</time>
      </trkpt>
      <trkpt lat="43.88151" lon="7.51979">
        <ele>327.60000610352</ele>
        <time>2022-01-15T13:10:25.000Z</time>
      </trkpt>
      <trkpt lat="43.8816" lon="7.5197">
        <ele>326.20001220703</ele>
        <time>2022-01-15T13:10:27.000Z</time>
      </trkpt>
      <trkpt lat="43.88171" lon="7.51957">
        <ele>324.60000610352</ele>
        <time>2022-01-15T13:10:30.000Z</time>
      </trkpt>
      <trkpt lat="43.88173" lon="7.51951">
        <ele>324.20001220703</ele>
        <time>2022-01-15T13:10:31.000Z</time>
      </trkpt>
      <trkpt lat="43.88176" lon="7.51946">
        <ele>323.39999389648</ele>
        <time>2022-01-15T13:10:32.000Z</time>
      </trkpt>
      <trkpt lat="43.88179" lon="7.51936">
        <ele>321.79998779297</ele>
        <time>2022-01-15T13:10:34.000Z</time>
      </trkpt>
      <trkpt lat="43.88179" lon="7.51924">
        <ele>320.60000610352</ele>
        <time>2022-01-15T13:10:36.000Z</time>
      </trkpt>
      <trkpt lat="43.88179" lon="7.51914">
        <ele>319.39999389648</ele>
        <time>2022-01-15T13:10:38.000Z</time>
      </trkpt>
      <trkpt lat="43.8818" lon="7.51909">
        <ele>318.79998779297</ele>
        <time>2022-01-15T13:10:39.000Z</time>
      </trkpt>
      <trkpt lat="43.88181" lon="7.51899">
        <ele>318.20001220703</ele>
        <time>2022-01-15T13:10:41.000Z</time>
      </trkpt>
      <trkpt lat="43.88178" lon="7.51886">
        <ele>317.60000610352</ele>
        <time>2022-01-15T13:10:43.000Z</time>
      </trkpt>
      <trkpt lat="43.88176" lon="7.5188">
        <ele>317.20001220703</ele>
        <time>2022-01-15T13:10:44.000Z</time>
      </trkpt>
      <trkpt lat="43.88174" lon="7.51873">
        <ele>316.39999389648</ele>
        <time>2022-01-15T13:10:45.000Z</time>
      </trkpt>
      <trkpt lat="43.88171" lon="7.5186">
        <ele>314.60000610352</ele>
        <time>2022-01-15T13:10:47.000Z</time>
      </trkpt>
      <trkpt lat="43.8817" lon="7.51856">
        <ele>313.79998779297</ele>
        <time>2022-01-15T13:10:48.000Z</time>
      </trkpt>
      <trkpt lat="43.88169" lon="7.51853">
        <ele>313</ele>
        <time>2022-01-15T13:10:49.000Z</time>
      </trkpt>
      <trkpt lat="43.88169" lon="7.51853">
        <ele>312.20001220703</ele>
        <time>2022-01-15T13:10:51.000Z</time>
      </trkpt>
      <trkpt lat="43.88169" lon="7.51853">
        <ele>311.79998779297</ele>
        <time>2022-01-15T13:10:53.000Z</time>
      </trkpt>
      <trkpt lat="43.88169" lon="7.51853">
        <ele>312</ele>
        <time>2022-01-15T13:10:56.000Z</time>
      </trkpt>
      <trkpt lat="43.8817" lon="7.51856">
        <ele>312</ele>
        <time>2022-01-15T13:11:01.000Z</time>
      </trkpt>
      <trkpt lat="43.8817" lon="7.51857">
        <ele>312</ele>
        <time>2022-01-15T13:11:02.000Z</time>
      </trkpt>
      <trkpt lat="43.88172" lon="7.51865">
        <ele>312.20001220703</ele>
        <time>2022-01-15T13:11:05.000Z</time>
      </trkpt>
      <trkpt lat="43.88178" lon="7.51885">
        <ele>313</ele>
        <time>2022-01-15T13:11:10.000Z</time>
      </trkpt>
      <trkpt lat="43.8818" lon="7.51898">
        <ele>314.60000610352</ele>
        <time>2022-01-15T13:11:13.000Z</time>
      </trkpt>
      <trkpt lat="43.8818" lon="7.51902">
        <ele>315</ele>
        <time>2022-01-15T13:11:14.000Z</time>
      </trkpt>
      <trkpt lat="43.88179" lon="7.51907">
        <ele>315.39999389648</ele>
        <time>2022-01-15T13:11:15.000Z</time>
      </trkpt>
      <trkpt lat="43.88178" lon="7.51912">
        <ele>315.79998779297</ele>
        <time>2022-01-15T13:11:16.000Z</time>
      </trkpt>
      <trkpt lat="43.88174" lon="7.5192">
        <ele>316.60000610352</ele>
        <time>2022-01-15T13:11:19.000Z</time>
      </trkpt>
      <trkpt lat="43.88173" lon="7.51923">
        <ele>316.79998779297</ele>
        <time>2022-01-15T13:11:20.000Z</time>
      </trkpt>
      <trkpt lat="43.88171" lon="7.51923">
        <ele>316.79998779297</ele>
        <time>2022-01-15T13:11:21.000Z</time>
      </trkpt>
      <trkpt lat="43.88169" lon="7.5192">
        <ele>316.79998779297</ele>
        <time>2022-01-15T13:11:22.000Z</time>
      </trkpt>
      <trkpt lat="43.8817" lon="7.51912">
        <ele>315.79998779297</ele>
        <time>2022-01-15T13:11:25.000Z</time>
      </trkpt>
      <trkpt lat="43.88168" lon="7.51906">
        <ele>314.60000610352</ele>
        <time>2022-01-15T13:11:27.000Z</time>
      </trkpt>
      <trkpt lat="43.88166" lon="7.51901">
        <ele>313.79998779297</ele>
        <time>2022-01-15T13:11:28.000Z</time>
      </trkpt>
      <trkpt lat="43.88165" lon="7.51897">
        <ele>313.20001220703</ele>
        <time>2022-01-15T13:11:29.000Z</time>
      </trkpt>
      <trkpt lat="43.88159" lon="7.51888">
        <ele>311.79998779297</ele>
        <time>2022-01-15T13:11:31.000Z</time>
      </trkpt>
      <trkpt lat="43.88154" lon="7.51878">
        <ele>310.60000610352</ele>
        <time>2022-01-15T13:11:33.000Z</time>
      </trkpt>
      <trkpt lat="43.88148" lon="7.51866">
        <ele>309.39999389648</ele>
        <time>2022-01-15T13:11:35.000Z</time>
      </trkpt>
      <trkpt lat="43.88146" lon="7.51859">
        <ele>308.60000610352</ele>
        <time>2022-01-15T13:11:36.000Z</time>
      </trkpt>
      <trkpt lat="43.88144" lon="7.51852">
        <ele>307.60000610352</ele>
        <time>2022-01-15T13:11:37.000Z</time>
      </trkpt>
      <trkpt lat="43.88143" lon="7.51845">
        <ele>306.20001220703</ele>
        <time>2022-01-15T13:11:38.000Z</time>
      </trkpt>
      <trkpt lat="43.88141" lon="7.51832">
        <ele>304.60000610352</ele>
        <time>2022-01-15T13:11:40.000Z</time>
      </trkpt>
      <trkpt lat="43.88141" lon="7.51828">
        <ele>303.79998779297</ele>
        <time>2022-01-15T13:11:41.000Z</time>
      </trkpt>
      <trkpt lat="43.88141" lon="7.51825">
        <ele>303.20001220703</ele>
        <time>2022-01-15T13:11:42.000Z</time>
      </trkpt>
      <trkpt lat="43.88143" lon="7.51811">
        <ele>301.79998779297</ele>
        <time>2022-01-15T13:11:45.000Z</time>
      </trkpt>
      <trkpt lat="43.88144" lon="7.51806">
        <ele>301.20001220703</ele>
        <time>2022-01-15T13:11:46.000Z</time>
      </trkpt>
      <trkpt lat="43.88144" lon="7.51802">
        <ele>300.60000610352</ele>
        <time>2022-01-15T13:11:47.000Z</time>
      </trkpt>
      <trkpt lat="43.88144" lon="7.51801">
        <ele>299.20001220703</ele>
        <time>2022-01-15T13:11:49.000Z</time>
      </trkpt>
      <trkpt lat="43.88143" lon="7.51801">
        <ele>298.20001220703</ele>
        <time>2022-01-15T13:11:50.000Z</time>
      </trkpt>
      <trkpt lat="43.88142" lon="7.51802">
        <ele>297.79998779297</ele>
        <time>2022-01-15T13:11:51.000Z</time>
      </trkpt>
      <trkpt lat="43.88141" lon="7.51807">
        <ele>297.20001220703</ele>
        <time>2022-01-15T13:11:53.000Z</time>
      </trkpt>
      <trkpt lat="43.88139" lon="7.51808">
        <ele>296.79998779297</ele>
        <time>2022-01-15T13:11:54.000Z</time>
      </trkpt>
      <trkpt lat="43.88138" lon="7.51806">
        <ele>296.20001220703</ele>
        <time>2022-01-15T13:11:56.000Z</time>
      </trkpt>
      <trkpt lat="43.88138" lon="7.51804">
        <ele>295.60000610352</ele>
        <time>2022-01-15T13:11:57.000Z</time>
      </trkpt>
      <trkpt lat="43.88138" lon="7.51801">
        <ele>294.60000610352</ele>
        <time>2022-01-15T13:11:59.000Z</time>
      </trkpt>
      <trkpt lat="43.88138" lon="7.51802">
        <ele>294.20001220703</ele>
        <time>2022-01-15T13:12:00.000Z</time>
      </trkpt>
      <trkpt lat="43.88136" lon="7.51801">
        <ele>293.79998779297</ele>
        <time>2022-01-15T13:12:01.000Z</time>
      </trkpt>
      <trkpt lat="43.88134" lon="7.51801">
        <ele>293.39999389648</ele>
        <time>2022-01-15T13:12:02.000Z</time>
      </trkpt>
      <trkpt lat="43.88132" lon="7.51797">
        <ele>292.79998779297</ele>
        <time>2022-01-15T13:12:03.000Z</time>
      </trkpt>
      <trkpt lat="43.88131" lon="7.51793">
        <ele>292.20001220703</ele>
        <time>2022-01-15T13:12:04.000Z</time>
      </trkpt>
      <trkpt lat="43.88128" lon="7.51777">
        <ele>290.39999389648</ele>
        <time>2022-01-15T13:12:07.000Z</time>
      </trkpt>
      <trkpt lat="43.88128" lon="7.5177">
        <ele>289</ele>
        <time>2022-01-15T13:12:09.000Z</time>
      </trkpt>
      <trkpt lat="43.88131" lon="7.51762">
        <ele>287.20001220703</ele>
        <time>2022-01-15T13:12:11.000Z</time>
      </trkpt>
      <trkpt lat="43.88134" lon="7.51757">
        <ele>286.60000610352</ele>
        <time>2022-01-15T13:12:12.000Z</time>
      </trkpt>
      <trkpt lat="43.88137" lon="7.51752">
        <ele>286</ele>
        <time>2022-01-15T13:12:13.000Z</time>
      </trkpt>
      <trkpt lat="43.88145" lon="7.51744">
        <ele>284.79998779297</ele>
        <time>2022-01-15T13:12:15.000Z</time>
      </trkpt>
      <trkpt lat="43.88148" lon="7.5174">
        <ele>284.20001220703</ele>
        <time>2022-01-15T13:12:16.000Z</time>
      </trkpt>
      <trkpt lat="43.88151" lon="7.51735">
        <ele>283.39999389648</ele>
        <time>2022-01-15T13:12:17.000Z</time>
      </trkpt>
      <trkpt lat="43.88155" lon="7.51726">
        <ele>282.39999389648</ele>
        <time>2022-01-15T13:12:19.000Z</time>
      </trkpt>
      <trkpt lat="43.88157" lon="7.51722">
        <ele>281.79998779297</ele>
        <time>2022-01-15T13:12:20.000Z</time>
      </trkpt>
      <trkpt lat="43.88159" lon="7.51719">
        <ele>281.20001220703</ele>
        <time>2022-01-15T13:12:22.000Z</time>
      </trkpt>
      <trkpt lat="43.88159" lon="7.51719">
        <ele>281</ele>
        <time>2022-01-15T13:12:23.000Z</time>
      </trkpt>
      <trkpt lat="43.88158" lon="7.51718">
        <ele>280.60000610352</ele>
        <time>2022-01-15T13:12:35.000Z</time>
      </trkpt>
      <trkpt lat="43.88158" lon="7.51718">
        <ele>280.39999389648</ele>
        <time>2022-01-15T13:12:53.000Z</time>
      </trkpt>
      <trkpt lat="43.88158" lon="7.51718">
        <ele>280.20001220703</ele>
        <time>2022-01-15T13:12:55.000Z</time>
      </trkpt>
      <trkpt lat="43.88158" lon="7.51717">
        <ele>280</ele>
        <time>2022-01-15T13:13:04.000Z</time>
      </trkpt>
      <trkpt lat="43.88157" lon="7.51715">
        <ele>281</ele>
        <time>2022-01-15T13:13:18.000Z</time>
      </trkpt>
      <trkpt lat="43.88158" lon="7.51716">
        <ele>281.20001220703</ele>
        <time>2022-01-15T13:13:35.000Z</time>
      </trkpt>
      <trkpt lat="43.88157" lon="7.51716">
        <ele>281</ele>
        <time>2022-01-15T13:13:47.000Z</time>
      </trkpt>
      <trkpt lat="43.88158" lon="7.51718">
        <ele>281</ele>
        <time>2022-01-15T13:13:58.000Z</time>
      </trkpt>
      <trkpt lat="43.88158" lon="7.51716">
        <ele>281</ele>
        <time>2022-01-15T13:14:06.000Z</time>
      </trkpt>
      <trkpt lat="43.88157" lon="7.51715">
        <ele>281.20001220703</ele>
        <time>2022-01-15T13:14:11.000Z</time>
      </trkpt>
      <trkpt lat="43.88157" lon="7.51714">
        <ele>281.20001220703</ele>
        <time>2022-01-15T13:14:19.000Z</time>
      </trkpt>
      <trkpt lat="43.88157" lon="7.51712">
        <ele>281.39999389648</ele>
        <time>2022-01-15T13:14:30.000Z</time>
      </trkpt>
      <trkpt lat="43.8816" lon="7.51714">
        <ele>281.60000610352</ele>
        <time>2022-01-15T13:14:48.000Z</time>
      </trkpt>
      <trkpt lat="43.88163" lon="7.51709">
        <ele>281.60000610352</ele>
        <time>2022-01-15T13:15:11.000Z</time>
      </trkpt>
      <trkpt lat="43.88162" lon="7.51709">
        <ele>281.79998779297</ele>
        <time>2022-01-15T13:15:31.000Z</time>
      </trkpt>
      <trkpt lat="43.88162" lon="7.51711">
        <ele>281.60000610352</ele>
        <time>2022-01-15T13:15:57.000Z</time>
      </trkpt>
      <trkpt lat="43.88161" lon="7.51712">
        <ele>281.60000610352</ele>
        <time>2022-01-15T13:16:17.000Z</time>
      </trkpt>
      <trkpt lat="43.8816" lon="7.51714">
        <ele>281.60000610352</ele>
        <time>2022-01-15T13:16:32.000Z</time>
      </trkpt>
      <trkpt lat="43.88157" lon="7.51708">
        <ele>281.39999389648</ele>
        <time>2022-01-15T13:16:50.000Z</time>
      </trkpt>
      <trkpt lat="43.88157" lon="7.51705">
        <ele>281.39999389648</ele>
        <time>2022-01-15T13:16:55.000Z</time>
      </trkpt>
      <trkpt lat="43.88158" lon="7.51701">
        <ele>281.39999389648</ele>
        <time>2022-01-15T13:16:57.000Z</time>
      </trkpt>
      <trkpt lat="43.88164" lon="7.51681">
        <ele>281.20001220703</ele>
        <time>2022-01-15T13:17:01.000Z</time>
      </trkpt>
      <trkpt lat="43.88168" lon="7.51664">
        <ele>280.20001220703</ele>
        <time>2022-01-15T13:17:03.000Z</time>
      </trkpt>
      <trkpt lat="43.88172" lon="7.51658">
        <ele>279</ele>
        <time>2022-01-15T13:17:04.000Z</time>
      </trkpt>
      <trkpt lat="43.88177" lon="7.51654">
        <ele>278</ele>
        <time>2022-01-15T13:17:05.000Z</time>
      </trkpt>
      <trkpt lat="43.88185" lon="7.5165">
        <ele>276.39999389648</ele>
        <time>2022-01-15T13:17:07.000Z</time>
      </trkpt>
      <trkpt lat="43.88193" lon="7.51648">
        <ele>277.39999389648</ele>
        <time>2022-01-15T13:17:10.000Z</time>
      </trkpt>
      <trkpt lat="43.88199" lon="7.51648">
        <ele>278.60000610352</ele>
        <time>2022-01-15T13:17:12.000Z</time>
      </trkpt>
      <trkpt lat="43.88207" lon="7.51648">
        <ele>279.60000610352</ele>
        <time>2022-01-15T13:17:16.000Z</time>
      </trkpt>
      <trkpt lat="43.88212" lon="7.51648">
        <ele>279.79998779297</ele>
        <time>2022-01-15T13:17:18.000Z</time>
      </trkpt>
      <trkpt lat="43.88226" lon="7.51648">
        <ele>280.79998779297</ele>
        <time>2022-01-15T13:17:24.000Z</time>
      </trkpt>
      <trkpt lat="43.8824" lon="7.51649">
        <ele>281.79998779297</ele>
        <time>2022-01-15T13:17:30.000Z</time>
      </trkpt>
      <trkpt lat="43.88246" lon="7.51642">
        <ele>282.60000610352</ele>
        <time>2022-01-15T13:17:34.000Z</time>
      </trkpt>
      <trkpt lat="43.88247" lon="7.51638">
        <ele>282.79998779297</ele>
        <time>2022-01-15T13:17:35.000Z</time>
      </trkpt>
      <trkpt lat="43.88245" lon="7.51625">
        <ele>283.20001220703</ele>
        <time>2022-01-15T13:17:39.000Z</time>
      </trkpt>
      <trkpt lat="43.88244" lon="7.51623">
        <ele>283.20001220703</ele>
        <time>2022-01-15T13:17:40.000Z</time>
      </trkpt>
      <trkpt lat="43.88239" lon="7.51613">
        <ele>283.79998779297</ele>
        <time>2022-01-15T13:17:44.000Z</time>
      </trkpt>
      <trkpt lat="43.88233" lon="7.51609">
        <ele>284.39999389648</ele>
        <time>2022-01-15T13:17:47.000Z</time>
      </trkpt>
      <trkpt lat="43.88223" lon="7.51608">
        <ele>285</ele>
        <time>2022-01-15T13:17:51.000Z</time>
      </trkpt>
      <trkpt lat="43.88218" lon="7.51609">
        <ele>285.20001220703</ele>
        <time>2022-01-15T13:17:53.000Z</time>
      </trkpt>
      <trkpt lat="43.88201" lon="7.51608">
        <ele>286</ele>
        <time>2022-01-15T13:18:00.000Z</time>
      </trkpt>
      <trkpt lat="43.88186" lon="7.51605">
        <ele>287.20001220703</ele>
        <time>2022-01-15T13:18:07.000Z</time>
      </trkpt>
      <trkpt lat="43.88173" lon="7.51605">
        <ele>288.39999389648</ele>
        <time>2022-01-15T13:18:13.000Z</time>
      </trkpt>
      <trkpt lat="43.88158" lon="7.51609">
        <ele>289</ele>
        <time>2022-01-15T13:18:20.000Z</time>
      </trkpt>
      <trkpt lat="43.88153" lon="7.51611">
        <ele>289.39999389648</ele>
        <time>2022-01-15T13:18:22.000Z</time>
      </trkpt>
      <trkpt lat="43.88143" lon="7.51618">
        <ele>289.79998779297</ele>
        <time>2022-01-15T13:18:27.000Z</time>
      </trkpt>
      <trkpt lat="43.8813" lon="7.51625">
        <ele>290.39999389648</ele>
        <time>2022-01-15T13:18:33.000Z</time>
      </trkpt>
      <trkpt lat="43.88123" lon="7.51627">
        <ele>291</ele>
        <time>2022-01-15T13:18:36.000Z</time>
      </trkpt>
      <trkpt lat="43.88119" lon="7.51628">
        <ele>291.39999389648</ele>
        <time>2022-01-15T13:18:38.000Z</time>
      </trkpt>
      <trkpt lat="43.88107" lon="7.5163">
        <ele>292.20001220703</ele>
        <time>2022-01-15T13:18:44.000Z</time>
      </trkpt>
      <trkpt lat="43.881" lon="7.51629">
        <ele>292.39999389648</ele>
        <time>2022-01-15T13:18:47.000Z</time>
      </trkpt>
      <trkpt lat="43.88091" lon="7.51629">
        <ele>293</ele>
        <time>2022-01-15T13:18:51.000Z</time>
      </trkpt>
      <trkpt lat="43.88085" lon="7.51629">
        <ele>293.60000610352</ele>
        <time>2022-01-15T13:18:54.000Z</time>
      </trkpt>
      <trkpt lat="43.88074" lon="7.51633">
        <ele>294.60000610352</ele>
        <time>2022-01-15T13:18:59.000Z</time>
      </trkpt>
      <trkpt lat="43.88064" lon="7.51639">
        <ele>295.60000610352</ele>
        <time>2022-01-15T13:19:04.000Z</time>
      </trkpt>
      <trkpt lat="43.88056" lon="7.51643">
        <ele>296.39999389648</ele>
        <time>2022-01-15T13:19:08.000Z</time>
      </trkpt>
      <trkpt lat="43.88052" lon="7.51645">
        <ele>296.79998779297</ele>
        <time>2022-01-15T13:19:10.000Z</time>
      </trkpt>
      <trkpt lat="43.88041" lon="7.51649">
        <ele>297.79998779297</ele>
        <time>2022-01-15T13:19:15.000Z</time>
      </trkpt>
      <trkpt lat="43.88029" lon="7.51654">
        <ele>299</ele>
        <time>2022-01-15T13:19:21.000Z</time>
      </trkpt>
      <trkpt lat="43.88023" lon="7.51657">
        <ele>299.39999389648</ele>
        <time>2022-01-15T13:19:24.000Z</time>
      </trkpt>
      <trkpt lat="43.88013" lon="7.51662">
        <ele>300.20001220703</ele>
        <time>2022-01-15T13:19:29.000Z</time>
      </trkpt>
      <trkpt lat="43.88005" lon="7.51669">
        <ele>300.79998779297</ele>
        <time>2022-01-15T13:19:33.000Z</time>
      </trkpt>
      <trkpt lat="43.88002" lon="7.51674">
        <ele>301.20001220703</ele>
        <time>2022-01-15T13:19:35.000Z</time>
      </trkpt>
      <trkpt lat="43.87997" lon="7.51688">
        <ele>302.20001220703</ele>
        <time>2022-01-15T13:19:40.000Z</time>
      </trkpt>
      <trkpt lat="43.87996" lon="7.51691">
        <ele>302.39999389648</ele>
        <time>2022-01-15T13:19:41.000Z</time>
      </trkpt>
      <trkpt lat="43.87989" lon="7.51709">
        <ele>303.20001220703</ele>
        <time>2022-01-15T13:19:47.000Z</time>
      </trkpt>
      <trkpt lat="43.87988" lon="7.51711">
        <ele>303.39999389648</ele>
        <time>2022-01-15T13:19:48.000Z</time>
      </trkpt>
      <trkpt lat="43.87982" lon="7.5173">
        <ele>304.60000610352</ele>
        <time>2022-01-15T13:19:54.000Z</time>
      </trkpt>
      <trkpt lat="43.87976" lon="7.51748">
        <ele>305.60000610352</ele>
        <time>2022-01-15T13:20:00.000Z</time>
      </trkpt>
      <trkpt lat="43.87976" lon="7.51751">
        <ele>305.79998779297</ele>
        <time>2022-01-15T13:20:01.000Z</time>
      </trkpt>
      <trkpt lat="43.87974" lon="7.51767">
        <ele>306.79998779297</ele>
        <time>2022-01-15T13:20:06.000Z</time>
      </trkpt>
      <trkpt lat="43.87973" lon="7.51777">
        <ele>307</ele>
        <time>2022-01-15T13:20:09.000Z</time>
      </trkpt>
      <trkpt lat="43.87972" lon="7.51789">
        <ele>307.79998779297</ele>
        <time>2022-01-15T13:20:13.000Z</time>
      </trkpt>
      <trkpt lat="43.87968" lon="7.518">
        <ele>308.39999389648</ele>
        <time>2022-01-15T13:20:17.000Z</time>
      </trkpt>
      <trkpt lat="43.87964" lon="7.51798">
        <ele>308.79998779297</ele>
        <time>2022-01-15T13:20:19.000Z</time>
      </trkpt>
      <trkpt lat="43.87964" lon="7.51795">
        <ele>309</ele>
        <time>2022-01-15T13:20:20.000Z</time>
      </trkpt>
      <trkpt lat="43.87966" lon="7.51783">
        <ele>310</ele>
        <time>2022-01-15T13:20:25.000Z</time>
      </trkpt>
      <trkpt lat="43.87967" lon="7.5178">
        <ele>310.20001220703</ele>
        <time>2022-01-15T13:20:26.000Z</time>
      </trkpt>
      <trkpt lat="43.8797" lon="7.51759">
        <ele>311.20001220703</ele>
        <time>2022-01-15T13:20:33.000Z</time>
      </trkpt>
      <trkpt lat="43.8797" lon="7.51756">
        <ele>311.20001220703</ele>
        <time>2022-01-15T13:20:34.000Z</time>
      </trkpt>
      <trkpt lat="43.87973" lon="7.51733">
        <ele>312.20001220703</ele>
        <time>2022-01-15T13:20:41.000Z</time>
      </trkpt>
      <trkpt lat="43.87975" lon="7.51727">
        <ele>312.39999389648</ele>
        <time>2022-01-15T13:20:43.000Z</time>
      </trkpt>
      <trkpt lat="43.87977" lon="7.51708">
        <ele>313.20001220703</ele>
        <time>2022-01-15T13:20:49.000Z</time>
      </trkpt>
      <trkpt lat="43.87978" lon="7.51705">
        <ele>313.39999389648</ele>
        <time>2022-01-15T13:20:50.000Z</time>
      </trkpt>
      <trkpt lat="43.87981" lon="7.51689">
        <ele>314.39999389648</ele>
        <time>2022-01-15T13:20:56.000Z</time>
      </trkpt>
      <trkpt lat="43.87988" lon="7.51673">
        <ele>315.20001220703</ele>
        <time>2022-01-15T13:21:02.000Z</time>
      </trkpt>
      <trkpt lat="43.87989" lon="7.5167">
        <ele>315.39999389648</ele>
        <time>2022-01-15T13:21:03.000Z</time>
      </trkpt>
      <trkpt lat="43.87994" lon="7.51656">
        <ele>316</ele>
        <time>2022-01-15T13:21:09.000Z</time>
      </trkpt>
      <trkpt lat="43.87993" lon="7.51654">
        <ele>316.39999389648</ele>
        <time>2022-01-15T13:21:11.000Z</time>
      </trkpt>
      <trkpt lat="43.8799" lon="7.51654">
        <ele>316.60000610352</ele>
        <time>2022-01-15T13:21:13.000Z</time>
      </trkpt>
      <trkpt lat="43.87987" lon="7.5166">
        <ele>316.39999389648</ele>
        <time>2022-01-15T13:21:18.000Z</time>
      </trkpt>
      <trkpt lat="43.87987" lon="7.51662">
        <ele>316.20001220703</ele>
        <time>2022-01-15T13:21:21.000Z</time>
      </trkpt>
      <trkpt lat="43.8799" lon="7.51661">
        <ele>316.20001220703</ele>
        <time>2022-01-15T13:21:23.000Z</time>
      </trkpt>
      <trkpt lat="43.87998" lon="7.51655">
        <ele>316.39999389648</ele>
        <time>2022-01-15T13:21:28.000Z</time>
      </trkpt>
      <trkpt lat="43.88006" lon="7.51648">
        <ele>317</ele>
        <time>2022-01-15T13:21:33.000Z</time>
      </trkpt>
      <trkpt lat="43.88007" lon="7.51646">
        <ele>317.20001220703</ele>
        <time>2022-01-15T13:21:34.000Z</time>
      </trkpt>
      <trkpt lat="43.88011" lon="7.51643">
        <ele>317.60000610352</ele>
        <time>2022-01-15T13:21:36.000Z</time>
      </trkpt>
      <trkpt lat="43.88018" lon="7.51636">
        <ele>318.39999389648</ele>
        <time>2022-01-15T13:21:40.000Z</time>
      </trkpt>
      <trkpt lat="43.8802" lon="7.51635">
        <ele>318.60000610352</ele>
        <time>2022-01-15T13:21:41.000Z</time>
      </trkpt>
      <trkpt lat="43.88029" lon="7.51627">
        <ele>319.60000610352</ele>
        <time>2022-01-15T13:21:46.000Z</time>
      </trkpt>
      <trkpt lat="43.88034" lon="7.51623">
        <ele>320.39999389648</ele>
        <time>2022-01-15T13:21:49.000Z</time>
      </trkpt>
      <trkpt lat="43.88037" lon="7.5162">
        <ele>320.79998779297</ele>
        <time>2022-01-15T13:21:51.000Z</time>
      </trkpt>
      <trkpt lat="43.88045" lon="7.51612">
        <ele>321.79998779297</ele>
        <time>2022-01-15T13:21:56.000Z</time>
      </trkpt>
      <trkpt lat="43.88053" lon="7.51604">
        <ele>323</ele>
        <time>2022-01-15T13:22:01.000Z</time>
      </trkpt>
      <trkpt lat="43.88057" lon="7.51599">
        <ele>323.60000610352</ele>
        <time>2022-01-15T13:22:04.000Z</time>
      </trkpt>
      <trkpt lat="43.88059" lon="7.51596">
        <ele>324.20001220703</ele>
        <time>2022-01-15T13:22:06.000Z</time>
      </trkpt>
      <trkpt lat="43.88063" lon="7.51591">
        <ele>325</ele>
        <time>2022-01-15T13:22:09.000Z</time>
      </trkpt>
      <trkpt lat="43.88064" lon="7.51589">
        <ele>325.20001220703</ele>
        <time>2022-01-15T13:22:10.000Z</time>
      </trkpt>
      <trkpt lat="43.8807" lon="7.51582">
        <ele>326.39999389648</ele>
        <time>2022-01-15T13:22:14.000Z</time>
      </trkpt>
      <trkpt lat="43.88073" lon="7.51579">
        <ele>327</ele>
        <time>2022-01-15T13:22:16.000Z</time>
      </trkpt>
      <trkpt lat="43.88076" lon="7.51575">
        <ele>327.60000610352</ele>
        <time>2022-01-15T13:22:18.000Z</time>
      </trkpt>
      <trkpt lat="43.88081" lon="7.51568">
        <ele>328.60000610352</ele>
        <time>2022-01-15T13:22:22.000Z</time>
      </trkpt>
      <trkpt lat="43.88089" lon="7.51563">
        <ele>329.79998779297</ele>
        <time>2022-01-15T13:22:26.000Z</time>
      </trkpt>
      <trkpt lat="43.88092" lon="7.51559">
        <ele>330.20001220703</ele>
        <time>2022-01-15T13:22:28.000Z</time>
      </trkpt>
      <trkpt lat="43.88095" lon="7.51556">
        <ele>330.79998779297</ele>
        <time>2022-01-15T13:22:30.000Z</time>
      </trkpt>
      <trkpt lat="43.88101" lon="7.51548">
        <ele>331.79998779297</ele>
        <time>2022-01-15T13:22:34.000Z</time>
      </trkpt>
      <trkpt lat="43.88107" lon="7.51541">
        <ele>333</ele>
        <time>2022-01-15T13:22:38.000Z</time>
      </trkpt>
      <trkpt lat="43.88113" lon="7.51534">
        <ele>334.20001220703</ele>
        <time>2022-01-15T13:22:42.000Z</time>
      </trkpt>
      <trkpt lat="43.88119" lon="7.51527">
        <ele>335.20001220703</ele>
        <time>2022-01-15T13:22:46.000Z</time>
      </trkpt>
      <trkpt lat="43.88122" lon="7.51524">
        <ele>335.79998779297</ele>
        <time>2022-01-15T13:22:48.000Z</time>
      </trkpt>
      <trkpt lat="43.88126" lon="7.51522">
        <ele>336.39999389648</ele>
        <time>2022-01-15T13:22:50.000Z</time>
      </trkpt>
      <trkpt lat="43.88133" lon="7.51518">
        <ele>337.39999389648</ele>
        <time>2022-01-15T13:22:54.000Z</time>
      </trkpt>
      <trkpt lat="43.88135" lon="7.51516">
        <ele>337.79998779297</ele>
        <time>2022-01-15T13:22:55.000Z</time>
      </trkpt>
      <trkpt lat="43.8814" lon="7.51513">
        <ele>338.60000610352</ele>
        <time>2022-01-15T13:22:58.000Z</time>
      </trkpt>
      <trkpt lat="43.88149" lon="7.51506">
        <ele>339.79998779297</ele>
        <time>2022-01-15T13:23:03.000Z</time>
      </trkpt>
      <trkpt lat="43.8815" lon="7.51505">
        <ele>340</ele>
        <time>2022-01-15T13:23:04.000Z</time>
      </trkpt>
      <trkpt lat="43.88155" lon="7.515">
        <ele>340.79998779297</ele>
        <time>2022-01-15T13:23:07.000Z</time>
      </trkpt>
      <trkpt lat="43.8816" lon="7.51491">
        <ele>341.79998779297</ele>
        <time>2022-01-15T13:23:11.000Z</time>
      </trkpt>
      <trkpt lat="43.88161" lon="7.51489">
        <ele>342</ele>
        <time>2022-01-15T13:23:12.000Z</time>
      </trkpt>
      <trkpt lat="43.88166" lon="7.51476">
        <ele>343</ele>
        <time>2022-01-15T13:23:17.000Z</time>
      </trkpt>
      <trkpt lat="43.88169" lon="7.51467">
        <ele>344</ele>
        <time>2022-01-15T13:23:21.000Z</time>
      </trkpt>
      <trkpt lat="43.88174" lon="7.51459">
        <ele>345</ele>
        <time>2022-01-15T13:23:25.000Z</time>
      </trkpt>
      <trkpt lat="43.88177" lon="7.51455">
        <ele>345.39999389648</ele>
        <time>2022-01-15T13:23:27.000Z</time>
      </trkpt>
      <trkpt lat="43.8818" lon="7.51452">
        <ele>346</ele>
        <time>2022-01-15T13:23:29.000Z</time>
      </trkpt>
      <trkpt lat="43.88186" lon="7.51443">
        <ele>347.20001220703</ele>
        <time>2022-01-15T13:23:34.000Z</time>
      </trkpt>
      <trkpt lat="43.88187" lon="7.51441">
        <ele>347.39999389648</ele>
        <time>2022-01-15T13:23:35.000Z</time>
      </trkpt>
      <trkpt lat="43.88191" lon="7.51435">
        <ele>348.20001220703</ele>
        <time>2022-01-15T13:23:38.000Z</time>
      </trkpt>
      <trkpt lat="43.88197" lon="7.51428">
        <ele>349</ele>
        <time>2022-01-15T13:23:42.000Z</time>
      </trkpt>
      <trkpt lat="43.88198" lon="7.51427">
        <ele>349.20001220703</ele>
        <time>2022-01-15T13:23:43.000Z</time>
      </trkpt>
      <trkpt lat="43.88207" lon="7.51422">
        <ele>350.39999389648</ele>
        <time>2022-01-15T13:23:48.000Z</time>
      </trkpt>
      <trkpt lat="43.88208" lon="7.51421">
        <ele>350.60000610352</ele>
        <time>2022-01-15T13:23:49.000Z</time>
      </trkpt>
      <trkpt lat="43.88218" lon="7.51418">
        <ele>351.60000610352</ele>
        <time>2022-01-15T13:23:54.000Z</time>
      </trkpt>
      <trkpt lat="43.88226" lon="7.51416">
        <ele>352.60000610352</ele>
        <time>2022-01-15T13:23:58.000Z</time>
      </trkpt>
      <trkpt lat="43.88228" lon="7.51416">
        <ele>352.79998779297</ele>
        <time>2022-01-15T13:23:59.000Z</time>
      </trkpt>
      <trkpt lat="43.88237" lon="7.51411">
        <ele>354.20001220703</ele>
        <time>2022-01-15T13:24:04.000Z</time>
      </trkpt>
      <trkpt lat="43.88239" lon="7.51409">
        <ele>354.39999389648</ele>
        <time>2022-01-15T13:24:05.000Z</time>
      </trkpt>
      <trkpt lat="43.88245" lon="7.51402">
        <ele>355.20001220703</ele>
        <time>2022-01-15T13:24:09.000Z</time>
      </trkpt>
      <trkpt lat="43.88248" lon="7.51398">
        <ele>355.60000610352</ele>
        <time>2022-01-15T13:24:11.000Z</time>
      </trkpt>
      <trkpt lat="43.88253" lon="7.51388">
        <ele>356.39999389648</ele>
        <time>2022-01-15T13:24:15.000Z</time>
      </trkpt>
      <trkpt lat="43.88259" lon="7.51383">
        <ele>357</ele>
        <time>2022-01-15T13:24:18.000Z</time>
      </trkpt>
      <trkpt lat="43.88263" lon="7.51381">
        <ele>357.39999389648</ele>
        <time>2022-01-15T13:24:20.000Z</time>
      </trkpt>
      <trkpt lat="43.88272" lon="7.51381">
        <ele>358.20001220703</ele>
        <time>2022-01-15T13:24:24.000Z</time>
      </trkpt>
      <trkpt lat="43.88277" lon="7.51381">
        <ele>358.60000610352</ele>
        <time>2022-01-15T13:24:26.000Z</time>
      </trkpt>
      <trkpt lat="43.88288" lon="7.51379">
        <ele>359.79998779297</ele>
        <time>2022-01-15T13:24:31.000Z</time>
      </trkpt>
      <trkpt lat="43.8829" lon="7.51378">
        <ele>360</ele>
        <time>2022-01-15T13:24:32.000Z</time>
      </trkpt>
      <trkpt lat="43.883" lon="7.5137">
        <ele>361</ele>
        <time>2022-01-15T13:24:37.000Z</time>
      </trkpt>
      <trkpt lat="43.88306" lon="7.51365">
        <ele>361.60000610352</ele>
        <time>2022-01-15T13:24:40.000Z</time>
      </trkpt>
      <trkpt lat="43.88309" lon="7.51361">
        <ele>362</ele>
        <time>2022-01-15T13:24:42.000Z</time>
      </trkpt>
      <trkpt lat="43.88318" lon="7.5135">
        <ele>363</ele>
        <time>2022-01-15T13:24:47.000Z</time>
      </trkpt>
      <trkpt lat="43.8832" lon="7.51348">
        <ele>363.20001220703</ele>
        <time>2022-01-15T13:24:48.000Z</time>
      </trkpt>
      <trkpt lat="43.88328" lon="7.51337">
        <ele>364.20001220703</ele>
        <time>2022-01-15T13:24:53.000Z</time>
      </trkpt>
      <trkpt lat="43.88335" lon="7.51329">
        <ele>365.20001220703</ele>
        <time>2022-01-15T13:24:57.000Z</time>
      </trkpt>
      <trkpt lat="43.88337" lon="7.51328">
        <ele>365.39999389648</ele>
        <time>2022-01-15T13:24:58.000Z</time>
      </trkpt>
      <trkpt lat="43.88345" lon="7.5132">
        <ele>366.60000610352</ele>
        <time>2022-01-15T13:25:03.000Z</time>
      </trkpt>
      <trkpt lat="43.88347" lon="7.51319">
        <ele>366.79998779297</ele>
        <time>2022-01-15T13:25:04.000Z</time>
      </trkpt>
      <trkpt lat="43.88355" lon="7.51312">
        <ele>367.60000610352</ele>
        <time>2022-01-15T13:25:08.000Z</time>
      </trkpt>
      <trkpt lat="43.88366" lon="7.51304">
        <ele>368.79998779297</ele>
        <time>2022-01-15T13:25:13.000Z</time>
      </trkpt>
      <trkpt lat="43.88374" lon="7.51298">
        <ele>369.79998779297</ele>
        <time>2022-01-15T13:25:17.000Z</time>
      </trkpt>
      <trkpt lat="43.88383" lon="7.51291">
        <ele>370.79998779297</ele>
        <time>2022-01-15T13:25:21.000Z</time>
      </trkpt>
      <trkpt lat="43.88393" lon="7.51284">
        <ele>371.79998779297</ele>
        <time>2022-01-15T13:25:26.000Z</time>
      </trkpt>
      <trkpt lat="43.88398" lon="7.5128">
        <ele>372.39999389648</ele>
        <time>2022-01-15T13:25:28.000Z</time>
      </trkpt>
      <trkpt lat="43.88402" lon="7.51276">
        <ele>373</ele>
        <time>2022-01-15T13:25:30.000Z</time>
      </trkpt>
      <trkpt lat="43.88413" lon="7.51267">
        <ele>374.20001220703</ele>
        <time>2022-01-15T13:25:35.000Z</time>
      </trkpt>
      <trkpt lat="43.88417" lon="7.51263">
        <ele>374.79998779297</ele>
        <time>2022-01-15T13:25:37.000Z</time>
      </trkpt>
      <trkpt lat="43.88421" lon="7.5126">
        <ele>375.20001220703</ele>
        <time>2022-01-15T13:25:39.000Z</time>
      </trkpt>
      <trkpt lat="43.88429" lon="7.51252">
        <ele>376.60000610352</ele>
        <time>2022-01-15T13:25:43.000Z</time>
      </trkpt>
      <trkpt lat="43.88434" lon="7.51245">
        <ele>377.20001220703</ele>
        <time>2022-01-15T13:25:46.000Z</time>
      </trkpt>
      <trkpt lat="43.88438" lon="7.51241">
        <ele>377.60000610352</ele>
        <time>2022-01-15T13:25:48.000Z</time>
      </trkpt>
      <trkpt lat="43.88448" lon="7.51233">
        <ele>378.79998779297</ele>
        <time>2022-01-15T13:25:53.000Z</time>
      </trkpt>
      <trkpt lat="43.88457" lon="7.51228">
        <ele>380</ele>
        <time>2022-01-15T13:25:57.000Z</time>
      </trkpt>
      <trkpt lat="43.88464" lon="7.51226">
        <ele>380.60000610352</ele>
        <time>2022-01-15T13:26:00.000Z</time>
      </trkpt>
      <trkpt lat="43.88466" lon="7.51225">
        <ele>381</ele>
        <time>2022-01-15T13:26:01.000Z</time>
      </trkpt>
      <trkpt lat="43.88474" lon="7.51224">
        <ele>382</ele>
        <time>2022-01-15T13:26:05.000Z</time>
      </trkpt>
      <trkpt lat="43.88476" lon="7.51224">
        <ele>382.20001220703</ele>
        <time>2022-01-15T13:26:06.000Z</time>
      </trkpt>
      <trkpt lat="43.88482" lon="7.51223">
        <ele>383</ele>
        <time>2022-01-15T13:26:09.000Z</time>
      </trkpt>
      <trkpt lat="43.88491" lon="7.51223">
        <ele>384</ele>
        <time>2022-01-15T13:26:13.000Z</time>
      </trkpt>
      <trkpt lat="43.88499" lon="7.51222">
        <ele>385.20001220703</ele>
        <time>2022-01-15T13:26:17.000Z</time>
      </trkpt>
      <trkpt lat="43.88503" lon="7.51221">
        <ele>385.60000610352</ele>
        <time>2022-01-15T13:26:19.000Z</time>
      </trkpt>
      <trkpt lat="43.88509" lon="7.51219">
        <ele>386.20001220703</ele>
        <time>2022-01-15T13:26:22.000Z</time>
      </trkpt>
      <trkpt lat="43.88512" lon="7.51219">
        <ele>386.60000610352</ele>
        <time>2022-01-15T13:26:24.000Z</time>
      </trkpt>
      <trkpt lat="43.8852" lon="7.51218">
        <ele>387.39999389648</ele>
        <time>2022-01-15T13:26:28.000Z</time>
      </trkpt>
      <trkpt lat="43.88526" lon="7.51217">
        <ele>387.79998779297</ele>
        <time>2022-01-15T13:26:31.000Z</time>
      </trkpt>
      <trkpt lat="43.88532" lon="7.51218">
        <ele>388.39999389648</ele>
        <time>2022-01-15T13:26:34.000Z</time>
      </trkpt>
      <trkpt lat="43.88541" lon="7.51217">
        <ele>389.79998779297</ele>
        <time>2022-01-15T13:26:39.000Z</time>
      </trkpt>
      <trkpt lat="43.88542" lon="7.51216">
        <ele>390</ele>
        <time>2022-01-15T13:26:40.000Z</time>
      </trkpt>
      <trkpt lat="43.88547" lon="7.51211">
        <ele>390.60000610352</ele>
        <time>2022-01-15T13:26:45.000Z</time>
      </trkpt>
      <trkpt lat="43.88548" lon="7.51211">
        <ele>390.79998779297</ele>
        <time>2022-01-15T13:26:46.000Z</time>
      </trkpt>
      <trkpt lat="43.88549" lon="7.51207">
        <ele>391.20001220703</ele>
        <time>2022-01-15T13:26:50.000Z</time>
      </trkpt>
      <trkpt lat="43.88549" lon="7.51206">
        <ele>391.20001220703</ele>
        <time>2022-01-15T13:26:51.000Z</time>
      </trkpt>
      <trkpt lat="43.8855" lon="7.51201">
        <ele>391.39999389648</ele>
        <time>2022-01-15T13:26:54.000Z</time>
      </trkpt>
      <trkpt lat="43.8855" lon="7.512">
        <ele>391.39999389648</ele>
        <time>2022-01-15T13:26:55.000Z</time>
      </trkpt>
      <trkpt lat="43.8855" lon="7.51194">
        <ele>391.79998779297</ele>
        <time>2022-01-15T13:26:59.000Z</time>
      </trkpt>
      <trkpt lat="43.8855" lon="7.51193">
        <ele>391.79998779297</ele>
        <time>2022-01-15T13:27:01.000Z</time>
      </trkpt>
      <trkpt lat="43.88549" lon="7.51194">
        <ele>392</ele>
        <time>2022-01-15T13:27:10.000Z</time>
      </trkpt>
      <trkpt lat="43.88549" lon="7.51192">
        <ele>392</ele>
        <time>2022-01-15T13:27:24.000Z</time>
      </trkpt>
      <trkpt lat="43.88549" lon="7.51193">
        <ele>391.79998779297</ele>
        <time>2022-01-15T13:27:30.000Z</time>
      </trkpt>
      <trkpt lat="43.88549" lon="7.51193">
        <ele>392</ele>
        <time>2022-01-15T13:27:49.000Z</time>
      </trkpt>
      <trkpt lat="43.88547" lon="7.51192">
        <ele>392</ele>
        <time>2022-01-15T13:28:04.000Z</time>
      </trkpt>
      <trkpt lat="43.88546" lon="7.51192">
        <ele>392</ele>
        <time>2022-01-15T13:28:05.000Z</time>
      </trkpt>
      <trkpt lat="43.88547" lon="7.512">
        <ele>391.60000610352</ele>
        <time>2022-01-15T13:28:09.000Z</time>
      </trkpt>
      <trkpt lat="43.88547" lon="7.51203">
        <ele>391.60000610352</ele>
        <time>2022-01-15T13:28:10.000Z</time>
      </trkpt>
      <trkpt lat="43.88549" lon="7.51205">
        <ele>391.39999389648</ele>
        <time>2022-01-15T13:28:15.000Z</time>
      </trkpt>
      <trkpt lat="43.88549" lon="7.51196">
        <ele>391.39999389648</ele>
        <time>2022-01-15T13:28:19.000Z</time>
      </trkpt>
      <trkpt lat="43.88541" lon="7.51188">
        <ele>391.79998779297</ele>
        <time>2022-01-15T13:28:24.000Z</time>
      </trkpt>
      <trkpt lat="43.88523" lon="7.51183">
        <ele>392.60000610352</ele>
        <time>2022-01-15T13:28:32.000Z</time>
      </trkpt>
      <trkpt lat="43.88519" lon="7.51183">
        <ele>392.79998779297</ele>
        <time>2022-01-15T13:28:34.000Z</time>
      </trkpt>
      <trkpt lat="43.88502" lon="7.51185">
        <ele>393.60000610352</ele>
        <time>2022-01-15T13:28:41.000Z</time>
      </trkpt>
      <trkpt lat="43.88497" lon="7.51187">
        <ele>394</ele>
        <time>2022-01-15T13:28:43.000Z</time>
      </trkpt>
      <trkpt lat="43.88482" lon="7.51188">
        <ele>394.79998779297</ele>
        <time>2022-01-15T13:28:49.000Z</time>
      </trkpt>
      <trkpt lat="43.88479" lon="7.51188">
        <ele>395</ele>
        <time>2022-01-15T13:28:50.000Z</time>
      </trkpt>
      <trkpt lat="43.88456" lon="7.51185">
        <ele>396.20001220703</ele>
        <time>2022-01-15T13:28:59.000Z</time>
      </trkpt>
      <trkpt lat="43.88439" lon="7.5119">
        <ele>397</ele>
        <time>2022-01-15T13:29:06.000Z</time>
      </trkpt>
      <trkpt lat="43.88432" lon="7.51194">
        <ele>397.20001220703</ele>
        <time>2022-01-15T13:29:09.000Z</time>
      </trkpt>
      <trkpt lat="43.88417" lon="7.51205">
        <ele>397.39999389648</ele>
        <time>2022-01-15T13:29:15.000Z</time>
      </trkpt>
      <trkpt lat="43.88398" lon="7.51219">
        <ele>398.20001220703</ele>
        <time>2022-01-15T13:29:23.000Z</time>
      </trkpt>
      <trkpt lat="43.88393" lon="7.51221">
        <ele>398.39999389648</ele>
        <time>2022-01-15T13:29:25.000Z</time>
      </trkpt>
      <trkpt lat="43.88381" lon="7.51219">
        <ele>398.79998779297</ele>
        <time>2022-01-15T13:29:30.000Z</time>
      </trkpt>
      <trkpt lat="43.88373" lon="7.51206">
        <ele>399.20001220703</ele>
        <time>2022-01-15T13:29:35.000Z</time>
      </trkpt>
      <trkpt lat="43.88358" lon="7.5118">
        <ele>399.79998779297</ele>
        <time>2022-01-15T13:29:44.000Z</time>
      </trkpt>
      <trkpt lat="43.88346" lon="7.51168">
        <ele>400.20001220703</ele>
        <time>2022-01-15T13:29:50.000Z</time>
      </trkpt>
      <trkpt lat="43.88339" lon="7.51162">
        <ele>401</ele>
        <time>2022-01-15T13:29:53.000Z</time>
      </trkpt>
      <trkpt lat="43.88336" lon="7.51157">
        <ele>401.39999389648</ele>
        <time>2022-01-15T13:29:55.000Z</time>
      </trkpt>
      <trkpt lat="43.8833" lon="7.51142">
        <ele>402</ele>
        <time>2022-01-15T13:30:00.000Z</time>
      </trkpt>
      <trkpt lat="43.88323" lon="7.51122">
        <ele>402.39999389648</ele>
        <time>2022-01-15T13:30:07.000Z</time>
      </trkpt>
      <trkpt lat="43.88317" lon="7.51108">
        <ele>402.60000610352</ele>
        <time>2022-01-15T13:30:14.000Z</time>
      </trkpt>
      <trkpt lat="43.88316" lon="7.51105">
        <ele>402.60000610352</ele>
        <time>2022-01-15T13:30:15.000Z</time>
      </trkpt>
      <trkpt lat="43.88311" lon="7.51092">
        <ele>402.79998779297</ele>
        <time>2022-01-15T13:30:21.000Z</time>
      </trkpt>
      <trkpt lat="43.88303" lon="7.51081">
        <ele>403.20001220703</ele>
        <time>2022-01-15T13:30:27.000Z</time>
      </trkpt>
      <trkpt lat="43.88292" lon="7.51079">
        <ele>403.20001220703</ele>
        <time>2022-01-15T13:30:32.000Z</time>
      </trkpt>
      <trkpt lat="43.88277" lon="7.51083">
        <ele>402.79998779297</ele>
        <time>2022-01-15T13:30:38.000Z</time>
      </trkpt>
      <trkpt lat="43.88264" lon="7.51084">
        <ele>402.60000610352</ele>
        <time>2022-01-15T13:30:42.000Z</time>
      </trkpt>
      <trkpt lat="43.88245" lon="7.51086">
        <ele>401.39999389648</ele>
        <time>2022-01-15T13:30:47.000Z</time>
      </trkpt>
      <trkpt lat="43.88233" lon="7.51085">
        <ele>401</ele>
        <time>2022-01-15T13:30:50.000Z</time>
      </trkpt>
      <trkpt lat="43.88224" lon="7.51069">
        <ele>400.60000610352</ele>
        <time>2022-01-15T13:30:53.000Z</time>
      </trkpt>
      <trkpt lat="43.88224" lon="7.51062">
        <ele>400.39999389648</ele>
        <time>2022-01-15T13:30:54.000Z</time>
      </trkpt>
      <trkpt lat="43.88225" lon="7.51045">
        <ele>399.79998779297</ele>
        <time>2022-01-15T13:30:56.000Z</time>
      </trkpt>
      <trkpt lat="43.88225" lon="7.51029">
        <ele>399.20001220703</ele>
        <time>2022-01-15T13:30:58.000Z</time>
      </trkpt>
      <trkpt lat="43.88219" lon="7.51017">
        <ele>398.79998779297</ele>
        <time>2022-01-15T13:31:00.000Z</time>
      </trkpt>
      <trkpt lat="43.88212" lon="7.51009">
        <ele>398</ele>
        <time>2022-01-15T13:31:02.000Z</time>
      </trkpt>
      <trkpt lat="43.88206" lon="7.51005">
        <ele>397.20001220703</ele>
        <time>2022-01-15T13:31:04.000Z</time>
      </trkpt>
      <trkpt lat="43.88201" lon="7.51004">
        <ele>397</ele>
        <time>2022-01-15T13:31:07.000Z</time>
      </trkpt>
      <trkpt lat="43.88202" lon="7.51003">
        <ele>397</ele>
        <time>2022-01-15T13:31:12.000Z</time>
      </trkpt>
      <trkpt lat="43.88202" lon="7.51003">
        <ele>397.20001220703</ele>
        <time>2022-01-15T13:31:19.000Z</time>
      </trkpt>
      <trkpt lat="43.88202" lon="7.51003">
        <ele>397.20001220703</ele>
        <time>2022-01-15T13:31:27.000Z</time>
      </trkpt>
      <trkpt lat="43.88203" lon="7.51003">
        <ele>397.20001220703</ele>
        <time>2022-01-15T13:31:41.000Z</time>
      </trkpt>
      <trkpt lat="43.88203" lon="7.51005">
        <ele>397</ele>
        <time>2022-01-15T13:31:54.000Z</time>
      </trkpt>
      <trkpt lat="43.88204" lon="7.51006">
        <ele>397.20001220703</ele>
        <time>2022-01-15T13:32:06.000Z</time>
      </trkpt>
      <trkpt lat="43.88204" lon="7.51006">
        <ele>397.39999389648</ele>
        <time>2022-01-15T13:32:17.000Z</time>
      </trkpt>
      <trkpt lat="43.88204" lon="7.51006">
        <ele>397.20001220703</ele>
        <time>2022-01-15T13:32:23.000Z</time>
      </trkpt>
      <trkpt lat="43.88204" lon="7.51004">
        <ele>397.60000610352</ele>
        <time>2022-01-15T13:32:39.000Z</time>
      </trkpt>
      <trkpt lat="43.88203" lon="7.51003">
        <ele>397.60000610352</ele>
        <time>2022-01-15T13:32:47.000Z</time>
      </trkpt>
      <trkpt lat="43.88203" lon="7.51002">
        <ele>397.60000610352</ele>
        <time>2022-01-15T13:32:48.000Z</time>
      </trkpt>
      <trkpt lat="43.88205" lon="7.50991">
        <ele>397.20001220703</ele>
        <time>2022-01-15T13:32:52.000Z</time>
      </trkpt>
      <trkpt lat="43.88203" lon="7.50976">
        <ele>396.79998779297</ele>
        <time>2022-01-15T13:32:55.000Z</time>
      </trkpt>
      <trkpt lat="43.88202" lon="7.5097">
        <ele>396.60000610352</ele>
        <time>2022-01-15T13:32:56.000Z</time>
      </trkpt>
      <trkpt lat="43.882" lon="7.50954">
        <ele>395.39999389648</ele>
        <time>2022-01-15T13:32:59.000Z</time>
      </trkpt>
      <trkpt lat="43.88199" lon="7.50942">
        <ele>394.39999389648</ele>
        <time>2022-01-15T13:33:01.000Z</time>
      </trkpt>
      <trkpt lat="43.88198" lon="7.50937">
        <ele>394</ele>
        <time>2022-01-15T13:33:02.000Z</time>
      </trkpt>
      <trkpt lat="43.88199" lon="7.50926">
        <ele>393</ele>
        <time>2022-01-15T13:33:05.000Z</time>
      </trkpt>
      <trkpt lat="43.88198" lon="7.50924">
        <ele>392.60000610352</ele>
        <time>2022-01-15T13:33:06.000Z</time>
      </trkpt>
      <trkpt lat="43.88197" lon="7.50923">
        <ele>392</ele>
        <time>2022-01-15T13:33:08.000Z</time>
      </trkpt>
      <trkpt lat="43.88196" lon="7.50925">
        <ele>391.79998779297</ele>
        <time>2022-01-15T13:33:09.000Z</time>
      </trkpt>
      <trkpt lat="43.88196" lon="7.50926">
        <ele>391.60000610352</ele>
        <time>2022-01-15T13:33:10.000Z</time>
      </trkpt>
      <trkpt lat="43.88201" lon="7.50933">
        <ele>391.60000610352</ele>
        <time>2022-01-15T13:33:14.000Z</time>
      </trkpt>
      <trkpt lat="43.88202" lon="7.50947">
        <ele>392.79998779297</ele>
        <time>2022-01-15T13:33:19.000Z</time>
      </trkpt>
      <trkpt lat="43.88203" lon="7.50949">
        <ele>393</ele>
        <time>2022-01-15T13:33:20.000Z</time>
      </trkpt>
      <trkpt lat="43.88204" lon="7.50952">
        <ele>393.20001220703</ele>
        <time>2022-01-15T13:33:21.000Z</time>
      </trkpt>
      <trkpt lat="43.88206" lon="7.50965">
        <ele>393.79998779297</ele>
        <time>2022-01-15T13:33:25.000Z</time>
      </trkpt>
      <trkpt lat="43.88209" lon="7.50969">
        <ele>394.20001220703</ele>
        <time>2022-01-15T13:33:27.000Z</time>
      </trkpt>
      <trkpt lat="43.88213" lon="7.50969">
        <ele>394.60000610352</ele>
        <time>2022-01-15T13:33:29.000Z</time>
      </trkpt>
      <trkpt lat="43.88221" lon="7.50963">
        <ele>395.39999389648</ele>
        <time>2022-01-15T13:33:33.000Z</time>
      </trkpt>
      <trkpt lat="43.88223" lon="7.50962">
        <ele>395.60000610352</ele>
        <time>2022-01-15T13:33:34.000Z</time>
      </trkpt>
      <trkpt lat="43.88225" lon="7.50961">
        <ele>395.79998779297</ele>
        <time>2022-01-15T13:33:35.000Z</time>
      </trkpt>
      <trkpt lat="43.88229" lon="7.5096">
        <ele>396.39999389648</ele>
        <time>2022-01-15T13:33:37.000Z</time>
      </trkpt>
      <trkpt lat="43.88233" lon="7.5096">
        <ele>396.79998779297</ele>
        <time>2022-01-15T13:33:39.000Z</time>
      </trkpt>
      <trkpt lat="43.88234" lon="7.50959">
        <ele>397.79998779297</ele>
        <time>2022-01-15T13:33:41.000Z</time>
      </trkpt>
      <trkpt lat="43.88234" lon="7.50959">
        <ele>399</ele>
        <time>2022-01-15T13:33:43.000Z</time>
      </trkpt>
      <trkpt lat="43.88235" lon="7.50959">
        <ele>399.60000610352</ele>
        <time>2022-01-15T13:33:44.000Z</time>
      </trkpt>
      <trkpt lat="43.88236" lon="7.50957">
        <ele>400.20001220703</ele>
        <time>2022-01-15T13:33:46.000Z</time>
      </trkpt>
      <trkpt lat="43.88238" lon="7.50955">
        <ele>400.20001220703</ele>
        <time>2022-01-15T13:33:47.000Z</time>
      </trkpt>
      <trkpt lat="43.88241" lon="7.50953">
        <ele>400.20001220703</ele>
        <time>2022-01-15T13:33:48.000Z</time>
      </trkpt>
      <trkpt lat="43.88248" lon="7.50944">
        <ele>399</ele>
        <time>2022-01-15T13:33:51.000Z</time>
      </trkpt>
      <trkpt lat="43.88252" lon="7.5094">
        <ele>398.20001220703</ele>
        <time>2022-01-15T13:33:53.000Z</time>
      </trkpt>
      <trkpt lat="43.88254" lon="7.50939">
        <ele>397.79998779297</ele>
        <time>2022-01-15T13:33:54.000Z</time>
      </trkpt>
      <trkpt lat="43.88255" lon="7.50938">
        <ele>397.20001220703</ele>
        <time>2022-01-15T13:33:55.000Z</time>
      </trkpt>
      <trkpt lat="43.88255" lon="7.50935">
        <ele>396.39999389648</ele>
        <time>2022-01-15T13:33:57.000Z</time>
      </trkpt>
      <trkpt lat="43.88255" lon="7.50929">
        <ele>395.79998779297</ele>
        <time>2022-01-15T13:33:59.000Z</time>
      </trkpt>
      <trkpt lat="43.88255" lon="7.50927">
        <ele>395</ele>
        <time>2022-01-15T13:34:00.000Z</time>
      </trkpt>
      <trkpt lat="43.88256" lon="7.50923">
        <ele>393.60000610352</ele>
        <time>2022-01-15T13:34:02.000Z</time>
      </trkpt>
      <trkpt lat="43.88256" lon="7.50922">
        <ele>392.20001220703</ele>
        <time>2022-01-15T13:34:03.000Z</time>
      </trkpt>
      <trkpt lat="43.88256" lon="7.50922">
        <ele>391.39999389648</ele>
        <time>2022-01-15T13:34:04.000Z</time>
      </trkpt>
      <trkpt lat="43.88256" lon="7.50921">
        <ele>390.79998779297</ele>
        <time>2022-01-15T13:34:05.000Z</time>
      </trkpt>
      <trkpt lat="43.88256" lon="7.5092">
        <ele>389.60000610352</ele>
        <time>2022-01-15T13:34:08.000Z</time>
      </trkpt>
      <trkpt lat="43.88255" lon="7.50915">
        <ele>389.39999389648</ele>
        <time>2022-01-15T13:34:13.000Z</time>
      </trkpt>
      <trkpt lat="43.88255" lon="7.50913">
        <ele>389.39999389648</ele>
        <time>2022-01-15T13:34:14.000Z</time>
      </trkpt>
      <trkpt lat="43.88253" lon="7.50904">
        <ele>388.60000610352</ele>
        <time>2022-01-15T13:34:17.000Z</time>
      </trkpt>
      <trkpt lat="43.88251" lon="7.509">
        <ele>387.20001220703</ele>
        <time>2022-01-15T13:34:19.000Z</time>
      </trkpt>
      <trkpt lat="43.88249" lon="7.50899">
        <ele>386.60000610352</ele>
        <time>2022-01-15T13:34:20.000Z</time>
      </trkpt>
      <trkpt lat="43.88248" lon="7.50899">
        <ele>385.60000610352</ele>
        <time>2022-01-15T13:34:21.000Z</time>
      </trkpt>
      <trkpt lat="43.88244" lon="7.50899">
        <ele>384.60000610352</ele>
        <time>2022-01-15T13:34:23.000Z</time>
      </trkpt>
      <trkpt lat="43.88243" lon="7.50896">
        <ele>384.20001220703</ele>
        <time>2022-01-15T13:34:24.000Z</time>
      </trkpt>
      <trkpt lat="43.88245" lon="7.5089">
        <ele>383.20001220703</ele>
        <time>2022-01-15T13:34:26.000Z</time>
      </trkpt>
      <trkpt lat="43.88246" lon="7.50887">
        <ele>382.60000610352</ele>
        <time>2022-01-15T13:34:27.000Z</time>
      </trkpt>
      <trkpt lat="43.88246" lon="7.50876">
        <ele>381.20001220703</ele>
        <time>2022-01-15T13:34:29.000Z</time>
      </trkpt>
      <trkpt lat="43.88244" lon="7.50867">
        <ele>379.79998779297</ele>
        <time>2022-01-15T13:34:31.000Z</time>
      </trkpt>
      <trkpt lat="43.88243" lon="7.50865">
        <ele>378.79998779297</ele>
        <time>2022-01-15T13:34:33.000Z</time>
      </trkpt>
      <trkpt lat="43.88243" lon="7.50864">
        <ele>378.60000610352</ele>
        <time>2022-01-15T13:34:35.000Z</time>
      </trkpt>
      <trkpt lat="43.88243" lon="7.50866">
        <ele>379.39999389648</ele>
        <time>2022-01-15T13:34:43.000Z</time>
      </trkpt>
      <trkpt lat="43.88244" lon="7.50866">
        <ele>379.20001220703</ele>
        <time>2022-01-15T13:35:00.000Z</time>
      </trkpt>
      <trkpt lat="43.88243" lon="7.50861">
        <ele>379.20001220703</ele>
        <time>2022-01-15T13:35:04.000Z</time>
      </trkpt>
      <trkpt lat="43.88241" lon="7.5086">
        <ele>379.39999389648</ele>
        <time>2022-01-15T13:35:06.000Z</time>
      </trkpt>
      <trkpt lat="43.8824" lon="7.50859">
        <ele>379.39999389648</ele>
        <time>2022-01-15T13:35:07.000Z</time>
      </trkpt>
      <trkpt lat="43.88239" lon="7.50856">
        <ele>379.60000610352</ele>
        <time>2022-01-15T13:35:09.000Z</time>
      </trkpt>
      <trkpt lat="43.88237" lon="7.50853">
        <ele>379.79998779297</ele>
        <time>2022-01-15T13:35:11.000Z</time>
      </trkpt>
      <trkpt lat="43.88232" lon="7.50849">
        <ele>380.39999389648</ele>
        <time>2022-01-15T13:35:15.000Z</time>
      </trkpt>
      <trkpt lat="43.88231" lon="7.50844">
        <ele>380.60000610352</ele>
        <time>2022-01-15T13:35:17.000Z</time>
      </trkpt>
      <trkpt lat="43.88228" lon="7.50833">
        <ele>381.60000610352</ele>
        <time>2022-01-15T13:35:22.000Z</time>
      </trkpt>
      <trkpt lat="43.88228" lon="7.50831">
        <ele>381.79998779297</ele>
        <time>2022-01-15T13:35:23.000Z</time>
      </trkpt>
      <trkpt lat="43.88226" lon="7.50824">
        <ele>382.60000610352</ele>
        <time>2022-01-15T13:35:26.000Z</time>
      </trkpt>
      <trkpt lat="43.88226" lon="7.50822">
        <ele>382.79998779297</ele>
        <time>2022-01-15T13:35:27.000Z</time>
      </trkpt>
      <trkpt lat="43.88227" lon="7.5082">
        <ele>383</ele>
        <time>2022-01-15T13:35:28.000Z</time>
      </trkpt>
      <trkpt lat="43.88227" lon="7.50817">
        <ele>383.79998779297</ele>
        <time>2022-01-15T13:35:32.000Z</time>
      </trkpt>
      <trkpt lat="43.88228" lon="7.50814">
        <ele>384</ele>
        <time>2022-01-15T13:35:40.000Z</time>
      </trkpt>
      <trkpt lat="43.88229" lon="7.50812">
        <ele>384.20001220703</ele>
        <time>2022-01-15T13:35:42.000Z</time>
      </trkpt>
      <trkpt lat="43.88229" lon="7.5081">
        <ele>384.39999389648</ele>
        <time>2022-01-15T13:35:44.000Z</time>
      </trkpt>
      <trkpt lat="43.88229" lon="7.50808">
        <ele>384.39999389648</ele>
        <time>2022-01-15T13:35:45.000Z</time>
      </trkpt>
      <trkpt lat="43.88233" lon="7.50791">
        <ele>384.39999389648</ele>
        <time>2022-01-15T13:35:50.000Z</time>
      </trkpt>
      <trkpt lat="43.88237" lon="7.5077">
        <ele>383</ele>
        <time>2022-01-15T13:35:54.000Z</time>
      </trkpt>
      <trkpt lat="43.88237" lon="7.50765">
        <ele>382.60000610352</ele>
        <time>2022-01-15T13:35:55.000Z</time>
      </trkpt>
      <trkpt lat="43.88238" lon="7.50759">
        <ele>381.79998779297</ele>
        <time>2022-01-15T13:35:56.000Z</time>
      </trkpt>
      <trkpt lat="43.88241" lon="7.50747">
        <ele>380.39999389648</ele>
        <time>2022-01-15T13:35:58.000Z</time>
      </trkpt>
      <trkpt lat="43.88243" lon="7.50744">
        <ele>379.60000610352</ele>
        <time>2022-01-15T13:35:59.000Z</time>
      </trkpt>
      <trkpt lat="43.88244" lon="7.50738">
        <ele>378.79998779297</ele>
        <time>2022-01-15T13:36:00.000Z</time>
      </trkpt>
      <trkpt lat="43.88249" lon="7.50723">
        <ele>377.60000610352</ele>
        <time>2022-01-15T13:36:03.000Z</time>
      </trkpt>
      <trkpt lat="43.88257" lon="7.50704">
        <ele>376.39999389648</ele>
        <time>2022-01-15T13:36:07.000Z</time>
      </trkpt>
      <trkpt lat="43.88259" lon="7.50701">
        <ele>376.20001220703</ele>
        <time>2022-01-15T13:36:08.000Z</time>
      </trkpt>
      <trkpt lat="43.88269" lon="7.50689">
        <ele>375.39999389648</ele>
        <time>2022-01-15T13:36:12.000Z</time>
      </trkpt>
      <trkpt lat="43.88273" lon="7.50686">
        <ele>375.20001220703</ele>
        <time>2022-01-15T13:36:13.000Z</time>
      </trkpt>
      <trkpt lat="43.88277" lon="7.5068">
        <ele>374.60000610352</ele>
        <time>2022-01-15T13:36:15.000Z</time>
      </trkpt>
      <trkpt lat="43.88277" lon="7.50675">
        <ele>374.20001220703</ele>
        <time>2022-01-15T13:36:16.000Z</time>
      </trkpt>
      <trkpt lat="43.88277" lon="7.50653">
        <ele>373.39999389648</ele>
        <time>2022-01-15T13:36:20.000Z</time>
      </trkpt>
      <trkpt lat="43.88275" lon="7.50647">
        <ele>373.39999389648</ele>
        <time>2022-01-15T13:36:22.000Z</time>
      </trkpt>
      <trkpt lat="43.88273" lon="7.50644">
        <ele>373.60000610352</ele>
        <time>2022-01-15T13:36:23.000Z</time>
      </trkpt>
      <trkpt lat="43.88263" lon="7.50636">
        <ele>375</ele>
        <time>2022-01-15T13:36:26.000Z</time>
      </trkpt>
      <trkpt lat="43.8826" lon="7.50632">
        <ele>375.20001220703</ele>
        <time>2022-01-15T13:36:27.000Z</time>
      </trkpt>
      <trkpt lat="43.88256" lon="7.50628">
        <ele>375</ele>
        <time>2022-01-15T13:36:28.000Z</time>
      </trkpt>
      <trkpt lat="43.88253" lon="7.50618">
        <ele>374.39999389648</ele>
        <time>2022-01-15T13:36:30.000Z</time>
      </trkpt>
      <trkpt lat="43.88252" lon="7.50612">
        <ele>374</ele>
        <time>2022-01-15T13:36:31.000Z</time>
      </trkpt>
      <trkpt lat="43.88251" lon="7.506">
        <ele>372.79998779297</ele>
        <time>2022-01-15T13:36:33.000Z</time>
      </trkpt>
      <trkpt lat="43.88251" lon="7.50585">
        <ele>371.60000610352</ele>
        <time>2022-01-15T13:36:35.000Z</time>
      </trkpt>
      <trkpt lat="43.88252" lon="7.50578">
        <ele>370.39999389648</ele>
        <time>2022-01-15T13:36:36.000Z</time>
      </trkpt>
      <trkpt lat="43.88255" lon="7.50567">
        <ele>369.20001220703</ele>
        <time>2022-01-15T13:36:38.000Z</time>
      </trkpt>
      <trkpt lat="43.88259" lon="7.50564">
        <ele>368.20001220703</ele>
        <time>2022-01-15T13:36:39.000Z</time>
      </trkpt>
      <trkpt lat="43.88267" lon="7.50559">
        <ele>366.79998779297</ele>
        <time>2022-01-15T13:36:41.000Z</time>
      </trkpt>
      <trkpt lat="43.88274" lon="7.5056">
        <ele>365.60000610352</ele>
        <time>2022-01-15T13:36:43.000Z</time>
      </trkpt>
      <trkpt lat="43.88279" lon="7.50559">
        <ele>365.20001220703</ele>
        <time>2022-01-15T13:36:45.000Z</time>
      </trkpt>
      <trkpt lat="43.88281" lon="7.50559">
        <ele>365.20001220703</ele>
        <time>2022-01-15T13:36:46.000Z</time>
      </trkpt>
      <trkpt lat="43.88288" lon="7.50554">
        <ele>364.60000610352</ele>
        <time>2022-01-15T13:36:48.000Z</time>
      </trkpt>
      <trkpt lat="43.88292" lon="7.50551">
        <ele>364</ele>
        <time>2022-01-15T13:36:49.000Z</time>
      </trkpt>
      <trkpt lat="43.88295" lon="7.50547">
        <ele>363.79998779297</ele>
        <time>2022-01-15T13:36:50.000Z</time>
      </trkpt>
      <trkpt lat="43.88302" lon="7.50539">
        <ele>363.20001220703</ele>
        <time>2022-01-15T13:36:52.000Z</time>
      </trkpt>
      <trkpt lat="43.88306" lon="7.50535">
        <ele>363</ele>
        <time>2022-01-15T13:36:53.000Z</time>
      </trkpt>
      <trkpt lat="43.88318" lon="7.50524">
        <ele>362.20001220703</ele>
        <time>2022-01-15T13:36:57.000Z</time>
      </trkpt>
      <trkpt lat="43.88333" lon="7.50513">
        <ele>362</ele>
        <time>2022-01-15T13:37:01.000Z</time>
      </trkpt>
      <trkpt lat="43.88336" lon="7.50511">
        <ele>362</ele>
        <time>2022-01-15T13:37:02.000Z</time>
      </trkpt>
      <trkpt lat="43.88346" lon="7.50508">
        <ele>361.60000610352</ele>
        <time>2022-01-15T13:37:05.000Z</time>
      </trkpt>
      <trkpt lat="43.88353" lon="7.50504">
        <ele>361</ele>
        <time>2022-01-15T13:37:07.000Z</time>
      </trkpt>
      <trkpt lat="43.88356" lon="7.50499">
        <ele>360.79998779297</ele>
        <time>2022-01-15T13:37:09.000Z</time>
      </trkpt>
      <trkpt lat="43.88356" lon="7.50496">
        <ele>360.79998779297</ele>
        <time>2022-01-15T13:37:10.000Z</time>
      </trkpt>
      <trkpt lat="43.88352" lon="7.50487">
        <ele>361</ele>
        <time>2022-01-15T13:37:15.000Z</time>
      </trkpt>
      <trkpt lat="43.88349" lon="7.50486">
        <ele>361.39999389648</ele>
        <time>2022-01-15T13:37:17.000Z</time>
      </trkpt>
      <trkpt lat="43.88344" lon="7.50482">
        <ele>361.60000610352</ele>
        <time>2022-01-15T13:37:19.000Z</time>
      </trkpt>
      <trkpt lat="43.88329" lon="7.50469">
        <ele>360.60000610352</ele>
        <time>2022-01-15T13:37:24.000Z</time>
      </trkpt>
      <trkpt lat="43.88322" lon="7.50465">
        <ele>360.60000610352</ele>
        <time>2022-01-15T13:37:26.000Z</time>
      </trkpt>
      <trkpt lat="43.8831" lon="7.50458">
        <ele>359.79998779297</ele>
        <time>2022-01-15T13:37:29.000Z</time>
      </trkpt>
      <trkpt lat="43.88306" lon="7.50456">
        <ele>359.39999389648</ele>
        <time>2022-01-15T13:37:30.000Z</time>
      </trkpt>
      <trkpt lat="43.88296" lon="7.5045">
        <ele>359</ele>
        <time>2022-01-15T13:37:34.000Z</time>
      </trkpt>
      <trkpt lat="43.88285" lon="7.50439">
        <ele>359</ele>
        <time>2022-01-15T13:37:39.000Z</time>
      </trkpt>
      <trkpt lat="43.88284" lon="7.50437">
        <ele>358.60000610352</ele>
        <time>2022-01-15T13:37:40.000Z</time>
      </trkpt>
      <trkpt lat="43.88277" lon="7.50429">
        <ele>359</ele>
        <time>2022-01-15T13:37:45.000Z</time>
      </trkpt>
      <trkpt lat="43.88268" lon="7.50424">
        <ele>359.60000610352</ele>
        <time>2022-01-15T13:37:49.000Z</time>
      </trkpt>
      <trkpt lat="43.88265" lon="7.50421">
        <ele>360</ele>
        <time>2022-01-15T13:37:50.000Z</time>
      </trkpt>
      <trkpt lat="43.88259" lon="7.50416">
        <ele>361.39999389648</ele>
        <time>2022-01-15T13:37:53.000Z</time>
      </trkpt>
      <trkpt lat="43.88255" lon="7.50414">
        <ele>362.39999389648</ele>
        <time>2022-01-15T13:37:55.000Z</time>
      </trkpt>
      <trkpt lat="43.88253" lon="7.50415">
        <ele>363.79998779297</ele>
        <time>2022-01-15T13:37:57.000Z</time>
      </trkpt>
      <trkpt lat="43.8825" lon="7.50414">
        <ele>365.39999389648</ele>
        <time>2022-01-15T13:37:59.000Z</time>
      </trkpt>
      <trkpt lat="43.8825" lon="7.50414">
        <ele>366</ele>
        <time>2022-01-15T13:38:00.000Z</time>
      </trkpt>
      <trkpt lat="43.88249" lon="7.50413">
        <ele>366.60000610352</ele>
        <time>2022-01-15T13:38:01.000Z</time>
      </trkpt>
      <trkpt lat="43.8825" lon="7.50412">
        <ele>367.60000610352</ele>
        <time>2022-01-15T13:38:04.000Z</time>
      </trkpt>
      <trkpt lat="43.88251" lon="7.50411">
        <ele>367.79998779297</ele>
        <time>2022-01-15T13:38:05.000Z</time>
      </trkpt>
      <trkpt lat="43.88252" lon="7.50411">
        <ele>368</ele>
        <time>2022-01-15T13:38:11.000Z</time>
      </trkpt>
      <trkpt lat="43.88253" lon="7.50409">
        <ele>368</ele>
        <time>2022-01-15T13:38:15.000Z</time>
      </trkpt>
      <trkpt lat="43.88255" lon="7.50406">
        <ele>368.60000610352</ele>
        <time>2022-01-15T13:38:20.000Z</time>
      </trkpt>
      <trkpt lat="43.88255" lon="7.50406">
        <ele>368.79998779297</ele>
        <time>2022-01-15T13:38:21.000Z</time>
      </trkpt>
      <trkpt lat="43.88257" lon="7.50405">
        <ele>369.39999389648</ele>
        <time>2022-01-15T13:38:26.000Z</time>
      </trkpt>
      <trkpt lat="43.88259" lon="7.50403">
        <ele>369.39999389648</ele>
        <time>2022-01-15T13:38:28.000Z</time>
      </trkpt>
      <trkpt lat="43.88261" lon="7.50402">
        <ele>369.79998779297</ele>
        <time>2022-01-15T13:38:31.000Z</time>
      </trkpt>
      <trkpt lat="43.88265" lon="7.50399">
        <ele>370</ele>
        <time>2022-01-15T13:38:33.000Z</time>
      </trkpt>
      <trkpt lat="43.88267" lon="7.50397">
        <ele>370.60000610352</ele>
        <time>2022-01-15T13:38:36.000Z</time>
      </trkpt>
      <trkpt lat="43.88267" lon="7.50397">
        <ele>371</ele>
        <time>2022-01-15T13:38:37.000Z</time>
      </trkpt>
      <trkpt lat="43.88266" lon="7.50397">
        <ele>371.60000610352</ele>
        <time>2022-01-15T13:38:41.000Z</time>
      </trkpt>
      <trkpt lat="43.88264" lon="7.50398">
        <ele>371.79998779297</ele>
        <time>2022-01-15T13:38:46.000Z</time>
      </trkpt>
      <trkpt lat="43.88263" lon="7.50397">
        <ele>372</ele>
        <time>2022-01-15T13:38:49.000Z</time>
      </trkpt>
      <trkpt lat="43.88263" lon="7.50397">
        <ele>372.39999389648</ele>
        <time>2022-01-15T13:38:52.000Z</time>
      </trkpt>
      <trkpt lat="43.88262" lon="7.50397">
        <ele>372.39999389648</ele>
        <time>2022-01-15T13:38:59.000Z</time>
      </trkpt>
      <trkpt lat="43.88259" lon="7.50396">
        <ele>372.60000610352</ele>
        <time>2022-01-15T13:39:01.000Z</time>
      </trkpt>
      <trkpt lat="43.88256" lon="7.50397">
        <ele>373.20001220703</ele>
        <time>2022-01-15T13:39:03.000Z</time>
      </trkpt>
      <trkpt lat="43.88254" lon="7.50398">
        <ele>373.39999389648</ele>
        <time>2022-01-15T13:39:04.000Z</time>
      </trkpt>
      <trkpt lat="43.88253" lon="7.504">
        <ele>373.60000610352</ele>
        <time>2022-01-15T13:39:05.000Z</time>
      </trkpt>
      <trkpt lat="43.88252" lon="7.504">
        <ele>374.20001220703</ele>
        <time>2022-01-15T13:39:07.000Z</time>
      </trkpt>
      <trkpt lat="43.88252" lon="7.504">
        <ele>374.60000610352</ele>
        <time>2022-01-15T13:39:08.000Z</time>
      </trkpt>
      <trkpt lat="43.88252" lon="7.50398">
        <ele>375.60000610352</ele>
        <time>2022-01-15T13:39:10.000Z</time>
      </trkpt>
      <trkpt lat="43.88254" lon="7.50396">
        <ele>376.39999389648</ele>
        <time>2022-01-15T13:39:13.000Z</time>
      </trkpt>
      <trkpt lat="43.88258" lon="7.5039">
        <ele>376.60000610352</ele>
        <time>2022-01-15T13:39:17.000Z</time>
      </trkpt>
      <trkpt lat="43.88259" lon="7.50388">
        <ele>376.79998779297</ele>
        <time>2022-01-15T13:39:19.000Z</time>
      </trkpt>
      <trkpt lat="43.8826" lon="7.50386">
        <ele>377.79998779297</ele>
        <time>2022-01-15T13:39:24.000Z</time>
      </trkpt>
      <trkpt lat="43.88261" lon="7.50385">
        <ele>378.39999389648</ele>
        <time>2022-01-15T13:39:27.000Z</time>
      </trkpt>
      <trkpt lat="43.8826" lon="7.50384">
        <ele>378.60000610352</ele>
        <time>2022-01-15T13:39:31.000Z</time>
      </trkpt>
      <trkpt lat="43.88259" lon="7.50385">
        <ele>378.79998779297</ele>
        <time>2022-01-15T13:39:35.000Z</time>
      </trkpt>
      <trkpt lat="43.88256" lon="7.50386">
        <ele>379.20001220703</ele>
        <time>2022-01-15T13:39:39.000Z</time>
      </trkpt>
      <trkpt lat="43.88252" lon="7.5039">
        <ele>379</ele>
        <time>2022-01-15T13:39:42.000Z</time>
      </trkpt>
      <trkpt lat="43.88251" lon="7.50392">
        <ele>379</ele>
        <time>2022-01-15T13:39:43.000Z</time>
      </trkpt>
      <trkpt lat="43.88249" lon="7.50392">
        <ele>380.39999389648</ele>
        <time>2022-01-15T13:39:46.000Z</time>
      </trkpt>
      <trkpt lat="43.88249" lon="7.50391">
        <ele>381.79998779297</ele>
        <time>2022-01-15T13:39:49.000Z</time>
      </trkpt>
      <trkpt lat="43.88249" lon="7.5039">
        <ele>382</ele>
        <time>2022-01-15T13:39:51.000Z</time>
      </trkpt>
      <trkpt lat="43.8825" lon="7.50386">
        <ele>382.60000610352</ele>
        <time>2022-01-15T13:39:57.000Z</time>
      </trkpt>
      <trkpt lat="43.8825" lon="7.50386">
        <ele>382.79998779297</ele>
        <time>2022-01-15T13:39:59.000Z</time>
      </trkpt>
      <trkpt lat="43.88247" lon="7.50388">
        <ele>383.20001220703</ele>
        <time>2022-01-15T13:40:04.000Z</time>
      </trkpt>
      <trkpt lat="43.88239" lon="7.50388">
        <ele>384</ele>
        <time>2022-01-15T13:40:09.000Z</time>
      </trkpt>
      <trkpt lat="43.88237" lon="7.50387">
        <ele>384.79998779297</ele>
        <time>2022-01-15T13:40:10.000Z</time>
      </trkpt>
      <trkpt lat="43.88235" lon="7.50385">
        <ele>385.20001220703</ele>
        <time>2022-01-15T13:40:11.000Z</time>
      </trkpt>
      <trkpt lat="43.88225" lon="7.50372">
        <ele>386</ele>
        <time>2022-01-15T13:40:17.000Z</time>
      </trkpt>
      <trkpt lat="43.88224" lon="7.50369">
        <ele>386.20001220703</ele>
        <time>2022-01-15T13:40:18.000Z</time>
      </trkpt>
      <trkpt lat="43.88217" lon="7.5036">
        <ele>386.79998779297</ele>
        <time>2022-01-15T13:40:23.000Z</time>
      </trkpt>
      <trkpt lat="43.88215" lon="7.50356">
        <ele>387.20001220703</ele>
        <time>2022-01-15T13:40:25.000Z</time>
      </trkpt>
      <trkpt lat="43.88215" lon="7.50353">
        <ele>387.39999389648</ele>
        <time>2022-01-15T13:40:26.000Z</time>
      </trkpt>
      <trkpt lat="43.88217" lon="7.50349">
        <ele>387.39999389648</ele>
        <time>2022-01-15T13:40:28.000Z</time>
      </trkpt>
      <trkpt lat="43.88215" lon="7.5034">
        <ele>386</ele>
        <time>2022-01-15T13:40:31.000Z</time>
      </trkpt>
      <trkpt lat="43.88214" lon="7.50337">
        <ele>385.20001220703</ele>
        <time>2022-01-15T13:40:32.000Z</time>
      </trkpt>
      <trkpt lat="43.88213" lon="7.50334">
        <ele>384.79998779297</ele>
        <time>2022-01-15T13:40:33.000Z</time>
      </trkpt>
      <trkpt lat="43.88213" lon="7.50333">
        <ele>384</ele>
        <time>2022-01-15T13:40:34.000Z</time>
      </trkpt>
      <trkpt lat="43.88214" lon="7.5033">
        <ele>383.39999389648</ele>
        <time>2022-01-15T13:40:35.000Z</time>
      </trkpt>
      <trkpt lat="43.88216" lon="7.50327">
        <ele>383</ele>
        <time>2022-01-15T13:40:36.000Z</time>
      </trkpt>
      <trkpt lat="43.88219" lon="7.50318">
        <ele>382.39999389648</ele>
        <time>2022-01-15T13:40:38.000Z</time>
      </trkpt>
      <trkpt lat="43.8822" lon="7.50311">
        <ele>382</ele>
        <time>2022-01-15T13:40:39.000Z</time>
      </trkpt>
      <trkpt lat="43.8822" lon="7.50304">
        <ele>381.20001220703</ele>
        <time>2022-01-15T13:40:40.000Z</time>
      </trkpt>
      <trkpt lat="43.88221" lon="7.50298">
        <ele>380.79998779297</ele>
        <time>2022-01-15T13:40:41.000Z</time>
      </trkpt>
      <trkpt lat="43.88221" lon="7.50293">
        <ele>379.20001220703</ele>
        <time>2022-01-15T13:40:42.000Z</time>
      </trkpt>
      <trkpt lat="43.88222" lon="7.50287">
        <ele>378.20001220703</ele>
        <time>2022-01-15T13:40:43.000Z</time>
      </trkpt>
      <trkpt lat="43.88222" lon="7.50282">
        <ele>377.60000610352</ele>
        <time>2022-01-15T13:40:44.000Z</time>
      </trkpt>
      <trkpt lat="43.88223" lon="7.50277">
        <ele>377</ele>
        <time>2022-01-15T13:40:45.000Z</time>
      </trkpt>
      <trkpt lat="43.88224" lon="7.50265">
        <ele>377.20001220703</ele>
        <time>2022-01-15T13:40:48.000Z</time>
      </trkpt>
      <trkpt lat="43.88227" lon="7.50254">
        <ele>376.60000610352</ele>
        <time>2022-01-15T13:40:51.000Z</time>
      </trkpt>
      <trkpt lat="43.88229" lon="7.50252">
        <ele>376.39999389648</ele>
        <time>2022-01-15T13:40:52.000Z</time>
      </trkpt>
      <trkpt lat="43.88231" lon="7.50251">
        <ele>376</ele>
        <time>2022-01-15T13:40:53.000Z</time>
      </trkpt>
      <trkpt lat="43.88234" lon="7.50246">
        <ele>375.39999389648</ele>
        <time>2022-01-15T13:40:55.000Z</time>
      </trkpt>
      <trkpt lat="43.88235" lon="7.50244">
        <ele>374.79998779297</ele>
        <time>2022-01-15T13:40:56.000Z</time>
      </trkpt>
      <trkpt lat="43.88235" lon="7.50241">
        <ele>374.60000610352</ele>
        <time>2022-01-15T13:40:57.000Z</time>
      </trkpt>
      <trkpt lat="43.88232" lon="7.50226">
        <ele>373.79998779297</ele>
        <time>2022-01-15T13:41:00.000Z</time>
      </trkpt>
      <trkpt lat="43.88231" lon="7.5022">
        <ele>373.60000610352</ele>
        <time>2022-01-15T13:41:01.000Z</time>
      </trkpt>
      <trkpt lat="43.88232" lon="7.50209">
        <ele>372.79998779297</ele>
        <time>2022-01-15T13:41:03.000Z</time>
      </trkpt>
      <trkpt lat="43.8823" lon="7.50198">
        <ele>371.39999389648</ele>
        <time>2022-01-15T13:41:05.000Z</time>
      </trkpt>
      <trkpt lat="43.88229" lon="7.50181">
        <ele>370.60000610352</ele>
        <time>2022-01-15T13:41:08.000Z</time>
      </trkpt>
      <trkpt lat="43.88228" lon="7.50175">
        <ele>370</ele>
        <time>2022-01-15T13:41:09.000Z</time>
      </trkpt>
      <trkpt lat="43.88229" lon="7.50168">
        <ele>369.79998779297</ele>
        <time>2022-01-15T13:41:10.000Z</time>
      </trkpt>
      <trkpt lat="43.88231" lon="7.50161">
        <ele>369</ele>
        <time>2022-01-15T13:41:11.000Z</time>
      </trkpt>
      <trkpt lat="43.88234" lon="7.50149">
        <ele>367.60000610352</ele>
        <time>2022-01-15T13:41:13.000Z</time>
      </trkpt>
      <trkpt lat="43.88238" lon="7.50141">
        <ele>366.60000610352</ele>
        <time>2022-01-15T13:41:15.000Z</time>
      </trkpt>
      <trkpt lat="43.8824" lon="7.50137">
        <ele>366.39999389648</ele>
        <time>2022-01-15T13:41:16.000Z</time>
      </trkpt>
      <trkpt lat="43.8825" lon="7.50119">
        <ele>365.20001220703</ele>
        <time>2022-01-15T13:41:21.000Z</time>
      </trkpt>
      <trkpt lat="43.88255" lon="7.50111">
        <ele>364.20001220703</ele>
        <time>2022-01-15T13:41:23.000Z</time>
      </trkpt>
      <trkpt lat="43.88263" lon="7.50101">
        <ele>363.79998779297</ele>
        <time>2022-01-15T13:41:26.000Z</time>
      </trkpt>
      <trkpt lat="43.88266" lon="7.50101">
        <ele>362.79998779297</ele>
        <time>2022-01-15T13:41:27.000Z</time>
      </trkpt>
      <trkpt lat="43.88275" lon="7.50101">
        <ele>361.39999389648</ele>
        <time>2022-01-15T13:41:29.000Z</time>
      </trkpt>
      <trkpt lat="43.88285" lon="7.50095">
        <ele>360.20001220703</ele>
        <time>2022-01-15T13:41:32.000Z</time>
      </trkpt>
      <trkpt lat="43.88287" lon="7.50091">
        <ele>360.20001220703</ele>
        <time>2022-01-15T13:41:33.000Z</time>
      </trkpt>
      <trkpt lat="43.88294" lon="7.5007">
        <ele>360.60000610352</ele>
        <time>2022-01-15T13:41:37.000Z</time>
      </trkpt>
      <trkpt lat="43.883" lon="7.50055">
        <ele>360.39999389648</ele>
        <time>2022-01-15T13:41:41.000Z</time>
      </trkpt>
      <trkpt lat="43.883" lon="7.50054">
        <ele>361.39999389648</ele>
        <time>2022-01-15T13:41:44.000Z</time>
      </trkpt>
      <trkpt lat="43.88301" lon="7.50056">
        <ele>361.79998779297</ele>
        <time>2022-01-15T13:41:49.000Z</time>
      </trkpt>
      <trkpt lat="43.88301" lon="7.5006">
        <ele>362</ele>
        <time>2022-01-15T13:41:52.000Z</time>
      </trkpt>
      <trkpt lat="43.88303" lon="7.5006">
        <ele>362.39999389648</ele>
        <time>2022-01-15T13:41:54.000Z</time>
      </trkpt>
      <trkpt lat="43.88303" lon="7.50059">
        <ele>362.60000610352</ele>
        <time>2022-01-15T13:41:55.000Z</time>
      </trkpt>
      <trkpt lat="43.88303" lon="7.50057">
        <ele>363.39999389648</ele>
        <time>2022-01-15T13:41:59.000Z</time>
      </trkpt>
      <trkpt lat="43.88303" lon="7.50056">
        <ele>363.79998779297</ele>
        <time>2022-01-15T13:42:00.000Z</time>
      </trkpt>
      <trkpt lat="43.88306" lon="7.50043">
        <ele>364.39999389648</ele>
        <time>2022-01-15T13:42:04.000Z</time>
      </trkpt>
      <trkpt lat="43.88306" lon="7.50038">
        <ele>364.60000610352</ele>
        <time>2022-01-15T13:42:05.000Z</time>
      </trkpt>
      <trkpt lat="43.88309" lon="7.50026">
        <ele>364.79998779297</ele>
        <time>2022-01-15T13:42:09.000Z</time>
      </trkpt>
      <trkpt lat="43.8831" lon="7.50018">
        <ele>364.79998779297</ele>
        <time>2022-01-15T13:42:14.000Z</time>
      </trkpt>
      <trkpt lat="43.88317" lon="7.50007">
        <ele>364</ele>
        <time>2022-01-15T13:42:18.000Z</time>
      </trkpt>
      <trkpt lat="43.88319" lon="7.49999">
        <ele>364.39999389648</ele>
        <time>2022-01-15T13:42:21.000Z</time>
      </trkpt>
      <trkpt lat="43.88322" lon="7.49991">
        <ele>365.20001220703</ele>
        <time>2022-01-15T13:42:23.000Z</time>
      </trkpt>
      <trkpt lat="43.88329" lon="7.4997">
        <ele>364.79998779297</ele>
        <time>2022-01-15T13:42:28.000Z</time>
      </trkpt>
      <trkpt lat="43.88332" lon="7.49965">
        <ele>364.39999389648</ele>
        <time>2022-01-15T13:42:30.000Z</time>
      </trkpt>
      <trkpt lat="43.88333" lon="7.49963">
        <ele>363.79998779297</ele>
        <time>2022-01-15T13:42:32.000Z</time>
      </trkpt>
      <trkpt lat="43.88334" lon="7.49955">
        <ele>363.60000610352</ele>
        <time>2022-01-15T13:42:34.000Z</time>
      </trkpt>
      <trkpt lat="43.88336" lon="7.49945">
        <ele>363.20001220703</ele>
        <time>2022-01-15T13:42:36.000Z</time>
      </trkpt>
      <trkpt lat="43.88338" lon="7.49936">
        <ele>362.39999389648</ele>
        <time>2022-01-15T13:42:38.000Z</time>
      </trkpt>
      <trkpt lat="43.8834" lon="7.49932">
        <ele>361.39999389648</ele>
        <time>2022-01-15T13:42:39.000Z</time>
      </trkpt>
      <trkpt lat="43.88344" lon="7.49923">
        <ele>360</ele>
        <time>2022-01-15T13:42:41.000Z</time>
      </trkpt>
      <trkpt lat="43.88347" lon="7.49915">
        <ele>359.20001220703</ele>
        <time>2022-01-15T13:42:43.000Z</time>
      </trkpt>
      <trkpt lat="43.88347" lon="7.49903">
        <ele>359</ele>
        <time>2022-01-15T13:42:46.000Z</time>
      </trkpt>
      <trkpt lat="43.88348" lon="7.499">
        <ele>358.79998779297</ele>
        <time>2022-01-15T13:42:47.000Z</time>
      </trkpt>
      <trkpt lat="43.8835" lon="7.49893">
        <ele>357.39999389648</ele>
        <time>2022-01-15T13:42:49.000Z</time>
      </trkpt>
      <trkpt lat="43.88355" lon="7.49883">
        <ele>356.20001220703</ele>
        <time>2022-01-15T13:42:51.000Z</time>
      </trkpt>
      <trkpt lat="43.8836" lon="7.49874">
        <ele>354.60000610352</ele>
        <time>2022-01-15T13:42:53.000Z</time>
      </trkpt>
      <trkpt lat="43.88364" lon="7.49865">
        <ele>353</ele>
        <time>2022-01-15T13:42:55.000Z</time>
      </trkpt>
      <trkpt lat="43.88368" lon="7.49856">
        <ele>352.39999389648</ele>
        <time>2022-01-15T13:42:57.000Z</time>
      </trkpt>
      <trkpt lat="43.8837" lon="7.49852">
        <ele>351.79998779297</ele>
        <time>2022-01-15T13:42:58.000Z</time>
      </trkpt>
      <trkpt lat="43.88379" lon="7.49843">
        <ele>349.79998779297</ele>
        <time>2022-01-15T13:43:01.000Z</time>
      </trkpt>
      <trkpt lat="43.88381" lon="7.4984">
        <ele>348.79998779297</ele>
        <time>2022-01-15T13:43:02.000Z</time>
      </trkpt>
      <trkpt lat="43.88384" lon="7.49837">
        <ele>348.60000610352</ele>
        <time>2022-01-15T13:43:03.000Z</time>
      </trkpt>
      <trkpt lat="43.88391" lon="7.49829">
        <ele>346.79998779297</ele>
        <time>2022-01-15T13:43:06.000Z</time>
      </trkpt>
      <trkpt lat="43.88393" lon="7.49827">
        <ele>346</ele>
        <time>2022-01-15T13:43:07.000Z</time>
      </trkpt>
      <trkpt lat="43.88395" lon="7.49825">
        <ele>345</ele>
        <time>2022-01-15T13:43:08.000Z</time>
      </trkpt>
      <trkpt lat="43.88401" lon="7.4982">
        <ele>344</ele>
        <time>2022-01-15T13:43:10.000Z</time>
      </trkpt>
      <trkpt lat="43.88408" lon="7.49814">
        <ele>343.20001220703</ele>
        <time>2022-01-15T13:43:12.000Z</time>
      </trkpt>
      <trkpt lat="43.88411" lon="7.49811">
        <ele>342.39999389648</ele>
        <time>2022-01-15T13:43:13.000Z</time>
      </trkpt>
      <trkpt lat="43.88413" lon="7.49807">
        <ele>341.20001220703</ele>
        <time>2022-01-15T13:43:14.000Z</time>
      </trkpt>
      <trkpt lat="43.88416" lon="7.49803">
        <ele>340</ele>
        <time>2022-01-15T13:43:15.000Z</time>
      </trkpt>
      <trkpt lat="43.88417" lon="7.498">
        <ele>339.20001220703</ele>
        <time>2022-01-15T13:43:16.000Z</time>
      </trkpt>
      <trkpt lat="43.88417" lon="7.49799">
        <ele>338.39999389648</ele>
        <time>2022-01-15T13:43:17.000Z</time>
      </trkpt>
      <trkpt lat="43.88418" lon="7.49793">
        <ele>337.79998779297</ele>
        <time>2022-01-15T13:43:19.000Z</time>
      </trkpt>
      <trkpt lat="43.8842" lon="7.49789">
        <ele>337.39999389648</ele>
        <time>2022-01-15T13:43:20.000Z</time>
      </trkpt>
      <trkpt lat="43.88424" lon="7.49784">
        <ele>336.39999389648</ele>
        <time>2022-01-15T13:43:22.000Z</time>
      </trkpt>
      <trkpt lat="43.88426" lon="7.49782">
        <ele>335.79998779297</ele>
        <time>2022-01-15T13:43:23.000Z</time>
      </trkpt>
      <trkpt lat="43.88429" lon="7.4978">
        <ele>335.39999389648</ele>
        <time>2022-01-15T13:43:24.000Z</time>
      </trkpt>
      <trkpt lat="43.88431" lon="7.49778">
        <ele>335.20001220703</ele>
        <time>2022-01-15T13:43:25.000Z</time>
      </trkpt>
      <trkpt lat="43.8844" lon="7.4977">
        <ele>334.20001220703</ele>
        <time>2022-01-15T13:43:29.000Z</time>
      </trkpt>
      <trkpt lat="43.88447" lon="7.49766">
        <ele>332.60000610352</ele>
        <time>2022-01-15T13:43:32.000Z</time>
      </trkpt>
      <trkpt lat="43.88448" lon="7.49763">
        <ele>332.39999389648</ele>
        <time>2022-01-15T13:43:33.000Z</time>
      </trkpt>
      <trkpt lat="43.88453" lon="7.49752">
        <ele>331.60000610352</ele>
        <time>2022-01-15T13:43:36.000Z</time>
      </trkpt>
      <trkpt lat="43.88457" lon="7.49745">
        <ele>330</ele>
        <time>2022-01-15T13:43:38.000Z</time>
      </trkpt>
      <trkpt lat="43.88463" lon="7.49737">
        <ele>328.79998779297</ele>
        <time>2022-01-15T13:43:40.000Z</time>
      </trkpt>
      <trkpt lat="43.88473" lon="7.49731">
        <ele>328</ele>
        <time>2022-01-15T13:43:43.000Z</time>
      </trkpt>
      <trkpt lat="43.88484" lon="7.49722">
        <ele>329</ele>
        <time>2022-01-15T13:43:47.000Z</time>
      </trkpt>
      <trkpt lat="43.88488" lon="7.49713">
        <ele>329.20001220703</ele>
        <time>2022-01-15T13:43:49.000Z</time>
      </trkpt>
      <trkpt lat="43.88494" lon="7.49696">
        <ele>328.79998779297</ele>
        <time>2022-01-15T13:43:52.000Z</time>
      </trkpt>
      <trkpt lat="43.88507" lon="7.49665">
        <ele>328.39999389648</ele>
        <time>2022-01-15T13:43:57.000Z</time>
      </trkpt>
      <trkpt lat="43.8851" lon="7.49658">
        <ele>328.20001220703</ele>
        <time>2022-01-15T13:43:58.000Z</time>
      </trkpt>
      <trkpt lat="43.88516" lon="7.49645">
        <ele>327.39999389648</ele>
        <time>2022-01-15T13:44:00.000Z</time>
      </trkpt>
      <trkpt lat="43.8852" lon="7.49638">
        <ele>326.79998779297</ele>
        <time>2022-01-15T13:44:01.000Z</time>
      </trkpt>
      <trkpt lat="43.88523" lon="7.49632">
        <ele>326.20001220703</ele>
        <time>2022-01-15T13:44:02.000Z</time>
      </trkpt>
      <trkpt lat="43.88526" lon="7.49626">
        <ele>325.60000610352</ele>
        <time>2022-01-15T13:44:03.000Z</time>
      </trkpt>
      <trkpt lat="43.88528" lon="7.4962">
        <ele>325.20001220703</ele>
        <time>2022-01-15T13:44:04.000Z</time>
      </trkpt>
      <trkpt lat="43.88532" lon="7.49607">
        <ele>324.39999389648</ele>
        <time>2022-01-15T13:44:06.000Z</time>
      </trkpt>
      <trkpt lat="43.88534" lon="7.49601">
        <ele>323.79998779297</ele>
        <time>2022-01-15T13:44:07.000Z</time>
      </trkpt>
      <trkpt lat="43.88539" lon="7.49591">
        <ele>323</ele>
        <time>2022-01-15T13:44:09.000Z</time>
      </trkpt>
      <trkpt lat="43.88543" lon="7.49586">
        <ele>322.60000610352</ele>
        <time>2022-01-15T13:44:10.000Z</time>
      </trkpt>
      <trkpt lat="43.88545" lon="7.49579">
        <ele>322.39999389648</ele>
        <time>2022-01-15T13:44:11.000Z</time>
      </trkpt>
      <trkpt lat="43.88549" lon="7.49565">
        <ele>321.39999389648</ele>
        <time>2022-01-15T13:44:13.000Z</time>
      </trkpt>
      <trkpt lat="43.88552" lon="7.49559">
        <ele>320.60000610352</ele>
        <time>2022-01-15T13:44:14.000Z</time>
      </trkpt>
      <trkpt lat="43.88556" lon="7.49554">
        <ele>319.39999389648</ele>
        <time>2022-01-15T13:44:15.000Z</time>
      </trkpt>
      <trkpt lat="43.88559" lon="7.4955">
        <ele>318.20001220703</ele>
        <time>2022-01-15T13:44:16.000Z</time>
      </trkpt>
      <trkpt lat="43.88566" lon="7.49545">
        <ele>316.60000610352</ele>
        <time>2022-01-15T13:44:18.000Z</time>
      </trkpt>
      <trkpt lat="43.88575" lon="7.49544">
        <ele>315.60000610352</ele>
        <time>2022-01-15T13:44:20.000Z</time>
      </trkpt>
      <trkpt lat="43.88581" lon="7.49543">
        <ele>314.39999389648</ele>
        <time>2022-01-15T13:44:21.000Z</time>
      </trkpt>
      <trkpt lat="43.8859" lon="7.49536">
        <ele>312.79998779297</ele>
        <time>2022-01-15T13:44:23.000Z</time>
      </trkpt>
      <trkpt lat="43.88594" lon="7.49532">
        <ele>311.60000610352</ele>
        <time>2022-01-15T13:44:24.000Z</time>
      </trkpt>
      <trkpt lat="43.88601" lon="7.49523">
        <ele>310.20001220703</ele>
        <time>2022-01-15T13:44:26.000Z</time>
      </trkpt>
      <trkpt lat="43.88604" lon="7.49521">
        <ele>309.20001220703</ele>
        <time>2022-01-15T13:44:27.000Z</time>
      </trkpt>
      <trkpt lat="43.88605" lon="7.4952">
        <ele>308.79998779297</ele>
        <time>2022-01-15T13:44:28.000Z</time>
      </trkpt>
      <trkpt lat="43.8861" lon="7.49512">
        <ele>308</ele>
        <time>2022-01-15T13:44:31.000Z</time>
      </trkpt>
      <trkpt lat="43.8861" lon="7.49508">
        <ele>308</ele>
        <time>2022-01-15T13:44:32.000Z</time>
      </trkpt>
      <trkpt lat="43.88611" lon="7.49504">
        <ele>307.60000610352</ele>
        <time>2022-01-15T13:44:33.000Z</time>
      </trkpt>
      <trkpt lat="43.88614" lon="7.49496">
        <ele>307.79998779297</ele>
        <time>2022-01-15T13:44:35.000Z</time>
      </trkpt>
      <trkpt lat="43.88614" lon="7.49489">
        <ele>308</ele>
        <time>2022-01-15T13:44:37.000Z</time>
      </trkpt>
      <trkpt lat="43.88615" lon="7.49481">
        <ele>308.60000610352</ele>
        <time>2022-01-15T13:44:39.000Z</time>
      </trkpt>
      <trkpt lat="43.88617" lon="7.49471">
        <ele>309.60000610352</ele>
        <time>2022-01-15T13:44:41.000Z</time>
      </trkpt>
      <trkpt lat="43.88618" lon="7.49466">
        <ele>309.79998779297</ele>
        <time>2022-01-15T13:44:42.000Z</time>
      </trkpt>
      <trkpt lat="43.88619" lon="7.49458">
        <ele>310.39999389648</ele>
        <time>2022-01-15T13:44:44.000Z</time>
      </trkpt>
      <trkpt lat="43.88622" lon="7.49443">
        <ele>311</ele>
        <time>2022-01-15T13:44:47.000Z</time>
      </trkpt>
      <trkpt lat="43.88623" lon="7.49439">
        <ele>311</ele>
        <time>2022-01-15T13:44:48.000Z</time>
      </trkpt>
      <trkpt lat="43.88625" lon="7.49436">
        <ele>311</ele>
        <time>2022-01-15T13:44:49.000Z</time>
      </trkpt>
      <trkpt lat="43.88631" lon="7.49429">
        <ele>310.79998779297</ele>
        <time>2022-01-15T13:44:51.000Z</time>
      </trkpt>
      <trkpt lat="43.88644" lon="7.49414">
        <ele>311</ele>
        <time>2022-01-15T13:44:55.000Z</time>
      </trkpt>
      <trkpt lat="43.88652" lon="7.49397">
        <ele>311.20001220703</ele>
        <time>2022-01-15T13:44:59.000Z</time>
      </trkpt>
      <trkpt lat="43.88663" lon="7.49384">
        <ele>311.20001220703</ele>
        <time>2022-01-15T13:45:03.000Z</time>
      </trkpt>
      <trkpt lat="43.88665" lon="7.4938">
        <ele>311.20001220703</ele>
        <time>2022-01-15T13:45:04.000Z</time>
      </trkpt>
      <trkpt lat="43.88675" lon="7.4937">
        <ele>311</ele>
        <time>2022-01-15T13:45:07.000Z</time>
      </trkpt>
      <trkpt lat="43.88684" lon="7.49366">
        <ele>311</ele>
        <time>2022-01-15T13:45:11.000Z</time>
      </trkpt>
      <trkpt lat="43.88685" lon="7.49366">
        <ele>311.20001220703</ele>
        <time>2022-01-15T13:45:12.000Z</time>
      </trkpt>
      <trkpt lat="43.88687" lon="7.49364">
        <ele>311.39999389648</ele>
        <time>2022-01-15T13:45:13.000Z</time>
      </trkpt>
      <trkpt lat="43.88693" lon="7.49356">
        <ele>311.39999389648</ele>
        <time>2022-01-15T13:45:15.000Z</time>
      </trkpt>
      <trkpt lat="43.88701" lon="7.49342">
        <ele>311.20001220703</ele>
        <time>2022-01-15T13:45:19.000Z</time>
      </trkpt>
      <trkpt lat="43.8871" lon="7.49327">
        <ele>312.20001220703</ele>
        <time>2022-01-15T13:45:23.000Z</time>
      </trkpt>
      <trkpt lat="43.88711" lon="7.49323">
        <ele>312.79998779297</ele>
        <time>2022-01-15T13:45:24.000Z</time>
      </trkpt>
      <trkpt lat="43.88713" lon="7.4932">
        <ele>313.39999389648</ele>
        <time>2022-01-15T13:45:25.000Z</time>
      </trkpt>
      <trkpt lat="43.88713" lon="7.4932">
        <ele>314.60000610352</ele>
        <time>2022-01-15T13:45:27.000Z</time>
      </trkpt>
      <trkpt lat="43.88716" lon="7.49314">
        <ele>315.60000610352</ele>
        <time>2022-01-15T13:45:30.000Z</time>
      </trkpt>
      <trkpt lat="43.88717" lon="7.49312">
        <ele>316</ele>
        <time>2022-01-15T13:45:31.000Z</time>
      </trkpt>
      <trkpt lat="43.88723" lon="7.49302">
        <ele>316.79998779297</ele>
        <time>2022-01-15T13:45:34.000Z</time>
      </trkpt>
      <trkpt lat="43.88725" lon="7.49298">
        <ele>317.20001220703</ele>
        <time>2022-01-15T13:45:35.000Z</time>
      </trkpt>
      <trkpt lat="43.8873" lon="7.49292">
        <ele>318</ele>
        <time>2022-01-15T13:45:37.000Z</time>
      </trkpt>
      <trkpt lat="43.88735" lon="7.49286">
        <ele>319</ele>
        <time>2022-01-15T13:45:39.000Z</time>
      </trkpt>
      <trkpt lat="43.88738" lon="7.4928">
        <ele>320.20001220703</ele>
        <time>2022-01-15T13:45:41.000Z</time>
      </trkpt>
      <trkpt lat="43.88742" lon="7.49273">
        <ele>321.39999389648</ele>
        <time>2022-01-15T13:45:43.000Z</time>
      </trkpt>
      <trkpt lat="43.88746" lon="7.49262">
        <ele>322.60000610352</ele>
        <time>2022-01-15T13:45:46.000Z</time>
      </trkpt>
      <trkpt lat="43.88751" lon="7.49246">
        <ele>323.20001220703</ele>
        <time>2022-01-15T13:45:50.000Z</time>
      </trkpt>
      <trkpt lat="43.88757" lon="7.49231">
        <ele>323.79998779297</ele>
        <time>2022-01-15T13:45:54.000Z</time>
      </trkpt>
      <trkpt lat="43.8876" lon="7.49224">
        <ele>324.20001220703</ele>
        <time>2022-01-15T13:45:56.000Z</time>
      </trkpt>
      <trkpt lat="43.88761" lon="7.49216">
        <ele>324.79998779297</ele>
        <time>2022-01-15T13:45:58.000Z</time>
      </trkpt>
      <trkpt lat="43.88764" lon="7.49199">
        <ele>325.60000610352</ele>
        <time>2022-01-15T13:46:02.000Z</time>
      </trkpt>
      <trkpt lat="43.88765" lon="7.49195">
        <ele>325.79998779297</ele>
        <time>2022-01-15T13:46:03.000Z</time>
      </trkpt>
      <trkpt lat="43.88767" lon="7.49189">
        <ele>327</ele>
        <time>2022-01-15T13:46:06.000Z</time>
      </trkpt>
      <trkpt lat="43.88767" lon="7.49181">
        <ele>328</ele>
        <time>2022-01-15T13:46:09.000Z</time>
      </trkpt>
      <trkpt lat="43.88768" lon="7.49174">
        <ele>328.79998779297</ele>
        <time>2022-01-15T13:46:11.000Z</time>
      </trkpt>
      <trkpt lat="43.88768" lon="7.49167">
        <ele>329.39999389648</ele>
        <time>2022-01-15T13:46:13.000Z</time>
      </trkpt>
      <trkpt lat="43.88766" lon="7.49156">
        <ele>330.39999389648</ele>
        <time>2022-01-15T13:46:16.000Z</time>
      </trkpt>
      <trkpt lat="43.88765" lon="7.49153">
        <ele>331</ele>
        <time>2022-01-15T13:46:17.000Z</time>
      </trkpt>
      <trkpt lat="43.88764" lon="7.4915">
        <ele>331.39999389648</ele>
        <time>2022-01-15T13:46:18.000Z</time>
      </trkpt>
      <trkpt lat="43.88763" lon="7.49143">
        <ele>332</ele>
        <time>2022-01-15T13:46:20.000Z</time>
      </trkpt>
      <trkpt lat="43.88763" lon="7.4914">
        <ele>332.60000610352</ele>
        <time>2022-01-15T13:46:21.000Z</time>
      </trkpt>
      <trkpt lat="43.88761" lon="7.49134">
        <ele>333.39999389648</ele>
        <time>2022-01-15T13:46:23.000Z</time>
      </trkpt>
      <trkpt lat="43.88761" lon="7.4913">
        <ele>333.60000610352</ele>
        <time>2022-01-15T13:46:24.000Z</time>
      </trkpt>
      <trkpt lat="43.8876" lon="7.49123">
        <ele>334.39999389648</ele>
        <time>2022-01-15T13:46:26.000Z</time>
      </trkpt>
      <trkpt lat="43.88758" lon="7.49101">
        <ele>335</ele>
        <time>2022-01-15T13:46:31.000Z</time>
      </trkpt>
      <trkpt lat="43.88754" lon="7.49087">
        <ele>335.39999389648</ele>
        <time>2022-01-15T13:46:34.000Z</time>
      </trkpt>
      <trkpt lat="43.88749" lon="7.49078">
        <ele>335.20001220703</ele>
        <time>2022-01-15T13:46:36.000Z</time>
      </trkpt>
      <trkpt lat="43.88746" lon="7.49073">
        <ele>335</ele>
        <time>2022-01-15T13:46:37.000Z</time>
      </trkpt>
      <trkpt lat="43.88737" lon="7.49057">
        <ele>334.20001220703</ele>
        <time>2022-01-15T13:46:40.000Z</time>
      </trkpt>
      <trkpt lat="43.88735" lon="7.49052">
        <ele>333.79998779297</ele>
        <time>2022-01-15T13:46:42.000Z</time>
      </trkpt>
      <trkpt lat="43.88732" lon="7.49042">
        <ele>333</ele>
        <time>2022-01-15T13:46:44.000Z</time>
      </trkpt>
      <trkpt lat="43.88731" lon="7.49037">
        <ele>332.60000610352</ele>
        <time>2022-01-15T13:46:45.000Z</time>
      </trkpt>
      <trkpt lat="43.88727" lon="7.49012">
        <ele>332.79998779297</ele>
        <time>2022-01-15T13:46:50.000Z</time>
      </trkpt>
      <trkpt lat="43.88723" lon="7.4899">
        <ele>333</ele>
        <time>2022-01-15T13:46:55.000Z</time>
      </trkpt>
      <trkpt lat="43.88724" lon="7.48981">
        <ele>334.20001220703</ele>
        <time>2022-01-15T13:46:58.000Z</time>
      </trkpt>
      <trkpt lat="43.88724" lon="7.48982">
        <ele>334.79998779297</ele>
        <time>2022-01-15T13:46:59.000Z</time>
      </trkpt>
      <trkpt lat="43.88724" lon="7.4898">
        <ele>335.39999389648</ele>
        <time>2022-01-15T13:47:00.000Z</time>
      </trkpt>
      <trkpt lat="43.88724" lon="7.48979">
        <ele>336.39999389648</ele>
        <time>2022-01-15T13:47:02.000Z</time>
      </trkpt>
      <trkpt lat="43.88724" lon="7.48976">
        <ele>337</ele>
        <time>2022-01-15T13:47:06.000Z</time>
      </trkpt>
      <trkpt lat="43.88722" lon="7.48973">
        <ele>337.39999389648</ele>
        <time>2022-01-15T13:47:09.000Z</time>
      </trkpt>
      <trkpt lat="43.88722" lon="7.48972">
        <ele>337.60000610352</ele>
        <time>2022-01-15T13:47:10.000Z</time>
      </trkpt>
      <trkpt lat="43.88722" lon="7.48968">
        <ele>338</ele>
        <time>2022-01-15T13:47:13.000Z</time>
      </trkpt>
      <trkpt lat="43.88722" lon="7.48962">
        <ele>338.60000610352</ele>
        <time>2022-01-15T13:47:19.000Z</time>
      </trkpt>
      <trkpt lat="43.88724" lon="7.48943">
        <ele>339.39999389648</ele>
        <time>2022-01-15T13:47:25.000Z</time>
      </trkpt>
      <trkpt lat="43.88724" lon="7.4894">
        <ele>339.60000610352</ele>
        <time>2022-01-15T13:47:26.000Z</time>
      </trkpt>
      <trkpt lat="43.88725" lon="7.4893">
        <ele>340.79998779297</ele>
        <time>2022-01-15T13:47:29.000Z</time>
      </trkpt>
      <trkpt lat="43.88725" lon="7.4892">
        <ele>342</ele>
        <time>2022-01-15T13:47:32.000Z</time>
      </trkpt>
      <trkpt lat="43.88726" lon="7.48917">
        <ele>342.60000610352</ele>
        <time>2022-01-15T13:47:33.000Z</time>
      </trkpt>
      <trkpt lat="43.88726" lon="7.48911">
        <ele>343.39999389648</ele>
        <time>2022-01-15T13:47:35.000Z</time>
      </trkpt>
      <trkpt lat="43.88727" lon="7.48903">
        <ele>344.39999389648</ele>
        <time>2022-01-15T13:47:38.000Z</time>
      </trkpt>
      <trkpt lat="43.88729" lon="7.48893">
        <ele>345</ele>
        <time>2022-01-15T13:47:41.000Z</time>
      </trkpt>
      <trkpt lat="43.8873" lon="7.48888">
        <ele>345.39999389648</ele>
        <time>2022-01-15T13:47:43.000Z</time>
      </trkpt>
      <trkpt lat="43.88731" lon="7.48881">
        <ele>346.60000610352</ele>
        <time>2022-01-15T13:47:46.000Z</time>
      </trkpt>
      <trkpt lat="43.88731" lon="7.48875">
        <ele>347.20001220703</ele>
        <time>2022-01-15T13:47:48.000Z</time>
      </trkpt>
      <trkpt lat="43.88731" lon="7.48873">
        <ele>347.60000610352</ele>
        <time>2022-01-15T13:47:49.000Z</time>
      </trkpt>
      <trkpt lat="43.88735" lon="7.48864">
        <ele>347.79998779297</ele>
        <time>2022-01-15T13:47:53.000Z</time>
      </trkpt>
      <trkpt lat="43.88743" lon="7.4886">
        <ele>348</ele>
        <time>2022-01-15T13:47:57.000Z</time>
      </trkpt>
      <trkpt lat="43.88756" lon="7.4885">
        <ele>348</ele>
        <time>2022-01-15T13:48:03.000Z</time>
      </trkpt>
      <trkpt lat="43.8876" lon="7.48847">
        <ele>347.60000610352</ele>
        <time>2022-01-15T13:48:05.000Z</time>
      </trkpt>
      <trkpt lat="43.88761" lon="7.48846">
        <ele>346.60000610352</ele>
        <time>2022-01-15T13:48:07.000Z</time>
      </trkpt>
      <trkpt lat="43.88762" lon="7.48846">
        <ele>346.39999389648</ele>
        <time>2022-01-15T13:48:08.000Z</time>
      </trkpt>
      <trkpt lat="43.88765" lon="7.48845">
        <ele>345.39999389648</ele>
        <time>2022-01-15T13:48:10.000Z</time>
      </trkpt>
      <trkpt lat="43.88768" lon="7.48843">
        <ele>344.79998779297</ele>
        <time>2022-01-15T13:48:11.000Z</time>
      </trkpt>
      <trkpt lat="43.88773" lon="7.4884">
        <ele>343.60000610352</ele>
        <time>2022-01-15T13:48:13.000Z</time>
      </trkpt>
      <trkpt lat="43.88776" lon="7.48839">
        <ele>343.20001220703</ele>
        <time>2022-01-15T13:48:14.000Z</time>
      </trkpt>
      <trkpt lat="43.88778" lon="7.48838">
        <ele>342.60000610352</ele>
        <time>2022-01-15T13:48:15.000Z</time>
      </trkpt>
      <trkpt lat="43.88783" lon="7.48834">
        <ele>341.60000610352</ele>
        <time>2022-01-15T13:48:17.000Z</time>
      </trkpt>
      <trkpt lat="43.88785" lon="7.48832">
        <ele>341.39999389648</ele>
        <time>2022-01-15T13:48:18.000Z</time>
      </trkpt>
      <trkpt lat="43.88792" lon="7.48821">
        <ele>340.20001220703</ele>
        <time>2022-01-15T13:48:21.000Z</time>
      </trkpt>
      <trkpt lat="43.88794" lon="7.48819">
        <ele>339.39999389648</ele>
        <time>2022-01-15T13:48:22.000Z</time>
      </trkpt>
      <trkpt lat="43.88796" lon="7.48817">
        <ele>338.79998779297</ele>
        <time>2022-01-15T13:48:23.000Z</time>
      </trkpt>
      <trkpt lat="43.888" lon="7.48812">
        <ele>337.60000610352</ele>
        <time>2022-01-15T13:48:25.000Z</time>
      </trkpt>
      <trkpt lat="43.88803" lon="7.48808">
        <ele>336.20001220703</ele>
        <time>2022-01-15T13:48:27.000Z</time>
      </trkpt>
      <trkpt lat="43.88804" lon="7.48807">
        <ele>336</ele>
        <time>2022-01-15T13:48:31.000Z</time>
      </trkpt>
      <trkpt lat="43.88806" lon="7.48803">
        <ele>336.39999389648</ele>
        <time>2022-01-15T13:48:38.000Z</time>
      </trkpt>
      <trkpt lat="43.88805" lon="7.48801">
        <ele>337.20001220703</ele>
        <time>2022-01-15T13:48:43.000Z</time>
      </trkpt>
      <trkpt lat="43.88805" lon="7.48801">
        <ele>337.39999389648</ele>
        <time>2022-01-15T13:48:44.000Z</time>
      </trkpt>
      <trkpt lat="43.88804" lon="7.48799">
        <ele>337.60000610352</ele>
        <time>2022-01-15T13:48:53.000Z</time>
      </trkpt>
      <trkpt lat="43.88803" lon="7.48798">
        <ele>337.60000610352</ele>
        <time>2022-01-15T13:48:54.000Z</time>
      </trkpt>
      <trkpt lat="43.88791" lon="7.48791">
        <ele>338</ele>
        <time>2022-01-15T13:49:01.000Z</time>
      </trkpt>
      <trkpt lat="43.88788" lon="7.4879">
        <ele>338.39999389648</ele>
        <time>2022-01-15T13:49:03.000Z</time>
      </trkpt>
      <trkpt lat="43.88782" lon="7.48789">
        <ele>339.60000610352</ele>
        <time>2022-01-15T13:49:06.000Z</time>
      </trkpt>
      <trkpt lat="43.88777" lon="7.48787">
        <ele>341</ele>
        <time>2022-01-15T13:49:09.000Z</time>
      </trkpt>
      <trkpt lat="43.88776" lon="7.48785">
        <ele>341.39999389648</ele>
        <time>2022-01-15T13:49:10.000Z</time>
      </trkpt>
      <trkpt lat="43.88773" lon="7.48783">
        <ele>342.39999389648</ele>
        <time>2022-01-15T13:49:12.000Z</time>
      </trkpt>
      <trkpt lat="43.88769" lon="7.48779">
        <ele>343.60000610352</ele>
        <time>2022-01-15T13:49:15.000Z</time>
      </trkpt>
      <trkpt lat="43.88768" lon="7.48775">
        <ele>344.20001220703</ele>
        <time>2022-01-15T13:49:17.000Z</time>
      </trkpt>
      <trkpt lat="43.88766" lon="7.48772">
        <ele>344.79998779297</ele>
        <time>2022-01-15T13:49:19.000Z</time>
      </trkpt>
      <trkpt lat="43.88763" lon="7.48768">
        <ele>346</ele>
        <time>2022-01-15T13:49:22.000Z</time>
      </trkpt>
      <trkpt lat="43.88762" lon="7.48767">
        <ele>346.39999389648</ele>
        <time>2022-01-15T13:49:23.000Z</time>
      </trkpt>
      <trkpt lat="43.8876" lon="7.48764">
        <ele>347.20001220703</ele>
        <time>2022-01-15T13:49:25.000Z</time>
      </trkpt>
      <trkpt lat="43.88755" lon="7.48758">
        <ele>348.20001220703</ele>
        <time>2022-01-15T13:49:28.000Z</time>
      </trkpt>
      <trkpt lat="43.88749" lon="7.48753">
        <ele>349.39999389648</ele>
        <time>2022-01-15T13:49:31.000Z</time>
      </trkpt>
      <trkpt lat="43.88747" lon="7.48752">
        <ele>350</ele>
        <time>2022-01-15T13:49:32.000Z</time>
      </trkpt>
      <trkpt lat="43.88743" lon="7.48748">
        <ele>350.79998779297</ele>
        <time>2022-01-15T13:49:34.000Z</time>
      </trkpt>
      <trkpt lat="43.88739" lon="7.48745">
        <ele>352.20001220703</ele>
        <time>2022-01-15T13:49:36.000Z</time>
      </trkpt>
      <trkpt lat="43.88735" lon="7.48743">
        <ele>353.39999389648</ele>
        <time>2022-01-15T13:49:38.000Z</time>
      </trkpt>
      <trkpt lat="43.88728" lon="7.4874">
        <ele>354.79998779297</ele>
        <time>2022-01-15T13:49:41.000Z</time>
      </trkpt>
      <trkpt lat="43.88724" lon="7.48737">
        <ele>355.79998779297</ele>
        <time>2022-01-15T13:49:43.000Z</time>
      </trkpt>
      <trkpt lat="43.88723" lon="7.48735">
        <ele>356.20001220703</ele>
        <time>2022-01-15T13:49:44.000Z</time>
      </trkpt>
      <trkpt lat="43.8872" lon="7.48733">
        <ele>357.20001220703</ele>
        <time>2022-01-15T13:49:46.000Z</time>
      </trkpt>
      <trkpt lat="43.88716" lon="7.48732">
        <ele>358</ele>
        <time>2022-01-15T13:49:48.000Z</time>
      </trkpt>
      <trkpt lat="43.88712" lon="7.4873">
        <ele>358.20001220703</ele>
        <time>2022-01-15T13:49:50.000Z</time>
      </trkpt>
      <trkpt lat="43.88706" lon="7.48722">
        <ele>358</ele>
        <time>2022-01-15T13:49:53.000Z</time>
      </trkpt>
      <trkpt lat="43.88703" lon="7.48712">
        <ele>358</ele>
        <time>2022-01-15T13:49:57.000Z</time>
      </trkpt>
      <trkpt lat="43.88701" lon="7.48703">
        <ele>358.79998779297</ele>
        <time>2022-01-15T13:50:00.000Z</time>
      </trkpt>
      <trkpt lat="43.887" lon="7.48697">
        <ele>359.39999389648</ele>
        <time>2022-01-15T13:50:02.000Z</time>
      </trkpt>
      <trkpt lat="43.88696" lon="7.48687">
        <ele>360.60000610352</ele>
        <time>2022-01-15T13:50:06.000Z</time>
      </trkpt>
      <trkpt lat="43.88694" lon="7.48683">
        <ele>361.20001220703</ele>
        <time>2022-01-15T13:50:08.000Z</time>
      </trkpt>
      <trkpt lat="43.88692" lon="7.48678">
        <ele>361.60000610352</ele>
        <time>2022-01-15T13:50:10.000Z</time>
      </trkpt>
      <trkpt lat="43.88689" lon="7.48668">
        <ele>362.79998779297</ele>
        <time>2022-01-15T13:50:14.000Z</time>
      </trkpt>
      <trkpt lat="43.88689" lon="7.48663">
        <ele>363.39999389648</ele>
        <time>2022-01-15T13:50:16.000Z</time>
      </trkpt>
      <trkpt lat="43.8869" lon="7.48656">
        <ele>364</ele>
        <time>2022-01-15T13:50:19.000Z</time>
      </trkpt>
      <trkpt lat="43.8869" lon="7.48649">
        <ele>365</ele>
        <time>2022-01-15T13:50:22.000Z</time>
      </trkpt>
      <trkpt lat="43.8869" lon="7.48646">
        <ele>365.20001220703</ele>
        <time>2022-01-15T13:50:23.000Z</time>
      </trkpt>
      <trkpt lat="43.88693" lon="7.48637">
        <ele>366.39999389648</ele>
        <time>2022-01-15T13:50:27.000Z</time>
      </trkpt>
      <trkpt lat="43.88695" lon="7.48632">
        <ele>367</ele>
        <time>2022-01-15T13:50:29.000Z</time>
      </trkpt>
      <trkpt lat="43.88696" lon="7.48625">
        <ele>367.60000610352</ele>
        <time>2022-01-15T13:50:32.000Z</time>
      </trkpt>
      <trkpt lat="43.88696" lon="7.48622">
        <ele>368</ele>
        <time>2022-01-15T13:50:33.000Z</time>
      </trkpt>
      <trkpt lat="43.88695" lon="7.48617">
        <ele>368.39999389648</ele>
        <time>2022-01-15T13:50:35.000Z</time>
      </trkpt>
      <trkpt lat="43.88694" lon="7.48616">
        <ele>368.60000610352</ele>
        <time>2022-01-15T13:50:36.000Z</time>
      </trkpt>
      <trkpt lat="43.88691" lon="7.48609">
        <ele>369.39999389648</ele>
        <time>2022-01-15T13:50:39.000Z</time>
      </trkpt>
      <trkpt lat="43.8869" lon="7.48607">
        <ele>370</ele>
        <time>2022-01-15T13:50:40.000Z</time>
      </trkpt>
      <trkpt lat="43.88689" lon="7.48605">
        <ele>370.39999389648</ele>
        <time>2022-01-15T13:50:41.000Z</time>
      </trkpt>
      <trkpt lat="43.88687" lon="7.48601">
        <ele>371</ele>
        <time>2022-01-15T13:50:43.000Z</time>
      </trkpt>
      <trkpt lat="43.88684" lon="7.48595">
        <ele>372.20001220703</ele>
        <time>2022-01-15T13:50:46.000Z</time>
      </trkpt>
      <trkpt lat="43.8868" lon="7.48588">
        <ele>373.39999389648</ele>
        <time>2022-01-15T13:50:49.000Z</time>
      </trkpt>
      <trkpt lat="43.88677" lon="7.48579">
        <ele>374.79998779297</ele>
        <time>2022-01-15T13:50:53.000Z</time>
      </trkpt>
      <trkpt lat="43.88676" lon="7.48575">
        <ele>375.79998779297</ele>
        <time>2022-01-15T13:50:55.000Z</time>
      </trkpt>
      <trkpt lat="43.88677" lon="7.48573">
        <ele>376.20001220703</ele>
        <time>2022-01-15T13:50:56.000Z</time>
      </trkpt>
      <trkpt lat="43.88677" lon="7.48571">
        <ele>376.79998779297</ele>
        <time>2022-01-15T13:50:57.000Z</time>
      </trkpt>
      <trkpt lat="43.88677" lon="7.48567">
        <ele>377.39999389648</ele>
        <time>2022-01-15T13:50:59.000Z</time>
      </trkpt>
      <trkpt lat="43.88675" lon="7.48562">
        <ele>378</ele>
        <time>2022-01-15T13:51:03.000Z</time>
      </trkpt>
      <trkpt lat="43.88676" lon="7.48562">
        <ele>378.20001220703</ele>
        <time>2022-01-15T13:51:08.000Z</time>
      </trkpt>
      <trkpt lat="43.88675" lon="7.48562">
        <ele>378.39999389648</ele>
        <time>2022-01-15T13:51:13.000Z</time>
      </trkpt>
      <trkpt lat="43.88674" lon="7.48561">
        <ele>378.20001220703</ele>
        <time>2022-01-15T13:51:24.000Z</time>
      </trkpt>
      <trkpt lat="43.88674" lon="7.48561">
        <ele>378</ele>
        <time>2022-01-15T13:51:29.000Z</time>
      </trkpt>
      <trkpt lat="43.88673" lon="7.48562">
        <ele>378</ele>
        <time>2022-01-15T13:51:36.000Z</time>
      </trkpt>
      <trkpt lat="43.88673" lon="7.48562">
        <ele>377.79998779297</ele>
        <time>2022-01-15T13:51:46.000Z</time>
      </trkpt>
      <trkpt lat="43.88674" lon="7.48559">
        <ele>378</ele>
        <time>2022-01-15T13:52:09.000Z</time>
      </trkpt>
      <trkpt lat="43.88674" lon="7.48559">
        <ele>378.20001220703</ele>
        <time>2022-01-15T13:52:35.000Z</time>
      </trkpt>
      <trkpt lat="43.88673" lon="7.4856">
        <ele>378.39999389648</ele>
        <time>2022-01-15T13:52:42.000Z</time>
      </trkpt>
      <trkpt lat="43.88672" lon="7.4856">
        <ele>378.20001220703</ele>
        <time>2022-01-15T13:52:48.000Z</time>
      </trkpt>
      <trkpt lat="43.88675" lon="7.48558">
        <ele>378.20001220703</ele>
        <time>2022-01-15T13:52:55.000Z</time>
      </trkpt>
      <trkpt lat="43.88676" lon="7.48558">
        <ele>378.20001220703</ele>
        <time>2022-01-15T13:53:02.000Z</time>
      </trkpt>
      <trkpt lat="43.88677" lon="7.48557">
        <ele>378</ele>
        <time>2022-01-15T13:53:12.000Z</time>
      </trkpt>
      <trkpt lat="43.88677" lon="7.48558">
        <ele>378.60000610352</ele>
        <time>2022-01-15T13:53:25.000Z</time>
      </trkpt>
      <trkpt lat="43.88676" lon="7.48558">
        <ele>378.60000610352</ele>
        <time>2022-01-15T13:53:32.000Z</time>
      </trkpt>
      <trkpt lat="43.88679" lon="7.48556">
        <ele>378</ele>
        <time>2022-01-15T13:53:35.000Z</time>
      </trkpt>
      <trkpt lat="43.88679" lon="7.48556">
        <ele>378</ele>
        <time>2022-01-15T13:53:36.000Z</time>
      </trkpt>
      <trkpt lat="43.88678" lon="7.48558">
        <ele>378.60000610352</ele>
        <time>2022-01-15T13:53:44.000Z</time>
      </trkpt>
      <trkpt lat="43.88676" lon="7.48558">
        <ele>378.60000610352</ele>
        <time>2022-01-15T13:53:52.000Z</time>
      </trkpt>
      <trkpt lat="43.88676" lon="7.48558">
        <ele>378.39999389648</ele>
        <time>2022-01-15T13:54:01.000Z</time>
      </trkpt>
      <trkpt lat="43.88676" lon="7.48558">
        <ele>378</ele>
        <time>2022-01-15T13:54:07.000Z</time>
      </trkpt>
      <trkpt lat="43.88676" lon="7.48558">
        <ele>378.20001220703</ele>
        <time>2022-01-15T13:54:12.000Z</time>
      </trkpt>
      <trkpt lat="43.88675" lon="7.48558">
        <ele>378.79998779297</ele>
        <time>2022-01-15T13:54:21.000Z</time>
      </trkpt>
      <trkpt lat="43.88675" lon="7.48559">
        <ele>378.20001220703</ele>
        <time>2022-01-15T13:54:29.000Z</time>
      </trkpt>
      <trkpt lat="43.88675" lon="7.48559">
        <ele>378</ele>
        <time>2022-01-15T13:54:37.000Z</time>
      </trkpt>
      <trkpt lat="43.88674" lon="7.48559">
        <ele>378.20001220703</ele>
        <time>2022-01-15T13:54:43.000Z</time>
      </trkpt>
      <trkpt lat="43.88674" lon="7.48558">
        <ele>377.79998779297</ele>
        <time>2022-01-15T13:55:01.000Z</time>
      </trkpt>
      <trkpt lat="43.88673" lon="7.48558">
        <ele>378</ele>
        <time>2022-01-15T13:55:08.000Z</time>
      </trkpt>
      <trkpt lat="43.88673" lon="7.48558">
        <ele>377.79998779297</ele>
        <time>2022-01-15T13:55:22.000Z</time>
      </trkpt>
      <trkpt lat="43.88672" lon="7.48559">
        <ele>378.60000610352</ele>
        <time>2022-01-15T13:55:33.000Z</time>
      </trkpt>
      <trkpt lat="43.88672" lon="7.48559">
        <ele>378</ele>
        <time>2022-01-15T13:55:52.000Z</time>
      </trkpt>
      <trkpt lat="43.88673" lon="7.48559">
        <ele>378.20001220703</ele>
        <time>2022-01-15T13:56:03.000Z</time>
      </trkpt>
      <trkpt lat="43.88673" lon="7.48559">
        <ele>378.20001220703</ele>
        <time>2022-01-15T13:56:22.000Z</time>
      </trkpt>
      <trkpt lat="43.88673" lon="7.4856">
        <ele>378.20001220703</ele>
        <time>2022-01-15T13:56:39.000Z</time>
      </trkpt>
      <trkpt lat="43.88672" lon="7.4856">
        <ele>378.20001220703</ele>
        <time>2022-01-15T13:56:48.000Z</time>
      </trkpt>
      <trkpt lat="43.88674" lon="7.48558">
        <ele>378.20001220703</ele>
        <time>2022-01-15T13:56:58.000Z</time>
      </trkpt>
      <trkpt lat="43.88677" lon="7.48557">
        <ele>378.20001220703</ele>
        <time>2022-01-15T13:57:06.000Z</time>
      </trkpt>
      <trkpt lat="43.88675" lon="7.48558">
        <ele>378.20001220703</ele>
        <time>2022-01-15T13:57:12.000Z</time>
      </trkpt>
      <trkpt lat="43.88676" lon="7.48558">
        <ele>378.20001220703</ele>
        <time>2022-01-15T13:57:20.000Z</time>
      </trkpt>
      <trkpt lat="43.88676" lon="7.48558">
        <ele>378.20001220703</ele>
        <time>2022-01-15T13:57:28.000Z</time>
      </trkpt>
      <trkpt lat="43.88676" lon="7.48558">
        <ele>378.20001220703</ele>
        <time>2022-01-15T13:57:35.000Z</time>
      </trkpt>
      <trkpt lat="43.88676" lon="7.48558">
        <ele>378.20001220703</ele>
        <time>2022-01-15T13:57:44.000Z</time>
      </trkpt>
      <trkpt lat="43.88675" lon="7.48558">
        <ele>378.20001220703</ele>
        <time>2022-01-15T13:57:50.000Z</time>
      </trkpt>
      <trkpt lat="43.88677" lon="7.48557">
        <ele>378.20001220703</ele>
        <time>2022-01-15T13:58:00.000Z</time>
      </trkpt>
      <trkpt lat="43.88679" lon="7.48556">
        <ele>378.20001220703</ele>
        <time>2022-01-15T13:58:10.000Z</time>
      </trkpt>
      <trkpt lat="43.8868" lon="7.48556">
        <ele>378</ele>
        <time>2022-01-15T13:58:20.000Z</time>
      </trkpt>
      <trkpt lat="43.88678" lon="7.48557">
        <ele>378.20001220703</ele>
        <time>2022-01-15T13:58:31.000Z</time>
      </trkpt>
      <trkpt lat="43.8868" lon="7.48556">
        <ele>378</ele>
        <time>2022-01-15T13:58:39.000Z</time>
      </trkpt>
      <trkpt lat="43.88684" lon="7.48554">
        <ele>378</ele>
        <time>2022-01-15T13:58:49.000Z</time>
      </trkpt>
      <trkpt lat="43.88682" lon="7.48555">
        <ele>378.20001220703</ele>
        <time>2022-01-15T13:58:56.000Z</time>
      </trkpt>
      <trkpt lat="43.8868" lon="7.48555">
        <ele>378</ele>
        <time>2022-01-15T13:59:02.000Z</time>
      </trkpt>
      <trkpt lat="43.88675" lon="7.48556">
        <ele>378</ele>
        <time>2022-01-15T13:59:13.000Z</time>
      </trkpt>
      <trkpt lat="43.88672" lon="7.48554">
        <ele>378</ele>
        <time>2022-01-15T13:59:29.000Z</time>
      </trkpt>
      <trkpt lat="43.88671" lon="7.48553">
        <ele>378</ele>
        <time>2022-01-15T13:59:36.000Z</time>
      </trkpt>
      <trkpt lat="43.88673" lon="7.48553">
        <ele>377.79998779297</ele>
        <time>2022-01-15T13:59:42.000Z</time>
      </trkpt>
      <trkpt lat="43.88673" lon="7.48553">
        <ele>378</ele>
        <time>2022-01-15T13:59:49.000Z</time>
      </trkpt>
      <trkpt lat="43.88672" lon="7.48553">
        <ele>377.79998779297</ele>
        <time>2022-01-15T13:59:55.000Z</time>
      </trkpt>
      <trkpt lat="43.88673" lon="7.48554">
        <ele>377.79998779297</ele>
        <time>2022-01-15T14:00:05.000Z</time>
      </trkpt>
      <trkpt lat="43.88671" lon="7.48556">
        <ele>378</ele>
        <time>2022-01-15T14:00:12.000Z</time>
      </trkpt>
      <trkpt lat="43.88672" lon="7.48556">
        <ele>377.79998779297</ele>
        <time>2022-01-15T14:00:18.000Z</time>
      </trkpt>
      <trkpt lat="43.88675" lon="7.48558">
        <ele>378</ele>
        <time>2022-01-15T14:00:24.000Z</time>
      </trkpt>
      <trkpt lat="43.88675" lon="7.48559">
        <ele>377.39999389648</ele>
        <time>2022-01-15T14:00:29.000Z</time>
      </trkpt>
      <trkpt lat="43.88675" lon="7.48559">
        <ele>377.60000610352</ele>
        <time>2022-01-15T14:00:39.000Z</time>
      </trkpt>
      <trkpt lat="43.88675" lon="7.48559">
        <ele>377.39999389648</ele>
        <time>2022-01-15T14:00:48.000Z</time>
      </trkpt>
      <trkpt lat="43.88675" lon="7.48559">
        <ele>377.60000610352</ele>
        <time>2022-01-15T14:00:53.000Z</time>
      </trkpt>
      <trkpt lat="43.88675" lon="7.48559">
        <ele>377.39999389648</ele>
        <time>2022-01-15T14:00:56.000Z</time>
      </trkpt>
      <trkpt lat="43.88675" lon="7.48559">
        <ele>377.60000610352</ele>
        <time>2022-01-15T14:01:07.000Z</time>
      </trkpt>
      <trkpt lat="43.88674" lon="7.4856">
        <ele>377.60000610352</ele>
        <time>2022-01-15T14:01:24.000Z</time>
      </trkpt>
      <trkpt lat="43.88673" lon="7.48559">
        <ele>377.60000610352</ele>
        <time>2022-01-15T14:01:33.000Z</time>
      </trkpt>
      <trkpt lat="43.88673" lon="7.48559">
        <ele>377.60000610352</ele>
        <time>2022-01-15T14:01:42.000Z</time>
      </trkpt>
      <trkpt lat="43.88671" lon="7.48557">
        <ele>377.39999389648</ele>
        <time>2022-01-15T14:01:46.000Z</time>
      </trkpt>
      <trkpt lat="43.8867" lon="7.48557">
        <ele>377.39999389648</ele>
        <time>2022-01-15T14:01:47.000Z</time>
      </trkpt>
      <trkpt lat="43.8867" lon="7.48557">
        <ele>377.60000610352</ele>
        <time>2022-01-15T14:01:53.000Z</time>
      </trkpt>
      <trkpt lat="43.8867" lon="7.48557">
        <ele>377.60000610352</ele>
        <time>2022-01-15T14:02:01.000Z</time>
      </trkpt>
      <trkpt lat="43.88671" lon="7.48556">
        <ele>378</ele>
        <time>2022-01-15T14:02:06.000Z</time>
      </trkpt>
      <trkpt lat="43.8867" lon="7.48556">
        <ele>377.79998779297</ele>
        <time>2022-01-15T14:02:13.000Z</time>
      </trkpt>
      <trkpt lat="43.8867" lon="7.48557">
        <ele>378.39999389648</ele>
        <time>2022-01-15T14:02:17.000Z</time>
      </trkpt>
      <trkpt lat="43.8867" lon="7.48557">
        <ele>378.79998779297</ele>
        <time>2022-01-15T14:02:21.000Z</time>
      </trkpt>
      <trkpt lat="43.8867" lon="7.48554">
        <ele>378.60000610352</ele>
        <time>2022-01-15T14:02:27.000Z</time>
      </trkpt>
      <trkpt lat="43.8867" lon="7.48541">
        <ele>378.39999389648</ele>
        <time>2022-01-15T14:02:32.000Z</time>
      </trkpt>
      <trkpt lat="43.88672" lon="7.48517">
        <ele>378</ele>
        <time>2022-01-15T14:02:37.000Z</time>
      </trkpt>
      <trkpt lat="43.88673" lon="7.48512">
        <ele>378</ele>
        <time>2022-01-15T14:02:38.000Z</time>
      </trkpt>
      <trkpt lat="43.88676" lon="7.48499">
        <ele>377.20001220703</ele>
        <time>2022-01-15T14:02:40.000Z</time>
      </trkpt>
      <trkpt lat="43.88678" lon="7.48485">
        <ele>377</ele>
        <time>2022-01-15T14:02:42.000Z</time>
      </trkpt>
      <trkpt lat="43.88672" lon="7.48464">
        <ele>376.39999389648</ele>
        <time>2022-01-15T14:02:45.000Z</time>
      </trkpt>
      <trkpt lat="43.88668" lon="7.48457">
        <ele>375.60000610352</ele>
        <time>2022-01-15T14:02:46.000Z</time>
      </trkpt>
      <trkpt lat="43.88662" lon="7.4844">
        <ele>374</ele>
        <time>2022-01-15T14:02:48.000Z</time>
      </trkpt>
      <trkpt lat="43.88662" lon="7.48421">
        <ele>372.79998779297</ele>
        <time>2022-01-15T14:02:50.000Z</time>
      </trkpt>
      <trkpt lat="43.8866" lon="7.48411">
        <ele>372.60000610352</ele>
        <time>2022-01-15T14:02:51.000Z</time>
      </trkpt>
      <trkpt lat="43.88649" lon="7.48385">
        <ele>371.39999389648</ele>
        <time>2022-01-15T14:02:54.000Z</time>
      </trkpt>
      <trkpt lat="43.88645" lon="7.48375">
        <ele>371</ele>
        <time>2022-01-15T14:02:55.000Z</time>
      </trkpt>
      <trkpt lat="43.88641" lon="7.48366">
        <ele>370.20001220703</ele>
        <time>2022-01-15T14:02:56.000Z</time>
      </trkpt>
      <trkpt lat="43.88633" lon="7.48348">
        <ele>368.79998779297</ele>
        <time>2022-01-15T14:02:58.000Z</time>
      </trkpt>
      <trkpt lat="43.88623" lon="7.48332">
        <ele>367.79998779297</ele>
        <time>2022-01-15T14:03:00.000Z</time>
      </trkpt>
      <trkpt lat="43.88618" lon="7.48324">
        <ele>367.39999389648</ele>
        <time>2022-01-15T14:03:01.000Z</time>
      </trkpt>
      <trkpt lat="43.88606" lon="7.48308">
        <ele>367.39999389648</ele>
        <time>2022-01-15T14:03:03.000Z</time>
      </trkpt>
      <trkpt lat="43.88587" lon="7.48284">
        <ele>367</ele>
        <time>2022-01-15T14:03:06.000Z</time>
      </trkpt>
      <trkpt lat="43.88581" lon="7.48276">
        <ele>366.39999389648</ele>
        <time>2022-01-15T14:03:07.000Z</time>
      </trkpt>
      <trkpt lat="43.88569" lon="7.48259">
        <ele>364.39999389648</ele>
        <time>2022-01-15T14:03:09.000Z</time>
      </trkpt>
      <trkpt lat="43.88556" lon="7.48243">
        <ele>362.79998779297</ele>
        <time>2022-01-15T14:03:11.000Z</time>
      </trkpt>
      <trkpt lat="43.88544" lon="7.48227">
        <ele>361.79998779297</ele>
        <time>2022-01-15T14:03:13.000Z</time>
      </trkpt>
      <trkpt lat="43.88538" lon="7.4822">
        <ele>361.60000610352</ele>
        <time>2022-01-15T14:03:14.000Z</time>
      </trkpt>
      <trkpt lat="43.88516" lon="7.48201">
        <ele>360.60000610352</ele>
        <time>2022-01-15T14:03:17.000Z</time>
      </trkpt>
      <trkpt lat="43.88504" lon="7.48189">
        <ele>360</ele>
        <time>2022-01-15T14:03:19.000Z</time>
      </trkpt>
      <trkpt lat="43.88492" lon="7.48162">
        <ele>360.20001220703</ele>
        <time>2022-01-15T14:03:22.000Z</time>
      </trkpt>
      <trkpt lat="43.88473" lon="7.48115">
        <ele>360.60000610352</ele>
        <time>2022-01-15T14:03:28.000Z</time>
      </trkpt>
      <trkpt lat="43.88461" lon="7.4809">
        <ele>361.79998779297</ele>
        <time>2022-01-15T14:03:32.000Z</time>
      </trkpt>
      <trkpt lat="43.88454" lon="7.48079">
        <ele>362.20001220703</ele>
        <time>2022-01-15T14:03:34.000Z</time>
      </trkpt>
      <trkpt lat="43.88431" lon="7.4803">
        <ele>361.79998779297</ele>
        <time>2022-01-15T14:03:41.000Z</time>
      </trkpt>
      <trkpt lat="43.88414" lon="7.47992">
        <ele>360.60000610352</ele>
        <time>2022-01-15T14:03:46.000Z</time>
      </trkpt>
      <trkpt lat="43.88404" lon="7.47968">
        <ele>360</ele>
        <time>2022-01-15T14:03:49.000Z</time>
      </trkpt>
      <trkpt lat="43.884" lon="7.47949">
        <ele>359.60000610352</ele>
        <time>2022-01-15T14:03:51.000Z</time>
      </trkpt>
      <trkpt lat="43.88392" lon="7.47921">
        <ele>358.60000610352</ele>
        <time>2022-01-15T14:03:54.000Z</time>
      </trkpt>
      <trkpt lat="43.8839" lon="7.4791">
        <ele>358.20001220703</ele>
        <time>2022-01-15T14:03:55.000Z</time>
      </trkpt>
      <trkpt lat="43.88384" lon="7.47889">
        <ele>357</ele>
        <time>2022-01-15T14:03:57.000Z</time>
      </trkpt>
      <trkpt lat="43.88378" lon="7.47869">
        <ele>355.79998779297</ele>
        <time>2022-01-15T14:03:59.000Z</time>
      </trkpt>
      <trkpt lat="43.88374" lon="7.47859">
        <ele>355.20001220703</ele>
        <time>2022-01-15T14:04:00.000Z</time>
      </trkpt>
      <trkpt lat="43.88369" lon="7.47849">
        <ele>354.79998779297</ele>
        <time>2022-01-15T14:04:01.000Z</time>
      </trkpt>
      <trkpt lat="43.88359" lon="7.47832">
        <ele>354</ele>
        <time>2022-01-15T14:04:03.000Z</time>
      </trkpt>
      <trkpt lat="43.88354" lon="7.47826">
        <ele>353.79998779297</ele>
        <time>2022-01-15T14:04:04.000Z</time>
      </trkpt>
      <trkpt lat="43.88347" lon="7.4782">
        <ele>353.60000610352</ele>
        <time>2022-01-15T14:04:05.000Z</time>
      </trkpt>
      <trkpt lat="43.88327" lon="7.47811">
        <ele>353.60000610352</ele>
        <time>2022-01-15T14:04:08.000Z</time>
      </trkpt>
      <trkpt lat="43.8831" lon="7.47817">
        <ele>353.39999389648</ele>
        <time>2022-01-15T14:04:11.000Z</time>
      </trkpt>
      <trkpt lat="43.88302" lon="7.4783">
        <ele>353.60000610352</ele>
        <time>2022-01-15T14:04:14.000Z</time>
      </trkpt>
      <trkpt lat="43.88299" lon="7.47835">
        <ele>353.79998779297</ele>
        <time>2022-01-15T14:04:15.000Z</time>
      </trkpt>
      <trkpt lat="43.88293" lon="7.47849">
        <ele>355</ele>
        <time>2022-01-15T14:04:18.000Z</time>
      </trkpt>
      <trkpt lat="43.88288" lon="7.47864">
        <ele>356</ele>
        <time>2022-01-15T14:04:21.000Z</time>
      </trkpt>
      <trkpt lat="43.88274" lon="7.47887">
        <ele>357.20001220703</ele>
        <time>2022-01-15T14:04:27.000Z</time>
      </trkpt>
      <trkpt lat="43.88264" lon="7.47881">
        <ele>358.20001220703</ele>
        <time>2022-01-15T14:04:30.000Z</time>
      </trkpt>
      <trkpt lat="43.8826" lon="7.47867">
        <ele>359.20001220703</ele>
        <time>2022-01-15T14:04:33.000Z</time>
      </trkpt>
      <trkpt lat="43.88259" lon="7.47862">
        <ele>359.60000610352</ele>
        <time>2022-01-15T14:04:34.000Z</time>
      </trkpt>
      <trkpt lat="43.88258" lon="7.47846">
        <ele>360.39999389648</ele>
        <time>2022-01-15T14:04:37.000Z</time>
      </trkpt>
      <trkpt lat="43.88258" lon="7.47825">
        <ele>361.79998779297</ele>
        <time>2022-01-15T14:04:41.000Z</time>
      </trkpt>
      <trkpt lat="43.88257" lon="7.4781">
        <ele>362.79998779297</ele>
        <time>2022-01-15T14:04:44.000Z</time>
      </trkpt>
      <trkpt lat="43.88255" lon="7.47788">
        <ele>364</ele>
        <time>2022-01-15T14:04:48.000Z</time>
      </trkpt>
      <trkpt lat="43.88254" lon="7.47767">
        <ele>365</ele>
        <time>2022-01-15T14:04:52.000Z</time>
      </trkpt>
      <trkpt lat="43.88253" lon="7.47757">
        <ele>365.39999389648</ele>
        <time>2022-01-15T14:04:54.000Z</time>
      </trkpt>
      <trkpt lat="43.88253" lon="7.47747">
        <ele>366</ele>
        <time>2022-01-15T14:04:56.000Z</time>
      </trkpt>
      <trkpt lat="43.8825" lon="7.47726">
        <ele>367</ele>
        <time>2022-01-15T14:05:00.000Z</time>
      </trkpt>
      <trkpt lat="43.8825" lon="7.47712">
        <ele>368.20001220703</ele>
        <time>2022-01-15T14:05:03.000Z</time>
      </trkpt>
      <trkpt lat="43.88248" lon="7.47694">
        <ele>369.20001220703</ele>
        <time>2022-01-15T14:05:07.000Z</time>
      </trkpt>
      <trkpt lat="43.88247" lon="7.47679">
        <ele>370.60000610352</ele>
        <time>2022-01-15T14:05:11.000Z</time>
      </trkpt>
      <trkpt lat="43.88246" lon="7.47672">
        <ele>371</ele>
        <time>2022-01-15T14:05:13.000Z</time>
      </trkpt>
      <trkpt lat="43.88245" lon="7.47664">
        <ele>371.60000610352</ele>
        <time>2022-01-15T14:05:16.000Z</time>
      </trkpt>
      <trkpt lat="43.88245" lon="7.47659">
        <ele>372.20001220703</ele>
        <time>2022-01-15T14:05:19.000Z</time>
      </trkpt>
      <trkpt lat="43.88245" lon="7.4766">
        <ele>372.39999389648</ele>
        <time>2022-01-15T14:05:24.000Z</time>
      </trkpt>
      <trkpt lat="43.88244" lon="7.4766">
        <ele>372.79998779297</ele>
        <time>2022-01-15T14:05:37.000Z</time>
      </trkpt>
      <trkpt lat="43.88243" lon="7.4766">
        <ele>373.20001220703</ele>
        <time>2022-01-15T14:05:47.000Z</time>
      </trkpt>
      <trkpt lat="43.88243" lon="7.47659">
        <ele>373.20001220703</ele>
        <time>2022-01-15T14:05:49.000Z</time>
      </trkpt>
      <trkpt lat="43.88241" lon="7.47653">
        <ele>373.20001220703</ele>
        <time>2022-01-15T14:05:51.000Z</time>
      </trkpt>
      <trkpt lat="43.88239" lon="7.47631">
        <ele>372.79998779297</ele>
        <time>2022-01-15T14:05:56.000Z</time>
      </trkpt>
      <trkpt lat="43.88237" lon="7.47605">
        <ele>372.60000610352</ele>
        <time>2022-01-15T14:06:01.000Z</time>
      </trkpt>
      <trkpt lat="43.88238" lon="7.476">
        <ele>372.60000610352</ele>
        <time>2022-01-15T14:06:02.000Z</time>
      </trkpt>
      <trkpt lat="43.88239" lon="7.47589">
        <ele>372.39999389648</ele>
        <time>2022-01-15T14:06:04.000Z</time>
      </trkpt>
      <trkpt lat="43.8824" lon="7.47573">
        <ele>372</ele>
        <time>2022-01-15T14:06:07.000Z</time>
      </trkpt>
      <trkpt lat="43.88244" lon="7.47563">
        <ele>372.20001220703</ele>
        <time>2022-01-15T14:06:09.000Z</time>
      </trkpt>
      <trkpt lat="43.88252" lon="7.47549">
        <ele>372.20001220703</ele>
        <time>2022-01-15T14:06:12.000Z</time>
      </trkpt>
      <trkpt lat="43.88253" lon="7.47538">
        <ele>371.79998779297</ele>
        <time>2022-01-15T14:06:14.000Z</time>
      </trkpt>
      <trkpt lat="43.88252" lon="7.47533">
        <ele>371.60000610352</ele>
        <time>2022-01-15T14:06:15.000Z</time>
      </trkpt>
      <trkpt lat="43.88247" lon="7.47524">
        <ele>370.79998779297</ele>
        <time>2022-01-15T14:06:17.000Z</time>
      </trkpt>
      <trkpt lat="43.88244" lon="7.4752">
        <ele>370.39999389648</ele>
        <time>2022-01-15T14:06:18.000Z</time>
      </trkpt>
      <trkpt lat="43.88237" lon="7.47509">
        <ele>369.20001220703</ele>
        <time>2022-01-15T14:06:20.000Z</time>
      </trkpt>
      <trkpt lat="43.88235" lon="7.47502">
        <ele>368.20001220703</ele>
        <time>2022-01-15T14:06:21.000Z</time>
      </trkpt>
      <trkpt lat="43.88233" lon="7.47496">
        <ele>367.39999389648</ele>
        <time>2022-01-15T14:06:22.000Z</time>
      </trkpt>
      <trkpt lat="43.8823" lon="7.47491">
        <ele>366.79998779297</ele>
        <time>2022-01-15T14:06:23.000Z</time>
      </trkpt>
      <trkpt lat="43.88226" lon="7.47486">
        <ele>365.79998779297</ele>
        <time>2022-01-15T14:06:24.000Z</time>
      </trkpt>
      <trkpt lat="43.88222" lon="7.47483">
        <ele>364.79998779297</ele>
        <time>2022-01-15T14:06:25.000Z</time>
      </trkpt>
      <trkpt lat="43.88217" lon="7.4748">
        <ele>363.79998779297</ele>
        <time>2022-01-15T14:06:26.000Z</time>
      </trkpt>
      <trkpt lat="43.88213" lon="7.47476">
        <ele>362.60000610352</ele>
        <time>2022-01-15T14:06:27.000Z</time>
      </trkpt>
      <trkpt lat="43.8821" lon="7.47471">
        <ele>361.39999389648</ele>
        <time>2022-01-15T14:06:28.000Z</time>
      </trkpt>
      <trkpt lat="43.88207" lon="7.47466">
        <ele>360.39999389648</ele>
        <time>2022-01-15T14:06:29.000Z</time>
      </trkpt>
      <trkpt lat="43.88201" lon="7.47456">
        <ele>358.60000610352</ele>
        <time>2022-01-15T14:06:31.000Z</time>
      </trkpt>
      <trkpt lat="43.88199" lon="7.47451">
        <ele>357.79998779297</ele>
        <time>2022-01-15T14:06:32.000Z</time>
      </trkpt>
      <trkpt lat="43.88196" lon="7.47445">
        <ele>357.20001220703</ele>
        <time>2022-01-15T14:06:33.000Z</time>
      </trkpt>
      <trkpt lat="43.88192" lon="7.47433">
        <ele>355.79998779297</ele>
        <time>2022-01-15T14:06:35.000Z</time>
      </trkpt>
      <trkpt lat="43.88189" lon="7.47428">
        <ele>355.39999389648</ele>
        <time>2022-01-15T14:06:36.000Z</time>
      </trkpt>
      <trkpt lat="43.88184" lon="7.47417">
        <ele>354.20001220703</ele>
        <time>2022-01-15T14:06:38.000Z</time>
      </trkpt>
      <trkpt lat="43.88174" lon="7.474">
        <ele>353.20001220703</ele>
        <time>2022-01-15T14:06:41.000Z</time>
      </trkpt>
      <trkpt lat="43.88168" lon="7.4739">
        <ele>352.20001220703</ele>
        <time>2022-01-15T14:06:43.000Z</time>
      </trkpt>
      <trkpt lat="43.88165" lon="7.47384">
        <ele>352</ele>
        <time>2022-01-15T14:06:44.000Z</time>
      </trkpt>
      <trkpt lat="43.88163" lon="7.47376">
        <ele>351.79998779297</ele>
        <time>2022-01-15T14:06:45.000Z</time>
      </trkpt>
      <trkpt lat="43.88156" lon="7.47353">
        <ele>350.60000610352</ele>
        <time>2022-01-15T14:06:48.000Z</time>
      </trkpt>
      <trkpt lat="43.88155" lon="7.47348">
        <ele>350</ele>
        <time>2022-01-15T14:06:49.000Z</time>
      </trkpt>
      <trkpt lat="43.88154" lon="7.47342">
        <ele>349</ele>
        <time>2022-01-15T14:06:50.000Z</time>
      </trkpt>
      <trkpt lat="43.88151" lon="7.47322">
        <ele>348.79998779297</ele>
        <time>2022-01-15T14:06:54.000Z</time>
      </trkpt>
      <trkpt lat="43.88152" lon="7.47314">
        <ele>349.60000610352</ele>
        <time>2022-01-15T14:06:56.000Z</time>
      </trkpt>
      <trkpt lat="43.88153" lon="7.47311">
        <ele>350.20001220703</ele>
        <time>2022-01-15T14:06:57.000Z</time>
      </trkpt>
      <trkpt lat="43.88155" lon="7.47305">
        <ele>351.39999389648</ele>
        <time>2022-01-15T14:06:59.000Z</time>
      </trkpt>
      <trkpt lat="43.88157" lon="7.47301">
        <ele>352.39999389648</ele>
        <time>2022-01-15T14:07:01.000Z</time>
      </trkpt>
      <trkpt lat="43.88158" lon="7.47298">
        <ele>352.60000610352</ele>
        <time>2022-01-15T14:07:02.000Z</time>
      </trkpt>
      <trkpt lat="43.88158" lon="7.47284">
        <ele>353.20001220703</ele>
        <time>2022-01-15T14:07:05.000Z</time>
      </trkpt>
      <trkpt lat="43.88152" lon="7.47255">
        <ele>352</ele>
        <time>2022-01-15T14:07:11.000Z</time>
      </trkpt>
      <trkpt lat="43.88145" lon="7.47222">
        <ele>352</ele>
        <time>2022-01-15T14:07:18.000Z</time>
      </trkpt>
      <trkpt lat="43.88146" lon="7.47196">
        <ele>353.60000610352</ele>
        <time>2022-01-15T14:07:24.000Z</time>
      </trkpt>
      <trkpt lat="43.88146" lon="7.47171">
        <ele>354.60000610352</ele>
        <time>2022-01-15T14:07:30.000Z</time>
      </trkpt>
      <trkpt lat="43.88147" lon="7.47169">
        <ele>354.79998779297</ele>
        <time>2022-01-15T14:07:31.000Z</time>
      </trkpt>
      <trkpt lat="43.88147" lon="7.47165">
        <ele>355.60000610352</ele>
        <time>2022-01-15T14:07:33.000Z</time>
      </trkpt>
      <trkpt lat="43.88147" lon="7.47164">
        <ele>355.79998779297</ele>
        <time>2022-01-15T14:07:34.000Z</time>
      </trkpt>
      <trkpt lat="43.88146" lon="7.47161">
        <ele>356</ele>
        <time>2022-01-15T14:07:39.000Z</time>
      </trkpt>
      <trkpt lat="43.88147" lon="7.47159">
        <ele>356.20001220703</ele>
        <time>2022-01-15T14:08:03.000Z</time>
      </trkpt>
      <trkpt lat="43.88142" lon="7.47154">
        <ele>356.20001220703</ele>
        <time>2022-01-15T14:08:15.000Z</time>
      </trkpt>
      <trkpt lat="43.88129" lon="7.47137">
        <ele>356</ele>
        <time>2022-01-15T14:08:22.000Z</time>
      </trkpt>
      <trkpt lat="43.88107" lon="7.47117">
        <ele>357</ele>
        <time>2022-01-15T14:08:31.000Z</time>
      </trkpt>
      <trkpt lat="43.88105" lon="7.47116">
        <ele>357</ele>
        <time>2022-01-15T14:08:32.000Z</time>
      </trkpt>
      <trkpt lat="43.88092" lon="7.47105">
        <ele>357.39999389648</ele>
        <time>2022-01-15T14:08:38.000Z</time>
      </trkpt>
      <trkpt lat="43.88086" lon="7.47095">
        <ele>357.39999389648</ele>
        <time>2022-01-15T14:08:43.000Z</time>
      </trkpt>
      <trkpt lat="43.88083" lon="7.47087">
        <ele>357.79998779297</ele>
        <time>2022-01-15T14:08:47.000Z</time>
      </trkpt>
      <trkpt lat="43.88081" lon="7.47086">
        <ele>357.79998779297</ele>
        <time>2022-01-15T14:08:48.000Z</time>
      </trkpt>
      <trkpt lat="43.88083" lon="7.47092">
        <ele>357.60000610352</ele>
        <time>2022-01-15T14:08:51.000Z</time>
      </trkpt>
      <trkpt lat="43.8809" lon="7.47104">
        <ele>357.39999389648</ele>
        <time>2022-01-15T14:08:56.000Z</time>
      </trkpt>
      <trkpt lat="43.88095" lon="7.47109">
        <ele>357.39999389648</ele>
        <time>2022-01-15T14:08:58.000Z</time>
      </trkpt>
      <trkpt lat="43.88107" lon="7.47118">
        <ele>357.20001220703</ele>
        <time>2022-01-15T14:09:04.000Z</time>
      </trkpt>
      <trkpt lat="43.88108" lon="7.47116">
        <ele>357.39999389648</ele>
        <time>2022-01-15T14:09:05.000Z</time>
      </trkpt>
      <trkpt lat="43.88102" lon="7.47106">
        <ele>357.79998779297</ele>
        <time>2022-01-15T14:09:09.000Z</time>
      </trkpt>
      <trkpt lat="43.881" lon="7.47103">
        <ele>358</ele>
        <time>2022-01-15T14:09:10.000Z</time>
      </trkpt>
      <trkpt lat="43.88095" lon="7.47091">
        <ele>359.20001220703</ele>
        <time>2022-01-15T14:09:13.000Z</time>
      </trkpt>
      <trkpt lat="43.88093" lon="7.47084">
        <ele>359.79998779297</ele>
        <time>2022-01-15T14:09:15.000Z</time>
      </trkpt>
      <trkpt lat="43.88088" lon="7.47067">
        <ele>360.20001220703</ele>
        <time>2022-01-15T14:09:19.000Z</time>
      </trkpt>
      <trkpt lat="43.88085" lon="7.47054">
        <ele>360.39999389648</ele>
        <time>2022-01-15T14:09:22.000Z</time>
      </trkpt>
      <trkpt lat="43.88083" lon="7.47027">
        <ele>360.79998779297</ele>
        <time>2022-01-15T14:09:28.000Z</time>
      </trkpt>
      <trkpt lat="43.88079" lon="7.47003">
        <ele>360.79998779297</ele>
        <time>2022-01-15T14:09:33.000Z</time>
      </trkpt>
      <trkpt lat="43.88073" lon="7.46988">
        <ele>360.79998779297</ele>
        <time>2022-01-15T14:09:36.000Z</time>
      </trkpt>
      <trkpt lat="43.88067" lon="7.46978">
        <ele>360.60000610352</ele>
        <time>2022-01-15T14:09:38.000Z</time>
      </trkpt>
      <trkpt lat="43.88049" lon="7.46946">
        <ele>359.20001220703</ele>
        <time>2022-01-15T14:09:45.000Z</time>
      </trkpt>
      <trkpt lat="43.88043" lon="7.46936">
        <ele>359.20001220703</ele>
        <time>2022-01-15T14:09:47.000Z</time>
      </trkpt>
      <trkpt lat="43.88021" lon="7.46882">
        <ele>359.39999389648</ele>
        <time>2022-01-15T14:09:58.000Z</time>
      </trkpt>
      <trkpt lat="43.88024" lon="7.4686">
        <ele>359</ele>
        <time>2022-01-15T14:10:02.000Z</time>
      </trkpt>
      <trkpt lat="43.88035" lon="7.4683">
        <ele>358.79998779297</ele>
        <time>2022-01-15T14:10:08.000Z</time>
      </trkpt>
      <trkpt lat="43.88039" lon="7.46796">
        <ele>359.39999389648</ele>
        <time>2022-01-15T14:10:15.000Z</time>
      </trkpt>
      <trkpt lat="43.88036" lon="7.46762">
        <ele>359</ele>
        <time>2022-01-15T14:10:21.000Z</time>
      </trkpt>
      <trkpt lat="43.88034" lon="7.46745">
        <ele>359</ele>
        <time>2022-01-15T14:10:24.000Z</time>
      </trkpt>
      <trkpt lat="43.88032" lon="7.46732">
        <ele>358.79998779297</ele>
        <time>2022-01-15T14:10:26.000Z</time>
      </trkpt>
      <trkpt lat="43.88024" lon="7.46706">
        <ele>358.39999389648</ele>
        <time>2022-01-15T14:10:30.000Z</time>
      </trkpt>
      <trkpt lat="43.88024" lon="7.46698">
        <ele>358.20001220703</ele>
        <time>2022-01-15T14:10:31.000Z</time>
      </trkpt>
      <trkpt lat="43.88023" lon="7.4668">
        <ele>357.60000610352</ele>
        <time>2022-01-15T14:10:34.000Z</time>
      </trkpt>
      <trkpt lat="43.88027" lon="7.46664">
        <ele>357</ele>
        <time>2022-01-15T14:10:37.000Z</time>
      </trkpt>
      <trkpt lat="43.88031" lon="7.46654">
        <ele>357.20001220703</ele>
        <time>2022-01-15T14:10:39.000Z</time>
      </trkpt>
      <trkpt lat="43.88038" lon="7.46633">
        <ele>357.79998779297</ele>
        <time>2022-01-15T14:10:44.000Z</time>
      </trkpt>
      <trkpt lat="43.88038" lon="7.46629">
        <ele>358.20001220703</ele>
        <time>2022-01-15T14:10:45.000Z</time>
      </trkpt>
      <trkpt lat="43.88039" lon="7.46616">
        <ele>358.60000610352</ele>
        <time>2022-01-15T14:10:47.000Z</time>
      </trkpt>
      <trkpt lat="43.88039" lon="7.4661">
        <ele>358.60000610352</ele>
        <time>2022-01-15T14:10:48.000Z</time>
      </trkpt>
      <trkpt lat="43.88041" lon="7.46601">
        <ele>358.20001220703</ele>
        <time>2022-01-15T14:10:50.000Z</time>
      </trkpt>
      <trkpt lat="43.88042" lon="7.46597">
        <ele>358</ele>
        <time>2022-01-15T14:10:51.000Z</time>
      </trkpt>
      <trkpt lat="43.88044" lon="7.46576">
        <ele>357.60000610352</ele>
        <time>2022-01-15T14:10:55.000Z</time>
      </trkpt>
      <trkpt lat="43.88045" lon="7.46561">
        <ele>357.79998779297</ele>
        <time>2022-01-15T14:10:58.000Z</time>
      </trkpt>
      <trkpt lat="43.88044" lon="7.46557">
        <ele>358</ele>
        <time>2022-01-15T14:10:59.000Z</time>
      </trkpt>
      <trkpt lat="43.88045" lon="7.46535">
        <ele>358.39999389648</ele>
        <time>2022-01-15T14:11:03.000Z</time>
      </trkpt>
      <trkpt lat="43.88041" lon="7.46518">
        <ele>358.60000610352</ele>
        <time>2022-01-15T14:11:07.000Z</time>
      </trkpt>
      <trkpt lat="43.8804" lon="7.46508">
        <ele>358.60000610352</ele>
        <time>2022-01-15T14:11:09.000Z</time>
      </trkpt>
      <trkpt lat="43.88042" lon="7.46497">
        <ele>358.79998779297</ele>
        <time>2022-01-15T14:11:11.000Z</time>
      </trkpt>
      <trkpt lat="43.88041" lon="7.46482">
        <ele>358.60000610352</ele>
        <time>2022-01-15T14:11:15.000Z</time>
      </trkpt>
      <trkpt lat="43.88041" lon="7.46478">
        <ele>359.20001220703</ele>
        <time>2022-01-15T14:11:17.000Z</time>
      </trkpt>
      <trkpt lat="43.88041" lon="7.46475">
        <ele>359.39999389648</ele>
        <time>2022-01-15T14:11:18.000Z</time>
      </trkpt>
      <trkpt lat="43.88041" lon="7.46468">
        <ele>360.39999389648</ele>
        <time>2022-01-15T14:11:20.000Z</time>
      </trkpt>
      <trkpt lat="43.88041" lon="7.46466">
        <ele>360.60000610352</ele>
        <time>2022-01-15T14:11:21.000Z</time>
      </trkpt>
      <trkpt lat="43.88041" lon="7.46458">
        <ele>361.39999389648</ele>
        <time>2022-01-15T14:11:23.000Z</time>
      </trkpt>
      <trkpt lat="43.88041" lon="7.46445">
        <ele>362.79998779297</ele>
        <time>2022-01-15T14:11:26.000Z</time>
      </trkpt>
      <trkpt lat="43.88041" lon="7.46443">
        <ele>363</ele>
        <time>2022-01-15T14:11:27.000Z</time>
      </trkpt>
      <trkpt lat="43.8804" lon="7.46437">
        <ele>363.79998779297</ele>
        <time>2022-01-15T14:11:30.000Z</time>
      </trkpt>
      <trkpt lat="43.8804" lon="7.46436">
        <ele>364.60000610352</ele>
        <time>2022-01-15T14:11:32.000Z</time>
      </trkpt>
      <trkpt lat="43.88039" lon="7.46436">
        <ele>365</ele>
        <time>2022-01-15T14:11:34.000Z</time>
      </trkpt>
      <trkpt lat="43.88038" lon="7.46435">
        <ele>365.20001220703</ele>
        <time>2022-01-15T14:11:48.000Z</time>
      </trkpt>
      <trkpt lat="43.88037" lon="7.46432">
        <ele>365.39999389648</ele>
        <time>2022-01-15T14:11:59.000Z</time>
      </trkpt>
      <trkpt lat="43.88031" lon="7.46413">
        <ele>365.39999389648</ele>
        <time>2022-01-15T14:12:05.000Z</time>
      </trkpt>
      <trkpt lat="43.8802" lon="7.46389">
        <ele>364.79998779297</ele>
        <time>2022-01-15T14:12:10.000Z</time>
      </trkpt>
      <trkpt lat="43.88015" lon="7.46377">
        <ele>364.20001220703</ele>
        <time>2022-01-15T14:12:12.000Z</time>
      </trkpt>
      <trkpt lat="43.88013" lon="7.46371">
        <ele>363.79998779297</ele>
        <time>2022-01-15T14:12:13.000Z</time>
      </trkpt>
      <trkpt lat="43.88011" lon="7.46362">
        <ele>363.20001220703</ele>
        <time>2022-01-15T14:12:15.000Z</time>
      </trkpt>
      <trkpt lat="43.88009" lon="7.4634">
        <ele>364.79998779297</ele>
        <time>2022-01-15T14:12:20.000Z</time>
      </trkpt>
      <trkpt lat="43.88008" lon="7.46336">
        <ele>365.20001220703</ele>
        <time>2022-01-15T14:12:21.000Z</time>
      </trkpt>
      <trkpt lat="43.88003" lon="7.46318">
        <ele>365.79998779297</ele>
        <time>2022-01-15T14:12:25.000Z</time>
      </trkpt>
      <trkpt lat="43.88" lon="7.46307">
        <ele>366</ele>
        <time>2022-01-15T14:12:27.000Z</time>
      </trkpt>
      <trkpt lat="43.87986" lon="7.46258">
        <ele>365</ele>
        <time>2022-01-15T14:12:35.000Z</time>
      </trkpt>
      <trkpt lat="43.87982" lon="7.46245">
        <ele>364.79998779297</ele>
        <time>2022-01-15T14:12:37.000Z</time>
      </trkpt>
      <trkpt lat="43.87979" lon="7.46221">
        <ele>364.79998779297</ele>
        <time>2022-01-15T14:12:41.000Z</time>
      </trkpt>
      <trkpt lat="43.87979" lon="7.46216">
        <ele>364.79998779297</ele>
        <time>2022-01-15T14:12:42.000Z</time>
      </trkpt>
      <trkpt lat="43.87981" lon="7.46194">
        <ele>365.79998779297</ele>
        <time>2022-01-15T14:12:46.000Z</time>
      </trkpt>
      <trkpt lat="43.87982" lon="7.46178">
        <ele>366.79998779297</ele>
        <time>2022-01-15T14:12:49.000Z</time>
      </trkpt>
      <trkpt lat="43.87983" lon="7.46173">
        <ele>367.20001220703</ele>
        <time>2022-01-15T14:12:50.000Z</time>
      </trkpt>
      <trkpt lat="43.87984" lon="7.46155">
        <ele>368.39999389648</ele>
        <time>2022-01-15T14:12:54.000Z</time>
      </trkpt>
      <trkpt lat="43.87984" lon="7.46144">
        <ele>369.39999389648</ele>
        <time>2022-01-15T14:12:57.000Z</time>
      </trkpt>
      <trkpt lat="43.87984" lon="7.46139">
        <ele>369.60000610352</ele>
        <time>2022-01-15T14:12:58.000Z</time>
      </trkpt>
      <trkpt lat="43.87984" lon="7.46126">
        <ele>370.79998779297</ele>
        <time>2022-01-15T14:13:01.000Z</time>
      </trkpt>
      <trkpt lat="43.87984" lon="7.46113">
        <ele>371.79998779297</ele>
        <time>2022-01-15T14:13:04.000Z</time>
      </trkpt>
      <trkpt lat="43.87983" lon="7.46101">
        <ele>373</ele>
        <time>2022-01-15T14:13:07.000Z</time>
      </trkpt>
      <trkpt lat="43.87983" lon="7.46092">
        <ele>374.20001220703</ele>
        <time>2022-01-15T14:13:10.000Z</time>
      </trkpt>
      <trkpt lat="43.87983" lon="7.46086">
        <ele>375</ele>
        <time>2022-01-15T14:13:12.000Z</time>
      </trkpt>
      <trkpt lat="43.87982" lon="7.46083">
        <ele>375.39999389648</ele>
        <time>2022-01-15T14:13:13.000Z</time>
      </trkpt>
      <trkpt lat="43.87981" lon="7.46073">
        <ele>376.60000610352</ele>
        <time>2022-01-15T14:13:17.000Z</time>
      </trkpt>
      <trkpt lat="43.87983" lon="7.46069">
        <ele>377.20001220703</ele>
        <time>2022-01-15T14:13:19.000Z</time>
      </trkpt>
      <trkpt lat="43.87984" lon="7.46067">
        <ele>377.79998779297</ele>
        <time>2022-01-15T14:13:21.000Z</time>
      </trkpt>
      <trkpt lat="43.87984" lon="7.46067">
        <ele>378</ele>
        <time>2022-01-15T14:13:24.000Z</time>
      </trkpt>
      <trkpt lat="43.87984" lon="7.46066">
        <ele>378.20001220703</ele>
        <time>2022-01-15T14:13:37.000Z</time>
      </trkpt>
      <trkpt lat="43.87985" lon="7.46063">
        <ele>378.20001220703</ele>
        <time>2022-01-15T14:13:53.000Z</time>
      </trkpt>
      <trkpt lat="43.87987" lon="7.46046">
        <ele>377.79998779297</ele>
        <time>2022-01-15T14:13:58.000Z</time>
      </trkpt>
      <trkpt lat="43.87987" lon="7.46016">
        <ele>377.39999389648</ele>
        <time>2022-01-15T14:14:04.000Z</time>
      </trkpt>
      <trkpt lat="43.87981" lon="7.45982">
        <ele>376.60000610352</ele>
        <time>2022-01-15T14:14:10.000Z</time>
      </trkpt>
      <trkpt lat="43.87979" lon="7.45975">
        <ele>376.60000610352</ele>
        <time>2022-01-15T14:14:11.000Z</time>
      </trkpt>
      <trkpt lat="43.87965" lon="7.45923">
        <ele>375.60000610352</ele>
        <time>2022-01-15T14:14:19.000Z</time>
      </trkpt>
      <trkpt lat="43.87962" lon="7.45894">
        <ele>374.39999389648</ele>
        <time>2022-01-15T14:14:23.000Z</time>
      </trkpt>
      <trkpt lat="43.87959" lon="7.4587">
        <ele>373.79998779297</ele>
        <time>2022-01-15T14:14:26.000Z</time>
      </trkpt>
      <trkpt lat="43.87957" lon="7.45846">
        <ele>373.39999389648</ele>
        <time>2022-01-15T14:14:29.000Z</time>
      </trkpt>
      <trkpt lat="43.87954" lon="7.45805">
        <ele>373</ele>
        <time>2022-01-15T14:14:34.000Z</time>
      </trkpt>
      <trkpt lat="43.87944" lon="7.45736">
        <ele>372.79998779297</ele>
        <time>2022-01-15T14:14:43.000Z</time>
      </trkpt>
      <trkpt lat="43.87932" lon="7.4568">
        <ele>373</ele>
        <time>2022-01-15T14:14:51.000Z</time>
      </trkpt>
      <trkpt lat="43.87929" lon="7.45665">
        <ele>372.79998779297</ele>
        <time>2022-01-15T14:14:53.000Z</time>
      </trkpt>
      <trkpt lat="43.87924" lon="7.45652">
        <ele>372.79998779297</ele>
        <time>2022-01-15T14:14:55.000Z</time>
      </trkpt>
      <trkpt lat="43.87923" lon="7.45644">
        <ele>372.79998779297</ele>
        <time>2022-01-15T14:14:56.000Z</time>
      </trkpt>
      <trkpt lat="43.87908" lon="7.45583">
        <ele>373</ele>
        <time>2022-01-15T14:15:05.000Z</time>
      </trkpt>
      <trkpt lat="43.87885" lon="7.45515">
        <ele>372.60000610352</ele>
        <time>2022-01-15T14:15:15.000Z</time>
      </trkpt>
      <trkpt lat="43.87874" lon="7.45479">
        <ele>372.79998779297</ele>
        <time>2022-01-15T14:15:20.000Z</time>
      </trkpt>
      <trkpt lat="43.87871" lon="7.45464">
        <ele>372.60000610352</ele>
        <time>2022-01-15T14:15:22.000Z</time>
      </trkpt>
      <trkpt lat="43.87868" lon="7.4545">
        <ele>372.20001220703</ele>
        <time>2022-01-15T14:15:24.000Z</time>
      </trkpt>
      <trkpt lat="43.8786" lon="7.45416">
        <ele>372.79998779297</ele>
        <time>2022-01-15T14:15:29.000Z</time>
      </trkpt>
      <trkpt lat="43.8785" lon="7.45382">
        <ele>373.20001220703</ele>
        <time>2022-01-15T14:15:34.000Z</time>
      </trkpt>
      <trkpt lat="43.87841" lon="7.4535">
        <ele>373</ele>
        <time>2022-01-15T14:15:39.000Z</time>
      </trkpt>
      <trkpt lat="43.87831" lon="7.453">
        <ele>373.39999389648</ele>
        <time>2022-01-15T14:15:47.000Z</time>
      </trkpt>
      <trkpt lat="43.87827" lon="7.4527">
        <ele>373.79998779297</ele>
        <time>2022-01-15T14:15:52.000Z</time>
      </trkpt>
      <trkpt lat="43.87822" lon="7.45248">
        <ele>374.20001220703</ele>
        <time>2022-01-15T14:15:56.000Z</time>
      </trkpt>
      <trkpt lat="43.87811" lon="7.45219">
        <ele>375.39999389648</ele>
        <time>2022-01-15T14:16:02.000Z</time>
      </trkpt>
      <trkpt lat="43.87811" lon="7.45214">
        <ele>375.60000610352</ele>
        <time>2022-01-15T14:16:03.000Z</time>
      </trkpt>
      <trkpt lat="43.8781" lon="7.45188">
        <ele>376.60000610352</ele>
        <time>2022-01-15T14:16:08.000Z</time>
      </trkpt>
      <trkpt lat="43.8781" lon="7.45183">
        <ele>376.60000610352</ele>
        <time>2022-01-15T14:16:09.000Z</time>
      </trkpt>
      <trkpt lat="43.87807" lon="7.45171">
        <ele>377</ele>
        <time>2022-01-15T14:16:11.000Z</time>
      </trkpt>
      <trkpt lat="43.87803" lon="7.4515">
        <ele>377.60000610352</ele>
        <time>2022-01-15T14:16:15.000Z</time>
      </trkpt>
      <trkpt lat="43.87794" lon="7.45128">
        <ele>378.60000610352</ele>
        <time>2022-01-15T14:16:20.000Z</time>
      </trkpt>
      <trkpt lat="43.8779" lon="7.45124">
        <ele>378.79998779297</ele>
        <time>2022-01-15T14:16:21.000Z</time>
      </trkpt>
      <trkpt lat="43.87777" lon="7.45111">
        <ele>379.60000610352</ele>
        <time>2022-01-15T14:16:25.000Z</time>
      </trkpt>
      <trkpt lat="43.87763" lon="7.45096">
        <ele>380</ele>
        <time>2022-01-15T14:16:29.000Z</time>
      </trkpt>
      <trkpt lat="43.87757" lon="7.45088">
        <ele>380.20001220703</ele>
        <time>2022-01-15T14:16:31.000Z</time>
      </trkpt>
      <trkpt lat="43.87756" lon="7.4507">
        <ele>380.39999389648</ele>
        <time>2022-01-15T14:16:34.000Z</time>
      </trkpt>
      <trkpt lat="43.87758" lon="7.45052">
        <ele>380.60000610352</ele>
        <time>2022-01-15T14:16:37.000Z</time>
      </trkpt>
      <trkpt lat="43.87758" lon="7.45046">
        <ele>380.79998779297</ele>
        <time>2022-01-15T14:16:38.000Z</time>
      </trkpt>
      <trkpt lat="43.87759" lon="7.45028">
        <ele>380.79998779297</ele>
        <time>2022-01-15T14:16:41.000Z</time>
      </trkpt>
      <trkpt lat="43.87764" lon="7.44974">
        <ele>380.79998779297</ele>
        <time>2022-01-15T14:16:50.000Z</time>
      </trkpt>
      <trkpt lat="43.87767" lon="7.44956">
        <ele>380.79998779297</ele>
        <time>2022-01-15T14:16:53.000Z</time>
      </trkpt>
      <trkpt lat="43.8777" lon="7.44945">
        <ele>381</ele>
        <time>2022-01-15T14:16:55.000Z</time>
      </trkpt>
      <trkpt lat="43.87774" lon="7.44933">
        <ele>381</ele>
        <time>2022-01-15T14:16:57.000Z</time>
      </trkpt>
      <trkpt lat="43.87781" lon="7.4491">
        <ele>380.39999389648</ele>
        <time>2022-01-15T14:17:01.000Z</time>
      </trkpt>
      <trkpt lat="43.87782" lon="7.44897">
        <ele>380.20001220703</ele>
        <time>2022-01-15T14:17:03.000Z</time>
      </trkpt>
      <trkpt lat="43.87784" lon="7.44853">
        <ele>379.79998779297</ele>
        <time>2022-01-15T14:17:10.000Z</time>
      </trkpt>
      <trkpt lat="43.87785" lon="7.44827">
        <ele>379.60000610352</ele>
        <time>2022-01-15T14:17:14.000Z</time>
      </trkpt>
      <trkpt lat="43.87786" lon="7.44822">
        <ele>379.60000610352</ele>
        <time>2022-01-15T14:17:15.000Z</time>
      </trkpt>
      <trkpt lat="43.87786" lon="7.44808">
        <ele>379.20001220703</ele>
        <time>2022-01-15T14:17:17.000Z</time>
      </trkpt>
      <trkpt lat="43.87789" lon="7.4477">
        <ele>379</ele>
        <time>2022-01-15T14:17:24.000Z</time>
      </trkpt>
      <trkpt lat="43.87797" lon="7.44742">
        <ele>379.60000610352</ele>
        <time>2022-01-15T14:17:30.000Z</time>
      </trkpt>
      <trkpt lat="43.87803" lon="7.44737">
        <ele>379.79998779297</ele>
        <time>2022-01-15T14:17:32.000Z</time>
      </trkpt>
      <trkpt lat="43.87811" lon="7.44737">
        <ele>380</ele>
        <time>2022-01-15T14:17:34.000Z</time>
      </trkpt>
      <trkpt lat="43.87823" lon="7.44739">
        <ele>379.60000610352</ele>
        <time>2022-01-15T14:17:37.000Z</time>
      </trkpt>
      <trkpt lat="43.87836" lon="7.44742">
        <ele>379.39999389648</ele>
        <time>2022-01-15T14:17:40.000Z</time>
      </trkpt>
      <trkpt lat="43.87849" lon="7.44742">
        <ele>379.20001220703</ele>
        <time>2022-01-15T14:17:43.000Z</time>
      </trkpt>
      <trkpt lat="43.87854" lon="7.44734">
        <ele>378.79998779297</ele>
        <time>2022-01-15T14:17:45.000Z</time>
      </trkpt>
      <trkpt lat="43.87858" lon="7.44723">
        <ele>378.60000610352</ele>
        <time>2022-01-15T14:17:47.000Z</time>
      </trkpt>
      <trkpt lat="43.87861" lon="7.44709">
        <ele>378.20001220703</ele>
        <time>2022-01-15T14:17:50.000Z</time>
      </trkpt>
      <trkpt lat="43.87863" lon="7.44702">
        <ele>378.39999389648</ele>
        <time>2022-01-15T14:17:52.000Z</time>
      </trkpt>
      <trkpt lat="43.87867" lon="7.44694">
        <ele>378.60000610352</ele>
        <time>2022-01-15T14:17:54.000Z</time>
      </trkpt>
      <trkpt lat="43.87878" lon="7.44679">
        <ele>378.79998779297</ele>
        <time>2022-01-15T14:17:59.000Z</time>
      </trkpt>
      <trkpt lat="43.87884" lon="7.44675">
        <ele>379.20001220703</ele>
        <time>2022-01-15T14:18:03.000Z</time>
      </trkpt>
      <trkpt lat="43.87884" lon="7.44675">
        <ele>379.60000610352</ele>
        <time>2022-01-15T14:18:08.000Z</time>
      </trkpt>
      <trkpt lat="43.87882" lon="7.44674">
        <ele>379.39999389648</ele>
        <time>2022-01-15T14:18:16.000Z</time>
      </trkpt>
      <trkpt lat="43.87881" lon="7.44672">
        <ele>379.39999389648</ele>
        <time>2022-01-15T14:18:33.000Z</time>
      </trkpt>
      <trkpt lat="43.87881" lon="7.44671">
        <ele>379.39999389648</ele>
        <time>2022-01-15T14:18:55.000Z</time>
      </trkpt>
      <trkpt lat="43.87882" lon="7.44672">
        <ele>379.39999389648</ele>
        <time>2022-01-15T14:19:23.000Z</time>
      </trkpt>
      <trkpt lat="43.87882" lon="7.44672">
        <ele>379.39999389648</ele>
        <time>2022-01-15T14:19:45.000Z</time>
      </trkpt>
      <trkpt lat="43.87883" lon="7.44673">
        <ele>379.39999389648</ele>
        <time>2022-01-15T14:20:11.000Z</time>
      </trkpt>
      <trkpt lat="43.87883" lon="7.44673">
        <ele>379.60000610352</ele>
        <time>2022-01-15T14:20:35.000Z</time>
      </trkpt>
      <trkpt lat="43.87882" lon="7.44674">
        <ele>379.39999389648</ele>
        <time>2022-01-15T14:20:44.000Z</time>
      </trkpt>
      <trkpt lat="43.87882" lon="7.44672">
        <ele>379.20001220703</ele>
        <time>2022-01-15T14:20:48.000Z</time>
      </trkpt>
      <trkpt lat="43.87882" lon="7.44665">
        <ele>379.20001220703</ele>
        <time>2022-01-15T14:20:55.000Z</time>
      </trkpt>
      <trkpt lat="43.87882" lon="7.44664">
        <ele>379.39999389648</ele>
        <time>2022-01-15T14:20:58.000Z</time>
      </trkpt>
      <trkpt lat="43.87883" lon="7.44664">
        <ele>379.39999389648</ele>
        <time>2022-01-15T14:20:59.000Z</time>
      </trkpt>
      <trkpt lat="43.87886" lon="7.44663">
        <ele>379.60000610352</ele>
        <time>2022-01-15T14:21:02.000Z</time>
      </trkpt>
      <trkpt lat="43.87888" lon="7.44662">
        <ele>379.60000610352</ele>
        <time>2022-01-15T14:21:03.000Z</time>
      </trkpt>
      <trkpt lat="43.87902" lon="7.44648">
        <ele>379.79998779297</ele>
        <time>2022-01-15T14:21:10.000Z</time>
      </trkpt>
      <trkpt lat="43.87916" lon="7.44636">
        <ele>380.79998779297</ele>
        <time>2022-01-15T14:21:15.000Z</time>
      </trkpt>
      <trkpt lat="43.87922" lon="7.44629">
        <ele>381.20001220703</ele>
        <time>2022-01-15T14:21:17.000Z</time>
      </trkpt>
      <trkpt lat="43.87932" lon="7.44619">
        <ele>381.79998779297</ele>
        <time>2022-01-15T14:21:20.000Z</time>
      </trkpt>
      <trkpt lat="43.87945" lon="7.44603">
        <ele>382</ele>
        <time>2022-01-15T14:21:24.000Z</time>
      </trkpt>
      <trkpt lat="43.87949" lon="7.446">
        <ele>382</ele>
        <time>2022-01-15T14:21:25.000Z</time>
      </trkpt>
      <trkpt lat="43.87973" lon="7.44576">
        <ele>381.79998779297</ele>
        <time>2022-01-15T14:21:32.000Z</time>
      </trkpt>
      <trkpt lat="43.87987" lon="7.44562">
        <ele>382</ele>
        <time>2022-01-15T14:21:36.000Z</time>
      </trkpt>
      <trkpt lat="43.87993" lon="7.44554">
        <ele>382</ele>
        <time>2022-01-15T14:21:38.000Z</time>
      </trkpt>
      <trkpt lat="43.88006" lon="7.44533">
        <ele>382</ele>
        <time>2022-01-15T14:21:43.000Z</time>
      </trkpt>
      <trkpt lat="43.8802" lon="7.44501">
        <ele>382.39999389648</ele>
        <time>2022-01-15T14:21:50.000Z</time>
      </trkpt>
      <trkpt lat="43.88031" lon="7.44471">
        <ele>383</ele>
        <time>2022-01-15T14:21:56.000Z</time>
      </trkpt>
      <trkpt lat="43.88033" lon="7.44467">
        <ele>383</ele>
        <time>2022-01-15T14:21:57.000Z</time>
      </trkpt>
      <trkpt lat="43.88037" lon="7.44446">
        <ele>383.60000610352</ele>
        <time>2022-01-15T14:22:02.000Z</time>
      </trkpt>
      <trkpt lat="43.88036" lon="7.44443">
        <ele>383.79998779297</ele>
        <time>2022-01-15T14:22:03.000Z</time>
      </trkpt>
      <trkpt lat="43.88022" lon="7.44426">
        <ele>383.60000610352</ele>
        <time>2022-01-15T14:22:08.000Z</time>
      </trkpt>
      <trkpt lat="43.88005" lon="7.44405">
        <ele>382.39999389648</ele>
        <time>2022-01-15T14:22:14.000Z</time>
      </trkpt>
      <trkpt lat="43.88001" lon="7.44402">
        <ele>382.60000610352</ele>
        <time>2022-01-15T14:22:16.000Z</time>
      </trkpt>
      <trkpt lat="43.88002" lon="7.44402">
        <ele>382.60000610352</ele>
        <time>2022-01-15T14:22:17.000Z</time>
      </trkpt>
      <trkpt lat="43.88" lon="7.44403">
        <ele>382.79998779297</ele>
        <time>2022-01-15T14:22:23.000Z</time>
      </trkpt>
      <trkpt lat="43.88001" lon="7.44404">
        <ele>382.79998779297</ele>
        <time>2022-01-15T14:22:34.000Z</time>
      </trkpt>
      <trkpt lat="43.88003" lon="7.44405">
        <ele>382.79998779297</ele>
        <time>2022-01-15T14:22:48.000Z</time>
      </trkpt>
      <trkpt lat="43.88005" lon="7.44405">
        <ele>383</ele>
        <time>2022-01-15T14:23:04.000Z</time>
      </trkpt>
      <trkpt lat="43.88007" lon="7.44404">
        <ele>383</ele>
        <time>2022-01-15T14:23:24.000Z</time>
      </trkpt>
      <trkpt lat="43.88006" lon="7.44403">
        <ele>383</ele>
        <time>2022-01-15T14:23:44.000Z</time>
      </trkpt>
      <trkpt lat="43.88007" lon="7.44402">
        <ele>383</ele>
        <time>2022-01-15T14:23:46.000Z</time>
      </trkpt>
      <trkpt lat="43.88007" lon="7.44403">
        <ele>382.60000610352</ele>
        <time>2022-01-15T14:23:49.000Z</time>
      </trkpt>
      <trkpt lat="43.88008" lon="7.44404">
        <ele>382.60000610352</ele>
        <time>2022-01-15T14:23:59.000Z</time>
      </trkpt>
      <trkpt lat="43.88008" lon="7.44405">
        <ele>381.60000610352</ele>
        <time>2022-01-15T14:24:03.000Z</time>
      </trkpt>
      <trkpt lat="43.88009" lon="7.44407">
        <ele>381.79998779297</ele>
        <time>2022-01-15T14:24:17.000Z</time>
      </trkpt>
      <trkpt lat="43.88009" lon="7.44408">
        <ele>381.60000610352</ele>
        <time>2022-01-15T14:24:31.000Z</time>
      </trkpt>
      <trkpt lat="43.88009" lon="7.44409">
        <ele>382.39999389648</ele>
        <time>2022-01-15T14:24:41.000Z</time>
      </trkpt>
      <trkpt lat="43.88009" lon="7.44409">
        <ele>381.60000610352</ele>
        <time>2022-01-15T14:24:52.000Z</time>
      </trkpt>
      <trkpt lat="43.88008" lon="7.44408">
        <ele>382.20001220703</ele>
        <time>2022-01-15T14:25:00.000Z</time>
      </trkpt>
      <trkpt lat="43.88008" lon="7.44407">
        <ele>382.39999389648</ele>
        <time>2022-01-15T14:25:11.000Z</time>
      </trkpt>
      <trkpt lat="43.88008" lon="7.44408">
        <ele>382.79998779297</ele>
        <time>2022-01-15T14:25:16.000Z</time>
      </trkpt>
      <trkpt lat="43.88007" lon="7.44409">
        <ele>382.79998779297</ele>
        <time>2022-01-15T14:25:17.000Z</time>
      </trkpt>
      <trkpt lat="43.88007" lon="7.4441">
        <ele>382.60000610352</ele>
        <time>2022-01-15T14:25:20.000Z</time>
      </trkpt>
      <trkpt lat="43.88008" lon="7.44406">
        <ele>382.60000610352</ele>
        <time>2022-01-15T14:25:26.000Z</time>
      </trkpt>
      <trkpt lat="43.88009" lon="7.44407">
        <ele>382.79998779297</ele>
        <time>2022-01-15T14:25:36.000Z</time>
      </trkpt>
      <trkpt lat="43.88009" lon="7.44406">
        <ele>382.60000610352</ele>
        <time>2022-01-15T14:25:48.000Z</time>
      </trkpt>
      <trkpt lat="43.88009" lon="7.44406">
        <ele>382.39999389648</ele>
        <time>2022-01-15T14:25:53.000Z</time>
      </trkpt>
      <trkpt lat="43.88007" lon="7.44405">
        <ele>382.60000610352</ele>
        <time>2022-01-15T14:26:03.000Z</time>
      </trkpt>
      <trkpt lat="43.88008" lon="7.44405">
        <ele>382.20001220703</ele>
        <time>2022-01-15T14:26:11.000Z</time>
      </trkpt>
      <trkpt lat="43.88007" lon="7.44405">
        <ele>382.60000610352</ele>
        <time>2022-01-15T14:26:20.000Z</time>
      </trkpt>
      <trkpt lat="43.88007" lon="7.44406">
        <ele>382.79998779297</ele>
        <time>2022-01-15T14:26:26.000Z</time>
      </trkpt>
      <trkpt lat="43.88009" lon="7.44406">
        <ele>382.20001220703</ele>
        <time>2022-01-15T14:26:41.000Z</time>
      </trkpt>
      <trkpt lat="43.88009" lon="7.44406">
        <ele>381.60000610352</ele>
        <time>2022-01-15T14:26:45.000Z</time>
      </trkpt>
      <trkpt lat="43.88009" lon="7.44405">
        <ele>382.39999389648</ele>
        <time>2022-01-15T14:26:50.000Z</time>
      </trkpt>
      <trkpt lat="43.88007" lon="7.44407">
        <ele>382.20001220703</ele>
        <time>2022-01-15T14:26:57.000Z</time>
      </trkpt>
      <trkpt lat="43.88007" lon="7.4441">
        <ele>382</ele>
        <time>2022-01-15T14:27:06.000Z</time>
      </trkpt>
      <trkpt lat="43.88008" lon="7.4441">
        <ele>382</ele>
        <time>2022-01-15T14:27:12.000Z</time>
      </trkpt>
    </trkseg>
  </trk>
</gpx>